<?xml version="1.0" encoding="UTF-8" standalone="no" ?>
<gpx xmlns="http://www.topografix.com/GPX/1/1" xmlns:xsi="http://www.w3.org/2001/XMLSchema-instance" xsi:schemaLocation="http://www.topografix.com/GPX/1/1 http://www.topografix.com/GPX/1/1/gpx.xsd" version="1.1" creator="VisuGPX - https://www.visugpx.com">
  <metadata>
    <name>Les scies</name>
  </metadata>
  <trk>
    <name><![CDATA[Sortie à vélo du midi]]></name>
    <trkseg>
      <trkpt lat="45.44676" lon="4.58361">
        <ele>465.4</ele>
        <time>1970-01-01T00:00:00.000Z</time>
      </trkpt>
      <trkpt lat="45.44664" lon="4.58351">
        <ele>466.8</ele>
        <time>1970-01-01T00:00:02.000Z</time>
      </trkpt>
      <trkpt lat="45.44658" lon="4.58347">
        <ele>466</ele>
        <time>1970-01-01T00:00:03.000Z</time>
      </trkpt>
      <trkpt lat="45.44667" lon="4.58341">
        <ele>466</ele>
        <time>1970-01-01T00:00:06.000Z</time>
      </trkpt>
      <trkpt lat="45.44666" lon="4.58338">
        <ele>466</ele>
        <time>1970-01-01T00:00:10.000Z</time>
      </trkpt>
      <trkpt lat="45.44665" lon="4.58334">
        <ele>466</ele>
        <time>1970-01-01T00:00:12.000Z</time>
      </trkpt>
      <trkpt lat="45.44667" lon="4.58337">
        <ele>465.9</ele>
        <time>1970-01-01T00:00:26.000Z</time>
      </trkpt>
      <trkpt lat="45.44666" lon="4.58343">
        <ele>465.8</ele>
        <time>1970-01-01T00:00:48.000Z</time>
      </trkpt>
      <trkpt lat="45.44669" lon="4.5834">
        <ele>465.7</ele>
        <time>1970-01-01T00:03:18.000Z</time>
      </trkpt>
      <trkpt lat="45.44673" lon="4.5834">
        <ele>465.6</ele>
        <time>1970-01-01T00:03:21.000Z</time>
      </trkpt>
      <trkpt lat="45.44677" lon="4.58341">
        <ele>465.5</ele>
        <time>1970-01-01T00:03:23.000Z</time>
      </trkpt>
      <trkpt lat="45.44681" lon="4.58343">
        <ele>465.4</ele>
        <time>1970-01-01T00:03:25.000Z</time>
      </trkpt>
      <trkpt lat="45.44684" lon="4.58343">
        <ele>465.3</ele>
        <time>1970-01-01T00:03:28.000Z</time>
      </trkpt>
      <trkpt lat="45.44687" lon="4.58341">
        <ele>465.3</ele>
        <time>1970-01-01T00:03:30.000Z</time>
      </trkpt>
      <trkpt lat="45.4469" lon="4.58342">
        <ele>465.2</ele>
        <time>1970-01-01T00:03:33.000Z</time>
      </trkpt>
      <trkpt lat="45.44695" lon="4.58346">
        <ele>465.1</ele>
        <time>1970-01-01T00:03:35.000Z</time>
      </trkpt>
      <trkpt lat="45.44699" lon="4.58348">
        <ele>465</ele>
        <time>1970-01-01T00:03:36.000Z</time>
      </trkpt>
      <trkpt lat="45.44703" lon="4.5835">
        <ele>465</ele>
        <time>1970-01-01T00:03:37.000Z</time>
      </trkpt>
      <trkpt lat="45.44708" lon="4.58353">
        <ele>465.1</ele>
        <time>1970-01-01T00:03:39.000Z</time>
      </trkpt>
      <trkpt lat="45.44711" lon="4.58355">
        <ele>465.2</ele>
        <time>1970-01-01T00:03:40.000Z</time>
      </trkpt>
      <trkpt lat="45.44715" lon="4.58358">
        <ele>465.4</ele>
        <time>1970-01-01T00:03:42.000Z</time>
      </trkpt>
      <trkpt lat="45.44716" lon="4.58362">
        <ele>466</ele>
        <time>1970-01-01T00:03:43.000Z</time>
      </trkpt>
      <trkpt lat="45.44716" lon="4.5837">
        <ele>466</ele>
        <time>1970-01-01T00:03:45.000Z</time>
      </trkpt>
      <trkpt lat="45.44716" lon="4.58374">
        <ele>466.6</ele>
        <time>1970-01-01T00:03:46.000Z</time>
      </trkpt>
      <trkpt lat="45.44714" lon="4.58378">
        <ele>466.7</ele>
        <time>1970-01-01T00:03:47.000Z</time>
      </trkpt>
      <trkpt lat="45.44713" lon="4.58381">
        <ele>466.9</ele>
        <time>1970-01-01T00:03:48.000Z</time>
      </trkpt>
      <trkpt lat="45.4471" lon="4.58385">
        <ele>467.1</ele>
        <time>1970-01-01T00:03:49.000Z</time>
      </trkpt>
      <trkpt lat="45.44708" lon="4.58388">
        <ele>467.3</ele>
        <time>1970-01-01T00:03:50.000Z</time>
      </trkpt>
      <trkpt lat="45.44705" lon="4.5839">
        <ele>467.5</ele>
        <time>1970-01-01T00:03:51.000Z</time>
      </trkpt>
      <trkpt lat="45.44703" lon="4.58393">
        <ele>467.7</ele>
        <time>1970-01-01T00:03:52.000Z</time>
      </trkpt>
      <trkpt lat="45.44699" lon="4.58396">
        <ele>468</ele>
        <time>1970-01-01T00:03:54.000Z</time>
      </trkpt>
      <trkpt lat="45.44697" lon="4.58399">
        <ele>468.3</ele>
        <time>1970-01-01T00:03:56.000Z</time>
      </trkpt>
      <trkpt lat="45.44694" lon="4.58403">
        <ele>468.6</ele>
        <time>1970-01-01T00:03:58.000Z</time>
      </trkpt>
      <trkpt lat="45.44691" lon="4.58407">
        <ele>469</ele>
        <time>1970-01-01T00:04:00.000Z</time>
      </trkpt>
      <trkpt lat="45.44689" lon="4.58411">
        <ele>469.6</ele>
        <time>1970-01-01T00:04:02.000Z</time>
      </trkpt>
      <trkpt lat="45.44687" lon="4.58416">
        <ele>470.2</ele>
        <time>1970-01-01T00:04:04.000Z</time>
      </trkpt>
      <trkpt lat="45.44684" lon="4.58419">
        <ele>470.6</ele>
        <time>1970-01-01T00:04:06.000Z</time>
      </trkpt>
      <trkpt lat="45.44681" lon="4.58423">
        <ele>471.1</ele>
        <time>1970-01-01T00:04:08.000Z</time>
      </trkpt>
      <trkpt lat="45.44678" lon="4.58426">
        <ele>471.5</ele>
        <time>1970-01-01T00:04:10.000Z</time>
      </trkpt>
      <trkpt lat="45.44675" lon="4.5843">
        <ele>472</ele>
        <time>1970-01-01T00:04:12.000Z</time>
      </trkpt>
      <trkpt lat="45.44672" lon="4.58435">
        <ele>472.4</ele>
        <time>1970-01-01T00:04:14.000Z</time>
      </trkpt>
      <trkpt lat="45.4467" lon="4.58439">
        <ele>472.8</ele>
        <time>1970-01-01T00:04:16.000Z</time>
      </trkpt>
      <trkpt lat="45.44668" lon="4.58441">
        <ele>473.2</ele>
        <time>1970-01-01T00:04:18.000Z</time>
      </trkpt>
      <trkpt lat="45.44664" lon="4.58445">
        <ele>473.7</ele>
        <time>1970-01-01T00:04:20.000Z</time>
      </trkpt>
      <trkpt lat="45.4466" lon="4.5845">
        <ele>474.3</ele>
        <time>1970-01-01T00:04:22.000Z</time>
      </trkpt>
      <trkpt lat="45.44657" lon="4.58453">
        <ele>474.9</ele>
        <time>1970-01-01T00:04:24.000Z</time>
      </trkpt>
      <trkpt lat="45.44654" lon="4.58457">
        <ele>475.5</ele>
        <time>1970-01-01T00:04:26.000Z</time>
      </trkpt>
      <trkpt lat="45.44652" lon="4.58461">
        <ele>476</ele>
        <time>1970-01-01T00:04:28.000Z</time>
      </trkpt>
      <trkpt lat="45.44648" lon="4.58464">
        <ele>476.6</ele>
        <time>1970-01-01T00:04:30.000Z</time>
      </trkpt>
      <trkpt lat="45.44644" lon="4.58468">
        <ele>477.2</ele>
        <time>1970-01-01T00:04:32.000Z</time>
      </trkpt>
      <trkpt lat="45.4464" lon="4.5847">
        <ele>477.8</ele>
        <time>1970-01-01T00:04:34.000Z</time>
      </trkpt>
      <trkpt lat="45.44637" lon="4.58474">
        <ele>478.2</ele>
        <time>1970-01-01T00:04:36.000Z</time>
      </trkpt>
      <trkpt lat="45.44634" lon="4.58477">
        <ele>478.7</ele>
        <time>1970-01-01T00:04:38.000Z</time>
      </trkpt>
      <trkpt lat="45.4463" lon="4.58481">
        <ele>479.2</ele>
        <time>1970-01-01T00:04:40.000Z</time>
      </trkpt>
      <trkpt lat="45.44627" lon="4.58485">
        <ele>479.8</ele>
        <time>1970-01-01T00:04:42.000Z</time>
      </trkpt>
      <trkpt lat="45.44624" lon="4.5849">
        <ele>480.3</ele>
        <time>1970-01-01T00:04:44.000Z</time>
      </trkpt>
      <trkpt lat="45.44621" lon="4.58495">
        <ele>480.8</ele>
        <time>1970-01-01T00:04:46.000Z</time>
      </trkpt>
      <trkpt lat="45.44618" lon="4.58499">
        <ele>481.3</ele>
        <time>1970-01-01T00:04:48.000Z</time>
      </trkpt>
      <trkpt lat="45.44616" lon="4.58503">
        <ele>481.7</ele>
        <time>1970-01-01T00:04:50.000Z</time>
      </trkpt>
      <trkpt lat="45.44614" lon="4.58509">
        <ele>482.2</ele>
        <time>1970-01-01T00:04:52.000Z</time>
      </trkpt>
      <trkpt lat="45.44613" lon="4.58514">
        <ele>482.7</ele>
        <time>1970-01-01T00:04:54.000Z</time>
      </trkpt>
      <trkpt lat="45.44612" lon="4.58518">
        <ele>483.1</ele>
        <time>1970-01-01T00:04:56.000Z</time>
      </trkpt>
      <trkpt lat="45.44611" lon="4.58523">
        <ele>483.6</ele>
        <time>1970-01-01T00:04:58.000Z</time>
      </trkpt>
      <trkpt lat="45.4461" lon="4.58527">
        <ele>484</ele>
        <time>1970-01-01T00:05:00.000Z</time>
      </trkpt>
      <trkpt lat="45.44609" lon="4.58532">
        <ele>484.1</ele>
        <time>1970-01-01T00:05:02.000Z</time>
      </trkpt>
      <trkpt lat="45.44609" lon="4.58536">
        <ele>484.2</ele>
        <time>1970-01-01T00:05:04.000Z</time>
      </trkpt>
      <trkpt lat="45.44607" lon="4.58541">
        <ele>484.5</ele>
        <time>1970-01-01T00:05:06.000Z</time>
      </trkpt>
      <trkpt lat="45.44607" lon="4.58548">
        <ele>484.8</ele>
        <time>1970-01-01T00:05:08.000Z</time>
      </trkpt>
      <trkpt lat="45.44607" lon="4.58553">
        <ele>485.1</ele>
        <time>1970-01-01T00:05:10.000Z</time>
      </trkpt>
      <trkpt lat="45.44606" lon="4.58557">
        <ele>485.4</ele>
        <time>1970-01-01T00:05:12.000Z</time>
      </trkpt>
      <trkpt lat="45.44606" lon="4.58561">
        <ele>485.8</ele>
        <time>1970-01-01T00:05:14.000Z</time>
      </trkpt>
      <trkpt lat="45.44605" lon="4.58566">
        <ele>486.2</ele>
        <time>1970-01-01T00:05:16.000Z</time>
      </trkpt>
      <trkpt lat="45.44606" lon="4.58571">
        <ele>486.6</ele>
        <time>1970-01-01T00:05:18.000Z</time>
      </trkpt>
      <trkpt lat="45.44606" lon="4.58576">
        <ele>487.2</ele>
        <time>1970-01-01T00:05:20.000Z</time>
      </trkpt>
      <trkpt lat="45.44606" lon="4.5858">
        <ele>487.6</ele>
        <time>1970-01-01T00:05:22.000Z</time>
      </trkpt>
      <trkpt lat="45.44605" lon="4.58584">
        <ele>488</ele>
        <time>1970-01-01T00:05:24.000Z</time>
      </trkpt>
      <trkpt lat="45.44604" lon="4.58589">
        <ele>488.6</ele>
        <time>1970-01-01T00:05:26.000Z</time>
      </trkpt>
      <trkpt lat="45.44604" lon="4.58594">
        <ele>489</ele>
        <time>1970-01-01T00:05:28.000Z</time>
      </trkpt>
      <trkpt lat="45.44604" lon="4.58598">
        <ele>489.2</ele>
        <time>1970-01-01T00:05:30.000Z</time>
      </trkpt>
      <trkpt lat="45.44604" lon="4.58603">
        <ele>489.5</ele>
        <time>1970-01-01T00:05:33.000Z</time>
      </trkpt>
      <trkpt lat="45.44605" lon="4.58608">
        <ele>490</ele>
        <time>1970-01-01T00:05:36.000Z</time>
      </trkpt>
      <trkpt lat="45.44605" lon="4.58614">
        <ele>490.3</ele>
        <time>1970-01-01T00:05:41.000Z</time>
      </trkpt>
      <trkpt lat="45.44606" lon="4.58619">
        <ele>490.6</ele>
        <time>1970-01-01T00:05:43.000Z</time>
      </trkpt>
      <trkpt lat="45.44608" lon="4.58624">
        <ele>490.8</ele>
        <time>1970-01-01T00:05:45.000Z</time>
      </trkpt>
      <trkpt lat="45.44607" lon="4.58631">
        <ele>491.1</ele>
        <time>1970-01-01T00:05:47.000Z</time>
      </trkpt>
      <trkpt lat="45.44607" lon="4.58636">
        <ele>491.4</ele>
        <time>1970-01-01T00:05:49.000Z</time>
      </trkpt>
      <trkpt lat="45.44606" lon="4.58642">
        <ele>491.7</ele>
        <time>1970-01-01T00:05:51.000Z</time>
      </trkpt>
      <trkpt lat="45.44606" lon="4.58649">
        <ele>492</ele>
        <time>1970-01-01T00:05:53.000Z</time>
      </trkpt>
      <trkpt lat="45.44605" lon="4.58653">
        <ele>492.3</ele>
        <time>1970-01-01T00:05:55.000Z</time>
      </trkpt>
      <trkpt lat="45.44604" lon="4.5866">
        <ele>492.6</ele>
        <time>1970-01-01T00:05:57.000Z</time>
      </trkpt>
      <trkpt lat="45.44603" lon="4.58667">
        <ele>493</ele>
        <time>1970-01-01T00:05:59.000Z</time>
      </trkpt>
      <trkpt lat="45.44603" lon="4.58672">
        <ele>493.4</ele>
        <time>1970-01-01T00:06:01.000Z</time>
      </trkpt>
      <trkpt lat="45.44602" lon="4.58676">
        <ele>493.6</ele>
        <time>1970-01-01T00:06:02.000Z</time>
      </trkpt>
      <trkpt lat="45.44602" lon="4.58681">
        <ele>493.8</ele>
        <time>1970-01-01T00:06:04.000Z</time>
      </trkpt>
      <trkpt lat="45.44601" lon="4.58687">
        <ele>494.1</ele>
        <time>1970-01-01T00:06:06.000Z</time>
      </trkpt>
      <trkpt lat="45.44601" lon="4.58693">
        <ele>494.4</ele>
        <time>1970-01-01T00:06:08.000Z</time>
      </trkpt>
      <trkpt lat="45.44601" lon="4.58698">
        <ele>494.7</ele>
        <time>1970-01-01T00:06:10.000Z</time>
      </trkpt>
      <trkpt lat="45.446" lon="4.58705">
        <ele>495.1</ele>
        <time>1970-01-01T00:06:12.000Z</time>
      </trkpt>
      <trkpt lat="45.44599" lon="4.5871">
        <ele>495.4</ele>
        <time>1970-01-01T00:06:14.000Z</time>
      </trkpt>
      <trkpt lat="45.44598" lon="4.58715">
        <ele>495.6</ele>
        <time>1970-01-01T00:06:16.000Z</time>
      </trkpt>
      <trkpt lat="45.44597" lon="4.58719">
        <ele>495.9</ele>
        <time>1970-01-01T00:06:18.000Z</time>
      </trkpt>
      <trkpt lat="45.44596" lon="4.58724">
        <ele>496.2</ele>
        <time>1970-01-01T00:06:20.000Z</time>
      </trkpt>
      <trkpt lat="45.44596" lon="4.5873">
        <ele>496.6</ele>
        <time>1970-01-01T00:06:22.000Z</time>
      </trkpt>
      <trkpt lat="45.44596" lon="4.58735">
        <ele>496.8</ele>
        <time>1970-01-01T00:06:24.000Z</time>
      </trkpt>
      <trkpt lat="45.44596" lon="4.58741">
        <ele>497.1</ele>
        <time>1970-01-01T00:06:26.000Z</time>
      </trkpt>
      <trkpt lat="45.44595" lon="4.58746">
        <ele>497.4</ele>
        <time>1970-01-01T00:06:28.000Z</time>
      </trkpt>
      <trkpt lat="45.44595" lon="4.58751">
        <ele>497.8</ele>
        <time>1970-01-01T00:06:30.000Z</time>
      </trkpt>
      <trkpt lat="45.44594" lon="4.58756">
        <ele>498.1</ele>
        <time>1970-01-01T00:06:32.000Z</time>
      </trkpt>
      <trkpt lat="45.44594" lon="4.58761">
        <ele>498.4</ele>
        <time>1970-01-01T00:06:34.000Z</time>
      </trkpt>
      <trkpt lat="45.44593" lon="4.58766">
        <ele>498.6</ele>
        <time>1970-01-01T00:06:36.000Z</time>
      </trkpt>
      <trkpt lat="45.44593" lon="4.58771">
        <ele>498.8</ele>
        <time>1970-01-01T00:06:38.000Z</time>
      </trkpt>
      <trkpt lat="45.44594" lon="4.58775">
        <ele>499.1</ele>
        <time>1970-01-01T00:06:40.000Z</time>
      </trkpt>
      <trkpt lat="45.44594" lon="4.5878">
        <ele>499.5</ele>
        <time>1970-01-01T00:06:43.000Z</time>
      </trkpt>
      <trkpt lat="45.44594" lon="4.58784">
        <ele>499.7</ele>
        <time>1970-01-01T00:06:45.000Z</time>
      </trkpt>
      <trkpt lat="45.44594" lon="4.58789">
        <ele>500</ele>
        <time>1970-01-01T00:06:48.000Z</time>
      </trkpt>
      <trkpt lat="45.44594" lon="4.58795">
        <ele>500.5</ele>
        <time>1970-01-01T00:06:52.000Z</time>
      </trkpt>
      <trkpt lat="45.44595" lon="4.588">
        <ele>500.7</ele>
        <time>1970-01-01T00:06:54.000Z</time>
      </trkpt>
      <trkpt lat="45.44596" lon="4.58805">
        <ele>501</ele>
        <time>1970-01-01T00:06:56.000Z</time>
      </trkpt>
      <trkpt lat="45.44595" lon="4.58809">
        <ele>501.3</ele>
        <time>1970-01-01T00:06:58.000Z</time>
      </trkpt>
      <trkpt lat="45.44595" lon="4.58815">
        <ele>501.7</ele>
        <time>1970-01-01T00:07:00.000Z</time>
      </trkpt>
      <trkpt lat="45.44597" lon="4.5882">
        <ele>502</ele>
        <time>1970-01-01T00:07:02.000Z</time>
      </trkpt>
      <trkpt lat="45.44598" lon="4.58826">
        <ele>502.3</ele>
        <time>1970-01-01T00:07:04.000Z</time>
      </trkpt>
      <trkpt lat="45.44598" lon="4.5883">
        <ele>502.5</ele>
        <time>1970-01-01T00:07:05.000Z</time>
      </trkpt>
      <trkpt lat="45.44597" lon="4.58834">
        <ele>502.7</ele>
        <time>1970-01-01T00:07:07.000Z</time>
      </trkpt>
      <trkpt lat="45.44596" lon="4.58839">
        <ele>502.9</ele>
        <time>1970-01-01T00:07:09.000Z</time>
      </trkpt>
      <trkpt lat="45.44597" lon="4.58842">
        <ele>503.1</ele>
        <time>1970-01-01T00:07:11.000Z</time>
      </trkpt>
      <trkpt lat="45.44598" lon="4.5885">
        <ele>503.5</ele>
        <time>1970-01-01T00:07:13.000Z</time>
      </trkpt>
      <trkpt lat="45.44599" lon="4.58858">
        <ele>504</ele>
        <time>1970-01-01T00:07:15.000Z</time>
      </trkpt>
      <trkpt lat="45.446" lon="4.58862">
        <ele>504.2</ele>
        <time>1970-01-01T00:07:17.000Z</time>
      </trkpt>
      <trkpt lat="45.446" lon="4.58867">
        <ele>504.5</ele>
        <time>1970-01-01T00:07:19.000Z</time>
      </trkpt>
      <trkpt lat="45.44601" lon="4.58874">
        <ele>504.9</ele>
        <time>1970-01-01T00:07:21.000Z</time>
      </trkpt>
      <trkpt lat="45.44601" lon="4.58881">
        <ele>505.3</ele>
        <time>1970-01-01T00:07:23.000Z</time>
      </trkpt>
      <trkpt lat="45.44602" lon="4.58884">
        <ele>505.5</ele>
        <time>1970-01-01T00:07:25.000Z</time>
      </trkpt>
      <trkpt lat="45.44603" lon="4.58888">
        <ele>505.7</ele>
        <time>1970-01-01T00:07:26.000Z</time>
      </trkpt>
      <trkpt lat="45.44603" lon="4.58893">
        <ele>506</ele>
        <time>1970-01-01T00:07:28.000Z</time>
      </trkpt>
      <trkpt lat="45.44605" lon="4.58898">
        <ele>506.4</ele>
        <time>1970-01-01T00:07:30.000Z</time>
      </trkpt>
      <trkpt lat="45.44606" lon="4.58902">
        <ele>506.6</ele>
        <time>1970-01-01T00:07:31.000Z</time>
      </trkpt>
      <trkpt lat="45.44607" lon="4.58907">
        <ele>506.9</ele>
        <time>1970-01-01T00:07:33.000Z</time>
      </trkpt>
      <trkpt lat="45.44607" lon="4.58912">
        <ele>507.3</ele>
        <time>1970-01-01T00:07:35.000Z</time>
      </trkpt>
      <trkpt lat="45.44607" lon="4.58917">
        <ele>507.6</ele>
        <time>1970-01-01T00:07:36.000Z</time>
      </trkpt>
      <trkpt lat="45.44607" lon="4.58922">
        <ele>507.9</ele>
        <time>1970-01-01T00:07:37.000Z</time>
      </trkpt>
      <trkpt lat="45.44606" lon="4.58926">
        <ele>508.2</ele>
        <time>1970-01-01T00:07:38.000Z</time>
      </trkpt>
      <trkpt lat="45.44606" lon="4.5893">
        <ele>508.5</ele>
        <time>1970-01-01T00:07:39.000Z</time>
      </trkpt>
      <trkpt lat="45.44606" lon="4.58936">
        <ele>508.8</ele>
        <time>1970-01-01T00:07:41.000Z</time>
      </trkpt>
      <trkpt lat="45.44607" lon="4.58944">
        <ele>509.3</ele>
        <time>1970-01-01T00:07:43.000Z</time>
      </trkpt>
      <trkpt lat="45.44607" lon="4.5895">
        <ele>509.6</ele>
        <time>1970-01-01T00:07:45.000Z</time>
      </trkpt>
      <trkpt lat="45.44607" lon="4.58954">
        <ele>509.9</ele>
        <time>1970-01-01T00:07:46.000Z</time>
      </trkpt>
      <trkpt lat="45.44609" lon="4.58959">
        <ele>510.2</ele>
        <time>1970-01-01T00:07:48.000Z</time>
      </trkpt>
      <trkpt lat="45.4461" lon="4.58963">
        <ele>510.5</ele>
        <time>1970-01-01T00:07:50.000Z</time>
      </trkpt>
      <trkpt lat="45.44612" lon="4.58968">
        <ele>510.8</ele>
        <time>1970-01-01T00:07:52.000Z</time>
      </trkpt>
      <trkpt lat="45.44613" lon="4.58975">
        <ele>511.2</ele>
        <time>1970-01-01T00:07:54.000Z</time>
      </trkpt>
      <trkpt lat="45.44614" lon="4.58982">
        <ele>511.6</ele>
        <time>1970-01-01T00:07:56.000Z</time>
      </trkpt>
      <trkpt lat="45.44614" lon="4.58986">
        <ele>511.8</ele>
        <time>1970-01-01T00:07:57.000Z</time>
      </trkpt>
      <trkpt lat="45.44615" lon="4.58992">
        <ele>512.1</ele>
        <time>1970-01-01T00:07:59.000Z</time>
      </trkpt>
      <trkpt lat="45.44616" lon="4.58998">
        <ele>512.4</ele>
        <time>1970-01-01T00:08:01.000Z</time>
      </trkpt>
      <trkpt lat="45.44618" lon="4.59003">
        <ele>512.6</ele>
        <time>1970-01-01T00:08:03.000Z</time>
      </trkpt>
      <trkpt lat="45.44619" lon="4.59008">
        <ele>512.8</ele>
        <time>1970-01-01T00:08:05.000Z</time>
      </trkpt>
      <trkpt lat="45.44619" lon="4.59012">
        <ele>513</ele>
        <time>1970-01-01T00:08:06.000Z</time>
      </trkpt>
      <trkpt lat="45.44619" lon="4.59019">
        <ele>513.4</ele>
        <time>1970-01-01T00:08:08.000Z</time>
      </trkpt>
      <trkpt lat="45.44621" lon="4.59023">
        <ele>513.6</ele>
        <time>1970-01-01T00:08:10.000Z</time>
      </trkpt>
      <trkpt lat="45.44622" lon="4.59029">
        <ele>513.7</ele>
        <time>1970-01-01T00:08:12.000Z</time>
      </trkpt>
      <trkpt lat="45.44623" lon="4.59034">
        <ele>513.9</ele>
        <time>1970-01-01T00:08:14.000Z</time>
      </trkpt>
      <trkpt lat="45.44625" lon="4.5904">
        <ele>514.1</ele>
        <time>1970-01-01T00:08:16.000Z</time>
      </trkpt>
      <trkpt lat="45.44625" lon="4.59044">
        <ele>514.2</ele>
        <time>1970-01-01T00:08:17.000Z</time>
      </trkpt>
      <trkpt lat="45.44626" lon="4.59051">
        <ele>514.4</ele>
        <time>1970-01-01T00:08:19.000Z</time>
      </trkpt>
      <trkpt lat="45.44627" lon="4.59058">
        <ele>514.7</ele>
        <time>1970-01-01T00:08:21.000Z</time>
      </trkpt>
      <trkpt lat="45.44629" lon="4.59064">
        <ele>514.9</ele>
        <time>1970-01-01T00:08:23.000Z</time>
      </trkpt>
      <trkpt lat="45.44629" lon="4.59067">
        <ele>515</ele>
        <time>1970-01-01T00:08:24.000Z</time>
      </trkpt>
      <trkpt lat="45.44631" lon="4.59072">
        <ele>515.2</ele>
        <time>1970-01-01T00:08:26.000Z</time>
      </trkpt>
      <trkpt lat="45.44632" lon="4.59078">
        <ele>515.5</ele>
        <time>1970-01-01T00:08:28.000Z</time>
      </trkpt>
      <trkpt lat="45.44634" lon="4.59084">
        <ele>515.7</ele>
        <time>1970-01-01T00:08:30.000Z</time>
      </trkpt>
      <trkpt lat="45.44636" lon="4.5909">
        <ele>516</ele>
        <time>1970-01-01T00:08:32.000Z</time>
      </trkpt>
      <trkpt lat="45.44638" lon="4.59096">
        <ele>516.2</ele>
        <time>1970-01-01T00:08:34.000Z</time>
      </trkpt>
      <trkpt lat="45.44639" lon="4.59103">
        <ele>516.4</ele>
        <time>1970-01-01T00:08:36.000Z</time>
      </trkpt>
      <trkpt lat="45.4464" lon="4.59109">
        <ele>516.8</ele>
        <time>1970-01-01T00:08:38.000Z</time>
      </trkpt>
      <trkpt lat="45.44642" lon="4.59115">
        <ele>517</ele>
        <time>1970-01-01T00:08:40.000Z</time>
      </trkpt>
      <trkpt lat="45.44644" lon="4.59121">
        <ele>517.2</ele>
        <time>1970-01-01T00:08:42.000Z</time>
      </trkpt>
      <trkpt lat="45.44645" lon="4.59128">
        <ele>517.4</ele>
        <time>1970-01-01T00:08:44.000Z</time>
      </trkpt>
      <trkpt lat="45.44646" lon="4.59134">
        <ele>517.7</ele>
        <time>1970-01-01T00:08:46.000Z</time>
      </trkpt>
      <trkpt lat="45.44647" lon="4.5914">
        <ele>517.9</ele>
        <time>1970-01-01T00:08:48.000Z</time>
      </trkpt>
      <trkpt lat="45.44649" lon="4.59147">
        <ele>518.1</ele>
        <time>1970-01-01T00:08:50.000Z</time>
      </trkpt>
      <trkpt lat="45.4465" lon="4.59152">
        <ele>518.5</ele>
        <time>1970-01-01T00:08:52.000Z</time>
      </trkpt>
      <trkpt lat="45.44652" lon="4.59157">
        <ele>518.7</ele>
        <time>1970-01-01T00:08:54.000Z</time>
      </trkpt>
      <trkpt lat="45.44653" lon="4.59162">
        <ele>518.9</ele>
        <time>1970-01-01T00:08:56.000Z</time>
      </trkpt>
      <trkpt lat="45.44655" lon="4.59167">
        <ele>519.1</ele>
        <time>1970-01-01T00:08:58.000Z</time>
      </trkpt>
      <trkpt lat="45.44656" lon="4.59171">
        <ele>519.3</ele>
        <time>1970-01-01T00:09:00.000Z</time>
      </trkpt>
      <trkpt lat="45.44658" lon="4.59175">
        <ele>519.6</ele>
        <time>1970-01-01T00:09:02.000Z</time>
      </trkpt>
      <trkpt lat="45.44659" lon="4.59181">
        <ele>520</ele>
        <time>1970-01-01T00:09:04.000Z</time>
      </trkpt>
      <trkpt lat="45.44661" lon="4.59186">
        <ele>520.3</ele>
        <time>1970-01-01T00:09:06.000Z</time>
      </trkpt>
      <trkpt lat="45.44663" lon="4.59192">
        <ele>520.6</ele>
        <time>1970-01-01T00:09:08.000Z</time>
      </trkpt>
      <trkpt lat="45.44666" lon="4.59196">
        <ele>521</ele>
        <time>1970-01-01T00:09:10.000Z</time>
      </trkpt>
      <trkpt lat="45.44668" lon="4.59201">
        <ele>521.3</ele>
        <time>1970-01-01T00:09:12.000Z</time>
      </trkpt>
      <trkpt lat="45.44671" lon="4.59206">
        <ele>521.6</ele>
        <time>1970-01-01T00:09:14.000Z</time>
      </trkpt>
      <trkpt lat="45.44674" lon="4.59209">
        <ele>521.8</ele>
        <time>1970-01-01T00:09:16.000Z</time>
      </trkpt>
      <trkpt lat="45.44677" lon="4.59213">
        <ele>522.1</ele>
        <time>1970-01-01T00:09:18.000Z</time>
      </trkpt>
      <trkpt lat="45.44681" lon="4.59217">
        <ele>522.4</ele>
        <time>1970-01-01T00:09:20.000Z</time>
      </trkpt>
      <trkpt lat="45.44685" lon="4.5922">
        <ele>522.7</ele>
        <time>1970-01-01T00:09:22.000Z</time>
      </trkpt>
      <trkpt lat="45.44689" lon="4.59224">
        <ele>522.9</ele>
        <time>1970-01-01T00:09:24.000Z</time>
      </trkpt>
      <trkpt lat="45.44693" lon="4.59227">
        <ele>523.1</ele>
        <time>1970-01-01T00:09:26.000Z</time>
      </trkpt>
      <trkpt lat="45.44698" lon="4.59231">
        <ele>523.4</ele>
        <time>1970-01-01T00:09:28.000Z</time>
      </trkpt>
      <trkpt lat="45.44701" lon="4.59233">
        <ele>523.5</ele>
        <time>1970-01-01T00:09:29.000Z</time>
      </trkpt>
      <trkpt lat="45.44704" lon="4.59237">
        <ele>523.6</ele>
        <time>1970-01-01T00:09:31.000Z</time>
      </trkpt>
      <trkpt lat="45.44706" lon="4.5924">
        <ele>523.7</ele>
        <time>1970-01-01T00:09:32.000Z</time>
      </trkpt>
      <trkpt lat="45.44709" lon="4.59246">
        <ele>523.9</ele>
        <time>1970-01-01T00:09:34.000Z</time>
      </trkpt>
      <trkpt lat="45.44711" lon="4.59249">
        <ele>524</ele>
        <time>1970-01-01T00:09:35.000Z</time>
      </trkpt>
      <trkpt lat="45.44713" lon="4.59255">
        <ele>524</ele>
        <time>1970-01-01T00:09:37.000Z</time>
      </trkpt>
      <trkpt lat="45.44713" lon="4.59259">
        <ele>524.2</ele>
        <time>1970-01-01T00:09:38.000Z</time>
      </trkpt>
      <trkpt lat="45.44713" lon="4.59263">
        <ele>524.3</ele>
        <time>1970-01-01T00:09:39.000Z</time>
      </trkpt>
      <trkpt lat="45.44712" lon="4.5927">
        <ele>524.5</ele>
        <time>1970-01-01T00:09:41.000Z</time>
      </trkpt>
      <trkpt lat="45.4471" lon="4.59276">
        <ele>524.7</ele>
        <time>1970-01-01T00:09:43.000Z</time>
      </trkpt>
      <trkpt lat="45.44707" lon="4.59281">
        <ele>525</ele>
        <time>1970-01-01T00:09:45.000Z</time>
      </trkpt>
      <trkpt lat="45.44705" lon="4.59286">
        <ele>525.2</ele>
        <time>1970-01-01T00:09:47.000Z</time>
      </trkpt>
      <trkpt lat="45.44703" lon="4.59292">
        <ele>525.5</ele>
        <time>1970-01-01T00:09:49.000Z</time>
      </trkpt>
      <trkpt lat="45.44701" lon="4.59296">
        <ele>525.8</ele>
        <time>1970-01-01T00:09:51.000Z</time>
      </trkpt>
      <trkpt lat="45.44699" lon="4.59302">
        <ele>526.1</ele>
        <time>1970-01-01T00:09:53.000Z</time>
      </trkpt>
      <trkpt lat="45.44697" lon="4.59307">
        <ele>526.4</ele>
        <time>1970-01-01T00:09:55.000Z</time>
      </trkpt>
      <trkpt lat="45.44696" lon="4.59313">
        <ele>526.8</ele>
        <time>1970-01-01T00:09:57.000Z</time>
      </trkpt>
      <trkpt lat="45.44696" lon="4.59319">
        <ele>527.1</ele>
        <time>1970-01-01T00:09:59.000Z</time>
      </trkpt>
      <trkpt lat="45.44696" lon="4.59323">
        <ele>527.3</ele>
        <time>1970-01-01T00:10:00.000Z</time>
      </trkpt>
      <trkpt lat="45.44696" lon="4.5933">
        <ele>527.6</ele>
        <time>1970-01-01T00:10:02.000Z</time>
      </trkpt>
      <trkpt lat="45.44696" lon="4.59336">
        <ele>528</ele>
        <time>1970-01-01T00:10:04.000Z</time>
      </trkpt>
      <trkpt lat="45.44696" lon="4.59341">
        <ele>528.3</ele>
        <time>1970-01-01T00:10:06.000Z</time>
      </trkpt>
      <trkpt lat="45.44697" lon="4.59345">
        <ele>528.7</ele>
        <time>1970-01-01T00:10:08.000Z</time>
      </trkpt>
      <trkpt lat="45.44697" lon="4.59351">
        <ele>529</ele>
        <time>1970-01-01T00:10:10.000Z</time>
      </trkpt>
      <trkpt lat="45.44697" lon="4.59356">
        <ele>529.2</ele>
        <time>1970-01-01T00:10:12.000Z</time>
      </trkpt>
      <trkpt lat="45.44697" lon="4.59362">
        <ele>529.5</ele>
        <time>1970-01-01T00:10:14.000Z</time>
      </trkpt>
      <trkpt lat="45.44698" lon="4.59367">
        <ele>529.7</ele>
        <time>1970-01-01T00:10:16.000Z</time>
      </trkpt>
      <trkpt lat="45.44699" lon="4.5937">
        <ele>529.9</ele>
        <time>1970-01-01T00:10:17.000Z</time>
      </trkpt>
      <trkpt lat="45.447" lon="4.59376">
        <ele>530.2</ele>
        <time>1970-01-01T00:10:19.000Z</time>
      </trkpt>
      <trkpt lat="45.44702" lon="4.59383">
        <ele>530.5</ele>
        <time>1970-01-01T00:10:21.000Z</time>
      </trkpt>
      <trkpt lat="45.44704" lon="4.5939">
        <ele>530.8</ele>
        <time>1970-01-01T00:10:23.000Z</time>
      </trkpt>
      <trkpt lat="45.44706" lon="4.59395">
        <ele>531</ele>
        <time>1970-01-01T00:10:25.000Z</time>
      </trkpt>
      <trkpt lat="45.44706" lon="4.59402">
        <ele>531.2</ele>
        <time>1970-01-01T00:10:27.000Z</time>
      </trkpt>
      <trkpt lat="45.44707" lon="4.5941">
        <ele>531.4</ele>
        <time>1970-01-01T00:10:29.000Z</time>
      </trkpt>
      <trkpt lat="45.44708" lon="4.59413">
        <ele>531.5</ele>
        <time>1970-01-01T00:10:30.000Z</time>
      </trkpt>
      <trkpt lat="45.44709" lon="4.59417">
        <ele>531.6</ele>
        <time>1970-01-01T00:10:31.000Z</time>
      </trkpt>
      <trkpt lat="45.4471" lon="4.59424">
        <ele>531.9</ele>
        <time>1970-01-01T00:10:33.000Z</time>
      </trkpt>
      <trkpt lat="45.44711" lon="4.59429">
        <ele>532</ele>
        <time>1970-01-01T00:10:34.000Z</time>
      </trkpt>
      <trkpt lat="45.44713" lon="4.59434">
        <ele>532.2</ele>
        <time>1970-01-01T00:10:36.000Z</time>
      </trkpt>
      <trkpt lat="45.44714" lon="4.59441">
        <ele>532.4</ele>
        <time>1970-01-01T00:10:38.000Z</time>
      </trkpt>
      <trkpt lat="45.44715" lon="4.59445">
        <ele>532.5</ele>
        <time>1970-01-01T00:10:39.000Z</time>
      </trkpt>
      <trkpt lat="45.44715" lon="4.59454">
        <ele>532.8</ele>
        <time>1970-01-01T00:10:41.000Z</time>
      </trkpt>
      <trkpt lat="45.44715" lon="4.59461">
        <ele>533</ele>
        <time>1970-01-01T00:10:43.000Z</time>
      </trkpt>
      <trkpt lat="45.44715" lon="4.59467">
        <ele>533.2</ele>
        <time>1970-01-01T00:10:45.000Z</time>
      </trkpt>
      <trkpt lat="45.44713" lon="4.5947">
        <ele>533.4</ele>
        <time>1970-01-01T00:10:46.000Z</time>
      </trkpt>
      <trkpt lat="45.4471" lon="4.59476">
        <ele>533.8</ele>
        <time>1970-01-01T00:10:48.000Z</time>
      </trkpt>
      <trkpt lat="45.44708" lon="4.59482">
        <ele>534.1</ele>
        <time>1970-01-01T00:10:50.000Z</time>
      </trkpt>
      <trkpt lat="45.44706" lon="4.59485">
        <ele>534.2</ele>
        <time>1970-01-01T00:10:51.000Z</time>
      </trkpt>
      <trkpt lat="45.44704" lon="4.59489">
        <ele>534.5</ele>
        <time>1970-01-01T00:10:52.000Z</time>
      </trkpt>
      <trkpt lat="45.44702" lon="4.59493">
        <ele>534.6</ele>
        <time>1970-01-01T00:10:53.000Z</time>
      </trkpt>
      <trkpt lat="45.44699" lon="4.59499">
        <ele>535</ele>
        <time>1970-01-01T00:10:55.000Z</time>
      </trkpt>
      <trkpt lat="45.44695" lon="4.59503">
        <ele>535.4</ele>
        <time>1970-01-01T00:10:57.000Z</time>
      </trkpt>
      <trkpt lat="45.44691" lon="4.59507">
        <ele>535.9</ele>
        <time>1970-01-01T00:10:59.000Z</time>
      </trkpt>
      <trkpt lat="45.44687" lon="4.5951">
        <ele>536.3</ele>
        <time>1970-01-01T00:11:01.000Z</time>
      </trkpt>
      <trkpt lat="45.44684" lon="4.59513">
        <ele>536.6</ele>
        <time>1970-01-01T00:11:03.000Z</time>
      </trkpt>
      <trkpt lat="45.44681" lon="4.59516">
        <ele>536.9</ele>
        <time>1970-01-01T00:11:05.000Z</time>
      </trkpt>
      <trkpt lat="45.44679" lon="4.59521">
        <ele>537.2</ele>
        <time>1970-01-01T00:11:07.000Z</time>
      </trkpt>
      <trkpt lat="45.44676" lon="4.59526">
        <ele>537.7</ele>
        <time>1970-01-01T00:11:09.000Z</time>
      </trkpt>
      <trkpt lat="45.44675" lon="4.59531">
        <ele>538.1</ele>
        <time>1970-01-01T00:11:11.000Z</time>
      </trkpt>
      <trkpt lat="45.44675" lon="4.59536">
        <ele>538.5</ele>
        <time>1970-01-01T00:11:13.000Z</time>
      </trkpt>
      <trkpt lat="45.44673" lon="4.59541">
        <ele>538.9</ele>
        <time>1970-01-01T00:11:15.000Z</time>
      </trkpt>
      <trkpt lat="45.44673" lon="4.59546">
        <ele>539.2</ele>
        <time>1970-01-01T00:11:17.000Z</time>
      </trkpt>
      <trkpt lat="45.44673" lon="4.5955">
        <ele>539.5</ele>
        <time>1970-01-01T00:11:19.000Z</time>
      </trkpt>
      <trkpt lat="45.44672" lon="4.59555">
        <ele>539.9</ele>
        <time>1970-01-01T00:11:21.000Z</time>
      </trkpt>
      <trkpt lat="45.44673" lon="4.59559">
        <ele>540.1</ele>
        <time>1970-01-01T00:11:24.000Z</time>
      </trkpt>
      <trkpt lat="45.44674" lon="4.59563">
        <ele>540.4</ele>
        <time>1970-01-01T00:11:26.000Z</time>
      </trkpt>
      <trkpt lat="45.44675" lon="4.59567">
        <ele>540.6</ele>
        <time>1970-01-01T00:11:28.000Z</time>
      </trkpt>
      <trkpt lat="45.44678" lon="4.59569">
        <ele>540.9</ele>
        <time>1970-01-01T00:11:30.000Z</time>
      </trkpt>
      <trkpt lat="45.44681" lon="4.59571">
        <ele>541.1</ele>
        <time>1970-01-01T00:11:32.000Z</time>
      </trkpt>
      <trkpt lat="45.44684" lon="4.59574">
        <ele>541.4</ele>
        <time>1970-01-01T00:11:34.000Z</time>
      </trkpt>
      <trkpt lat="45.44687" lon="4.59576">
        <ele>541.6</ele>
        <time>1970-01-01T00:11:35.000Z</time>
      </trkpt>
      <trkpt lat="45.44689" lon="4.59579">
        <ele>541.9</ele>
        <time>1970-01-01T00:11:37.000Z</time>
      </trkpt>
      <trkpt lat="45.44692" lon="4.59582">
        <ele>542.1</ele>
        <time>1970-01-01T00:11:39.000Z</time>
      </trkpt>
      <trkpt lat="45.44695" lon="4.59585">
        <ele>542.4</ele>
        <time>1970-01-01T00:11:41.000Z</time>
      </trkpt>
      <trkpt lat="45.44699" lon="4.59588">
        <ele>542.7</ele>
        <time>1970-01-01T00:11:43.000Z</time>
      </trkpt>
      <trkpt lat="45.44703" lon="4.59591">
        <ele>543.1</ele>
        <time>1970-01-01T00:11:45.000Z</time>
      </trkpt>
      <trkpt lat="45.44705" lon="4.59593">
        <ele>543.3</ele>
        <time>1970-01-01T00:11:46.000Z</time>
      </trkpt>
      <trkpt lat="45.4471" lon="4.59596">
        <ele>543.8</ele>
        <time>1970-01-01T00:11:48.000Z</time>
      </trkpt>
      <trkpt lat="45.44713" lon="4.59599">
        <ele>544.1</ele>
        <time>1970-01-01T00:11:50.000Z</time>
      </trkpt>
      <trkpt lat="45.44716" lon="4.59603">
        <ele>544.5</ele>
        <time>1970-01-01T00:11:52.000Z</time>
      </trkpt>
      <trkpt lat="45.44718" lon="4.59606">
        <ele>544.7</ele>
        <time>1970-01-01T00:11:53.000Z</time>
      </trkpt>
      <trkpt lat="45.44722" lon="4.5961">
        <ele>545</ele>
        <time>1970-01-01T00:11:55.000Z</time>
      </trkpt>
      <trkpt lat="45.44723" lon="4.59614">
        <ele>545.1</ele>
        <time>1970-01-01T00:11:56.000Z</time>
      </trkpt>
      <trkpt lat="45.44725" lon="4.59617">
        <ele>545.3</ele>
        <time>1970-01-01T00:11:57.000Z</time>
      </trkpt>
      <trkpt lat="45.44728" lon="4.59622">
        <ele>545.6</ele>
        <time>1970-01-01T00:11:59.000Z</time>
      </trkpt>
      <trkpt lat="45.44729" lon="4.59626">
        <ele>545.8</ele>
        <time>1970-01-01T00:12:00.000Z</time>
      </trkpt>
      <trkpt lat="45.4473" lon="4.5963">
        <ele>546.1</ele>
        <time>1970-01-01T00:12:01.000Z</time>
      </trkpt>
      <trkpt lat="45.44732" lon="4.59636">
        <ele>546.9</ele>
        <time>1970-01-01T00:12:03.000Z</time>
      </trkpt>
      <trkpt lat="45.44733" lon="4.59641">
        <ele>547.4</ele>
        <time>1970-01-01T00:12:05.000Z</time>
      </trkpt>
      <trkpt lat="45.44736" lon="4.5965">
        <ele>548.2</ele>
        <time>1970-01-01T00:12:07.000Z</time>
      </trkpt>
      <trkpt lat="45.44737" lon="4.59653">
        <ele>548.6</ele>
        <time>1970-01-01T00:12:08.000Z</time>
      </trkpt>
      <trkpt lat="45.44739" lon="4.59659">
        <ele>549.1</ele>
        <time>1970-01-01T00:12:10.000Z</time>
      </trkpt>
      <trkpt lat="45.4474" lon="4.59665">
        <ele>549.6</ele>
        <time>1970-01-01T00:12:12.000Z</time>
      </trkpt>
      <trkpt lat="45.4474" lon="4.59672">
        <ele>550.3</ele>
        <time>1970-01-01T00:12:14.000Z</time>
      </trkpt>
      <trkpt lat="45.44741" lon="4.59676">
        <ele>550.7</ele>
        <time>1970-01-01T00:12:16.000Z</time>
      </trkpt>
      <trkpt lat="45.44743" lon="4.59682">
        <ele>551.2</ele>
        <time>1970-01-01T00:12:19.000Z</time>
      </trkpt>
      <trkpt lat="45.44743" lon="4.59686">
        <ele>551.5</ele>
        <time>1970-01-01T00:12:21.000Z</time>
      </trkpt>
      <trkpt lat="45.44744" lon="4.59692">
        <ele>552.1</ele>
        <time>1970-01-01T00:12:23.000Z</time>
      </trkpt>
      <trkpt lat="45.44745" lon="4.59696">
        <ele>552.4</ele>
        <time>1970-01-01T00:12:24.000Z</time>
      </trkpt>
      <trkpt lat="45.44746" lon="4.59703">
        <ele>553</ele>
        <time>1970-01-01T00:12:26.000Z</time>
      </trkpt>
      <trkpt lat="45.44747" lon="4.5971">
        <ele>553.6</ele>
        <time>1970-01-01T00:12:28.000Z</time>
      </trkpt>
      <trkpt lat="45.44747" lon="4.59714">
        <ele>553.9</ele>
        <time>1970-01-01T00:12:29.000Z</time>
      </trkpt>
      <trkpt lat="45.44747" lon="4.5972">
        <ele>554.5</ele>
        <time>1970-01-01T00:12:31.000Z</time>
      </trkpt>
      <trkpt lat="45.44747" lon="4.59726">
        <ele>555</ele>
        <time>1970-01-01T00:12:33.000Z</time>
      </trkpt>
      <trkpt lat="45.44748" lon="4.59732">
        <ele>555.5</ele>
        <time>1970-01-01T00:12:35.000Z</time>
      </trkpt>
      <trkpt lat="45.44748" lon="4.59737">
        <ele>556</ele>
        <time>1970-01-01T00:12:37.000Z</time>
      </trkpt>
      <trkpt lat="45.44747" lon="4.59744">
        <ele>556.7</ele>
        <time>1970-01-01T00:12:39.000Z</time>
      </trkpt>
      <trkpt lat="45.44747" lon="4.59748">
        <ele>557</ele>
        <time>1970-01-01T00:12:40.000Z</time>
      </trkpt>
      <trkpt lat="45.44746" lon="4.59752">
        <ele>557.4</ele>
        <time>1970-01-01T00:12:41.000Z</time>
      </trkpt>
      <trkpt lat="45.44745" lon="4.59756">
        <ele>557.8</ele>
        <time>1970-01-01T00:12:42.000Z</time>
      </trkpt>
      <trkpt lat="45.44743" lon="4.59761">
        <ele>558.3</ele>
        <time>1970-01-01T00:12:44.000Z</time>
      </trkpt>
      <trkpt lat="45.44742" lon="4.59764">
        <ele>558.7</ele>
        <time>1970-01-01T00:12:45.000Z</time>
      </trkpt>
      <trkpt lat="45.4474" lon="4.59771">
        <ele>559.3</ele>
        <time>1970-01-01T00:12:47.000Z</time>
      </trkpt>
      <trkpt lat="45.44737" lon="4.59777">
        <ele>559.9</ele>
        <time>1970-01-01T00:12:49.000Z</time>
      </trkpt>
      <trkpt lat="45.44736" lon="4.5978">
        <ele>560.2</ele>
        <time>1970-01-01T00:12:50.000Z</time>
      </trkpt>
      <trkpt lat="45.44733" lon="4.59786">
        <ele>560.7</ele>
        <time>1970-01-01T00:12:52.000Z</time>
      </trkpt>
      <trkpt lat="45.44731" lon="4.59792">
        <ele>561.3</ele>
        <time>1970-01-01T00:12:54.000Z</time>
      </trkpt>
      <trkpt lat="45.44729" lon="4.59797">
        <ele>561.8</ele>
        <time>1970-01-01T00:12:56.000Z</time>
      </trkpt>
      <trkpt lat="45.44726" lon="4.59801">
        <ele>562.3</ele>
        <time>1970-01-01T00:12:58.000Z</time>
      </trkpt>
      <trkpt lat="45.44724" lon="4.59807">
        <ele>562.9</ele>
        <time>1970-01-01T00:13:00.000Z</time>
      </trkpt>
      <trkpt lat="45.44721" lon="4.59812">
        <ele>563.4</ele>
        <time>1970-01-01T00:13:02.000Z</time>
      </trkpt>
      <trkpt lat="45.44718" lon="4.59816">
        <ele>563.9</ele>
        <time>1970-01-01T00:13:04.000Z</time>
      </trkpt>
      <trkpt lat="45.44715" lon="4.5982">
        <ele>564.4</ele>
        <time>1970-01-01T00:13:06.000Z</time>
      </trkpt>
      <trkpt lat="45.44712" lon="4.59824">
        <ele>564.9</ele>
        <time>1970-01-01T00:13:08.000Z</time>
      </trkpt>
      <trkpt lat="45.44709" lon="4.59827">
        <ele>565.4</ele>
        <time>1970-01-01T00:13:10.000Z</time>
      </trkpt>
      <trkpt lat="45.44706" lon="4.59831">
        <ele>565.9</ele>
        <time>1970-01-01T00:13:12.000Z</time>
      </trkpt>
      <trkpt lat="45.44703" lon="4.59834">
        <ele>566.3</ele>
        <time>1970-01-01T00:13:14.000Z</time>
      </trkpt>
      <trkpt lat="45.44701" lon="4.59838">
        <ele>566.9</ele>
        <time>1970-01-01T00:13:16.000Z</time>
      </trkpt>
      <trkpt lat="45.44698" lon="4.59845">
        <ele>567.6</ele>
        <time>1970-01-01T00:13:18.000Z</time>
      </trkpt>
      <trkpt lat="45.44696" lon="4.5985">
        <ele>568.2</ele>
        <time>1970-01-01T00:13:20.000Z</time>
      </trkpt>
      <trkpt lat="45.44694" lon="4.59854">
        <ele>568.6</ele>
        <time>1970-01-01T00:13:22.000Z</time>
      </trkpt>
      <trkpt lat="45.44691" lon="4.59858">
        <ele>569</ele>
        <time>1970-01-01T00:13:24.000Z</time>
      </trkpt>
      <trkpt lat="45.44688" lon="4.59863">
        <ele>569.5</ele>
        <time>1970-01-01T00:13:26.000Z</time>
      </trkpt>
      <trkpt lat="45.44685" lon="4.59868">
        <ele>570</ele>
        <time>1970-01-01T00:13:28.000Z</time>
      </trkpt>
      <trkpt lat="45.44682" lon="4.59871">
        <ele>570.5</ele>
        <time>1970-01-01T00:13:30.000Z</time>
      </trkpt>
      <trkpt lat="45.4468" lon="4.59876">
        <ele>570.9</ele>
        <time>1970-01-01T00:13:32.000Z</time>
      </trkpt>
      <trkpt lat="45.44677" lon="4.59881">
        <ele>571.3</ele>
        <time>1970-01-01T00:13:34.000Z</time>
      </trkpt>
      <trkpt lat="45.44675" lon="4.59886">
        <ele>571.7</ele>
        <time>1970-01-01T00:13:36.000Z</time>
      </trkpt>
      <trkpt lat="45.44673" lon="4.59892">
        <ele>572.2</ele>
        <time>1970-01-01T00:13:38.000Z</time>
      </trkpt>
      <trkpt lat="45.44672" lon="4.59898">
        <ele>572.6</ele>
        <time>1970-01-01T00:13:40.000Z</time>
      </trkpt>
      <trkpt lat="45.4467" lon="4.59903">
        <ele>573</ele>
        <time>1970-01-01T00:13:42.000Z</time>
      </trkpt>
      <trkpt lat="45.44669" lon="4.5991">
        <ele>573.5</ele>
        <time>1970-01-01T00:13:44.000Z</time>
      </trkpt>
      <trkpt lat="45.44669" lon="4.59915">
        <ele>573.9</ele>
        <time>1970-01-01T00:13:46.000Z</time>
      </trkpt>
      <trkpt lat="45.44668" lon="4.59921">
        <ele>574.3</ele>
        <time>1970-01-01T00:13:48.000Z</time>
      </trkpt>
      <trkpt lat="45.44667" lon="4.59926">
        <ele>574.8</ele>
        <time>1970-01-01T00:13:50.000Z</time>
      </trkpt>
      <trkpt lat="45.44666" lon="4.59931">
        <ele>575.1</ele>
        <time>1970-01-01T00:13:52.000Z</time>
      </trkpt>
      <trkpt lat="45.44666" lon="4.59936">
        <ele>575.5</ele>
        <time>1970-01-01T00:13:54.000Z</time>
      </trkpt>
      <trkpt lat="45.44666" lon="4.59941">
        <ele>575.9</ele>
        <time>1970-01-01T00:13:56.000Z</time>
      </trkpt>
      <trkpt lat="45.44667" lon="4.59947">
        <ele>576.3</ele>
        <time>1970-01-01T00:13:58.000Z</time>
      </trkpt>
      <trkpt lat="45.44668" lon="4.59953">
        <ele>576.7</ele>
        <time>1970-01-01T00:14:00.000Z</time>
      </trkpt>
      <trkpt lat="45.44667" lon="4.59958">
        <ele>577.1</ele>
        <time>1970-01-01T00:14:02.000Z</time>
      </trkpt>
      <trkpt lat="45.44667" lon="4.59964">
        <ele>577.5</ele>
        <time>1970-01-01T00:14:04.000Z</time>
      </trkpt>
      <trkpt lat="45.44667" lon="4.59969">
        <ele>578</ele>
        <time>1970-01-01T00:14:06.000Z</time>
      </trkpt>
      <trkpt lat="45.44666" lon="4.59975">
        <ele>578.4</ele>
        <time>1970-01-01T00:14:08.000Z</time>
      </trkpt>
      <trkpt lat="45.44666" lon="4.59981">
        <ele>578.9</ele>
        <time>1970-01-01T00:14:10.000Z</time>
      </trkpt>
      <trkpt lat="45.44664" lon="4.59986">
        <ele>579.4</ele>
        <time>1970-01-01T00:14:12.000Z</time>
      </trkpt>
      <trkpt lat="45.44662" lon="4.59993">
        <ele>580</ele>
        <time>1970-01-01T00:14:14.000Z</time>
      </trkpt>
      <trkpt lat="45.44661" lon="4.59999">
        <ele>580.5</ele>
        <time>1970-01-01T00:14:16.000Z</time>
      </trkpt>
      <trkpt lat="45.44662" lon="4.60004">
        <ele>581</ele>
        <time>1970-01-01T00:14:18.000Z</time>
      </trkpt>
      <trkpt lat="45.44663" lon="4.60009">
        <ele>581.4</ele>
        <time>1970-01-01T00:14:20.000Z</time>
      </trkpt>
      <trkpt lat="45.44666" lon="4.60013">
        <ele>581.9</ele>
        <time>1970-01-01T00:14:22.000Z</time>
      </trkpt>
      <trkpt lat="45.44669" lon="4.60014">
        <ele>582.3</ele>
        <time>1970-01-01T00:14:24.000Z</time>
      </trkpt>
      <trkpt lat="45.44672" lon="4.60012">
        <ele>582.7</ele>
        <time>1970-01-01T00:14:26.000Z</time>
      </trkpt>
      <trkpt lat="45.44675" lon="4.60011">
        <ele>583.1</ele>
        <time>1970-01-01T00:14:27.000Z</time>
      </trkpt>
      <trkpt lat="45.44678" lon="4.60007">
        <ele>583.7</ele>
        <time>1970-01-01T00:14:28.000Z</time>
      </trkpt>
      <trkpt lat="45.4468" lon="4.60001">
        <ele>584.5</ele>
        <time>1970-01-01T00:14:30.000Z</time>
      </trkpt>
      <trkpt lat="45.44681" lon="4.59994">
        <ele>585.2</ele>
        <time>1970-01-01T00:14:32.000Z</time>
      </trkpt>
      <trkpt lat="45.44682" lon="4.59986">
        <ele>586.3</ele>
        <time>1970-01-01T00:14:34.000Z</time>
      </trkpt>
      <trkpt lat="45.44683" lon="4.5998">
        <ele>586.6</ele>
        <time>1970-01-01T00:14:35.000Z</time>
      </trkpt>
      <trkpt lat="45.44684" lon="4.59974">
        <ele>586.9</ele>
        <time>1970-01-01T00:14:36.000Z</time>
      </trkpt>
      <trkpt lat="45.44685" lon="4.5997">
        <ele>587.2</ele>
        <time>1970-01-01T00:14:37.000Z</time>
      </trkpt>
      <trkpt lat="45.44687" lon="4.59963">
        <ele>587.5</ele>
        <time>1970-01-01T00:14:39.000Z</time>
      </trkpt>
      <trkpt lat="45.44689" lon="4.59958">
        <ele>587.9</ele>
        <time>1970-01-01T00:14:41.000Z</time>
      </trkpt>
      <trkpt lat="45.44692" lon="4.59952">
        <ele>588.3</ele>
        <time>1970-01-01T00:14:43.000Z</time>
      </trkpt>
      <trkpt lat="45.44694" lon="4.59948">
        <ele>588.6</ele>
        <time>1970-01-01T00:14:44.000Z</time>
      </trkpt>
      <trkpt lat="45.44698" lon="4.59944">
        <ele>589.1</ele>
        <time>1970-01-01T00:14:46.000Z</time>
      </trkpt>
      <trkpt lat="45.447" lon="4.59941">
        <ele>589.4</ele>
        <time>1970-01-01T00:14:47.000Z</time>
      </trkpt>
      <trkpt lat="45.44703" lon="4.59939">
        <ele>589.7</ele>
        <time>1970-01-01T00:14:48.000Z</time>
      </trkpt>
      <trkpt lat="45.44708" lon="4.59938">
        <ele>590.1</ele>
        <time>1970-01-01T00:14:50.000Z</time>
      </trkpt>
      <trkpt lat="45.4471" lon="4.59937">
        <ele>590.3</ele>
        <time>1970-01-01T00:14:51.000Z</time>
      </trkpt>
      <trkpt lat="45.44713" lon="4.59936">
        <ele>590.6</ele>
        <time>1970-01-01T00:14:52.000Z</time>
      </trkpt>
      <trkpt lat="45.44717" lon="4.59935">
        <ele>590.9</ele>
        <time>1970-01-01T00:14:54.000Z</time>
      </trkpt>
      <trkpt lat="45.44722" lon="4.59936">
        <ele>591.3</ele>
        <time>1970-01-01T00:14:56.000Z</time>
      </trkpt>
      <trkpt lat="45.44727" lon="4.59937">
        <ele>591.8</ele>
        <time>1970-01-01T00:14:58.000Z</time>
      </trkpt>
      <trkpt lat="45.44731" lon="4.59937">
        <ele>592.2</ele>
        <time>1970-01-01T00:14:59.000Z</time>
      </trkpt>
      <trkpt lat="45.44735" lon="4.59937">
        <ele>592.6</ele>
        <time>1970-01-01T00:15:01.000Z</time>
      </trkpt>
      <trkpt lat="45.44739" lon="4.59936">
        <ele>593</ele>
        <time>1970-01-01T00:15:04.000Z</time>
      </trkpt>
      <trkpt lat="45.44743" lon="4.59936">
        <ele>593.4</ele>
        <time>1970-01-01T00:15:06.000Z</time>
      </trkpt>
      <trkpt lat="45.44746" lon="4.59936">
        <ele>593.7</ele>
        <time>1970-01-01T00:15:08.000Z</time>
      </trkpt>
      <trkpt lat="45.44749" lon="4.59936">
        <ele>594</ele>
        <time>1970-01-01T00:15:10.000Z</time>
      </trkpt>
      <trkpt lat="45.44753" lon="4.59937">
        <ele>594.3</ele>
        <time>1970-01-01T00:15:12.000Z</time>
      </trkpt>
      <trkpt lat="45.44757" lon="4.59938">
        <ele>594.6</ele>
        <time>1970-01-01T00:15:14.000Z</time>
      </trkpt>
      <trkpt lat="45.44762" lon="4.59941">
        <ele>595.1</ele>
        <time>1970-01-01T00:15:16.000Z</time>
      </trkpt>
      <trkpt lat="45.44767" lon="4.59943">
        <ele>595.5</ele>
        <time>1970-01-01T00:15:18.000Z</time>
      </trkpt>
      <trkpt lat="45.44771" lon="4.59947">
        <ele>595.9</ele>
        <time>1970-01-01T00:15:20.000Z</time>
      </trkpt>
      <trkpt lat="45.44775" lon="4.59948">
        <ele>596.3</ele>
        <time>1970-01-01T00:15:22.000Z</time>
      </trkpt>
      <trkpt lat="45.4478" lon="4.5995">
        <ele>596.7</ele>
        <time>1970-01-01T00:15:24.000Z</time>
      </trkpt>
      <trkpt lat="45.44783" lon="4.59951">
        <ele>597.1</ele>
        <time>1970-01-01T00:15:25.000Z</time>
      </trkpt>
      <trkpt lat="45.44787" lon="4.59952">
        <ele>597.5</ele>
        <time>1970-01-01T00:15:27.000Z</time>
      </trkpt>
      <trkpt lat="45.44792" lon="4.59954">
        <ele>597.9</ele>
        <time>1970-01-01T00:15:29.000Z</time>
      </trkpt>
      <trkpt lat="45.44796" lon="4.59955">
        <ele>598.3</ele>
        <time>1970-01-01T00:15:31.000Z</time>
      </trkpt>
      <trkpt lat="45.44799" lon="4.59956">
        <ele>598.6</ele>
        <time>1970-01-01T00:15:32.000Z</time>
      </trkpt>
      <trkpt lat="45.44803" lon="4.59958">
        <ele>599.1</ele>
        <time>1970-01-01T00:15:34.000Z</time>
      </trkpt>
      <trkpt lat="45.44807" lon="4.59962">
        <ele>599.6</ele>
        <time>1970-01-01T00:15:36.000Z</time>
      </trkpt>
      <trkpt lat="45.44809" lon="4.59965">
        <ele>600</ele>
        <time>1970-01-01T00:15:37.000Z</time>
      </trkpt>
      <trkpt lat="45.44811" lon="4.59969">
        <ele>600.3</ele>
        <time>1970-01-01T00:15:38.000Z</time>
      </trkpt>
      <trkpt lat="45.44813" lon="4.59972">
        <ele>600.7</ele>
        <time>1970-01-01T00:15:39.000Z</time>
      </trkpt>
      <trkpt lat="45.44814" lon="4.59976">
        <ele>601</ele>
        <time>1970-01-01T00:15:40.000Z</time>
      </trkpt>
      <trkpt lat="45.44815" lon="4.5998">
        <ele>601.4</ele>
        <time>1970-01-01T00:15:41.000Z</time>
      </trkpt>
      <trkpt lat="45.44816" lon="4.59986">
        <ele>601.8</ele>
        <time>1970-01-01T00:15:42.000Z</time>
      </trkpt>
      <trkpt lat="45.44817" lon="4.5999">
        <ele>602.2</ele>
        <time>1970-01-01T00:15:43.000Z</time>
      </trkpt>
      <trkpt lat="45.44817" lon="4.59995">
        <ele>602.5</ele>
        <time>1970-01-01T00:15:44.000Z</time>
      </trkpt>
      <trkpt lat="45.44818" lon="4.59999">
        <ele>602.8</ele>
        <time>1970-01-01T00:15:45.000Z</time>
      </trkpt>
      <trkpt lat="45.44817" lon="4.60006">
        <ele>603.4</ele>
        <time>1970-01-01T00:15:47.000Z</time>
      </trkpt>
      <trkpt lat="45.44816" lon="4.60014">
        <ele>603.9</ele>
        <time>1970-01-01T00:15:49.000Z</time>
      </trkpt>
      <trkpt lat="45.44814" lon="4.6002">
        <ele>604.3</ele>
        <time>1970-01-01T00:15:51.000Z</time>
      </trkpt>
      <trkpt lat="45.44813" lon="4.60026">
        <ele>604.7</ele>
        <time>1970-01-01T00:15:53.000Z</time>
      </trkpt>
      <trkpt lat="45.44811" lon="4.60032">
        <ele>605.1</ele>
        <time>1970-01-01T00:15:55.000Z</time>
      </trkpt>
      <trkpt lat="45.44809" lon="4.60037">
        <ele>605.5</ele>
        <time>1970-01-01T00:15:57.000Z</time>
      </trkpt>
      <trkpt lat="45.44806" lon="4.60043">
        <ele>606</ele>
        <time>1970-01-01T00:15:59.000Z</time>
      </trkpt>
      <trkpt lat="45.44804" lon="4.60049">
        <ele>606.4</ele>
        <time>1970-01-01T00:16:01.000Z</time>
      </trkpt>
      <trkpt lat="45.44801" lon="4.60053">
        <ele>606.8</ele>
        <time>1970-01-01T00:16:03.000Z</time>
      </trkpt>
      <trkpt lat="45.44799" lon="4.6006">
        <ele>607.2</ele>
        <time>1970-01-01T00:16:05.000Z</time>
      </trkpt>
      <trkpt lat="45.44797" lon="4.60066">
        <ele>607.6</ele>
        <time>1970-01-01T00:16:07.000Z</time>
      </trkpt>
      <trkpt lat="45.44795" lon="4.60071">
        <ele>607.9</ele>
        <time>1970-01-01T00:16:09.000Z</time>
      </trkpt>
      <trkpt lat="45.44794" lon="4.60076">
        <ele>608.3</ele>
        <time>1970-01-01T00:16:11.000Z</time>
      </trkpt>
      <trkpt lat="45.44791" lon="4.60083">
        <ele>608.8</ele>
        <time>1970-01-01T00:16:13.000Z</time>
      </trkpt>
      <trkpt lat="45.4479" lon="4.60088">
        <ele>609.1</ele>
        <time>1970-01-01T00:16:15.000Z</time>
      </trkpt>
      <trkpt lat="45.44788" lon="4.60093">
        <ele>609.4</ele>
        <time>1970-01-01T00:16:17.000Z</time>
      </trkpt>
      <trkpt lat="45.44787" lon="4.60099">
        <ele>609.8</ele>
        <time>1970-01-01T00:16:19.000Z</time>
      </trkpt>
      <trkpt lat="45.44787" lon="4.60105">
        <ele>610.2</ele>
        <time>1970-01-01T00:16:21.000Z</time>
      </trkpt>
      <trkpt lat="45.44786" lon="4.60109">
        <ele>610.5</ele>
        <time>1970-01-01T00:16:23.000Z</time>
      </trkpt>
      <trkpt lat="45.44784" lon="4.60114">
        <ele>610.9</ele>
        <time>1970-01-01T00:16:25.000Z</time>
      </trkpt>
      <trkpt lat="45.44783" lon="4.60121">
        <ele>611.4</ele>
        <time>1970-01-01T00:16:27.000Z</time>
      </trkpt>
      <trkpt lat="45.44781" lon="4.60125">
        <ele>611.7</ele>
        <time>1970-01-01T00:16:29.000Z</time>
      </trkpt>
      <trkpt lat="45.44779" lon="4.6013">
        <ele>612.1</ele>
        <time>1970-01-01T00:16:31.000Z</time>
      </trkpt>
      <trkpt lat="45.44776" lon="4.60135">
        <ele>612.6</ele>
        <time>1970-01-01T00:16:33.000Z</time>
      </trkpt>
      <trkpt lat="45.44774" lon="4.60138">
        <ele>612.9</ele>
        <time>1970-01-01T00:16:34.000Z</time>
      </trkpt>
      <trkpt lat="45.44772" lon="4.60143">
        <ele>613.3</ele>
        <time>1970-01-01T00:16:36.000Z</time>
      </trkpt>
      <trkpt lat="45.44769" lon="4.60148">
        <ele>614.1</ele>
        <time>1970-01-01T00:16:38.000Z</time>
      </trkpt>
      <trkpt lat="45.44767" lon="4.60154">
        <ele>614.2</ele>
        <time>1970-01-01T00:16:40.000Z</time>
      </trkpt>
      <trkpt lat="45.44766" lon="4.60158">
        <ele>614.3</ele>
        <time>1970-01-01T00:16:41.000Z</time>
      </trkpt>
      <trkpt lat="45.44765" lon="4.60164">
        <ele>614.4</ele>
        <time>1970-01-01T00:16:42.000Z</time>
      </trkpt>
      <trkpt lat="45.44764" lon="4.60168">
        <ele>614.5</ele>
        <time>1970-01-01T00:16:43.000Z</time>
      </trkpt>
      <trkpt lat="45.44763" lon="4.60171">
        <ele>614.5</ele>
        <time>1970-01-01T00:16:45.000Z</time>
      </trkpt>
      <trkpt lat="45.4476" lon="4.60175">
        <ele>614.6</ele>
        <time>1970-01-01T00:16:47.000Z</time>
      </trkpt>
      <trkpt lat="45.44758" lon="4.60178">
        <ele>614.7</ele>
        <time>1970-01-01T00:16:49.000Z</time>
      </trkpt>
      <trkpt lat="45.44757" lon="4.60182">
        <ele>614.9</ele>
        <time>1970-01-01T00:16:51.000Z</time>
      </trkpt>
      <trkpt lat="45.44756" lon="4.60186">
        <ele>615</ele>
        <time>1970-01-01T00:16:54.000Z</time>
      </trkpt>
      <trkpt lat="45.44755" lon="4.60191">
        <ele>615.2</ele>
        <time>1970-01-01T00:16:56.000Z</time>
      </trkpt>
      <trkpt lat="45.44754" lon="4.60197">
        <ele>615.4</ele>
        <time>1970-01-01T00:16:58.000Z</time>
      </trkpt>
      <trkpt lat="45.44752" lon="4.60202">
        <ele>615.7</ele>
        <time>1970-01-01T00:17:00.000Z</time>
      </trkpt>
      <trkpt lat="45.44752" lon="4.60207">
        <ele>616.2</ele>
        <time>1970-01-01T00:17:02.000Z</time>
      </trkpt>
      <trkpt lat="45.4475" lon="4.60213">
        <ele>617.2</ele>
        <time>1970-01-01T00:17:05.000Z</time>
      </trkpt>
      <trkpt lat="45.44749" lon="4.60217">
        <ele>617.7</ele>
        <time>1970-01-01T00:17:07.000Z</time>
      </trkpt>
      <trkpt lat="45.44747" lon="4.60221">
        <ele>618.3</ele>
        <time>1970-01-01T00:17:09.000Z</time>
      </trkpt>
      <trkpt lat="45.44745" lon="4.60226">
        <ele>618.9</ele>
        <time>1970-01-01T00:17:11.000Z</time>
      </trkpt>
      <trkpt lat="45.44743" lon="4.6023">
        <ele>619.4</ele>
        <time>1970-01-01T00:17:13.000Z</time>
      </trkpt>
      <trkpt lat="45.44742" lon="4.60235">
        <ele>619.9</ele>
        <time>1970-01-01T00:17:15.000Z</time>
      </trkpt>
      <trkpt lat="45.4474" lon="4.60241">
        <ele>620.4</ele>
        <time>1970-01-01T00:17:17.000Z</time>
      </trkpt>
      <trkpt lat="45.44738" lon="4.60246">
        <ele>621.1</ele>
        <time>1970-01-01T00:17:19.000Z</time>
      </trkpt>
      <trkpt lat="45.44736" lon="4.6025">
        <ele>621</ele>
        <time>1970-01-01T00:17:21.000Z</time>
      </trkpt>
      <trkpt lat="45.44734" lon="4.60255">
        <ele>621.7</ele>
        <time>1970-01-01T00:17:24.000Z</time>
      </trkpt>
      <trkpt lat="45.44732" lon="4.60261">
        <ele>622</ele>
        <time>1970-01-01T00:17:26.000Z</time>
      </trkpt>
      <trkpt lat="45.44732" lon="4.60269">
        <ele>622.9</ele>
        <time>1970-01-01T00:17:28.000Z</time>
      </trkpt>
      <trkpt lat="45.44733" lon="4.60275">
        <ele>623.3</ele>
        <time>1970-01-01T00:17:30.000Z</time>
      </trkpt>
      <trkpt lat="45.44733" lon="4.60281">
        <ele>623.9</ele>
        <time>1970-01-01T00:17:32.000Z</time>
      </trkpt>
      <trkpt lat="45.44734" lon="4.60288">
        <ele>624.3</ele>
        <time>1970-01-01T00:17:35.000Z</time>
      </trkpt>
      <trkpt lat="45.44735" lon="4.60293">
        <ele>624.6</ele>
        <time>1970-01-01T00:17:36.000Z</time>
      </trkpt>
      <trkpt lat="45.44737" lon="4.60298">
        <ele>625.1</ele>
        <time>1970-01-01T00:17:38.000Z</time>
      </trkpt>
      <trkpt lat="45.44739" lon="4.60305">
        <ele>625.3</ele>
        <time>1970-01-01T00:17:40.000Z</time>
      </trkpt>
      <trkpt lat="45.44741" lon="4.60309">
        <ele>625.4</ele>
        <time>1970-01-01T00:17:41.000Z</time>
      </trkpt>
      <trkpt lat="45.44742" lon="4.60313">
        <ele>625.6</ele>
        <time>1970-01-01T00:17:43.000Z</time>
      </trkpt>
      <trkpt lat="45.44744" lon="4.60318">
        <ele>625.8</ele>
        <time>1970-01-01T00:17:45.000Z</time>
      </trkpt>
      <trkpt lat="45.44746" lon="4.60323">
        <ele>626.1</ele>
        <time>1970-01-01T00:17:47.000Z</time>
      </trkpt>
      <trkpt lat="45.44748" lon="4.60328">
        <ele>626.7</ele>
        <time>1970-01-01T00:17:49.000Z</time>
      </trkpt>
      <trkpt lat="45.4475" lon="4.60333">
        <ele>627</ele>
        <time>1970-01-01T00:17:51.000Z</time>
      </trkpt>
      <trkpt lat="45.44752" lon="4.60337">
        <ele>627.3</ele>
        <time>1970-01-01T00:17:52.000Z</time>
      </trkpt>
      <trkpt lat="45.44753" lon="4.6034">
        <ele>627.7</ele>
        <time>1970-01-01T00:17:53.000Z</time>
      </trkpt>
      <trkpt lat="45.44755" lon="4.60348">
        <ele>628</ele>
        <time>1970-01-01T00:17:55.000Z</time>
      </trkpt>
      <trkpt lat="45.44757" lon="4.60353">
        <ele>628.9</ele>
        <time>1970-01-01T00:17:57.000Z</time>
      </trkpt>
      <trkpt lat="45.44759" lon="4.60358">
        <ele>629</ele>
        <time>1970-01-01T00:17:59.000Z</time>
      </trkpt>
      <trkpt lat="45.44761" lon="4.60365">
        <ele>629</ele>
        <time>1970-01-01T00:18:01.000Z</time>
      </trkpt>
      <trkpt lat="45.44763" lon="4.60371">
        <ele>630</ele>
        <time>1970-01-01T00:18:03.000Z</time>
      </trkpt>
      <trkpt lat="45.44764" lon="4.60375">
        <ele>630.2</ele>
        <time>1970-01-01T00:18:04.000Z</time>
      </trkpt>
      <trkpt lat="45.44766" lon="4.6038">
        <ele>630.9</ele>
        <time>1970-01-01T00:18:06.000Z</time>
      </trkpt>
      <trkpt lat="45.44767" lon="4.60383">
        <ele>631.3</ele>
        <time>1970-01-01T00:18:08.000Z</time>
      </trkpt>
      <trkpt lat="45.44768" lon="4.60387">
        <ele>631.3</ele>
        <time>1970-01-01T00:18:10.000Z</time>
      </trkpt>
      <trkpt lat="45.4477" lon="4.60392">
        <ele>631.7</ele>
        <time>1970-01-01T00:18:12.000Z</time>
      </trkpt>
      <trkpt lat="45.44773" lon="4.60398">
        <ele>633.3</ele>
        <time>1970-01-01T00:18:14.000Z</time>
      </trkpt>
      <trkpt lat="45.44774" lon="4.60402">
        <ele>633.8</ele>
        <time>1970-01-01T00:18:16.000Z</time>
      </trkpt>
      <trkpt lat="45.44777" lon="4.60407">
        <ele>634.2</ele>
        <time>1970-01-01T00:18:18.000Z</time>
      </trkpt>
      <trkpt lat="45.44779" lon="4.60411">
        <ele>634.4</ele>
        <time>1970-01-01T00:18:21.000Z</time>
      </trkpt>
      <trkpt lat="45.4478" lon="4.60416">
        <ele>635.1</ele>
        <time>1970-01-01T00:18:23.000Z</time>
      </trkpt>
      <trkpt lat="45.44781" lon="4.6042">
        <ele>635.6</ele>
        <time>1970-01-01T00:18:24.000Z</time>
      </trkpt>
      <trkpt lat="45.44781" lon="4.60425">
        <ele>636.2</ele>
        <time>1970-01-01T00:18:26.000Z</time>
      </trkpt>
      <trkpt lat="45.44782" lon="4.6043">
        <ele>636.2</ele>
        <time>1970-01-01T00:18:28.000Z</time>
      </trkpt>
      <trkpt lat="45.44784" lon="4.60433">
        <ele>636.9</ele>
        <time>1970-01-01T00:18:30.000Z</time>
      </trkpt>
      <trkpt lat="45.44786" lon="4.60436">
        <ele>636.9</ele>
        <time>1970-01-01T00:18:31.000Z</time>
      </trkpt>
      <trkpt lat="45.44788" lon="4.60442">
        <ele>636.8</ele>
        <time>1970-01-01T00:18:33.000Z</time>
      </trkpt>
      <trkpt lat="45.4479" lon="4.60449">
        <ele>638.2</ele>
        <time>1970-01-01T00:18:35.000Z</time>
      </trkpt>
      <trkpt lat="45.4479" lon="4.60453">
        <ele>639</ele>
        <time>1970-01-01T00:18:36.000Z</time>
      </trkpt>
      <trkpt lat="45.44791" lon="4.60459">
        <ele>639.9</ele>
        <time>1970-01-01T00:18:38.000Z</time>
      </trkpt>
      <trkpt lat="45.44791" lon="4.60466">
        <ele>641.6</ele>
        <time>1970-01-01T00:18:40.000Z</time>
      </trkpt>
      <trkpt lat="45.44791" lon="4.6047">
        <ele>642.3</ele>
        <time>1970-01-01T00:18:42.000Z</time>
      </trkpt>
      <trkpt lat="45.44792" lon="4.60474">
        <ele>642.3</ele>
        <time>1970-01-01T00:18:44.000Z</time>
      </trkpt>
      <trkpt lat="45.44794" lon="4.60479">
        <ele>643</ele>
        <time>1970-01-01T00:18:46.000Z</time>
      </trkpt>
      <trkpt lat="45.44795" lon="4.60483">
        <ele>643.1</ele>
        <time>1970-01-01T00:18:48.000Z</time>
      </trkpt>
      <trkpt lat="45.44796" lon="4.60488">
        <ele>643.9</ele>
        <time>1970-01-01T00:18:50.000Z</time>
      </trkpt>
      <trkpt lat="45.44798" lon="4.60491">
        <ele>644</ele>
        <time>1970-01-01T00:18:52.000Z</time>
      </trkpt>
      <trkpt lat="45.448" lon="4.60497">
        <ele>644.8</ele>
        <time>1970-01-01T00:18:54.000Z</time>
      </trkpt>
      <trkpt lat="45.44801" lon="4.60501">
        <ele>644.8</ele>
        <time>1970-01-01T00:18:56.000Z</time>
      </trkpt>
      <trkpt lat="45.44803" lon="4.60505">
        <ele>645.6</ele>
        <time>1970-01-01T00:18:57.000Z</time>
      </trkpt>
      <trkpt lat="45.44804" lon="4.60509">
        <ele>645.8</ele>
        <time>1970-01-01T00:18:58.000Z</time>
      </trkpt>
      <trkpt lat="45.44805" lon="4.60513">
        <ele>646.8</ele>
        <time>1970-01-01T00:18:59.000Z</time>
      </trkpt>
      <trkpt lat="45.44806" lon="4.60518">
        <ele>647.8</ele>
        <time>1970-01-01T00:19:00.000Z</time>
      </trkpt>
      <trkpt lat="45.44806" lon="4.60522">
        <ele>648</ele>
        <time>1970-01-01T00:19:01.000Z</time>
      </trkpt>
      <trkpt lat="45.44808" lon="4.60529">
        <ele>649.6</ele>
        <time>1970-01-01T00:19:03.000Z</time>
      </trkpt>
      <trkpt lat="45.44809" lon="4.60534">
        <ele>650.4</ele>
        <time>1970-01-01T00:19:04.000Z</time>
      </trkpt>
      <trkpt lat="45.4481" lon="4.60538">
        <ele>650.3</ele>
        <time>1970-01-01T00:19:05.000Z</time>
      </trkpt>
      <trkpt lat="45.44811" lon="4.60542">
        <ele>651.1</ele>
        <time>1970-01-01T00:19:07.000Z</time>
      </trkpt>
      <trkpt lat="45.44813" lon="4.60549">
        <ele>650.8</ele>
        <time>1970-01-01T00:19:09.000Z</time>
      </trkpt>
      <trkpt lat="45.44814" lon="4.60554">
        <ele>651.5</ele>
        <time>1970-01-01T00:19:11.000Z</time>
      </trkpt>
      <trkpt lat="45.44817" lon="4.6056">
        <ele>651.7</ele>
        <time>1970-01-01T00:19:13.000Z</time>
      </trkpt>
      <trkpt lat="45.44818" lon="4.60564">
        <ele>651.3</ele>
        <time>1970-01-01T00:19:14.000Z</time>
      </trkpt>
      <trkpt lat="45.4482" lon="4.60568">
        <ele>652</ele>
        <time>1970-01-01T00:19:16.000Z</time>
      </trkpt>
      <trkpt lat="45.44821" lon="4.60572">
        <ele>652.8</ele>
        <time>1970-01-01T00:19:18.000Z</time>
      </trkpt>
      <trkpt lat="45.4482" lon="4.60578">
        <ele>653.4</ele>
        <time>1970-01-01T00:19:20.000Z</time>
      </trkpt>
      <trkpt lat="45.44817" lon="4.60584">
        <ele>655.1</ele>
        <time>1970-01-01T00:19:22.000Z</time>
      </trkpt>
      <trkpt lat="45.44814" lon="4.60586">
        <ele>656.6</ele>
        <time>1970-01-01T00:19:24.000Z</time>
      </trkpt>
      <trkpt lat="45.44811" lon="4.60581">
        <ele>657</ele>
        <time>1970-01-01T00:19:26.000Z</time>
      </trkpt>
      <trkpt lat="45.44809" lon="4.60575">
        <ele>655.7</ele>
        <time>1970-01-01T00:19:28.000Z</time>
      </trkpt>
      <trkpt lat="45.44808" lon="4.60569">
        <ele>655.9</ele>
        <time>1970-01-01T00:19:30.000Z</time>
      </trkpt>
      <trkpt lat="45.44806" lon="4.60564">
        <ele>656</ele>
        <time>1970-01-01T00:19:32.000Z</time>
      </trkpt>
      <trkpt lat="45.44804" lon="4.60558">
        <ele>654.8</ele>
        <time>1970-01-01T00:19:34.000Z</time>
      </trkpt>
      <trkpt lat="45.44801" lon="4.60553">
        <ele>655</ele>
        <time>1970-01-01T00:19:36.000Z</time>
      </trkpt>
      <trkpt lat="45.44798" lon="4.60548">
        <ele>655.2</ele>
        <time>1970-01-01T00:19:38.000Z</time>
      </trkpt>
      <trkpt lat="45.44795" lon="4.60544">
        <ele>655.2</ele>
        <time>1970-01-01T00:19:40.000Z</time>
      </trkpt>
      <trkpt lat="45.44792" lon="4.60541">
        <ele>655</ele>
        <time>1970-01-01T00:19:42.000Z</time>
      </trkpt>
      <trkpt lat="45.44789" lon="4.60537">
        <ele>654.7</ele>
        <time>1970-01-01T00:19:44.000Z</time>
      </trkpt>
      <trkpt lat="45.44785" lon="4.60535">
        <ele>655.4</ele>
        <time>1970-01-01T00:19:46.000Z</time>
      </trkpt>
      <trkpt lat="45.44782" lon="4.60532">
        <ele>655</ele>
        <time>1970-01-01T00:19:48.000Z</time>
      </trkpt>
      <trkpt lat="45.44779" lon="4.60529">
        <ele>655.5</ele>
        <time>1970-01-01T00:19:50.000Z</time>
      </trkpt>
      <trkpt lat="45.44775" lon="4.60527">
        <ele>655.5</ele>
        <time>1970-01-01T00:19:52.000Z</time>
      </trkpt>
      <trkpt lat="45.44771" lon="4.60524">
        <ele>655.1</ele>
        <time>1970-01-01T00:19:54.000Z</time>
      </trkpt>
      <trkpt lat="45.44767" lon="4.60523">
        <ele>656.3</ele>
        <time>1970-01-01T00:19:56.000Z</time>
      </trkpt>
      <trkpt lat="45.44762" lon="4.60522">
        <ele>656.8</ele>
        <time>1970-01-01T00:19:58.000Z</time>
      </trkpt>
      <trkpt lat="45.44758" lon="4.60521">
        <ele>657.2</ele>
        <time>1970-01-01T00:20:00.000Z</time>
      </trkpt>
      <trkpt lat="45.44754" lon="4.6052">
        <ele>656.9</ele>
        <time>1970-01-01T00:20:02.000Z</time>
      </trkpt>
      <trkpt lat="45.44749" lon="4.6052">
        <ele>657</ele>
        <time>1970-01-01T00:20:04.000Z</time>
      </trkpt>
      <trkpt lat="45.44745" lon="4.60519">
        <ele>657.2</ele>
        <time>1970-01-01T00:20:06.000Z</time>
      </trkpt>
      <trkpt lat="45.44741" lon="4.60518">
        <ele>657.3</ele>
        <time>1970-01-01T00:20:08.000Z</time>
      </trkpt>
      <trkpt lat="45.44736" lon="4.60517">
        <ele>657.2</ele>
        <time>1970-01-01T00:20:10.000Z</time>
      </trkpt>
      <trkpt lat="45.44731" lon="4.60517">
        <ele>657.1</ele>
        <time>1970-01-01T00:20:12.000Z</time>
      </trkpt>
      <trkpt lat="45.44728" lon="4.60517">
        <ele>656.9</ele>
        <time>1970-01-01T00:20:13.000Z</time>
      </trkpt>
      <trkpt lat="45.44725" lon="4.60516">
        <ele>656.7</ele>
        <time>1970-01-01T00:20:14.000Z</time>
      </trkpt>
      <trkpt lat="45.44721" lon="4.60515">
        <ele>655.7</ele>
        <time>1970-01-01T00:20:16.000Z</time>
      </trkpt>
      <trkpt lat="45.44718" lon="4.60515">
        <ele>655.5</ele>
        <time>1970-01-01T00:20:17.000Z</time>
      </trkpt>
      <trkpt lat="45.44714" lon="4.60515">
        <ele>655.3</ele>
        <time>1970-01-01T00:20:19.000Z</time>
      </trkpt>
      <trkpt lat="45.44711" lon="4.60516">
        <ele>655.7</ele>
        <time>1970-01-01T00:20:20.000Z</time>
      </trkpt>
      <trkpt lat="45.44706" lon="4.60518">
        <ele>655.3</ele>
        <time>1970-01-01T00:20:22.000Z</time>
      </trkpt>
      <trkpt lat="45.44701" lon="4.6052">
        <ele>655.1</ele>
        <time>1970-01-01T00:20:24.000Z</time>
      </trkpt>
      <trkpt lat="45.44697" lon="4.60523">
        <ele>655.3</ele>
        <time>1970-01-01T00:20:26.000Z</time>
      </trkpt>
      <trkpt lat="45.44694" lon="4.60527">
        <ele>655.7</ele>
        <time>1970-01-01T00:20:28.000Z</time>
      </trkpt>
      <trkpt lat="45.4469" lon="4.6053">
        <ele>656.1</ele>
        <time>1970-01-01T00:20:30.000Z</time>
      </trkpt>
      <trkpt lat="45.44687" lon="4.60534">
        <ele>656.4</ele>
        <time>1970-01-01T00:20:32.000Z</time>
      </trkpt>
      <trkpt lat="45.44684" lon="4.60538">
        <ele>656.6</ele>
        <time>1970-01-01T00:20:34.000Z</time>
      </trkpt>
      <trkpt lat="45.44681" lon="4.60543">
        <ele>656.6</ele>
        <time>1970-01-01T00:20:36.000Z</time>
      </trkpt>
      <trkpt lat="45.4468" lon="4.60546">
        <ele>656.6</ele>
        <time>1970-01-01T00:20:37.000Z</time>
      </trkpt>
      <trkpt lat="45.44677" lon="4.60552">
        <ele>656.8</ele>
        <time>1970-01-01T00:20:39.000Z</time>
      </trkpt>
      <trkpt lat="45.44675" lon="4.60558">
        <ele>656.5</ele>
        <time>1970-01-01T00:20:41.000Z</time>
      </trkpt>
      <trkpt lat="45.44673" lon="4.60564">
        <ele>656.8</ele>
        <time>1970-01-01T00:20:43.000Z</time>
      </trkpt>
      <trkpt lat="45.44672" lon="4.60569">
        <ele>657.3</ele>
        <time>1970-01-01T00:20:45.000Z</time>
      </trkpt>
      <trkpt lat="45.44671" lon="4.60574">
        <ele>657.9</ele>
        <time>1970-01-01T00:20:47.000Z</time>
      </trkpt>
      <trkpt lat="45.4467" lon="4.60578">
        <ele>657.8</ele>
        <time>1970-01-01T00:20:49.000Z</time>
      </trkpt>
      <trkpt lat="45.44668" lon="4.60584">
        <ele>658.2</ele>
        <time>1970-01-01T00:20:51.000Z</time>
      </trkpt>
      <trkpt lat="45.44667" lon="4.60589">
        <ele>657.9</ele>
        <time>1970-01-01T00:20:53.000Z</time>
      </trkpt>
      <trkpt lat="45.44665" lon="4.60593">
        <ele>658.7</ele>
        <time>1970-01-01T00:20:55.000Z</time>
      </trkpt>
      <trkpt lat="45.44664" lon="4.60597">
        <ele>657.8</ele>
        <time>1970-01-01T00:20:57.000Z</time>
      </trkpt>
      <trkpt lat="45.44663" lon="4.60602">
        <ele>658.8</ele>
        <time>1970-01-01T00:20:59.000Z</time>
      </trkpt>
      <trkpt lat="45.44661" lon="4.60607">
        <ele>658.5</ele>
        <time>1970-01-01T00:21:01.000Z</time>
      </trkpt>
      <trkpt lat="45.44659" lon="4.60613">
        <ele>659.1</ele>
        <time>1970-01-01T00:21:03.000Z</time>
      </trkpt>
      <trkpt lat="45.44658" lon="4.60618">
        <ele>658.8</ele>
        <time>1970-01-01T00:21:05.000Z</time>
      </trkpt>
      <trkpt lat="45.44656" lon="4.60625">
        <ele>660.6</ele>
        <time>1970-01-01T00:21:07.000Z</time>
      </trkpt>
      <trkpt lat="45.44655" lon="4.60631">
        <ele>660.6</ele>
        <time>1970-01-01T00:21:09.000Z</time>
      </trkpt>
      <trkpt lat="45.44653" lon="4.60636">
        <ele>661.6</ele>
        <time>1970-01-01T00:21:11.000Z</time>
      </trkpt>
      <trkpt lat="45.44652" lon="4.60639">
        <ele>662.4</ele>
        <time>1970-01-01T00:21:12.000Z</time>
      </trkpt>
      <trkpt lat="45.44651" lon="4.60644">
        <ele>662.3</ele>
        <time>1970-01-01T00:21:14.000Z</time>
      </trkpt>
      <trkpt lat="45.44652" lon="4.6065">
        <ele>663.9</ele>
        <time>1970-01-01T00:21:16.000Z</time>
      </trkpt>
      <trkpt lat="45.44651" lon="4.60655">
        <ele>664.6</ele>
        <time>1970-01-01T00:21:18.000Z</time>
      </trkpt>
      <trkpt lat="45.44651" lon="4.60659">
        <ele>665.2</ele>
        <time>1970-01-01T00:21:19.000Z</time>
      </trkpt>
      <trkpt lat="45.44648" lon="4.60663">
        <ele>665.1</ele>
        <time>1970-01-01T00:21:21.000Z</time>
      </trkpt>
      <trkpt lat="45.44646" lon="4.60667">
        <ele>664.9</ele>
        <time>1970-01-01T00:21:22.000Z</time>
      </trkpt>
      <trkpt lat="45.44645" lon="4.60671">
        <ele>665.2</ele>
        <time>1970-01-01T00:21:23.000Z</time>
      </trkpt>
      <trkpt lat="45.44644" lon="4.60675">
        <ele>665.6</ele>
        <time>1970-01-01T00:21:24.000Z</time>
      </trkpt>
      <trkpt lat="45.4464" lon="4.60681">
        <ele>665.4</ele>
        <time>1970-01-01T00:21:26.000Z</time>
      </trkpt>
      <trkpt lat="45.44639" lon="4.60684">
        <ele>665.1</ele>
        <time>1970-01-01T00:21:27.000Z</time>
      </trkpt>
      <trkpt lat="45.44638" lon="4.60688">
        <ele>665.3</ele>
        <time>1970-01-01T00:21:28.000Z</time>
      </trkpt>
      <trkpt lat="45.44636" lon="4.60692">
        <ele>665</ele>
        <time>1970-01-01T00:21:29.000Z</time>
      </trkpt>
      <trkpt lat="45.44634" lon="4.60699">
        <ele>664.7</ele>
        <time>1970-01-01T00:21:31.000Z</time>
      </trkpt>
      <trkpt lat="45.44632" lon="4.60706">
        <ele>665.3</ele>
        <time>1970-01-01T00:21:33.000Z</time>
      </trkpt>
      <trkpt lat="45.4463" lon="4.6071">
        <ele>665.2</ele>
        <time>1970-01-01T00:21:34.000Z</time>
      </trkpt>
      <trkpt lat="45.44628" lon="4.60714">
        <ele>665.5</ele>
        <time>1970-01-01T00:21:35.000Z</time>
      </trkpt>
      <trkpt lat="45.44627" lon="4.60718">
        <ele>665.5</ele>
        <time>1970-01-01T00:21:36.000Z</time>
      </trkpt>
      <trkpt lat="45.44625" lon="4.60722">
        <ele>665.5</ele>
        <time>1970-01-01T00:21:37.000Z</time>
      </trkpt>
      <trkpt lat="45.44623" lon="4.60728">
        <ele>666</ele>
        <time>1970-01-01T00:21:39.000Z</time>
      </trkpt>
      <trkpt lat="45.44621" lon="4.60733">
        <ele>666.4</ele>
        <time>1970-01-01T00:21:41.000Z</time>
      </trkpt>
      <trkpt lat="45.44617" lon="4.60737">
        <ele>667.1</ele>
        <time>1970-01-01T00:21:43.000Z</time>
      </trkpt>
      <trkpt lat="45.44614" lon="4.60742">
        <ele>667.8</ele>
        <time>1970-01-01T00:21:45.000Z</time>
      </trkpt>
      <trkpt lat="45.4461" lon="4.60746">
        <ele>668.6</ele>
        <time>1970-01-01T00:21:47.000Z</time>
      </trkpt>
      <trkpt lat="45.44608" lon="4.60751">
        <ele>669.2</ele>
        <time>1970-01-01T00:21:49.000Z</time>
      </trkpt>
      <trkpt lat="45.44605" lon="4.60756">
        <ele>669.8</ele>
        <time>1970-01-01T00:21:51.000Z</time>
      </trkpt>
      <trkpt lat="45.44602" lon="4.60761">
        <ele>671.2</ele>
        <time>1970-01-01T00:21:53.000Z</time>
      </trkpt>
      <trkpt lat="45.44599" lon="4.60765">
        <ele>671</ele>
        <time>1970-01-01T00:21:55.000Z</time>
      </trkpt>
      <trkpt lat="45.44596" lon="4.60769">
        <ele>671.6</ele>
        <time>1970-01-01T00:21:57.000Z</time>
      </trkpt>
      <trkpt lat="45.44593" lon="4.60773">
        <ele>672</ele>
        <time>1970-01-01T00:21:59.000Z</time>
      </trkpt>
      <trkpt lat="45.44589" lon="4.60777">
        <ele>672.2</ele>
        <time>1970-01-01T00:22:01.000Z</time>
      </trkpt>
      <trkpt lat="45.44587" lon="4.60781">
        <ele>672.8</ele>
        <time>1970-01-01T00:22:03.000Z</time>
      </trkpt>
      <trkpt lat="45.44584" lon="4.60785">
        <ele>673.3</ele>
        <time>1970-01-01T00:22:05.000Z</time>
      </trkpt>
      <trkpt lat="45.44581" lon="4.60788">
        <ele>673.9</ele>
        <time>1970-01-01T00:22:07.000Z</time>
      </trkpt>
      <trkpt lat="45.44578" lon="4.60791">
        <ele>674.5</ele>
        <time>1970-01-01T00:22:09.000Z</time>
      </trkpt>
      <trkpt lat="45.44575" lon="4.60795">
        <ele>674.3</ele>
        <time>1970-01-01T00:22:11.000Z</time>
      </trkpt>
      <trkpt lat="45.44572" lon="4.60798">
        <ele>675</ele>
        <time>1970-01-01T00:22:13.000Z</time>
      </trkpt>
      <trkpt lat="45.44569" lon="4.60801">
        <ele>675.5</ele>
        <time>1970-01-01T00:22:15.000Z</time>
      </trkpt>
      <trkpt lat="45.44566" lon="4.60804">
        <ele>675.9</ele>
        <time>1970-01-01T00:22:17.000Z</time>
      </trkpt>
      <trkpt lat="45.44564" lon="4.60808">
        <ele>675.7</ele>
        <time>1970-01-01T00:22:19.000Z</time>
      </trkpt>
      <trkpt lat="45.44561" lon="4.60811">
        <ele>676.1</ele>
        <time>1970-01-01T00:22:21.000Z</time>
      </trkpt>
      <trkpt lat="45.44558" lon="4.60816">
        <ele>676.7</ele>
        <time>1970-01-01T00:22:23.000Z</time>
      </trkpt>
      <trkpt lat="45.44554" lon="4.60819">
        <ele>677.3</ele>
        <time>1970-01-01T00:22:25.000Z</time>
      </trkpt>
      <trkpt lat="45.44551" lon="4.60823">
        <ele>677.9</ele>
        <time>1970-01-01T00:22:27.000Z</time>
      </trkpt>
      <trkpt lat="45.44547" lon="4.60827">
        <ele>678.6</ele>
        <time>1970-01-01T00:22:29.000Z</time>
      </trkpt>
      <trkpt lat="45.44544" lon="4.60829">
        <ele>678.9</ele>
        <time>1970-01-01T00:22:31.000Z</time>
      </trkpt>
      <trkpt lat="45.4454" lon="4.60834">
        <ele>679.4</ele>
        <time>1970-01-01T00:22:33.000Z</time>
      </trkpt>
      <trkpt lat="45.44537" lon="4.60838">
        <ele>680</ele>
        <time>1970-01-01T00:22:35.000Z</time>
      </trkpt>
      <trkpt lat="45.44535" lon="4.60842">
        <ele>680.8</ele>
        <time>1970-01-01T00:22:37.000Z</time>
      </trkpt>
      <trkpt lat="45.44532" lon="4.60846">
        <ele>680.8</ele>
        <time>1970-01-01T00:22:39.000Z</time>
      </trkpt>
      <trkpt lat="45.44529" lon="4.60851">
        <ele>682.3</ele>
        <time>1970-01-01T00:22:41.000Z</time>
      </trkpt>
      <trkpt lat="45.44525" lon="4.60855">
        <ele>682.9</ele>
        <time>1970-01-01T00:22:43.000Z</time>
      </trkpt>
      <trkpt lat="45.44523" lon="4.6086">
        <ele>683.3</ele>
        <time>1970-01-01T00:22:45.000Z</time>
      </trkpt>
      <trkpt lat="45.4452" lon="4.60864">
        <ele>683.7</ele>
        <time>1970-01-01T00:22:47.000Z</time>
      </trkpt>
      <trkpt lat="45.44517" lon="4.60868">
        <ele>684.1</ele>
        <time>1970-01-01T00:22:49.000Z</time>
      </trkpt>
      <trkpt lat="45.44513" lon="4.60872">
        <ele>683.6</ele>
        <time>1970-01-01T00:22:51.000Z</time>
      </trkpt>
      <trkpt lat="45.44511" lon="4.60876">
        <ele>684.1</ele>
        <time>1970-01-01T00:22:53.000Z</time>
      </trkpt>
      <trkpt lat="45.44509" lon="4.6088">
        <ele>685</ele>
        <time>1970-01-01T00:22:54.000Z</time>
      </trkpt>
      <trkpt lat="45.44506" lon="4.60885">
        <ele>685.5</ele>
        <time>1970-01-01T00:22:56.000Z</time>
      </trkpt>
      <trkpt lat="45.44505" lon="4.60888">
        <ele>686</ele>
        <time>1970-01-01T00:22:57.000Z</time>
      </trkpt>
      <trkpt lat="45.44503" lon="4.60893">
        <ele>686.7</ele>
        <time>1970-01-01T00:22:59.000Z</time>
      </trkpt>
      <trkpt lat="45.445" lon="4.60896">
        <ele>687.1</ele>
        <time>1970-01-01T00:23:01.000Z</time>
      </trkpt>
      <trkpt lat="45.44497" lon="4.609">
        <ele>687.6</ele>
        <time>1970-01-01T00:23:03.000Z</time>
      </trkpt>
      <trkpt lat="45.44494" lon="4.60903">
        <ele>688</ele>
        <time>1970-01-01T00:23:05.000Z</time>
      </trkpt>
      <trkpt lat="45.44491" lon="4.60906">
        <ele>687.6</ele>
        <time>1970-01-01T00:23:07.000Z</time>
      </trkpt>
      <trkpt lat="45.44489" lon="4.60911">
        <ele>688.8</ele>
        <time>1970-01-01T00:23:09.000Z</time>
      </trkpt>
      <trkpt lat="45.44487" lon="4.60916">
        <ele>689.5</ele>
        <time>1970-01-01T00:23:11.000Z</time>
      </trkpt>
      <trkpt lat="45.44485" lon="4.6092">
        <ele>689.9</ele>
        <time>1970-01-01T00:23:13.000Z</time>
      </trkpt>
      <trkpt lat="45.44483" lon="4.60922">
        <ele>689.6</ele>
        <time>1970-01-01T00:23:15.000Z</time>
      </trkpt>
      <trkpt lat="45.4448" lon="4.60926">
        <ele>690.3</ele>
        <time>1970-01-01T00:23:17.000Z</time>
      </trkpt>
      <trkpt lat="45.44478" lon="4.6093">
        <ele>691.3</ele>
        <time>1970-01-01T00:23:19.000Z</time>
      </trkpt>
      <trkpt lat="45.44475" lon="4.60933">
        <ele>692.1</ele>
        <time>1970-01-01T00:23:21.000Z</time>
      </trkpt>
      <trkpt lat="45.44472" lon="4.60937">
        <ele>692.8</ele>
        <time>1970-01-01T00:23:23.000Z</time>
      </trkpt>
      <trkpt lat="45.4447" lon="4.6094">
        <ele>692.6</ele>
        <time>1970-01-01T00:23:25.000Z</time>
      </trkpt>
      <trkpt lat="45.44468" lon="4.60944">
        <ele>693.2</ele>
        <time>1970-01-01T00:23:27.000Z</time>
      </trkpt>
      <trkpt lat="45.44466" lon="4.60947">
        <ele>693.8</ele>
        <time>1970-01-01T00:23:29.000Z</time>
      </trkpt>
      <trkpt lat="45.44463" lon="4.60951">
        <ele>694.2</ele>
        <time>1970-01-01T00:23:31.000Z</time>
      </trkpt>
      <trkpt lat="45.44461" lon="4.60955">
        <ele>694.7</ele>
        <time>1970-01-01T00:23:33.000Z</time>
      </trkpt>
      <trkpt lat="45.44459" lon="4.60959">
        <ele>695.1</ele>
        <time>1970-01-01T00:23:35.000Z</time>
      </trkpt>
      <trkpt lat="45.44458" lon="4.60962">
        <ele>695.1</ele>
        <time>1970-01-01T00:23:37.000Z</time>
      </trkpt>
      <trkpt lat="45.44456" lon="4.60966">
        <ele>695.5</ele>
        <time>1970-01-01T00:23:39.000Z</time>
      </trkpt>
      <trkpt lat="45.44455" lon="4.6097">
        <ele>696.1</ele>
        <time>1970-01-01T00:23:41.000Z</time>
      </trkpt>
      <trkpt lat="45.44453" lon="4.60974">
        <ele>696.4</ele>
        <time>1970-01-01T00:23:43.000Z</time>
      </trkpt>
      <trkpt lat="45.44452" lon="4.60979">
        <ele>696.9</ele>
        <time>1970-01-01T00:23:45.000Z</time>
      </trkpt>
      <trkpt lat="45.44449" lon="4.60984">
        <ele>698.2</ele>
        <time>1970-01-01T00:23:48.000Z</time>
      </trkpt>
      <trkpt lat="45.44447" lon="4.60989">
        <ele>698.8</ele>
        <time>1970-01-01T00:23:50.000Z</time>
      </trkpt>
      <trkpt lat="45.44446" lon="4.60993">
        <ele>699.6</ele>
        <time>1970-01-01T00:23:52.000Z</time>
      </trkpt>
      <trkpt lat="45.44444" lon="4.60996">
        <ele>699.5</ele>
        <time>1970-01-01T00:23:54.000Z</time>
      </trkpt>
      <trkpt lat="45.44442" lon="4.61">
        <ele>700.3</ele>
        <time>1970-01-01T00:23:56.000Z</time>
      </trkpt>
      <trkpt lat="45.4444" lon="4.61004">
        <ele>700.9</ele>
        <time>1970-01-01T00:23:59.000Z</time>
      </trkpt>
      <trkpt lat="45.44439" lon="4.61008">
        <ele>701.9</ele>
        <time>1970-01-01T00:24:01.000Z</time>
      </trkpt>
      <trkpt lat="45.44437" lon="4.61012">
        <ele>702.8</ele>
        <time>1970-01-01T00:24:03.000Z</time>
      </trkpt>
      <trkpt lat="45.44436" lon="4.61016">
        <ele>703.6</ele>
        <time>1970-01-01T00:24:05.000Z</time>
      </trkpt>
      <trkpt lat="45.44434" lon="4.61019">
        <ele>704.6</ele>
        <time>1970-01-01T00:24:07.000Z</time>
      </trkpt>
      <trkpt lat="45.44432" lon="4.61023">
        <ele>705.1</ele>
        <time>1970-01-01T00:24:09.000Z</time>
      </trkpt>
      <trkpt lat="45.44431" lon="4.61027">
        <ele>705.7</ele>
        <time>1970-01-01T00:24:11.000Z</time>
      </trkpt>
      <trkpt lat="45.44429" lon="4.61032">
        <ele>705.9</ele>
        <time>1970-01-01T00:24:13.000Z</time>
      </trkpt>
      <trkpt lat="45.44428" lon="4.61037">
        <ele>706.6</ele>
        <time>1970-01-01T00:24:15.000Z</time>
      </trkpt>
      <trkpt lat="45.44424" lon="4.61041">
        <ele>706.7</ele>
        <time>1970-01-01T00:24:18.000Z</time>
      </trkpt>
      <trkpt lat="45.44421" lon="4.61044">
        <ele>706.9</ele>
        <time>1970-01-01T00:24:20.000Z</time>
      </trkpt>
      <trkpt lat="45.44419" lon="4.61047">
        <ele>706.5</ele>
        <time>1970-01-01T00:24:22.000Z</time>
      </trkpt>
      <trkpt lat="45.44417" lon="4.61052">
        <ele>706.7</ele>
        <time>1970-01-01T00:24:24.000Z</time>
      </trkpt>
      <trkpt lat="45.44415" lon="4.61057">
        <ele>707.7</ele>
        <time>1970-01-01T00:24:26.000Z</time>
      </trkpt>
      <trkpt lat="45.44414" lon="4.61063">
        <ele>707.9</ele>
        <time>1970-01-01T00:24:28.000Z</time>
      </trkpt>
      <trkpt lat="45.44414" lon="4.61068">
        <ele>708.7</ele>
        <time>1970-01-01T00:24:30.000Z</time>
      </trkpt>
      <trkpt lat="45.44413" lon="4.61073">
        <ele>709.6</ele>
        <time>1970-01-01T00:24:32.000Z</time>
      </trkpt>
      <trkpt lat="45.44412" lon="4.61078">
        <ele>710.4</ele>
        <time>1970-01-01T00:24:34.000Z</time>
      </trkpt>
      <trkpt lat="45.44412" lon="4.61082">
        <ele>711.3</ele>
        <time>1970-01-01T00:24:36.000Z</time>
      </trkpt>
      <trkpt lat="45.4441" lon="4.61088">
        <ele>712.4</ele>
        <time>1970-01-01T00:24:39.000Z</time>
      </trkpt>
      <trkpt lat="45.44409" lon="4.61092">
        <ele>713.4</ele>
        <time>1970-01-01T00:24:42.000Z</time>
      </trkpt>
      <trkpt lat="45.44407" lon="4.61096">
        <ele>713.8</ele>
        <time>1970-01-01T00:24:45.000Z</time>
      </trkpt>
      <trkpt lat="45.44407" lon="4.61099">
        <ele>713.8</ele>
        <time>1970-01-01T00:24:47.000Z</time>
      </trkpt>
      <trkpt lat="45.44407" lon="4.61104">
        <ele>714.9</ele>
        <time>1970-01-01T00:24:52.000Z</time>
      </trkpt>
      <trkpt lat="45.44405" lon="4.611">
        <ele>714.2</ele>
        <time>1970-01-01T00:25:07.000Z</time>
      </trkpt>
      <trkpt lat="45.44404" lon="4.61096">
        <ele>713.1</ele>
        <time>1970-01-01T00:26:05.000Z</time>
      </trkpt>
      <trkpt lat="45.44405" lon="4.611">
        <ele>713</ele>
        <time>1970-01-01T00:26:13.000Z</time>
      </trkpt>
      <trkpt lat="45.44406" lon="4.61103">
        <ele>714.9</ele>
        <time>1970-01-01T00:26:27.000Z</time>
      </trkpt>
      <trkpt lat="45.44405" lon="4.61107">
        <ele>715.2</ele>
        <time>1970-01-01T00:26:30.000Z</time>
      </trkpt>
      <trkpt lat="45.44404" lon="4.61113">
        <ele>717</ele>
        <time>1970-01-01T00:26:34.000Z</time>
      </trkpt>
      <trkpt lat="45.44403" lon="4.61117">
        <ele>717.9</ele>
        <time>1970-01-01T00:26:36.000Z</time>
      </trkpt>
      <trkpt lat="45.44401" lon="4.61122">
        <ele>718.1</ele>
        <time>1970-01-01T00:26:39.000Z</time>
      </trkpt>
      <trkpt lat="45.444" lon="4.61126">
        <ele>718.9</ele>
        <time>1970-01-01T00:26:41.000Z</time>
      </trkpt>
      <trkpt lat="45.44399" lon="4.61131">
        <ele>719</ele>
        <time>1970-01-01T00:26:45.000Z</time>
      </trkpt>
      <trkpt lat="45.44398" lon="4.61136">
        <ele>719.6</ele>
        <time>1970-01-01T00:26:48.000Z</time>
      </trkpt>
      <trkpt lat="45.44397" lon="4.61141">
        <ele>720.2</ele>
        <time>1970-01-01T00:26:51.000Z</time>
      </trkpt>
      <trkpt lat="45.44396" lon="4.61146">
        <ele>720</ele>
        <time>1970-01-01T00:26:54.000Z</time>
      </trkpt>
      <trkpt lat="45.44395" lon="4.61152">
        <ele>720.9</ele>
        <time>1970-01-01T00:26:57.000Z</time>
      </trkpt>
      <trkpt lat="45.44395" lon="4.61156">
        <ele>721.2</ele>
        <time>1970-01-01T00:26:59.000Z</time>
      </trkpt>
      <trkpt lat="45.44395" lon="4.6116">
        <ele>721.5</ele>
        <time>1970-01-01T00:27:01.000Z</time>
      </trkpt>
      <trkpt lat="45.44394" lon="4.61166">
        <ele>721.6</ele>
        <time>1970-01-01T00:27:03.000Z</time>
      </trkpt>
      <trkpt lat="45.44393" lon="4.61172">
        <ele>720.9</ele>
        <time>1970-01-01T00:27:06.000Z</time>
      </trkpt>
      <trkpt lat="45.44392" lon="4.61176">
        <ele>721.1</ele>
        <time>1970-01-01T00:27:08.000Z</time>
      </trkpt>
      <trkpt lat="45.44391" lon="4.6118">
        <ele>721.3</ele>
        <time>1970-01-01T00:27:11.000Z</time>
      </trkpt>
      <trkpt lat="45.44389" lon="4.61185">
        <ele>720.7</ele>
        <time>1970-01-01T00:27:15.000Z</time>
      </trkpt>
      <trkpt lat="45.44388" lon="4.6119">
        <ele>721</ele>
        <time>1970-01-01T00:27:17.000Z</time>
      </trkpt>
      <trkpt lat="45.44387" lon="4.61194">
        <ele>720.1</ele>
        <time>1970-01-01T00:27:19.000Z</time>
      </trkpt>
      <trkpt lat="45.44386" lon="4.61199">
        <ele>720.1</ele>
        <time>1970-01-01T00:27:21.000Z</time>
      </trkpt>
      <trkpt lat="45.44385" lon="4.61203">
        <ele>720.1</ele>
        <time>1970-01-01T00:27:23.000Z</time>
      </trkpt>
      <trkpt lat="45.44384" lon="4.61208">
        <ele>719.2</ele>
        <time>1970-01-01T00:27:25.000Z</time>
      </trkpt>
      <trkpt lat="45.44384" lon="4.61212">
        <ele>719.2</ele>
        <time>1970-01-01T00:27:27.000Z</time>
      </trkpt>
      <trkpt lat="45.44383" lon="4.61216">
        <ele>719.2</ele>
        <time>1970-01-01T00:27:29.000Z</time>
      </trkpt>
      <trkpt lat="45.44382" lon="4.61221">
        <ele>719.2</ele>
        <time>1970-01-01T00:27:31.000Z</time>
      </trkpt>
      <trkpt lat="45.44381" lon="4.61226">
        <ele>718.3</ele>
        <time>1970-01-01T00:27:33.000Z</time>
      </trkpt>
      <trkpt lat="45.4438" lon="4.61232">
        <ele>718.3</ele>
        <time>1970-01-01T00:27:35.000Z</time>
      </trkpt>
      <trkpt lat="45.44379" lon="4.61235">
        <ele>718.3</ele>
        <time>1970-01-01T00:27:37.000Z</time>
      </trkpt>
      <trkpt lat="45.44378" lon="4.6124">
        <ele>717.2</ele>
        <time>1970-01-01T00:27:39.000Z</time>
      </trkpt>
      <trkpt lat="45.44378" lon="4.61246">
        <ele>717.3</ele>
        <time>1970-01-01T00:27:41.000Z</time>
      </trkpt>
      <trkpt lat="45.44377" lon="4.61251">
        <ele>717.4</ele>
        <time>1970-01-01T00:27:44.000Z</time>
      </trkpt>
      <trkpt lat="45.44378" lon="4.61256">
        <ele>717.5</ele>
        <time>1970-01-01T00:27:46.000Z</time>
      </trkpt>
      <trkpt lat="45.44379" lon="4.61261">
        <ele>719.1</ele>
        <time>1970-01-01T00:27:48.000Z</time>
      </trkpt>
      <trkpt lat="45.4438" lon="4.61265">
        <ele>719.3</ele>
        <time>1970-01-01T00:27:50.000Z</time>
      </trkpt>
      <trkpt lat="45.4438" lon="4.6127">
        <ele>719.5</ele>
        <time>1970-01-01T00:27:52.000Z</time>
      </trkpt>
      <trkpt lat="45.4438" lon="4.61275">
        <ele>719.6</ele>
        <time>1970-01-01T00:27:54.000Z</time>
      </trkpt>
      <trkpt lat="45.4438" lon="4.61281">
        <ele>719.4</ele>
        <time>1970-01-01T00:27:56.000Z</time>
      </trkpt>
      <trkpt lat="45.44381" lon="4.61286">
        <ele>719.1</ele>
        <time>1970-01-01T00:27:58.000Z</time>
      </trkpt>
      <trkpt lat="45.44381" lon="4.61291">
        <ele>718.8</ele>
        <time>1970-01-01T00:28:00.000Z</time>
      </trkpt>
      <trkpt lat="45.44382" lon="4.61298">
        <ele>719.9</ele>
        <time>1970-01-01T00:28:03.000Z</time>
      </trkpt>
      <trkpt lat="45.44383" lon="4.61304">
        <ele>719.6</ele>
        <time>1970-01-01T00:28:05.000Z</time>
      </trkpt>
      <trkpt lat="45.44383" lon="4.61308">
        <ele>719.4</ele>
        <time>1970-01-01T00:28:07.000Z</time>
      </trkpt>
      <trkpt lat="45.44383" lon="4.61313">
        <ele>719.3</ele>
        <time>1970-01-01T00:28:09.000Z</time>
      </trkpt>
      <trkpt lat="45.44385" lon="4.61318">
        <ele>720.9</ele>
        <time>1970-01-01T00:28:11.000Z</time>
      </trkpt>
      <trkpt lat="45.44386" lon="4.61324">
        <ele>721</ele>
        <time>1970-01-01T00:28:14.000Z</time>
      </trkpt>
      <trkpt lat="45.44387" lon="4.61329">
        <ele>721</ele>
        <time>1970-01-01T00:28:16.000Z</time>
      </trkpt>
      <trkpt lat="45.44388" lon="4.61334">
        <ele>722.6</ele>
        <time>1970-01-01T00:28:18.000Z</time>
      </trkpt>
      <trkpt lat="45.44389" lon="4.6134">
        <ele>722.6</ele>
        <time>1970-01-01T00:28:20.000Z</time>
      </trkpt>
      <trkpt lat="45.4439" lon="4.61344">
        <ele>722.5</ele>
        <time>1970-01-01T00:28:22.000Z</time>
      </trkpt>
      <trkpt lat="45.44392" lon="4.61351">
        <ele>723.9</ele>
        <time>1970-01-01T00:28:24.000Z</time>
      </trkpt>
      <trkpt lat="45.44393" lon="4.61357">
        <ele>724</ele>
        <time>1970-01-01T00:28:26.000Z</time>
      </trkpt>
      <trkpt lat="45.44394" lon="4.61361">
        <ele>725.5</ele>
        <time>1970-01-01T00:28:27.000Z</time>
      </trkpt>
      <trkpt lat="45.44394" lon="4.61367">
        <ele>725.7</ele>
        <time>1970-01-01T00:28:29.000Z</time>
      </trkpt>
      <trkpt lat="45.44395" lon="4.61373">
        <ele>725.9</ele>
        <time>1970-01-01T00:28:31.000Z</time>
      </trkpt>
      <trkpt lat="45.44394" lon="4.61379">
        <ele>726.2</ele>
        <time>1970-01-01T00:28:33.000Z</time>
      </trkpt>
      <trkpt lat="45.44395" lon="4.61384">
        <ele>726.3</ele>
        <time>1970-01-01T00:28:35.000Z</time>
      </trkpt>
      <trkpt lat="45.44395" lon="4.61389">
        <ele>726.3</ele>
        <time>1970-01-01T00:28:37.000Z</time>
      </trkpt>
      <trkpt lat="45.44395" lon="4.61393">
        <ele>726.3</ele>
        <time>1970-01-01T00:28:40.000Z</time>
      </trkpt>
      <trkpt lat="45.44395" lon="4.61388">
        <ele>726.3</ele>
        <time>1970-01-01T00:28:44.000Z</time>
      </trkpt>
      <trkpt lat="45.44395" lon="4.61383">
        <ele>726.1</ele>
        <time>1970-01-01T00:28:46.000Z</time>
      </trkpt>
      <trkpt lat="45.44397" lon="4.61376">
        <ele>727.6</ele>
        <time>1970-01-01T00:28:48.000Z</time>
      </trkpt>
      <trkpt lat="45.44397" lon="4.61373">
        <ele>727.4</ele>
        <time>1970-01-01T00:28:49.000Z</time>
      </trkpt>
      <trkpt lat="45.44398" lon="4.61366">
        <ele>727.3</ele>
        <time>1970-01-01T00:28:51.000Z</time>
      </trkpt>
      <trkpt lat="45.44397" lon="4.6136">
        <ele>727</ele>
        <time>1970-01-01T00:28:53.000Z</time>
      </trkpt>
      <trkpt lat="45.44395" lon="4.61354">
        <ele>725.3</ele>
        <time>1970-01-01T00:28:55.000Z</time>
      </trkpt>
      <trkpt lat="45.44394" lon="4.6135">
        <ele>725.3</ele>
        <time>1970-01-01T00:28:59.000Z</time>
      </trkpt>
      <trkpt lat="45.44393" lon="4.61345">
        <ele>723.7</ele>
        <time>1970-01-01T00:29:11.000Z</time>
      </trkpt>
      <trkpt lat="45.44394" lon="4.61341">
        <ele>725.3</ele>
        <time>1970-01-01T00:29:15.000Z</time>
      </trkpt>
      <trkpt lat="45.44392" lon="4.61338">
        <ele>723.8</ele>
        <time>1970-01-01T00:29:29.000Z</time>
      </trkpt>
      <trkpt lat="45.44389" lon="4.6134">
        <ele>722.3</ele>
        <time>1970-01-01T00:29:36.000Z</time>
      </trkpt>
      <trkpt lat="45.44388" lon="4.61344">
        <ele>722.3</ele>
        <time>1970-01-01T00:29:40.000Z</time>
      </trkpt>
      <trkpt lat="45.44385" lon="4.61347">
        <ele>720.7</ele>
        <time>1970-01-01T00:29:44.000Z</time>
      </trkpt>
      <trkpt lat="45.44383" lon="4.6135">
        <ele>719.1</ele>
        <time>1970-01-01T00:29:47.000Z</time>
      </trkpt>
      <trkpt lat="45.44382" lon="4.61355">
        <ele>719.1</ele>
        <time>1970-01-01T00:29:52.000Z</time>
      </trkpt>
      <trkpt lat="45.44382" lon="4.6136">
        <ele>719.2</ele>
        <time>1970-01-01T00:29:57.000Z</time>
      </trkpt>
      <trkpt lat="45.44381" lon="4.61364">
        <ele>717.7</ele>
        <time>1970-01-01T00:30:01.000Z</time>
      </trkpt>
      <trkpt lat="45.44381" lon="4.61369">
        <ele>717.9</ele>
        <time>1970-01-01T00:30:05.000Z</time>
      </trkpt>
      <trkpt lat="45.4438" lon="4.61373">
        <ele>718.2</ele>
        <time>1970-01-01T00:30:08.000Z</time>
      </trkpt>
      <trkpt lat="45.44381" lon="4.61377">
        <ele>718.4</ele>
        <time>1970-01-01T00:30:17.000Z</time>
      </trkpt>
      <trkpt lat="45.44383" lon="4.61374">
        <ele>719.8</ele>
        <time>1970-01-01T00:30:22.000Z</time>
      </trkpt>
      <trkpt lat="45.44385" lon="4.61372">
        <ele>721.2</ele>
        <time>1970-01-01T00:30:34.000Z</time>
      </trkpt>
      <trkpt lat="45.44385" lon="4.61367">
        <ele>721</ele>
        <time>1970-01-01T00:30:38.000Z</time>
      </trkpt>
      <trkpt lat="45.44384" lon="4.61362">
        <ele>719.3</ele>
        <time>1970-01-01T00:30:49.000Z</time>
      </trkpt>
      <trkpt lat="45.44384" lon="4.61359">
        <ele>719.1</ele>
        <time>1970-01-01T00:30:55.000Z</time>
      </trkpt>
      <trkpt lat="45.44386" lon="4.61355">
        <ele>720.6</ele>
        <time>1970-01-01T00:31:00.000Z</time>
      </trkpt>
      <trkpt lat="45.44387" lon="4.61352">
        <ele>720.5</ele>
        <time>1970-01-01T00:31:03.000Z</time>
      </trkpt>
      <trkpt lat="45.4439" lon="4.61349">
        <ele>722</ele>
        <time>1970-01-01T00:31:08.000Z</time>
      </trkpt>
      <trkpt lat="45.44393" lon="4.61349">
        <ele>723.5</ele>
        <time>1970-01-01T00:31:13.000Z</time>
      </trkpt>
      <trkpt lat="45.44395" lon="4.61346">
        <ele>725</ele>
        <time>1970-01-01T00:31:21.000Z</time>
      </trkpt>
      <trkpt lat="45.44398" lon="4.61351">
        <ele>726.6</ele>
        <time>1970-01-01T00:31:30.000Z</time>
      </trkpt>
      <trkpt lat="45.444" lon="4.61356">
        <ele>728.4</ele>
        <time>1970-01-01T00:31:32.000Z</time>
      </trkpt>
      <trkpt lat="45.44401" lon="4.61362">
        <ele>728.5</ele>
        <time>1970-01-01T00:31:34.000Z</time>
      </trkpt>
      <trkpt lat="45.44401" lon="4.61366">
        <ele>728.6</ele>
        <time>1970-01-01T00:31:35.000Z</time>
      </trkpt>
      <trkpt lat="45.44402" lon="4.61372">
        <ele>728.8</ele>
        <time>1970-01-01T00:31:37.000Z</time>
      </trkpt>
      <trkpt lat="45.44402" lon="4.61378">
        <ele>728.9</ele>
        <time>1970-01-01T00:31:39.000Z</time>
      </trkpt>
      <trkpt lat="45.44401" lon="4.61385">
        <ele>729.2</ele>
        <time>1970-01-01T00:31:41.000Z</time>
      </trkpt>
      <trkpt lat="45.44401" lon="4.61392">
        <ele>729.2</ele>
        <time>1970-01-01T00:31:43.000Z</time>
      </trkpt>
      <trkpt lat="45.44401" lon="4.61397">
        <ele>729.2</ele>
        <time>1970-01-01T00:31:45.000Z</time>
      </trkpt>
      <trkpt lat="45.44402" lon="4.61403">
        <ele>729.1</ele>
        <time>1970-01-01T00:31:47.000Z</time>
      </trkpt>
      <trkpt lat="45.44401" lon="4.61409">
        <ele>729.2</ele>
        <time>1970-01-01T00:31:49.000Z</time>
      </trkpt>
      <trkpt lat="45.44401" lon="4.61416">
        <ele>729.2</ele>
        <time>1970-01-01T00:31:51.000Z</time>
      </trkpt>
      <trkpt lat="45.44401" lon="4.6142">
        <ele>729.4</ele>
        <time>1970-01-01T00:31:52.000Z</time>
      </trkpt>
      <trkpt lat="45.44401" lon="4.61424">
        <ele>729.6</ele>
        <time>1970-01-01T00:31:53.000Z</time>
      </trkpt>
      <trkpt lat="45.44401" lon="4.61432">
        <ele>730.3</ele>
        <time>1970-01-01T00:31:55.000Z</time>
      </trkpt>
      <trkpt lat="45.44402" lon="4.61438">
        <ele>730.6</ele>
        <time>1970-01-01T00:31:57.000Z</time>
      </trkpt>
      <trkpt lat="45.44403" lon="4.61446">
        <ele>732.6</ele>
        <time>1970-01-01T00:31:59.000Z</time>
      </trkpt>
      <trkpt lat="45.44403" lon="4.61454">
        <ele>732.7</ele>
        <time>1970-01-01T00:32:01.000Z</time>
      </trkpt>
      <trkpt lat="45.44403" lon="4.61459">
        <ele>732.6</ele>
        <time>1970-01-01T00:32:02.000Z</time>
      </trkpt>
      <trkpt lat="45.44403" lon="4.61464">
        <ele>732.6</ele>
        <time>1970-01-01T00:32:03.000Z</time>
      </trkpt>
      <trkpt lat="45.44402" lon="4.61468">
        <ele>730.9</ele>
        <time>1970-01-01T00:32:04.000Z</time>
      </trkpt>
      <trkpt lat="45.44402" lon="4.61472">
        <ele>730.8</ele>
        <time>1970-01-01T00:32:05.000Z</time>
      </trkpt>
      <trkpt lat="45.44402" lon="4.61477">
        <ele>730.7</ele>
        <time>1970-01-01T00:32:06.000Z</time>
      </trkpt>
      <trkpt lat="45.44401" lon="4.61482">
        <ele>730.7</ele>
        <time>1970-01-01T00:32:07.000Z</time>
      </trkpt>
      <trkpt lat="45.444" lon="4.61489">
        <ele>730.8</ele>
        <time>1970-01-01T00:32:08.000Z</time>
      </trkpt>
      <trkpt lat="45.444" lon="4.61494">
        <ele>730.9</ele>
        <time>1970-01-01T00:32:09.000Z</time>
      </trkpt>
      <trkpt lat="45.444" lon="4.61502">
        <ele>731.4</ele>
        <time>1970-01-01T00:32:11.000Z</time>
      </trkpt>
      <trkpt lat="45.444" lon="4.61506">
        <ele>731.6</ele>
        <time>1970-01-01T00:32:12.000Z</time>
      </trkpt>
      <trkpt lat="45.44401" lon="4.61511">
        <ele>732</ele>
        <time>1970-01-01T00:32:13.000Z</time>
      </trkpt>
      <trkpt lat="45.44401" lon="4.61518">
        <ele>732.9</ele>
        <time>1970-01-01T00:32:15.000Z</time>
      </trkpt>
      <trkpt lat="45.44403" lon="4.61524">
        <ele>734.4</ele>
        <time>1970-01-01T00:32:17.000Z</time>
      </trkpt>
      <trkpt lat="45.44405" lon="4.61531">
        <ele>735</ele>
        <time>1970-01-01T00:32:19.000Z</time>
      </trkpt>
      <trkpt lat="45.44407" lon="4.61537">
        <ele>736.4</ele>
        <time>1970-01-01T00:32:21.000Z</time>
      </trkpt>
      <trkpt lat="45.44408" lon="4.61542">
        <ele>736.6</ele>
        <time>1970-01-01T00:32:23.000Z</time>
      </trkpt>
      <trkpt lat="45.4441" lon="4.61549">
        <ele>738.2</ele>
        <time>1970-01-01T00:32:25.000Z</time>
      </trkpt>
      <trkpt lat="45.4441" lon="4.61555">
        <ele>738.7</ele>
        <time>1970-01-01T00:32:27.000Z</time>
      </trkpt>
      <trkpt lat="45.44412" lon="4.61561">
        <ele>739.9</ele>
        <time>1970-01-01T00:32:29.000Z</time>
      </trkpt>
      <trkpt lat="45.44413" lon="4.61565">
        <ele>740</ele>
        <time>1970-01-01T00:32:30.000Z</time>
      </trkpt>
      <trkpt lat="45.44415" lon="4.61569">
        <ele>741.1</ele>
        <time>1970-01-01T00:32:31.000Z</time>
      </trkpt>
      <trkpt lat="45.44416" lon="4.61575">
        <ele>741.2</ele>
        <time>1970-01-01T00:32:33.000Z</time>
      </trkpt>
      <trkpt lat="45.44417" lon="4.6158">
        <ele>741.3</ele>
        <time>1970-01-01T00:32:35.000Z</time>
      </trkpt>
      <trkpt lat="45.44417" lon="4.61586">
        <ele>741.5</ele>
        <time>1970-01-01T00:32:38.000Z</time>
      </trkpt>
      <trkpt lat="45.44417" lon="4.61591">
        <ele>741.6</ele>
        <time>1970-01-01T00:32:41.000Z</time>
      </trkpt>
      <trkpt lat="45.44418" lon="4.61598">
        <ele>742.7</ele>
        <time>1970-01-01T00:32:43.000Z</time>
      </trkpt>
      <trkpt lat="45.44418" lon="4.61604">
        <ele>742.8</ele>
        <time>1970-01-01T00:32:45.000Z</time>
      </trkpt>
      <trkpt lat="45.44418" lon="4.61611">
        <ele>743.1</ele>
        <time>1970-01-01T00:32:47.000Z</time>
      </trkpt>
      <trkpt lat="45.44418" lon="4.61616">
        <ele>743.2</ele>
        <time>1970-01-01T00:32:49.000Z</time>
      </trkpt>
      <trkpt lat="45.44418" lon="4.61622">
        <ele>743.3</ele>
        <time>1970-01-01T00:32:51.000Z</time>
      </trkpt>
      <trkpt lat="45.44418" lon="4.61628">
        <ele>743.7</ele>
        <time>1970-01-01T00:32:53.000Z</time>
      </trkpt>
      <trkpt lat="45.44418" lon="4.61636">
        <ele>743.8</ele>
        <time>1970-01-01T00:32:55.000Z</time>
      </trkpt>
      <trkpt lat="45.44418" lon="4.61642">
        <ele>744.1</ele>
        <time>1970-01-01T00:32:57.000Z</time>
      </trkpt>
      <trkpt lat="45.4442" lon="4.61646">
        <ele>744.3</ele>
        <time>1970-01-01T00:32:58.000Z</time>
      </trkpt>
      <trkpt lat="45.44421" lon="4.61651">
        <ele>745.4</ele>
        <time>1970-01-01T00:33:00.000Z</time>
      </trkpt>
      <trkpt lat="45.44421" lon="4.61655">
        <ele>745.7</ele>
        <time>1970-01-01T00:33:02.000Z</time>
      </trkpt>
      <trkpt lat="45.44422" lon="4.61662">
        <ele>746.1</ele>
        <time>1970-01-01T00:33:04.000Z</time>
      </trkpt>
      <trkpt lat="45.44421" lon="4.61667">
        <ele>746.9</ele>
        <time>1970-01-01T00:33:06.000Z</time>
      </trkpt>
      <trkpt lat="45.44421" lon="4.61673">
        <ele>747.4</ele>
        <time>1970-01-01T00:33:08.000Z</time>
      </trkpt>
      <trkpt lat="45.44421" lon="4.61677">
        <ele>748.1</ele>
        <time>1970-01-01T00:33:09.000Z</time>
      </trkpt>
      <trkpt lat="45.4442" lon="4.61683">
        <ele>747.9</ele>
        <time>1970-01-01T00:33:11.000Z</time>
      </trkpt>
      <trkpt lat="45.44419" lon="4.6169">
        <ele>749.3</ele>
        <time>1970-01-01T00:33:13.000Z</time>
      </trkpt>
      <trkpt lat="45.44419" lon="4.61697">
        <ele>750.5</ele>
        <time>1970-01-01T00:33:14.000Z</time>
      </trkpt>
      <trkpt lat="45.44418" lon="4.61702">
        <ele>751</ele>
        <time>1970-01-01T00:33:15.000Z</time>
      </trkpt>
      <trkpt lat="45.44417" lon="4.61707">
        <ele>750.9</ele>
        <time>1970-01-01T00:33:16.000Z</time>
      </trkpt>
      <trkpt lat="45.44416" lon="4.61711">
        <ele>751.5</ele>
        <time>1970-01-01T00:33:17.000Z</time>
      </trkpt>
      <trkpt lat="45.44412" lon="4.61717">
        <ele>751.5</ele>
        <time>1970-01-01T00:33:19.000Z</time>
      </trkpt>
      <trkpt lat="45.4441" lon="4.61722">
        <ele>752</ele>
        <time>1970-01-01T00:33:20.000Z</time>
      </trkpt>
      <trkpt lat="45.44409" lon="4.61726">
        <ele>752</ele>
        <time>1970-01-01T00:33:21.000Z</time>
      </trkpt>
      <trkpt lat="45.44407" lon="4.6173">
        <ele>752</ele>
        <time>1970-01-01T00:33:22.000Z</time>
      </trkpt>
      <trkpt lat="45.44404" lon="4.61733">
        <ele>752</ele>
        <time>1970-01-01T00:33:23.000Z</time>
      </trkpt>
      <trkpt lat="45.444" lon="4.61735">
        <ele>751.9</ele>
        <time>1970-01-01T00:33:25.000Z</time>
      </trkpt>
      <trkpt lat="45.44397" lon="4.61738">
        <ele>751</ele>
        <time>1970-01-01T00:33:26.000Z</time>
      </trkpt>
      <trkpt lat="45.44394" lon="4.61741">
        <ele>750.8</ele>
        <time>1970-01-01T00:33:27.000Z</time>
      </trkpt>
      <trkpt lat="45.44392" lon="4.61744">
        <ele>750.5</ele>
        <time>1970-01-01T00:33:28.000Z</time>
      </trkpt>
      <trkpt lat="45.4439" lon="4.61747">
        <ele>749.7</ele>
        <time>1970-01-01T00:33:29.000Z</time>
      </trkpt>
      <trkpt lat="45.44388" lon="4.6175">
        <ele>749.9</ele>
        <time>1970-01-01T00:33:30.000Z</time>
      </trkpt>
      <trkpt lat="45.44385" lon="4.61756">
        <ele>750.2</ele>
        <time>1970-01-01T00:33:32.000Z</time>
      </trkpt>
      <trkpt lat="45.44384" lon="4.6176">
        <ele>750.3</ele>
        <time>1970-01-01T00:33:33.000Z</time>
      </trkpt>
      <trkpt lat="45.44384" lon="4.61764">
        <ele>750.5</ele>
        <time>1970-01-01T00:33:34.000Z</time>
      </trkpt>
      <trkpt lat="45.44383" lon="4.61769">
        <ele>750.7</ele>
        <time>1970-01-01T00:33:35.000Z</time>
      </trkpt>
      <trkpt lat="45.44382" lon="4.61774">
        <ele>750.9</ele>
        <time>1970-01-01T00:33:36.000Z</time>
      </trkpt>
      <trkpt lat="45.44382" lon="4.61778">
        <ele>751.1</ele>
        <time>1970-01-01T00:33:37.000Z</time>
      </trkpt>
      <trkpt lat="45.44381" lon="4.61783">
        <ele>751.3</ele>
        <time>1970-01-01T00:33:38.000Z</time>
      </trkpt>
      <trkpt lat="45.44379" lon="4.61789">
        <ele>751.9</ele>
        <time>1970-01-01T00:33:40.000Z</time>
      </trkpt>
      <trkpt lat="45.44376" lon="4.61794">
        <ele>752.2</ele>
        <time>1970-01-01T00:33:42.000Z</time>
      </trkpt>
      <trkpt lat="45.44374" lon="4.61797">
        <ele>752.3</ele>
        <time>1970-01-01T00:33:43.000Z</time>
      </trkpt>
      <trkpt lat="45.44371" lon="4.618">
        <ele>752.5</ele>
        <time>1970-01-01T00:33:44.000Z</time>
      </trkpt>
      <trkpt lat="45.44369" lon="4.61803">
        <ele>752.6</ele>
        <time>1970-01-01T00:33:45.000Z</time>
      </trkpt>
      <trkpt lat="45.44365" lon="4.61807">
        <ele>752.8</ele>
        <time>1970-01-01T00:33:47.000Z</time>
      </trkpt>
      <trkpt lat="45.44362" lon="4.61807">
        <ele>753</ele>
        <time>1970-01-01T00:33:48.000Z</time>
      </trkpt>
      <trkpt lat="45.44359" lon="4.61809">
        <ele>753.2</ele>
        <time>1970-01-01T00:33:49.000Z</time>
      </trkpt>
      <trkpt lat="45.44356" lon="4.6181">
        <ele>753.3</ele>
        <time>1970-01-01T00:33:50.000Z</time>
      </trkpt>
      <trkpt lat="45.44351" lon="4.61813">
        <ele>753.6</ele>
        <time>1970-01-01T00:33:52.000Z</time>
      </trkpt>
      <trkpt lat="45.44348" lon="4.61814">
        <ele>753.9</ele>
        <time>1970-01-01T00:33:53.000Z</time>
      </trkpt>
      <trkpt lat="45.44345" lon="4.61816">
        <ele>754.2</ele>
        <time>1970-01-01T00:33:54.000Z</time>
      </trkpt>
      <trkpt lat="45.44342" lon="4.61818">
        <ele>754.4</ele>
        <time>1970-01-01T00:33:55.000Z</time>
      </trkpt>
      <trkpt lat="45.4434" lon="4.61819">
        <ele>754.6</ele>
        <time>1970-01-01T00:33:56.000Z</time>
      </trkpt>
      <trkpt lat="45.44335" lon="4.61823">
        <ele>755</ele>
        <time>1970-01-01T00:33:58.000Z</time>
      </trkpt>
      <trkpt lat="45.44333" lon="4.61825">
        <ele>755.2</ele>
        <time>1970-01-01T00:33:59.000Z</time>
      </trkpt>
      <trkpt lat="45.44328" lon="4.61828">
        <ele>755.5</ele>
        <time>1970-01-01T00:34:01.000Z</time>
      </trkpt>
      <trkpt lat="45.44324" lon="4.61833">
        <ele>755.8</ele>
        <time>1970-01-01T00:34:03.000Z</time>
      </trkpt>
      <trkpt lat="45.44321" lon="4.61837">
        <ele>756.1</ele>
        <time>1970-01-01T00:34:05.000Z</time>
      </trkpt>
      <trkpt lat="45.44317" lon="4.61844">
        <ele>756.4</ele>
        <time>1970-01-01T00:34:07.000Z</time>
      </trkpt>
      <trkpt lat="45.44316" lon="4.61847">
        <ele>756.6</ele>
        <time>1970-01-01T00:34:08.000Z</time>
      </trkpt>
      <trkpt lat="45.44313" lon="4.61853">
        <ele>756.9</ele>
        <time>1970-01-01T00:34:10.000Z</time>
      </trkpt>
      <trkpt lat="45.44312" lon="4.61857">
        <ele>757</ele>
        <time>1970-01-01T00:34:11.000Z</time>
      </trkpt>
      <trkpt lat="45.44311" lon="4.61861">
        <ele>757.2</ele>
        <time>1970-01-01T00:34:12.000Z</time>
      </trkpt>
      <trkpt lat="45.4431" lon="4.61864">
        <ele>757.4</ele>
        <time>1970-01-01T00:34:13.000Z</time>
      </trkpt>
      <trkpt lat="45.44309" lon="4.61869">
        <ele>757.6</ele>
        <time>1970-01-01T00:34:14.000Z</time>
      </trkpt>
      <trkpt lat="45.44308" lon="4.61873">
        <ele>757.8</ele>
        <time>1970-01-01T00:34:15.000Z</time>
      </trkpt>
      <trkpt lat="45.44307" lon="4.61881">
        <ele>758.2</ele>
        <time>1970-01-01T00:34:17.000Z</time>
      </trkpt>
      <trkpt lat="45.44306" lon="4.61886">
        <ele>758.5</ele>
        <time>1970-01-01T00:34:18.000Z</time>
      </trkpt>
      <trkpt lat="45.44305" lon="4.6189">
        <ele>758.7</ele>
        <time>1970-01-01T00:34:19.000Z</time>
      </trkpt>
      <trkpt lat="45.44304" lon="4.61894">
        <ele>758.9</ele>
        <time>1970-01-01T00:34:20.000Z</time>
      </trkpt>
      <trkpt lat="45.44304" lon="4.61898">
        <ele>759.1</ele>
        <time>1970-01-01T00:34:21.000Z</time>
      </trkpt>
      <trkpt lat="45.44303" lon="4.61902">
        <ele>759.2</ele>
        <time>1970-01-01T00:34:22.000Z</time>
      </trkpt>
      <trkpt lat="45.44301" lon="4.6191">
        <ele>759.5</ele>
        <time>1970-01-01T00:34:24.000Z</time>
      </trkpt>
      <trkpt lat="45.44301" lon="4.61914">
        <ele>759.7</ele>
        <time>1970-01-01T00:34:25.000Z</time>
      </trkpt>
      <trkpt lat="45.443" lon="4.61918">
        <ele>759.9</ele>
        <time>1970-01-01T00:34:26.000Z</time>
      </trkpt>
      <trkpt lat="45.44299" lon="4.61922">
        <ele>760.1</ele>
        <time>1970-01-01T00:34:27.000Z</time>
      </trkpt>
      <trkpt lat="45.44298" lon="4.61929">
        <ele>760.4</ele>
        <time>1970-01-01T00:34:29.000Z</time>
      </trkpt>
      <trkpt lat="45.44297" lon="4.61936">
        <ele>760.7</ele>
        <time>1970-01-01T00:34:31.000Z</time>
      </trkpt>
      <trkpt lat="45.44296" lon="4.61942">
        <ele>760.9</ele>
        <time>1970-01-01T00:34:33.000Z</time>
      </trkpt>
      <trkpt lat="45.44295" lon="4.61946">
        <ele>761.1</ele>
        <time>1970-01-01T00:34:34.000Z</time>
      </trkpt>
      <trkpt lat="45.44294" lon="4.61953">
        <ele>761.4</ele>
        <time>1970-01-01T00:34:36.000Z</time>
      </trkpt>
      <trkpt lat="45.44293" lon="4.61957">
        <ele>761.6</ele>
        <time>1970-01-01T00:34:37.000Z</time>
      </trkpt>
      <trkpt lat="45.44292" lon="4.61965">
        <ele>762.3</ele>
        <time>1970-01-01T00:34:39.000Z</time>
      </trkpt>
      <trkpt lat="45.44291" lon="4.61969">
        <ele>762.4</ele>
        <time>1970-01-01T00:34:40.000Z</time>
      </trkpt>
      <trkpt lat="45.4429" lon="4.61972">
        <ele>762.6</ele>
        <time>1970-01-01T00:34:41.000Z</time>
      </trkpt>
      <trkpt lat="45.4429" lon="4.61976">
        <ele>762.7</ele>
        <time>1970-01-01T00:34:42.000Z</time>
      </trkpt>
      <trkpt lat="45.44289" lon="4.6198">
        <ele>762.8</ele>
        <time>1970-01-01T00:34:43.000Z</time>
      </trkpt>
      <trkpt lat="45.44288" lon="4.61987">
        <ele>763.1</ele>
        <time>1970-01-01T00:34:45.000Z</time>
      </trkpt>
      <trkpt lat="45.44287" lon="4.61995">
        <ele>763.4</ele>
        <time>1970-01-01T00:34:47.000Z</time>
      </trkpt>
      <trkpt lat="45.44286" lon="4.62002">
        <ele>763.7</ele>
        <time>1970-01-01T00:34:49.000Z</time>
      </trkpt>
      <trkpt lat="45.44285" lon="4.62006">
        <ele>763.8</ele>
        <time>1970-01-01T00:34:50.000Z</time>
      </trkpt>
      <trkpt lat="45.44285" lon="4.6201">
        <ele>764</ele>
        <time>1970-01-01T00:34:51.000Z</time>
      </trkpt>
      <trkpt lat="45.44283" lon="4.62018">
        <ele>764.4</ele>
        <time>1970-01-01T00:34:53.000Z</time>
      </trkpt>
      <trkpt lat="45.44283" lon="4.62026">
        <ele>764.9</ele>
        <time>1970-01-01T00:34:55.000Z</time>
      </trkpt>
      <trkpt lat="45.44282" lon="4.6203">
        <ele>765.2</ele>
        <time>1970-01-01T00:34:56.000Z</time>
      </trkpt>
      <trkpt lat="45.44281" lon="4.62034">
        <ele>765.4</ele>
        <time>1970-01-01T00:34:57.000Z</time>
      </trkpt>
      <trkpt lat="45.44282" lon="4.62038">
        <ele>765.6</ele>
        <time>1970-01-01T00:34:58.000Z</time>
      </trkpt>
      <trkpt lat="45.44281" lon="4.62045">
        <ele>765.9</ele>
        <time>1970-01-01T00:35:00.000Z</time>
      </trkpt>
      <trkpt lat="45.4428" lon="4.62052">
        <ele>766.3</ele>
        <time>1970-01-01T00:35:02.000Z</time>
      </trkpt>
      <trkpt lat="45.44279" lon="4.62056">
        <ele>766.5</ele>
        <time>1970-01-01T00:35:03.000Z</time>
      </trkpt>
      <trkpt lat="45.44279" lon="4.6206">
        <ele>766.6</ele>
        <time>1970-01-01T00:35:04.000Z</time>
      </trkpt>
      <trkpt lat="45.44279" lon="4.62067">
        <ele>767</ele>
        <time>1970-01-01T00:35:06.000Z</time>
      </trkpt>
      <trkpt lat="45.44279" lon="4.62074">
        <ele>767.3</ele>
        <time>1970-01-01T00:35:08.000Z</time>
      </trkpt>
      <trkpt lat="45.44279" lon="4.62078">
        <ele>767.6</ele>
        <time>1970-01-01T00:35:09.000Z</time>
      </trkpt>
      <trkpt lat="45.44279" lon="4.62086">
        <ele>767.9</ele>
        <time>1970-01-01T00:35:11.000Z</time>
      </trkpt>
      <trkpt lat="45.44278" lon="4.62093">
        <ele>768.3</ele>
        <time>1970-01-01T00:35:13.000Z</time>
      </trkpt>
      <trkpt lat="45.44279" lon="4.62096">
        <ele>768.5</ele>
        <time>1970-01-01T00:35:14.000Z</time>
      </trkpt>
      <trkpt lat="45.44279" lon="4.62104">
        <ele>768.8</ele>
        <time>1970-01-01T00:35:16.000Z</time>
      </trkpt>
      <trkpt lat="45.44279" lon="4.62109">
        <ele>769</ele>
        <time>1970-01-01T00:35:17.000Z</time>
      </trkpt>
      <trkpt lat="45.4428" lon="4.62117">
        <ele>769.3</ele>
        <time>1970-01-01T00:35:19.000Z</time>
      </trkpt>
      <trkpt lat="45.4428" lon="4.62121">
        <ele>769.5</ele>
        <time>1970-01-01T00:35:20.000Z</time>
      </trkpt>
      <trkpt lat="45.44279" lon="4.62125">
        <ele>769.7</ele>
        <time>1970-01-01T00:35:21.000Z</time>
      </trkpt>
      <trkpt lat="45.44279" lon="4.62129">
        <ele>769.8</ele>
        <time>1970-01-01T00:35:22.000Z</time>
      </trkpt>
      <trkpt lat="45.44279" lon="4.62134">
        <ele>770</ele>
        <time>1970-01-01T00:35:23.000Z</time>
      </trkpt>
      <trkpt lat="45.44279" lon="4.62138">
        <ele>770.2</ele>
        <time>1970-01-01T00:35:24.000Z</time>
      </trkpt>
      <trkpt lat="45.44279" lon="4.62142">
        <ele>770.4</ele>
        <time>1970-01-01T00:35:25.000Z</time>
      </trkpt>
      <trkpt lat="45.44279" lon="4.62147">
        <ele>770.6</ele>
        <time>1970-01-01T00:35:26.000Z</time>
      </trkpt>
      <trkpt lat="45.44279" lon="4.62151">
        <ele>770.7</ele>
        <time>1970-01-01T00:35:27.000Z</time>
      </trkpt>
      <trkpt lat="45.44279" lon="4.62155">
        <ele>770.9</ele>
        <time>1970-01-01T00:35:28.000Z</time>
      </trkpt>
      <trkpt lat="45.44279" lon="4.62159">
        <ele>771.1</ele>
        <time>1970-01-01T00:35:29.000Z</time>
      </trkpt>
      <trkpt lat="45.44279" lon="4.62164">
        <ele>771.3</ele>
        <time>1970-01-01T00:35:30.000Z</time>
      </trkpt>
      <trkpt lat="45.44279" lon="4.62168">
        <ele>771.4</ele>
        <time>1970-01-01T00:35:31.000Z</time>
      </trkpt>
      <trkpt lat="45.4428" lon="4.62172">
        <ele>771.6</ele>
        <time>1970-01-01T00:35:32.000Z</time>
      </trkpt>
      <trkpt lat="45.4428" lon="4.62176">
        <ele>771.8</ele>
        <time>1970-01-01T00:35:33.000Z</time>
      </trkpt>
      <trkpt lat="45.4428" lon="4.62183">
        <ele>772</ele>
        <time>1970-01-01T00:35:35.000Z</time>
      </trkpt>
      <trkpt lat="45.4428" lon="4.62187">
        <ele>772.2</ele>
        <time>1970-01-01T00:35:36.000Z</time>
      </trkpt>
      <trkpt lat="45.44281" lon="4.62195">
        <ele>772.5</ele>
        <time>1970-01-01T00:35:38.000Z</time>
      </trkpt>
      <trkpt lat="45.44282" lon="4.62199">
        <ele>772.6</ele>
        <time>1970-01-01T00:35:39.000Z</time>
      </trkpt>
      <trkpt lat="45.44282" lon="4.62204">
        <ele>772.8</ele>
        <time>1970-01-01T00:35:40.000Z</time>
      </trkpt>
      <trkpt lat="45.44282" lon="4.62208">
        <ele>772.9</ele>
        <time>1970-01-01T00:35:41.000Z</time>
      </trkpt>
      <trkpt lat="45.44283" lon="4.62212">
        <ele>773.1</ele>
        <time>1970-01-01T00:35:42.000Z</time>
      </trkpt>
      <trkpt lat="45.44284" lon="4.6222">
        <ele>773.4</ele>
        <time>1970-01-01T00:35:44.000Z</time>
      </trkpt>
      <trkpt lat="45.44285" lon="4.62225">
        <ele>773.6</ele>
        <time>1970-01-01T00:35:45.000Z</time>
      </trkpt>
      <trkpt lat="45.44285" lon="4.62229">
        <ele>773.7</ele>
        <time>1970-01-01T00:35:46.000Z</time>
      </trkpt>
      <trkpt lat="45.44285" lon="4.62233">
        <ele>773.9</ele>
        <time>1970-01-01T00:35:47.000Z</time>
      </trkpt>
      <trkpt lat="45.44286" lon="4.62241">
        <ele>774.2</ele>
        <time>1970-01-01T00:35:49.000Z</time>
      </trkpt>
      <trkpt lat="45.44287" lon="4.62248">
        <ele>774.5</ele>
        <time>1970-01-01T00:35:51.000Z</time>
      </trkpt>
      <trkpt lat="45.44288" lon="4.62251">
        <ele>774.6</ele>
        <time>1970-01-01T00:35:52.000Z</time>
      </trkpt>
      <trkpt lat="45.44289" lon="4.62255">
        <ele>774.8</ele>
        <time>1970-01-01T00:35:53.000Z</time>
      </trkpt>
      <trkpt lat="45.44289" lon="4.62259">
        <ele>774.9</ele>
        <time>1970-01-01T00:35:54.000Z</time>
      </trkpt>
      <trkpt lat="45.44289" lon="4.62263">
        <ele>775.1</ele>
        <time>1970-01-01T00:35:55.000Z</time>
      </trkpt>
      <trkpt lat="45.4429" lon="4.62267">
        <ele>775.3</ele>
        <time>1970-01-01T00:35:56.000Z</time>
      </trkpt>
      <trkpt lat="45.4429" lon="4.62271">
        <ele>775.4</ele>
        <time>1970-01-01T00:35:57.000Z</time>
      </trkpt>
      <trkpt lat="45.44291" lon="4.62276">
        <ele>775.6</ele>
        <time>1970-01-01T00:35:58.000Z</time>
      </trkpt>
      <trkpt lat="45.44292" lon="4.62283">
        <ele>775.9</ele>
        <time>1970-01-01T00:36:00.000Z</time>
      </trkpt>
      <trkpt lat="45.44293" lon="4.62287">
        <ele>776.1</ele>
        <time>1970-01-01T00:36:01.000Z</time>
      </trkpt>
      <trkpt lat="45.44293" lon="4.62291">
        <ele>776.3</ele>
        <time>1970-01-01T00:36:02.000Z</time>
      </trkpt>
      <trkpt lat="45.44294" lon="4.62295">
        <ele>776.5</ele>
        <time>1970-01-01T00:36:03.000Z</time>
      </trkpt>
      <trkpt lat="45.44295" lon="4.62299">
        <ele>776.7</ele>
        <time>1970-01-01T00:36:04.000Z</time>
      </trkpt>
      <trkpt lat="45.44295" lon="4.62304">
        <ele>776.9</ele>
        <time>1970-01-01T00:36:05.000Z</time>
      </trkpt>
      <trkpt lat="45.44296" lon="4.62308">
        <ele>777.1</ele>
        <time>1970-01-01T00:36:06.000Z</time>
      </trkpt>
      <trkpt lat="45.44297" lon="4.62315">
        <ele>777.4</ele>
        <time>1970-01-01T00:36:08.000Z</time>
      </trkpt>
      <trkpt lat="45.44297" lon="4.6232">
        <ele>777.7</ele>
        <time>1970-01-01T00:36:09.000Z</time>
      </trkpt>
      <trkpt lat="45.44298" lon="4.62327">
        <ele>778</ele>
        <time>1970-01-01T00:36:11.000Z</time>
      </trkpt>
      <trkpt lat="45.44299" lon="4.62331">
        <ele>778.2</ele>
        <time>1970-01-01T00:36:12.000Z</time>
      </trkpt>
      <trkpt lat="45.44299" lon="4.62335">
        <ele>778.3</ele>
        <time>1970-01-01T00:36:13.000Z</time>
      </trkpt>
      <trkpt lat="45.443" lon="4.62339">
        <ele>778.5</ele>
        <time>1970-01-01T00:36:14.000Z</time>
      </trkpt>
      <trkpt lat="45.44301" lon="4.62344">
        <ele>778.7</ele>
        <time>1970-01-01T00:36:15.000Z</time>
      </trkpt>
      <trkpt lat="45.44302" lon="4.62348">
        <ele>778.9</ele>
        <time>1970-01-01T00:36:16.000Z</time>
      </trkpt>
      <trkpt lat="45.44302" lon="4.62352">
        <ele>779.1</ele>
        <time>1970-01-01T00:36:17.000Z</time>
      </trkpt>
      <trkpt lat="45.44302" lon="4.62357">
        <ele>779.3</ele>
        <time>1970-01-01T00:36:18.000Z</time>
      </trkpt>
      <trkpt lat="45.44303" lon="4.62361">
        <ele>779.5</ele>
        <time>1970-01-01T00:36:19.000Z</time>
      </trkpt>
      <trkpt lat="45.44303" lon="4.62365">
        <ele>779.6</ele>
        <time>1970-01-01T00:36:20.000Z</time>
      </trkpt>
      <trkpt lat="45.44304" lon="4.62372">
        <ele>779.9</ele>
        <time>1970-01-01T00:36:22.000Z</time>
      </trkpt>
      <trkpt lat="45.44306" lon="4.6238">
        <ele>780.1</ele>
        <time>1970-01-01T00:36:24.000Z</time>
      </trkpt>
      <trkpt lat="45.44307" lon="4.62384">
        <ele>780.3</ele>
        <time>1970-01-01T00:36:25.000Z</time>
      </trkpt>
      <trkpt lat="45.44307" lon="4.62388">
        <ele>780.4</ele>
        <time>1970-01-01T00:36:26.000Z</time>
      </trkpt>
      <trkpt lat="45.44308" lon="4.62392">
        <ele>780.6</ele>
        <time>1970-01-01T00:36:27.000Z</time>
      </trkpt>
      <trkpt lat="45.44309" lon="4.62396">
        <ele>780.7</ele>
        <time>1970-01-01T00:36:28.000Z</time>
      </trkpt>
      <trkpt lat="45.44309" lon="4.62401">
        <ele>780.9</ele>
        <time>1970-01-01T00:36:29.000Z</time>
      </trkpt>
      <trkpt lat="45.4431" lon="4.62405">
        <ele>781</ele>
        <time>1970-01-01T00:36:30.000Z</time>
      </trkpt>
      <trkpt lat="45.4431" lon="4.6241">
        <ele>781.2</ele>
        <time>1970-01-01T00:36:31.000Z</time>
      </trkpt>
      <trkpt lat="45.44311" lon="4.62415">
        <ele>781.4</ele>
        <time>1970-01-01T00:36:32.000Z</time>
      </trkpt>
      <trkpt lat="45.44312" lon="4.62419">
        <ele>781.8</ele>
        <time>1970-01-01T00:36:33.000Z</time>
      </trkpt>
      <trkpt lat="45.44313" lon="4.62424">
        <ele>782.1</ele>
        <time>1970-01-01T00:36:34.000Z</time>
      </trkpt>
      <trkpt lat="45.44314" lon="4.62428">
        <ele>782.3</ele>
        <time>1970-01-01T00:36:35.000Z</time>
      </trkpt>
      <trkpt lat="45.44314" lon="4.62432">
        <ele>782.5</ele>
        <time>1970-01-01T00:36:36.000Z</time>
      </trkpt>
      <trkpt lat="45.44315" lon="4.6244">
        <ele>782.8</ele>
        <time>1970-01-01T00:36:38.000Z</time>
      </trkpt>
      <trkpt lat="45.44316" lon="4.62443">
        <ele>782.9</ele>
        <time>1970-01-01T00:36:39.000Z</time>
      </trkpt>
      <trkpt lat="45.44318" lon="4.62447">
        <ele>783.1</ele>
        <time>1970-01-01T00:36:40.000Z</time>
      </trkpt>
      <trkpt lat="45.44319" lon="4.62451">
        <ele>783.2</ele>
        <time>1970-01-01T00:36:41.000Z</time>
      </trkpt>
      <trkpt lat="45.4432" lon="4.62455">
        <ele>783.4</ele>
        <time>1970-01-01T00:36:42.000Z</time>
      </trkpt>
      <trkpt lat="45.44322" lon="4.62463">
        <ele>783.7</ele>
        <time>1970-01-01T00:36:44.000Z</time>
      </trkpt>
      <trkpt lat="45.44323" lon="4.62467">
        <ele>783.9</ele>
        <time>1970-01-01T00:36:45.000Z</time>
      </trkpt>
      <trkpt lat="45.44324" lon="4.62472">
        <ele>784.1</ele>
        <time>1970-01-01T00:36:46.000Z</time>
      </trkpt>
      <trkpt lat="45.44325" lon="4.62475">
        <ele>784.4</ele>
        <time>1970-01-01T00:36:47.000Z</time>
      </trkpt>
      <trkpt lat="45.44326" lon="4.62479">
        <ele>784.8</ele>
        <time>1970-01-01T00:36:48.000Z</time>
      </trkpt>
      <trkpt lat="45.44328" lon="4.62483">
        <ele>785.1</ele>
        <time>1970-01-01T00:36:49.000Z</time>
      </trkpt>
      <trkpt lat="45.44329" lon="4.62488">
        <ele>785.3</ele>
        <time>1970-01-01T00:36:50.000Z</time>
      </trkpt>
      <trkpt lat="45.4433" lon="4.62491">
        <ele>785.5</ele>
        <time>1970-01-01T00:36:51.000Z</time>
      </trkpt>
      <trkpt lat="45.44332" lon="4.62495">
        <ele>785.8</ele>
        <time>1970-01-01T00:36:52.000Z</time>
      </trkpt>
      <trkpt lat="45.44333" lon="4.62499">
        <ele>785.9</ele>
        <time>1970-01-01T00:36:53.000Z</time>
      </trkpt>
      <trkpt lat="45.44335" lon="4.62506">
        <ele>786.1</ele>
        <time>1970-01-01T00:36:55.000Z</time>
      </trkpt>
      <trkpt lat="45.44336" lon="4.62509">
        <ele>786.2</ele>
        <time>1970-01-01T00:36:56.000Z</time>
      </trkpt>
      <trkpt lat="45.44337" lon="4.62514">
        <ele>786.4</ele>
        <time>1970-01-01T00:36:57.000Z</time>
      </trkpt>
      <trkpt lat="45.44338" lon="4.62518">
        <ele>786.5</ele>
        <time>1970-01-01T00:36:58.000Z</time>
      </trkpt>
      <trkpt lat="45.4434" lon="4.62523">
        <ele>786.6</ele>
        <time>1970-01-01T00:36:59.000Z</time>
      </trkpt>
      <trkpt lat="45.4434" lon="4.62527">
        <ele>786.7</ele>
        <time>1970-01-01T00:37:00.000Z</time>
      </trkpt>
      <trkpt lat="45.44341" lon="4.6253">
        <ele>786.8</ele>
        <time>1970-01-01T00:37:01.000Z</time>
      </trkpt>
      <trkpt lat="45.44343" lon="4.62537">
        <ele>787</ele>
        <time>1970-01-01T00:37:03.000Z</time>
      </trkpt>
      <trkpt lat="45.44344" lon="4.62541">
        <ele>787.2</ele>
        <time>1970-01-01T00:37:04.000Z</time>
      </trkpt>
      <trkpt lat="45.44345" lon="4.62545">
        <ele>787.3</ele>
        <time>1970-01-01T00:37:05.000Z</time>
      </trkpt>
      <trkpt lat="45.44346" lon="4.62549">
        <ele>787.4</ele>
        <time>1970-01-01T00:37:06.000Z</time>
      </trkpt>
      <trkpt lat="45.44347" lon="4.62553">
        <ele>787.5</ele>
        <time>1970-01-01T00:37:07.000Z</time>
      </trkpt>
      <trkpt lat="45.44348" lon="4.62558">
        <ele>787.7</ele>
        <time>1970-01-01T00:37:08.000Z</time>
      </trkpt>
      <trkpt lat="45.4435" lon="4.62563">
        <ele>787.8</ele>
        <time>1970-01-01T00:37:09.000Z</time>
      </trkpt>
      <trkpt lat="45.44351" lon="4.62567">
        <ele>788</ele>
        <time>1970-01-01T00:37:10.000Z</time>
      </trkpt>
      <trkpt lat="45.44353" lon="4.62571">
        <ele>788.2</ele>
        <time>1970-01-01T00:37:11.000Z</time>
      </trkpt>
      <trkpt lat="45.44354" lon="4.62576">
        <ele>788.3</ele>
        <time>1970-01-01T00:37:12.000Z</time>
      </trkpt>
      <trkpt lat="45.44355" lon="4.6258">
        <ele>788.5</ele>
        <time>1970-01-01T00:37:13.000Z</time>
      </trkpt>
      <trkpt lat="45.44356" lon="4.62585">
        <ele>788.6</ele>
        <time>1970-01-01T00:37:14.000Z</time>
      </trkpt>
      <trkpt lat="45.44357" lon="4.62589">
        <ele>788.8</ele>
        <time>1970-01-01T00:37:15.000Z</time>
      </trkpt>
      <trkpt lat="45.44358" lon="4.62593">
        <ele>788.9</ele>
        <time>1970-01-01T00:37:16.000Z</time>
      </trkpt>
      <trkpt lat="45.44359" lon="4.62598">
        <ele>789</ele>
        <time>1970-01-01T00:37:17.000Z</time>
      </trkpt>
      <trkpt lat="45.4436" lon="4.62604">
        <ele>789.1</ele>
        <time>1970-01-01T00:37:18.000Z</time>
      </trkpt>
      <trkpt lat="45.44362" lon="4.62609">
        <ele>789.2</ele>
        <time>1970-01-01T00:37:19.000Z</time>
      </trkpt>
      <trkpt lat="45.44363" lon="4.62614">
        <ele>789.4</ele>
        <time>1970-01-01T00:37:20.000Z</time>
      </trkpt>
      <trkpt lat="45.44364" lon="4.62619">
        <ele>789.5</ele>
        <time>1970-01-01T00:37:21.000Z</time>
      </trkpt>
      <trkpt lat="45.44366" lon="4.62624">
        <ele>789.6</ele>
        <time>1970-01-01T00:37:22.000Z</time>
      </trkpt>
      <trkpt lat="45.44367" lon="4.62629">
        <ele>789.7</ele>
        <time>1970-01-01T00:37:23.000Z</time>
      </trkpt>
      <trkpt lat="45.44369" lon="4.62634">
        <ele>789.8</ele>
        <time>1970-01-01T00:37:24.000Z</time>
      </trkpt>
      <trkpt lat="45.4437" lon="4.6264">
        <ele>790</ele>
        <time>1970-01-01T00:37:25.000Z</time>
      </trkpt>
      <trkpt lat="45.44371" lon="4.62644">
        <ele>790.1</ele>
        <time>1970-01-01T00:37:26.000Z</time>
      </trkpt>
      <trkpt lat="45.44373" lon="4.6265">
        <ele>790.2</ele>
        <time>1970-01-01T00:37:27.000Z</time>
      </trkpt>
      <trkpt lat="45.44374" lon="4.62655">
        <ele>790.3</ele>
        <time>1970-01-01T00:37:28.000Z</time>
      </trkpt>
      <trkpt lat="45.44375" lon="4.62659">
        <ele>790.4</ele>
        <time>1970-01-01T00:37:29.000Z</time>
      </trkpt>
      <trkpt lat="45.44376" lon="4.62663">
        <ele>790.5</ele>
        <time>1970-01-01T00:37:30.000Z</time>
      </trkpt>
      <trkpt lat="45.44377" lon="4.62668">
        <ele>790.7</ele>
        <time>1970-01-01T00:37:31.000Z</time>
      </trkpt>
      <trkpt lat="45.44378" lon="4.62673">
        <ele>790.8</ele>
        <time>1970-01-01T00:37:32.000Z</time>
      </trkpt>
      <trkpt lat="45.44379" lon="4.62678">
        <ele>790.9</ele>
        <time>1970-01-01T00:37:33.000Z</time>
      </trkpt>
      <trkpt lat="45.4438" lon="4.62682">
        <ele>791</ele>
        <time>1970-01-01T00:37:34.000Z</time>
      </trkpt>
      <trkpt lat="45.44382" lon="4.62687">
        <ele>791.1</ele>
        <time>1970-01-01T00:37:35.000Z</time>
      </trkpt>
      <trkpt lat="45.44383" lon="4.62692">
        <ele>791.2</ele>
        <time>1970-01-01T00:37:36.000Z</time>
      </trkpt>
      <trkpt lat="45.44383" lon="4.62696">
        <ele>791.3</ele>
        <time>1970-01-01T00:37:37.000Z</time>
      </trkpt>
      <trkpt lat="45.44384" lon="4.627">
        <ele>791.4</ele>
        <time>1970-01-01T00:37:38.000Z</time>
      </trkpt>
      <trkpt lat="45.44385" lon="4.62705">
        <ele>791.5</ele>
        <time>1970-01-01T00:37:39.000Z</time>
      </trkpt>
      <trkpt lat="45.44386" lon="4.62709">
        <ele>791.6</ele>
        <time>1970-01-01T00:37:40.000Z</time>
      </trkpt>
      <trkpt lat="45.44387" lon="4.62714">
        <ele>791.7</ele>
        <time>1970-01-01T00:37:41.000Z</time>
      </trkpt>
      <trkpt lat="45.44388" lon="4.62719">
        <ele>791.9</ele>
        <time>1970-01-01T00:37:42.000Z</time>
      </trkpt>
      <trkpt lat="45.44389" lon="4.62723">
        <ele>792</ele>
        <time>1970-01-01T00:37:43.000Z</time>
      </trkpt>
      <trkpt lat="45.4439" lon="4.62728">
        <ele>792.2</ele>
        <time>1970-01-01T00:37:44.000Z</time>
      </trkpt>
      <trkpt lat="45.44391" lon="4.62733">
        <ele>792.4</ele>
        <time>1970-01-01T00:37:45.000Z</time>
      </trkpt>
      <trkpt lat="45.44392" lon="4.62738">
        <ele>792.6</ele>
        <time>1970-01-01T00:37:46.000Z</time>
      </trkpt>
      <trkpt lat="45.44394" lon="4.62744">
        <ele>792.7</ele>
        <time>1970-01-01T00:37:47.000Z</time>
      </trkpt>
      <trkpt lat="45.44395" lon="4.62748">
        <ele>792.9</ele>
        <time>1970-01-01T00:37:48.000Z</time>
      </trkpt>
      <trkpt lat="45.44397" lon="4.62753">
        <ele>793.1</ele>
        <time>1970-01-01T00:37:49.000Z</time>
      </trkpt>
      <trkpt lat="45.44398" lon="4.62758">
        <ele>793.3</ele>
        <time>1970-01-01T00:37:50.000Z</time>
      </trkpt>
      <trkpt lat="45.444" lon="4.62763">
        <ele>793.5</ele>
        <time>1970-01-01T00:37:51.000Z</time>
      </trkpt>
      <trkpt lat="45.44402" lon="4.62767">
        <ele>793.6</ele>
        <time>1970-01-01T00:37:52.000Z</time>
      </trkpt>
      <trkpt lat="45.44404" lon="4.62772">
        <ele>793.8</ele>
        <time>1970-01-01T00:37:53.000Z</time>
      </trkpt>
      <trkpt lat="45.44406" lon="4.62777">
        <ele>794</ele>
        <time>1970-01-01T00:37:54.000Z</time>
      </trkpt>
      <trkpt lat="45.44408" lon="4.62781">
        <ele>794.1</ele>
        <time>1970-01-01T00:37:55.000Z</time>
      </trkpt>
      <trkpt lat="45.4441" lon="4.62785">
        <ele>794.2</ele>
        <time>1970-01-01T00:37:56.000Z</time>
      </trkpt>
      <trkpt lat="45.44412" lon="4.62789">
        <ele>794.4</ele>
        <time>1970-01-01T00:37:57.000Z</time>
      </trkpt>
      <trkpt lat="45.44414" lon="4.62793">
        <ele>794.5</ele>
        <time>1970-01-01T00:37:58.000Z</time>
      </trkpt>
      <trkpt lat="45.44417" lon="4.62796">
        <ele>794.7</ele>
        <time>1970-01-01T00:37:59.000Z</time>
      </trkpt>
      <trkpt lat="45.44419" lon="4.628">
        <ele>794.8</ele>
        <time>1970-01-01T00:38:00.000Z</time>
      </trkpt>
      <trkpt lat="45.44422" lon="4.62803">
        <ele>795</ele>
        <time>1970-01-01T00:38:01.000Z</time>
      </trkpt>
      <trkpt lat="45.44425" lon="4.62806">
        <ele>795.1</ele>
        <time>1970-01-01T00:38:02.000Z</time>
      </trkpt>
      <trkpt lat="45.44428" lon="4.62808">
        <ele>795.3</ele>
        <time>1970-01-01T00:38:03.000Z</time>
      </trkpt>
      <trkpt lat="45.44432" lon="4.62811">
        <ele>795.4</ele>
        <time>1970-01-01T00:38:04.000Z</time>
      </trkpt>
      <trkpt lat="45.44435" lon="4.62813">
        <ele>795.6</ele>
        <time>1970-01-01T00:38:05.000Z</time>
      </trkpt>
      <trkpt lat="45.44438" lon="4.62815">
        <ele>795.7</ele>
        <time>1970-01-01T00:38:06.000Z</time>
      </trkpt>
      <trkpt lat="45.44442" lon="4.62818">
        <ele>795.9</ele>
        <time>1970-01-01T00:38:07.000Z</time>
      </trkpt>
      <trkpt lat="45.44444" lon="4.62819">
        <ele>796</ele>
        <time>1970-01-01T00:38:08.000Z</time>
      </trkpt>
      <trkpt lat="45.44447" lon="4.62821">
        <ele>796.1</ele>
        <time>1970-01-01T00:38:09.000Z</time>
      </trkpt>
      <trkpt lat="45.4445" lon="4.62823">
        <ele>796.3</ele>
        <time>1970-01-01T00:38:10.000Z</time>
      </trkpt>
      <trkpt lat="45.44454" lon="4.62824">
        <ele>796.4</ele>
        <time>1970-01-01T00:38:11.000Z</time>
      </trkpt>
      <trkpt lat="45.44457" lon="4.62826">
        <ele>796.5</ele>
        <time>1970-01-01T00:38:12.000Z</time>
      </trkpt>
      <trkpt lat="45.44461" lon="4.62828">
        <ele>796.7</ele>
        <time>1970-01-01T00:38:13.000Z</time>
      </trkpt>
      <trkpt lat="45.44465" lon="4.6283">
        <ele>796.8</ele>
        <time>1970-01-01T00:38:14.000Z</time>
      </trkpt>
      <trkpt lat="45.44468" lon="4.62831">
        <ele>796.9</ele>
        <time>1970-01-01T00:38:15.000Z</time>
      </trkpt>
      <trkpt lat="45.44472" lon="4.62833">
        <ele>797</ele>
        <time>1970-01-01T00:38:16.000Z</time>
      </trkpt>
      <trkpt lat="45.44475" lon="4.62836">
        <ele>797.1</ele>
        <time>1970-01-01T00:38:17.000Z</time>
      </trkpt>
      <trkpt lat="45.44479" lon="4.62837">
        <ele>797.3</ele>
        <time>1970-01-01T00:38:18.000Z</time>
      </trkpt>
      <trkpt lat="45.44483" lon="4.62839">
        <ele>797.4</ele>
        <time>1970-01-01T00:38:19.000Z</time>
      </trkpt>
      <trkpt lat="45.44487" lon="4.62841">
        <ele>797.5</ele>
        <time>1970-01-01T00:38:20.000Z</time>
      </trkpt>
      <trkpt lat="45.4449" lon="4.62844">
        <ele>797.6</ele>
        <time>1970-01-01T00:38:21.000Z</time>
      </trkpt>
      <trkpt lat="45.44493" lon="4.62846">
        <ele>797.7</ele>
        <time>1970-01-01T00:38:22.000Z</time>
      </trkpt>
      <trkpt lat="45.44497" lon="4.62848">
        <ele>797.9</ele>
        <time>1970-01-01T00:38:23.000Z</time>
      </trkpt>
      <trkpt lat="45.44501" lon="4.6285">
        <ele>798</ele>
        <time>1970-01-01T00:38:24.000Z</time>
      </trkpt>
      <trkpt lat="45.44504" lon="4.62852">
        <ele>798.1</ele>
        <time>1970-01-01T00:38:25.000Z</time>
      </trkpt>
      <trkpt lat="45.44508" lon="4.62854">
        <ele>798.2</ele>
        <time>1970-01-01T00:38:26.000Z</time>
      </trkpt>
      <trkpt lat="45.44511" lon="4.62857">
        <ele>798.3</ele>
        <time>1970-01-01T00:38:27.000Z</time>
      </trkpt>
      <trkpt lat="45.44514" lon="4.6286">
        <ele>798.4</ele>
        <time>1970-01-01T00:38:28.000Z</time>
      </trkpt>
      <trkpt lat="45.44518" lon="4.62862">
        <ele>798.6</ele>
        <time>1970-01-01T00:38:29.000Z</time>
      </trkpt>
      <trkpt lat="45.44522" lon="4.62864">
        <ele>798.7</ele>
        <time>1970-01-01T00:38:30.000Z</time>
      </trkpt>
      <trkpt lat="45.44525" lon="4.62866">
        <ele>798.8</ele>
        <time>1970-01-01T00:38:31.000Z</time>
      </trkpt>
      <trkpt lat="45.44529" lon="4.62869">
        <ele>798.9</ele>
        <time>1970-01-01T00:38:32.000Z</time>
      </trkpt>
      <trkpt lat="45.44533" lon="4.62872">
        <ele>799</ele>
        <time>1970-01-01T00:38:33.000Z</time>
      </trkpt>
      <trkpt lat="45.44537" lon="4.62875">
        <ele>799.2</ele>
        <time>1970-01-01T00:38:34.000Z</time>
      </trkpt>
      <trkpt lat="45.44541" lon="4.62877">
        <ele>799.3</ele>
        <time>1970-01-01T00:38:35.000Z</time>
      </trkpt>
      <trkpt lat="45.44544" lon="4.6288">
        <ele>799.4</ele>
        <time>1970-01-01T00:38:36.000Z</time>
      </trkpt>
      <trkpt lat="45.44548" lon="4.62883">
        <ele>799.5</ele>
        <time>1970-01-01T00:38:37.000Z</time>
      </trkpt>
      <trkpt lat="45.44551" lon="4.62886">
        <ele>799.7</ele>
        <time>1970-01-01T00:38:38.000Z</time>
      </trkpt>
      <trkpt lat="45.44555" lon="4.62891">
        <ele>799.8</ele>
        <time>1970-01-01T00:38:39.000Z</time>
      </trkpt>
      <trkpt lat="45.44558" lon="4.62894">
        <ele>799.9</ele>
        <time>1970-01-01T00:38:40.000Z</time>
      </trkpt>
      <trkpt lat="45.44561" lon="4.62898">
        <ele>800</ele>
        <time>1970-01-01T00:38:41.000Z</time>
      </trkpt>
      <trkpt lat="45.44564" lon="4.62902">
        <ele>800.2</ele>
        <time>1970-01-01T00:38:42.000Z</time>
      </trkpt>
      <trkpt lat="45.44566" lon="4.62905">
        <ele>800.3</ele>
        <time>1970-01-01T00:38:43.000Z</time>
      </trkpt>
      <trkpt lat="45.44569" lon="4.62909">
        <ele>800.4</ele>
        <time>1970-01-01T00:38:44.000Z</time>
      </trkpt>
      <trkpt lat="45.44572" lon="4.62913">
        <ele>800.5</ele>
        <time>1970-01-01T00:38:45.000Z</time>
      </trkpt>
      <trkpt lat="45.44574" lon="4.62917">
        <ele>800.6</ele>
        <time>1970-01-01T00:38:46.000Z</time>
      </trkpt>
      <trkpt lat="45.44576" lon="4.62922">
        <ele>800.7</ele>
        <time>1970-01-01T00:38:47.000Z</time>
      </trkpt>
      <trkpt lat="45.44579" lon="4.62926">
        <ele>800.9</ele>
        <time>1970-01-01T00:38:48.000Z</time>
      </trkpt>
      <trkpt lat="45.44581" lon="4.62931">
        <ele>801</ele>
        <time>1970-01-01T00:38:49.000Z</time>
      </trkpt>
      <trkpt lat="45.44583" lon="4.62936">
        <ele>801.1</ele>
        <time>1970-01-01T00:38:50.000Z</time>
      </trkpt>
      <trkpt lat="45.44585" lon="4.62941">
        <ele>801.2</ele>
        <time>1970-01-01T00:38:51.000Z</time>
      </trkpt>
      <trkpt lat="45.44587" lon="4.62947">
        <ele>801.4</ele>
        <time>1970-01-01T00:38:52.000Z</time>
      </trkpt>
      <trkpt lat="45.44589" lon="4.62953">
        <ele>801.5</ele>
        <time>1970-01-01T00:38:53.000Z</time>
      </trkpt>
      <trkpt lat="45.4459" lon="4.62958">
        <ele>801.6</ele>
        <time>1970-01-01T00:38:54.000Z</time>
      </trkpt>
      <trkpt lat="45.44592" lon="4.62965">
        <ele>801.7</ele>
        <time>1970-01-01T00:38:55.000Z</time>
      </trkpt>
      <trkpt lat="45.44593" lon="4.62971">
        <ele>801.9</ele>
        <time>1970-01-01T00:38:56.000Z</time>
      </trkpt>
      <trkpt lat="45.44594" lon="4.62977">
        <ele>802</ele>
        <time>1970-01-01T00:38:57.000Z</time>
      </trkpt>
      <trkpt lat="45.44595" lon="4.62982">
        <ele>802.1</ele>
        <time>1970-01-01T00:38:58.000Z</time>
      </trkpt>
      <trkpt lat="45.44595" lon="4.62988">
        <ele>802.2</ele>
        <time>1970-01-01T00:38:59.000Z</time>
      </trkpt>
      <trkpt lat="45.44596" lon="4.62994">
        <ele>802.4</ele>
        <time>1970-01-01T00:39:00.000Z</time>
      </trkpt>
      <trkpt lat="45.44596" lon="4.62999">
        <ele>802.5</ele>
        <time>1970-01-01T00:39:01.000Z</time>
      </trkpt>
      <trkpt lat="45.44596" lon="4.63005">
        <ele>802.6</ele>
        <time>1970-01-01T00:39:02.000Z</time>
      </trkpt>
      <trkpt lat="45.44597" lon="4.63011">
        <ele>802.7</ele>
        <time>1970-01-01T00:39:03.000Z</time>
      </trkpt>
      <trkpt lat="45.44597" lon="4.63017">
        <ele>802.9</ele>
        <time>1970-01-01T00:39:04.000Z</time>
      </trkpt>
      <trkpt lat="45.44597" lon="4.63022">
        <ele>803</ele>
        <time>1970-01-01T00:39:05.000Z</time>
      </trkpt>
      <trkpt lat="45.44597" lon="4.63028">
        <ele>803.1</ele>
        <time>1970-01-01T00:39:06.000Z</time>
      </trkpt>
      <trkpt lat="45.44596" lon="4.63034">
        <ele>803.3</ele>
        <time>1970-01-01T00:39:07.000Z</time>
      </trkpt>
      <trkpt lat="45.44596" lon="4.6304">
        <ele>803.4</ele>
        <time>1970-01-01T00:39:08.000Z</time>
      </trkpt>
      <trkpt lat="45.44595" lon="4.63045">
        <ele>803.5</ele>
        <time>1970-01-01T00:39:09.000Z</time>
      </trkpt>
      <trkpt lat="45.44595" lon="4.63051">
        <ele>803.6</ele>
        <time>1970-01-01T00:39:10.000Z</time>
      </trkpt>
      <trkpt lat="45.44594" lon="4.63056">
        <ele>803.8</ele>
        <time>1970-01-01T00:39:11.000Z</time>
      </trkpt>
      <trkpt lat="45.44593" lon="4.63061">
        <ele>803.9</ele>
        <time>1970-01-01T00:39:12.000Z</time>
      </trkpt>
      <trkpt lat="45.44591" lon="4.63066">
        <ele>804.1</ele>
        <time>1970-01-01T00:39:13.000Z</time>
      </trkpt>
      <trkpt lat="45.4459" lon="4.63071">
        <ele>804.2</ele>
        <time>1970-01-01T00:39:14.000Z</time>
      </trkpt>
      <trkpt lat="45.44588" lon="4.63077">
        <ele>804.4</ele>
        <time>1970-01-01T00:39:15.000Z</time>
      </trkpt>
      <trkpt lat="45.44586" lon="4.63082">
        <ele>804.5</ele>
        <time>1970-01-01T00:39:16.000Z</time>
      </trkpt>
      <trkpt lat="45.44585" lon="4.63086">
        <ele>804.7</ele>
        <time>1970-01-01T00:39:17.000Z</time>
      </trkpt>
      <trkpt lat="45.44583" lon="4.63091">
        <ele>804.8</ele>
        <time>1970-01-01T00:39:18.000Z</time>
      </trkpt>
      <trkpt lat="45.44581" lon="4.63096">
        <ele>805</ele>
        <time>1970-01-01T00:39:19.000Z</time>
      </trkpt>
      <trkpt lat="45.44579" lon="4.63101">
        <ele>805.2</ele>
        <time>1970-01-01T00:39:20.000Z</time>
      </trkpt>
      <trkpt lat="45.44576" lon="4.63105">
        <ele>805.3</ele>
        <time>1970-01-01T00:39:21.000Z</time>
      </trkpt>
      <trkpt lat="45.44574" lon="4.63109">
        <ele>805.5</ele>
        <time>1970-01-01T00:39:22.000Z</time>
      </trkpt>
      <trkpt lat="45.44571" lon="4.63112">
        <ele>805.6</ele>
        <time>1970-01-01T00:39:23.000Z</time>
      </trkpt>
      <trkpt lat="45.44569" lon="4.63117">
        <ele>805.8</ele>
        <time>1970-01-01T00:39:24.000Z</time>
      </trkpt>
      <trkpt lat="45.44566" lon="4.63121">
        <ele>805.9</ele>
        <time>1970-01-01T00:39:25.000Z</time>
      </trkpt>
      <trkpt lat="45.44563" lon="4.63125">
        <ele>806.1</ele>
        <time>1970-01-01T00:39:26.000Z</time>
      </trkpt>
      <trkpt lat="45.4456" lon="4.6313">
        <ele>806.3</ele>
        <time>1970-01-01T00:39:27.000Z</time>
      </trkpt>
      <trkpt lat="45.44557" lon="4.63134">
        <ele>806.4</ele>
        <time>1970-01-01T00:39:28.000Z</time>
      </trkpt>
      <trkpt lat="45.44554" lon="4.63138">
        <ele>806.6</ele>
        <time>1970-01-01T00:39:29.000Z</time>
      </trkpt>
      <trkpt lat="45.44552" lon="4.63142">
        <ele>806.8</ele>
        <time>1970-01-01T00:39:30.000Z</time>
      </trkpt>
      <trkpt lat="45.44549" lon="4.63146">
        <ele>807</ele>
        <time>1970-01-01T00:39:31.000Z</time>
      </trkpt>
      <trkpt lat="45.44546" lon="4.63151">
        <ele>807.2</ele>
        <time>1970-01-01T00:39:32.000Z</time>
      </trkpt>
      <trkpt lat="45.44544" lon="4.63155">
        <ele>807.3</ele>
        <time>1970-01-01T00:39:33.000Z</time>
      </trkpt>
      <trkpt lat="45.44541" lon="4.63159">
        <ele>807.5</ele>
        <time>1970-01-01T00:39:34.000Z</time>
      </trkpt>
      <trkpt lat="45.44538" lon="4.63163">
        <ele>807.7</ele>
        <time>1970-01-01T00:39:35.000Z</time>
      </trkpt>
      <trkpt lat="45.44536" lon="4.63167">
        <ele>807.8</ele>
        <time>1970-01-01T00:39:36.000Z</time>
      </trkpt>
      <trkpt lat="45.44534" lon="4.63171">
        <ele>808</ele>
        <time>1970-01-01T00:39:37.000Z</time>
      </trkpt>
      <trkpt lat="45.44532" lon="4.63175">
        <ele>808.1</ele>
        <time>1970-01-01T00:39:38.000Z</time>
      </trkpt>
      <trkpt lat="45.4453" lon="4.63179">
        <ele>808.3</ele>
        <time>1970-01-01T00:39:39.000Z</time>
      </trkpt>
      <trkpt lat="45.44528" lon="4.63183">
        <ele>808.4</ele>
        <time>1970-01-01T00:39:40.000Z</time>
      </trkpt>
      <trkpt lat="45.44526" lon="4.63188">
        <ele>808.6</ele>
        <time>1970-01-01T00:39:41.000Z</time>
      </trkpt>
      <trkpt lat="45.44524" lon="4.63192">
        <ele>808.8</ele>
        <time>1970-01-01T00:39:42.000Z</time>
      </trkpt>
      <trkpt lat="45.44523" lon="4.63197">
        <ele>808.9</ele>
        <time>1970-01-01T00:39:43.000Z</time>
      </trkpt>
      <trkpt lat="45.44522" lon="4.63201">
        <ele>809</ele>
        <time>1970-01-01T00:39:44.000Z</time>
      </trkpt>
      <trkpt lat="45.44521" lon="4.63206">
        <ele>809.2</ele>
        <time>1970-01-01T00:39:45.000Z</time>
      </trkpt>
      <trkpt lat="45.4452" lon="4.6321">
        <ele>809.3</ele>
        <time>1970-01-01T00:39:46.000Z</time>
      </trkpt>
      <trkpt lat="45.44519" lon="4.63215">
        <ele>809.5</ele>
        <time>1970-01-01T00:39:47.000Z</time>
      </trkpt>
      <trkpt lat="45.44518" lon="4.6322">
        <ele>809.6</ele>
        <time>1970-01-01T00:39:48.000Z</time>
      </trkpt>
      <trkpt lat="45.44518" lon="4.63224">
        <ele>811.7</ele>
        <time>1970-01-01T00:39:49.000Z</time>
      </trkpt>
      <trkpt lat="45.44517" lon="4.63229">
        <ele>812.3</ele>
        <time>1970-01-01T00:39:50.000Z</time>
      </trkpt>
      <trkpt lat="45.44517" lon="4.63233">
        <ele>812.7</ele>
        <time>1970-01-01T00:39:51.000Z</time>
      </trkpt>
      <trkpt lat="45.44516" lon="4.63236">
        <ele>813.2</ele>
        <time>1970-01-01T00:39:52.000Z</time>
      </trkpt>
      <trkpt lat="45.44511" lon="4.63236">
        <ele>814</ele>
        <time>1970-01-01T00:39:54.000Z</time>
      </trkpt>
      <trkpt lat="45.44507" lon="4.63236">
        <ele>814.7</ele>
        <time>1970-01-01T00:39:55.000Z</time>
      </trkpt>
      <trkpt lat="45.44504" lon="4.63235">
        <ele>815.3</ele>
        <time>1970-01-01T00:39:56.000Z</time>
      </trkpt>
      <trkpt lat="45.445" lon="4.63235">
        <ele>815.9</ele>
        <time>1970-01-01T00:39:57.000Z</time>
      </trkpt>
      <trkpt lat="45.44496" lon="4.63234">
        <ele>816.6</ele>
        <time>1970-01-01T00:39:58.000Z</time>
      </trkpt>
      <trkpt lat="45.44492" lon="4.63234">
        <ele>817.3</ele>
        <time>1970-01-01T00:39:59.000Z</time>
      </trkpt>
      <trkpt lat="45.44488" lon="4.63234">
        <ele>818</ele>
        <time>1970-01-01T00:40:00.000Z</time>
      </trkpt>
      <trkpt lat="45.44484" lon="4.63233">
        <ele>818.3</ele>
        <time>1970-01-01T00:40:01.000Z</time>
      </trkpt>
      <trkpt lat="45.4448" lon="4.63233">
        <ele>818.6</ele>
        <time>1970-01-01T00:40:02.000Z</time>
      </trkpt>
      <trkpt lat="45.44477" lon="4.63232">
        <ele>818.8</ele>
        <time>1970-01-01T00:40:03.000Z</time>
      </trkpt>
      <trkpt lat="45.44474" lon="4.63232">
        <ele>819.1</ele>
        <time>1970-01-01T00:40:04.000Z</time>
      </trkpt>
      <trkpt lat="45.4447" lon="4.63232">
        <ele>819.3</ele>
        <time>1970-01-01T00:40:05.000Z</time>
      </trkpt>
      <trkpt lat="45.44467" lon="4.63232">
        <ele>819.5</ele>
        <time>1970-01-01T00:40:06.000Z</time>
      </trkpt>
      <trkpt lat="45.44464" lon="4.63232">
        <ele>819.8</ele>
        <time>1970-01-01T00:40:07.000Z</time>
      </trkpt>
      <trkpt lat="45.44461" lon="4.63232">
        <ele>820</ele>
        <time>1970-01-01T00:40:08.000Z</time>
      </trkpt>
      <trkpt lat="45.44456" lon="4.63232">
        <ele>820.2</ele>
        <time>1970-01-01T00:40:10.000Z</time>
      </trkpt>
      <trkpt lat="45.44451" lon="4.63231">
        <ele>820.5</ele>
        <time>1970-01-01T00:40:12.000Z</time>
      </trkpt>
      <trkpt lat="45.44449" lon="4.63231">
        <ele>820.6</ele>
        <time>1970-01-01T00:40:13.000Z</time>
      </trkpt>
      <trkpt lat="45.44446" lon="4.63231">
        <ele>820.7</ele>
        <time>1970-01-01T00:40:14.000Z</time>
      </trkpt>
      <trkpt lat="45.4444" lon="4.6323">
        <ele>821</ele>
        <time>1970-01-01T00:40:16.000Z</time>
      </trkpt>
      <trkpt lat="45.44438" lon="4.6323">
        <ele>821</ele>
        <time>1970-01-01T00:40:17.000Z</time>
      </trkpt>
      <trkpt lat="45.44432" lon="4.6323">
        <ele>821.2</ele>
        <time>1970-01-01T00:40:19.000Z</time>
      </trkpt>
      <trkpt lat="45.44429" lon="4.63229">
        <ele>821.2</ele>
        <time>1970-01-01T00:40:20.000Z</time>
      </trkpt>
      <trkpt lat="45.44426" lon="4.63229">
        <ele>821.3</ele>
        <time>1970-01-01T00:40:21.000Z</time>
      </trkpt>
      <trkpt lat="45.44424" lon="4.63229">
        <ele>821.3</ele>
        <time>1970-01-01T00:40:22.000Z</time>
      </trkpt>
      <trkpt lat="45.44421" lon="4.63229">
        <ele>821.3</ele>
        <time>1970-01-01T00:40:23.000Z</time>
      </trkpt>
      <trkpt lat="45.44417" lon="4.63229">
        <ele>821.4</ele>
        <time>1970-01-01T00:40:24.000Z</time>
      </trkpt>
      <trkpt lat="45.44414" lon="4.63229">
        <ele>821.4</ele>
        <time>1970-01-01T00:40:25.000Z</time>
      </trkpt>
      <trkpt lat="45.4441" lon="4.63229">
        <ele>821.4</ele>
        <time>1970-01-01T00:40:26.000Z</time>
      </trkpt>
      <trkpt lat="45.44407" lon="4.63229">
        <ele>821.4</ele>
        <time>1970-01-01T00:40:27.000Z</time>
      </trkpt>
      <trkpt lat="45.44404" lon="4.63229">
        <ele>821.4</ele>
        <time>1970-01-01T00:40:28.000Z</time>
      </trkpt>
      <trkpt lat="45.44401" lon="4.63229">
        <ele>821.3</ele>
        <time>1970-01-01T00:40:29.000Z</time>
      </trkpt>
      <trkpt lat="45.44397" lon="4.6323">
        <ele>821.3</ele>
        <time>1970-01-01T00:40:30.000Z</time>
      </trkpt>
      <trkpt lat="45.44395" lon="4.6323">
        <ele>821.3</ele>
        <time>1970-01-01T00:40:31.000Z</time>
      </trkpt>
      <trkpt lat="45.44391" lon="4.6323">
        <ele>821.2</ele>
        <time>1970-01-01T00:40:32.000Z</time>
      </trkpt>
      <trkpt lat="45.44388" lon="4.6323">
        <ele>821.2</ele>
        <time>1970-01-01T00:40:33.000Z</time>
      </trkpt>
      <trkpt lat="45.44385" lon="4.6323">
        <ele>821.1</ele>
        <time>1970-01-01T00:40:34.000Z</time>
      </trkpt>
      <trkpt lat="45.44382" lon="4.63231">
        <ele>821.1</ele>
        <time>1970-01-01T00:40:35.000Z</time>
      </trkpt>
      <trkpt lat="45.44379" lon="4.63232">
        <ele>821</ele>
        <time>1970-01-01T00:40:36.000Z</time>
      </trkpt>
      <trkpt lat="45.44375" lon="4.63233">
        <ele>820.9</ele>
        <time>1970-01-01T00:40:37.000Z</time>
      </trkpt>
      <trkpt lat="45.44371" lon="4.63234">
        <ele>820.8</ele>
        <time>1970-01-01T00:40:38.000Z</time>
      </trkpt>
      <trkpt lat="45.44366" lon="4.63235">
        <ele>820.7</ele>
        <time>1970-01-01T00:40:39.000Z</time>
      </trkpt>
      <trkpt lat="45.44362" lon="4.63237">
        <ele>820.5</ele>
        <time>1970-01-01T00:40:40.000Z</time>
      </trkpt>
      <trkpt lat="45.44357" lon="4.63238">
        <ele>820.4</ele>
        <time>1970-01-01T00:40:41.000Z</time>
      </trkpt>
      <trkpt lat="45.44353" lon="4.63239">
        <ele>820.3</ele>
        <time>1970-01-01T00:40:42.000Z</time>
      </trkpt>
      <trkpt lat="45.4435" lon="4.63241">
        <ele>820.2</ele>
        <time>1970-01-01T00:40:43.000Z</time>
      </trkpt>
      <trkpt lat="45.44347" lon="4.63242">
        <ele>820.2</ele>
        <time>1970-01-01T00:40:44.000Z</time>
      </trkpt>
      <trkpt lat="45.44344" lon="4.63243">
        <ele>820.1</ele>
        <time>1970-01-01T00:40:45.000Z</time>
      </trkpt>
      <trkpt lat="45.44341" lon="4.63243">
        <ele>820</ele>
        <time>1970-01-01T00:40:46.000Z</time>
      </trkpt>
      <trkpt lat="45.44338" lon="4.63244">
        <ele>819.9</ele>
        <time>1970-01-01T00:40:47.000Z</time>
      </trkpt>
      <trkpt lat="45.44336" lon="4.63245">
        <ele>819.8</ele>
        <time>1970-01-01T00:40:48.000Z</time>
      </trkpt>
      <trkpt lat="45.44333" lon="4.63246">
        <ele>819.7</ele>
        <time>1970-01-01T00:40:49.000Z</time>
      </trkpt>
      <trkpt lat="45.44328" lon="4.63247">
        <ele>819.5</ele>
        <time>1970-01-01T00:40:51.000Z</time>
      </trkpt>
      <trkpt lat="45.44325" lon="4.63248">
        <ele>819.4</ele>
        <time>1970-01-01T00:40:52.000Z</time>
      </trkpt>
      <trkpt lat="45.44322" lon="4.63249">
        <ele>819.2</ele>
        <time>1970-01-01T00:40:53.000Z</time>
      </trkpt>
      <trkpt lat="45.44319" lon="4.6325">
        <ele>819.1</ele>
        <time>1970-01-01T00:40:54.000Z</time>
      </trkpt>
      <trkpt lat="45.44316" lon="4.63251">
        <ele>819</ele>
        <time>1970-01-01T00:40:55.000Z</time>
      </trkpt>
      <trkpt lat="45.44313" lon="4.63252">
        <ele>818.9</ele>
        <time>1970-01-01T00:40:56.000Z</time>
      </trkpt>
      <trkpt lat="45.4431" lon="4.63252">
        <ele>818.8</ele>
        <time>1970-01-01T00:40:57.000Z</time>
      </trkpt>
      <trkpt lat="45.44307" lon="4.63253">
        <ele>818.7</ele>
        <time>1970-01-01T00:40:58.000Z</time>
      </trkpt>
      <trkpt lat="45.44304" lon="4.63253">
        <ele>818.5</ele>
        <time>1970-01-01T00:40:59.000Z</time>
      </trkpt>
      <trkpt lat="45.44301" lon="4.63253">
        <ele>818.4</ele>
        <time>1970-01-01T00:41:00.000Z</time>
      </trkpt>
      <trkpt lat="45.44298" lon="4.63253">
        <ele>818.3</ele>
        <time>1970-01-01T00:41:01.000Z</time>
      </trkpt>
      <trkpt lat="45.44294" lon="4.63253">
        <ele>818.2</ele>
        <time>1970-01-01T00:41:02.000Z</time>
      </trkpt>
      <trkpt lat="45.44291" lon="4.63252">
        <ele>818.1</ele>
        <time>1970-01-01T00:41:03.000Z</time>
      </trkpt>
      <trkpt lat="45.44288" lon="4.63251">
        <ele>818</ele>
        <time>1970-01-01T00:41:04.000Z</time>
      </trkpt>
      <trkpt lat="45.44285" lon="4.6325">
        <ele>818.1</ele>
        <time>1970-01-01T00:41:05.000Z</time>
      </trkpt>
      <trkpt lat="45.44281" lon="4.63249">
        <ele>818.1</ele>
        <time>1970-01-01T00:41:06.000Z</time>
      </trkpt>
      <trkpt lat="45.44278" lon="4.63248">
        <ele>818.2</ele>
        <time>1970-01-01T00:41:07.000Z</time>
      </trkpt>
      <trkpt lat="45.44274" lon="4.63246">
        <ele>818.2</ele>
        <time>1970-01-01T00:41:08.000Z</time>
      </trkpt>
      <trkpt lat="45.44271" lon="4.63245">
        <ele>818.3</ele>
        <time>1970-01-01T00:41:09.000Z</time>
      </trkpt>
      <trkpt lat="45.44267" lon="4.63244">
        <ele>818.4</ele>
        <time>1970-01-01T00:41:10.000Z</time>
      </trkpt>
      <trkpt lat="45.44264" lon="4.63242">
        <ele>818.4</ele>
        <time>1970-01-01T00:41:11.000Z</time>
      </trkpt>
      <trkpt lat="45.44262" lon="4.63242">
        <ele>818.5</ele>
        <time>1970-01-01T00:41:12.000Z</time>
      </trkpt>
      <trkpt lat="45.44259" lon="4.63241">
        <ele>818.6</ele>
        <time>1970-01-01T00:41:13.000Z</time>
      </trkpt>
      <trkpt lat="45.44256" lon="4.6324">
        <ele>818.7</ele>
        <time>1970-01-01T00:41:14.000Z</time>
      </trkpt>
      <trkpt lat="45.44253" lon="4.6324">
        <ele>818.8</ele>
        <time>1970-01-01T00:41:15.000Z</time>
      </trkpt>
      <trkpt lat="45.44247" lon="4.6324">
        <ele>818.9</ele>
        <time>1970-01-01T00:41:17.000Z</time>
      </trkpt>
      <trkpt lat="45.44244" lon="4.6324">
        <ele>818.9</ele>
        <time>1970-01-01T00:41:18.000Z</time>
      </trkpt>
      <trkpt lat="45.4424" lon="4.63241">
        <ele>819</ele>
        <time>1970-01-01T00:41:19.000Z</time>
      </trkpt>
      <trkpt lat="45.44236" lon="4.63243">
        <ele>819</ele>
        <time>1970-01-01T00:41:20.000Z</time>
      </trkpt>
      <trkpt lat="45.44232" lon="4.63247">
        <ele>819.1</ele>
        <time>1970-01-01T00:41:21.000Z</time>
      </trkpt>
      <trkpt lat="45.44229" lon="4.63251">
        <ele>819.3</ele>
        <time>1970-01-01T00:41:22.000Z</time>
      </trkpt>
      <trkpt lat="45.44226" lon="4.63256">
        <ele>819.4</ele>
        <time>1970-01-01T00:41:23.000Z</time>
      </trkpt>
      <trkpt lat="45.44222" lon="4.6326">
        <ele>819.5</ele>
        <time>1970-01-01T00:41:24.000Z</time>
      </trkpt>
      <trkpt lat="45.44218" lon="4.63263">
        <ele>819.6</ele>
        <time>1970-01-01T00:41:25.000Z</time>
      </trkpt>
      <trkpt lat="45.44212" lon="4.63266">
        <ele>819.8</ele>
        <time>1970-01-01T00:41:26.000Z</time>
      </trkpt>
      <trkpt lat="45.44206" lon="4.63268">
        <ele>819.9</ele>
        <time>1970-01-01T00:41:27.000Z</time>
      </trkpt>
      <trkpt lat="45.44201" lon="4.63269">
        <ele>820</ele>
        <time>1970-01-01T00:41:28.000Z</time>
      </trkpt>
      <trkpt lat="45.44196" lon="4.63268">
        <ele>820.1</ele>
        <time>1970-01-01T00:41:29.000Z</time>
      </trkpt>
      <trkpt lat="45.44193" lon="4.63268">
        <ele>820.2</ele>
        <time>1970-01-01T00:41:30.000Z</time>
      </trkpt>
      <trkpt lat="45.44195" lon="4.6327">
        <ele>820.3</ele>
        <time>1970-01-01T00:42:18.000Z</time>
      </trkpt>
      <trkpt lat="45.44198" lon="4.63271">
        <ele>820.3</ele>
        <time>1970-01-01T00:43:01.000Z</time>
      </trkpt>
      <trkpt lat="45.44198" lon="4.63265">
        <ele>820.4</ele>
        <time>1970-01-01T00:43:31.000Z</time>
      </trkpt>
      <trkpt lat="45.44197" lon="4.63261">
        <ele>820.5</ele>
        <time>1970-01-01T00:43:33.000Z</time>
      </trkpt>
      <trkpt lat="45.44194" lon="4.63261">
        <ele>820.5</ele>
        <time>1970-01-01T00:43:38.000Z</time>
      </trkpt>
      <trkpt lat="45.44191" lon="4.63259">
        <ele>820.6</ele>
        <time>1970-01-01T00:43:40.000Z</time>
      </trkpt>
      <trkpt lat="45.44188" lon="4.63257">
        <ele>820.6</ele>
        <time>1970-01-01T00:43:42.000Z</time>
      </trkpt>
      <trkpt lat="45.44185" lon="4.63258">
        <ele>820.7</ele>
        <time>1970-01-01T00:43:44.000Z</time>
      </trkpt>
      <trkpt lat="45.44181" lon="4.63256">
        <ele>820.8</ele>
        <time>1970-01-01T00:43:46.000Z</time>
      </trkpt>
      <trkpt lat="45.44177" lon="4.63254">
        <ele>821</ele>
        <time>1970-01-01T00:43:48.000Z</time>
      </trkpt>
      <trkpt lat="45.44174" lon="4.63254">
        <ele>821.1</ele>
        <time>1970-01-01T00:43:49.000Z</time>
      </trkpt>
      <trkpt lat="45.44171" lon="4.63253">
        <ele>821.1</ele>
        <time>1970-01-01T00:43:50.000Z</time>
      </trkpt>
      <trkpt lat="45.44168" lon="4.63253">
        <ele>821.2</ele>
        <time>1970-01-01T00:43:51.000Z</time>
      </trkpt>
      <trkpt lat="45.44164" lon="4.63252">
        <ele>821.3</ele>
        <time>1970-01-01T00:43:53.000Z</time>
      </trkpt>
      <trkpt lat="45.44161" lon="4.6325">
        <ele>821.3</ele>
        <time>1970-01-01T00:43:55.000Z</time>
      </trkpt>
      <trkpt lat="45.44157" lon="4.63247">
        <ele>821.5</ele>
        <time>1970-01-01T00:43:57.000Z</time>
      </trkpt>
      <trkpt lat="45.44154" lon="4.63244">
        <ele>821.5</ele>
        <time>1970-01-01T00:43:58.000Z</time>
      </trkpt>
      <trkpt lat="45.44151" lon="4.6324">
        <ele>821.6</ele>
        <time>1970-01-01T00:43:59.000Z</time>
      </trkpt>
      <trkpt lat="45.44147" lon="4.63236">
        <ele>821.7</ele>
        <time>1970-01-01T00:44:00.000Z</time>
      </trkpt>
      <trkpt lat="45.44145" lon="4.63233">
        <ele>821.7</ele>
        <time>1970-01-01T00:44:01.000Z</time>
      </trkpt>
      <trkpt lat="45.44142" lon="4.63231">
        <ele>821.8</ele>
        <time>1970-01-01T00:44:02.000Z</time>
      </trkpt>
      <trkpt lat="45.44139" lon="4.63228">
        <ele>821.9</ele>
        <time>1970-01-01T00:44:03.000Z</time>
      </trkpt>
      <trkpt lat="45.44136" lon="4.63225">
        <ele>821.9</ele>
        <time>1970-01-01T00:44:04.000Z</time>
      </trkpt>
      <trkpt lat="45.44134" lon="4.63223">
        <ele>822</ele>
        <time>1970-01-01T00:44:05.000Z</time>
      </trkpt>
      <trkpt lat="45.44131" lon="4.6322">
        <ele>822</ele>
        <time>1970-01-01T00:44:06.000Z</time>
      </trkpt>
      <trkpt lat="45.44129" lon="4.63217">
        <ele>822.1</ele>
        <time>1970-01-01T00:44:07.000Z</time>
      </trkpt>
      <trkpt lat="45.44127" lon="4.63214">
        <ele>822.1</ele>
        <time>1970-01-01T00:44:08.000Z</time>
      </trkpt>
      <trkpt lat="45.44125" lon="4.63211">
        <ele>822.1</ele>
        <time>1970-01-01T00:44:09.000Z</time>
      </trkpt>
      <trkpt lat="45.44124" lon="4.63206">
        <ele>822.2</ele>
        <time>1970-01-01T00:44:10.000Z</time>
      </trkpt>
      <trkpt lat="45.44121" lon="4.63195">
        <ele>822.3</ele>
        <time>1970-01-01T00:44:11.000Z</time>
      </trkpt>
      <trkpt lat="45.44118" lon="4.63188">
        <ele>822.4</ele>
        <time>1970-01-01T00:44:12.000Z</time>
      </trkpt>
      <trkpt lat="45.44116" lon="4.63181">
        <ele>822.5</ele>
        <time>1970-01-01T00:44:13.000Z</time>
      </trkpt>
      <trkpt lat="45.44114" lon="4.63176">
        <ele>822.6</ele>
        <time>1970-01-01T00:44:14.000Z</time>
      </trkpt>
      <trkpt lat="45.44111" lon="4.6317">
        <ele>822.8</ele>
        <time>1970-01-01T00:44:15.000Z</time>
      </trkpt>
      <trkpt lat="45.44109" lon="4.63164">
        <ele>822.9</ele>
        <time>1970-01-01T00:44:16.000Z</time>
      </trkpt>
      <trkpt lat="45.44107" lon="4.63159">
        <ele>823</ele>
        <time>1970-01-01T00:44:17.000Z</time>
      </trkpt>
      <trkpt lat="45.44106" lon="4.63154">
        <ele>823.1</ele>
        <time>1970-01-01T00:44:18.000Z</time>
      </trkpt>
      <trkpt lat="45.44103" lon="4.6315">
        <ele>823.2</ele>
        <time>1970-01-01T00:44:19.000Z</time>
      </trkpt>
      <trkpt lat="45.44101" lon="4.63145">
        <ele>823.2</ele>
        <time>1970-01-01T00:44:20.000Z</time>
      </trkpt>
      <trkpt lat="45.44099" lon="4.6314">
        <ele>823.3</ele>
        <time>1970-01-01T00:44:21.000Z</time>
      </trkpt>
      <trkpt lat="45.44096" lon="4.63135">
        <ele>823.4</ele>
        <time>1970-01-01T00:44:22.000Z</time>
      </trkpt>
      <trkpt lat="45.44093" lon="4.6313">
        <ele>823.5</ele>
        <time>1970-01-01T00:44:23.000Z</time>
      </trkpt>
      <trkpt lat="45.4409" lon="4.63126">
        <ele>823.6</ele>
        <time>1970-01-01T00:44:24.000Z</time>
      </trkpt>
      <trkpt lat="45.44086" lon="4.6312">
        <ele>823.7</ele>
        <time>1970-01-01T00:44:25.000Z</time>
      </trkpt>
      <trkpt lat="45.44083" lon="4.63116">
        <ele>823.9</ele>
        <time>1970-01-01T00:44:26.000Z</time>
      </trkpt>
      <trkpt lat="45.44079" lon="4.63112">
        <ele>824.4</ele>
        <time>1970-01-01T00:44:27.000Z</time>
      </trkpt>
      <trkpt lat="45.44074" lon="4.63108">
        <ele>825</ele>
        <time>1970-01-01T00:44:28.000Z</time>
      </trkpt>
      <trkpt lat="45.4407" lon="4.63103">
        <ele>825.7</ele>
        <time>1970-01-01T00:44:29.000Z</time>
      </trkpt>
      <trkpt lat="45.44065" lon="4.63098">
        <ele>826.2</ele>
        <time>1970-01-01T00:44:30.000Z</time>
      </trkpt>
      <trkpt lat="45.44062" lon="4.63093">
        <ele>826.6</ele>
        <time>1970-01-01T00:44:31.000Z</time>
      </trkpt>
      <trkpt lat="45.44058" lon="4.63088">
        <ele>827</ele>
        <time>1970-01-01T00:44:32.000Z</time>
      </trkpt>
      <trkpt lat="45.44055" lon="4.63083">
        <ele>827.3</ele>
        <time>1970-01-01T00:44:33.000Z</time>
      </trkpt>
      <trkpt lat="45.44052" lon="4.63078">
        <ele>827.7</ele>
        <time>1970-01-01T00:44:34.000Z</time>
      </trkpt>
      <trkpt lat="45.44049" lon="4.63075">
        <ele>827.9</ele>
        <time>1970-01-01T00:44:35.000Z</time>
      </trkpt>
      <trkpt lat="45.44047" lon="4.63071">
        <ele>828.2</ele>
        <time>1970-01-01T00:44:36.000Z</time>
      </trkpt>
      <trkpt lat="45.44045" lon="4.63068">
        <ele>828.4</ele>
        <time>1970-01-01T00:44:37.000Z</time>
      </trkpt>
      <trkpt lat="45.44042" lon="4.63064">
        <ele>828.8</ele>
        <time>1970-01-01T00:44:38.000Z</time>
      </trkpt>
      <trkpt lat="45.4404" lon="4.63061">
        <ele>829.1</ele>
        <time>1970-01-01T00:44:39.000Z</time>
      </trkpt>
      <trkpt lat="45.44037" lon="4.63057">
        <ele>829.4</ele>
        <time>1970-01-01T00:44:40.000Z</time>
      </trkpt>
      <trkpt lat="45.44035" lon="4.63055">
        <ele>829.6</ele>
        <time>1970-01-01T00:44:41.000Z</time>
      </trkpt>
      <trkpt lat="45.44031" lon="4.63049">
        <ele>830.1</ele>
        <time>1970-01-01T00:44:43.000Z</time>
      </trkpt>
      <trkpt lat="45.44029" lon="4.63047">
        <ele>830.4</ele>
        <time>1970-01-01T00:44:44.000Z</time>
      </trkpt>
      <trkpt lat="45.44027" lon="4.63044">
        <ele>830.6</ele>
        <time>1970-01-01T00:44:45.000Z</time>
      </trkpt>
      <trkpt lat="45.44026" lon="4.63038">
        <ele>831</ele>
        <time>1970-01-01T00:44:47.000Z</time>
      </trkpt>
      <trkpt lat="45.44024" lon="4.63033">
        <ele>831.3</ele>
        <time>1970-01-01T00:44:49.000Z</time>
      </trkpt>
      <trkpt lat="45.44021" lon="4.63028">
        <ele>831.6</ele>
        <time>1970-01-01T00:44:51.000Z</time>
      </trkpt>
      <trkpt lat="45.44017" lon="4.63025">
        <ele>831.9</ele>
        <time>1970-01-01T00:44:53.000Z</time>
      </trkpt>
      <trkpt lat="45.44014" lon="4.63022">
        <ele>832.2</ele>
        <time>1970-01-01T00:44:55.000Z</time>
      </trkpt>
      <trkpt lat="45.4401" lon="4.6302">
        <ele>832.4</ele>
        <time>1970-01-01T00:44:57.000Z</time>
      </trkpt>
      <trkpt lat="45.44008" lon="4.63017">
        <ele>832.6</ele>
        <time>1970-01-01T00:44:59.000Z</time>
      </trkpt>
      <trkpt lat="45.44005" lon="4.63015">
        <ele>832.9</ele>
        <time>1970-01-01T00:45:01.000Z</time>
      </trkpt>
      <trkpt lat="45.44003" lon="4.63012">
        <ele>833</ele>
        <time>1970-01-01T00:45:03.000Z</time>
      </trkpt>
      <trkpt lat="45.44001" lon="4.6301">
        <ele>833.2</ele>
        <time>1970-01-01T00:45:05.000Z</time>
      </trkpt>
      <trkpt lat="45.43998" lon="4.63007">
        <ele>833.4</ele>
        <time>1970-01-01T00:45:07.000Z</time>
      </trkpt>
      <trkpt lat="45.43995" lon="4.63004">
        <ele>833.7</ele>
        <time>1970-01-01T00:45:09.000Z</time>
      </trkpt>
      <trkpt lat="45.43992" lon="4.63001">
        <ele>833.9</ele>
        <time>1970-01-01T00:45:11.000Z</time>
      </trkpt>
      <trkpt lat="45.4399" lon="4.62996">
        <ele>834.2</ele>
        <time>1970-01-01T00:45:13.000Z</time>
      </trkpt>
      <trkpt lat="45.43987" lon="4.62991">
        <ele>834.5</ele>
        <time>1970-01-01T00:45:15.000Z</time>
      </trkpt>
      <trkpt lat="45.43984" lon="4.62987">
        <ele>834.8</ele>
        <time>1970-01-01T00:45:17.000Z</time>
      </trkpt>
      <trkpt lat="45.4398" lon="4.62983">
        <ele>835.1</ele>
        <time>1970-01-01T00:45:19.000Z</time>
      </trkpt>
      <trkpt lat="45.43977" lon="4.62978">
        <ele>835.4</ele>
        <time>1970-01-01T00:45:21.000Z</time>
      </trkpt>
      <trkpt lat="45.43975" lon="4.62972">
        <ele>835.8</ele>
        <time>1970-01-01T00:45:23.000Z</time>
      </trkpt>
      <trkpt lat="45.43973" lon="4.62968">
        <ele>836.1</ele>
        <time>1970-01-01T00:45:24.000Z</time>
      </trkpt>
      <trkpt lat="45.43971" lon="4.62963">
        <ele>836.4</ele>
        <time>1970-01-01T00:45:26.000Z</time>
      </trkpt>
      <trkpt lat="45.43969" lon="4.62958">
        <ele>836.8</ele>
        <time>1970-01-01T00:45:28.000Z</time>
      </trkpt>
      <trkpt lat="45.43965" lon="4.62953">
        <ele>837.3</ele>
        <time>1970-01-01T00:45:30.000Z</time>
      </trkpt>
      <trkpt lat="45.43963" lon="4.6295">
        <ele>837.5</ele>
        <time>1970-01-01T00:45:31.000Z</time>
      </trkpt>
      <trkpt lat="45.43959" lon="4.62946">
        <ele>837.9</ele>
        <time>1970-01-01T00:45:33.000Z</time>
      </trkpt>
      <trkpt lat="45.43956" lon="4.62942">
        <ele>838.3</ele>
        <time>1970-01-01T00:45:35.000Z</time>
      </trkpt>
      <trkpt lat="45.43954" lon="4.62938">
        <ele>838.6</ele>
        <time>1970-01-01T00:45:37.000Z</time>
      </trkpt>
      <trkpt lat="45.4395" lon="4.62933">
        <ele>839.1</ele>
        <time>1970-01-01T00:45:39.000Z</time>
      </trkpt>
      <trkpt lat="45.43948" lon="4.6293">
        <ele>839.5</ele>
        <time>1970-01-01T00:45:41.000Z</time>
      </trkpt>
      <trkpt lat="45.43946" lon="4.62927">
        <ele>839.8</ele>
        <time>1970-01-01T00:45:43.000Z</time>
      </trkpt>
      <trkpt lat="45.43943" lon="4.62923">
        <ele>840.1</ele>
        <time>1970-01-01T00:45:45.000Z</time>
      </trkpt>
      <trkpt lat="45.4394" lon="4.62919">
        <ele>840.6</ele>
        <time>1970-01-01T00:45:47.000Z</time>
      </trkpt>
      <trkpt lat="45.43937" lon="4.62914">
        <ele>841.1</ele>
        <time>1970-01-01T00:45:49.000Z</time>
      </trkpt>
      <trkpt lat="45.43934" lon="4.6291">
        <ele>841.6</ele>
        <time>1970-01-01T00:45:51.000Z</time>
      </trkpt>
      <trkpt lat="45.43931" lon="4.62908">
        <ele>841.9</ele>
        <time>1970-01-01T00:45:53.000Z</time>
      </trkpt>
      <trkpt lat="45.43929" lon="4.62905">
        <ele>842.3</ele>
        <time>1970-01-01T00:45:55.000Z</time>
      </trkpt>
      <trkpt lat="45.43926" lon="4.62903">
        <ele>842.8</ele>
        <time>1970-01-01T00:45:57.000Z</time>
      </trkpt>
      <trkpt lat="45.43923" lon="4.62901">
        <ele>843.2</ele>
        <time>1970-01-01T00:46:00.000Z</time>
      </trkpt>
      <trkpt lat="45.43921" lon="4.62897">
        <ele>843.6</ele>
        <time>1970-01-01T00:46:06.000Z</time>
      </trkpt>
      <trkpt lat="45.43918" lon="4.62895">
        <ele>844</ele>
        <time>1970-01-01T00:46:09.000Z</time>
      </trkpt>
      <trkpt lat="45.43916" lon="4.62892">
        <ele>844.4</ele>
        <time>1970-01-01T00:46:12.000Z</time>
      </trkpt>
      <trkpt lat="45.43915" lon="4.62888">
        <ele>845.1</ele>
        <time>1970-01-01T00:46:16.000Z</time>
      </trkpt>
      <trkpt lat="45.43912" lon="4.62885">
        <ele>846</ele>
        <time>1970-01-01T00:46:19.000Z</time>
      </trkpt>
      <trkpt lat="45.43909" lon="4.6288">
        <ele>846.5</ele>
        <time>1970-01-01T00:46:21.000Z</time>
      </trkpt>
      <trkpt lat="45.43907" lon="4.62876">
        <ele>846.9</ele>
        <time>1970-01-01T00:46:22.000Z</time>
      </trkpt>
      <trkpt lat="45.43905" lon="4.62872">
        <ele>847.3</ele>
        <time>1970-01-01T00:46:25.000Z</time>
      </trkpt>
      <trkpt lat="45.43902" lon="4.62867">
        <ele>847.8</ele>
        <time>1970-01-01T00:46:29.000Z</time>
      </trkpt>
      <trkpt lat="45.43901" lon="4.62859">
        <ele>848.4</ele>
        <time>1970-01-01T00:46:32.000Z</time>
      </trkpt>
      <trkpt lat="45.43898" lon="4.62855">
        <ele>849</ele>
        <time>1970-01-01T00:46:34.000Z</time>
      </trkpt>
      <trkpt lat="45.43894" lon="4.62853">
        <ele>849.4</ele>
        <time>1970-01-01T00:46:37.000Z</time>
      </trkpt>
      <trkpt lat="45.43892" lon="4.6285">
        <ele>849.9</ele>
        <time>1970-01-01T00:46:39.000Z</time>
      </trkpt>
      <trkpt lat="45.43888" lon="4.62847">
        <ele>850.4</ele>
        <time>1970-01-01T00:46:42.000Z</time>
      </trkpt>
      <trkpt lat="45.43886" lon="4.62845">
        <ele>850.8</ele>
        <time>1970-01-01T00:46:44.000Z</time>
      </trkpt>
      <trkpt lat="45.43884" lon="4.62841">
        <ele>851.3</ele>
        <time>1970-01-01T00:46:45.000Z</time>
      </trkpt>
      <trkpt lat="45.43882" lon="4.62838">
        <ele>851.6</ele>
        <time>1970-01-01T00:46:46.000Z</time>
      </trkpt>
      <trkpt lat="45.43879" lon="4.62831">
        <ele>852.5</ele>
        <time>1970-01-01T00:46:48.000Z</time>
      </trkpt>
      <trkpt lat="45.43876" lon="4.62827">
        <ele>853</ele>
        <time>1970-01-01T00:46:49.000Z</time>
      </trkpt>
      <trkpt lat="45.43874" lon="4.62823">
        <ele>853.5</ele>
        <time>1970-01-01T00:46:50.000Z</time>
      </trkpt>
      <trkpt lat="45.43872" lon="4.62819">
        <ele>853.8</ele>
        <time>1970-01-01T00:46:51.000Z</time>
      </trkpt>
      <trkpt lat="45.43868" lon="4.62815">
        <ele>854.4</ele>
        <time>1970-01-01T00:46:53.000Z</time>
      </trkpt>
      <trkpt lat="45.43865" lon="4.62811">
        <ele>854.7</ele>
        <time>1970-01-01T00:46:55.000Z</time>
      </trkpt>
      <trkpt lat="45.43863" lon="4.62808">
        <ele>855</ele>
        <time>1970-01-01T00:46:57.000Z</time>
      </trkpt>
      <trkpt lat="45.43859" lon="4.62803">
        <ele>855.4</ele>
        <time>1970-01-01T00:46:59.000Z</time>
      </trkpt>
      <trkpt lat="45.43858" lon="4.628">
        <ele>855.6</ele>
        <time>1970-01-01T00:47:00.000Z</time>
      </trkpt>
      <trkpt lat="45.43854" lon="4.62795">
        <ele>855.8</ele>
        <time>1970-01-01T00:47:02.000Z</time>
      </trkpt>
      <trkpt lat="45.43851" lon="4.62791">
        <ele>856</ele>
        <time>1970-01-01T00:47:03.000Z</time>
      </trkpt>
      <trkpt lat="45.43849" lon="4.62788">
        <ele>856.1</ele>
        <time>1970-01-01T00:47:04.000Z</time>
      </trkpt>
      <trkpt lat="45.43845" lon="4.62783">
        <ele>856.3</ele>
        <time>1970-01-01T00:47:06.000Z</time>
      </trkpt>
      <trkpt lat="45.43843" lon="4.6278">
        <ele>856.4</ele>
        <time>1970-01-01T00:47:07.000Z</time>
      </trkpt>
      <trkpt lat="45.43839" lon="4.62775">
        <ele>856.5</ele>
        <time>1970-01-01T00:47:09.000Z</time>
      </trkpt>
      <trkpt lat="45.43835" lon="4.62771">
        <ele>856.6</ele>
        <time>1970-01-01T00:47:11.000Z</time>
      </trkpt>
      <trkpt lat="45.43832" lon="4.62767">
        <ele>856.6</ele>
        <time>1970-01-01T00:47:13.000Z</time>
      </trkpt>
      <trkpt lat="45.43829" lon="4.62762">
        <ele>856.6</ele>
        <time>1970-01-01T00:47:15.000Z</time>
      </trkpt>
      <trkpt lat="45.43824" lon="4.6276">
        <ele>856.6</ele>
        <time>1970-01-01T00:47:17.000Z</time>
      </trkpt>
      <trkpt lat="45.43821" lon="4.62754">
        <ele>856.6</ele>
        <time>1970-01-01T00:47:19.000Z</time>
      </trkpt>
      <trkpt lat="45.43818" lon="4.62751">
        <ele>856.5</ele>
        <time>1970-01-01T00:47:21.000Z</time>
      </trkpt>
      <trkpt lat="45.43816" lon="4.62748">
        <ele>856.5</ele>
        <time>1970-01-01T00:47:22.000Z</time>
      </trkpt>
      <trkpt lat="45.43813" lon="4.62746">
        <ele>856.5</ele>
        <time>1970-01-01T00:47:23.000Z</time>
      </trkpt>
      <trkpt lat="45.43809" lon="4.62741">
        <ele>856.5</ele>
        <time>1970-01-01T00:47:24.000Z</time>
      </trkpt>
      <trkpt lat="45.43807" lon="4.62736">
        <ele>856.4</ele>
        <time>1970-01-01T00:47:25.000Z</time>
      </trkpt>
      <trkpt lat="45.43804" lon="4.62731">
        <ele>856.4</ele>
        <time>1970-01-01T00:47:26.000Z</time>
      </trkpt>
      <trkpt lat="45.43801" lon="4.62727">
        <ele>856.4</ele>
        <time>1970-01-01T00:47:27.000Z</time>
      </trkpt>
      <trkpt lat="45.43799" lon="4.62723">
        <ele>856.3</ele>
        <time>1970-01-01T00:47:28.000Z</time>
      </trkpt>
      <trkpt lat="45.43797" lon="4.62718">
        <ele>856.3</ele>
        <time>1970-01-01T00:47:29.000Z</time>
      </trkpt>
      <trkpt lat="45.43794" lon="4.62713">
        <ele>856.2</ele>
        <time>1970-01-01T00:47:30.000Z</time>
      </trkpt>
      <trkpt lat="45.4379" lon="4.62707">
        <ele>856.2</ele>
        <time>1970-01-01T00:47:31.000Z</time>
      </trkpt>
      <trkpt lat="45.43787" lon="4.62704">
        <ele>856.1</ele>
        <time>1970-01-01T00:47:32.000Z</time>
      </trkpt>
      <trkpt lat="45.43784" lon="4.62699">
        <ele>856.1</ele>
        <time>1970-01-01T00:47:33.000Z</time>
      </trkpt>
      <trkpt lat="45.43781" lon="4.62694">
        <ele>856</ele>
        <time>1970-01-01T00:47:34.000Z</time>
      </trkpt>
      <trkpt lat="45.43777" lon="4.62689">
        <ele>855.9</ele>
        <time>1970-01-01T00:47:35.000Z</time>
      </trkpt>
      <trkpt lat="45.43775" lon="4.62683">
        <ele>855.8</ele>
        <time>1970-01-01T00:47:36.000Z</time>
      </trkpt>
      <trkpt lat="45.43772" lon="4.62677">
        <ele>855.7</ele>
        <time>1970-01-01T00:47:37.000Z</time>
      </trkpt>
      <trkpt lat="45.43769" lon="4.62673">
        <ele>855.7</ele>
        <time>1970-01-01T00:47:38.000Z</time>
      </trkpt>
      <trkpt lat="45.43766" lon="4.62666">
        <ele>855.7</ele>
        <time>1970-01-01T00:47:39.000Z</time>
      </trkpt>
      <trkpt lat="45.43762" lon="4.6266">
        <ele>855.8</ele>
        <time>1970-01-01T00:47:40.000Z</time>
      </trkpt>
      <trkpt lat="45.43759" lon="4.62654">
        <ele>855.9</ele>
        <time>1970-01-01T00:47:41.000Z</time>
      </trkpt>
      <trkpt lat="45.43753" lon="4.62645">
        <ele>856</ele>
        <time>1970-01-01T00:47:42.000Z</time>
      </trkpt>
      <trkpt lat="45.43747" lon="4.62636">
        <ele>856.2</ele>
        <time>1970-01-01T00:47:43.000Z</time>
      </trkpt>
      <trkpt lat="45.43742" lon="4.62629">
        <ele>856.4</ele>
        <time>1970-01-01T00:47:44.000Z</time>
      </trkpt>
      <trkpt lat="45.43738" lon="4.62622">
        <ele>856.6</ele>
        <time>1970-01-01T00:47:45.000Z</time>
      </trkpt>
      <trkpt lat="45.43733" lon="4.62616">
        <ele>856.8</ele>
        <time>1970-01-01T00:47:46.000Z</time>
      </trkpt>
      <trkpt lat="45.43731" lon="4.62611">
        <ele>856.9</ele>
        <time>1970-01-01T00:47:47.000Z</time>
      </trkpt>
      <trkpt lat="45.43728" lon="4.62608">
        <ele>857</ele>
        <time>1970-01-01T00:47:48.000Z</time>
      </trkpt>
      <trkpt lat="45.43725" lon="4.626">
        <ele>857.3</ele>
        <time>1970-01-01T00:47:50.000Z</time>
      </trkpt>
      <trkpt lat="45.43722" lon="4.62595">
        <ele>857.5</ele>
        <time>1970-01-01T00:47:51.000Z</time>
      </trkpt>
      <trkpt lat="45.4372" lon="4.6259">
        <ele>857.6</ele>
        <time>1970-01-01T00:47:52.000Z</time>
      </trkpt>
      <trkpt lat="45.43717" lon="4.62586">
        <ele>857.8</ele>
        <time>1970-01-01T00:47:53.000Z</time>
      </trkpt>
      <trkpt lat="45.43714" lon="4.62582">
        <ele>858</ele>
        <time>1970-01-01T00:47:54.000Z</time>
      </trkpt>
      <trkpt lat="45.43712" lon="4.62578">
        <ele>858.4</ele>
        <time>1970-01-01T00:47:55.000Z</time>
      </trkpt>
      <trkpt lat="45.43709" lon="4.62575">
        <ele>858.8</ele>
        <time>1970-01-01T00:47:56.000Z</time>
      </trkpt>
      <trkpt lat="45.43705" lon="4.62571">
        <ele>859.4</ele>
        <time>1970-01-01T00:47:58.000Z</time>
      </trkpt>
      <trkpt lat="45.43702" lon="4.62568">
        <ele>859.9</ele>
        <time>1970-01-01T00:48:00.000Z</time>
      </trkpt>
      <trkpt lat="45.43699" lon="4.62567">
        <ele>860.4</ele>
        <time>1970-01-01T00:48:02.000Z</time>
      </trkpt>
      <trkpt lat="45.43696" lon="4.62564">
        <ele>860.7</ele>
        <time>1970-01-01T00:48:03.000Z</time>
      </trkpt>
      <trkpt lat="45.43693" lon="4.62561">
        <ele>861.1</ele>
        <time>1970-01-01T00:48:04.000Z</time>
      </trkpt>
      <trkpt lat="45.4369" lon="4.6256">
        <ele>861.5</ele>
        <time>1970-01-01T00:48:05.000Z</time>
      </trkpt>
      <trkpt lat="45.43688" lon="4.62558">
        <ele>861.9</ele>
        <time>1970-01-01T00:48:06.000Z</time>
      </trkpt>
      <trkpt lat="45.43685" lon="4.62556">
        <ele>862.2</ele>
        <time>1970-01-01T00:48:08.000Z</time>
      </trkpt>
      <trkpt lat="45.43681" lon="4.62555">
        <ele>862.7</ele>
        <time>1970-01-01T00:48:11.000Z</time>
      </trkpt>
      <trkpt lat="45.43676" lon="4.62553">
        <ele>863.2</ele>
        <time>1970-01-01T00:48:14.000Z</time>
      </trkpt>
      <trkpt lat="45.43672" lon="4.6255">
        <ele>863.8</ele>
        <time>1970-01-01T00:48:16.000Z</time>
      </trkpt>
      <trkpt lat="45.43668" lon="4.62546">
        <ele>864.3</ele>
        <time>1970-01-01T00:48:18.000Z</time>
      </trkpt>
      <trkpt lat="45.43664" lon="4.62541">
        <ele>864.9</ele>
        <time>1970-01-01T00:48:20.000Z</time>
      </trkpt>
      <trkpt lat="45.4366" lon="4.6254">
        <ele>865.3</ele>
        <time>1970-01-01T00:48:22.000Z</time>
      </trkpt>
      <trkpt lat="45.43656" lon="4.6254">
        <ele>865.8</ele>
        <time>1970-01-01T00:48:25.000Z</time>
      </trkpt>
      <trkpt lat="45.4365" lon="4.62539">
        <ele>866.4</ele>
        <time>1970-01-01T00:48:27.000Z</time>
      </trkpt>
      <trkpt lat="45.43647" lon="4.62537">
        <ele>866.7</ele>
        <time>1970-01-01T00:48:28.000Z</time>
      </trkpt>
      <trkpt lat="45.43644" lon="4.62534">
        <ele>867.1</ele>
        <time>1970-01-01T00:48:30.000Z</time>
      </trkpt>
      <trkpt lat="45.4364" lon="4.62531">
        <ele>867.6</ele>
        <time>1970-01-01T00:48:32.000Z</time>
      </trkpt>
      <trkpt lat="45.43637" lon="4.62528">
        <ele>868</ele>
        <time>1970-01-01T00:48:34.000Z</time>
      </trkpt>
      <trkpt lat="45.43634" lon="4.62525">
        <ele>868.4</ele>
        <time>1970-01-01T00:48:36.000Z</time>
      </trkpt>
      <trkpt lat="45.43632" lon="4.62523">
        <ele>868.7</ele>
        <time>1970-01-01T00:48:38.000Z</time>
      </trkpt>
      <trkpt lat="45.43629" lon="4.62517">
        <ele>869.3</ele>
        <time>1970-01-01T00:48:40.000Z</time>
      </trkpt>
      <trkpt lat="45.43627" lon="4.62514">
        <ele>869.7</ele>
        <time>1970-01-01T00:48:41.000Z</time>
      </trkpt>
      <trkpt lat="45.43623" lon="4.62511">
        <ele>870.1</ele>
        <time>1970-01-01T00:48:42.000Z</time>
      </trkpt>
      <trkpt lat="45.43618" lon="4.62507">
        <ele>870.7</ele>
        <time>1970-01-01T00:48:44.000Z</time>
      </trkpt>
      <trkpt lat="45.43615" lon="4.62505">
        <ele>871</ele>
        <time>1970-01-01T00:48:45.000Z</time>
      </trkpt>
      <trkpt lat="45.43612" lon="4.62503">
        <ele>871.3</ele>
        <time>1970-01-01T00:48:46.000Z</time>
      </trkpt>
      <trkpt lat="45.43609" lon="4.62501">
        <ele>871.5</ele>
        <time>1970-01-01T00:48:47.000Z</time>
      </trkpt>
      <trkpt lat="45.43604" lon="4.62497">
        <ele>871.9</ele>
        <time>1970-01-01T00:48:49.000Z</time>
      </trkpt>
      <trkpt lat="45.43602" lon="4.62495">
        <ele>872.1</ele>
        <time>1970-01-01T00:48:50.000Z</time>
      </trkpt>
      <trkpt lat="45.436" lon="4.62494">
        <ele>872.3</ele>
        <time>1970-01-01T00:48:51.000Z</time>
      </trkpt>
      <trkpt lat="45.43596" lon="4.62491">
        <ele>872.7</ele>
        <time>1970-01-01T00:48:53.000Z</time>
      </trkpt>
      <trkpt lat="45.43592" lon="4.62486">
        <ele>873.5</ele>
        <time>1970-01-01T00:48:55.000Z</time>
      </trkpt>
      <trkpt lat="45.4359" lon="4.62481">
        <ele>874.2</ele>
        <time>1970-01-01T00:48:57.000Z</time>
      </trkpt>
      <trkpt lat="45.43587" lon="4.62478">
        <ele>874.8</ele>
        <time>1970-01-01T00:48:59.000Z</time>
      </trkpt>
      <trkpt lat="45.43585" lon="4.62473">
        <ele>875.2</ele>
        <time>1970-01-01T00:49:01.000Z</time>
      </trkpt>
      <trkpt lat="45.43583" lon="4.62468">
        <ele>875.4</ele>
        <time>1970-01-01T00:49:03.000Z</time>
      </trkpt>
      <trkpt lat="45.43581" lon="4.62465">
        <ele>875.6</ele>
        <time>1970-01-01T00:49:05.000Z</time>
      </trkpt>
      <trkpt lat="45.43578" lon="4.62458">
        <ele>875.9</ele>
        <time>1970-01-01T00:49:07.000Z</time>
      </trkpt>
      <trkpt lat="45.43576" lon="4.62452">
        <ele>876.1</ele>
        <time>1970-01-01T00:49:09.000Z</time>
      </trkpt>
      <trkpt lat="45.43575" lon="4.62446">
        <ele>876.4</ele>
        <time>1970-01-01T00:49:11.000Z</time>
      </trkpt>
      <trkpt lat="45.43573" lon="4.62442">
        <ele>876.7</ele>
        <time>1970-01-01T00:49:13.000Z</time>
      </trkpt>
      <trkpt lat="45.43571" lon="4.62437">
        <ele>877</ele>
        <time>1970-01-01T00:49:15.000Z</time>
      </trkpt>
      <trkpt lat="45.43569" lon="4.62432">
        <ele>877.4</ele>
        <time>1970-01-01T00:49:17.000Z</time>
      </trkpt>
      <trkpt lat="45.43567" lon="4.62428">
        <ele>877.6</ele>
        <time>1970-01-01T00:49:19.000Z</time>
      </trkpt>
      <trkpt lat="45.43566" lon="4.62422">
        <ele>878</ele>
        <time>1970-01-01T00:49:21.000Z</time>
      </trkpt>
      <trkpt lat="45.43565" lon="4.62418">
        <ele>878.2</ele>
        <time>1970-01-01T00:49:23.000Z</time>
      </trkpt>
      <trkpt lat="45.43564" lon="4.62413">
        <ele>878.6</ele>
        <time>1970-01-01T00:49:26.000Z</time>
      </trkpt>
      <trkpt lat="45.43563" lon="4.62408">
        <ele>878.9</ele>
        <time>1970-01-01T00:49:27.000Z</time>
      </trkpt>
      <trkpt lat="45.43562" lon="4.62401">
        <ele>879.2</ele>
        <time>1970-01-01T00:49:29.000Z</time>
      </trkpt>
      <trkpt lat="45.43561" lon="4.62396">
        <ele>879.5</ele>
        <time>1970-01-01T00:49:32.000Z</time>
      </trkpt>
      <trkpt lat="45.43559" lon="4.62392">
        <ele>879.8</ele>
        <time>1970-01-01T00:49:34.000Z</time>
      </trkpt>
      <trkpt lat="45.43557" lon="4.62388">
        <ele>880.1</ele>
        <time>1970-01-01T00:49:36.000Z</time>
      </trkpt>
      <trkpt lat="45.43555" lon="4.62383">
        <ele>880.4</ele>
        <time>1970-01-01T00:49:40.000Z</time>
      </trkpt>
      <trkpt lat="45.43553" lon="4.62379">
        <ele>880.7</ele>
        <time>1970-01-01T00:49:43.000Z</time>
      </trkpt>
      <trkpt lat="45.43551" lon="4.62374">
        <ele>881</ele>
        <time>1970-01-01T00:49:46.000Z</time>
      </trkpt>
      <trkpt lat="45.43549" lon="4.62371">
        <ele>881.3</ele>
        <time>1970-01-01T00:49:48.000Z</time>
      </trkpt>
      <trkpt lat="45.4355" lon="4.62365">
        <ele>881.7</ele>
        <time>1970-01-01T00:49:51.000Z</time>
      </trkpt>
      <trkpt lat="45.4355" lon="4.62361">
        <ele>882.1</ele>
        <time>1970-01-01T00:49:53.000Z</time>
      </trkpt>
      <trkpt lat="45.43552" lon="4.62354">
        <ele>882.7</ele>
        <time>1970-01-01T00:49:55.000Z</time>
      </trkpt>
      <trkpt lat="45.43551" lon="4.62349">
        <ele>882.9</ele>
        <time>1970-01-01T00:49:57.000Z</time>
      </trkpt>
      <trkpt lat="45.43551" lon="4.62343">
        <ele>883.2</ele>
        <time>1970-01-01T00:49:59.000Z</time>
      </trkpt>
      <trkpt lat="45.43551" lon="4.62339">
        <ele>883.4</ele>
        <time>1970-01-01T00:50:00.000Z</time>
      </trkpt>
      <trkpt lat="45.4355" lon="4.62335">
        <ele>883.6</ele>
        <time>1970-01-01T00:50:02.000Z</time>
      </trkpt>
      <trkpt lat="45.43549" lon="4.62331">
        <ele>883.9</ele>
        <time>1970-01-01T00:50:04.000Z</time>
      </trkpt>
      <trkpt lat="45.43549" lon="4.62327">
        <ele>884.1</ele>
        <time>1970-01-01T00:50:06.000Z</time>
      </trkpt>
      <trkpt lat="45.43548" lon="4.62322">
        <ele>884.5</ele>
        <time>1970-01-01T00:50:08.000Z</time>
      </trkpt>
      <trkpt lat="45.43547" lon="4.62319">
        <ele>884.8</ele>
        <time>1970-01-01T00:50:09.000Z</time>
      </trkpt>
      <trkpt lat="45.43545" lon="4.62315">
        <ele>885.2</ele>
        <time>1970-01-01T00:50:12.000Z</time>
      </trkpt>
      <trkpt lat="45.43543" lon="4.62315">
        <ele>885.5</ele>
        <time>1970-01-01T00:50:16.000Z</time>
      </trkpt>
      <trkpt lat="45.4354" lon="4.62312">
        <ele>885.9</ele>
        <time>1970-01-01T00:50:18.000Z</time>
      </trkpt>
      <trkpt lat="45.43538" lon="4.62308">
        <ele>886.3</ele>
        <time>1970-01-01T00:50:21.000Z</time>
      </trkpt>
      <trkpt lat="45.43538" lon="4.62303">
        <ele>886.8</ele>
        <time>1970-01-01T00:50:22.000Z</time>
      </trkpt>
      <trkpt lat="45.43538" lon="4.62299">
        <ele>887.1</ele>
        <time>1970-01-01T00:50:23.000Z</time>
      </trkpt>
      <trkpt lat="45.43537" lon="4.62293">
        <ele>887.6</ele>
        <time>1970-01-01T00:50:24.000Z</time>
      </trkpt>
      <trkpt lat="45.43535" lon="4.62287">
        <ele>888.1</ele>
        <time>1970-01-01T00:50:28.000Z</time>
      </trkpt>
      <trkpt lat="45.43537" lon="4.6228">
        <ele>888.7</ele>
        <time>1970-01-01T00:50:31.000Z</time>
      </trkpt>
      <trkpt lat="45.43535" lon="4.62276">
        <ele>889</ele>
        <time>1970-01-01T00:50:36.000Z</time>
      </trkpt>
      <trkpt lat="45.43534" lon="4.6227">
        <ele>889.4</ele>
        <time>1970-01-01T00:50:38.000Z</time>
      </trkpt>
      <trkpt lat="45.43534" lon="4.62266">
        <ele>889.7</ele>
        <time>1970-01-01T00:50:40.000Z</time>
      </trkpt>
      <trkpt lat="45.43534" lon="4.6226">
        <ele>890</ele>
        <time>1970-01-01T00:50:43.000Z</time>
      </trkpt>
      <trkpt lat="45.43531" lon="4.62254">
        <ele>890.6</ele>
        <time>1970-01-01T00:50:45.000Z</time>
      </trkpt>
      <trkpt lat="45.43531" lon="4.6225">
        <ele>890.9</ele>
        <time>1970-01-01T00:50:46.000Z</time>
      </trkpt>
      <trkpt lat="45.43528" lon="4.62245">
        <ele>891.2</ele>
        <time>1970-01-01T00:50:48.000Z</time>
      </trkpt>
      <trkpt lat="45.43524" lon="4.62229">
        <ele>892.5</ele>
        <time>1970-01-01T00:50:50.000Z</time>
      </trkpt>
      <trkpt lat="45.43523" lon="4.6222">
        <ele>893.3</ele>
        <time>1970-01-01T00:50:52.000Z</time>
      </trkpt>
      <trkpt lat="45.43522" lon="4.62216">
        <ele>893.7</ele>
        <time>1970-01-01T00:50:53.000Z</time>
      </trkpt>
      <trkpt lat="45.4352" lon="4.6221">
        <ele>894.3</ele>
        <time>1970-01-01T00:50:54.000Z</time>
      </trkpt>
      <trkpt lat="45.4352" lon="4.62204">
        <ele>895</ele>
        <time>1970-01-01T00:50:56.000Z</time>
      </trkpt>
      <trkpt lat="45.43519" lon="4.62197">
        <ele>895.8</ele>
        <time>1970-01-01T00:50:58.000Z</time>
      </trkpt>
      <trkpt lat="45.43518" lon="4.62192">
        <ele>896.3</ele>
        <time>1970-01-01T00:50:59.000Z</time>
      </trkpt>
      <trkpt lat="45.43518" lon="4.62188">
        <ele>896.9</ele>
        <time>1970-01-01T00:51:00.000Z</time>
      </trkpt>
      <trkpt lat="45.43517" lon="4.62183">
        <ele>897.6</ele>
        <time>1970-01-01T00:51:04.000Z</time>
      </trkpt>
      <trkpt lat="45.43516" lon="4.62178">
        <ele>898.2</ele>
        <time>1970-01-01T00:51:06.000Z</time>
      </trkpt>
      <trkpt lat="45.43514" lon="4.62173">
        <ele>899</ele>
        <time>1970-01-01T00:51:08.000Z</time>
      </trkpt>
      <trkpt lat="45.43512" lon="4.62168">
        <ele>899.7</ele>
        <time>1970-01-01T00:51:10.000Z</time>
      </trkpt>
      <trkpt lat="45.43511" lon="4.62164">
        <ele>900.2</ele>
        <time>1970-01-01T00:51:12.000Z</time>
      </trkpt>
      <trkpt lat="45.4351" lon="4.62156">
        <ele>901.2</ele>
        <time>1970-01-01T00:51:14.000Z</time>
      </trkpt>
      <trkpt lat="45.4351" lon="4.6215">
        <ele>901.9</ele>
        <time>1970-01-01T00:51:16.000Z</time>
      </trkpt>
      <trkpt lat="45.43509" lon="4.62145">
        <ele>902.4</ele>
        <time>1970-01-01T00:51:18.000Z</time>
      </trkpt>
      <trkpt lat="45.43508" lon="4.62141">
        <ele>902.8</ele>
        <time>1970-01-01T00:51:21.000Z</time>
      </trkpt>
      <trkpt lat="45.43507" lon="4.62137">
        <ele>903.2</ele>
        <time>1970-01-01T00:51:23.000Z</time>
      </trkpt>
      <trkpt lat="45.43507" lon="4.62133">
        <ele>903.7</ele>
        <time>1970-01-01T00:51:25.000Z</time>
      </trkpt>
      <trkpt lat="45.43506" lon="4.62129">
        <ele>904.1</ele>
        <time>1970-01-01T00:51:27.000Z</time>
      </trkpt>
      <trkpt lat="45.43503" lon="4.62127">
        <ele>904.7</ele>
        <time>1970-01-01T00:51:31.000Z</time>
      </trkpt>
      <trkpt lat="45.43501" lon="4.62123">
        <ele>905.2</ele>
        <time>1970-01-01T00:51:37.000Z</time>
      </trkpt>
      <trkpt lat="45.43501" lon="4.62119">
        <ele>905.7</ele>
        <time>1970-01-01T00:52:11.000Z</time>
      </trkpt>
      <trkpt lat="45.43501" lon="4.62116">
        <ele>906.1</ele>
        <time>1970-01-01T00:52:17.000Z</time>
      </trkpt>
      <trkpt lat="45.43496" lon="4.62114">
        <ele>906.9</ele>
        <time>1970-01-01T00:52:24.000Z</time>
      </trkpt>
      <trkpt lat="45.43491" lon="4.62116">
        <ele>907.8</ele>
        <time>1970-01-01T00:52:27.000Z</time>
      </trkpt>
      <trkpt lat="45.43488" lon="4.62117">
        <ele>908.3</ele>
        <time>1970-01-01T00:52:31.000Z</time>
      </trkpt>
      <trkpt lat="45.43486" lon="4.62115">
        <ele>908.9</ele>
        <time>1970-01-01T00:52:36.000Z</time>
      </trkpt>
      <trkpt lat="45.43487" lon="4.62111">
        <ele>909.6</ele>
        <time>1970-01-01T00:52:43.000Z</time>
      </trkpt>
      <trkpt lat="45.43484" lon="4.6211">
        <ele>910.1</ele>
        <time>1970-01-01T00:52:46.000Z</time>
      </trkpt>
      <trkpt lat="45.43483" lon="4.62106">
        <ele>910.6</ele>
        <time>1970-01-01T00:52:48.000Z</time>
      </trkpt>
      <trkpt lat="45.43481" lon="4.62108">
        <ele>911</ele>
        <time>1970-01-01T00:52:51.000Z</time>
      </trkpt>
      <trkpt lat="45.43477" lon="4.62109">
        <ele>911.5</ele>
        <time>1970-01-01T00:52:54.000Z</time>
      </trkpt>
      <trkpt lat="45.43475" lon="4.62112">
        <ele>911.5</ele>
        <time>1970-01-01T00:52:57.000Z</time>
      </trkpt>
      <trkpt lat="45.43472" lon="4.62106">
        <ele>912.2</ele>
        <time>1970-01-01T00:53:03.000Z</time>
      </trkpt>
      <trkpt lat="45.4347" lon="4.62103">
        <ele>912.8</ele>
        <time>1970-01-01T00:53:06.000Z</time>
      </trkpt>
      <trkpt lat="45.43467" lon="4.62101">
        <ele>913.4</ele>
        <time>1970-01-01T00:53:11.000Z</time>
      </trkpt>
      <trkpt lat="45.43463" lon="4.621">
        <ele>914.1</ele>
        <time>1970-01-01T00:53:14.000Z</time>
      </trkpt>
      <trkpt lat="45.4346" lon="4.62099">
        <ele>915.7</ele>
        <time>1970-01-01T00:53:17.000Z</time>
      </trkpt>
      <trkpt lat="45.43456" lon="4.62097">
        <ele>916.5</ele>
        <time>1970-01-01T00:53:21.000Z</time>
      </trkpt>
      <trkpt lat="45.43453" lon="4.62096">
        <ele>917.3</ele>
        <time>1970-01-01T00:53:24.000Z</time>
      </trkpt>
      <trkpt lat="45.4345" lon="4.62095">
        <ele>918.1</ele>
        <time>1970-01-01T00:53:27.000Z</time>
      </trkpt>
      <trkpt lat="45.43447" lon="4.62093">
        <ele>918.9</ele>
        <time>1970-01-01T00:53:37.000Z</time>
      </trkpt>
      <trkpt lat="45.43444" lon="4.6209">
        <ele>919.6</ele>
        <time>1970-01-01T00:53:39.000Z</time>
      </trkpt>
      <trkpt lat="45.43441" lon="4.6209">
        <ele>920.4</ele>
        <time>1970-01-01T00:53:42.000Z</time>
      </trkpt>
      <trkpt lat="45.43438" lon="4.62088">
        <ele>921.3</ele>
        <time>1970-01-01T00:53:48.000Z</time>
      </trkpt>
      <trkpt lat="45.43437" lon="4.62082">
        <ele>921.1</ele>
        <time>1970-01-01T00:53:54.000Z</time>
      </trkpt>
      <trkpt lat="45.43433" lon="4.6208">
        <ele>923.1</ele>
        <time>1970-01-01T00:54:00.000Z</time>
      </trkpt>
      <trkpt lat="45.43429" lon="4.62079">
        <ele>924.2</ele>
        <time>1970-01-01T00:54:15.000Z</time>
      </trkpt>
      <trkpt lat="45.43426" lon="4.62078">
        <ele>925.2</ele>
        <time>1970-01-01T00:54:17.000Z</time>
      </trkpt>
      <trkpt lat="45.43424" lon="4.62077">
        <ele>926.2</ele>
        <time>1970-01-01T00:54:19.000Z</time>
      </trkpt>
      <trkpt lat="45.4342" lon="4.62074">
        <ele>927.2</ele>
        <time>1970-01-01T00:54:25.000Z</time>
      </trkpt>
      <trkpt lat="45.43416" lon="4.62075">
        <ele>928.1</ele>
        <time>1970-01-01T00:54:28.000Z</time>
      </trkpt>
      <trkpt lat="45.43414" lon="4.62073">
        <ele>928.9</ele>
        <time>1970-01-01T00:54:31.000Z</time>
      </trkpt>
      <trkpt lat="45.43411" lon="4.6207">
        <ele>929.9</ele>
        <time>1970-01-01T00:54:35.000Z</time>
      </trkpt>
      <trkpt lat="45.43409" lon="4.6207">
        <ele>930.9</ele>
        <time>1970-01-01T00:54:38.000Z</time>
      </trkpt>
      <trkpt lat="45.43407" lon="4.62066">
        <ele>930.9</ele>
        <time>1970-01-01T00:54:47.000Z</time>
      </trkpt>
      <trkpt lat="45.43405" lon="4.62069">
        <ele>931.9</ele>
        <time>1970-01-01T00:55:06.000Z</time>
      </trkpt>
      <trkpt lat="45.43402" lon="4.62067">
        <ele>933</ele>
        <time>1970-01-01T00:55:14.000Z</time>
      </trkpt>
      <trkpt lat="45.43399" lon="4.62063">
        <ele>934.1</ele>
        <time>1970-01-01T00:55:17.000Z</time>
      </trkpt>
      <trkpt lat="45.43396" lon="4.62063">
        <ele>935</ele>
        <time>1970-01-01T00:55:22.000Z</time>
      </trkpt>
      <trkpt lat="45.43392" lon="4.62064">
        <ele>935.9</ele>
        <time>1970-01-01T00:55:25.000Z</time>
      </trkpt>
      <trkpt lat="45.43389" lon="4.62066">
        <ele>936.7</ele>
        <time>1970-01-01T00:55:38.000Z</time>
      </trkpt>
      <trkpt lat="45.43386" lon="4.62064">
        <ele>937.6</ele>
        <time>1970-01-01T00:55:41.000Z</time>
      </trkpt>
      <trkpt lat="45.43383" lon="4.62063">
        <ele>938.5</ele>
        <time>1970-01-01T00:55:44.000Z</time>
      </trkpt>
      <trkpt lat="45.43381" lon="4.62061">
        <ele>939.7</ele>
        <time>1970-01-01T00:55:48.000Z</time>
      </trkpt>
      <trkpt lat="45.43377" lon="4.62059">
        <ele>940.7</ele>
        <time>1970-01-01T00:55:56.000Z</time>
      </trkpt>
      <trkpt lat="45.43375" lon="4.62054">
        <ele>942.2</ele>
        <time>1970-01-01T00:56:01.000Z</time>
      </trkpt>
      <trkpt lat="45.43372" lon="4.62055">
        <ele>943.3</ele>
        <time>1970-01-01T00:56:08.000Z</time>
      </trkpt>
      <trkpt lat="45.4337" lon="4.62057">
        <ele>943.9</ele>
        <time>1970-01-01T00:56:13.000Z</time>
      </trkpt>
      <trkpt lat="45.43367" lon="4.62057">
        <ele>943.9</ele>
        <time>1970-01-01T00:56:21.000Z</time>
      </trkpt>
      <trkpt lat="45.43364" lon="4.62056">
        <ele>945.2</ele>
        <time>1970-01-01T00:56:24.000Z</time>
      </trkpt>
      <trkpt lat="45.43359" lon="4.62056">
        <ele>946.9</ele>
        <time>1970-01-01T00:56:28.000Z</time>
      </trkpt>
      <trkpt lat="45.43356" lon="4.62058">
        <ele>947.3</ele>
        <time>1970-01-01T00:56:30.000Z</time>
      </trkpt>
      <trkpt lat="45.43353" lon="4.62058">
        <ele>948.2</ele>
        <time>1970-01-01T00:56:32.000Z</time>
      </trkpt>
      <trkpt lat="45.43351" lon="4.62055">
        <ele>949.6</ele>
        <time>1970-01-01T00:56:36.000Z</time>
      </trkpt>
      <trkpt lat="45.43348" lon="4.62054">
        <ele>950.6</ele>
        <time>1970-01-01T00:56:39.000Z</time>
      </trkpt>
      <trkpt lat="45.43345" lon="4.62054">
        <ele>951.5</ele>
        <time>1970-01-01T00:56:41.000Z</time>
      </trkpt>
      <trkpt lat="45.43341" lon="4.62055">
        <ele>952.4</ele>
        <time>1970-01-01T00:56:43.000Z</time>
      </trkpt>
      <trkpt lat="45.43338" lon="4.62059">
        <ele>952.7</ele>
        <time>1970-01-01T00:56:46.000Z</time>
      </trkpt>
      <trkpt lat="45.43335" lon="4.62055">
        <ele>954</ele>
        <time>1970-01-01T00:56:54.000Z</time>
      </trkpt>
      <trkpt lat="45.43334" lon="4.62052">
        <ele>954.5</ele>
        <time>1970-01-01T00:56:58.000Z</time>
      </trkpt>
      <trkpt lat="45.43331" lon="4.62052">
        <ele>955.2</ele>
        <time>1970-01-01T00:57:00.000Z</time>
      </trkpt>
      <trkpt lat="45.43327" lon="4.62052">
        <ele>956.7</ele>
        <time>1970-01-01T00:57:02.000Z</time>
      </trkpt>
      <trkpt lat="45.43324" lon="4.62053">
        <ele>957</ele>
        <time>1970-01-01T00:57:05.000Z</time>
      </trkpt>
      <trkpt lat="45.43321" lon="4.62055">
        <ele>957.8</ele>
        <time>1970-01-01T00:57:16.000Z</time>
      </trkpt>
      <trkpt lat="45.43318" lon="4.62054">
        <ele>958.7</ele>
        <time>1970-01-01T00:57:20.000Z</time>
      </trkpt>
      <trkpt lat="45.43315" lon="4.62054">
        <ele>959.5</ele>
        <time>1970-01-01T00:57:23.000Z</time>
      </trkpt>
      <trkpt lat="45.43312" lon="4.62053">
        <ele>960.2</ele>
        <time>1970-01-01T00:57:26.000Z</time>
      </trkpt>
      <trkpt lat="45.43309" lon="4.62052">
        <ele>960.9</ele>
        <time>1970-01-01T00:57:33.000Z</time>
      </trkpt>
      <trkpt lat="45.43306" lon="4.62054">
        <ele>961.5</ele>
        <time>1970-01-01T00:57:36.000Z</time>
      </trkpt>
      <trkpt lat="45.43303" lon="4.62054">
        <ele>962.1</ele>
        <time>1970-01-01T00:57:38.000Z</time>
      </trkpt>
      <trkpt lat="45.43299" lon="4.62054">
        <ele>962.8</ele>
        <time>1970-01-01T00:57:40.000Z</time>
      </trkpt>
      <trkpt lat="45.43296" lon="4.62054">
        <ele>963.6</ele>
        <time>1970-01-01T00:57:43.000Z</time>
      </trkpt>
      <trkpt lat="45.43293" lon="4.62054">
        <ele>964.4</ele>
        <time>1970-01-01T00:57:45.000Z</time>
      </trkpt>
      <trkpt lat="45.43289" lon="4.62055">
        <ele>965.2</ele>
        <time>1970-01-01T00:57:48.000Z</time>
      </trkpt>
      <trkpt lat="45.43285" lon="4.62054">
        <ele>966.1</ele>
        <time>1970-01-01T00:57:54.000Z</time>
      </trkpt>
      <trkpt lat="45.43282" lon="4.62054">
        <ele>966.9</ele>
        <time>1970-01-01T00:57:57.000Z</time>
      </trkpt>
      <trkpt lat="45.43279" lon="4.62053">
        <ele>968.4</ele>
        <time>1970-01-01T00:58:00.000Z</time>
      </trkpt>
      <trkpt lat="45.43275" lon="4.62053">
        <ele>969.1</ele>
        <time>1970-01-01T00:58:10.000Z</time>
      </trkpt>
      <trkpt lat="45.43272" lon="4.62055">
        <ele>969.9</ele>
        <time>1970-01-01T00:58:15.000Z</time>
      </trkpt>
      <trkpt lat="45.4327" lon="4.62052">
        <ele>970.5</ele>
        <time>1970-01-01T00:58:18.000Z</time>
      </trkpt>
      <trkpt lat="45.43268" lon="4.62052">
        <ele>970.9</ele>
        <time>1970-01-01T00:58:24.000Z</time>
      </trkpt>
      <trkpt lat="45.43264" lon="4.62052">
        <ele>972.4</ele>
        <time>1970-01-01T00:58:29.000Z</time>
      </trkpt>
      <trkpt lat="45.43261" lon="4.62052">
        <ele>973.4</ele>
        <time>1970-01-01T00:58:32.000Z</time>
      </trkpt>
      <trkpt lat="45.43259" lon="4.6205">
        <ele>974.4</ele>
        <time>1970-01-01T00:58:35.000Z</time>
      </trkpt>
      <trkpt lat="45.43256" lon="4.6205">
        <ele>975.5</ele>
        <time>1970-01-01T00:58:37.000Z</time>
      </trkpt>
      <trkpt lat="45.43253" lon="4.62052">
        <ele>976.5</ele>
        <time>1970-01-01T00:58:45.000Z</time>
      </trkpt>
      <trkpt lat="45.4325" lon="4.62052">
        <ele>977.4</ele>
        <time>1970-01-01T00:58:50.000Z</time>
      </trkpt>
      <trkpt lat="45.43247" lon="4.62051">
        <ele>978.3</ele>
        <time>1970-01-01T00:58:53.000Z</time>
      </trkpt>
      <trkpt lat="45.43244" lon="4.62051">
        <ele>979.3</ele>
        <time>1970-01-01T00:58:56.000Z</time>
      </trkpt>
      <trkpt lat="45.43241" lon="4.62053">
        <ele>980.1</ele>
        <time>1970-01-01T00:58:58.000Z</time>
      </trkpt>
      <trkpt lat="45.43239" lon="4.62055">
        <ele>981.2</ele>
        <time>1970-01-01T00:59:00.000Z</time>
      </trkpt>
      <trkpt lat="45.43236" lon="4.62054">
        <ele>982.4</ele>
        <time>1970-01-01T00:59:10.000Z</time>
      </trkpt>
      <trkpt lat="45.43233" lon="4.62056">
        <ele>983.6</ele>
        <time>1970-01-01T00:59:13.000Z</time>
      </trkpt>
      <trkpt lat="45.43231" lon="4.62057">
        <ele>984.4</ele>
        <time>1970-01-01T00:59:16.000Z</time>
      </trkpt>
      <trkpt lat="45.43228" lon="4.62054">
        <ele>985.8</ele>
        <time>1970-01-01T00:59:20.000Z</time>
      </trkpt>
      <trkpt lat="45.43224" lon="4.62053">
        <ele>986.9</ele>
        <time>1970-01-01T00:59:22.000Z</time>
      </trkpt>
      <trkpt lat="45.43222" lon="4.62053">
        <ele>987.9</ele>
        <time>1970-01-01T00:59:42.000Z</time>
      </trkpt>
      <trkpt lat="45.43218" lon="4.62051">
        <ele>989.2</ele>
        <time>1970-01-01T00:59:46.000Z</time>
      </trkpt>
      <trkpt lat="45.43214" lon="4.62052">
        <ele>990.3</ele>
        <time>1970-01-01T00:59:49.000Z</time>
      </trkpt>
      <trkpt lat="45.43218" lon="4.6205">
        <ele>989.2</ele>
        <time>1970-01-01T00:59:57.000Z</time>
      </trkpt>
      <trkpt lat="45.43216" lon="4.62053">
        <ele>990</ele>
        <time>1970-01-01T01:00:02.000Z</time>
      </trkpt>
      <trkpt lat="45.43215" lon="4.62049">
        <ele>990.3</ele>
        <time>1970-01-01T01:00:22.000Z</time>
      </trkpt>
      <trkpt lat="45.43214" lon="4.62045">
        <ele>990.5</ele>
        <time>1970-01-01T01:00:25.000Z</time>
      </trkpt>
      <trkpt lat="45.43211" lon="4.62044">
        <ele>991.7</ele>
        <time>1970-01-01T01:00:29.000Z</time>
      </trkpt>
      <trkpt lat="45.43207" lon="4.62042">
        <ele>992.7</ele>
        <time>1970-01-01T01:00:34.000Z</time>
      </trkpt>
      <trkpt lat="45.43203" lon="4.62044">
        <ele>994.5</ele>
        <time>1970-01-01T01:00:37.000Z</time>
      </trkpt>
      <trkpt lat="45.432" lon="4.62044">
        <ele>995.5</ele>
        <time>1970-01-01T01:00:38.000Z</time>
      </trkpt>
      <trkpt lat="45.43197" lon="4.62044">
        <ele>996.1</ele>
        <time>1970-01-01T01:00:39.000Z</time>
      </trkpt>
      <trkpt lat="45.43193" lon="4.62041">
        <ele>996.9</ele>
        <time>1970-01-01T01:00:41.000Z</time>
      </trkpt>
      <trkpt lat="45.4319" lon="4.6204">
        <ele>997.6</ele>
        <time>1970-01-01T01:00:43.000Z</time>
      </trkpt>
      <trkpt lat="45.43187" lon="4.62042">
        <ele>998.4</ele>
        <time>1970-01-01T01:00:46.000Z</time>
      </trkpt>
      <trkpt lat="45.43184" lon="4.6204">
        <ele>999.3</ele>
        <time>1970-01-01T01:00:49.000Z</time>
      </trkpt>
      <trkpt lat="45.43181" lon="4.6204">
        <ele>1000.1</ele>
        <time>1970-01-01T01:00:52.000Z</time>
      </trkpt>
      <trkpt lat="45.43179" lon="4.62043">
        <ele>1001</ele>
        <time>1970-01-01T01:00:55.000Z</time>
      </trkpt>
      <trkpt lat="45.43176" lon="4.62044">
        <ele>1002</ele>
        <time>1970-01-01T01:01:08.000Z</time>
      </trkpt>
      <trkpt lat="45.43174" lon="4.62048">
        <ele>1002</ele>
        <time>1970-01-01T01:01:18.000Z</time>
      </trkpt>
      <trkpt lat="45.4317" lon="4.6205">
        <ele>1003.5</ele>
        <time>1970-01-01T01:01:23.000Z</time>
      </trkpt>
      <trkpt lat="45.43167" lon="4.62051">
        <ele>1004</ele>
        <time>1970-01-01T01:01:25.000Z</time>
      </trkpt>
      <trkpt lat="45.43163" lon="4.62051">
        <ele>1004.5</ele>
        <time>1970-01-01T01:01:44.000Z</time>
      </trkpt>
      <trkpt lat="45.4316" lon="4.62051">
        <ele>1005.1</ele>
        <time>1970-01-01T01:01:47.000Z</time>
      </trkpt>
      <trkpt lat="45.43157" lon="4.62051">
        <ele>1005.6</ele>
        <time>1970-01-01T01:01:54.000Z</time>
      </trkpt>
      <trkpt lat="45.43154" lon="4.62051">
        <ele>1006.2</ele>
        <time>1970-01-01T01:02:28.000Z</time>
      </trkpt>
      <trkpt lat="45.4315" lon="4.62049">
        <ele>1006.8</ele>
        <time>1970-01-01T01:02:52.000Z</time>
      </trkpt>
      <trkpt lat="45.43147" lon="4.62047">
        <ele>1007.1</ele>
        <time>1970-01-01T01:02:55.000Z</time>
      </trkpt>
      <trkpt lat="45.43144" lon="4.62046">
        <ele>1007.6</ele>
        <time>1970-01-01T01:03:06.000Z</time>
      </trkpt>
      <trkpt lat="45.43147" lon="4.62044">
        <ele>1007.6</ele>
        <time>1970-01-01T01:03:25.000Z</time>
      </trkpt>
      <trkpt lat="45.43148" lon="4.6204">
        <ele>1006.9</ele>
        <time>1970-01-01T01:03:29.000Z</time>
      </trkpt>
      <trkpt lat="45.43147" lon="4.62036">
        <ele>1007.1</ele>
        <time>1970-01-01T01:03:32.000Z</time>
      </trkpt>
      <trkpt lat="45.43145" lon="4.62033">
        <ele>1006.8</ele>
        <time>1970-01-01T01:03:35.000Z</time>
      </trkpt>
      <trkpt lat="45.43142" lon="4.6203">
        <ele>1006.9</ele>
        <time>1970-01-01T01:03:39.000Z</time>
      </trkpt>
      <trkpt lat="45.43138" lon="4.62031">
        <ele>1007.2</ele>
        <time>1970-01-01T01:03:42.000Z</time>
      </trkpt>
      <trkpt lat="45.43135" lon="4.62029">
        <ele>1007.5</ele>
        <time>1970-01-01T01:03:50.000Z</time>
      </trkpt>
      <trkpt lat="45.43134" lon="4.62024">
        <ele>1007.5</ele>
        <time>1970-01-01T01:03:57.000Z</time>
      </trkpt>
      <trkpt lat="45.43132" lon="4.6202">
        <ele>1007.3</ele>
        <time>1970-01-01T01:04:01.000Z</time>
      </trkpt>
      <trkpt lat="45.43131" lon="4.62016">
        <ele>1007.4</ele>
        <time>1970-01-01T01:04:04.000Z</time>
      </trkpt>
      <trkpt lat="45.43129" lon="4.62011">
        <ele>1007.3</ele>
        <time>1970-01-01T01:04:08.000Z</time>
      </trkpt>
      <trkpt lat="45.43127" lon="4.62009">
        <ele>1007.7</ele>
        <time>1970-01-01T01:04:11.000Z</time>
      </trkpt>
      <trkpt lat="45.43126" lon="4.62005">
        <ele>1007.8</ele>
        <time>1970-01-01T01:04:13.000Z</time>
      </trkpt>
      <trkpt lat="45.43124" lon="4.62">
        <ele>1008.3</ele>
        <time>1970-01-01T01:04:20.000Z</time>
      </trkpt>
      <trkpt lat="45.43123" lon="4.61996">
        <ele>1008.8</ele>
        <time>1970-01-01T01:04:22.000Z</time>
      </trkpt>
      <trkpt lat="45.4312" lon="4.61993">
        <ele>1008.8</ele>
        <time>1970-01-01T01:04:25.000Z</time>
      </trkpt>
      <trkpt lat="45.43117" lon="4.6199">
        <ele>1009.3</ele>
        <time>1970-01-01T01:04:28.000Z</time>
      </trkpt>
      <trkpt lat="45.43113" lon="4.61988">
        <ele>1010</ele>
        <time>1970-01-01T01:04:30.000Z</time>
      </trkpt>
      <trkpt lat="45.4311" lon="4.61986">
        <ele>1010.4</ele>
        <time>1970-01-01T01:04:32.000Z</time>
      </trkpt>
      <trkpt lat="45.43107" lon="4.61983">
        <ele>1010.7</ele>
        <time>1970-01-01T01:04:35.000Z</time>
      </trkpt>
      <trkpt lat="45.43106" lon="4.6198">
        <ele>1010.7</ele>
        <time>1970-01-01T01:04:37.000Z</time>
      </trkpt>
      <trkpt lat="45.43102" lon="4.61976">
        <ele>1011.2</ele>
        <time>1970-01-01T01:04:39.000Z</time>
      </trkpt>
      <trkpt lat="45.43099" lon="4.61973">
        <ele>1011.7</ele>
        <time>1970-01-01T01:04:42.000Z</time>
      </trkpt>
      <trkpt lat="45.43097" lon="4.61969">
        <ele>1012.3</ele>
        <time>1970-01-01T01:04:44.000Z</time>
      </trkpt>
      <trkpt lat="45.43096" lon="4.61966">
        <ele>1012.4</ele>
        <time>1970-01-01T01:04:46.000Z</time>
      </trkpt>
      <trkpt lat="45.43094" lon="4.61962">
        <ele>1012.9</ele>
        <time>1970-01-01T01:04:48.000Z</time>
      </trkpt>
      <trkpt lat="45.43091" lon="4.61958">
        <ele>1013.3</ele>
        <time>1970-01-01T01:04:50.000Z</time>
      </trkpt>
      <trkpt lat="45.43089" lon="4.61954">
        <ele>1013.7</ele>
        <time>1970-01-01T01:04:53.000Z</time>
      </trkpt>
      <trkpt lat="45.43088" lon="4.61948">
        <ele>1013.7</ele>
        <time>1970-01-01T01:04:56.000Z</time>
      </trkpt>
      <trkpt lat="45.43085" lon="4.61943">
        <ele>1014</ele>
        <time>1970-01-01T01:04:58.000Z</time>
      </trkpt>
      <trkpt lat="45.43082" lon="4.61941">
        <ele>1014.3</ele>
        <time>1970-01-01T01:05:00.000Z</time>
      </trkpt>
      <trkpt lat="45.4308" lon="4.61937">
        <ele>1014.7</ele>
        <time>1970-01-01T01:05:02.000Z</time>
      </trkpt>
      <trkpt lat="45.43078" lon="4.61932">
        <ele>1014.8</ele>
        <time>1970-01-01T01:05:04.000Z</time>
      </trkpt>
      <trkpt lat="45.43075" lon="4.61929">
        <ele>1015.2</ele>
        <time>1970-01-01T01:05:06.000Z</time>
      </trkpt>
      <trkpt lat="45.43072" lon="4.61926">
        <ele>1015.6</ele>
        <time>1970-01-01T01:05:08.000Z</time>
      </trkpt>
      <trkpt lat="45.43068" lon="4.61923">
        <ele>1016</ele>
        <time>1970-01-01T01:05:11.000Z</time>
      </trkpt>
      <trkpt lat="45.43065" lon="4.61921">
        <ele>1016</ele>
        <time>1970-01-01T01:05:13.000Z</time>
      </trkpt>
      <trkpt lat="45.43062" lon="4.61919">
        <ele>1016.1</ele>
        <time>1970-01-01T01:05:15.000Z</time>
      </trkpt>
      <trkpt lat="45.43059" lon="4.61915">
        <ele>1016.2</ele>
        <time>1970-01-01T01:05:17.000Z</time>
      </trkpt>
      <trkpt lat="45.43058" lon="4.61911">
        <ele>1016.3</ele>
        <time>1970-01-01T01:05:19.000Z</time>
      </trkpt>
      <trkpt lat="45.43058" lon="4.61906">
        <ele>1016.4</ele>
        <time>1970-01-01T01:05:21.000Z</time>
      </trkpt>
      <trkpt lat="45.43058" lon="4.61899">
        <ele>1016.7</ele>
        <time>1970-01-01T01:05:23.000Z</time>
      </trkpt>
      <trkpt lat="45.43059" lon="4.61895">
        <ele>1016.8</ele>
        <time>1970-01-01T01:05:24.000Z</time>
      </trkpt>
      <trkpt lat="45.43059" lon="4.61889">
        <ele>1016.9</ele>
        <time>1970-01-01T01:05:26.000Z</time>
      </trkpt>
      <trkpt lat="45.43059" lon="4.61882">
        <ele>1017</ele>
        <time>1970-01-01T01:05:28.000Z</time>
      </trkpt>
      <trkpt lat="45.43058" lon="4.61878">
        <ele>1017</ele>
        <time>1970-01-01T01:05:29.000Z</time>
      </trkpt>
      <trkpt lat="45.43059" lon="4.61872">
        <ele>1016.9</ele>
        <time>1970-01-01T01:05:31.000Z</time>
      </trkpt>
      <trkpt lat="45.43059" lon="4.61866">
        <ele>1016.7</ele>
        <time>1970-01-01T01:05:33.000Z</time>
      </trkpt>
      <trkpt lat="45.43058" lon="4.61862">
        <ele>1016.6</ele>
        <time>1970-01-01T01:05:34.000Z</time>
      </trkpt>
      <trkpt lat="45.43057" lon="4.61858">
        <ele>1016.3</ele>
        <time>1970-01-01T01:05:35.000Z</time>
      </trkpt>
      <trkpt lat="45.43057" lon="4.61852">
        <ele>1016.1</ele>
        <time>1970-01-01T01:05:36.000Z</time>
      </trkpt>
      <trkpt lat="45.43057" lon="4.61848">
        <ele>1015.8</ele>
        <time>1970-01-01T01:05:37.000Z</time>
      </trkpt>
      <trkpt lat="45.43057" lon="4.61842">
        <ele>1015.3</ele>
        <time>1970-01-01T01:05:39.000Z</time>
      </trkpt>
      <trkpt lat="45.43058" lon="4.61837">
        <ele>1014.9</ele>
        <time>1970-01-01T01:05:41.000Z</time>
      </trkpt>
      <trkpt lat="45.43056" lon="4.61831">
        <ele>1014.5</ele>
        <time>1970-01-01T01:05:43.000Z</time>
      </trkpt>
      <trkpt lat="45.43053" lon="4.61826">
        <ele>1014.1</ele>
        <time>1970-01-01T01:05:45.000Z</time>
      </trkpt>
      <trkpt lat="45.4305" lon="4.61822">
        <ele>1013.6</ele>
        <time>1970-01-01T01:05:47.000Z</time>
      </trkpt>
      <trkpt lat="45.43047" lon="4.61817">
        <ele>1013.2</ele>
        <time>1970-01-01T01:05:49.000Z</time>
      </trkpt>
      <trkpt lat="45.43044" lon="4.61815">
        <ele>1012.9</ele>
        <time>1970-01-01T01:05:51.000Z</time>
      </trkpt>
      <trkpt lat="45.43042" lon="4.61816">
        <ele>1013.1</ele>
        <time>1970-01-01T01:05:53.000Z</time>
      </trkpt>
      <trkpt lat="45.43038" lon="4.61821">
        <ele>1013.1</ele>
        <time>1970-01-01T01:05:55.000Z</time>
      </trkpt>
      <trkpt lat="45.43036" lon="4.61826">
        <ele>1013.3</ele>
        <time>1970-01-01T01:05:57.000Z</time>
      </trkpt>
      <trkpt lat="45.43032" lon="4.61831">
        <ele>1013.1</ele>
        <time>1970-01-01T01:05:59.000Z</time>
      </trkpt>
      <trkpt lat="45.4303" lon="4.61835">
        <ele>1013.2</ele>
        <time>1970-01-01T01:06:01.000Z</time>
      </trkpt>
      <trkpt lat="45.43027" lon="4.61838">
        <ele>1013.1</ele>
        <time>1970-01-01T01:06:02.000Z</time>
      </trkpt>
      <trkpt lat="45.43024" lon="4.61841">
        <ele>1012.8</ele>
        <time>1970-01-01T01:06:03.000Z</time>
      </trkpt>
      <trkpt lat="45.43021" lon="4.61844">
        <ele>1012.7</ele>
        <time>1970-01-01T01:06:04.000Z</time>
      </trkpt>
      <trkpt lat="45.43019" lon="4.61847">
        <ele>1012.6</ele>
        <time>1970-01-01T01:06:05.000Z</time>
      </trkpt>
      <trkpt lat="45.43016" lon="4.61853">
        <ele>1012.5</ele>
        <time>1970-01-01T01:06:07.000Z</time>
      </trkpt>
      <trkpt lat="45.43013" lon="4.61858">
        <ele>1012.5</ele>
        <time>1970-01-01T01:06:09.000Z</time>
      </trkpt>
      <trkpt lat="45.4301" lon="4.61862">
        <ele>1012.3</ele>
        <time>1970-01-01T01:06:10.000Z</time>
      </trkpt>
      <trkpt lat="45.43007" lon="4.61866">
        <ele>1012.1</ele>
        <time>1970-01-01T01:06:11.000Z</time>
      </trkpt>
      <trkpt lat="45.43004" lon="4.61869">
        <ele>1011.8</ele>
        <time>1970-01-01T01:06:12.000Z</time>
      </trkpt>
      <trkpt lat="45.43002" lon="4.61872">
        <ele>1011.5</ele>
        <time>1970-01-01T01:06:13.000Z</time>
      </trkpt>
      <trkpt lat="45.42999" lon="4.61877">
        <ele>1011.1</ele>
        <time>1970-01-01T01:06:15.000Z</time>
      </trkpt>
      <trkpt lat="45.42996" lon="4.61878">
        <ele>1010.7</ele>
        <time>1970-01-01T01:06:16.000Z</time>
      </trkpt>
      <trkpt lat="45.42994" lon="4.61881">
        <ele>1010.6</ele>
        <time>1970-01-01T01:06:17.000Z</time>
      </trkpt>
      <trkpt lat="45.42992" lon="4.61884">
        <ele>1010.2</ele>
        <time>1970-01-01T01:06:18.000Z</time>
      </trkpt>
      <trkpt lat="45.42989" lon="4.61887">
        <ele>1010</ele>
        <time>1970-01-01T01:06:19.000Z</time>
      </trkpt>
      <trkpt lat="45.42987" lon="4.61888">
        <ele>1009.7</ele>
        <time>1970-01-01T01:06:20.000Z</time>
      </trkpt>
      <trkpt lat="45.42982" lon="4.61892">
        <ele>1009.7</ele>
        <time>1970-01-01T01:06:22.000Z</time>
      </trkpt>
      <trkpt lat="45.42979" lon="4.61893">
        <ele>1009.5</ele>
        <time>1970-01-01T01:06:23.000Z</time>
      </trkpt>
      <trkpt lat="45.42974" lon="4.61894">
        <ele>1009.5</ele>
        <time>1970-01-01T01:06:25.000Z</time>
      </trkpt>
      <trkpt lat="45.42971" lon="4.61895">
        <ele>1009.3</ele>
        <time>1970-01-01T01:06:26.000Z</time>
      </trkpt>
      <trkpt lat="45.42966" lon="4.61896">
        <ele>1009</ele>
        <time>1970-01-01T01:06:28.000Z</time>
      </trkpt>
      <trkpt lat="45.42962" lon="4.61896">
        <ele>1008.8</ele>
        <time>1970-01-01T01:06:29.000Z</time>
      </trkpt>
      <trkpt lat="45.42958" lon="4.61895">
        <ele>1008.7</ele>
        <time>1970-01-01T01:06:30.000Z</time>
      </trkpt>
      <trkpt lat="45.42954" lon="4.61895">
        <ele>1008.7</ele>
        <time>1970-01-01T01:06:31.000Z</time>
      </trkpt>
      <trkpt lat="45.42951" lon="4.61896">
        <ele>1008.8</ele>
        <time>1970-01-01T01:06:32.000Z</time>
      </trkpt>
      <trkpt lat="45.42947" lon="4.61897">
        <ele>1008.9</ele>
        <time>1970-01-01T01:06:33.000Z</time>
      </trkpt>
      <trkpt lat="45.42945" lon="4.61897">
        <ele>1009.1</ele>
        <time>1970-01-01T01:06:34.000Z</time>
      </trkpt>
      <trkpt lat="45.42941" lon="4.619">
        <ele>1009.8</ele>
        <time>1970-01-01T01:06:35.000Z</time>
      </trkpt>
      <trkpt lat="45.42938" lon="4.61901">
        <ele>1010.1</ele>
        <time>1970-01-01T01:06:36.000Z</time>
      </trkpt>
      <trkpt lat="45.42935" lon="4.61903">
        <ele>1011</ele>
        <time>1970-01-01T01:06:37.000Z</time>
      </trkpt>
      <trkpt lat="45.42932" lon="4.61905">
        <ele>1011.5</ele>
        <time>1970-01-01T01:06:38.000Z</time>
      </trkpt>
      <trkpt lat="45.42929" lon="4.61907">
        <ele>1012.5</ele>
        <time>1970-01-01T01:06:39.000Z</time>
      </trkpt>
      <trkpt lat="45.42926" lon="4.61909">
        <ele>1013</ele>
        <time>1970-01-01T01:06:40.000Z</time>
      </trkpt>
      <trkpt lat="45.42924" lon="4.61911">
        <ele>1014</ele>
        <time>1970-01-01T01:06:41.000Z</time>
      </trkpt>
      <trkpt lat="45.42919" lon="4.61915">
        <ele>1014.4</ele>
        <time>1970-01-01T01:06:43.000Z</time>
      </trkpt>
      <trkpt lat="45.42916" lon="4.61917">
        <ele>1015.1</ele>
        <time>1970-01-01T01:06:44.000Z</time>
      </trkpt>
      <trkpt lat="45.42913" lon="4.61919">
        <ele>1015.3</ele>
        <time>1970-01-01T01:06:45.000Z</time>
      </trkpt>
      <trkpt lat="45.42909" lon="4.61923">
        <ele>1015.8</ele>
        <time>1970-01-01T01:06:47.000Z</time>
      </trkpt>
      <trkpt lat="45.42906" lon="4.61925">
        <ele>1016.2</ele>
        <time>1970-01-01T01:06:48.000Z</time>
      </trkpt>
      <trkpt lat="45.42903" lon="4.61929">
        <ele>1016.4</ele>
        <time>1970-01-01T01:06:49.000Z</time>
      </trkpt>
      <trkpt lat="45.42901" lon="4.61932">
        <ele>1016.4</ele>
        <time>1970-01-01T01:06:50.000Z</time>
      </trkpt>
      <trkpt lat="45.42899" lon="4.61935">
        <ele>1016.6</ele>
        <time>1970-01-01T01:06:51.000Z</time>
      </trkpt>
      <trkpt lat="45.42897" lon="4.61941">
        <ele>1016.8</ele>
        <time>1970-01-01T01:06:53.000Z</time>
      </trkpt>
      <trkpt lat="45.42894" lon="4.61943">
        <ele>1016.7</ele>
        <time>1970-01-01T01:06:55.000Z</time>
      </trkpt>
      <trkpt lat="45.42891" lon="4.61945">
        <ele>1016.5</ele>
        <time>1970-01-01T01:06:57.000Z</time>
      </trkpt>
      <trkpt lat="45.42888" lon="4.61947">
        <ele>1016.5</ele>
        <time>1970-01-01T01:07:00.000Z</time>
      </trkpt>
      <trkpt lat="45.42884" lon="4.61952">
        <ele>1016.3</ele>
        <time>1970-01-01T01:07:02.000Z</time>
      </trkpt>
      <trkpt lat="45.42882" lon="4.61955">
        <ele>1016.2</ele>
        <time>1970-01-01T01:07:03.000Z</time>
      </trkpt>
      <trkpt lat="45.42879" lon="4.6196">
        <ele>1016.2</ele>
        <time>1970-01-01T01:07:05.000Z</time>
      </trkpt>
      <trkpt lat="45.42877" lon="4.61966">
        <ele>1016.1</ele>
        <time>1970-01-01T01:07:07.000Z</time>
      </trkpt>
      <trkpt lat="45.42875" lon="4.6197">
        <ele>1015.9</ele>
        <time>1970-01-01T01:07:09.000Z</time>
      </trkpt>
      <trkpt lat="45.42874" lon="4.61974">
        <ele>1015.8</ele>
        <time>1970-01-01T01:07:11.000Z</time>
      </trkpt>
      <trkpt lat="45.42873" lon="4.61979">
        <ele>1015.7</ele>
        <time>1970-01-01T01:07:13.000Z</time>
      </trkpt>
      <trkpt lat="45.42871" lon="4.61982">
        <ele>1015.5</ele>
        <time>1970-01-01T01:07:17.000Z</time>
      </trkpt>
      <trkpt lat="45.42868" lon="4.6198">
        <ele>1015.4</ele>
        <time>1970-01-01T01:08:14.000Z</time>
      </trkpt>
      <trkpt lat="45.42866" lon="4.61978">
        <ele>1015.2</ele>
        <time>1970-01-01T01:08:35.000Z</time>
      </trkpt>
      <trkpt lat="45.42864" lon="4.61976">
        <ele>1015.1</ele>
        <time>1970-01-01T01:08:40.000Z</time>
      </trkpt>
      <trkpt lat="45.42858" lon="4.6197">
        <ele>1014.6</ele>
        <time>1970-01-01T01:08:43.000Z</time>
      </trkpt>
      <trkpt lat="45.42854" lon="4.61966">
        <ele>1013.8</ele>
        <time>1970-01-01T01:08:44.000Z</time>
      </trkpt>
      <trkpt lat="45.42848" lon="4.61961">
        <ele>1012.7</ele>
        <time>1970-01-01T01:08:45.000Z</time>
      </trkpt>
      <trkpt lat="45.42843" lon="4.61957">
        <ele>1012.1</ele>
        <time>1970-01-01T01:08:46.000Z</time>
      </trkpt>
      <trkpt lat="45.42837" lon="4.61951">
        <ele>1010.8</ele>
        <time>1970-01-01T01:08:47.000Z</time>
      </trkpt>
      <trkpt lat="45.42829" lon="4.61941">
        <ele>1010</ele>
        <time>1970-01-01T01:08:48.000Z</time>
      </trkpt>
      <trkpt lat="45.42823" lon="4.61932">
        <ele>1008.5</ele>
        <time>1970-01-01T01:08:49.000Z</time>
      </trkpt>
      <trkpt lat="45.42818" lon="4.61926">
        <ele>1006.8</ele>
        <time>1970-01-01T01:08:50.000Z</time>
      </trkpt>
      <trkpt lat="45.42816" lon="4.61923">
        <ele>1006.4</ele>
        <time>1970-01-01T01:08:51.000Z</time>
      </trkpt>
      <trkpt lat="45.42812" lon="4.61922">
        <ele>1004.9</ele>
        <time>1970-01-01T01:08:52.000Z</time>
      </trkpt>
      <trkpt lat="45.42808" lon="4.61919">
        <ele>1003.8</ele>
        <time>1970-01-01T01:08:53.000Z</time>
      </trkpt>
      <trkpt lat="45.42804" lon="4.61915">
        <ele>1003.1</ele>
        <time>1970-01-01T01:08:54.000Z</time>
      </trkpt>
      <trkpt lat="45.42802" lon="4.61911">
        <ele>1002.1</ele>
        <time>1970-01-01T01:08:55.000Z</time>
      </trkpt>
      <trkpt lat="45.428" lon="4.61908">
        <ele>1000.8</ele>
        <time>1970-01-01T01:08:56.000Z</time>
      </trkpt>
      <trkpt lat="45.42798" lon="4.61904">
        <ele>1000.3</ele>
        <time>1970-01-01T01:08:57.000Z</time>
      </trkpt>
      <trkpt lat="45.42795" lon="4.61902">
        <ele>999.4</ele>
        <time>1970-01-01T01:08:58.000Z</time>
      </trkpt>
      <trkpt lat="45.4279" lon="4.61903">
        <ele>997.6</ele>
        <time>1970-01-01T01:09:00.000Z</time>
      </trkpt>
      <trkpt lat="45.42786" lon="4.61902">
        <ele>996</ele>
        <time>1970-01-01T01:09:01.000Z</time>
      </trkpt>
      <trkpt lat="45.4278" lon="4.619">
        <ele>994.2</ele>
        <time>1970-01-01T01:09:02.000Z</time>
      </trkpt>
      <trkpt lat="45.42775" lon="4.61898">
        <ele>992</ele>
        <time>1970-01-01T01:09:03.000Z</time>
      </trkpt>
      <trkpt lat="45.4277" lon="4.61894">
        <ele>990.3</ele>
        <time>1970-01-01T01:09:04.000Z</time>
      </trkpt>
      <trkpt lat="45.42766" lon="4.61891">
        <ele>988.9</ele>
        <time>1970-01-01T01:09:05.000Z</time>
      </trkpt>
      <trkpt lat="45.4276" lon="4.61886">
        <ele>986.7</ele>
        <time>1970-01-01T01:09:06.000Z</time>
      </trkpt>
      <trkpt lat="45.42752" lon="4.61881">
        <ele>984.1</ele>
        <time>1970-01-01T01:09:07.000Z</time>
      </trkpt>
      <trkpt lat="45.42743" lon="4.61878">
        <ele>982.5</ele>
        <time>1970-01-01T01:09:08.000Z</time>
      </trkpt>
      <trkpt lat="45.42736" lon="4.61877">
        <ele>980.6</ele>
        <time>1970-01-01T01:09:09.000Z</time>
      </trkpt>
      <trkpt lat="45.42729" lon="4.61872">
        <ele>978.9</ele>
        <time>1970-01-01T01:09:10.000Z</time>
      </trkpt>
      <trkpt lat="45.42721" lon="4.61867">
        <ele>977.3</ele>
        <time>1970-01-01T01:09:11.000Z</time>
      </trkpt>
      <trkpt lat="45.42711" lon="4.61862">
        <ele>975.2</ele>
        <time>1970-01-01T01:09:12.000Z</time>
      </trkpt>
      <trkpt lat="45.42701" lon="4.61857">
        <ele>972.5</ele>
        <time>1970-01-01T01:09:13.000Z</time>
      </trkpt>
      <trkpt lat="45.42691" lon="4.61855">
        <ele>969.1</ele>
        <time>1970-01-01T01:09:14.000Z</time>
      </trkpt>
      <trkpt lat="45.42683" lon="4.61848">
        <ele>967.3</ele>
        <time>1970-01-01T01:09:15.000Z</time>
      </trkpt>
      <trkpt lat="45.42676" lon="4.61842">
        <ele>964.9</ele>
        <time>1970-01-01T01:09:16.000Z</time>
      </trkpt>
      <trkpt lat="45.4267" lon="4.61842">
        <ele>963.4</ele>
        <time>1970-01-01T01:09:17.000Z</time>
      </trkpt>
      <trkpt lat="45.42663" lon="4.61841">
        <ele>962.2</ele>
        <time>1970-01-01T01:09:18.000Z</time>
      </trkpt>
      <trkpt lat="45.42659" lon="4.61844">
        <ele>960.8</ele>
        <time>1970-01-01T01:09:19.000Z</time>
      </trkpt>
      <trkpt lat="45.42655" lon="4.61845">
        <ele>960.2</ele>
        <time>1970-01-01T01:09:20.000Z</time>
      </trkpt>
      <trkpt lat="45.42653" lon="4.61842">
        <ele>959.5</ele>
        <time>1970-01-01T01:09:21.000Z</time>
      </trkpt>
      <trkpt lat="45.42651" lon="4.61838">
        <ele>959.6</ele>
        <time>1970-01-01T01:09:22.000Z</time>
      </trkpt>
      <trkpt lat="45.4265" lon="4.6183">
        <ele>959.2</ele>
        <time>1970-01-01T01:09:24.000Z</time>
      </trkpt>
      <trkpt lat="45.42647" lon="4.61826">
        <ele>958.7</ele>
        <time>1970-01-01T01:09:25.000Z</time>
      </trkpt>
      <trkpt lat="45.42643" lon="4.61823">
        <ele>958.2</ele>
        <time>1970-01-01T01:09:26.000Z</time>
      </trkpt>
      <trkpt lat="45.4264" lon="4.61821">
        <ele>957.8</ele>
        <time>1970-01-01T01:09:27.000Z</time>
      </trkpt>
      <trkpt lat="45.42636" lon="4.61817">
        <ele>957.3</ele>
        <time>1970-01-01T01:09:28.000Z</time>
      </trkpt>
      <trkpt lat="45.42631" lon="4.61811">
        <ele>956.4</ele>
        <time>1970-01-01T01:09:29.000Z</time>
      </trkpt>
      <trkpt lat="45.42625" lon="4.61805">
        <ele>955.4</ele>
        <time>1970-01-01T01:09:30.000Z</time>
      </trkpt>
      <trkpt lat="45.42618" lon="4.61798">
        <ele>954.2</ele>
        <time>1970-01-01T01:09:31.000Z</time>
      </trkpt>
      <trkpt lat="45.42611" lon="4.61789">
        <ele>953</ele>
        <time>1970-01-01T01:09:32.000Z</time>
      </trkpt>
      <trkpt lat="45.42605" lon="4.61783">
        <ele>952</ele>
        <time>1970-01-01T01:09:33.000Z</time>
      </trkpt>
      <trkpt lat="45.426" lon="4.61779">
        <ele>950.7</ele>
        <time>1970-01-01T01:09:34.000Z</time>
      </trkpt>
      <trkpt lat="45.42593" lon="4.61774">
        <ele>949.5</ele>
        <time>1970-01-01T01:09:35.000Z</time>
      </trkpt>
      <trkpt lat="45.42586" lon="4.61769">
        <ele>948.1</ele>
        <time>1970-01-01T01:09:36.000Z</time>
      </trkpt>
      <trkpt lat="45.4258" lon="4.61765">
        <ele>947.5</ele>
        <time>1970-01-01T01:09:37.000Z</time>
      </trkpt>
      <trkpt lat="45.42574" lon="4.61761">
        <ele>946.8</ele>
        <time>1970-01-01T01:09:38.000Z</time>
      </trkpt>
      <trkpt lat="45.42572" lon="4.6176">
        <ele>946.6</ele>
        <time>1970-01-01T01:09:39.000Z</time>
      </trkpt>
      <trkpt lat="45.42568" lon="4.61758">
        <ele>946.1</ele>
        <time>1970-01-01T01:09:40.000Z</time>
      </trkpt>
      <trkpt lat="45.42565" lon="4.61755">
        <ele>945.6</ele>
        <time>1970-01-01T01:09:41.000Z</time>
      </trkpt>
      <trkpt lat="45.42563" lon="4.61751">
        <ele>945.4</ele>
        <time>1970-01-01T01:09:42.000Z</time>
      </trkpt>
      <trkpt lat="45.4256" lon="4.61748">
        <ele>945</ele>
        <time>1970-01-01T01:09:43.000Z</time>
      </trkpt>
      <trkpt lat="45.42557" lon="4.61743">
        <ele>944.9</ele>
        <time>1970-01-01T01:09:44.000Z</time>
      </trkpt>
      <trkpt lat="45.42554" lon="4.61738">
        <ele>944.8</ele>
        <time>1970-01-01T01:09:45.000Z</time>
      </trkpt>
      <trkpt lat="45.42548" lon="4.61736">
        <ele>944.8</ele>
        <time>1970-01-01T01:09:46.000Z</time>
      </trkpt>
      <trkpt lat="45.42541" lon="4.61736">
        <ele>944.8</ele>
        <time>1970-01-01T01:09:47.000Z</time>
      </trkpt>
      <trkpt lat="45.42533" lon="4.61738">
        <ele>944.8</ele>
        <time>1970-01-01T01:09:48.000Z</time>
      </trkpt>
      <trkpt lat="45.42526" lon="4.61741">
        <ele>944.8</ele>
        <time>1970-01-01T01:09:49.000Z</time>
      </trkpt>
      <trkpt lat="45.4252" lon="4.61741">
        <ele>944.9</ele>
        <time>1970-01-01T01:09:50.000Z</time>
      </trkpt>
      <trkpt lat="45.42514" lon="4.61742">
        <ele>944.9</ele>
        <time>1970-01-01T01:09:51.000Z</time>
      </trkpt>
      <trkpt lat="45.42509" lon="4.61742">
        <ele>945</ele>
        <time>1970-01-01T01:09:52.000Z</time>
      </trkpt>
      <trkpt lat="45.42503" lon="4.61742">
        <ele>945.5</ele>
        <time>1970-01-01T01:09:53.000Z</time>
      </trkpt>
      <trkpt lat="45.42498" lon="4.61743">
        <ele>946</ele>
        <time>1970-01-01T01:09:54.000Z</time>
      </trkpt>
      <trkpt lat="45.42493" lon="4.61745">
        <ele>946.5</ele>
        <time>1970-01-01T01:09:55.000Z</time>
      </trkpt>
      <trkpt lat="45.42489" lon="4.61747">
        <ele>947</ele>
        <time>1970-01-01T01:09:56.000Z</time>
      </trkpt>
      <trkpt lat="45.42484" lon="4.61749">
        <ele>947.6</ele>
        <time>1970-01-01T01:09:57.000Z</time>
      </trkpt>
      <trkpt lat="45.4248" lon="4.61752">
        <ele>948.2</ele>
        <time>1970-01-01T01:09:58.000Z</time>
      </trkpt>
      <trkpt lat="45.42476" lon="4.61754">
        <ele>948.9</ele>
        <time>1970-01-01T01:09:59.000Z</time>
      </trkpt>
      <trkpt lat="45.42472" lon="4.61755">
        <ele>949.3</ele>
        <time>1970-01-01T01:10:00.000Z</time>
      </trkpt>
      <trkpt lat="45.42469" lon="4.61757">
        <ele>949.6</ele>
        <time>1970-01-01T01:10:01.000Z</time>
      </trkpt>
      <trkpt lat="45.42465" lon="4.61758">
        <ele>950</ele>
        <time>1970-01-01T01:10:02.000Z</time>
      </trkpt>
      <trkpt lat="45.42461" lon="4.61759">
        <ele>950.4</ele>
        <time>1970-01-01T01:10:03.000Z</time>
      </trkpt>
      <trkpt lat="45.42457" lon="4.61761">
        <ele>950.7</ele>
        <time>1970-01-01T01:10:04.000Z</time>
      </trkpt>
      <trkpt lat="45.42454" lon="4.61763">
        <ele>951</ele>
        <time>1970-01-01T01:10:05.000Z</time>
      </trkpt>
      <trkpt lat="45.42451" lon="4.61765">
        <ele>951.3</ele>
        <time>1970-01-01T01:10:06.000Z</time>
      </trkpt>
      <trkpt lat="45.42449" lon="4.61766">
        <ele>951.6</ele>
        <time>1970-01-01T01:10:07.000Z</time>
      </trkpt>
      <trkpt lat="45.42446" lon="4.61766">
        <ele>951.8</ele>
        <time>1970-01-01T01:10:08.000Z</time>
      </trkpt>
      <trkpt lat="45.4244" lon="4.61767">
        <ele>952.3</ele>
        <time>1970-01-01T01:10:10.000Z</time>
      </trkpt>
      <trkpt lat="45.42435" lon="4.61768">
        <ele>952.8</ele>
        <time>1970-01-01T01:10:12.000Z</time>
      </trkpt>
      <trkpt lat="45.42432" lon="4.61769">
        <ele>953</ele>
        <time>1970-01-01T01:10:13.000Z</time>
      </trkpt>
      <trkpt lat="45.42428" lon="4.61772">
        <ele>953.3</ele>
        <time>1970-01-01T01:10:15.000Z</time>
      </trkpt>
      <trkpt lat="45.42424" lon="4.61773">
        <ele>953.6</ele>
        <time>1970-01-01T01:10:20.000Z</time>
      </trkpt>
      <trkpt lat="45.4242" lon="4.61776">
        <ele>953.9</ele>
        <time>1970-01-01T01:10:22.000Z</time>
      </trkpt>
      <trkpt lat="45.42418" lon="4.61779">
        <ele>954.2</ele>
        <time>1970-01-01T01:10:24.000Z</time>
      </trkpt>
      <trkpt lat="45.42414" lon="4.61781">
        <ele>954.4</ele>
        <time>1970-01-01T01:10:26.000Z</time>
      </trkpt>
      <trkpt lat="45.42409" lon="4.61783">
        <ele>954.8</ele>
        <time>1970-01-01T01:10:28.000Z</time>
      </trkpt>
      <trkpt lat="45.42406" lon="4.61786">
        <ele>955.1</ele>
        <time>1970-01-01T01:10:31.000Z</time>
      </trkpt>
      <trkpt lat="45.42402" lon="4.6179">
        <ele>955.5</ele>
        <time>1970-01-01T01:10:33.000Z</time>
      </trkpt>
      <trkpt lat="45.424" lon="4.61792">
        <ele>955.7</ele>
        <time>1970-01-01T01:10:34.000Z</time>
      </trkpt>
      <trkpt lat="45.42396" lon="4.61793">
        <ele>955.9</ele>
        <time>1970-01-01T01:10:35.000Z</time>
      </trkpt>
      <trkpt lat="45.42393" lon="4.61795">
        <ele>956.1</ele>
        <time>1970-01-01T01:10:36.000Z</time>
      </trkpt>
      <trkpt lat="45.4239" lon="4.61797">
        <ele>956.4</ele>
        <time>1970-01-01T01:10:37.000Z</time>
      </trkpt>
      <trkpt lat="45.42387" lon="4.61799">
        <ele>956.6</ele>
        <time>1970-01-01T01:10:38.000Z</time>
      </trkpt>
      <trkpt lat="45.42384" lon="4.61801">
        <ele>956.9</ele>
        <time>1970-01-01T01:10:39.000Z</time>
      </trkpt>
      <trkpt lat="45.4238" lon="4.61804">
        <ele>957.2</ele>
        <time>1970-01-01T01:10:41.000Z</time>
      </trkpt>
      <trkpt lat="45.42377" lon="4.61806">
        <ele>957.4</ele>
        <time>1970-01-01T01:10:43.000Z</time>
      </trkpt>
      <trkpt lat="45.42373" lon="4.61808">
        <ele>957.8</ele>
        <time>1970-01-01T01:10:45.000Z</time>
      </trkpt>
      <trkpt lat="45.4237" lon="4.6181">
        <ele>958</ele>
        <time>1970-01-01T01:10:46.000Z</time>
      </trkpt>
      <trkpt lat="45.42368" lon="4.61813">
        <ele>958.3</ele>
        <time>1970-01-01T01:10:48.000Z</time>
      </trkpt>
      <trkpt lat="45.42363" lon="4.61812">
        <ele>958.8</ele>
        <time>1970-01-01T01:10:50.000Z</time>
      </trkpt>
      <trkpt lat="45.42359" lon="4.61813">
        <ele>959.1</ele>
        <time>1970-01-01T01:10:52.000Z</time>
      </trkpt>
      <trkpt lat="45.42356" lon="4.61814">
        <ele>959.5</ele>
        <time>1970-01-01T01:10:54.000Z</time>
      </trkpt>
      <trkpt lat="45.42353" lon="4.61815">
        <ele>959.8</ele>
        <time>1970-01-01T01:10:56.000Z</time>
      </trkpt>
      <trkpt lat="45.42349" lon="4.61817">
        <ele>960.2</ele>
        <time>1970-01-01T01:10:58.000Z</time>
      </trkpt>
      <trkpt lat="45.42345" lon="4.6182">
        <ele>960.7</ele>
        <time>1970-01-01T01:11:00.000Z</time>
      </trkpt>
      <trkpt lat="45.4234" lon="4.61821">
        <ele>961.2</ele>
        <time>1970-01-01T01:11:02.000Z</time>
      </trkpt>
      <trkpt lat="45.42336" lon="4.61822">
        <ele>961.7</ele>
        <time>1970-01-01T01:11:04.000Z</time>
      </trkpt>
      <trkpt lat="45.42333" lon="4.61824">
        <ele>962.2</ele>
        <time>1970-01-01T01:11:05.000Z</time>
      </trkpt>
      <trkpt lat="45.42329" lon="4.61826">
        <ele>962.8</ele>
        <time>1970-01-01T01:11:07.000Z</time>
      </trkpt>
      <trkpt lat="45.42326" lon="4.61828">
        <ele>963.2</ele>
        <time>1970-01-01T01:11:09.000Z</time>
      </trkpt>
      <trkpt lat="45.42322" lon="4.61829">
        <ele>963.7</ele>
        <time>1970-01-01T01:11:11.000Z</time>
      </trkpt>
      <trkpt lat="45.42319" lon="4.6183">
        <ele>964</ele>
        <time>1970-01-01T01:11:12.000Z</time>
      </trkpt>
      <trkpt lat="45.42315" lon="4.61834">
        <ele>964.6</ele>
        <time>1970-01-01T01:11:14.000Z</time>
      </trkpt>
      <trkpt lat="45.42312" lon="4.61837">
        <ele>965</ele>
        <time>1970-01-01T01:11:17.000Z</time>
      </trkpt>
      <trkpt lat="45.42306" lon="4.61838">
        <ele>965.5</ele>
        <time>1970-01-01T01:11:19.000Z</time>
      </trkpt>
      <trkpt lat="45.42302" lon="4.61839">
        <ele>966</ele>
        <time>1970-01-01T01:11:21.000Z</time>
      </trkpt>
      <trkpt lat="45.42298" lon="4.61841">
        <ele>966.3</ele>
        <time>1970-01-01T01:11:23.000Z</time>
      </trkpt>
      <trkpt lat="45.42296" lon="4.61843">
        <ele>966.6</ele>
        <time>1970-01-01T01:11:24.000Z</time>
      </trkpt>
      <trkpt lat="45.42293" lon="4.61846">
        <ele>966.8</ele>
        <time>1970-01-01T01:11:25.000Z</time>
      </trkpt>
      <trkpt lat="45.42289" lon="4.61849">
        <ele>967.2</ele>
        <time>1970-01-01T01:11:27.000Z</time>
      </trkpt>
      <trkpt lat="45.42286" lon="4.61851">
        <ele>967.6</ele>
        <time>1970-01-01T01:11:29.000Z</time>
      </trkpt>
      <trkpt lat="45.42284" lon="4.61855">
        <ele>967.8</ele>
        <time>1970-01-01T01:11:31.000Z</time>
      </trkpt>
      <trkpt lat="45.4228" lon="4.61858">
        <ele>968.1</ele>
        <time>1970-01-01T01:11:33.000Z</time>
      </trkpt>
      <trkpt lat="45.42277" lon="4.61861">
        <ele>968.3</ele>
        <time>1970-01-01T01:11:35.000Z</time>
      </trkpt>
      <trkpt lat="45.42272" lon="4.61865">
        <ele>968.7</ele>
        <time>1970-01-01T01:11:37.000Z</time>
      </trkpt>
      <trkpt lat="45.42268" lon="4.61866">
        <ele>969</ele>
        <time>1970-01-01T01:11:39.000Z</time>
      </trkpt>
      <trkpt lat="45.42265" lon="4.61868">
        <ele>969.2</ele>
        <time>1970-01-01T01:11:41.000Z</time>
      </trkpt>
      <trkpt lat="45.42262" lon="4.61871">
        <ele>969.5</ele>
        <time>1970-01-01T01:11:43.000Z</time>
      </trkpt>
      <trkpt lat="45.42258" lon="4.61875">
        <ele>969.7</ele>
        <time>1970-01-01T01:11:45.000Z</time>
      </trkpt>
      <trkpt lat="45.42254" lon="4.61878">
        <ele>970</ele>
        <time>1970-01-01T01:11:47.000Z</time>
      </trkpt>
      <trkpt lat="45.42251" lon="4.6188">
        <ele>970.3</ele>
        <time>1970-01-01T01:11:49.000Z</time>
      </trkpt>
      <trkpt lat="45.42247" lon="4.61884">
        <ele>970.6</ele>
        <time>1970-01-01T01:11:51.000Z</time>
      </trkpt>
      <trkpt lat="45.42243" lon="4.61886">
        <ele>970.9</ele>
        <time>1970-01-01T01:11:53.000Z</time>
      </trkpt>
      <trkpt lat="45.42239" lon="4.61889">
        <ele>971.1</ele>
        <time>1970-01-01T01:11:55.000Z</time>
      </trkpt>
      <trkpt lat="45.42236" lon="4.61892">
        <ele>971.4</ele>
        <time>1970-01-01T01:11:57.000Z</time>
      </trkpt>
      <trkpt lat="45.42231" lon="4.61895">
        <ele>971.7</ele>
        <time>1970-01-01T01:11:59.000Z</time>
      </trkpt>
      <trkpt lat="45.42227" lon="4.61897">
        <ele>972.1</ele>
        <time>1970-01-01T01:12:01.000Z</time>
      </trkpt>
      <trkpt lat="45.42223" lon="4.619">
        <ele>972.6</ele>
        <time>1970-01-01T01:12:03.000Z</time>
      </trkpt>
      <trkpt lat="45.42219" lon="4.61903">
        <ele>973</ele>
        <time>1970-01-01T01:12:05.000Z</time>
      </trkpt>
      <trkpt lat="45.42216" lon="4.61905">
        <ele>973.2</ele>
        <time>1970-01-01T01:12:06.000Z</time>
      </trkpt>
      <trkpt lat="45.42213" lon="4.61907">
        <ele>973.5</ele>
        <time>1970-01-01T01:12:07.000Z</time>
      </trkpt>
      <trkpt lat="45.4221" lon="4.61908">
        <ele>973.8</ele>
        <time>1970-01-01T01:12:08.000Z</time>
      </trkpt>
      <trkpt lat="45.42206" lon="4.6191">
        <ele>974.3</ele>
        <time>1970-01-01T01:12:10.000Z</time>
      </trkpt>
      <trkpt lat="45.42202" lon="4.61912">
        <ele>974.7</ele>
        <time>1970-01-01T01:12:12.000Z</time>
      </trkpt>
      <trkpt lat="45.42199" lon="4.61914">
        <ele>974.9</ele>
        <time>1970-01-01T01:12:13.000Z</time>
      </trkpt>
      <trkpt lat="45.42195" lon="4.61918">
        <ele>975.3</ele>
        <time>1970-01-01T01:12:15.000Z</time>
      </trkpt>
      <trkpt lat="45.42193" lon="4.61922">
        <ele>975.5</ele>
        <time>1970-01-01T01:12:17.000Z</time>
      </trkpt>
      <trkpt lat="45.4219" lon="4.61926">
        <ele>975.8</ele>
        <time>1970-01-01T01:12:19.000Z</time>
      </trkpt>
      <trkpt lat="45.42186" lon="4.6193">
        <ele>976.2</ele>
        <time>1970-01-01T01:12:21.000Z</time>
      </trkpt>
      <trkpt lat="45.42182" lon="4.61932">
        <ele>976.5</ele>
        <time>1970-01-01T01:12:22.000Z</time>
      </trkpt>
      <trkpt lat="45.42179" lon="4.61934">
        <ele>976.8</ele>
        <time>1970-01-01T01:12:23.000Z</time>
      </trkpt>
      <trkpt lat="45.42174" lon="4.61936">
        <ele>977.1</ele>
        <time>1970-01-01T01:12:25.000Z</time>
      </trkpt>
      <trkpt lat="45.42169" lon="4.6194">
        <ele>977.5</ele>
        <time>1970-01-01T01:12:27.000Z</time>
      </trkpt>
      <trkpt lat="45.42164" lon="4.61943">
        <ele>977.9</ele>
        <time>1970-01-01T01:12:29.000Z</time>
      </trkpt>
      <trkpt lat="45.4216" lon="4.61945">
        <ele>978.2</ele>
        <time>1970-01-01T01:12:31.000Z</time>
      </trkpt>
      <trkpt lat="45.42157" lon="4.61948">
        <ele>978.5</ele>
        <time>1970-01-01T01:12:33.000Z</time>
      </trkpt>
      <trkpt lat="45.42154" lon="4.6195">
        <ele>978.7</ele>
        <time>1970-01-01T01:12:36.000Z</time>
      </trkpt>
      <trkpt lat="45.42152" lon="4.61954">
        <ele>979</ele>
        <time>1970-01-01T01:12:38.000Z</time>
      </trkpt>
      <trkpt lat="45.42149" lon="4.61955">
        <ele>979.2</ele>
        <time>1970-01-01T01:12:40.000Z</time>
      </trkpt>
      <trkpt lat="45.42147" lon="4.61957">
        <ele>979.4</ele>
        <time>1970-01-01T01:12:42.000Z</time>
      </trkpt>
      <trkpt lat="45.42144" lon="4.6196">
        <ele>979.7</ele>
        <time>1970-01-01T01:12:44.000Z</time>
      </trkpt>
      <trkpt lat="45.42141" lon="4.61963">
        <ele>979.9</ele>
        <time>1970-01-01T01:12:46.000Z</time>
      </trkpt>
      <trkpt lat="45.42137" lon="4.61966">
        <ele>980.3</ele>
        <time>1970-01-01T01:12:48.000Z</time>
      </trkpt>
      <trkpt lat="45.42133" lon="4.61969">
        <ele>980.6</ele>
        <time>1970-01-01T01:12:50.000Z</time>
      </trkpt>
      <trkpt lat="45.4213" lon="4.61971">
        <ele>980.9</ele>
        <time>1970-01-01T01:12:51.000Z</time>
      </trkpt>
      <trkpt lat="45.42127" lon="4.61974">
        <ele>981.2</ele>
        <time>1970-01-01T01:12:53.000Z</time>
      </trkpt>
      <trkpt lat="45.42122" lon="4.61977">
        <ele>981.6</ele>
        <time>1970-01-01T01:12:55.000Z</time>
      </trkpt>
      <trkpt lat="45.42118" lon="4.61978">
        <ele>981.8</ele>
        <time>1970-01-01T01:12:56.000Z</time>
      </trkpt>
      <trkpt lat="45.42114" lon="4.61979">
        <ele>982.2</ele>
        <time>1970-01-01T01:12:57.000Z</time>
      </trkpt>
      <trkpt lat="45.4211" lon="4.61981">
        <ele>982.4</ele>
        <time>1970-01-01T01:12:58.000Z</time>
      </trkpt>
      <trkpt lat="45.42108" lon="4.61983">
        <ele>982.7</ele>
        <time>1970-01-01T01:12:59.000Z</time>
      </trkpt>
      <trkpt lat="45.42105" lon="4.61985">
        <ele>982.9</ele>
        <time>1970-01-01T01:13:01.000Z</time>
      </trkpt>
      <trkpt lat="45.42102" lon="4.61988">
        <ele>983.2</ele>
        <time>1970-01-01T01:13:03.000Z</time>
      </trkpt>
      <trkpt lat="45.42097" lon="4.6199">
        <ele>983.6</ele>
        <time>1970-01-01T01:13:05.000Z</time>
      </trkpt>
      <trkpt lat="45.42093" lon="4.61992">
        <ele>983.9</ele>
        <time>1970-01-01T01:13:07.000Z</time>
      </trkpt>
      <trkpt lat="45.42088" lon="4.61993">
        <ele>984.3</ele>
        <time>1970-01-01T01:13:09.000Z</time>
      </trkpt>
      <trkpt lat="45.42083" lon="4.61996">
        <ele>984.7</ele>
        <time>1970-01-01T01:13:11.000Z</time>
      </trkpt>
      <trkpt lat="45.4208" lon="4.61997">
        <ele>985</ele>
        <time>1970-01-01T01:13:13.000Z</time>
      </trkpt>
      <trkpt lat="45.42076" lon="4.61999">
        <ele>985.3</ele>
        <time>1970-01-01T01:13:15.000Z</time>
      </trkpt>
      <trkpt lat="45.42072" lon="4.62001">
        <ele>985.6</ele>
        <time>1970-01-01T01:13:17.000Z</time>
      </trkpt>
      <trkpt lat="45.42069" lon="4.62003">
        <ele>985.8</ele>
        <time>1970-01-01T01:13:19.000Z</time>
      </trkpt>
      <trkpt lat="45.42064" lon="4.62006">
        <ele>986.2</ele>
        <time>1970-01-01T01:13:21.000Z</time>
      </trkpt>
      <trkpt lat="45.42061" lon="4.62007">
        <ele>986.3</ele>
        <time>1970-01-01T01:13:22.000Z</time>
      </trkpt>
      <trkpt lat="45.42059" lon="4.62008">
        <ele>986.5</ele>
        <time>1970-01-01T01:13:23.000Z</time>
      </trkpt>
      <trkpt lat="45.42056" lon="4.62009">
        <ele>986.7</ele>
        <time>1970-01-01T01:13:24.000Z</time>
      </trkpt>
      <trkpt lat="45.42051" lon="4.6201">
        <ele>987</ele>
        <time>1970-01-01T01:13:26.000Z</time>
      </trkpt>
      <trkpt lat="45.42048" lon="4.62012">
        <ele>987.3</ele>
        <time>1970-01-01T01:13:28.000Z</time>
      </trkpt>
      <trkpt lat="45.42043" lon="4.62015">
        <ele>987.6</ele>
        <time>1970-01-01T01:13:30.000Z</time>
      </trkpt>
      <trkpt lat="45.42038" lon="4.62016">
        <ele>988</ele>
        <time>1970-01-01T01:13:32.000Z</time>
      </trkpt>
      <trkpt lat="45.42034" lon="4.62018">
        <ele>988.3</ele>
        <time>1970-01-01T01:13:34.000Z</time>
      </trkpt>
      <trkpt lat="45.4203" lon="4.6202">
        <ele>988.6</ele>
        <time>1970-01-01T01:13:36.000Z</time>
      </trkpt>
      <trkpt lat="45.42024" lon="4.62021">
        <ele>989</ele>
        <time>1970-01-01T01:13:38.000Z</time>
      </trkpt>
      <trkpt lat="45.4202" lon="4.62022">
        <ele>989.3</ele>
        <time>1970-01-01T01:13:40.000Z</time>
      </trkpt>
      <trkpt lat="45.42015" lon="4.62025">
        <ele>989.6</ele>
        <time>1970-01-01T01:13:42.000Z</time>
      </trkpt>
      <trkpt lat="45.42012" lon="4.62027">
        <ele>989.9</ele>
        <time>1970-01-01T01:13:44.000Z</time>
      </trkpt>
      <trkpt lat="45.42007" lon="4.62029">
        <ele>990.2</ele>
        <time>1970-01-01T01:13:46.000Z</time>
      </trkpt>
      <trkpt lat="45.42004" lon="4.62032">
        <ele>990.5</ele>
        <time>1970-01-01T01:13:48.000Z</time>
      </trkpt>
      <trkpt lat="45.42" lon="4.62033">
        <ele>990.7</ele>
        <time>1970-01-01T01:13:50.000Z</time>
      </trkpt>
      <trkpt lat="45.41997" lon="4.62035">
        <ele>991</ele>
        <time>1970-01-01T01:13:52.000Z</time>
      </trkpt>
      <trkpt lat="45.41994" lon="4.62037">
        <ele>991.2</ele>
        <time>1970-01-01T01:13:54.000Z</time>
      </trkpt>
      <trkpt lat="45.41991" lon="4.6204">
        <ele>991.4</ele>
        <time>1970-01-01T01:13:56.000Z</time>
      </trkpt>
      <trkpt lat="45.41988" lon="4.6204">
        <ele>991.6</ele>
        <time>1970-01-01T01:13:57.000Z</time>
      </trkpt>
      <trkpt lat="45.41985" lon="4.62043">
        <ele>991.9</ele>
        <time>1970-01-01T01:13:59.000Z</time>
      </trkpt>
      <trkpt lat="45.41982" lon="4.62045">
        <ele>992.1</ele>
        <time>1970-01-01T01:14:01.000Z</time>
      </trkpt>
      <trkpt lat="45.41979" lon="4.62047">
        <ele>992.3</ele>
        <time>1970-01-01T01:14:03.000Z</time>
      </trkpt>
      <trkpt lat="45.41976" lon="4.6205">
        <ele>992.7</ele>
        <time>1970-01-01T01:14:06.000Z</time>
      </trkpt>
      <trkpt lat="45.41972" lon="4.62053">
        <ele>993.1</ele>
        <time>1970-01-01T01:14:08.000Z</time>
      </trkpt>
      <trkpt lat="45.41967" lon="4.62054">
        <ele>993.5</ele>
        <time>1970-01-01T01:14:09.000Z</time>
      </trkpt>
      <trkpt lat="45.41964" lon="4.62055">
        <ele>993.8</ele>
        <time>1970-01-01T01:14:10.000Z</time>
      </trkpt>
      <trkpt lat="45.41959" lon="4.62056">
        <ele>994.3</ele>
        <time>1970-01-01T01:14:12.000Z</time>
      </trkpt>
      <trkpt lat="45.41956" lon="4.62056">
        <ele>994.5</ele>
        <time>1970-01-01T01:14:14.000Z</time>
      </trkpt>
      <trkpt lat="45.41953" lon="4.62058">
        <ele>994.8</ele>
        <time>1970-01-01T01:14:16.000Z</time>
      </trkpt>
      <trkpt lat="45.4195" lon="4.62058">
        <ele>995.1</ele>
        <time>1970-01-01T01:14:18.000Z</time>
      </trkpt>
      <trkpt lat="45.41946" lon="4.6206">
        <ele>995.4</ele>
        <time>1970-01-01T01:14:20.000Z</time>
      </trkpt>
      <trkpt lat="45.41942" lon="4.6206">
        <ele>995.8</ele>
        <time>1970-01-01T01:14:22.000Z</time>
      </trkpt>
      <trkpt lat="45.4194" lon="4.62061">
        <ele>996</ele>
        <time>1970-01-01T01:14:25.000Z</time>
      </trkpt>
      <trkpt lat="45.41937" lon="4.6206">
        <ele>996.3</ele>
        <time>1970-01-01T01:14:27.000Z</time>
      </trkpt>
      <trkpt lat="45.41933" lon="4.62061">
        <ele>996.7</ele>
        <time>1970-01-01T01:14:29.000Z</time>
      </trkpt>
      <trkpt lat="45.4193" lon="4.62061">
        <ele>997.2</ele>
        <time>1970-01-01T01:14:30.000Z</time>
      </trkpt>
      <trkpt lat="45.41927" lon="4.62061">
        <ele>997.6</ele>
        <time>1970-01-01T01:14:31.000Z</time>
      </trkpt>
      <trkpt lat="45.41923" lon="4.62061">
        <ele>998.1</ele>
        <time>1970-01-01T01:14:33.000Z</time>
      </trkpt>
      <trkpt lat="45.41919" lon="4.62062">
        <ele>998.5</ele>
        <time>1970-01-01T01:14:34.000Z</time>
      </trkpt>
      <trkpt lat="45.41916" lon="4.6206">
        <ele>998.7</ele>
        <time>1970-01-01T01:14:37.000Z</time>
      </trkpt>
      <trkpt lat="45.41913" lon="4.62059">
        <ele>998.9</ele>
        <time>1970-01-01T01:14:39.000Z</time>
      </trkpt>
      <trkpt lat="45.4191" lon="4.62058">
        <ele>999.1</ele>
        <time>1970-01-01T01:14:40.000Z</time>
      </trkpt>
      <trkpt lat="45.41907" lon="4.62057">
        <ele>999.3</ele>
        <time>1970-01-01T01:14:42.000Z</time>
      </trkpt>
      <trkpt lat="45.41904" lon="4.62053">
        <ele>999.6</ele>
        <time>1970-01-01T01:14:44.000Z</time>
      </trkpt>
      <trkpt lat="45.41901" lon="4.62052">
        <ele>999.9</ele>
        <time>1970-01-01T01:14:46.000Z</time>
      </trkpt>
      <trkpt lat="45.41896" lon="4.62053">
        <ele>1000.1</ele>
        <time>1970-01-01T01:14:47.000Z</time>
      </trkpt>
      <trkpt lat="45.41893" lon="4.62053">
        <ele>1000.3</ele>
        <time>1970-01-01T01:14:48.000Z</time>
      </trkpt>
      <trkpt lat="45.41888" lon="4.62051">
        <ele>1000.7</ele>
        <time>1970-01-01T01:14:50.000Z</time>
      </trkpt>
      <trkpt lat="45.41884" lon="4.6205">
        <ele>1001</ele>
        <time>1970-01-01T01:14:51.000Z</time>
      </trkpt>
      <trkpt lat="45.41881" lon="4.62049">
        <ele>1001.2</ele>
        <time>1970-01-01T01:14:53.000Z</time>
      </trkpt>
      <trkpt lat="45.41876" lon="4.62047">
        <ele>1001.5</ele>
        <time>1970-01-01T01:14:55.000Z</time>
      </trkpt>
      <trkpt lat="45.41874" lon="4.62045">
        <ele>1001.8</ele>
        <time>1970-01-01T01:14:56.000Z</time>
      </trkpt>
      <trkpt lat="45.41871" lon="4.62044">
        <ele>1002.2</ele>
        <time>1970-01-01T01:14:57.000Z</time>
      </trkpt>
      <trkpt lat="45.41868" lon="4.62042">
        <ele>1002.5</ele>
        <time>1970-01-01T01:14:58.000Z</time>
      </trkpt>
      <trkpt lat="45.41866" lon="4.62041">
        <ele>1002.8</ele>
        <time>1970-01-01T01:14:59.000Z</time>
      </trkpt>
      <trkpt lat="45.41861" lon="4.6204">
        <ele>1003.3</ele>
        <time>1970-01-01T01:15:01.000Z</time>
      </trkpt>
      <trkpt lat="45.41856" lon="4.62039">
        <ele>1003.7</ele>
        <time>1970-01-01T01:15:03.000Z</time>
      </trkpt>
      <trkpt lat="45.41851" lon="4.62036">
        <ele>1004.1</ele>
        <time>1970-01-01T01:15:05.000Z</time>
      </trkpt>
      <trkpt lat="45.41846" lon="4.62035">
        <ele>1004.5</ele>
        <time>1970-01-01T01:15:07.000Z</time>
      </trkpt>
      <trkpt lat="45.41839" lon="4.62035">
        <ele>1005</ele>
        <time>1970-01-01T01:15:10.000Z</time>
      </trkpt>
      <trkpt lat="45.41836" lon="4.62034">
        <ele>1005.3</ele>
        <time>1970-01-01T01:15:11.000Z</time>
      </trkpt>
      <trkpt lat="45.41833" lon="4.62033">
        <ele>1005.5</ele>
        <time>1970-01-01T01:15:12.000Z</time>
      </trkpt>
      <trkpt lat="45.41827" lon="4.62031">
        <ele>1005.9</ele>
        <time>1970-01-01T01:15:14.000Z</time>
      </trkpt>
      <trkpt lat="45.41824" lon="4.62031">
        <ele>1006.1</ele>
        <time>1970-01-01T01:15:15.000Z</time>
      </trkpt>
      <trkpt lat="45.4182" lon="4.6203">
        <ele>1006.5</ele>
        <time>1970-01-01T01:15:17.000Z</time>
      </trkpt>
      <trkpt lat="45.41815" lon="4.6203">
        <ele>1006.8</ele>
        <time>1970-01-01T01:15:19.000Z</time>
      </trkpt>
      <trkpt lat="45.41811" lon="4.6203">
        <ele>1007.1</ele>
        <time>1970-01-01T01:15:21.000Z</time>
      </trkpt>
      <trkpt lat="45.41807" lon="4.62031">
        <ele>1007.3</ele>
        <time>1970-01-01T01:15:24.000Z</time>
      </trkpt>
      <trkpt lat="45.41803" lon="4.62031">
        <ele>1007.7</ele>
        <time>1970-01-01T01:15:26.000Z</time>
      </trkpt>
      <trkpt lat="45.418" lon="4.62031">
        <ele>1007.9</ele>
        <time>1970-01-01T01:15:28.000Z</time>
      </trkpt>
      <trkpt lat="45.41796" lon="4.62031">
        <ele>1008.1</ele>
        <time>1970-01-01T01:15:30.000Z</time>
      </trkpt>
      <trkpt lat="45.41791" lon="4.62031">
        <ele>1008.5</ele>
        <time>1970-01-01T01:15:32.000Z</time>
      </trkpt>
      <trkpt lat="45.41786" lon="4.6203">
        <ele>1008.8</ele>
        <time>1970-01-01T01:15:34.000Z</time>
      </trkpt>
      <trkpt lat="45.41781" lon="4.62031">
        <ele>1009.3</ele>
        <time>1970-01-01T01:15:36.000Z</time>
      </trkpt>
      <trkpt lat="45.41779" lon="4.62033">
        <ele>1009.6</ele>
        <time>1970-01-01T01:15:37.000Z</time>
      </trkpt>
      <trkpt lat="45.41776" lon="4.62033">
        <ele>1009.8</ele>
        <time>1970-01-01T01:15:39.000Z</time>
      </trkpt>
      <trkpt lat="45.41773" lon="4.62031">
        <ele>1010.1</ele>
        <time>1970-01-01T01:15:41.000Z</time>
      </trkpt>
      <trkpt lat="45.4177" lon="4.62032">
        <ele>1010.4</ele>
        <time>1970-01-01T01:15:42.000Z</time>
      </trkpt>
      <trkpt lat="45.41764" lon="4.62032">
        <ele>1010.9</ele>
        <time>1970-01-01T01:15:44.000Z</time>
      </trkpt>
      <trkpt lat="45.41761" lon="4.62034">
        <ele>1011.3</ele>
        <time>1970-01-01T01:15:45.000Z</time>
      </trkpt>
      <trkpt lat="45.41758" lon="4.62034">
        <ele>1011.6</ele>
        <time>1970-01-01T01:15:46.000Z</time>
      </trkpt>
      <trkpt lat="45.41754" lon="4.62034">
        <ele>1011.8</ele>
        <time>1970-01-01T01:15:47.000Z</time>
      </trkpt>
      <trkpt lat="45.4175" lon="4.62035">
        <ele>1012.2</ele>
        <time>1970-01-01T01:15:49.000Z</time>
      </trkpt>
      <trkpt lat="45.41747" lon="4.62036">
        <ele>1012.4</ele>
        <time>1970-01-01T01:15:50.000Z</time>
      </trkpt>
      <trkpt lat="45.41742" lon="4.62037">
        <ele>1012.7</ele>
        <time>1970-01-01T01:15:52.000Z</time>
      </trkpt>
      <trkpt lat="45.41738" lon="4.62037">
        <ele>1013</ele>
        <time>1970-01-01T01:15:54.000Z</time>
      </trkpt>
      <trkpt lat="45.41735" lon="4.62037">
        <ele>1013.2</ele>
        <time>1970-01-01T01:15:55.000Z</time>
      </trkpt>
      <trkpt lat="45.41732" lon="4.62037">
        <ele>1013.4</ele>
        <time>1970-01-01T01:15:56.000Z</time>
      </trkpt>
      <trkpt lat="45.41727" lon="4.62037">
        <ele>1013.8</ele>
        <time>1970-01-01T01:15:58.000Z</time>
      </trkpt>
      <trkpt lat="45.41723" lon="4.62038">
        <ele>1014.1</ele>
        <time>1970-01-01T01:16:00.000Z</time>
      </trkpt>
      <trkpt lat="45.41719" lon="4.62038">
        <ele>1014.4</ele>
        <time>1970-01-01T01:16:02.000Z</time>
      </trkpt>
      <trkpt lat="45.41714" lon="4.62038">
        <ele>1014.7</ele>
        <time>1970-01-01T01:16:04.000Z</time>
      </trkpt>
      <trkpt lat="45.41711" lon="4.62039">
        <ele>1014.9</ele>
        <time>1970-01-01T01:16:05.000Z</time>
      </trkpt>
      <trkpt lat="45.41708" lon="4.6204">
        <ele>1015.2</ele>
        <time>1970-01-01T01:16:07.000Z</time>
      </trkpt>
      <trkpt lat="45.41704" lon="4.6204">
        <ele>1015.4</ele>
        <time>1970-01-01T01:16:09.000Z</time>
      </trkpt>
      <trkpt lat="45.41701" lon="4.6204">
        <ele>1015.7</ele>
        <time>1970-01-01T01:16:10.000Z</time>
      </trkpt>
      <trkpt lat="45.41698" lon="4.62039">
        <ele>1015.9</ele>
        <time>1970-01-01T01:16:11.000Z</time>
      </trkpt>
      <trkpt lat="45.41694" lon="4.62039">
        <ele>1016.4</ele>
        <time>1970-01-01T01:16:14.000Z</time>
      </trkpt>
      <trkpt lat="45.4169" lon="4.62037">
        <ele>1017</ele>
        <time>1970-01-01T01:16:16.000Z</time>
      </trkpt>
      <trkpt lat="45.41687" lon="4.62036">
        <ele>1017.4</ele>
        <time>1970-01-01T01:16:17.000Z</time>
      </trkpt>
      <trkpt lat="45.41683" lon="4.62037">
        <ele>1018</ele>
        <time>1970-01-01T01:16:18.000Z</time>
      </trkpt>
      <trkpt lat="45.41679" lon="4.62038">
        <ele>1018.3</ele>
        <time>1970-01-01T01:16:19.000Z</time>
      </trkpt>
      <trkpt lat="45.41675" lon="4.62037">
        <ele>1018.6</ele>
        <time>1970-01-01T01:16:21.000Z</time>
      </trkpt>
      <trkpt lat="45.4167" lon="4.62038">
        <ele>1019</ele>
        <time>1970-01-01T01:16:24.000Z</time>
      </trkpt>
      <trkpt lat="45.41664" lon="4.6204">
        <ele>1019.4</ele>
        <time>1970-01-01T01:16:25.000Z</time>
      </trkpt>
      <trkpt lat="45.41659" lon="4.62042">
        <ele>1019.8</ele>
        <time>1970-01-01T01:16:26.000Z</time>
      </trkpt>
      <trkpt lat="45.41656" lon="4.62044">
        <ele>1020.1</ele>
        <time>1970-01-01T01:16:29.000Z</time>
      </trkpt>
      <trkpt lat="45.41653" lon="4.62046">
        <ele>1020.3</ele>
        <time>1970-01-01T01:16:31.000Z</time>
      </trkpt>
      <trkpt lat="45.41651" lon="4.6205">
        <ele>1020.6</ele>
        <time>1970-01-01T01:16:33.000Z</time>
      </trkpt>
      <trkpt lat="45.41647" lon="4.62052">
        <ele>1020.9</ele>
        <time>1970-01-01T01:16:38.000Z</time>
      </trkpt>
      <trkpt lat="45.41642" lon="4.62053">
        <ele>1021.3</ele>
        <time>1970-01-01T01:16:40.000Z</time>
      </trkpt>
      <trkpt lat="45.41639" lon="4.62056">
        <ele>1021.7</ele>
        <time>1970-01-01T01:16:42.000Z</time>
      </trkpt>
      <trkpt lat="45.41636" lon="4.62059">
        <ele>1022.2</ele>
        <time>1970-01-01T01:16:44.000Z</time>
      </trkpt>
      <trkpt lat="45.41633" lon="4.62062">
        <ele>1022.6</ele>
        <time>1970-01-01T01:16:46.000Z</time>
      </trkpt>
      <trkpt lat="45.41633" lon="4.62066">
        <ele>1022.9</ele>
        <time>1970-01-01T01:16:47.000Z</time>
      </trkpt>
      <trkpt lat="45.41631" lon="4.62069">
        <ele>1023.3</ele>
        <time>1970-01-01T01:16:50.000Z</time>
      </trkpt>
      <trkpt lat="45.41629" lon="4.62073">
        <ele>1023.9</ele>
        <time>1970-01-01T01:16:52.000Z</time>
      </trkpt>
      <trkpt lat="45.41626" lon="4.62076">
        <ele>1024.4</ele>
        <time>1970-01-01T01:16:54.000Z</time>
      </trkpt>
      <trkpt lat="45.4162" lon="4.6208">
        <ele>1025.2</ele>
        <time>1970-01-01T01:16:56.000Z</time>
      </trkpt>
      <trkpt lat="45.41615" lon="4.62082">
        <ele>1025.6</ele>
        <time>1970-01-01T01:16:57.000Z</time>
      </trkpt>
      <trkpt lat="45.4161" lon="4.62085">
        <ele>1025.9</ele>
        <time>1970-01-01T01:16:59.000Z</time>
      </trkpt>
      <trkpt lat="45.41606" lon="4.62087">
        <ele>1026.3</ele>
        <time>1970-01-01T01:17:00.000Z</time>
      </trkpt>
      <trkpt lat="45.41604" lon="4.62089">
        <ele>1026.5</ele>
        <time>1970-01-01T01:17:02.000Z</time>
      </trkpt>
      <trkpt lat="45.41601" lon="4.62092">
        <ele>1026.7</ele>
        <time>1970-01-01T01:17:04.000Z</time>
      </trkpt>
      <trkpt lat="45.41598" lon="4.62093">
        <ele>1026.9</ele>
        <time>1970-01-01T01:17:05.000Z</time>
      </trkpt>
      <trkpt lat="45.41595" lon="4.62097">
        <ele>1027.2</ele>
        <time>1970-01-01T01:17:06.000Z</time>
      </trkpt>
      <trkpt lat="45.41592" lon="4.62099">
        <ele>1027.5</ele>
        <time>1970-01-01T01:17:07.000Z</time>
      </trkpt>
      <trkpt lat="45.41588" lon="4.62101">
        <ele>1027.8</ele>
        <time>1970-01-01T01:17:09.000Z</time>
      </trkpt>
      <trkpt lat="45.41584" lon="4.62102">
        <ele>1028.1</ele>
        <time>1970-01-01T01:17:10.000Z</time>
      </trkpt>
      <trkpt lat="45.41579" lon="4.62104">
        <ele>1028.4</ele>
        <time>1970-01-01T01:17:11.000Z</time>
      </trkpt>
      <trkpt lat="45.41575" lon="4.62106">
        <ele>1028.7</ele>
        <time>1970-01-01T01:17:12.000Z</time>
      </trkpt>
      <trkpt lat="45.41572" lon="4.62109">
        <ele>1029</ele>
        <time>1970-01-01T01:17:14.000Z</time>
      </trkpt>
      <trkpt lat="45.41568" lon="4.62111">
        <ele>1029.3</ele>
        <time>1970-01-01T01:17:16.000Z</time>
      </trkpt>
      <trkpt lat="45.41566" lon="4.62113">
        <ele>1029.5</ele>
        <time>1970-01-01T01:17:17.000Z</time>
      </trkpt>
      <trkpt lat="45.41562" lon="4.62116">
        <ele>1029.7</ele>
        <time>1970-01-01T01:17:18.000Z</time>
      </trkpt>
      <trkpt lat="45.41559" lon="4.62117">
        <ele>1029.9</ele>
        <time>1970-01-01T01:17:19.000Z</time>
      </trkpt>
      <trkpt lat="45.41555" lon="4.62122">
        <ele>1030.2</ele>
        <time>1970-01-01T01:17:21.000Z</time>
      </trkpt>
      <trkpt lat="45.41551" lon="4.62126">
        <ele>1030.6</ele>
        <time>1970-01-01T01:17:24.000Z</time>
      </trkpt>
      <trkpt lat="45.41548" lon="4.62129">
        <ele>1030.8</ele>
        <time>1970-01-01T01:17:26.000Z</time>
      </trkpt>
      <trkpt lat="45.41545" lon="4.62131">
        <ele>1031</ele>
        <time>1970-01-01T01:17:27.000Z</time>
      </trkpt>
      <trkpt lat="45.41541" lon="4.62134">
        <ele>1031.3</ele>
        <time>1970-01-01T01:17:28.000Z</time>
      </trkpt>
      <trkpt lat="45.41537" lon="4.62138">
        <ele>1031.6</ele>
        <time>1970-01-01T01:17:30.000Z</time>
      </trkpt>
      <trkpt lat="45.41534" lon="4.6214">
        <ele>1031.8</ele>
        <time>1970-01-01T01:17:31.000Z</time>
      </trkpt>
      <trkpt lat="45.41531" lon="4.62142">
        <ele>1032.1</ele>
        <time>1970-01-01T01:17:32.000Z</time>
      </trkpt>
      <trkpt lat="45.41528" lon="4.62144">
        <ele>1032.3</ele>
        <time>1970-01-01T01:17:33.000Z</time>
      </trkpt>
      <trkpt lat="45.41524" lon="4.62145">
        <ele>1032.5</ele>
        <time>1970-01-01T01:17:34.000Z</time>
      </trkpt>
      <trkpt lat="45.41519" lon="4.62148">
        <ele>1032.8</ele>
        <time>1970-01-01T01:17:36.000Z</time>
      </trkpt>
      <trkpt lat="45.41516" lon="4.62151">
        <ele>1033.1</ele>
        <time>1970-01-01T01:17:38.000Z</time>
      </trkpt>
      <trkpt lat="45.41513" lon="4.62153">
        <ele>1033.3</ele>
        <time>1970-01-01T01:17:39.000Z</time>
      </trkpt>
      <trkpt lat="45.41508" lon="4.62154">
        <ele>1033.6</ele>
        <time>1970-01-01T01:17:41.000Z</time>
      </trkpt>
      <trkpt lat="45.41505" lon="4.62157">
        <ele>1033.8</ele>
        <time>1970-01-01T01:17:42.000Z</time>
      </trkpt>
      <trkpt lat="45.41501" lon="4.62158">
        <ele>1034.1</ele>
        <time>1970-01-01T01:17:43.000Z</time>
      </trkpt>
      <trkpt lat="45.41497" lon="4.62161">
        <ele>1034.5</ele>
        <time>1970-01-01T01:17:44.000Z</time>
      </trkpt>
      <trkpt lat="45.41494" lon="4.62163">
        <ele>1034.9</ele>
        <time>1970-01-01T01:17:45.000Z</time>
      </trkpt>
      <trkpt lat="45.41491" lon="4.62166">
        <ele>1035.3</ele>
        <time>1970-01-01T01:17:46.000Z</time>
      </trkpt>
      <trkpt lat="45.41488" lon="4.62168">
        <ele>1035.7</ele>
        <time>1970-01-01T01:17:47.000Z</time>
      </trkpt>
      <trkpt lat="45.41485" lon="4.6217">
        <ele>1036</ele>
        <time>1970-01-01T01:17:48.000Z</time>
      </trkpt>
      <trkpt lat="45.41481" lon="4.62172">
        <ele>1036.4</ele>
        <time>1970-01-01T01:17:50.000Z</time>
      </trkpt>
      <trkpt lat="45.41477" lon="4.62173">
        <ele>1036.8</ele>
        <time>1970-01-01T01:17:51.000Z</time>
      </trkpt>
      <trkpt lat="45.41472" lon="4.62177">
        <ele>1037.2</ele>
        <time>1970-01-01T01:17:53.000Z</time>
      </trkpt>
      <trkpt lat="45.41467" lon="4.6218">
        <ele>1037.5</ele>
        <time>1970-01-01T01:17:55.000Z</time>
      </trkpt>
      <trkpt lat="45.41465" lon="4.62182">
        <ele>1037.6</ele>
        <time>1970-01-01T01:17:56.000Z</time>
      </trkpt>
      <trkpt lat="45.41461" lon="4.62185">
        <ele>1037.9</ele>
        <time>1970-01-01T01:17:58.000Z</time>
      </trkpt>
      <trkpt lat="45.41457" lon="4.62189">
        <ele>1038.2</ele>
        <time>1970-01-01T01:18:00.000Z</time>
      </trkpt>
      <trkpt lat="45.41454" lon="4.62192">
        <ele>1038.4</ele>
        <time>1970-01-01T01:18:01.000Z</time>
      </trkpt>
      <trkpt lat="45.4145" lon="4.62195">
        <ele>1038.7</ele>
        <time>1970-01-01T01:18:03.000Z</time>
      </trkpt>
      <trkpt lat="45.41447" lon="4.62197">
        <ele>1038.9</ele>
        <time>1970-01-01T01:18:05.000Z</time>
      </trkpt>
      <trkpt lat="45.41444" lon="4.62201">
        <ele>1039.2</ele>
        <time>1970-01-01T01:18:07.000Z</time>
      </trkpt>
      <trkpt lat="45.4144" lon="4.62203">
        <ele>1039.4</ele>
        <time>1970-01-01T01:18:09.000Z</time>
      </trkpt>
      <trkpt lat="45.41436" lon="4.62206">
        <ele>1039.7</ele>
        <time>1970-01-01T01:18:11.000Z</time>
      </trkpt>
      <trkpt lat="45.41433" lon="4.6221">
        <ele>1039.9</ele>
        <time>1970-01-01T01:18:14.000Z</time>
      </trkpt>
      <trkpt lat="45.4143" lon="4.62212">
        <ele>1040.2</ele>
        <time>1970-01-01T01:18:16.000Z</time>
      </trkpt>
      <trkpt lat="45.41427" lon="4.62215">
        <ele>1040.3</ele>
        <time>1970-01-01T01:18:18.000Z</time>
      </trkpt>
      <trkpt lat="45.41425" lon="4.62218">
        <ele>1040.5</ele>
        <time>1970-01-01T01:18:19.000Z</time>
      </trkpt>
      <trkpt lat="45.4142" lon="4.62222">
        <ele>1040.9</ele>
        <time>1970-01-01T01:18:21.000Z</time>
      </trkpt>
      <trkpt lat="45.41417" lon="4.62223">
        <ele>1041.1</ele>
        <time>1970-01-01T01:18:22.000Z</time>
      </trkpt>
      <trkpt lat="45.41414" lon="4.62225">
        <ele>1041.3</ele>
        <time>1970-01-01T01:18:23.000Z</time>
      </trkpt>
      <trkpt lat="45.4141" lon="4.62226">
        <ele>1041.5</ele>
        <time>1970-01-01T01:18:24.000Z</time>
      </trkpt>
      <trkpt lat="45.41408" lon="4.62228">
        <ele>1041.7</ele>
        <time>1970-01-01T01:18:25.000Z</time>
      </trkpt>
      <trkpt lat="45.41405" lon="4.62232">
        <ele>1041.9</ele>
        <time>1970-01-01T01:18:27.000Z</time>
      </trkpt>
      <trkpt lat="45.41401" lon="4.62236">
        <ele>1042.3</ele>
        <time>1970-01-01T01:18:29.000Z</time>
      </trkpt>
      <trkpt lat="45.41398" lon="4.62238">
        <ele>1042.5</ele>
        <time>1970-01-01T01:18:30.000Z</time>
      </trkpt>
      <trkpt lat="45.41396" lon="4.6224">
        <ele>1042.8</ele>
        <time>1970-01-01T01:18:32.000Z</time>
      </trkpt>
      <trkpt lat="45.41393" lon="4.62244">
        <ele>1043.1</ele>
        <time>1970-01-01T01:18:34.000Z</time>
      </trkpt>
      <trkpt lat="45.41389" lon="4.62249">
        <ele>1043.5</ele>
        <time>1970-01-01T01:18:36.000Z</time>
      </trkpt>
      <trkpt lat="45.41387" lon="4.62253">
        <ele>1043.8</ele>
        <time>1970-01-01T01:18:38.000Z</time>
      </trkpt>
      <trkpt lat="45.41384" lon="4.62255">
        <ele>1044</ele>
        <time>1970-01-01T01:18:39.000Z</time>
      </trkpt>
      <trkpt lat="45.4138" lon="4.62257">
        <ele>1044.3</ele>
        <time>1970-01-01T01:18:41.000Z</time>
      </trkpt>
      <trkpt lat="45.41376" lon="4.6226">
        <ele>1044.7</ele>
        <time>1970-01-01T01:18:43.000Z</time>
      </trkpt>
      <trkpt lat="45.41373" lon="4.62264">
        <ele>1045.1</ele>
        <time>1970-01-01T01:18:45.000Z</time>
      </trkpt>
      <trkpt lat="45.41371" lon="4.62268">
        <ele>1045.3</ele>
        <time>1970-01-01T01:18:46.000Z</time>
      </trkpt>
      <trkpt lat="45.41367" lon="4.62273">
        <ele>1045.8</ele>
        <time>1970-01-01T01:18:48.000Z</time>
      </trkpt>
      <trkpt lat="45.41363" lon="4.62275">
        <ele>1046.1</ele>
        <time>1970-01-01T01:18:50.000Z</time>
      </trkpt>
      <trkpt lat="45.4136" lon="4.62278">
        <ele>1046.3</ele>
        <time>1970-01-01T01:18:51.000Z</time>
      </trkpt>
      <trkpt lat="45.41358" lon="4.62281">
        <ele>1046.5</ele>
        <time>1970-01-01T01:18:53.000Z</time>
      </trkpt>
      <trkpt lat="45.41355" lon="4.62288">
        <ele>1046.9</ele>
        <time>1970-01-01T01:18:55.000Z</time>
      </trkpt>
      <trkpt lat="45.41353" lon="4.6229">
        <ele>1047.1</ele>
        <time>1970-01-01T01:18:56.000Z</time>
      </trkpt>
      <trkpt lat="45.41349" lon="4.62292">
        <ele>1047.4</ele>
        <time>1970-01-01T01:18:58.000Z</time>
      </trkpt>
      <trkpt lat="45.41345" lon="4.62296">
        <ele>1047.7</ele>
        <time>1970-01-01T01:19:00.000Z</time>
      </trkpt>
      <trkpt lat="45.41343" lon="4.62301">
        <ele>1048</ele>
        <time>1970-01-01T01:19:02.000Z</time>
      </trkpt>
      <trkpt lat="45.4134" lon="4.62304">
        <ele>1048.3</ele>
        <time>1970-01-01T01:19:03.000Z</time>
      </trkpt>
      <trkpt lat="45.41337" lon="4.62307">
        <ele>1048.5</ele>
        <time>1970-01-01T01:19:04.000Z</time>
      </trkpt>
      <trkpt lat="45.41335" lon="4.62311">
        <ele>1048.7</ele>
        <time>1970-01-01T01:19:05.000Z</time>
      </trkpt>
      <trkpt lat="45.41331" lon="4.62315">
        <ele>1049</ele>
        <time>1970-01-01T01:19:07.000Z</time>
      </trkpt>
      <trkpt lat="45.41328" lon="4.62319">
        <ele>1049.4</ele>
        <time>1970-01-01T01:19:09.000Z</time>
      </trkpt>
      <trkpt lat="45.41326" lon="4.62322">
        <ele>1049.6</ele>
        <time>1970-01-01T01:19:10.000Z</time>
      </trkpt>
      <trkpt lat="45.41323" lon="4.62327">
        <ele>1049.9</ele>
        <time>1970-01-01T01:19:12.000Z</time>
      </trkpt>
      <trkpt lat="45.41319" lon="4.62332">
        <ele>1050.2</ele>
        <time>1970-01-01T01:19:14.000Z</time>
      </trkpt>
      <trkpt lat="45.41316" lon="4.62336">
        <ele>1050.5</ele>
        <time>1970-01-01T01:19:15.000Z</time>
      </trkpt>
      <trkpt lat="45.41315" lon="4.62339">
        <ele>1050.7</ele>
        <time>1970-01-01T01:19:16.000Z</time>
      </trkpt>
      <trkpt lat="45.41312" lon="4.62343">
        <ele>1050.9</ele>
        <time>1970-01-01T01:19:17.000Z</time>
      </trkpt>
      <trkpt lat="45.4131" lon="4.62345">
        <ele>1051.1</ele>
        <time>1970-01-01T01:19:18.000Z</time>
      </trkpt>
      <trkpt lat="45.41306" lon="4.6235">
        <ele>1051.9</ele>
        <time>1970-01-01T01:19:20.000Z</time>
      </trkpt>
      <trkpt lat="45.41303" lon="4.62355">
        <ele>1052.6</ele>
        <time>1970-01-01T01:19:22.000Z</time>
      </trkpt>
      <trkpt lat="45.41301" lon="4.62358">
        <ele>1052.9</ele>
        <time>1970-01-01T01:19:23.000Z</time>
      </trkpt>
      <trkpt lat="45.41298" lon="4.62362">
        <ele>1053.3</ele>
        <time>1970-01-01T01:19:25.000Z</time>
      </trkpt>
      <trkpt lat="45.41295" lon="4.62364">
        <ele>1053.6</ele>
        <time>1970-01-01T01:19:27.000Z</time>
      </trkpt>
      <trkpt lat="45.41291" lon="4.62365">
        <ele>1053.9</ele>
        <time>1970-01-01T01:19:29.000Z</time>
      </trkpt>
      <trkpt lat="45.41286" lon="4.62363">
        <ele>1054.3</ele>
        <time>1970-01-01T01:19:31.000Z</time>
      </trkpt>
      <trkpt lat="45.41281" lon="4.62361">
        <ele>1054.8</ele>
        <time>1970-01-01T01:19:33.000Z</time>
      </trkpt>
      <trkpt lat="45.41278" lon="4.62358">
        <ele>1055.8</ele>
        <time>1970-01-01T01:19:34.000Z</time>
      </trkpt>
      <trkpt lat="45.41275" lon="4.62353">
        <ele>1056.7</ele>
        <time>1970-01-01T01:19:36.000Z</time>
      </trkpt>
      <trkpt lat="45.41274" lon="4.62349">
        <ele>1057.3</ele>
        <time>1970-01-01T01:19:37.000Z</time>
      </trkpt>
      <trkpt lat="45.41272" lon="4.62345">
        <ele>1057.9</ele>
        <time>1970-01-01T01:19:38.000Z</time>
      </trkpt>
      <trkpt lat="45.4127" lon="4.62342">
        <ele>1058.5</ele>
        <time>1970-01-01T01:19:39.000Z</time>
      </trkpt>
      <trkpt lat="45.41267" lon="4.62337">
        <ele>1059.4</ele>
        <time>1970-01-01T01:19:41.000Z</time>
      </trkpt>
      <trkpt lat="45.41264" lon="4.62332">
        <ele>1060.4</ele>
        <time>1970-01-01T01:19:43.000Z</time>
      </trkpt>
      <trkpt lat="45.41261" lon="4.62327">
        <ele>1061.4</ele>
        <time>1970-01-01T01:19:45.000Z</time>
      </trkpt>
      <trkpt lat="45.41258" lon="4.62324">
        <ele>1062.3</ele>
        <time>1970-01-01T01:19:47.000Z</time>
      </trkpt>
      <trkpt lat="45.41255" lon="4.62322">
        <ele>1063.1</ele>
        <time>1970-01-01T01:19:49.000Z</time>
      </trkpt>
      <trkpt lat="45.41252" lon="4.62319">
        <ele>1063.9</ele>
        <time>1970-01-01T01:19:51.000Z</time>
      </trkpt>
      <trkpt lat="45.4125" lon="4.62315">
        <ele>1064.6</ele>
        <time>1970-01-01T01:19:53.000Z</time>
      </trkpt>
      <trkpt lat="45.41248" lon="4.62312">
        <ele>1065.3</ele>
        <time>1970-01-01T01:19:55.000Z</time>
      </trkpt>
      <trkpt lat="45.41246" lon="4.62308">
        <ele>1065.9</ele>
        <time>1970-01-01T01:19:57.000Z</time>
      </trkpt>
      <trkpt lat="45.41242" lon="4.62305">
        <ele>1066.4</ele>
        <time>1970-01-01T01:19:59.000Z</time>
      </trkpt>
      <trkpt lat="45.41241" lon="4.623">
        <ele>1066.7</ele>
        <time>1970-01-01T01:20:01.000Z</time>
      </trkpt>
      <trkpt lat="45.41238" lon="4.62296">
        <ele>1067.1</ele>
        <time>1970-01-01T01:20:03.000Z</time>
      </trkpt>
      <trkpt lat="45.41235" lon="4.62292">
        <ele>1067.5</ele>
        <time>1970-01-01T01:20:05.000Z</time>
      </trkpt>
      <trkpt lat="45.41233" lon="4.62288">
        <ele>1067.9</ele>
        <time>1970-01-01T01:20:07.000Z</time>
      </trkpt>
      <trkpt lat="45.4123" lon="4.62283">
        <ele>1068.3</ele>
        <time>1970-01-01T01:20:09.000Z</time>
      </trkpt>
      <trkpt lat="45.41228" lon="4.62279">
        <ele>1068.7</ele>
        <time>1970-01-01T01:20:11.000Z</time>
      </trkpt>
      <trkpt lat="45.41225" lon="4.62274">
        <ele>1069.1</ele>
        <time>1970-01-01T01:20:13.000Z</time>
      </trkpt>
      <trkpt lat="45.41222" lon="4.62268">
        <ele>1069.6</ele>
        <time>1970-01-01T01:20:15.000Z</time>
      </trkpt>
      <trkpt lat="45.4122" lon="4.62263">
        <ele>1070</ele>
        <time>1970-01-01T01:20:17.000Z</time>
      </trkpt>
      <trkpt lat="45.41217" lon="4.62259">
        <ele>1070.4</ele>
        <time>1970-01-01T01:20:19.000Z</time>
      </trkpt>
      <trkpt lat="45.41214" lon="4.62255">
        <ele>1070.8</ele>
        <time>1970-01-01T01:20:21.000Z</time>
      </trkpt>
      <trkpt lat="45.41212" lon="4.6225">
        <ele>1071.2</ele>
        <time>1970-01-01T01:20:23.000Z</time>
      </trkpt>
      <trkpt lat="45.41209" lon="4.62246">
        <ele>1071.7</ele>
        <time>1970-01-01T01:20:25.000Z</time>
      </trkpt>
      <trkpt lat="45.41207" lon="4.62243">
        <ele>1071.9</ele>
        <time>1970-01-01T01:20:27.000Z</time>
      </trkpt>
      <trkpt lat="45.41206" lon="4.62238">
        <ele>1072.3</ele>
        <time>1970-01-01T01:20:29.000Z</time>
      </trkpt>
      <trkpt lat="45.41204" lon="4.62232">
        <ele>1072.6</ele>
        <time>1970-01-01T01:20:31.000Z</time>
      </trkpt>
      <trkpt lat="45.41203" lon="4.62227">
        <ele>1072.9</ele>
        <time>1970-01-01T01:20:33.000Z</time>
      </trkpt>
      <trkpt lat="45.412" lon="4.62221">
        <ele>1073.4</ele>
        <time>1970-01-01T01:20:35.000Z</time>
      </trkpt>
      <trkpt lat="45.41197" lon="4.62217">
        <ele>1073.7</ele>
        <time>1970-01-01T01:20:37.000Z</time>
      </trkpt>
      <trkpt lat="45.41195" lon="4.62213">
        <ele>1074</ele>
        <time>1970-01-01T01:20:39.000Z</time>
      </trkpt>
      <trkpt lat="45.41192" lon="4.62209">
        <ele>1074.3</ele>
        <time>1970-01-01T01:20:41.000Z</time>
      </trkpt>
      <trkpt lat="45.4119" lon="4.62207">
        <ele>1074.6</ele>
        <time>1970-01-01T01:20:43.000Z</time>
      </trkpt>
      <trkpt lat="45.41188" lon="4.62203">
        <ele>1074.8</ele>
        <time>1970-01-01T01:20:45.000Z</time>
      </trkpt>
      <trkpt lat="45.41186" lon="4.62198">
        <ele>1075.2</ele>
        <time>1970-01-01T01:20:47.000Z</time>
      </trkpt>
      <trkpt lat="45.41182" lon="4.62194">
        <ele>1075.6</ele>
        <time>1970-01-01T01:20:49.000Z</time>
      </trkpt>
      <trkpt lat="45.41178" lon="4.62189">
        <ele>1076</ele>
        <time>1970-01-01T01:20:51.000Z</time>
      </trkpt>
      <trkpt lat="45.41176" lon="4.62186">
        <ele>1076.2</ele>
        <time>1970-01-01T01:20:52.000Z</time>
      </trkpt>
      <trkpt lat="45.41174" lon="4.62182">
        <ele>1076.6</ele>
        <time>1970-01-01T01:20:54.000Z</time>
      </trkpt>
      <trkpt lat="45.41172" lon="4.62179">
        <ele>1076.8</ele>
        <time>1970-01-01T01:20:55.000Z</time>
      </trkpt>
      <trkpt lat="45.41169" lon="4.62174">
        <ele>1077.2</ele>
        <time>1970-01-01T01:20:57.000Z</time>
      </trkpt>
      <trkpt lat="45.41167" lon="4.62169">
        <ele>1077.5</ele>
        <time>1970-01-01T01:20:59.000Z</time>
      </trkpt>
      <trkpt lat="45.41165" lon="4.62163">
        <ele>1077.9</ele>
        <time>1970-01-01T01:21:01.000Z</time>
      </trkpt>
      <trkpt lat="45.41164" lon="4.62158">
        <ele>1078.2</ele>
        <time>1970-01-01T01:21:03.000Z</time>
      </trkpt>
      <trkpt lat="45.41162" lon="4.62154">
        <ele>1078.5</ele>
        <time>1970-01-01T01:21:05.000Z</time>
      </trkpt>
      <trkpt lat="45.4116" lon="4.62151">
        <ele>1078.8</ele>
        <time>1970-01-01T01:21:07.000Z</time>
      </trkpt>
      <trkpt lat="45.41156" lon="4.62147">
        <ele>1079.2</ele>
        <time>1970-01-01T01:21:09.000Z</time>
      </trkpt>
      <trkpt lat="45.41153" lon="4.62143">
        <ele>1079.8</ele>
        <time>1970-01-01T01:21:11.000Z</time>
      </trkpt>
      <trkpt lat="45.41151" lon="4.6214">
        <ele>1080.3</ele>
        <time>1970-01-01T01:21:12.000Z</time>
      </trkpt>
      <trkpt lat="45.41147" lon="4.62135">
        <ele>1081.2</ele>
        <time>1970-01-01T01:21:14.000Z</time>
      </trkpt>
      <trkpt lat="45.41144" lon="4.62131">
        <ele>1082</ele>
        <time>1970-01-01T01:21:16.000Z</time>
      </trkpt>
      <trkpt lat="45.4114" lon="4.62127">
        <ele>1082.8</ele>
        <time>1970-01-01T01:21:18.000Z</time>
      </trkpt>
      <trkpt lat="45.41136" lon="4.62124">
        <ele>1083.4</ele>
        <time>1970-01-01T01:21:20.000Z</time>
      </trkpt>
      <trkpt lat="45.41133" lon="4.6212">
        <ele>1084.1</ele>
        <time>1970-01-01T01:21:22.000Z</time>
      </trkpt>
      <trkpt lat="45.41129" lon="4.62116">
        <ele>1084.9</ele>
        <time>1970-01-01T01:21:24.000Z</time>
      </trkpt>
      <trkpt lat="45.41126" lon="4.62114">
        <ele>1085.5</ele>
        <time>1970-01-01T01:21:26.000Z</time>
      </trkpt>
      <trkpt lat="45.4112" lon="4.62109">
        <ele>1086.5</ele>
        <time>1970-01-01T01:21:28.000Z</time>
      </trkpt>
      <trkpt lat="45.41116" lon="4.62106">
        <ele>1087.2</ele>
        <time>1970-01-01T01:21:30.000Z</time>
      </trkpt>
      <trkpt lat="45.41112" lon="4.62103">
        <ele>1087.8</ele>
        <time>1970-01-01T01:21:32.000Z</time>
      </trkpt>
      <trkpt lat="45.41108" lon="4.62101">
        <ele>1088.2</ele>
        <time>1970-01-01T01:21:33.000Z</time>
      </trkpt>
      <trkpt lat="45.41105" lon="4.62098">
        <ele>1088.6</ele>
        <time>1970-01-01T01:21:35.000Z</time>
      </trkpt>
      <trkpt lat="45.41102" lon="4.62095">
        <ele>1089.1</ele>
        <time>1970-01-01T01:21:37.000Z</time>
      </trkpt>
      <trkpt lat="45.41099" lon="4.62092">
        <ele>1089.6</ele>
        <time>1970-01-01T01:21:39.000Z</time>
      </trkpt>
      <trkpt lat="45.41095" lon="4.62089">
        <ele>1090.1</ele>
        <time>1970-01-01T01:21:41.000Z</time>
      </trkpt>
      <trkpt lat="45.41091" lon="4.62087">
        <ele>1090.5</ele>
        <time>1970-01-01T01:21:43.000Z</time>
      </trkpt>
      <trkpt lat="45.41088" lon="4.62085">
        <ele>1091</ele>
        <time>1970-01-01T01:21:45.000Z</time>
      </trkpt>
      <trkpt lat="45.41085" lon="4.62082">
        <ele>1091.3</ele>
        <time>1970-01-01T01:21:47.000Z</time>
      </trkpt>
      <trkpt lat="45.41082" lon="4.62078">
        <ele>1091.6</ele>
        <time>1970-01-01T01:21:49.000Z</time>
      </trkpt>
      <trkpt lat="45.41079" lon="4.62075">
        <ele>1092</ele>
        <time>1970-01-01T01:21:51.000Z</time>
      </trkpt>
      <trkpt lat="45.41076" lon="4.62074">
        <ele>1092.2</ele>
        <time>1970-01-01T01:21:52.000Z</time>
      </trkpt>
      <trkpt lat="45.41072" lon="4.62071">
        <ele>1092.6</ele>
        <time>1970-01-01T01:21:54.000Z</time>
      </trkpt>
      <trkpt lat="45.41068" lon="4.62067">
        <ele>1093</ele>
        <time>1970-01-01T01:21:56.000Z</time>
      </trkpt>
      <trkpt lat="45.41065" lon="4.62064">
        <ele>1093.3</ele>
        <time>1970-01-01T01:21:58.000Z</time>
      </trkpt>
      <trkpt lat="45.41062" lon="4.62062">
        <ele>1093.6</ele>
        <time>1970-01-01T01:22:00.000Z</time>
      </trkpt>
      <trkpt lat="45.41058" lon="4.62058">
        <ele>1094</ele>
        <time>1970-01-01T01:22:02.000Z</time>
      </trkpt>
      <trkpt lat="45.41055" lon="4.62053">
        <ele>1094.4</ele>
        <time>1970-01-01T01:22:04.000Z</time>
      </trkpt>
      <trkpt lat="45.41051" lon="4.6205">
        <ele>1094.8</ele>
        <time>1970-01-01T01:22:06.000Z</time>
      </trkpt>
      <trkpt lat="45.41048" lon="4.62045">
        <ele>1095.1</ele>
        <time>1970-01-01T01:22:08.000Z</time>
      </trkpt>
      <trkpt lat="45.41044" lon="4.62041">
        <ele>1095.5</ele>
        <time>1970-01-01T01:22:10.000Z</time>
      </trkpt>
      <trkpt lat="45.41041" lon="4.62037">
        <ele>1095.9</ele>
        <time>1970-01-01T01:22:12.000Z</time>
      </trkpt>
      <trkpt lat="45.41037" lon="4.62034">
        <ele>1096.3</ele>
        <time>1970-01-01T01:22:14.000Z</time>
      </trkpt>
      <trkpt lat="45.41032" lon="4.62028">
        <ele>1096.8</ele>
        <time>1970-01-01T01:22:16.000Z</time>
      </trkpt>
      <trkpt lat="45.41029" lon="4.62022">
        <ele>1097.2</ele>
        <time>1970-01-01T01:22:18.000Z</time>
      </trkpt>
      <trkpt lat="45.41026" lon="4.6202">
        <ele>1097.5</ele>
        <time>1970-01-01T01:22:19.000Z</time>
      </trkpt>
      <trkpt lat="45.41023" lon="4.62018">
        <ele>1097.8</ele>
        <time>1970-01-01T01:22:21.000Z</time>
      </trkpt>
      <trkpt lat="45.41019" lon="4.62014">
        <ele>1098.2</ele>
        <time>1970-01-01T01:22:23.000Z</time>
      </trkpt>
      <trkpt lat="45.41016" lon="4.6201">
        <ele>1098.5</ele>
        <time>1970-01-01T01:22:24.000Z</time>
      </trkpt>
      <trkpt lat="45.41014" lon="4.62008">
        <ele>1098.8</ele>
        <time>1970-01-01T01:22:25.000Z</time>
      </trkpt>
      <trkpt lat="45.4101" lon="4.62004">
        <ele>1099.1</ele>
        <time>1970-01-01T01:22:27.000Z</time>
      </trkpt>
      <trkpt lat="45.41006" lon="4.62">
        <ele>1099.6</ele>
        <time>1970-01-01T01:22:29.000Z</time>
      </trkpt>
      <trkpt lat="45.41001" lon="4.61996">
        <ele>1100</ele>
        <time>1970-01-01T01:22:31.000Z</time>
      </trkpt>
      <trkpt lat="45.40997" lon="4.61993">
        <ele>1100.4</ele>
        <time>1970-01-01T01:22:33.000Z</time>
      </trkpt>
      <trkpt lat="45.40994" lon="4.61989">
        <ele>1100.7</ele>
        <time>1970-01-01T01:22:35.000Z</time>
      </trkpt>
      <trkpt lat="45.40989" lon="4.61984">
        <ele>1101.2</ele>
        <time>1970-01-01T01:22:37.000Z</time>
      </trkpt>
      <trkpt lat="45.40986" lon="4.6198">
        <ele>1101.6</ele>
        <time>1970-01-01T01:22:39.000Z</time>
      </trkpt>
      <trkpt lat="45.40983" lon="4.61977">
        <ele>1101.9</ele>
        <time>1970-01-01T01:22:41.000Z</time>
      </trkpt>
      <trkpt lat="45.40979" lon="4.61974">
        <ele>1102.3</ele>
        <time>1970-01-01T01:22:43.000Z</time>
      </trkpt>
      <trkpt lat="45.40976" lon="4.61972">
        <ele>1102.6</ele>
        <time>1970-01-01T01:22:44.000Z</time>
      </trkpt>
      <trkpt lat="45.40972" lon="4.61968">
        <ele>1103</ele>
        <time>1970-01-01T01:22:46.000Z</time>
      </trkpt>
      <trkpt lat="45.40969" lon="4.61965">
        <ele>1103.2</ele>
        <time>1970-01-01T01:22:47.000Z</time>
      </trkpt>
      <trkpt lat="45.40967" lon="4.61963">
        <ele>1103.5</ele>
        <time>1970-01-01T01:22:48.000Z</time>
      </trkpt>
      <trkpt lat="45.40963" lon="4.61959">
        <ele>1103.9</ele>
        <time>1970-01-01T01:22:50.000Z</time>
      </trkpt>
      <trkpt lat="45.40959" lon="4.61956">
        <ele>1104.3</ele>
        <time>1970-01-01T01:22:52.000Z</time>
      </trkpt>
      <trkpt lat="45.40956" lon="4.61954">
        <ele>1104.5</ele>
        <time>1970-01-01T01:22:54.000Z</time>
      </trkpt>
      <trkpt lat="45.40953" lon="4.61952">
        <ele>1104.8</ele>
        <time>1970-01-01T01:22:56.000Z</time>
      </trkpt>
      <trkpt lat="45.40949" lon="4.61949">
        <ele>1105.3</ele>
        <time>1970-01-01T01:22:58.000Z</time>
      </trkpt>
      <trkpt lat="45.40946" lon="4.61946">
        <ele>1105.6</ele>
        <time>1970-01-01T01:23:01.000Z</time>
      </trkpt>
      <trkpt lat="45.40941" lon="4.61945">
        <ele>1106.1</ele>
        <time>1970-01-01T01:23:03.000Z</time>
      </trkpt>
      <trkpt lat="45.40937" lon="4.61941">
        <ele>1106.6</ele>
        <time>1970-01-01T01:23:05.000Z</time>
      </trkpt>
      <trkpt lat="45.40932" lon="4.61939">
        <ele>1107.1</ele>
        <time>1970-01-01T01:23:07.000Z</time>
      </trkpt>
      <trkpt lat="45.40928" lon="4.61935">
        <ele>1107.6</ele>
        <time>1970-01-01T01:23:09.000Z</time>
      </trkpt>
      <trkpt lat="45.40925" lon="4.61932">
        <ele>1108</ele>
        <time>1970-01-01T01:23:11.000Z</time>
      </trkpt>
      <trkpt lat="45.40923" lon="4.61928">
        <ele>1108.3</ele>
        <time>1970-01-01T01:23:13.000Z</time>
      </trkpt>
      <trkpt lat="45.40919" lon="4.61923">
        <ele>1108.9</ele>
        <time>1970-01-01T01:23:15.000Z</time>
      </trkpt>
      <trkpt lat="45.40917" lon="4.6192">
        <ele>1109.2</ele>
        <time>1970-01-01T01:23:16.000Z</time>
      </trkpt>
      <trkpt lat="45.40915" lon="4.61917">
        <ele>1109.5</ele>
        <time>1970-01-01T01:23:17.000Z</time>
      </trkpt>
      <trkpt lat="45.40911" lon="4.61913">
        <ele>1109.9</ele>
        <time>1970-01-01T01:23:19.000Z</time>
      </trkpt>
      <trkpt lat="45.40908" lon="4.61908">
        <ele>1110.4</ele>
        <time>1970-01-01T01:23:21.000Z</time>
      </trkpt>
      <trkpt lat="45.40904" lon="4.61905">
        <ele>1110.8</ele>
        <time>1970-01-01T01:23:23.000Z</time>
      </trkpt>
      <trkpt lat="45.40901" lon="4.619">
        <ele>1111.2</ele>
        <time>1970-01-01T01:23:25.000Z</time>
      </trkpt>
      <trkpt lat="45.40897" lon="4.61898">
        <ele>1111.6</ele>
        <time>1970-01-01T01:23:27.000Z</time>
      </trkpt>
      <trkpt lat="45.40894" lon="4.61895">
        <ele>1112</ele>
        <time>1970-01-01T01:23:29.000Z</time>
      </trkpt>
      <trkpt lat="45.40889" lon="4.61893">
        <ele>1112.4</ele>
        <time>1970-01-01T01:23:31.000Z</time>
      </trkpt>
      <trkpt lat="45.40886" lon="4.6189">
        <ele>1112.8</ele>
        <time>1970-01-01T01:23:33.000Z</time>
      </trkpt>
      <trkpt lat="45.40883" lon="4.61889">
        <ele>1113.1</ele>
        <time>1970-01-01T01:23:35.000Z</time>
      </trkpt>
      <trkpt lat="45.40878" lon="4.61888">
        <ele>1113.5</ele>
        <time>1970-01-01T01:23:36.000Z</time>
      </trkpt>
      <trkpt lat="45.40875" lon="4.61887">
        <ele>1113.9</ele>
        <time>1970-01-01T01:23:37.000Z</time>
      </trkpt>
      <trkpt lat="45.4087" lon="4.61884">
        <ele>1114.3</ele>
        <time>1970-01-01T01:23:39.000Z</time>
      </trkpt>
      <trkpt lat="45.40866" lon="4.61882">
        <ele>1114.8</ele>
        <time>1970-01-01T01:23:42.000Z</time>
      </trkpt>
      <trkpt lat="45.40862" lon="4.61879">
        <ele>1115.2</ele>
        <time>1970-01-01T01:23:45.000Z</time>
      </trkpt>
      <trkpt lat="45.40859" lon="4.61876">
        <ele>1115.6</ele>
        <time>1970-01-01T01:23:48.000Z</time>
      </trkpt>
      <trkpt lat="45.40856" lon="4.61873">
        <ele>1115.9</ele>
        <time>1970-01-01T01:23:50.000Z</time>
      </trkpt>
      <trkpt lat="45.40852" lon="4.61871">
        <ele>1116.3</ele>
        <time>1970-01-01T01:23:52.000Z</time>
      </trkpt>
      <trkpt lat="45.40849" lon="4.6187">
        <ele>1116.5</ele>
        <time>1970-01-01T01:23:53.000Z</time>
      </trkpt>
      <trkpt lat="45.40846" lon="4.61868">
        <ele>1116.8</ele>
        <time>1970-01-01T01:23:54.000Z</time>
      </trkpt>
      <trkpt lat="45.40843" lon="4.61867">
        <ele>1117.1</ele>
        <time>1970-01-01T01:23:55.000Z</time>
      </trkpt>
      <trkpt lat="45.40839" lon="4.61865">
        <ele>1117.5</ele>
        <time>1970-01-01T01:23:57.000Z</time>
      </trkpt>
      <trkpt lat="45.40835" lon="4.61862">
        <ele>1117.9</ele>
        <time>1970-01-01T01:24:00.000Z</time>
      </trkpt>
      <trkpt lat="45.4083" lon="4.6186">
        <ele>1118.3</ele>
        <time>1970-01-01T01:24:02.000Z</time>
      </trkpt>
      <trkpt lat="45.40826" lon="4.61858">
        <ele>1118.6</ele>
        <time>1970-01-01T01:24:04.000Z</time>
      </trkpt>
      <trkpt lat="45.40823" lon="4.61857">
        <ele>1118.9</ele>
        <time>1970-01-01T01:24:05.000Z</time>
      </trkpt>
      <trkpt lat="45.4082" lon="4.61856">
        <ele>1119.2</ele>
        <time>1970-01-01T01:24:06.000Z</time>
      </trkpt>
      <trkpt lat="45.40817" lon="4.61855">
        <ele>1119.4</ele>
        <time>1970-01-01T01:24:08.000Z</time>
      </trkpt>
      <trkpt lat="45.40814" lon="4.61855">
        <ele>1119.7</ele>
        <time>1970-01-01T01:24:10.000Z</time>
      </trkpt>
      <trkpt lat="45.40811" lon="4.61854">
        <ele>1120</ele>
        <time>1970-01-01T01:24:12.000Z</time>
      </trkpt>
      <trkpt lat="45.40807" lon="4.61851">
        <ele>1120.4</ele>
        <time>1970-01-01T01:24:14.000Z</time>
      </trkpt>
      <trkpt lat="45.40803" lon="4.61849">
        <ele>1120.8</ele>
        <time>1970-01-01T01:24:16.000Z</time>
      </trkpt>
      <trkpt lat="45.40798" lon="4.61847">
        <ele>1121.2</ele>
        <time>1970-01-01T01:24:18.000Z</time>
      </trkpt>
      <trkpt lat="45.40795" lon="4.61846">
        <ele>1121.4</ele>
        <time>1970-01-01T01:24:19.000Z</time>
      </trkpt>
      <trkpt lat="45.40791" lon="4.61845">
        <ele>1121.8</ele>
        <time>1970-01-01T01:24:21.000Z</time>
      </trkpt>
      <trkpt lat="45.40785" lon="4.61842">
        <ele>1122.3</ele>
        <time>1970-01-01T01:24:23.000Z</time>
      </trkpt>
      <trkpt lat="45.40778" lon="4.61842">
        <ele>1122.9</ele>
        <time>1970-01-01T01:24:25.000Z</time>
      </trkpt>
      <trkpt lat="45.40775" lon="4.61841">
        <ele>1123.2</ele>
        <time>1970-01-01T01:24:26.000Z</time>
      </trkpt>
      <trkpt lat="45.40772" lon="4.61839">
        <ele>1123.5</ele>
        <time>1970-01-01T01:24:27.000Z</time>
      </trkpt>
      <trkpt lat="45.40768" lon="4.61838">
        <ele>1123.9</ele>
        <time>1970-01-01T01:24:29.000Z</time>
      </trkpt>
      <trkpt lat="45.40764" lon="4.61836">
        <ele>1124.2</ele>
        <time>1970-01-01T01:24:31.000Z</time>
      </trkpt>
      <trkpt lat="45.40761" lon="4.61836">
        <ele>1124.5</ele>
        <time>1970-01-01T01:24:34.000Z</time>
      </trkpt>
      <trkpt lat="45.40759" lon="4.61834">
        <ele>1124.8</ele>
        <time>1970-01-01T01:24:35.000Z</time>
      </trkpt>
      <trkpt lat="45.40755" lon="4.61834">
        <ele>1125.2</ele>
        <time>1970-01-01T01:24:37.000Z</time>
      </trkpt>
      <trkpt lat="45.40752" lon="4.61834">
        <ele>1125.5</ele>
        <time>1970-01-01T01:24:39.000Z</time>
      </trkpt>
      <trkpt lat="45.40748" lon="4.61833">
        <ele>1126</ele>
        <time>1970-01-01T01:24:42.000Z</time>
      </trkpt>
      <trkpt lat="45.40745" lon="4.61834">
        <ele>1126.3</ele>
        <time>1970-01-01T01:24:44.000Z</time>
      </trkpt>
      <trkpt lat="45.40742" lon="4.61834">
        <ele>1126.6</ele>
        <time>1970-01-01T01:24:46.000Z</time>
      </trkpt>
      <trkpt lat="45.40738" lon="4.61834">
        <ele>1127</ele>
        <time>1970-01-01T01:24:48.000Z</time>
      </trkpt>
      <trkpt lat="45.40734" lon="4.61833">
        <ele>1127.4</ele>
        <time>1970-01-01T01:24:50.000Z</time>
      </trkpt>
      <trkpt lat="45.4073" lon="4.61834">
        <ele>1127.8</ele>
        <time>1970-01-01T01:24:52.000Z</time>
      </trkpt>
      <trkpt lat="45.40726" lon="4.61834">
        <ele>1128.2</ele>
        <time>1970-01-01T01:24:54.000Z</time>
      </trkpt>
      <trkpt lat="45.4072" lon="4.61835">
        <ele>1128.8</ele>
        <time>1970-01-01T01:24:56.000Z</time>
      </trkpt>
      <trkpt lat="45.40715" lon="4.61835">
        <ele>1129.6</ele>
        <time>1970-01-01T01:24:58.000Z</time>
      </trkpt>
      <trkpt lat="45.4071" lon="4.61834">
        <ele>1130.5</ele>
        <time>1970-01-01T01:25:00.000Z</time>
      </trkpt>
      <trkpt lat="45.40707" lon="4.61835">
        <ele>1130.9</ele>
        <time>1970-01-01T01:25:01.000Z</time>
      </trkpt>
      <trkpt lat="45.40702" lon="4.61836">
        <ele>1131.6</ele>
        <time>1970-01-01T01:25:02.000Z</time>
      </trkpt>
      <trkpt lat="45.40699" lon="4.61836">
        <ele>1131.9</ele>
        <time>1970-01-01T01:25:03.000Z</time>
      </trkpt>
      <trkpt lat="45.40694" lon="4.61835">
        <ele>1132.5</ele>
        <time>1970-01-01T01:25:05.000Z</time>
      </trkpt>
      <trkpt lat="45.40692" lon="4.61834">
        <ele>1132.8</ele>
        <time>1970-01-01T01:25:06.000Z</time>
      </trkpt>
      <trkpt lat="45.40687" lon="4.61834">
        <ele>1133.3</ele>
        <time>1970-01-01T01:25:08.000Z</time>
      </trkpt>
      <trkpt lat="45.40682" lon="4.61835">
        <ele>1133.8</ele>
        <time>1970-01-01T01:25:09.000Z</time>
      </trkpt>
      <trkpt lat="45.40679" lon="4.61835">
        <ele>1134.2</ele>
        <time>1970-01-01T01:25:10.000Z</time>
      </trkpt>
      <trkpt lat="45.40676" lon="4.61837">
        <ele>1134.6</ele>
        <time>1970-01-01T01:25:12.000Z</time>
      </trkpt>
      <trkpt lat="45.40672" lon="4.61836">
        <ele>1135</ele>
        <time>1970-01-01T01:25:14.000Z</time>
      </trkpt>
      <trkpt lat="45.40667" lon="4.61837">
        <ele>1135</ele>
        <time>1970-01-01T01:25:16.000Z</time>
      </trkpt>
      <trkpt lat="45.40664" lon="4.61835">
        <ele>1135.1</ele>
        <time>1970-01-01T01:25:18.000Z</time>
      </trkpt>
      <trkpt lat="45.40659" lon="4.61834">
        <ele>1136.6</ele>
        <time>1970-01-01T01:25:20.000Z</time>
      </trkpt>
      <trkpt lat="45.40657" lon="4.61835">
        <ele>1137.5</ele>
        <time>1970-01-01T01:25:22.000Z</time>
      </trkpt>
      <trkpt lat="45.40654" lon="4.61835">
        <ele>1138.3</ele>
        <time>1970-01-01T01:25:24.000Z</time>
      </trkpt>
      <trkpt lat="45.40651" lon="4.61836">
        <ele>1139</ele>
        <time>1970-01-01T01:25:27.000Z</time>
      </trkpt>
      <trkpt lat="45.40647" lon="4.61837">
        <ele>1140</ele>
        <time>1970-01-01T01:25:29.000Z</time>
      </trkpt>
      <trkpt lat="45.40642" lon="4.61837">
        <ele>1140.9</ele>
        <time>1970-01-01T01:25:31.000Z</time>
      </trkpt>
      <trkpt lat="45.40639" lon="4.61838">
        <ele>1141.4</ele>
        <time>1970-01-01T01:25:33.000Z</time>
      </trkpt>
      <trkpt lat="45.40637" lon="4.61839">
        <ele>1141.6</ele>
        <time>1970-01-01T01:25:35.000Z</time>
      </trkpt>
      <trkpt lat="45.40631" lon="4.61839">
        <ele>1141.8</ele>
        <time>1970-01-01T01:25:37.000Z</time>
      </trkpt>
      <trkpt lat="45.40627" lon="4.6184">
        <ele>1143</ele>
        <time>1970-01-01T01:25:39.000Z</time>
      </trkpt>
      <trkpt lat="45.40623" lon="4.61841">
        <ele>1144.3</ele>
        <time>1970-01-01T01:25:41.000Z</time>
      </trkpt>
      <trkpt lat="45.40619" lon="4.61841">
        <ele>1144.6</ele>
        <time>1970-01-01T01:25:42.000Z</time>
      </trkpt>
      <trkpt lat="45.40616" lon="4.61841">
        <ele>1145</ele>
        <time>1970-01-01T01:25:43.000Z</time>
      </trkpt>
      <trkpt lat="45.40611" lon="4.6184">
        <ele>1145.5</ele>
        <time>1970-01-01T01:25:45.000Z</time>
      </trkpt>
      <trkpt lat="45.40606" lon="4.6184">
        <ele>1146</ele>
        <time>1970-01-01T01:25:47.000Z</time>
      </trkpt>
      <trkpt lat="45.40601" lon="4.61841">
        <ele>1146.5</ele>
        <time>1970-01-01T01:25:49.000Z</time>
      </trkpt>
      <trkpt lat="45.40597" lon="4.61843">
        <ele>1146.8</ele>
        <time>1970-01-01T01:25:51.000Z</time>
      </trkpt>
      <trkpt lat="45.40594" lon="4.61842">
        <ele>1147</ele>
        <time>1970-01-01T01:25:52.000Z</time>
      </trkpt>
      <trkpt lat="45.40591" lon="4.61842">
        <ele>1147.3</ele>
        <time>1970-01-01T01:25:53.000Z</time>
      </trkpt>
      <trkpt lat="45.40587" lon="4.61841">
        <ele>1147.6</ele>
        <time>1970-01-01T01:25:54.000Z</time>
      </trkpt>
      <trkpt lat="45.40584" lon="4.61841">
        <ele>1147.8</ele>
        <time>1970-01-01T01:25:55.000Z</time>
      </trkpt>
      <trkpt lat="45.4058" lon="4.6184">
        <ele>1148.1</ele>
        <time>1970-01-01T01:25:57.000Z</time>
      </trkpt>
      <trkpt lat="45.40577" lon="4.61841">
        <ele>1148.4</ele>
        <time>1970-01-01T01:25:58.000Z</time>
      </trkpt>
      <trkpt lat="45.40572" lon="4.61838">
        <ele>1148.8</ele>
        <time>1970-01-01T01:26:00.000Z</time>
      </trkpt>
      <trkpt lat="45.40569" lon="4.61837">
        <ele>1149.1</ele>
        <time>1970-01-01T01:26:02.000Z</time>
      </trkpt>
      <trkpt lat="45.40564" lon="4.61838">
        <ele>1149.4</ele>
        <time>1970-01-01T01:26:04.000Z</time>
      </trkpt>
      <trkpt lat="45.40561" lon="4.61837">
        <ele>1149.7</ele>
        <time>1970-01-01T01:26:06.000Z</time>
      </trkpt>
      <trkpt lat="45.40557" lon="4.61837">
        <ele>1150</ele>
        <time>1970-01-01T01:26:08.000Z</time>
      </trkpt>
      <trkpt lat="45.40554" lon="4.61837">
        <ele>1150.2</ele>
        <time>1970-01-01T01:26:09.000Z</time>
      </trkpt>
      <trkpt lat="45.40549" lon="4.61835">
        <ele>1150.5</ele>
        <time>1970-01-01T01:26:10.000Z</time>
      </trkpt>
      <trkpt lat="45.40545" lon="4.61834">
        <ele>1150.9</ele>
        <time>1970-01-01T01:26:12.000Z</time>
      </trkpt>
      <trkpt lat="45.4054" lon="4.61833">
        <ele>1151.2</ele>
        <time>1970-01-01T01:26:14.000Z</time>
      </trkpt>
      <trkpt lat="45.40537" lon="4.61832">
        <ele>1151.5</ele>
        <time>1970-01-01T01:26:15.000Z</time>
      </trkpt>
      <trkpt lat="45.40534" lon="4.61831">
        <ele>1151.7</ele>
        <time>1970-01-01T01:26:16.000Z</time>
      </trkpt>
      <trkpt lat="45.40531" lon="4.61829">
        <ele>1152</ele>
        <time>1970-01-01T01:26:17.000Z</time>
      </trkpt>
      <trkpt lat="45.40528" lon="4.61829">
        <ele>1152.3</ele>
        <time>1970-01-01T01:26:18.000Z</time>
      </trkpt>
      <trkpt lat="45.40522" lon="4.61828">
        <ele>1152.7</ele>
        <time>1970-01-01T01:26:20.000Z</time>
      </trkpt>
      <trkpt lat="45.40519" lon="4.61827">
        <ele>1153</ele>
        <time>1970-01-01T01:26:21.000Z</time>
      </trkpt>
      <trkpt lat="45.40517" lon="4.61827">
        <ele>1153.2</ele>
        <time>1970-01-01T01:26:22.000Z</time>
      </trkpt>
      <trkpt lat="45.40513" lon="4.61826">
        <ele>1153.5</ele>
        <time>1970-01-01T01:26:24.000Z</time>
      </trkpt>
      <trkpt lat="45.4051" lon="4.61828">
        <ele>1153.8</ele>
        <time>1970-01-01T01:26:25.000Z</time>
      </trkpt>
      <trkpt lat="45.40507" lon="4.61828">
        <ele>1154</ele>
        <time>1970-01-01T01:26:26.000Z</time>
      </trkpt>
      <trkpt lat="45.40504" lon="4.61828">
        <ele>1154.3</ele>
        <time>1970-01-01T01:26:27.000Z</time>
      </trkpt>
      <trkpt lat="45.40499" lon="4.61826">
        <ele>1154.7</ele>
        <time>1970-01-01T01:26:29.000Z</time>
      </trkpt>
      <trkpt lat="45.40496" lon="4.61825">
        <ele>1154.9</ele>
        <time>1970-01-01T01:26:30.000Z</time>
      </trkpt>
      <trkpt lat="45.40491" lon="4.61824">
        <ele>1155.3</ele>
        <time>1970-01-01T01:26:32.000Z</time>
      </trkpt>
      <trkpt lat="45.40487" lon="4.61825">
        <ele>1155.6</ele>
        <time>1970-01-01T01:26:34.000Z</time>
      </trkpt>
      <trkpt lat="45.40484" lon="4.61822">
        <ele>1155.9</ele>
        <time>1970-01-01T01:26:36.000Z</time>
      </trkpt>
      <trkpt lat="45.40481" lon="4.6182">
        <ele>1156.2</ele>
        <time>1970-01-01T01:26:38.000Z</time>
      </trkpt>
      <trkpt lat="45.40478" lon="4.6182">
        <ele>1156.4</ele>
        <time>1970-01-01T01:26:39.000Z</time>
      </trkpt>
      <trkpt lat="45.40474" lon="4.61818">
        <ele>1156.7</ele>
        <time>1970-01-01T01:26:41.000Z</time>
      </trkpt>
      <trkpt lat="45.40468" lon="4.61817">
        <ele>1157.2</ele>
        <time>1970-01-01T01:26:43.000Z</time>
      </trkpt>
      <trkpt lat="45.40465" lon="4.61816">
        <ele>1157.6</ele>
        <time>1970-01-01T01:26:44.000Z</time>
      </trkpt>
      <trkpt lat="45.40463" lon="4.61815">
        <ele>1157.8</ele>
        <time>1970-01-01T01:26:45.000Z</time>
      </trkpt>
      <trkpt lat="45.40458" lon="4.61814">
        <ele>1158.3</ele>
        <time>1970-01-01T01:26:47.000Z</time>
      </trkpt>
      <trkpt lat="45.40455" lon="4.61813">
        <ele>1158.6</ele>
        <time>1970-01-01T01:26:48.000Z</time>
      </trkpt>
      <trkpt lat="45.4045" lon="4.61811">
        <ele>1159.1</ele>
        <time>1970-01-01T01:26:50.000Z</time>
      </trkpt>
      <trkpt lat="45.40446" lon="4.6181">
        <ele>1159.7</ele>
        <time>1970-01-01T01:26:52.000Z</time>
      </trkpt>
      <trkpt lat="45.40443" lon="4.61809">
        <ele>1160.1</ele>
        <time>1970-01-01T01:26:54.000Z</time>
      </trkpt>
      <trkpt lat="45.40438" lon="4.61807">
        <ele>1160.7</ele>
        <time>1970-01-01T01:26:56.000Z</time>
      </trkpt>
      <trkpt lat="45.40434" lon="4.61807">
        <ele>1161.1</ele>
        <time>1970-01-01T01:26:58.000Z</time>
      </trkpt>
      <trkpt lat="45.40429" lon="4.61807">
        <ele>1161.7</ele>
        <time>1970-01-01T01:27:00.000Z</time>
      </trkpt>
      <trkpt lat="45.40424" lon="4.61807">
        <ele>1162.1</ele>
        <time>1970-01-01T01:27:02.000Z</time>
      </trkpt>
      <trkpt lat="45.40421" lon="4.61807">
        <ele>1162.5</ele>
        <time>1970-01-01T01:27:04.000Z</time>
      </trkpt>
      <trkpt lat="45.40416" lon="4.61806">
        <ele>1162.9</ele>
        <time>1970-01-01T01:27:06.000Z</time>
      </trkpt>
      <trkpt lat="45.40412" lon="4.61807">
        <ele>1163.4</ele>
        <time>1970-01-01T01:27:08.000Z</time>
      </trkpt>
      <trkpt lat="45.40408" lon="4.61807">
        <ele>1163.8</ele>
        <time>1970-01-01T01:27:10.000Z</time>
      </trkpt>
      <trkpt lat="45.40403" lon="4.61807">
        <ele>1164.3</ele>
        <time>1970-01-01T01:27:12.000Z</time>
      </trkpt>
      <trkpt lat="45.404" lon="4.61807">
        <ele>1164.6</ele>
        <time>1970-01-01T01:27:13.000Z</time>
      </trkpt>
      <trkpt lat="45.40397" lon="4.61805">
        <ele>1165</ele>
        <time>1970-01-01T01:27:15.000Z</time>
      </trkpt>
      <trkpt lat="45.40393" lon="4.61804">
        <ele>1165.4</ele>
        <time>1970-01-01T01:27:17.000Z</time>
      </trkpt>
      <trkpt lat="45.40388" lon="4.61804">
        <ele>1165.9</ele>
        <time>1970-01-01T01:27:19.000Z</time>
      </trkpt>
      <trkpt lat="45.40384" lon="4.61802">
        <ele>1166.3</ele>
        <time>1970-01-01T01:27:21.000Z</time>
      </trkpt>
      <trkpt lat="45.40381" lon="4.61802">
        <ele>1166.5</ele>
        <time>1970-01-01T01:27:22.000Z</time>
      </trkpt>
      <trkpt lat="45.40378" lon="4.61804">
        <ele>1166.8</ele>
        <time>1970-01-01T01:27:23.000Z</time>
      </trkpt>
      <trkpt lat="45.40374" lon="4.61805">
        <ele>1167.1</ele>
        <time>1970-01-01T01:27:25.000Z</time>
      </trkpt>
      <trkpt lat="45.40371" lon="4.61803">
        <ele>1167.4</ele>
        <time>1970-01-01T01:27:27.000Z</time>
      </trkpt>
      <trkpt lat="45.40367" lon="4.61802">
        <ele>1167.8</ele>
        <time>1970-01-01T01:27:29.000Z</time>
      </trkpt>
      <trkpt lat="45.40364" lon="4.61802">
        <ele>1168.1</ele>
        <time>1970-01-01T01:27:31.000Z</time>
      </trkpt>
      <trkpt lat="45.40359" lon="4.61801">
        <ele>1168.5</ele>
        <time>1970-01-01T01:27:33.000Z</time>
      </trkpt>
      <trkpt lat="45.40356" lon="4.61801">
        <ele>1168.8</ele>
        <time>1970-01-01T01:27:34.000Z</time>
      </trkpt>
      <trkpt lat="45.40353" lon="4.618">
        <ele>1169.2</ele>
        <time>1970-01-01T01:27:36.000Z</time>
      </trkpt>
      <trkpt lat="45.40349" lon="4.61799">
        <ele>1169.5</ele>
        <time>1970-01-01T01:27:38.000Z</time>
      </trkpt>
      <trkpt lat="45.40345" lon="4.61797">
        <ele>1169.9</ele>
        <time>1970-01-01T01:27:40.000Z</time>
      </trkpt>
      <trkpt lat="45.40342" lon="4.618">
        <ele>1170.3</ele>
        <time>1970-01-01T01:27:42.000Z</time>
      </trkpt>
      <trkpt lat="45.40337" lon="4.61802">
        <ele>1170.9</ele>
        <time>1970-01-01T01:27:44.000Z</time>
      </trkpt>
      <trkpt lat="45.40333" lon="4.61803">
        <ele>1171.5</ele>
        <time>1970-01-01T01:27:46.000Z</time>
      </trkpt>
      <trkpt lat="45.40329" lon="4.61804">
        <ele>1172</ele>
        <time>1970-01-01T01:27:48.000Z</time>
      </trkpt>
      <trkpt lat="45.40326" lon="4.61804">
        <ele>1172.3</ele>
        <time>1970-01-01T01:27:49.000Z</time>
      </trkpt>
      <trkpt lat="45.40322" lon="4.61802">
        <ele>1172.6</ele>
        <time>1970-01-01T01:27:51.000Z</time>
      </trkpt>
      <trkpt lat="45.40317" lon="4.61805">
        <ele>1173.1</ele>
        <time>1970-01-01T01:27:53.000Z</time>
      </trkpt>
      <trkpt lat="45.40313" lon="4.61806">
        <ele>1173.6</ele>
        <time>1970-01-01T01:27:55.000Z</time>
      </trkpt>
      <trkpt lat="45.40309" lon="4.61807">
        <ele>1173.9</ele>
        <time>1970-01-01T01:27:57.000Z</time>
      </trkpt>
      <trkpt lat="45.40306" lon="4.61809">
        <ele>1174.2</ele>
        <time>1970-01-01T01:27:58.000Z</time>
      </trkpt>
      <trkpt lat="45.40304" lon="4.61811">
        <ele>1174.4</ele>
        <time>1970-01-01T01:28:00.000Z</time>
      </trkpt>
      <trkpt lat="45.40302" lon="4.61813">
        <ele>1174.7</ele>
        <time>1970-01-01T01:28:01.000Z</time>
      </trkpt>
      <trkpt lat="45.40299" lon="4.61816">
        <ele>1175.1</ele>
        <time>1970-01-01T01:28:02.000Z</time>
      </trkpt>
      <trkpt lat="45.40296" lon="4.61818">
        <ele>1175.4</ele>
        <time>1970-01-01T01:28:03.000Z</time>
      </trkpt>
      <trkpt lat="45.40293" lon="4.61823">
        <ele>1175.9</ele>
        <time>1970-01-01T01:28:06.000Z</time>
      </trkpt>
      <trkpt lat="45.40289" lon="4.61826">
        <ele>1176.3</ele>
        <time>1970-01-01T01:28:07.000Z</time>
      </trkpt>
      <trkpt lat="45.40287" lon="4.61828">
        <ele>1176.6</ele>
        <time>1970-01-01T01:28:08.000Z</time>
      </trkpt>
      <trkpt lat="45.40283" lon="4.61832">
        <ele>1177</ele>
        <time>1970-01-01T01:28:09.000Z</time>
      </trkpt>
      <trkpt lat="45.40279" lon="4.61833">
        <ele>1177.4</ele>
        <time>1970-01-01T01:28:11.000Z</time>
      </trkpt>
      <trkpt lat="45.40273" lon="4.61837">
        <ele>1178.1</ele>
        <time>1970-01-01T01:28:13.000Z</time>
      </trkpt>
      <trkpt lat="45.4027" lon="4.61841">
        <ele>1178.5</ele>
        <time>1970-01-01T01:28:14.000Z</time>
      </trkpt>
      <trkpt lat="45.40267" lon="4.61843">
        <ele>1178.7</ele>
        <time>1970-01-01T01:28:15.000Z</time>
      </trkpt>
      <trkpt lat="45.40265" lon="4.61847">
        <ele>1179.1</ele>
        <time>1970-01-01T01:28:16.000Z</time>
      </trkpt>
      <trkpt lat="45.40262" lon="4.61851">
        <ele>1179.5</ele>
        <time>1970-01-01T01:28:17.000Z</time>
      </trkpt>
      <trkpt lat="45.4026" lon="4.61855">
        <ele>1179.8</ele>
        <time>1970-01-01T01:28:18.000Z</time>
      </trkpt>
      <trkpt lat="45.40256" lon="4.61859">
        <ele>1180.3</ele>
        <time>1970-01-01T01:28:20.000Z</time>
      </trkpt>
      <trkpt lat="45.40253" lon="4.61865">
        <ele>1180.8</ele>
        <time>1970-01-01T01:28:22.000Z</time>
      </trkpt>
      <trkpt lat="45.40249" lon="4.61867">
        <ele>1181.1</ele>
        <time>1970-01-01T01:28:23.000Z</time>
      </trkpt>
      <trkpt lat="45.40245" lon="4.61872">
        <ele>1181.6</ele>
        <time>1970-01-01T01:28:25.000Z</time>
      </trkpt>
      <trkpt lat="45.40242" lon="4.61877">
        <ele>1182</ele>
        <time>1970-01-01T01:28:27.000Z</time>
      </trkpt>
      <trkpt lat="45.4024" lon="4.6188">
        <ele>1182.2</ele>
        <time>1970-01-01T01:28:28.000Z</time>
      </trkpt>
      <trkpt lat="45.40239" lon="4.61884">
        <ele>1182.5</ele>
        <time>1970-01-01T01:28:29.000Z</time>
      </trkpt>
      <trkpt lat="45.40235" lon="4.6189">
        <ele>1183</ele>
        <time>1970-01-01T01:28:31.000Z</time>
      </trkpt>
      <trkpt lat="45.40233" lon="4.61898">
        <ele>1183.5</ele>
        <time>1970-01-01T01:28:33.000Z</time>
      </trkpt>
      <trkpt lat="45.40231" lon="4.61904">
        <ele>1183.9</ele>
        <time>1970-01-01T01:28:35.000Z</time>
      </trkpt>
      <trkpt lat="45.40229" lon="4.61909">
        <ele>1184.2</ele>
        <time>1970-01-01T01:28:37.000Z</time>
      </trkpt>
      <trkpt lat="45.40227" lon="4.61912">
        <ele>1184.5</ele>
        <time>1970-01-01T01:28:39.000Z</time>
      </trkpt>
      <trkpt lat="45.40226" lon="4.61916">
        <ele>1184.7</ele>
        <time>1970-01-01T01:28:41.000Z</time>
      </trkpt>
      <trkpt lat="45.40224" lon="4.61919">
        <ele>1184.9</ele>
        <time>1970-01-01T01:28:42.000Z</time>
      </trkpt>
      <trkpt lat="45.40223" lon="4.61923">
        <ele>1185.2</ele>
        <time>1970-01-01T01:28:44.000Z</time>
      </trkpt>
      <trkpt lat="45.4022" lon="4.61926">
        <ele>1185.4</ele>
        <time>1970-01-01T01:28:45.000Z</time>
      </trkpt>
      <trkpt lat="45.40218" lon="4.61928">
        <ele>1185.7</ele>
        <time>1970-01-01T01:28:46.000Z</time>
      </trkpt>
      <trkpt lat="45.40215" lon="4.61929">
        <ele>1185.9</ele>
        <time>1970-01-01T01:28:47.000Z</time>
      </trkpt>
      <trkpt lat="45.40213" lon="4.61932">
        <ele>1186.2</ele>
        <time>1970-01-01T01:28:48.000Z</time>
      </trkpt>
      <trkpt lat="45.40211" lon="4.61935">
        <ele>1186.4</ele>
        <time>1970-01-01T01:28:49.000Z</time>
      </trkpt>
      <trkpt lat="45.40209" lon="4.6194">
        <ele>1186.8</ele>
        <time>1970-01-01T01:28:51.000Z</time>
      </trkpt>
      <trkpt lat="45.40206" lon="4.61942">
        <ele>1187.1</ele>
        <time>1970-01-01T01:28:53.000Z</time>
      </trkpt>
      <trkpt lat="45.40202" lon="4.61945">
        <ele>1187.5</ele>
        <time>1970-01-01T01:28:55.000Z</time>
      </trkpt>
      <trkpt lat="45.40199" lon="4.61947">
        <ele>1187.7</ele>
        <time>1970-01-01T01:28:57.000Z</time>
      </trkpt>
      <trkpt lat="45.40198" lon="4.6195">
        <ele>1188</ele>
        <time>1970-01-01T01:28:58.000Z</time>
      </trkpt>
      <trkpt lat="45.40194" lon="4.61953">
        <ele>1188.3</ele>
        <time>1970-01-01T01:29:00.000Z</time>
      </trkpt>
      <trkpt lat="45.40192" lon="4.61955">
        <ele>1188.6</ele>
        <time>1970-01-01T01:29:02.000Z</time>
      </trkpt>
      <trkpt lat="45.40188" lon="4.61958">
        <ele>1189</ele>
        <time>1970-01-01T01:29:04.000Z</time>
      </trkpt>
      <trkpt lat="45.40186" lon="4.61961">
        <ele>1189.2</ele>
        <time>1970-01-01T01:29:05.000Z</time>
      </trkpt>
      <trkpt lat="45.40182" lon="4.61967">
        <ele>1189.7</ele>
        <time>1970-01-01T01:29:07.000Z</time>
      </trkpt>
      <trkpt lat="45.40179" lon="4.61971">
        <ele>1190.1</ele>
        <time>1970-01-01T01:29:09.000Z</time>
      </trkpt>
      <trkpt lat="45.40174" lon="4.61972">
        <ele>1190.5</ele>
        <time>1970-01-01T01:29:11.000Z</time>
      </trkpt>
      <trkpt lat="45.40171" lon="4.61974">
        <ele>1190.8</ele>
        <time>1970-01-01T01:29:12.000Z</time>
      </trkpt>
      <trkpt lat="45.40167" lon="4.61976">
        <ele>1191.2</ele>
        <time>1970-01-01T01:29:14.000Z</time>
      </trkpt>
      <trkpt lat="45.40164" lon="4.61983">
        <ele>1191.6</ele>
        <time>1970-01-01T01:29:16.000Z</time>
      </trkpt>
      <trkpt lat="45.40161" lon="4.61989">
        <ele>1192.1</ele>
        <time>1970-01-01T01:29:18.000Z</time>
      </trkpt>
      <trkpt lat="45.40159" lon="4.61992">
        <ele>1192.4</ele>
        <time>1970-01-01T01:29:20.000Z</time>
      </trkpt>
      <trkpt lat="45.40155" lon="4.61996">
        <ele>1192.7</ele>
        <time>1970-01-01T01:29:22.000Z</time>
      </trkpt>
      <trkpt lat="45.40152" lon="4.61999">
        <ele>1193</ele>
        <time>1970-01-01T01:29:23.000Z</time>
      </trkpt>
      <trkpt lat="45.40148" lon="4.62001">
        <ele>1193.4</ele>
        <time>1970-01-01T01:29:25.000Z</time>
      </trkpt>
      <trkpt lat="45.40145" lon="4.62004">
        <ele>1193.7</ele>
        <time>1970-01-01T01:29:27.000Z</time>
      </trkpt>
      <trkpt lat="45.40141" lon="4.62006">
        <ele>1194</ele>
        <time>1970-01-01T01:29:29.000Z</time>
      </trkpt>
      <trkpt lat="45.40139" lon="4.62008">
        <ele>1194.3</ele>
        <time>1970-01-01T01:29:30.000Z</time>
      </trkpt>
      <trkpt lat="45.40135" lon="4.6201">
        <ele>1194.8</ele>
        <time>1970-01-01T01:29:32.000Z</time>
      </trkpt>
      <trkpt lat="45.40132" lon="4.62013">
        <ele>1195.3</ele>
        <time>1970-01-01T01:29:34.000Z</time>
      </trkpt>
      <trkpt lat="45.40129" lon="4.62015">
        <ele>1195.6</ele>
        <time>1970-01-01T01:29:36.000Z</time>
      </trkpt>
      <trkpt lat="45.40125" lon="4.62015">
        <ele>1196</ele>
        <time>1970-01-01T01:29:38.000Z</time>
      </trkpt>
      <trkpt lat="45.40123" lon="4.62018">
        <ele>1196.4</ele>
        <time>1970-01-01T01:29:40.000Z</time>
      </trkpt>
      <trkpt lat="45.40119" lon="4.6202">
        <ele>1196.8</ele>
        <time>1970-01-01T01:29:42.000Z</time>
      </trkpt>
      <trkpt lat="45.40115" lon="4.6202">
        <ele>1197.3</ele>
        <time>1970-01-01T01:29:44.000Z</time>
      </trkpt>
      <trkpt lat="45.40112" lon="4.62021">
        <ele>1197.7</ele>
        <time>1970-01-01T01:29:47.000Z</time>
      </trkpt>
      <trkpt lat="45.40108" lon="4.62017">
        <ele>1198.2</ele>
        <time>1970-01-01T01:29:49.000Z</time>
      </trkpt>
      <trkpt lat="45.40104" lon="4.62013">
        <ele>1198.8</ele>
        <time>1970-01-01T01:29:51.000Z</time>
      </trkpt>
      <trkpt lat="45.40101" lon="4.62011">
        <ele>1199.2</ele>
        <time>1970-01-01T01:29:52.000Z</time>
      </trkpt>
      <trkpt lat="45.40096" lon="4.62008">
        <ele>1199.8</ele>
        <time>1970-01-01T01:29:54.000Z</time>
      </trkpt>
      <trkpt lat="45.40092" lon="4.62003">
        <ele>1200.4</ele>
        <time>1970-01-01T01:29:56.000Z</time>
      </trkpt>
      <trkpt lat="45.40088" lon="4.62">
        <ele>1200.9</ele>
        <time>1970-01-01T01:29:58.000Z</time>
      </trkpt>
      <trkpt lat="45.40086" lon="4.61998">
        <ele>1201.1</ele>
        <time>1970-01-01T01:29:59.000Z</time>
      </trkpt>
      <trkpt lat="45.40081" lon="4.61994">
        <ele>1201.5</ele>
        <time>1970-01-01T01:30:01.000Z</time>
      </trkpt>
      <trkpt lat="45.40077" lon="4.6199">
        <ele>1201.9</ele>
        <time>1970-01-01T01:30:03.000Z</time>
      </trkpt>
      <trkpt lat="45.40073" lon="4.61987">
        <ele>1202.3</ele>
        <time>1970-01-01T01:30:05.000Z</time>
      </trkpt>
      <trkpt lat="45.40069" lon="4.61983">
        <ele>1202.7</ele>
        <time>1970-01-01T01:30:07.000Z</time>
      </trkpt>
      <trkpt lat="45.40065" lon="4.61979">
        <ele>1203.1</ele>
        <time>1970-01-01T01:30:09.000Z</time>
      </trkpt>
      <trkpt lat="45.40061" lon="4.61976">
        <ele>1203.5</ele>
        <time>1970-01-01T01:30:11.000Z</time>
      </trkpt>
      <trkpt lat="45.40056" lon="4.61974">
        <ele>1203.9</ele>
        <time>1970-01-01T01:30:13.000Z</time>
      </trkpt>
      <trkpt lat="45.40052" lon="4.61971">
        <ele>1204.2</ele>
        <time>1970-01-01T01:30:15.000Z</time>
      </trkpt>
      <trkpt lat="45.40048" lon="4.61969">
        <ele>1204.6</ele>
        <time>1970-01-01T01:30:17.000Z</time>
      </trkpt>
      <trkpt lat="45.40044" lon="4.61967">
        <ele>1205</ele>
        <time>1970-01-01T01:30:19.000Z</time>
      </trkpt>
      <trkpt lat="45.40039" lon="4.61964">
        <ele>1205.4</ele>
        <time>1970-01-01T01:30:21.000Z</time>
      </trkpt>
      <trkpt lat="45.40035" lon="4.61963">
        <ele>1205.8</ele>
        <time>1970-01-01T01:30:23.000Z</time>
      </trkpt>
      <trkpt lat="45.40031" lon="4.61961">
        <ele>1206.2</ele>
        <time>1970-01-01T01:30:25.000Z</time>
      </trkpt>
      <trkpt lat="45.40027" lon="4.61958">
        <ele>1206.5</ele>
        <time>1970-01-01T01:30:27.000Z</time>
      </trkpt>
      <trkpt lat="45.40023" lon="4.61955">
        <ele>1207</ele>
        <time>1970-01-01T01:30:29.000Z</time>
      </trkpt>
      <trkpt lat="45.4002" lon="4.61954">
        <ele>1207.2</ele>
        <time>1970-01-01T01:30:31.000Z</time>
      </trkpt>
      <trkpt lat="45.40016" lon="4.61951">
        <ele>1207.7</ele>
        <time>1970-01-01T01:30:33.000Z</time>
      </trkpt>
      <trkpt lat="45.40012" lon="4.61947">
        <ele>1208.2</ele>
        <time>1970-01-01T01:30:35.000Z</time>
      </trkpt>
      <trkpt lat="45.40011" lon="4.61944">
        <ele>1208.5</ele>
        <time>1970-01-01T01:30:36.000Z</time>
      </trkpt>
      <trkpt lat="45.40007" lon="4.61939">
        <ele>1209</ele>
        <time>1970-01-01T01:30:38.000Z</time>
      </trkpt>
      <trkpt lat="45.40003" lon="4.61934">
        <ele>1209.5</ele>
        <time>1970-01-01T01:30:40.000Z</time>
      </trkpt>
      <trkpt lat="45.39999" lon="4.61929">
        <ele>1210</ele>
        <time>1970-01-01T01:30:42.000Z</time>
      </trkpt>
      <trkpt lat="45.39996" lon="4.61924">
        <ele>1210.5</ele>
        <time>1970-01-01T01:30:44.000Z</time>
      </trkpt>
      <trkpt lat="45.39994" lon="4.61919">
        <ele>1210.9</ele>
        <time>1970-01-01T01:30:46.000Z</time>
      </trkpt>
      <trkpt lat="45.39991" lon="4.61914">
        <ele>1211.3</ele>
        <time>1970-01-01T01:30:48.000Z</time>
      </trkpt>
      <trkpt lat="45.39989" lon="4.61909">
        <ele>1211.8</ele>
        <time>1970-01-01T01:30:50.000Z</time>
      </trkpt>
      <trkpt lat="45.39986" lon="4.61903">
        <ele>1212.3</ele>
        <time>1970-01-01T01:30:52.000Z</time>
      </trkpt>
      <trkpt lat="45.39984" lon="4.61899">
        <ele>1212.7</ele>
        <time>1970-01-01T01:30:54.000Z</time>
      </trkpt>
      <trkpt lat="45.39981" lon="4.61894">
        <ele>1213.1</ele>
        <time>1970-01-01T01:30:56.000Z</time>
      </trkpt>
      <trkpt lat="45.39979" lon="4.61888">
        <ele>1213.4</ele>
        <time>1970-01-01T01:30:58.000Z</time>
      </trkpt>
      <trkpt lat="45.39977" lon="4.61882">
        <ele>1213.8</ele>
        <time>1970-01-01T01:31:00.000Z</time>
      </trkpt>
      <trkpt lat="45.39975" lon="4.61878">
        <ele>1214.1</ele>
        <time>1970-01-01T01:31:02.000Z</time>
      </trkpt>
      <trkpt lat="45.39973" lon="4.61872">
        <ele>1214.5</ele>
        <time>1970-01-01T01:31:04.000Z</time>
      </trkpt>
      <trkpt lat="45.39971" lon="4.61867">
        <ele>1214.8</ele>
        <time>1970-01-01T01:31:06.000Z</time>
      </trkpt>
      <trkpt lat="45.3997" lon="4.61862">
        <ele>1215.1</ele>
        <time>1970-01-01T01:31:08.000Z</time>
      </trkpt>
      <trkpt lat="45.39967" lon="4.61857">
        <ele>1215.4</ele>
        <time>1970-01-01T01:31:10.000Z</time>
      </trkpt>
      <trkpt lat="45.39966" lon="4.61852">
        <ele>1215.7</ele>
        <time>1970-01-01T01:31:12.000Z</time>
      </trkpt>
      <trkpt lat="45.39963" lon="4.61849">
        <ele>1216</ele>
        <time>1970-01-01T01:31:14.000Z</time>
      </trkpt>
      <trkpt lat="45.39961" lon="4.61844">
        <ele>1216.3</ele>
        <time>1970-01-01T01:31:16.000Z</time>
      </trkpt>
      <trkpt lat="45.39959" lon="4.61838">
        <ele>1216.7</ele>
        <time>1970-01-01T01:31:18.000Z</time>
      </trkpt>
      <trkpt lat="45.39958" lon="4.61833">
        <ele>1217</ele>
        <time>1970-01-01T01:31:20.000Z</time>
      </trkpt>
      <trkpt lat="45.39955" lon="4.61827">
        <ele>1217.5</ele>
        <time>1970-01-01T01:31:22.000Z</time>
      </trkpt>
      <trkpt lat="45.39952" lon="4.61822">
        <ele>1217.9</ele>
        <time>1970-01-01T01:31:24.000Z</time>
      </trkpt>
      <trkpt lat="45.39949" lon="4.61817">
        <ele>1218.3</ele>
        <time>1970-01-01T01:31:26.000Z</time>
      </trkpt>
      <trkpt lat="45.39947" lon="4.61812">
        <ele>1218.7</ele>
        <time>1970-01-01T01:31:28.000Z</time>
      </trkpt>
      <trkpt lat="45.39944" lon="4.61807">
        <ele>1219.2</ele>
        <time>1970-01-01T01:31:30.000Z</time>
      </trkpt>
      <trkpt lat="45.39941" lon="4.61802">
        <ele>1219.6</ele>
        <time>1970-01-01T01:31:32.000Z</time>
      </trkpt>
      <trkpt lat="45.39938" lon="4.61796">
        <ele>1220.1</ele>
        <time>1970-01-01T01:31:34.000Z</time>
      </trkpt>
      <trkpt lat="45.39936" lon="4.61791">
        <ele>1220.4</ele>
        <time>1970-01-01T01:31:36.000Z</time>
      </trkpt>
      <trkpt lat="45.39934" lon="4.61786">
        <ele>1220.8</ele>
        <time>1970-01-01T01:31:38.000Z</time>
      </trkpt>
      <trkpt lat="45.39931" lon="4.61782">
        <ele>1221.1</ele>
        <time>1970-01-01T01:31:40.000Z</time>
      </trkpt>
      <trkpt lat="45.39929" lon="4.61778">
        <ele>1221.5</ele>
        <time>1970-01-01T01:31:42.000Z</time>
      </trkpt>
      <trkpt lat="45.39927" lon="4.61773">
        <ele>1221.9</ele>
        <time>1970-01-01T01:31:44.000Z</time>
      </trkpt>
      <trkpt lat="45.39925" lon="4.61767">
        <ele>1222.3</ele>
        <time>1970-01-01T01:31:46.000Z</time>
      </trkpt>
      <trkpt lat="45.39922" lon="4.61762">
        <ele>1222.7</ele>
        <time>1970-01-01T01:31:48.000Z</time>
      </trkpt>
      <trkpt lat="45.39919" lon="4.61758">
        <ele>1223.1</ele>
        <time>1970-01-01T01:31:50.000Z</time>
      </trkpt>
      <trkpt lat="45.39916" lon="4.61753">
        <ele>1223.4</ele>
        <time>1970-01-01T01:31:52.000Z</time>
      </trkpt>
      <trkpt lat="45.39914" lon="4.6175">
        <ele>1223.7</ele>
        <time>1970-01-01T01:31:53.000Z</time>
      </trkpt>
      <trkpt lat="45.39911" lon="4.61746">
        <ele>1224.2</ele>
        <time>1970-01-01T01:31:55.000Z</time>
      </trkpt>
      <trkpt lat="45.39908" lon="4.61742">
        <ele>1224.6</ele>
        <time>1970-01-01T01:31:57.000Z</time>
      </trkpt>
      <trkpt lat="45.39905" lon="4.61737">
        <ele>1225</ele>
        <time>1970-01-01T01:31:59.000Z</time>
      </trkpt>
      <trkpt lat="45.39903" lon="4.61732">
        <ele>1225.5</ele>
        <time>1970-01-01T01:32:01.000Z</time>
      </trkpt>
      <trkpt lat="45.39899" lon="4.61729">
        <ele>1225.9</ele>
        <time>1970-01-01T01:32:03.000Z</time>
      </trkpt>
      <trkpt lat="45.39896" lon="4.61724">
        <ele>1226.4</ele>
        <time>1970-01-01T01:32:05.000Z</time>
      </trkpt>
      <trkpt lat="45.39893" lon="4.61721">
        <ele>1226.8</ele>
        <time>1970-01-01T01:32:07.000Z</time>
      </trkpt>
      <trkpt lat="45.39889" lon="4.61718">
        <ele>1227.2</ele>
        <time>1970-01-01T01:32:09.000Z</time>
      </trkpt>
      <trkpt lat="45.39886" lon="4.61714">
        <ele>1227.7</ele>
        <time>1970-01-01T01:32:11.000Z</time>
      </trkpt>
      <trkpt lat="45.39882" lon="4.61711">
        <ele>1228.1</ele>
        <time>1970-01-01T01:32:13.000Z</time>
      </trkpt>
      <trkpt lat="45.39879" lon="4.61708">
        <ele>1228.6</ele>
        <time>1970-01-01T01:32:15.000Z</time>
      </trkpt>
      <trkpt lat="45.39876" lon="4.61702">
        <ele>1229</ele>
        <time>1970-01-01T01:32:17.000Z</time>
      </trkpt>
      <trkpt lat="45.39873" lon="4.61698">
        <ele>1229.4</ele>
        <time>1970-01-01T01:32:19.000Z</time>
      </trkpt>
      <trkpt lat="45.3987" lon="4.61693">
        <ele>1229.8</ele>
        <time>1970-01-01T01:32:21.000Z</time>
      </trkpt>
      <trkpt lat="45.39866" lon="4.6169">
        <ele>1230.3</ele>
        <time>1970-01-01T01:32:23.000Z</time>
      </trkpt>
      <trkpt lat="45.39863" lon="4.61685">
        <ele>1230.6</ele>
        <time>1970-01-01T01:32:25.000Z</time>
      </trkpt>
      <trkpt lat="45.3986" lon="4.61683">
        <ele>1230.9</ele>
        <time>1970-01-01T01:32:27.000Z</time>
      </trkpt>
      <trkpt lat="45.39857" lon="4.61678">
        <ele>1231.3</ele>
        <time>1970-01-01T01:32:29.000Z</time>
      </trkpt>
      <trkpt lat="45.39854" lon="4.61673">
        <ele>1231.7</ele>
        <time>1970-01-01T01:32:31.000Z</time>
      </trkpt>
      <trkpt lat="45.39851" lon="4.61668">
        <ele>1232.2</ele>
        <time>1970-01-01T01:32:33.000Z</time>
      </trkpt>
      <trkpt lat="45.39847" lon="4.61663">
        <ele>1232.6</ele>
        <time>1970-01-01T01:32:35.000Z</time>
      </trkpt>
      <trkpt lat="45.39844" lon="4.61658">
        <ele>1233</ele>
        <time>1970-01-01T01:32:37.000Z</time>
      </trkpt>
      <trkpt lat="45.3984" lon="4.61653">
        <ele>1233.5</ele>
        <time>1970-01-01T01:32:39.000Z</time>
      </trkpt>
      <trkpt lat="45.39836" lon="4.61649">
        <ele>1233.9</ele>
        <time>1970-01-01T01:32:41.000Z</time>
      </trkpt>
      <trkpt lat="45.39833" lon="4.61644">
        <ele>1234.4</ele>
        <time>1970-01-01T01:32:43.000Z</time>
      </trkpt>
      <trkpt lat="45.3983" lon="4.61638">
        <ele>1234.8</ele>
        <time>1970-01-01T01:32:45.000Z</time>
      </trkpt>
      <trkpt lat="45.39826" lon="4.61633">
        <ele>1235.3</ele>
        <time>1970-01-01T01:32:47.000Z</time>
      </trkpt>
      <trkpt lat="45.39822" lon="4.61629">
        <ele>1235.7</ele>
        <time>1970-01-01T01:32:49.000Z</time>
      </trkpt>
      <trkpt lat="45.39818" lon="4.61624">
        <ele>1236.2</ele>
        <time>1970-01-01T01:32:51.000Z</time>
      </trkpt>
      <trkpt lat="45.39815" lon="4.61621">
        <ele>1236.6</ele>
        <time>1970-01-01T01:32:53.000Z</time>
      </trkpt>
      <trkpt lat="45.39811" lon="4.61617">
        <ele>1237</ele>
        <time>1970-01-01T01:32:55.000Z</time>
      </trkpt>
      <trkpt lat="45.39807" lon="4.61614">
        <ele>1237.4</ele>
        <time>1970-01-01T01:32:57.000Z</time>
      </trkpt>
      <trkpt lat="45.39804" lon="4.6161">
        <ele>1237.8</ele>
        <time>1970-01-01T01:32:59.000Z</time>
      </trkpt>
      <trkpt lat="45.398" lon="4.61607">
        <ele>1238.3</ele>
        <time>1970-01-01T01:33:01.000Z</time>
      </trkpt>
      <trkpt lat="45.39796" lon="4.61604">
        <ele>1238.7</ele>
        <time>1970-01-01T01:33:03.000Z</time>
      </trkpt>
      <trkpt lat="45.39793" lon="4.61601">
        <ele>1243.1</ele>
        <time>1970-01-01T01:33:05.000Z</time>
      </trkpt>
      <trkpt lat="45.39788" lon="4.61597">
        <ele>1247.5</ele>
        <time>1970-01-01T01:33:07.000Z</time>
      </trkpt>
      <trkpt lat="45.39785" lon="4.61595">
        <ele>1247.3</ele>
        <time>1970-01-01T01:33:08.000Z</time>
      </trkpt>
      <trkpt lat="45.39782" lon="4.61592">
        <ele>1247.2</ele>
        <time>1970-01-01T01:33:10.000Z</time>
      </trkpt>
      <trkpt lat="45.39778" lon="4.6159">
        <ele>1247</ele>
        <time>1970-01-01T01:33:12.000Z</time>
      </trkpt>
      <trkpt lat="45.39774" lon="4.61586">
        <ele>1246.8</ele>
        <time>1970-01-01T01:33:14.000Z</time>
      </trkpt>
      <trkpt lat="45.3977" lon="4.61585">
        <ele>1246.6</ele>
        <time>1970-01-01T01:33:16.000Z</time>
      </trkpt>
      <trkpt lat="45.39767" lon="4.61582">
        <ele>1246.5</ele>
        <time>1970-01-01T01:33:18.000Z</time>
      </trkpt>
      <trkpt lat="45.39763" lon="4.6158">
        <ele>1246.4</ele>
        <time>1970-01-01T01:33:20.000Z</time>
      </trkpt>
      <trkpt lat="45.39759" lon="4.61578">
        <ele>1246.3</ele>
        <time>1970-01-01T01:33:22.000Z</time>
      </trkpt>
      <trkpt lat="45.39755" lon="4.61578">
        <ele>1246.3</ele>
        <time>1970-01-01T01:33:24.000Z</time>
      </trkpt>
      <trkpt lat="45.39752" lon="4.61576">
        <ele>1246.3</ele>
        <time>1970-01-01T01:33:26.000Z</time>
      </trkpt>
      <trkpt lat="45.39748" lon="4.61575">
        <ele>1246.3</ele>
        <time>1970-01-01T01:33:28.000Z</time>
      </trkpt>
      <trkpt lat="45.39745" lon="4.61574">
        <ele>1246.3</ele>
        <time>1970-01-01T01:33:30.000Z</time>
      </trkpt>
      <trkpt lat="45.39742" lon="4.61573">
        <ele>1246.4</ele>
        <time>1970-01-01T01:33:32.000Z</time>
      </trkpt>
      <trkpt lat="45.39739" lon="4.61571">
        <ele>1246.4</ele>
        <time>1970-01-01T01:33:34.000Z</time>
      </trkpt>
      <trkpt lat="45.39735" lon="4.61571">
        <ele>1246.5</ele>
        <time>1970-01-01T01:33:36.000Z</time>
      </trkpt>
      <trkpt lat="45.39731" lon="4.6157">
        <ele>1246.6</ele>
        <time>1970-01-01T01:33:38.000Z</time>
      </trkpt>
      <trkpt lat="45.39729" lon="4.61567">
        <ele>1246.7</ele>
        <time>1970-01-01T01:33:40.000Z</time>
      </trkpt>
      <trkpt lat="45.39725" lon="4.61566">
        <ele>1246.9</ele>
        <time>1970-01-01T01:33:42.000Z</time>
      </trkpt>
      <trkpt lat="45.3972" lon="4.61566">
        <ele>1247.1</ele>
        <time>1970-01-01T01:33:44.000Z</time>
      </trkpt>
      <trkpt lat="45.39717" lon="4.61566">
        <ele>1247.2</ele>
        <time>1970-01-01T01:33:46.000Z</time>
      </trkpt>
      <trkpt lat="45.39712" lon="4.61565">
        <ele>1247.5</ele>
        <time>1970-01-01T01:33:48.000Z</time>
      </trkpt>
      <trkpt lat="45.39709" lon="4.61563">
        <ele>1247.7</ele>
        <time>1970-01-01T01:33:49.000Z</time>
      </trkpt>
      <trkpt lat="45.39706" lon="4.61562">
        <ele>1247.9</ele>
        <time>1970-01-01T01:33:50.000Z</time>
      </trkpt>
      <trkpt lat="45.39702" lon="4.6156">
        <ele>1248.1</ele>
        <time>1970-01-01T01:33:52.000Z</time>
      </trkpt>
      <trkpt lat="45.39696" lon="4.61558">
        <ele>1248.5</ele>
        <time>1970-01-01T01:33:54.000Z</time>
      </trkpt>
      <trkpt lat="45.3969" lon="4.61557">
        <ele>1248.8</ele>
        <time>1970-01-01T01:33:56.000Z</time>
      </trkpt>
      <trkpt lat="45.39687" lon="4.61556">
        <ele>1248.9</ele>
        <time>1970-01-01T01:33:57.000Z</time>
      </trkpt>
      <trkpt lat="45.39684" lon="4.61555">
        <ele>1248.8</ele>
        <time>1970-01-01T01:33:58.000Z</time>
      </trkpt>
      <trkpt lat="45.3968" lon="4.61554">
        <ele>1248.6</ele>
        <time>1970-01-01T01:33:59.000Z</time>
      </trkpt>
      <trkpt lat="45.39675" lon="4.61554">
        <ele>1248.4</ele>
        <time>1970-01-01T01:34:01.000Z</time>
      </trkpt>
      <trkpt lat="45.39671" lon="4.61552">
        <ele>1248.3</ele>
        <time>1970-01-01T01:34:03.000Z</time>
      </trkpt>
      <trkpt lat="45.39665" lon="4.6155">
        <ele>1248.1</ele>
        <time>1970-01-01T01:34:05.000Z</time>
      </trkpt>
      <trkpt lat="45.39662" lon="4.61548">
        <ele>1247.9</ele>
        <time>1970-01-01T01:34:06.000Z</time>
      </trkpt>
      <trkpt lat="45.39659" lon="4.61546">
        <ele>1247.8</ele>
        <time>1970-01-01T01:34:08.000Z</time>
      </trkpt>
      <trkpt lat="45.39653" lon="4.61543">
        <ele>1247.6</ele>
        <time>1970-01-01T01:34:10.000Z</time>
      </trkpt>
      <trkpt lat="45.3965" lon="4.61541">
        <ele>1247.5</ele>
        <time>1970-01-01T01:34:11.000Z</time>
      </trkpt>
      <trkpt lat="45.39647" lon="4.61539">
        <ele>1247.4</ele>
        <time>1970-01-01T01:34:12.000Z</time>
      </trkpt>
      <trkpt lat="45.39644" lon="4.61539">
        <ele>1247.3</ele>
        <time>1970-01-01T01:34:13.000Z</time>
      </trkpt>
      <trkpt lat="45.39641" lon="4.61538">
        <ele>1247.2</ele>
        <time>1970-01-01T01:34:14.000Z</time>
      </trkpt>
      <trkpt lat="45.39638" lon="4.61537">
        <ele>1247.1</ele>
        <time>1970-01-01T01:34:15.000Z</time>
      </trkpt>
      <trkpt lat="45.39634" lon="4.61535">
        <ele>1246.9</ele>
        <time>1970-01-01T01:34:16.000Z</time>
      </trkpt>
      <trkpt lat="45.39631" lon="4.61535">
        <ele>1246.8</ele>
        <time>1970-01-01T01:34:17.000Z</time>
      </trkpt>
      <trkpt lat="45.39627" lon="4.61535">
        <ele>1246.7</ele>
        <time>1970-01-01T01:34:18.000Z</time>
      </trkpt>
      <trkpt lat="45.39623" lon="4.61533">
        <ele>1246.6</ele>
        <time>1970-01-01T01:34:19.000Z</time>
      </trkpt>
      <trkpt lat="45.3962" lon="4.61531">
        <ele>1246.5</ele>
        <time>1970-01-01T01:34:20.000Z</time>
      </trkpt>
      <trkpt lat="45.39614" lon="4.6153">
        <ele>1246.4</ele>
        <time>1970-01-01T01:34:22.000Z</time>
      </trkpt>
      <trkpt lat="45.39609" lon="4.61529">
        <ele>1246.2</ele>
        <time>1970-01-01T01:34:23.000Z</time>
      </trkpt>
      <trkpt lat="45.39604" lon="4.61528">
        <ele>1246.1</ele>
        <time>1970-01-01T01:34:24.000Z</time>
      </trkpt>
      <trkpt lat="45.39601" lon="4.61527">
        <ele>1246</ele>
        <time>1970-01-01T01:34:25.000Z</time>
      </trkpt>
      <trkpt lat="45.39598" lon="4.61526">
        <ele>1246</ele>
        <time>1970-01-01T01:34:26.000Z</time>
      </trkpt>
      <trkpt lat="45.39594" lon="4.61525">
        <ele>1245.9</ele>
        <time>1970-01-01T01:34:27.000Z</time>
      </trkpt>
      <trkpt lat="45.3959" lon="4.61525">
        <ele>1245.9</ele>
        <time>1970-01-01T01:34:28.000Z</time>
      </trkpt>
      <trkpt lat="45.39584" lon="4.61524">
        <ele>1245.8</ele>
        <time>1970-01-01T01:34:29.000Z</time>
      </trkpt>
      <trkpt lat="45.39579" lon="4.61524">
        <ele>1245.7</ele>
        <time>1970-01-01T01:34:30.000Z</time>
      </trkpt>
      <trkpt lat="45.39575" lon="4.61523">
        <ele>1245.7</ele>
        <time>1970-01-01T01:34:31.000Z</time>
      </trkpt>
      <trkpt lat="45.39571" lon="4.61522">
        <ele>1245.6</ele>
        <time>1970-01-01T01:34:32.000Z</time>
      </trkpt>
      <trkpt lat="45.39566" lon="4.61521">
        <ele>1245.5</ele>
        <time>1970-01-01T01:34:33.000Z</time>
      </trkpt>
      <trkpt lat="45.39562" lon="4.6152">
        <ele>1245.5</ele>
        <time>1970-01-01T01:34:34.000Z</time>
      </trkpt>
      <trkpt lat="45.39558" lon="4.6152">
        <ele>1245.4</ele>
        <time>1970-01-01T01:34:35.000Z</time>
      </trkpt>
      <trkpt lat="45.39552" lon="4.61521">
        <ele>1245.3</ele>
        <time>1970-01-01T01:34:36.000Z</time>
      </trkpt>
      <trkpt lat="45.39547" lon="4.61521">
        <ele>1245.3</ele>
        <time>1970-01-01T01:34:37.000Z</time>
      </trkpt>
      <trkpt lat="45.39542" lon="4.61521">
        <ele>1245.2</ele>
        <time>1970-01-01T01:34:38.000Z</time>
      </trkpt>
      <trkpt lat="45.39536" lon="4.61521">
        <ele>1245.2</ele>
        <time>1970-01-01T01:34:39.000Z</time>
      </trkpt>
      <trkpt lat="45.39532" lon="4.61521">
        <ele>1245.1</ele>
        <time>1970-01-01T01:34:40.000Z</time>
      </trkpt>
      <trkpt lat="45.39528" lon="4.6152">
        <ele>1245.1</ele>
        <time>1970-01-01T01:34:41.000Z</time>
      </trkpt>
      <trkpt lat="45.39525" lon="4.61519">
        <ele>1245.1</ele>
        <time>1970-01-01T01:34:42.000Z</time>
      </trkpt>
      <trkpt lat="45.39521" lon="4.61519">
        <ele>1245</ele>
        <time>1970-01-01T01:34:43.000Z</time>
      </trkpt>
      <trkpt lat="45.39518" lon="4.61518">
        <ele>1245</ele>
        <time>1970-01-01T01:34:44.000Z</time>
      </trkpt>
      <trkpt lat="45.39514" lon="4.61518">
        <ele>1245</ele>
        <time>1970-01-01T01:34:45.000Z</time>
      </trkpt>
      <trkpt lat="45.3951" lon="4.61519">
        <ele>1244.9</ele>
        <time>1970-01-01T01:34:46.000Z</time>
      </trkpt>
      <trkpt lat="45.39505" lon="4.6152">
        <ele>1244.9</ele>
        <time>1970-01-01T01:34:47.000Z</time>
      </trkpt>
      <trkpt lat="45.39501" lon="4.6152">
        <ele>1244.9</ele>
        <time>1970-01-01T01:34:48.000Z</time>
      </trkpt>
      <trkpt lat="45.39496" lon="4.61518">
        <ele>1244.8</ele>
        <time>1970-01-01T01:34:49.000Z</time>
      </trkpt>
      <trkpt lat="45.39492" lon="4.61518">
        <ele>1244.8</ele>
        <time>1970-01-01T01:34:50.000Z</time>
      </trkpt>
      <trkpt lat="45.39489" lon="4.61517">
        <ele>1244.8</ele>
        <time>1970-01-01T01:34:51.000Z</time>
      </trkpt>
      <trkpt lat="45.39485" lon="4.61517">
        <ele>1244.8</ele>
        <time>1970-01-01T01:34:52.000Z</time>
      </trkpt>
      <trkpt lat="45.39481" lon="4.61516">
        <ele>1244.7</ele>
        <time>1970-01-01T01:34:53.000Z</time>
      </trkpt>
      <trkpt lat="45.39477" lon="4.61515">
        <ele>1244.7</ele>
        <time>1970-01-01T01:34:54.000Z</time>
      </trkpt>
      <trkpt lat="45.39473" lon="4.61515">
        <ele>1244.7</ele>
        <time>1970-01-01T01:34:55.000Z</time>
      </trkpt>
      <trkpt lat="45.39471" lon="4.61516">
        <ele>1244.7</ele>
        <time>1970-01-01T01:34:56.000Z</time>
      </trkpt>
      <trkpt lat="45.39466" lon="4.61515">
        <ele>1244.7</ele>
        <time>1970-01-01T01:34:57.000Z</time>
      </trkpt>
      <trkpt lat="45.39462" lon="4.61515">
        <ele>1244.6</ele>
        <time>1970-01-01T01:34:59.000Z</time>
      </trkpt>
      <trkpt lat="45.39459" lon="4.61515">
        <ele>1244.6</ele>
        <time>1970-01-01T01:35:00.000Z</time>
      </trkpt>
      <trkpt lat="45.39456" lon="4.61516">
        <ele>1244.6</ele>
        <time>1970-01-01T01:35:01.000Z</time>
      </trkpt>
      <trkpt lat="45.39453" lon="4.61517">
        <ele>1244.6</ele>
        <time>1970-01-01T01:35:02.000Z</time>
      </trkpt>
      <trkpt lat="45.39448" lon="4.61519">
        <ele>1244.6</ele>
        <time>1970-01-01T01:35:04.000Z</time>
      </trkpt>
      <trkpt lat="45.39445" lon="4.6152">
        <ele>1244.6</ele>
        <time>1970-01-01T01:35:05.000Z</time>
      </trkpt>
      <trkpt lat="45.3944" lon="4.61521">
        <ele>1244.6</ele>
        <time>1970-01-01T01:35:06.000Z</time>
      </trkpt>
      <trkpt lat="45.39436" lon="4.61522">
        <ele>1244.5</ele>
        <time>1970-01-01T01:35:07.000Z</time>
      </trkpt>
      <trkpt lat="45.39433" lon="4.61524">
        <ele>1244.5</ele>
        <time>1970-01-01T01:35:08.000Z</time>
      </trkpt>
      <trkpt lat="45.3943" lon="4.61524">
        <ele>1244.5</ele>
        <time>1970-01-01T01:35:09.000Z</time>
      </trkpt>
      <trkpt lat="45.39425" lon="4.61526">
        <ele>1244.5</ele>
        <time>1970-01-01T01:35:10.000Z</time>
      </trkpt>
      <trkpt lat="45.39421" lon="4.61528">
        <ele>1244.5</ele>
        <time>1970-01-01T01:35:11.000Z</time>
      </trkpt>
      <trkpt lat="45.39417" lon="4.6153">
        <ele>1244.5</ele>
        <time>1970-01-01T01:35:12.000Z</time>
      </trkpt>
      <trkpt lat="45.39412" lon="4.61533">
        <ele>1244.4</ele>
        <time>1970-01-01T01:35:13.000Z</time>
      </trkpt>
      <trkpt lat="45.39408" lon="4.61535">
        <ele>1244.4</ele>
        <time>1970-01-01T01:35:14.000Z</time>
      </trkpt>
      <trkpt lat="45.39404" lon="4.61537">
        <ele>1244.4</ele>
        <time>1970-01-01T01:35:15.000Z</time>
      </trkpt>
      <trkpt lat="45.394" lon="4.61539">
        <ele>1244.3</ele>
        <time>1970-01-01T01:35:16.000Z</time>
      </trkpt>
      <trkpt lat="45.39395" lon="4.61541">
        <ele>1244.3</ele>
        <time>1970-01-01T01:35:17.000Z</time>
      </trkpt>
      <trkpt lat="45.39391" lon="4.61542">
        <ele>1244.3</ele>
        <time>1970-01-01T01:35:18.000Z</time>
      </trkpt>
      <trkpt lat="45.39386" lon="4.61545">
        <ele>1244.3</ele>
        <time>1970-01-01T01:35:19.000Z</time>
      </trkpt>
      <trkpt lat="45.39382" lon="4.61546">
        <ele>1244.2</ele>
        <time>1970-01-01T01:35:20.000Z</time>
      </trkpt>
      <trkpt lat="45.39379" lon="4.61549">
        <ele>1244.2</ele>
        <time>1970-01-01T01:35:21.000Z</time>
      </trkpt>
      <trkpt lat="45.39376" lon="4.61552">
        <ele>1244.2</ele>
        <time>1970-01-01T01:35:22.000Z</time>
      </trkpt>
      <trkpt lat="45.39371" lon="4.61552">
        <ele>1244.1</ele>
        <time>1970-01-01T01:35:23.000Z</time>
      </trkpt>
      <trkpt lat="45.39367" lon="4.61554">
        <ele>1244.1</ele>
        <time>1970-01-01T01:35:24.000Z</time>
      </trkpt>
      <trkpt lat="45.39363" lon="4.61556">
        <ele>1244</ele>
        <time>1970-01-01T01:35:25.000Z</time>
      </trkpt>
      <trkpt lat="45.39359" lon="4.61557">
        <ele>1244</ele>
        <time>1970-01-01T01:35:26.000Z</time>
      </trkpt>
      <trkpt lat="45.39356" lon="4.61558">
        <ele>1244</ele>
        <time>1970-01-01T01:35:27.000Z</time>
      </trkpt>
      <trkpt lat="45.39352" lon="4.6156">
        <ele>1243.9</ele>
        <time>1970-01-01T01:35:28.000Z</time>
      </trkpt>
      <trkpt lat="45.39348" lon="4.61561">
        <ele>1243.9</ele>
        <time>1970-01-01T01:35:29.000Z</time>
      </trkpt>
      <trkpt lat="45.39344" lon="4.61562">
        <ele>1243.9</ele>
        <time>1970-01-01T01:35:30.000Z</time>
      </trkpt>
      <trkpt lat="45.3934" lon="4.61562">
        <ele>1243.8</ele>
        <time>1970-01-01T01:35:31.000Z</time>
      </trkpt>
      <trkpt lat="45.39337" lon="4.61563">
        <ele>1243.8</ele>
        <time>1970-01-01T01:35:32.000Z</time>
      </trkpt>
      <trkpt lat="45.39333" lon="4.61564">
        <ele>1243.8</ele>
        <time>1970-01-01T01:35:33.000Z</time>
      </trkpt>
      <trkpt lat="45.39329" lon="4.61565">
        <ele>1243.7</ele>
        <time>1970-01-01T01:35:34.000Z</time>
      </trkpt>
      <trkpt lat="45.39325" lon="4.61565">
        <ele>1243.7</ele>
        <time>1970-01-01T01:35:35.000Z</time>
      </trkpt>
      <trkpt lat="45.39322" lon="4.61565">
        <ele>1243.6</ele>
        <time>1970-01-01T01:35:36.000Z</time>
      </trkpt>
      <trkpt lat="45.39319" lon="4.61568">
        <ele>1243.6</ele>
        <time>1970-01-01T01:35:37.000Z</time>
      </trkpt>
      <trkpt lat="45.39314" lon="4.61569">
        <ele>1243.6</ele>
        <time>1970-01-01T01:35:38.000Z</time>
      </trkpt>
      <trkpt lat="45.39311" lon="4.61568">
        <ele>1243.5</ele>
        <time>1970-01-01T01:35:39.000Z</time>
      </trkpt>
      <trkpt lat="45.39307" lon="4.6157">
        <ele>1243.5</ele>
        <time>1970-01-01T01:35:40.000Z</time>
      </trkpt>
      <trkpt lat="45.39303" lon="4.61572">
        <ele>1243.4</ele>
        <time>1970-01-01T01:35:41.000Z</time>
      </trkpt>
      <trkpt lat="45.39298" lon="4.61572">
        <ele>1243.4</ele>
        <time>1970-01-01T01:35:42.000Z</time>
      </trkpt>
      <trkpt lat="45.39293" lon="4.61573">
        <ele>1243.3</ele>
        <time>1970-01-01T01:35:43.000Z</time>
      </trkpt>
      <trkpt lat="45.39288" lon="4.61574">
        <ele>1243.3</ele>
        <time>1970-01-01T01:35:44.000Z</time>
      </trkpt>
      <trkpt lat="45.39283" lon="4.61575">
        <ele>1243.2</ele>
        <time>1970-01-01T01:35:45.000Z</time>
      </trkpt>
      <trkpt lat="45.39277" lon="4.61575">
        <ele>1243.1</ele>
        <time>1970-01-01T01:35:46.000Z</time>
      </trkpt>
      <trkpt lat="45.39271" lon="4.61575">
        <ele>1243</ele>
        <time>1970-01-01T01:35:47.000Z</time>
      </trkpt>
      <trkpt lat="45.39267" lon="4.61575">
        <ele>1243</ele>
        <time>1970-01-01T01:35:48.000Z</time>
      </trkpt>
      <trkpt lat="45.39263" lon="4.61575">
        <ele>1242.9</ele>
        <time>1970-01-01T01:35:49.000Z</time>
      </trkpt>
      <trkpt lat="45.39259" lon="4.61575">
        <ele>1242.9</ele>
        <time>1970-01-01T01:35:50.000Z</time>
      </trkpt>
      <trkpt lat="45.39254" lon="4.61575">
        <ele>1242.8</ele>
        <time>1970-01-01T01:35:51.000Z</time>
      </trkpt>
      <trkpt lat="45.3925" lon="4.61574">
        <ele>1242.8</ele>
        <time>1970-01-01T01:35:52.000Z</time>
      </trkpt>
      <trkpt lat="45.39245" lon="4.61574">
        <ele>1242.7</ele>
        <time>1970-01-01T01:35:53.000Z</time>
      </trkpt>
      <trkpt lat="45.39241" lon="4.61573">
        <ele>1242.6</ele>
        <time>1970-01-01T01:35:54.000Z</time>
      </trkpt>
      <trkpt lat="45.39237" lon="4.61572">
        <ele>1242.6</ele>
        <time>1970-01-01T01:35:55.000Z</time>
      </trkpt>
      <trkpt lat="45.39233" lon="4.61572">
        <ele>1242.5</ele>
        <time>1970-01-01T01:35:56.000Z</time>
      </trkpt>
      <trkpt lat="45.39229" lon="4.61571">
        <ele>1242.5</ele>
        <time>1970-01-01T01:35:57.000Z</time>
      </trkpt>
      <trkpt lat="45.39225" lon="4.6157">
        <ele>1242.4</ele>
        <time>1970-01-01T01:35:58.000Z</time>
      </trkpt>
      <trkpt lat="45.3922" lon="4.6157">
        <ele>1242.4</ele>
        <time>1970-01-01T01:35:59.000Z</time>
      </trkpt>
      <trkpt lat="45.39216" lon="4.61569">
        <ele>1242.3</ele>
        <time>1970-01-01T01:36:00.000Z</time>
      </trkpt>
      <trkpt lat="45.39212" lon="4.61568">
        <ele>1242.3</ele>
        <time>1970-01-01T01:36:01.000Z</time>
      </trkpt>
      <trkpt lat="45.39207" lon="4.61567">
        <ele>1242.2</ele>
        <time>1970-01-01T01:36:02.000Z</time>
      </trkpt>
      <trkpt lat="45.39203" lon="4.61566">
        <ele>1242.2</ele>
        <time>1970-01-01T01:36:03.000Z</time>
      </trkpt>
      <trkpt lat="45.39199" lon="4.61565">
        <ele>1242.1</ele>
        <time>1970-01-01T01:36:04.000Z</time>
      </trkpt>
      <trkpt lat="45.39195" lon="4.61565">
        <ele>1242.1</ele>
        <time>1970-01-01T01:36:05.000Z</time>
      </trkpt>
      <trkpt lat="45.39191" lon="4.61565">
        <ele>1242</ele>
        <time>1970-01-01T01:36:06.000Z</time>
      </trkpt>
      <trkpt lat="45.39187" lon="4.61565">
        <ele>1242</ele>
        <time>1970-01-01T01:36:07.000Z</time>
      </trkpt>
      <trkpt lat="45.39182" lon="4.61564">
        <ele>1241.9</ele>
        <time>1970-01-01T01:36:08.000Z</time>
      </trkpt>
      <trkpt lat="45.39178" lon="4.61564">
        <ele>1241.9</ele>
        <time>1970-01-01T01:36:09.000Z</time>
      </trkpt>
      <trkpt lat="45.39173" lon="4.61563">
        <ele>1241.8</ele>
        <time>1970-01-01T01:36:10.000Z</time>
      </trkpt>
      <trkpt lat="45.39168" lon="4.61564">
        <ele>1241.8</ele>
        <time>1970-01-01T01:36:11.000Z</time>
      </trkpt>
      <trkpt lat="45.39164" lon="4.61564">
        <ele>1241.7</ele>
        <time>1970-01-01T01:36:12.000Z</time>
      </trkpt>
      <trkpt lat="45.39159" lon="4.61564">
        <ele>1241.7</ele>
        <time>1970-01-01T01:36:13.000Z</time>
      </trkpt>
      <trkpt lat="45.39155" lon="4.61563">
        <ele>1241.6</ele>
        <time>1970-01-01T01:36:14.000Z</time>
      </trkpt>
      <trkpt lat="45.3915" lon="4.61563">
        <ele>1241.6</ele>
        <time>1970-01-01T01:36:15.000Z</time>
      </trkpt>
      <trkpt lat="45.39146" lon="4.61563">
        <ele>1241.5</ele>
        <time>1970-01-01T01:36:16.000Z</time>
      </trkpt>
      <trkpt lat="45.39141" lon="4.61563">
        <ele>1241.5</ele>
        <time>1970-01-01T01:36:17.000Z</time>
      </trkpt>
      <trkpt lat="45.39137" lon="4.61562">
        <ele>1241.5</ele>
        <time>1970-01-01T01:36:18.000Z</time>
      </trkpt>
      <trkpt lat="45.39132" lon="4.61562">
        <ele>1241.4</ele>
        <time>1970-01-01T01:36:19.000Z</time>
      </trkpt>
      <trkpt lat="45.39127" lon="4.61563">
        <ele>1241.4</ele>
        <time>1970-01-01T01:36:20.000Z</time>
      </trkpt>
      <trkpt lat="45.39123" lon="4.61563">
        <ele>1241.3</ele>
        <time>1970-01-01T01:36:21.000Z</time>
      </trkpt>
      <trkpt lat="45.39118" lon="4.61564">
        <ele>1241.3</ele>
        <time>1970-01-01T01:36:22.000Z</time>
      </trkpt>
      <trkpt lat="45.39114" lon="4.61564">
        <ele>1241.2</ele>
        <time>1970-01-01T01:36:23.000Z</time>
      </trkpt>
      <trkpt lat="45.3911" lon="4.61564">
        <ele>1241.2</ele>
        <time>1970-01-01T01:36:24.000Z</time>
      </trkpt>
      <trkpt lat="45.39105" lon="4.61565">
        <ele>1241.1</ele>
        <time>1970-01-01T01:36:25.000Z</time>
      </trkpt>
      <trkpt lat="45.39101" lon="4.61565">
        <ele>1241.1</ele>
        <time>1970-01-01T01:36:26.000Z</time>
      </trkpt>
      <trkpt lat="45.39097" lon="4.61566">
        <ele>1241</ele>
        <time>1970-01-01T01:36:27.000Z</time>
      </trkpt>
      <trkpt lat="45.39093" lon="4.61565">
        <ele>1241</ele>
        <time>1970-01-01T01:36:28.000Z</time>
      </trkpt>
      <trkpt lat="45.39089" lon="4.61565">
        <ele>1240.9</ele>
        <time>1970-01-01T01:36:29.000Z</time>
      </trkpt>
      <trkpt lat="45.39085" lon="4.61565">
        <ele>1240.9</ele>
        <time>1970-01-01T01:36:30.000Z</time>
      </trkpt>
      <trkpt lat="45.39079" lon="4.61566">
        <ele>1240.8</ele>
        <time>1970-01-01T01:36:31.000Z</time>
      </trkpt>
      <trkpt lat="45.39075" lon="4.61566">
        <ele>1240.8</ele>
        <time>1970-01-01T01:36:32.000Z</time>
      </trkpt>
      <trkpt lat="45.3907" lon="4.61566">
        <ele>1240.7</ele>
        <time>1970-01-01T01:36:33.000Z</time>
      </trkpt>
      <trkpt lat="45.39066" lon="4.61567">
        <ele>1240.7</ele>
        <time>1970-01-01T01:36:34.000Z</time>
      </trkpt>
      <trkpt lat="45.39062" lon="4.61568">
        <ele>1240.6</ele>
        <time>1970-01-01T01:36:35.000Z</time>
      </trkpt>
      <trkpt lat="45.39058" lon="4.61569">
        <ele>1240.6</ele>
        <time>1970-01-01T01:36:36.000Z</time>
      </trkpt>
      <trkpt lat="45.39054" lon="4.61569">
        <ele>1240.5</ele>
        <time>1970-01-01T01:36:37.000Z</time>
      </trkpt>
      <trkpt lat="45.3905" lon="4.61569">
        <ele>1240.5</ele>
        <time>1970-01-01T01:36:38.000Z</time>
      </trkpt>
      <trkpt lat="45.39046" lon="4.61568">
        <ele>1240.4</ele>
        <time>1970-01-01T01:36:39.000Z</time>
      </trkpt>
      <trkpt lat="45.3904" lon="4.61569">
        <ele>1240.4</ele>
        <time>1970-01-01T01:36:40.000Z</time>
      </trkpt>
      <trkpt lat="45.39037" lon="4.6157">
        <ele>1240.3</ele>
        <time>1970-01-01T01:36:41.000Z</time>
      </trkpt>
      <trkpt lat="45.39032" lon="4.6157">
        <ele>1240.3</ele>
        <time>1970-01-01T01:36:42.000Z</time>
      </trkpt>
      <trkpt lat="45.39028" lon="4.6157">
        <ele>1240.2</ele>
        <time>1970-01-01T01:36:43.000Z</time>
      </trkpt>
      <trkpt lat="45.39024" lon="4.6157">
        <ele>1240.1</ele>
        <time>1970-01-01T01:36:44.000Z</time>
      </trkpt>
      <trkpt lat="45.39019" lon="4.61571">
        <ele>1240.1</ele>
        <time>1970-01-01T01:36:45.000Z</time>
      </trkpt>
      <trkpt lat="45.39015" lon="4.61572">
        <ele>1240</ele>
        <time>1970-01-01T01:36:46.000Z</time>
      </trkpt>
      <trkpt lat="45.3901" lon="4.61572">
        <ele>1239.9</ele>
        <time>1970-01-01T01:36:47.000Z</time>
      </trkpt>
      <trkpt lat="45.39006" lon="4.61573">
        <ele>1239.9</ele>
        <time>1970-01-01T01:36:48.000Z</time>
      </trkpt>
      <trkpt lat="45.39002" lon="4.61573">
        <ele>1239.8</ele>
        <time>1970-01-01T01:36:49.000Z</time>
      </trkpt>
      <trkpt lat="45.38997" lon="4.61573">
        <ele>1239.8</ele>
        <time>1970-01-01T01:36:50.000Z</time>
      </trkpt>
      <trkpt lat="45.38992" lon="4.61573">
        <ele>1239.7</ele>
        <time>1970-01-01T01:36:51.000Z</time>
      </trkpt>
      <trkpt lat="45.38988" lon="4.61574">
        <ele>1239.6</ele>
        <time>1970-01-01T01:36:52.000Z</time>
      </trkpt>
      <trkpt lat="45.38984" lon="4.61574">
        <ele>1239.5</ele>
        <time>1970-01-01T01:36:53.000Z</time>
      </trkpt>
      <trkpt lat="45.38979" lon="4.61575">
        <ele>1239.5</ele>
        <time>1970-01-01T01:36:54.000Z</time>
      </trkpt>
      <trkpt lat="45.38973" lon="4.61576">
        <ele>1239.4</ele>
        <time>1970-01-01T01:36:55.000Z</time>
      </trkpt>
      <trkpt lat="45.38968" lon="4.61576">
        <ele>1239.3</ele>
        <time>1970-01-01T01:36:56.000Z</time>
      </trkpt>
      <trkpt lat="45.38953" lon="4.61581">
        <ele>1239</ele>
        <time>1970-01-01T01:36:59.000Z</time>
      </trkpt>
      <trkpt lat="45.38949" lon="4.61582">
        <ele>1238.9</ele>
        <time>1970-01-01T01:37:00.000Z</time>
      </trkpt>
      <trkpt lat="45.38945" lon="4.61582">
        <ele>1238.8</ele>
        <time>1970-01-01T01:37:01.000Z</time>
      </trkpt>
      <trkpt lat="45.38941" lon="4.61583">
        <ele>1238.7</ele>
        <time>1970-01-01T01:37:02.000Z</time>
      </trkpt>
      <trkpt lat="45.38937" lon="4.61584">
        <ele>1238.7</ele>
        <time>1970-01-01T01:37:03.000Z</time>
      </trkpt>
      <trkpt lat="45.38933" lon="4.61583">
        <ele>1238.4</ele>
        <time>1970-01-01T01:37:04.000Z</time>
      </trkpt>
      <trkpt lat="45.38929" lon="4.61582">
        <ele>1237.9</ele>
        <time>1970-01-01T01:37:05.000Z</time>
      </trkpt>
      <trkpt lat="45.38925" lon="4.61582">
        <ele>1237.4</ele>
        <time>1970-01-01T01:37:06.000Z</time>
      </trkpt>
      <trkpt lat="45.38921" lon="4.61582">
        <ele>1237</ele>
        <time>1970-01-01T01:37:07.000Z</time>
      </trkpt>
      <trkpt lat="45.38917" lon="4.61582">
        <ele>1236.6</ele>
        <time>1970-01-01T01:37:08.000Z</time>
      </trkpt>
      <trkpt lat="45.38913" lon="4.61581">
        <ele>1236.2</ele>
        <time>1970-01-01T01:37:09.000Z</time>
      </trkpt>
      <trkpt lat="45.38909" lon="4.6158">
        <ele>1235.3</ele>
        <time>1970-01-01T01:37:10.000Z</time>
      </trkpt>
      <trkpt lat="45.38905" lon="4.61579">
        <ele>1234</ele>
        <time>1970-01-01T01:37:11.000Z</time>
      </trkpt>
      <trkpt lat="45.38902" lon="4.61577">
        <ele>1234</ele>
        <time>1970-01-01T01:37:12.000Z</time>
      </trkpt>
      <trkpt lat="45.38898" lon="4.61574">
        <ele>1234</ele>
        <time>1970-01-01T01:37:13.000Z</time>
      </trkpt>
      <trkpt lat="45.38895" lon="4.61572">
        <ele>1234</ele>
        <time>1970-01-01T01:37:14.000Z</time>
      </trkpt>
      <trkpt lat="45.38893" lon="4.61568">
        <ele>1234</ele>
        <time>1970-01-01T01:37:15.000Z</time>
      </trkpt>
      <trkpt lat="45.38891" lon="4.61561">
        <ele>1234</ele>
        <time>1970-01-01T01:37:17.000Z</time>
      </trkpt>
      <trkpt lat="45.38891" lon="4.61554">
        <ele>1234.8</ele>
        <time>1970-01-01T01:37:19.000Z</time>
      </trkpt>
      <trkpt lat="45.38891" lon="4.61548">
        <ele>1235.5</ele>
        <time>1970-01-01T01:37:21.000Z</time>
      </trkpt>
      <trkpt lat="45.38892" lon="4.61541">
        <ele>1236.3</ele>
        <time>1970-01-01T01:37:23.000Z</time>
      </trkpt>
      <trkpt lat="45.38894" lon="4.61535">
        <ele>1236.8</ele>
        <time>1970-01-01T01:37:25.000Z</time>
      </trkpt>
      <trkpt lat="45.38897" lon="4.6153">
        <ele>1237.2</ele>
        <time>1970-01-01T01:37:27.000Z</time>
      </trkpt>
      <trkpt lat="45.38898" lon="4.61526">
        <ele>1237.4</ele>
        <time>1970-01-01T01:37:28.000Z</time>
      </trkpt>
      <trkpt lat="45.389" lon="4.61521">
        <ele>1237.7</ele>
        <time>1970-01-01T01:37:30.000Z</time>
      </trkpt>
      <trkpt lat="45.38902" lon="4.61516">
        <ele>1238.1</ele>
        <time>1970-01-01T01:37:32.000Z</time>
      </trkpt>
      <trkpt lat="45.38903" lon="4.61511">
        <ele>1238.4</ele>
        <time>1970-01-01T01:37:34.000Z</time>
      </trkpt>
      <trkpt lat="45.38905" lon="4.61505">
        <ele>1238.7</ele>
        <time>1970-01-01T01:37:36.000Z</time>
      </trkpt>
      <trkpt lat="45.38906" lon="4.615">
        <ele>1239.1</ele>
        <time>1970-01-01T01:37:38.000Z</time>
      </trkpt>
      <trkpt lat="45.38908" lon="4.61494">
        <ele>1239.5</ele>
        <time>1970-01-01T01:37:40.000Z</time>
      </trkpt>
      <trkpt lat="45.38911" lon="4.61487">
        <ele>1239.9</ele>
        <time>1970-01-01T01:37:42.000Z</time>
      </trkpt>
      <trkpt lat="45.38913" lon="4.61482">
        <ele>1240.3</ele>
        <time>1970-01-01T01:37:44.000Z</time>
      </trkpt>
      <trkpt lat="45.38915" lon="4.61475">
        <ele>1240.7</ele>
        <time>1970-01-01T01:37:46.000Z</time>
      </trkpt>
      <trkpt lat="45.38917" lon="4.61468">
        <ele>1241.1</ele>
        <time>1970-01-01T01:37:48.000Z</time>
      </trkpt>
      <trkpt lat="45.38918" lon="4.61462">
        <ele>1241.5</ele>
        <time>1970-01-01T01:37:50.000Z</time>
      </trkpt>
      <trkpt lat="45.38919" lon="4.61458">
        <ele>1241.7</ele>
        <time>1970-01-01T01:37:52.000Z</time>
      </trkpt>
      <trkpt lat="45.38921" lon="4.61454">
        <ele>1242</ele>
        <time>1970-01-01T01:37:54.000Z</time>
      </trkpt>
      <trkpt lat="45.38924" lon="4.61448">
        <ele>1242.4</ele>
        <time>1970-01-01T01:37:56.000Z</time>
      </trkpt>
      <trkpt lat="45.38924" lon="4.61442">
        <ele>1242.7</ele>
        <time>1970-01-01T01:37:58.000Z</time>
      </trkpt>
      <trkpt lat="45.38926" lon="4.61438">
        <ele>1243</ele>
        <time>1970-01-01T01:38:00.000Z</time>
      </trkpt>
      <trkpt lat="45.38928" lon="4.61433">
        <ele>1243.3</ele>
        <time>1970-01-01T01:38:02.000Z</time>
      </trkpt>
      <trkpt lat="45.3893" lon="4.61426">
        <ele>1243.7</ele>
        <time>1970-01-01T01:38:04.000Z</time>
      </trkpt>
      <trkpt lat="45.38931" lon="4.6142">
        <ele>1244.1</ele>
        <time>1970-01-01T01:38:06.000Z</time>
      </trkpt>
      <trkpt lat="45.38932" lon="4.61415">
        <ele>1244.4</ele>
        <time>1970-01-01T01:38:08.000Z</time>
      </trkpt>
      <trkpt lat="45.38934" lon="4.61411">
        <ele>1244.6</ele>
        <time>1970-01-01T01:38:10.000Z</time>
      </trkpt>
      <trkpt lat="45.38935" lon="4.61404">
        <ele>1244.9</ele>
        <time>1970-01-01T01:38:12.000Z</time>
      </trkpt>
      <trkpt lat="45.38937" lon="4.614">
        <ele>1245.1</ele>
        <time>1970-01-01T01:38:14.000Z</time>
      </trkpt>
      <trkpt lat="45.38938" lon="4.61394">
        <ele>1245.4</ele>
        <time>1970-01-01T01:38:16.000Z</time>
      </trkpt>
      <trkpt lat="45.38938" lon="4.61388">
        <ele>1245.6</ele>
        <time>1970-01-01T01:38:18.000Z</time>
      </trkpt>
      <trkpt lat="45.38938" lon="4.61384">
        <ele>1245.8</ele>
        <time>1970-01-01T01:38:20.000Z</time>
      </trkpt>
      <trkpt lat="45.38939" lon="4.61378">
        <ele>1246.1</ele>
        <time>1970-01-01T01:38:22.000Z</time>
      </trkpt>
      <trkpt lat="45.3894" lon="4.61374">
        <ele>1246.3</ele>
        <time>1970-01-01T01:38:23.000Z</time>
      </trkpt>
      <trkpt lat="45.38941" lon="4.61367">
        <ele>1246.6</ele>
        <time>1970-01-01T01:38:25.000Z</time>
      </trkpt>
      <trkpt lat="45.38942" lon="4.61362">
        <ele>1246.8</ele>
        <time>1970-01-01T01:38:27.000Z</time>
      </trkpt>
      <trkpt lat="45.38944" lon="4.61357">
        <ele>1247</ele>
        <time>1970-01-01T01:38:29.000Z</time>
      </trkpt>
      <trkpt lat="45.38946" lon="4.61352">
        <ele>1247.3</ele>
        <time>1970-01-01T01:38:31.000Z</time>
      </trkpt>
      <trkpt lat="45.38947" lon="4.61348">
        <ele>1247.5</ele>
        <time>1970-01-01T01:38:33.000Z</time>
      </trkpt>
      <trkpt lat="45.38946" lon="4.61342">
        <ele>1247.7</ele>
        <time>1970-01-01T01:38:35.000Z</time>
      </trkpt>
      <trkpt lat="45.38946" lon="4.61338">
        <ele>1247.9</ele>
        <time>1970-01-01T01:38:37.000Z</time>
      </trkpt>
      <trkpt lat="45.38947" lon="4.61333">
        <ele>1248.1</ele>
        <time>1970-01-01T01:38:39.000Z</time>
      </trkpt>
      <trkpt lat="45.38949" lon="4.61329">
        <ele>1248.3</ele>
        <time>1970-01-01T01:38:41.000Z</time>
      </trkpt>
      <trkpt lat="45.38951" lon="4.61325">
        <ele>1248.6</ele>
        <time>1970-01-01T01:38:43.000Z</time>
      </trkpt>
      <trkpt lat="45.38952" lon="4.61319">
        <ele>1248.8</ele>
        <time>1970-01-01T01:38:46.000Z</time>
      </trkpt>
      <trkpt lat="45.38953" lon="4.61314">
        <ele>1249</ele>
        <time>1970-01-01T01:38:48.000Z</time>
      </trkpt>
      <trkpt lat="45.38954" lon="4.6131">
        <ele>1249.2</ele>
        <time>1970-01-01T01:38:50.000Z</time>
      </trkpt>
      <trkpt lat="45.38955" lon="4.61305">
        <ele>1249.4</ele>
        <time>1970-01-01T01:38:52.000Z</time>
      </trkpt>
      <trkpt lat="45.38956" lon="4.613">
        <ele>1249.7</ele>
        <time>1970-01-01T01:38:54.000Z</time>
      </trkpt>
      <trkpt lat="45.38958" lon="4.61296">
        <ele>1249.9</ele>
        <time>1970-01-01T01:38:56.000Z</time>
      </trkpt>
      <trkpt lat="45.38959" lon="4.61292">
        <ele>1250</ele>
        <time>1970-01-01T01:38:58.000Z</time>
      </trkpt>
      <trkpt lat="45.38959" lon="4.61287">
        <ele>1250.2</ele>
        <time>1970-01-01T01:39:00.000Z</time>
      </trkpt>
      <trkpt lat="45.38959" lon="4.61282">
        <ele>1250.4</ele>
        <time>1970-01-01T01:39:02.000Z</time>
      </trkpt>
      <trkpt lat="45.38961" lon="4.61277">
        <ele>1250.7</ele>
        <time>1970-01-01T01:39:04.000Z</time>
      </trkpt>
      <trkpt lat="45.38962" lon="4.61271">
        <ele>1250.9</ele>
        <time>1970-01-01T01:39:06.000Z</time>
      </trkpt>
      <trkpt lat="45.38963" lon="4.61267">
        <ele>1251.1</ele>
        <time>1970-01-01T01:39:08.000Z</time>
      </trkpt>
      <trkpt lat="45.38964" lon="4.61262">
        <ele>1251.3</ele>
        <time>1970-01-01T01:39:10.000Z</time>
      </trkpt>
      <trkpt lat="45.38966" lon="4.61258">
        <ele>1251.5</ele>
        <time>1970-01-01T01:39:12.000Z</time>
      </trkpt>
      <trkpt lat="45.38966" lon="4.61253">
        <ele>1251.7</ele>
        <time>1970-01-01T01:39:14.000Z</time>
      </trkpt>
      <trkpt lat="45.38967" lon="4.61249">
        <ele>1251.9</ele>
        <time>1970-01-01T01:39:16.000Z</time>
      </trkpt>
      <trkpt lat="45.38969" lon="4.61244">
        <ele>1252.1</ele>
        <time>1970-01-01T01:39:18.000Z</time>
      </trkpt>
      <trkpt lat="45.3897" lon="4.6124">
        <ele>1252.3</ele>
        <time>1970-01-01T01:39:20.000Z</time>
      </trkpt>
      <trkpt lat="45.3897" lon="4.61236">
        <ele>1252.5</ele>
        <time>1970-01-01T01:39:22.000Z</time>
      </trkpt>
      <trkpt lat="45.38971" lon="4.6123">
        <ele>1252.7</ele>
        <time>1970-01-01T01:39:24.000Z</time>
      </trkpt>
      <trkpt lat="45.38973" lon="4.61226">
        <ele>1252.8</ele>
        <time>1970-01-01T01:39:26.000Z</time>
      </trkpt>
      <trkpt lat="45.38975" lon="4.61222">
        <ele>1253</ele>
        <time>1970-01-01T01:39:28.000Z</time>
      </trkpt>
      <trkpt lat="45.38975" lon="4.61216">
        <ele>1253.2</ele>
        <time>1970-01-01T01:39:30.000Z</time>
      </trkpt>
      <trkpt lat="45.38975" lon="4.61209">
        <ele>1253.5</ele>
        <time>1970-01-01T01:39:32.000Z</time>
      </trkpt>
      <trkpt lat="45.38975" lon="4.61204">
        <ele>1253.7</ele>
        <time>1970-01-01T01:39:34.000Z</time>
      </trkpt>
      <trkpt lat="45.38974" lon="4.61198">
        <ele>1253.9</ele>
        <time>1970-01-01T01:39:36.000Z</time>
      </trkpt>
      <trkpt lat="45.38973" lon="4.61193">
        <ele>1254.1</ele>
        <time>1970-01-01T01:39:38.000Z</time>
      </trkpt>
      <trkpt lat="45.38973" lon="4.61187">
        <ele>1254.3</ele>
        <time>1970-01-01T01:39:40.000Z</time>
      </trkpt>
      <trkpt lat="45.38973" lon="4.61181">
        <ele>1254.6</ele>
        <time>1970-01-01T01:39:42.000Z</time>
      </trkpt>
      <trkpt lat="45.38973" lon="4.61176">
        <ele>1254.8</ele>
        <time>1970-01-01T01:39:44.000Z</time>
      </trkpt>
      <trkpt lat="45.38972" lon="4.6117">
        <ele>1255</ele>
        <time>1970-01-01T01:39:46.000Z</time>
      </trkpt>
      <trkpt lat="45.38971" lon="4.61165">
        <ele>1255.2</ele>
        <time>1970-01-01T01:39:48.000Z</time>
      </trkpt>
      <trkpt lat="45.38971" lon="4.61158">
        <ele>1255.5</ele>
        <time>1970-01-01T01:39:50.000Z</time>
      </trkpt>
      <trkpt lat="45.38972" lon="4.61153">
        <ele>1255.7</ele>
        <time>1970-01-01T01:39:52.000Z</time>
      </trkpt>
      <trkpt lat="45.38975" lon="4.61149">
        <ele>1255.9</ele>
        <time>1970-01-01T01:39:54.000Z</time>
      </trkpt>
      <trkpt lat="45.38977" lon="4.61146">
        <ele>1256</ele>
        <time>1970-01-01T01:39:56.000Z</time>
      </trkpt>
      <trkpt lat="45.3898" lon="4.61145">
        <ele>1256.2</ele>
        <time>1970-01-01T01:39:59.000Z</time>
      </trkpt>
      <trkpt lat="45.38983" lon="4.61147">
        <ele>1256.3</ele>
        <time>1970-01-01T01:40:06.000Z</time>
      </trkpt>
      <trkpt lat="45.38984" lon="4.6115">
        <ele>1256.4</ele>
        <time>1970-01-01T01:40:08.000Z</time>
      </trkpt>
      <trkpt lat="45.38985" lon="4.61154">
        <ele>1256.5</ele>
        <time>1970-01-01T01:40:10.000Z</time>
      </trkpt>
      <trkpt lat="45.38984" lon="4.6116">
        <ele>1256.6</ele>
        <time>1970-01-01T01:40:12.000Z</time>
      </trkpt>
      <trkpt lat="45.38986" lon="4.61164">
        <ele>1256.7</ele>
        <time>1970-01-01T01:40:14.000Z</time>
      </trkpt>
      <trkpt lat="45.38988" lon="4.61169">
        <ele>1256.9</ele>
        <time>1970-01-01T01:40:17.000Z</time>
      </trkpt>
      <trkpt lat="45.3899" lon="4.61172">
        <ele>1257</ele>
        <time>1970-01-01T01:40:19.000Z</time>
      </trkpt>
      <trkpt lat="45.3899" lon="4.61177">
        <ele>1259.4</ele>
        <time>1970-01-01T01:40:21.000Z</time>
      </trkpt>
      <trkpt lat="45.3899" lon="4.61184">
        <ele>1263.8</ele>
        <time>1970-01-01T01:40:23.000Z</time>
      </trkpt>
      <trkpt lat="45.38993" lon="4.61189">
        <ele>1268.5</ele>
        <time>1970-01-01T01:40:25.000Z</time>
      </trkpt>
      <trkpt lat="45.38995" lon="4.61195">
        <ele>1272.9</ele>
        <time>1970-01-01T01:40:27.000Z</time>
      </trkpt>
      <trkpt lat="45.38998" lon="4.61202">
        <ele>1275.4</ele>
        <time>1970-01-01T01:40:29.000Z</time>
      </trkpt>
      <trkpt lat="45.39" lon="4.61207">
        <ele>1275.9</ele>
        <time>1970-01-01T01:40:31.000Z</time>
      </trkpt>
      <trkpt lat="45.39002" lon="4.61212">
        <ele>1276.3</ele>
        <time>1970-01-01T01:40:33.000Z</time>
      </trkpt>
      <trkpt lat="45.39003" lon="4.61216">
        <ele>1276.4</ele>
        <time>1970-01-01T01:40:35.000Z</time>
      </trkpt>
      <trkpt lat="45.39005" lon="4.61221">
        <ele>1276.6</ele>
        <time>1970-01-01T01:40:37.000Z</time>
      </trkpt>
      <trkpt lat="45.39007" lon="4.61226">
        <ele>1276.9</ele>
        <time>1970-01-01T01:40:39.000Z</time>
      </trkpt>
      <trkpt lat="45.39009" lon="4.6123">
        <ele>1277.1</ele>
        <time>1970-01-01T01:40:41.000Z</time>
      </trkpt>
      <trkpt lat="45.39011" lon="4.61234">
        <ele>1277.3</ele>
        <time>1970-01-01T01:40:43.000Z</time>
      </trkpt>
      <trkpt lat="45.39013" lon="4.61238">
        <ele>1277.5</ele>
        <time>1970-01-01T01:40:45.000Z</time>
      </trkpt>
      <trkpt lat="45.39015" lon="4.61242">
        <ele>1277.6</ele>
        <time>1970-01-01T01:40:47.000Z</time>
      </trkpt>
      <trkpt lat="45.39017" lon="4.61247">
        <ele>1277.9</ele>
        <time>1970-01-01T01:40:49.000Z</time>
      </trkpt>
      <trkpt lat="45.3902" lon="4.61252">
        <ele>1278.1</ele>
        <time>1970-01-01T01:40:51.000Z</time>
      </trkpt>
      <trkpt lat="45.39022" lon="4.61258">
        <ele>1278.4</ele>
        <time>1970-01-01T01:40:53.000Z</time>
      </trkpt>
      <trkpt lat="45.39025" lon="4.61263">
        <ele>1278.7</ele>
        <time>1970-01-01T01:40:55.000Z</time>
      </trkpt>
      <trkpt lat="45.39026" lon="4.61268">
        <ele>1278.9</ele>
        <time>1970-01-01T01:40:57.000Z</time>
      </trkpt>
      <trkpt lat="45.39028" lon="4.61273">
        <ele>1279.1</ele>
        <time>1970-01-01T01:40:59.000Z</time>
      </trkpt>
      <trkpt lat="45.3903" lon="4.61279">
        <ele>1279.3</ele>
        <time>1970-01-01T01:41:01.000Z</time>
      </trkpt>
      <trkpt lat="45.39032" lon="4.61284">
        <ele>1279.6</ele>
        <time>1970-01-01T01:41:03.000Z</time>
      </trkpt>
      <trkpt lat="45.39034" lon="4.6129">
        <ele>1279.9</ele>
        <time>1970-01-01T01:41:05.000Z</time>
      </trkpt>
      <trkpt lat="45.39035" lon="4.61294">
        <ele>1280.1</ele>
        <time>1970-01-01T01:41:07.000Z</time>
      </trkpt>
      <trkpt lat="45.39038" lon="4.613">
        <ele>1280.4</ele>
        <time>1970-01-01T01:41:09.000Z</time>
      </trkpt>
      <trkpt lat="45.39039" lon="4.61305">
        <ele>1280.7</ele>
        <time>1970-01-01T01:41:11.000Z</time>
      </trkpt>
      <trkpt lat="45.39041" lon="4.6131">
        <ele>1280.9</ele>
        <time>1970-01-01T01:41:13.000Z</time>
      </trkpt>
      <trkpt lat="45.39042" lon="4.61313">
        <ele>1281.1</ele>
        <time>1970-01-01T01:41:14.000Z</time>
      </trkpt>
      <trkpt lat="45.39044" lon="4.61318">
        <ele>1281.3</ele>
        <time>1970-01-01T01:41:16.000Z</time>
      </trkpt>
      <trkpt lat="45.39045" lon="4.61323">
        <ele>1281.6</ele>
        <time>1970-01-01T01:41:18.000Z</time>
      </trkpt>
      <trkpt lat="45.39045" lon="4.61329">
        <ele>1281.9</ele>
        <time>1970-01-01T01:41:20.000Z</time>
      </trkpt>
      <trkpt lat="45.39046" lon="4.61335">
        <ele>1282.2</ele>
        <time>1970-01-01T01:41:22.000Z</time>
      </trkpt>
      <trkpt lat="45.39048" lon="4.6134">
        <ele>1282.4</ele>
        <time>1970-01-01T01:41:24.000Z</time>
      </trkpt>
      <trkpt lat="45.3905" lon="4.61345">
        <ele>1282.7</ele>
        <time>1970-01-01T01:41:26.000Z</time>
      </trkpt>
      <trkpt lat="45.39054" lon="4.6135">
        <ele>1283.1</ele>
        <time>1970-01-01T01:41:28.000Z</time>
      </trkpt>
      <trkpt lat="45.39057" lon="4.61353">
        <ele>1283.4</ele>
        <time>1970-01-01T01:41:29.000Z</time>
      </trkpt>
      <trkpt lat="45.3906" lon="4.61354">
        <ele>1283.8</ele>
        <time>1970-01-01T01:41:30.000Z</time>
      </trkpt>
      <trkpt lat="45.39065" lon="4.61356">
        <ele>1284.5</ele>
        <time>1970-01-01T01:41:32.000Z</time>
      </trkpt>
      <trkpt lat="45.39068" lon="4.61355">
        <ele>1284.9</ele>
        <time>1970-01-01T01:41:34.000Z</time>
      </trkpt>
      <trkpt lat="45.39072" lon="4.61352">
        <ele>1285.6</ele>
        <time>1970-01-01T01:41:36.000Z</time>
      </trkpt>
      <trkpt lat="45.39074" lon="4.6135">
        <ele>1286.1</ele>
        <time>1970-01-01T01:41:37.000Z</time>
      </trkpt>
      <trkpt lat="45.39078" lon="4.61347">
        <ele>1286.8</ele>
        <time>1970-01-01T01:41:39.000Z</time>
      </trkpt>
      <trkpt lat="45.3908" lon="4.61341">
        <ele>1287.6</ele>
        <time>1970-01-01T01:41:41.000Z</time>
      </trkpt>
      <trkpt lat="45.39081" lon="4.61336">
        <ele>1288.1</ele>
        <time>1970-01-01T01:41:43.000Z</time>
      </trkpt>
      <trkpt lat="45.39081" lon="4.61331">
        <ele>1288.6</ele>
        <time>1970-01-01T01:41:45.000Z</time>
      </trkpt>
      <trkpt lat="45.39081" lon="4.61325">
        <ele>1289.3</ele>
        <time>1970-01-01T01:41:47.000Z</time>
      </trkpt>
      <trkpt lat="45.3908" lon="4.61318">
        <ele>1290</ele>
        <time>1970-01-01T01:41:49.000Z</time>
      </trkpt>
      <trkpt lat="45.39081" lon="4.61314">
        <ele>1290.3</ele>
        <time>1970-01-01T01:41:51.000Z</time>
      </trkpt>
      <trkpt lat="45.3908" lon="4.61307">
        <ele>1291</ele>
        <time>1970-01-01T01:41:53.000Z</time>
      </trkpt>
      <trkpt lat="45.3908" lon="4.61302">
        <ele>1291.4</ele>
        <time>1970-01-01T01:41:55.000Z</time>
      </trkpt>
      <trkpt lat="45.3908" lon="4.61296">
        <ele>1292</ele>
        <time>1970-01-01T01:41:57.000Z</time>
      </trkpt>
      <trkpt lat="45.39082" lon="4.61291">
        <ele>1292.4</ele>
        <time>1970-01-01T01:41:59.000Z</time>
      </trkpt>
      <trkpt lat="45.39083" lon="4.61287">
        <ele>1292.8</ele>
        <time>1970-01-01T01:42:01.000Z</time>
      </trkpt>
      <trkpt lat="45.39082" lon="4.6128">
        <ele>1293.4</ele>
        <time>1970-01-01T01:42:03.000Z</time>
      </trkpt>
      <trkpt lat="45.39082" lon="4.61274">
        <ele>1294</ele>
        <time>1970-01-01T01:42:05.000Z</time>
      </trkpt>
      <trkpt lat="45.39083" lon="4.61268">
        <ele>1294.7</ele>
        <time>1970-01-01T01:42:07.000Z</time>
      </trkpt>
      <trkpt lat="45.39084" lon="4.61262">
        <ele>1295.3</ele>
        <time>1970-01-01T01:42:09.000Z</time>
      </trkpt>
      <trkpt lat="45.39085" lon="4.61257">
        <ele>1295.8</ele>
        <time>1970-01-01T01:42:11.000Z</time>
      </trkpt>
      <trkpt lat="45.39087" lon="4.61251">
        <ele>1296.3</ele>
        <time>1970-01-01T01:42:13.000Z</time>
      </trkpt>
      <trkpt lat="45.39087" lon="4.61245">
        <ele>1296.7</ele>
        <time>1970-01-01T01:42:15.000Z</time>
      </trkpt>
      <trkpt lat="45.39086" lon="4.61239">
        <ele>1297.1</ele>
        <time>1970-01-01T01:42:17.000Z</time>
      </trkpt>
      <trkpt lat="45.39085" lon="4.61234">
        <ele>1297.4</ele>
        <time>1970-01-01T01:42:19.000Z</time>
      </trkpt>
      <trkpt lat="45.39085" lon="4.61229">
        <ele>1297.8</ele>
        <time>1970-01-01T01:42:21.000Z</time>
      </trkpt>
      <trkpt lat="45.39084" lon="4.61222">
        <ele>1298.3</ele>
        <time>1970-01-01T01:42:23.000Z</time>
      </trkpt>
      <trkpt lat="45.39086" lon="4.61217">
        <ele>1298.7</ele>
        <time>1970-01-01T01:42:26.000Z</time>
      </trkpt>
      <trkpt lat="45.39088" lon="4.6121">
        <ele>1299.1</ele>
        <time>1970-01-01T01:42:28.000Z</time>
      </trkpt>
      <trkpt lat="45.39088" lon="4.61204">
        <ele>1299.6</ele>
        <time>1970-01-01T01:42:30.000Z</time>
      </trkpt>
      <trkpt lat="45.39087" lon="4.61198">
        <ele>1300</ele>
        <time>1970-01-01T01:42:32.000Z</time>
      </trkpt>
      <trkpt lat="45.39088" lon="4.61194">
        <ele>1300.3</ele>
        <time>1970-01-01T01:42:34.000Z</time>
      </trkpt>
      <trkpt lat="45.3909" lon="4.61188">
        <ele>1300.7</ele>
        <time>1970-01-01T01:42:36.000Z</time>
      </trkpt>
      <trkpt lat="45.39091" lon="4.61183">
        <ele>1301</ele>
        <time>1970-01-01T01:42:38.000Z</time>
      </trkpt>
      <trkpt lat="45.3909" lon="4.61177">
        <ele>1301.3</ele>
        <time>1970-01-01T01:42:40.000Z</time>
      </trkpt>
      <trkpt lat="45.3909" lon="4.61172">
        <ele>1301.6</ele>
        <time>1970-01-01T01:42:42.000Z</time>
      </trkpt>
      <trkpt lat="45.3909" lon="4.61166">
        <ele>1301.8</ele>
        <time>1970-01-01T01:42:44.000Z</time>
      </trkpt>
      <trkpt lat="45.39093" lon="4.61161">
        <ele>1302.2</ele>
        <time>1970-01-01T01:42:46.000Z</time>
      </trkpt>
      <trkpt lat="45.39096" lon="4.61156">
        <ele>1302.5</ele>
        <time>1970-01-01T01:42:48.000Z</time>
      </trkpt>
      <trkpt lat="45.39096" lon="4.61152">
        <ele>1302.7</ele>
        <time>1970-01-01T01:42:49.000Z</time>
      </trkpt>
      <trkpt lat="45.39096" lon="4.61147">
        <ele>1303</ele>
        <time>1970-01-01T01:42:51.000Z</time>
      </trkpt>
      <trkpt lat="45.39097" lon="4.61141">
        <ele>1303.3</ele>
        <time>1970-01-01T01:42:53.000Z</time>
      </trkpt>
      <trkpt lat="45.39099" lon="4.61135">
        <ele>1303.6</ele>
        <time>1970-01-01T01:42:55.000Z</time>
      </trkpt>
      <trkpt lat="45.391" lon="4.61132">
        <ele>1303.8</ele>
        <time>1970-01-01T01:42:56.000Z</time>
      </trkpt>
      <trkpt lat="45.39101" lon="4.61126">
        <ele>1304.1</ele>
        <time>1970-01-01T01:42:58.000Z</time>
      </trkpt>
      <trkpt lat="45.39102" lon="4.6112">
        <ele>1304.5</ele>
        <time>1970-01-01T01:43:00.000Z</time>
      </trkpt>
      <trkpt lat="45.39103" lon="4.61114">
        <ele>1304.8</ele>
        <time>1970-01-01T01:43:02.000Z</time>
      </trkpt>
      <trkpt lat="45.39104" lon="4.61108">
        <ele>1305.1</ele>
        <time>1970-01-01T01:43:04.000Z</time>
      </trkpt>
      <trkpt lat="45.39106" lon="4.61103">
        <ele>1305.4</ele>
        <time>1970-01-01T01:43:06.000Z</time>
      </trkpt>
      <trkpt lat="45.39107" lon="4.61098">
        <ele>1305.6</ele>
        <time>1970-01-01T01:43:08.000Z</time>
      </trkpt>
      <trkpt lat="45.39107" lon="4.61092">
        <ele>1306</ele>
        <time>1970-01-01T01:43:10.000Z</time>
      </trkpt>
      <trkpt lat="45.39107" lon="4.61086">
        <ele>1306.3</ele>
        <time>1970-01-01T01:43:12.000Z</time>
      </trkpt>
      <trkpt lat="45.39108" lon="4.61081">
        <ele>1306.5</ele>
        <time>1970-01-01T01:43:14.000Z</time>
      </trkpt>
      <trkpt lat="45.39109" lon="4.61075">
        <ele>1306.8</ele>
        <time>1970-01-01T01:43:16.000Z</time>
      </trkpt>
      <trkpt lat="45.39111" lon="4.61069">
        <ele>1307.2</ele>
        <time>1970-01-01T01:43:18.000Z</time>
      </trkpt>
      <trkpt lat="45.39113" lon="4.61063">
        <ele>1307.5</ele>
        <time>1970-01-01T01:43:20.000Z</time>
      </trkpt>
      <trkpt lat="45.39115" lon="4.61058">
        <ele>1307.8</ele>
        <time>1970-01-01T01:43:22.000Z</time>
      </trkpt>
      <trkpt lat="45.39118" lon="4.61053">
        <ele>1308.2</ele>
        <time>1970-01-01T01:43:24.000Z</time>
      </trkpt>
      <trkpt lat="45.39119" lon="4.61045">
        <ele>1308.6</ele>
        <time>1970-01-01T01:43:26.000Z</time>
      </trkpt>
      <trkpt lat="45.3912" lon="4.61039">
        <ele>1309</ele>
        <time>1970-01-01T01:43:27.000Z</time>
      </trkpt>
      <trkpt lat="45.39122" lon="4.61033">
        <ele>1309.3</ele>
        <time>1970-01-01T01:43:28.000Z</time>
      </trkpt>
      <trkpt lat="45.39123" lon="4.61026">
        <ele>1309.8</ele>
        <time>1970-01-01T01:43:29.000Z</time>
      </trkpt>
      <trkpt lat="45.39125" lon="4.61018">
        <ele>1310.2</ele>
        <time>1970-01-01T01:43:30.000Z</time>
      </trkpt>
      <trkpt lat="45.39126" lon="4.6101">
        <ele>1310.7</ele>
        <time>1970-01-01T01:43:31.000Z</time>
      </trkpt>
      <trkpt lat="45.39127" lon="4.61001">
        <ele>1311.2</ele>
        <time>1970-01-01T01:43:32.000Z</time>
      </trkpt>
      <trkpt lat="45.39128" lon="4.60992">
        <ele>1311.7</ele>
        <time>1970-01-01T01:43:33.000Z</time>
      </trkpt>
      <trkpt lat="45.39128" lon="4.60983">
        <ele>1312.2</ele>
        <time>1970-01-01T01:43:34.000Z</time>
      </trkpt>
      <trkpt lat="45.39128" lon="4.60974">
        <ele>1312.6</ele>
        <time>1970-01-01T01:43:35.000Z</time>
      </trkpt>
      <trkpt lat="45.39128" lon="4.60966">
        <ele>1313.1</ele>
        <time>1970-01-01T01:43:36.000Z</time>
      </trkpt>
      <trkpt lat="45.39129" lon="4.60957">
        <ele>1313.5</ele>
        <time>1970-01-01T01:43:37.000Z</time>
      </trkpt>
      <trkpt lat="45.39129" lon="4.60949">
        <ele>1313.9</ele>
        <time>1970-01-01T01:43:38.000Z</time>
      </trkpt>
      <trkpt lat="45.3913" lon="4.60941">
        <ele>1314.2</ele>
        <time>1970-01-01T01:43:39.000Z</time>
      </trkpt>
      <trkpt lat="45.39131" lon="4.60934">
        <ele>1314.6</ele>
        <time>1970-01-01T01:43:40.000Z</time>
      </trkpt>
      <trkpt lat="45.3913" lon="4.60928">
        <ele>1314.9</ele>
        <time>1970-01-01T01:43:41.000Z</time>
      </trkpt>
      <trkpt lat="45.39131" lon="4.60922">
        <ele>1315.1</ele>
        <time>1970-01-01T01:43:42.000Z</time>
      </trkpt>
      <trkpt lat="45.39131" lon="4.60918">
        <ele>1315.3</ele>
        <time>1970-01-01T01:43:43.000Z</time>
      </trkpt>
      <trkpt lat="45.39131" lon="4.60911">
        <ele>1315.7</ele>
        <time>1970-01-01T01:43:45.000Z</time>
      </trkpt>
      <trkpt lat="45.3913" lon="4.60904">
        <ele>1316</ele>
        <time>1970-01-01T01:43:47.000Z</time>
      </trkpt>
      <trkpt lat="45.3913" lon="4.60898">
        <ele>1316.3</ele>
        <time>1970-01-01T01:43:49.000Z</time>
      </trkpt>
      <trkpt lat="45.39129" lon="4.60893">
        <ele>1316.5</ele>
        <time>1970-01-01T01:43:51.000Z</time>
      </trkpt>
      <trkpt lat="45.39129" lon="4.60888">
        <ele>1316.8</ele>
        <time>1970-01-01T01:43:53.000Z</time>
      </trkpt>
      <trkpt lat="45.39129" lon="4.60882">
        <ele>1317</ele>
        <time>1970-01-01T01:43:55.000Z</time>
      </trkpt>
      <trkpt lat="45.39129" lon="4.60878">
        <ele>1317</ele>
        <time>1970-01-01T01:43:57.000Z</time>
      </trkpt>
      <trkpt lat="45.39131" lon="4.60873">
        <ele>1317</ele>
        <time>1970-01-01T01:43:59.000Z</time>
      </trkpt>
      <trkpt lat="45.39131" lon="4.60869">
        <ele>1317</ele>
        <time>1970-01-01T01:44:01.000Z</time>
      </trkpt>
      <trkpt lat="45.39129" lon="4.60862">
        <ele>1317</ele>
        <time>1970-01-01T01:44:03.000Z</time>
      </trkpt>
      <trkpt lat="45.39127" lon="4.60857">
        <ele>1317</ele>
        <time>1970-01-01T01:44:04.000Z</time>
      </trkpt>
      <trkpt lat="45.39126" lon="4.60852">
        <ele>1317</ele>
        <time>1970-01-01T01:44:05.000Z</time>
      </trkpt>
      <trkpt lat="45.39124" lon="4.60846">
        <ele>1317</ele>
        <time>1970-01-01T01:44:06.000Z</time>
      </trkpt>
      <trkpt lat="45.39121" lon="4.6084">
        <ele>1317</ele>
        <time>1970-01-01T01:44:07.000Z</time>
      </trkpt>
      <trkpt lat="45.39119" lon="4.60834">
        <ele>1317.3</ele>
        <time>1970-01-01T01:44:08.000Z</time>
      </trkpt>
      <trkpt lat="45.39115" lon="4.60828">
        <ele>1318</ele>
        <time>1970-01-01T01:44:09.000Z</time>
      </trkpt>
      <trkpt lat="45.39112" lon="4.60821">
        <ele>1318.7</ele>
        <time>1970-01-01T01:44:10.000Z</time>
      </trkpt>
      <trkpt lat="45.39109" lon="4.60815">
        <ele>1319.3</ele>
        <time>1970-01-01T01:44:11.000Z</time>
      </trkpt>
      <trkpt lat="45.39106" lon="4.60808">
        <ele>1320.1</ele>
        <time>1970-01-01T01:44:12.000Z</time>
      </trkpt>
      <trkpt lat="45.39102" lon="4.60802">
        <ele>1320.8</ele>
        <time>1970-01-01T01:44:13.000Z</time>
      </trkpt>
      <trkpt lat="45.39098" lon="4.60796">
        <ele>1321.6</ele>
        <time>1970-01-01T01:44:14.000Z</time>
      </trkpt>
      <trkpt lat="45.39095" lon="4.60791">
        <ele>1322.1</ele>
        <time>1970-01-01T01:44:15.000Z</time>
      </trkpt>
      <trkpt lat="45.39093" lon="4.60786">
        <ele>1322.3</ele>
        <time>1970-01-01T01:44:16.000Z</time>
      </trkpt>
      <trkpt lat="45.3909" lon="4.60782">
        <ele>1322.6</ele>
        <time>1970-01-01T01:44:17.000Z</time>
      </trkpt>
      <trkpt lat="45.39088" lon="4.60778">
        <ele>1322.8</ele>
        <time>1970-01-01T01:44:18.000Z</time>
      </trkpt>
      <trkpt lat="45.39085" lon="4.60774">
        <ele>1323</ele>
        <time>1970-01-01T01:44:19.000Z</time>
      </trkpt>
      <trkpt lat="45.39084" lon="4.60771">
        <ele>1323.2</ele>
        <time>1970-01-01T01:44:20.000Z</time>
      </trkpt>
      <trkpt lat="45.39079" lon="4.60768">
        <ele>1323.5</ele>
        <time>1970-01-01T01:44:22.000Z</time>
      </trkpt>
      <trkpt lat="45.39075" lon="4.60763">
        <ele>1323.8</ele>
        <time>1970-01-01T01:44:24.000Z</time>
      </trkpt>
      <trkpt lat="45.39072" lon="4.6076">
        <ele>1324.1</ele>
        <time>1970-01-01T01:44:26.000Z</time>
      </trkpt>
      <trkpt lat="45.39069" lon="4.60758">
        <ele>1324.3</ele>
        <time>1970-01-01T01:44:28.000Z</time>
      </trkpt>
      <trkpt lat="45.39067" lon="4.60755">
        <ele>1324.5</ele>
        <time>1970-01-01T01:44:30.000Z</time>
      </trkpt>
      <trkpt lat="45.39064" lon="4.60752">
        <ele>1324.8</ele>
        <time>1970-01-01T01:44:32.000Z</time>
      </trkpt>
      <trkpt lat="45.39062" lon="4.60749">
        <ele>1325.2</ele>
        <time>1970-01-01T01:44:34.000Z</time>
      </trkpt>
      <trkpt lat="45.39059" lon="4.60748">
        <ele>1325.5</ele>
        <time>1970-01-01T01:44:36.000Z</time>
      </trkpt>
      <trkpt lat="45.39054" lon="4.60746">
        <ele>1325.9</ele>
        <time>1970-01-01T01:44:39.000Z</time>
      </trkpt>
      <trkpt lat="45.39051" lon="4.60744">
        <ele>1326.3</ele>
        <time>1970-01-01T01:44:42.000Z</time>
      </trkpt>
      <trkpt lat="45.39048" lon="4.6074">
        <ele>1326.7</ele>
        <time>1970-01-01T01:44:45.000Z</time>
      </trkpt>
      <trkpt lat="45.39044" lon="4.60738">
        <ele>1327.1</ele>
        <time>1970-01-01T01:44:48.000Z</time>
      </trkpt>
      <trkpt lat="45.3904" lon="4.60735">
        <ele>1327.6</ele>
        <time>1970-01-01T01:44:51.000Z</time>
      </trkpt>
      <trkpt lat="45.39037" lon="4.60732">
        <ele>1328</ele>
        <time>1970-01-01T01:44:54.000Z</time>
      </trkpt>
      <trkpt lat="45.39034" lon="4.60729">
        <ele>1328.3</ele>
        <time>1970-01-01T01:44:58.000Z</time>
      </trkpt>
      <trkpt lat="45.39031" lon="4.60728">
        <ele>1328.7</ele>
        <time>1970-01-01T01:45:00.000Z</time>
      </trkpt>
      <trkpt lat="45.39028" lon="4.60727">
        <ele>1329.1</ele>
        <time>1970-01-01T01:45:03.000Z</time>
      </trkpt>
      <trkpt lat="45.39026" lon="4.60724">
        <ele>1329.4</ele>
        <time>1970-01-01T01:45:06.000Z</time>
      </trkpt>
      <trkpt lat="45.39022" lon="4.60723">
        <ele>1329.8</ele>
        <time>1970-01-01T01:45:10.000Z</time>
      </trkpt>
      <trkpt lat="45.39019" lon="4.60722">
        <ele>1330.1</ele>
        <time>1970-01-01T01:45:12.000Z</time>
      </trkpt>
      <trkpt lat="45.39016" lon="4.60718">
        <ele>1330.5</ele>
        <time>1970-01-01T01:45:15.000Z</time>
      </trkpt>
      <trkpt lat="45.39013" lon="4.60715">
        <ele>1330.9</ele>
        <time>1970-01-01T01:45:19.000Z</time>
      </trkpt>
      <trkpt lat="45.3901" lon="4.60713">
        <ele>1331.4</ele>
        <time>1970-01-01T01:45:23.000Z</time>
      </trkpt>
      <trkpt lat="45.39007" lon="4.60711">
        <ele>1331.7</ele>
        <time>1970-01-01T01:45:24.000Z</time>
      </trkpt>
      <trkpt lat="45.39002" lon="4.60708">
        <ele>1332.4</ele>
        <time>1970-01-01T01:45:27.000Z</time>
      </trkpt>
      <trkpt lat="45.38999" lon="4.60709">
        <ele>1332.8</ele>
        <time>1970-01-01T01:45:28.000Z</time>
      </trkpt>
      <trkpt lat="45.38996" lon="4.6071">
        <ele>1333.2</ele>
        <time>1970-01-01T01:45:30.000Z</time>
      </trkpt>
      <trkpt lat="45.38988" lon="4.60702">
        <ele>1334.4</ele>
        <time>1970-01-01T01:45:32.000Z</time>
      </trkpt>
      <trkpt lat="45.38985" lon="4.60696">
        <ele>1335.1</ele>
        <time>1970-01-01T01:45:33.000Z</time>
      </trkpt>
      <trkpt lat="45.38983" lon="4.60699">
        <ele>1335.5</ele>
        <time>1970-01-01T01:45:36.000Z</time>
      </trkpt>
      <trkpt lat="45.3898" lon="4.60699">
        <ele>1335.9</ele>
        <time>1970-01-01T01:45:41.000Z</time>
      </trkpt>
      <trkpt lat="45.38976" lon="4.60699">
        <ele>1336.3</ele>
        <time>1970-01-01T01:45:45.000Z</time>
      </trkpt>
      <trkpt lat="45.38973" lon="4.60697">
        <ele>1336.7</ele>
        <time>1970-01-01T01:45:51.000Z</time>
      </trkpt>
      <trkpt lat="45.38969" lon="4.60697">
        <ele>1337.3</ele>
        <time>1970-01-01T01:45:53.000Z</time>
      </trkpt>
      <trkpt lat="45.38966" lon="4.60698">
        <ele>1337.6</ele>
        <time>1970-01-01T01:45:54.000Z</time>
      </trkpt>
      <trkpt lat="45.38963" lon="4.607">
        <ele>1338</ele>
        <time>1970-01-01T01:45:56.000Z</time>
      </trkpt>
      <trkpt lat="45.38959" lon="4.60698">
        <ele>1338.6</ele>
        <time>1970-01-01T01:45:59.000Z</time>
      </trkpt>
      <trkpt lat="45.38956" lon="4.60696">
        <ele>1339</ele>
        <time>1970-01-01T01:46:01.000Z</time>
      </trkpt>
      <trkpt lat="45.38952" lon="4.60696">
        <ele>1339.5</ele>
        <time>1970-01-01T01:46:03.000Z</time>
      </trkpt>
      <trkpt lat="45.38949" lon="4.60695">
        <ele>1339.9</ele>
        <time>1970-01-01T01:46:04.000Z</time>
      </trkpt>
      <trkpt lat="45.38946" lon="4.60693">
        <ele>1340.5</ele>
        <time>1970-01-01T01:46:06.000Z</time>
      </trkpt>
      <trkpt lat="45.38943" lon="4.60691">
        <ele>1341</ele>
        <time>1970-01-01T01:46:08.000Z</time>
      </trkpt>
      <trkpt lat="45.3894" lon="4.60689">
        <ele>1341.5</ele>
        <time>1970-01-01T01:46:10.000Z</time>
      </trkpt>
      <trkpt lat="45.38938" lon="4.60689">
        <ele>1341.9</ele>
        <time>1970-01-01T01:46:12.000Z</time>
      </trkpt>
      <trkpt lat="45.38934" lon="4.60689">
        <ele>1342.5</ele>
        <time>1970-01-01T01:46:14.000Z</time>
      </trkpt>
      <trkpt lat="45.38931" lon="4.60686">
        <ele>1343.1</ele>
        <time>1970-01-01T01:46:16.000Z</time>
      </trkpt>
      <trkpt lat="45.38928" lon="4.60685">
        <ele>1343.4</ele>
        <time>1970-01-01T01:46:17.000Z</time>
      </trkpt>
      <trkpt lat="45.38925" lon="4.60684">
        <ele>1343.7</ele>
        <time>1970-01-01T01:46:18.000Z</time>
      </trkpt>
      <trkpt lat="45.38922" lon="4.60684">
        <ele>1344.1</ele>
        <time>1970-01-01T01:46:19.000Z</time>
      </trkpt>
      <trkpt lat="45.38918" lon="4.6068">
        <ele>1344.6</ele>
        <time>1970-01-01T01:46:22.000Z</time>
      </trkpt>
      <trkpt lat="45.38914" lon="4.60677">
        <ele>1345.2</ele>
        <time>1970-01-01T01:46:25.000Z</time>
      </trkpt>
      <trkpt lat="45.38911" lon="4.60676">
        <ele>1345.6</ele>
        <time>1970-01-01T01:46:27.000Z</time>
      </trkpt>
      <trkpt lat="45.38906" lon="4.60675">
        <ele>1346.1</ele>
        <time>1970-01-01T01:46:29.000Z</time>
      </trkpt>
      <trkpt lat="45.38903" lon="4.60674">
        <ele>1346.4</ele>
        <time>1970-01-01T01:46:31.000Z</time>
      </trkpt>
      <trkpt lat="45.389" lon="4.60672">
        <ele>1346.8</ele>
        <time>1970-01-01T01:46:33.000Z</time>
      </trkpt>
      <trkpt lat="45.38898" lon="4.60669">
        <ele>1347.1</ele>
        <time>1970-01-01T01:46:37.000Z</time>
      </trkpt>
      <trkpt lat="45.38896" lon="4.60668">
        <ele>1347.4</ele>
        <time>1970-01-01T01:46:38.000Z</time>
      </trkpt>
      <trkpt lat="45.38891" lon="4.60665">
        <ele>1348</ele>
        <time>1970-01-01T01:46:40.000Z</time>
      </trkpt>
      <trkpt lat="45.38886" lon="4.60662">
        <ele>1348.7</ele>
        <time>1970-01-01T01:46:43.000Z</time>
      </trkpt>
      <trkpt lat="45.38882" lon="4.60659">
        <ele>1349.4</ele>
        <time>1970-01-01T01:46:45.000Z</time>
      </trkpt>
      <trkpt lat="45.38877" lon="4.60656">
        <ele>1350.2</ele>
        <time>1970-01-01T01:46:47.000Z</time>
      </trkpt>
      <trkpt lat="45.38872" lon="4.60654">
        <ele>1351</ele>
        <time>1970-01-01T01:46:49.000Z</time>
      </trkpt>
      <trkpt lat="45.38869" lon="4.60649">
        <ele>1351.7</ele>
        <time>1970-01-01T01:46:51.000Z</time>
      </trkpt>
      <trkpt lat="45.38865" lon="4.60644">
        <ele>1352.6</ele>
        <time>1970-01-01T01:46:53.000Z</time>
      </trkpt>
      <trkpt lat="45.38862" lon="4.6064">
        <ele>1353.4</ele>
        <time>1970-01-01T01:46:55.000Z</time>
      </trkpt>
      <trkpt lat="45.3886" lon="4.60635">
        <ele>1354.2</ele>
        <time>1970-01-01T01:46:57.000Z</time>
      </trkpt>
      <trkpt lat="45.3886" lon="4.6063">
        <ele>1354.9</ele>
        <time>1970-01-01T01:46:59.000Z</time>
      </trkpt>
      <trkpt lat="45.38862" lon="4.60625">
        <ele>1355.8</ele>
        <time>1970-01-01T01:47:01.000Z</time>
      </trkpt>
      <trkpt lat="45.38863" lon="4.60622">
        <ele>1356.5</ele>
        <time>1970-01-01T01:47:03.000Z</time>
      </trkpt>
      <trkpt lat="45.38866" lon="4.60618">
        <ele>1357.3</ele>
        <time>1970-01-01T01:47:07.000Z</time>
      </trkpt>
      <trkpt lat="45.38869" lon="4.60616">
        <ele>1358.2</ele>
        <time>1970-01-01T01:47:10.000Z</time>
      </trkpt>
      <trkpt lat="45.38872" lon="4.60613">
        <ele>1358.9</ele>
        <time>1970-01-01T01:47:13.000Z</time>
      </trkpt>
      <trkpt lat="45.38875" lon="4.60613">
        <ele>1359.5</ele>
        <time>1970-01-01T01:47:15.000Z</time>
      </trkpt>
      <trkpt lat="45.38878" lon="4.60613">
        <ele>1360.2</ele>
        <time>1970-01-01T01:47:17.000Z</time>
      </trkpt>
      <trkpt lat="45.38881" lon="4.60614">
        <ele>1360.7</ele>
        <time>1970-01-01T01:47:19.000Z</time>
      </trkpt>
      <trkpt lat="45.38884" lon="4.60615">
        <ele>1361.4</ele>
        <time>1970-01-01T01:47:21.000Z</time>
      </trkpt>
      <trkpt lat="45.38888" lon="4.60615">
        <ele>1362.1</ele>
        <time>1970-01-01T01:47:23.000Z</time>
      </trkpt>
      <trkpt lat="45.38892" lon="4.60614">
        <ele>1362.8</ele>
        <time>1970-01-01T01:47:25.000Z</time>
      </trkpt>
      <trkpt lat="45.38895" lon="4.60613">
        <ele>1363.3</ele>
        <time>1970-01-01T01:47:27.000Z</time>
      </trkpt>
      <trkpt lat="45.38899" lon="4.60612">
        <ele>1364</ele>
        <time>1970-01-01T01:47:29.000Z</time>
      </trkpt>
      <trkpt lat="45.38903" lon="4.60611">
        <ele>1364.6</ele>
        <time>1970-01-01T01:47:31.000Z</time>
      </trkpt>
      <trkpt lat="45.38907" lon="4.6061">
        <ele>1365</ele>
        <time>1970-01-01T01:47:33.000Z</time>
      </trkpt>
      <trkpt lat="45.3891" lon="4.6061">
        <ele>1365.4</ele>
        <time>1970-01-01T01:47:35.000Z</time>
      </trkpt>
      <trkpt lat="45.38914" lon="4.6061">
        <ele>1366.1</ele>
        <time>1970-01-01T01:47:37.000Z</time>
      </trkpt>
      <trkpt lat="45.38917" lon="4.60608">
        <ele>1366.5</ele>
        <time>1970-01-01T01:47:39.000Z</time>
      </trkpt>
      <trkpt lat="45.38921" lon="4.60606">
        <ele>1367.1</ele>
        <time>1970-01-01T01:47:41.000Z</time>
      </trkpt>
      <trkpt lat="45.38924" lon="4.60603">
        <ele>1367.6</ele>
        <time>1970-01-01T01:47:43.000Z</time>
      </trkpt>
      <trkpt lat="45.38928" lon="4.60601">
        <ele>1368.3</ele>
        <time>1970-01-01T01:47:45.000Z</time>
      </trkpt>
      <trkpt lat="45.38932" lon="4.60599">
        <ele>1368.9</ele>
        <time>1970-01-01T01:47:47.000Z</time>
      </trkpt>
      <trkpt lat="45.38936" lon="4.60598">
        <ele>1369.4</ele>
        <time>1970-01-01T01:47:49.000Z</time>
      </trkpt>
      <trkpt lat="45.38939" lon="4.60595">
        <ele>1369.9</ele>
        <time>1970-01-01T01:47:51.000Z</time>
      </trkpt>
      <trkpt lat="45.38943" lon="4.60594">
        <ele>1370.6</ele>
        <time>1970-01-01T01:47:53.000Z</time>
      </trkpt>
      <trkpt lat="45.38946" lon="4.60592">
        <ele>1371.1</ele>
        <time>1970-01-01T01:47:55.000Z</time>
      </trkpt>
      <trkpt lat="45.38949" lon="4.60589">
        <ele>1371.6</ele>
        <time>1970-01-01T01:47:56.000Z</time>
      </trkpt>
      <trkpt lat="45.3895" lon="4.60586">
        <ele>1372.1</ele>
        <time>1970-01-01T01:47:58.000Z</time>
      </trkpt>
      <trkpt lat="45.38955" lon="4.60583">
        <ele>1372.8</ele>
        <time>1970-01-01T01:48:01.000Z</time>
      </trkpt>
      <trkpt lat="45.38958" lon="4.6058">
        <ele>1373.4</ele>
        <time>1970-01-01T01:48:03.000Z</time>
      </trkpt>
      <trkpt lat="45.38961" lon="4.60576">
        <ele>1374.1</ele>
        <time>1970-01-01T01:48:06.000Z</time>
      </trkpt>
      <trkpt lat="45.38964" lon="4.60573">
        <ele>1374.6</ele>
        <time>1970-01-01T01:48:08.000Z</time>
      </trkpt>
      <trkpt lat="45.38967" lon="4.60569">
        <ele>1375.3</ele>
        <time>1970-01-01T01:48:10.000Z</time>
      </trkpt>
      <trkpt lat="45.38971" lon="4.60565">
        <ele>1376</ele>
        <time>1970-01-01T01:48:12.000Z</time>
      </trkpt>
      <trkpt lat="45.38974" lon="4.60562">
        <ele>1376.5</ele>
        <time>1970-01-01T01:48:14.000Z</time>
      </trkpt>
      <trkpt lat="45.38976" lon="4.60557">
        <ele>1377</ele>
        <time>1970-01-01T01:48:16.000Z</time>
      </trkpt>
      <trkpt lat="45.38978" lon="4.60553">
        <ele>1377.5</ele>
        <time>1970-01-01T01:48:18.000Z</time>
      </trkpt>
      <trkpt lat="45.38979" lon="4.60548">
        <ele>1378</ele>
        <time>1970-01-01T01:48:20.000Z</time>
      </trkpt>
      <trkpt lat="45.38983" lon="4.60547">
        <ele>1378.6</ele>
        <time>1970-01-01T01:48:23.000Z</time>
      </trkpt>
      <trkpt lat="45.38985" lon="4.60544">
        <ele>1379.1</ele>
        <time>1970-01-01T01:48:25.000Z</time>
      </trkpt>
      <trkpt lat="45.38986" lon="4.6054">
        <ele>1379.6</ele>
        <time>1970-01-01T01:48:27.000Z</time>
      </trkpt>
      <trkpt lat="45.38988" lon="4.60533">
        <ele>1380.4</ele>
        <time>1970-01-01T01:48:30.000Z</time>
      </trkpt>
      <trkpt lat="45.38987" lon="4.60528">
        <ele>1381</ele>
        <time>1970-01-01T01:48:33.000Z</time>
      </trkpt>
      <trkpt lat="45.38988" lon="4.60524">
        <ele>1381.4</ele>
        <time>1970-01-01T01:48:35.000Z</time>
      </trkpt>
      <trkpt lat="45.38988" lon="4.6052">
        <ele>1381.9</ele>
        <time>1970-01-01T01:48:37.000Z</time>
      </trkpt>
      <trkpt lat="45.38989" lon="4.60515">
        <ele>1382.5</ele>
        <time>1970-01-01T01:48:39.000Z</time>
      </trkpt>
      <trkpt lat="45.38987" lon="4.60511">
        <ele>1383.1</ele>
        <time>1970-01-01T01:48:41.000Z</time>
      </trkpt>
      <trkpt lat="45.38985" lon="4.60505">
        <ele>1384</ele>
        <time>1970-01-01T01:48:43.000Z</time>
      </trkpt>
      <trkpt lat="45.38983" lon="4.605">
        <ele>1384.9</ele>
        <time>1970-01-01T01:48:45.000Z</time>
      </trkpt>
      <trkpt lat="45.38979" lon="4.60498">
        <ele>1385.9</ele>
        <time>1970-01-01T01:48:47.000Z</time>
      </trkpt>
      <trkpt lat="45.38974" lon="4.60498">
        <ele>1384.7</ele>
        <time>1970-01-01T01:48:49.000Z</time>
      </trkpt>
      <trkpt lat="45.3897" lon="4.60498">
        <ele>1383.8</ele>
        <time>1970-01-01T01:48:51.000Z</time>
      </trkpt>
      <trkpt lat="45.38966" lon="4.60497">
        <ele>1383.1</ele>
        <time>1970-01-01T01:48:53.000Z</time>
      </trkpt>
      <trkpt lat="45.38963" lon="4.60497">
        <ele>1382.7</ele>
        <time>1970-01-01T01:48:55.000Z</time>
      </trkpt>
      <trkpt lat="45.38958" lon="4.60497">
        <ele>1382.2</ele>
        <time>1970-01-01T01:48:57.000Z</time>
      </trkpt>
      <trkpt lat="45.38954" lon="4.605">
        <ele>1381.5</ele>
        <time>1970-01-01T01:48:59.000Z</time>
      </trkpt>
      <trkpt lat="45.3895" lon="4.60504">
        <ele>1380.8</ele>
        <time>1970-01-01T01:49:01.000Z</time>
      </trkpt>
      <trkpt lat="45.38945" lon="4.60504">
        <ele>1380.2</ele>
        <time>1970-01-01T01:49:03.000Z</time>
      </trkpt>
      <trkpt lat="45.3894" lon="4.60504">
        <ele>1379.6</ele>
        <time>1970-01-01T01:49:05.000Z</time>
      </trkpt>
      <trkpt lat="45.38936" lon="4.60503">
        <ele>1379.1</ele>
        <time>1970-01-01T01:49:07.000Z</time>
      </trkpt>
      <trkpt lat="45.38933" lon="4.60504">
        <ele>1378.7</ele>
        <time>1970-01-01T01:49:09.000Z</time>
      </trkpt>
      <trkpt lat="45.38929" lon="4.60504">
        <ele>1378.2</ele>
        <time>1970-01-01T01:49:11.000Z</time>
      </trkpt>
      <trkpt lat="45.38925" lon="4.60505">
        <ele>1377.7</ele>
        <time>1970-01-01T01:49:13.000Z</time>
      </trkpt>
      <trkpt lat="45.38921" lon="4.60504">
        <ele>1377.2</ele>
        <time>1970-01-01T01:49:15.000Z</time>
      </trkpt>
      <trkpt lat="45.38917" lon="4.60503">
        <ele>1376.7</ele>
        <time>1970-01-01T01:49:17.000Z</time>
      </trkpt>
      <trkpt lat="45.38914" lon="4.60503">
        <ele>1376.3</ele>
        <time>1970-01-01T01:49:19.000Z</time>
      </trkpt>
      <trkpt lat="45.3891" lon="4.60502">
        <ele>1375.7</ele>
        <time>1970-01-01T01:49:21.000Z</time>
      </trkpt>
      <trkpt lat="45.38905" lon="4.60503">
        <ele>1374.8</ele>
        <time>1970-01-01T01:49:23.000Z</time>
      </trkpt>
      <trkpt lat="45.38902" lon="4.60502">
        <ele>1374.1</ele>
        <time>1970-01-01T01:49:25.000Z</time>
      </trkpt>
      <trkpt lat="45.38898" lon="4.605">
        <ele>1373.4</ele>
        <time>1970-01-01T01:49:27.000Z</time>
      </trkpt>
      <trkpt lat="45.38894" lon="4.60497">
        <ele>1372.5</ele>
        <time>1970-01-01T01:49:29.000Z</time>
      </trkpt>
      <trkpt lat="45.38891" lon="4.60492">
        <ele>1371.6</ele>
        <time>1970-01-01T01:49:31.000Z</time>
      </trkpt>
      <trkpt lat="45.38888" lon="4.60489">
        <ele>1371</ele>
        <time>1970-01-01T01:49:32.000Z</time>
      </trkpt>
      <trkpt lat="45.38886" lon="4.60486">
        <ele>1370.4</ele>
        <time>1970-01-01T01:49:34.000Z</time>
      </trkpt>
      <trkpt lat="45.38884" lon="4.60483">
        <ele>1369.8</ele>
        <time>1970-01-01T01:49:36.000Z</time>
      </trkpt>
      <trkpt lat="45.38881" lon="4.6048">
        <ele>1369</ele>
        <time>1970-01-01T01:49:38.000Z</time>
      </trkpt>
      <trkpt lat="45.38878" lon="4.60476">
        <ele>1368.4</ele>
        <time>1970-01-01T01:49:40.000Z</time>
      </trkpt>
      <trkpt lat="45.38876" lon="4.60472">
        <ele>1367.7</ele>
        <time>1970-01-01T01:49:42.000Z</time>
      </trkpt>
      <trkpt lat="45.38874" lon="4.60468">
        <ele>1367</ele>
        <time>1970-01-01T01:49:44.000Z</time>
      </trkpt>
      <trkpt lat="45.38872" lon="4.60462">
        <ele>1367</ele>
        <time>1970-01-01T01:49:46.000Z</time>
      </trkpt>
      <trkpt lat="45.38871" lon="4.60458">
        <ele>1367</ele>
        <time>1970-01-01T01:49:47.000Z</time>
      </trkpt>
      <trkpt lat="45.3887" lon="4.60454">
        <ele>1367</ele>
        <time>1970-01-01T01:49:49.000Z</time>
      </trkpt>
      <trkpt lat="45.3887" lon="4.60449">
        <ele>1367</ele>
        <time>1970-01-01T01:49:51.000Z</time>
      </trkpt>
      <trkpt lat="45.38869" lon="4.60445">
        <ele>1367</ele>
        <time>1970-01-01T01:49:53.000Z</time>
      </trkpt>
      <trkpt lat="45.38868" lon="4.60441">
        <ele>1367</ele>
        <time>1970-01-01T01:49:55.000Z</time>
      </trkpt>
      <trkpt lat="45.38866" lon="4.60436">
        <ele>1367</ele>
        <time>1970-01-01T01:49:58.000Z</time>
      </trkpt>
      <trkpt lat="45.38867" lon="4.60432">
        <ele>1367</ele>
        <time>1970-01-01T01:50:15.000Z</time>
      </trkpt>
      <trkpt lat="45.38867" lon="4.60427">
        <ele>1367.2</ele>
        <time>1970-01-01T01:50:17.000Z</time>
      </trkpt>
      <trkpt lat="45.38867" lon="4.60422">
        <ele>1367.4</ele>
        <time>1970-01-01T01:50:19.000Z</time>
      </trkpt>
      <trkpt lat="45.38867" lon="4.60417">
        <ele>1367.6</ele>
        <time>1970-01-01T01:50:20.000Z</time>
      </trkpt>
      <trkpt lat="45.38869" lon="4.60411">
        <ele>1367.8</ele>
        <time>1970-01-01T01:50:22.000Z</time>
      </trkpt>
      <trkpt lat="45.3887" lon="4.60405">
        <ele>1368</ele>
        <time>1970-01-01T01:50:24.000Z</time>
      </trkpt>
      <trkpt lat="45.38871" lon="4.60402">
        <ele>1368.2</ele>
        <time>1970-01-01T01:50:25.000Z</time>
      </trkpt>
      <trkpt lat="45.38873" lon="4.60396">
        <ele>1368.4</ele>
        <time>1970-01-01T01:50:27.000Z</time>
      </trkpt>
      <trkpt lat="45.38875" lon="4.60392">
        <ele>1368.6</ele>
        <time>1970-01-01T01:50:29.000Z</time>
      </trkpt>
      <trkpt lat="45.38876" lon="4.60387">
        <ele>1368.8</ele>
        <time>1970-01-01T01:50:32.000Z</time>
      </trkpt>
      <trkpt lat="45.38877" lon="4.60382">
        <ele>1368.9</ele>
        <time>1970-01-01T01:50:34.000Z</time>
      </trkpt>
      <trkpt lat="45.38878" lon="4.60376">
        <ele>1369.1</ele>
        <time>1970-01-01T01:50:37.000Z</time>
      </trkpt>
      <trkpt lat="45.38879" lon="4.60372">
        <ele>1369.2</ele>
        <time>1970-01-01T01:50:47.000Z</time>
      </trkpt>
      <trkpt lat="45.38878" lon="4.60368">
        <ele>1369.3</ele>
        <time>1970-01-01T01:51:33.000Z</time>
      </trkpt>
      <trkpt lat="45.38877" lon="4.6036">
        <ele>1369.3</ele>
        <time>1970-01-01T01:51:35.000Z</time>
      </trkpt>
      <trkpt lat="45.38878" lon="4.60355">
        <ele>1369.4</ele>
        <time>1970-01-01T01:51:36.000Z</time>
      </trkpt>
      <trkpt lat="45.38879" lon="4.60349">
        <ele>1369.4</ele>
        <time>1970-01-01T01:51:37.000Z</time>
      </trkpt>
      <trkpt lat="45.38879" lon="4.60342">
        <ele>1369.3</ele>
        <time>1970-01-01T01:51:38.000Z</time>
      </trkpt>
      <trkpt lat="45.38879" lon="4.60336">
        <ele>1369.1</ele>
        <time>1970-01-01T01:51:39.000Z</time>
      </trkpt>
      <trkpt lat="45.38879" lon="4.60331">
        <ele>1369</ele>
        <time>1970-01-01T01:51:40.000Z</time>
      </trkpt>
      <trkpt lat="45.38879" lon="4.60327">
        <ele>1368.7</ele>
        <time>1970-01-01T01:51:41.000Z</time>
      </trkpt>
      <trkpt lat="45.3888" lon="4.60321">
        <ele>1368.3</ele>
        <time>1970-01-01T01:51:43.000Z</time>
      </trkpt>
      <trkpt lat="45.3888" lon="4.60317">
        <ele>1368.1</ele>
        <time>1970-01-01T01:51:44.000Z</time>
      </trkpt>
      <trkpt lat="45.3888" lon="4.60311">
        <ele>1367.6</ele>
        <time>1970-01-01T01:51:45.000Z</time>
      </trkpt>
      <trkpt lat="45.3888" lon="4.60303">
        <ele>1366.8</ele>
        <time>1970-01-01T01:51:46.000Z</time>
      </trkpt>
      <trkpt lat="45.38882" lon="4.60295">
        <ele>1365.7</ele>
        <time>1970-01-01T01:51:47.000Z</time>
      </trkpt>
      <trkpt lat="45.38882" lon="4.60286">
        <ele>1364.6</ele>
        <time>1970-01-01T01:51:48.000Z</time>
      </trkpt>
      <trkpt lat="45.38882" lon="4.60277">
        <ele>1363.1</ele>
        <time>1970-01-01T01:51:49.000Z</time>
      </trkpt>
      <trkpt lat="45.38883" lon="4.60266">
        <ele>1361.1</ele>
        <time>1970-01-01T01:51:50.000Z</time>
      </trkpt>
      <trkpt lat="45.38884" lon="4.60255">
        <ele>1359.7</ele>
        <time>1970-01-01T01:51:51.000Z</time>
      </trkpt>
      <trkpt lat="45.38885" lon="4.60242">
        <ele>1358.5</ele>
        <time>1970-01-01T01:51:52.000Z</time>
      </trkpt>
      <trkpt lat="45.38886" lon="4.6023">
        <ele>1357.3</ele>
        <time>1970-01-01T01:51:53.000Z</time>
      </trkpt>
      <trkpt lat="45.38887" lon="4.60219">
        <ele>1355.9</ele>
        <time>1970-01-01T01:51:54.000Z</time>
      </trkpt>
      <trkpt lat="45.38888" lon="4.60208">
        <ele>1355.1</ele>
        <time>1970-01-01T01:51:55.000Z</time>
      </trkpt>
      <trkpt lat="45.38888" lon="4.60199">
        <ele>1354.4</ele>
        <time>1970-01-01T01:51:56.000Z</time>
      </trkpt>
      <trkpt lat="45.38888" lon="4.60189">
        <ele>1353.7</ele>
        <time>1970-01-01T01:51:57.000Z</time>
      </trkpt>
      <trkpt lat="45.38888" lon="4.60179">
        <ele>1352.9</ele>
        <time>1970-01-01T01:51:58.000Z</time>
      </trkpt>
      <trkpt lat="45.38889" lon="4.6017">
        <ele>1351.9</ele>
        <time>1970-01-01T01:51:59.000Z</time>
      </trkpt>
      <trkpt lat="45.38889" lon="4.60162">
        <ele>1350.9</ele>
        <time>1970-01-01T01:52:00.000Z</time>
      </trkpt>
      <trkpt lat="45.38889" lon="4.60152">
        <ele>1349.6</ele>
        <time>1970-01-01T01:52:01.000Z</time>
      </trkpt>
      <trkpt lat="45.38888" lon="4.60142">
        <ele>1348.5</ele>
        <time>1970-01-01T01:52:02.000Z</time>
      </trkpt>
      <trkpt lat="45.3889" lon="4.60133">
        <ele>1347.4</ele>
        <time>1970-01-01T01:52:03.000Z</time>
      </trkpt>
      <trkpt lat="45.3889" lon="4.60122">
        <ele>1346.3</ele>
        <time>1970-01-01T01:52:04.000Z</time>
      </trkpt>
      <trkpt lat="45.3889" lon="4.60113">
        <ele>1345.6</ele>
        <time>1970-01-01T01:52:05.000Z</time>
      </trkpt>
      <trkpt lat="45.38889" lon="4.60104">
        <ele>1345</ele>
        <time>1970-01-01T01:52:06.000Z</time>
      </trkpt>
      <trkpt lat="45.38889" lon="4.60098">
        <ele>1344.7</ele>
        <time>1970-01-01T01:52:07.000Z</time>
      </trkpt>
      <trkpt lat="45.38891" lon="4.60093">
        <ele>1344.4</ele>
        <time>1970-01-01T01:52:08.000Z</time>
      </trkpt>
      <trkpt lat="45.38891" lon="4.60088">
        <ele>1344.2</ele>
        <time>1970-01-01T01:52:09.000Z</time>
      </trkpt>
      <trkpt lat="45.38891" lon="4.60081">
        <ele>1343.9</ele>
        <time>1970-01-01T01:52:10.000Z</time>
      </trkpt>
      <trkpt lat="45.3889" lon="4.60076">
        <ele>1343.7</ele>
        <time>1970-01-01T01:52:11.000Z</time>
      </trkpt>
      <trkpt lat="45.3889" lon="4.60071">
        <ele>1343.5</ele>
        <time>1970-01-01T01:52:12.000Z</time>
      </trkpt>
      <trkpt lat="45.3889" lon="4.60065">
        <ele>1343.4</ele>
        <time>1970-01-01T01:52:13.000Z</time>
      </trkpt>
      <trkpt lat="45.3889" lon="4.60059">
        <ele>1343.2</ele>
        <time>1970-01-01T01:52:14.000Z</time>
      </trkpt>
      <trkpt lat="45.38891" lon="4.60052">
        <ele>1343</ele>
        <time>1970-01-01T01:52:15.000Z</time>
      </trkpt>
      <trkpt lat="45.38891" lon="4.60044">
        <ele>1343</ele>
        <time>1970-01-01T01:52:16.000Z</time>
      </trkpt>
      <trkpt lat="45.3889" lon="4.60034">
        <ele>1343</ele>
        <time>1970-01-01T01:52:17.000Z</time>
      </trkpt>
      <trkpt lat="45.38889" lon="4.60024">
        <ele>1343</ele>
        <time>1970-01-01T01:52:18.000Z</time>
      </trkpt>
      <trkpt lat="45.38887" lon="4.60013">
        <ele>1342.8</ele>
        <time>1970-01-01T01:52:19.000Z</time>
      </trkpt>
      <trkpt lat="45.38885" lon="4.60002">
        <ele>1342.4</ele>
        <time>1970-01-01T01:52:20.000Z</time>
      </trkpt>
      <trkpt lat="45.38882" lon="4.5999">
        <ele>1342.2</ele>
        <time>1970-01-01T01:52:21.000Z</time>
      </trkpt>
      <trkpt lat="45.38878" lon="4.59977">
        <ele>1342</ele>
        <time>1970-01-01T01:52:22.000Z</time>
      </trkpt>
      <trkpt lat="45.38874" lon="4.59965">
        <ele>1342.3</ele>
        <time>1970-01-01T01:52:23.000Z</time>
      </trkpt>
      <trkpt lat="45.3887" lon="4.59952">
        <ele>1342.9</ele>
        <time>1970-01-01T01:52:24.000Z</time>
      </trkpt>
      <trkpt lat="45.38867" lon="4.59939">
        <ele>1343.8</ele>
        <time>1970-01-01T01:52:25.000Z</time>
      </trkpt>
      <trkpt lat="45.38863" lon="4.59926">
        <ele>1344.6</ele>
        <time>1970-01-01T01:52:26.000Z</time>
      </trkpt>
      <trkpt lat="45.3886" lon="4.59914">
        <ele>1345.4</ele>
        <time>1970-01-01T01:52:27.000Z</time>
      </trkpt>
      <trkpt lat="45.38857" lon="4.59903">
        <ele>1346.2</ele>
        <time>1970-01-01T01:52:28.000Z</time>
      </trkpt>
      <trkpt lat="45.38853" lon="4.59894">
        <ele>1346.9</ele>
        <time>1970-01-01T01:52:29.000Z</time>
      </trkpt>
      <trkpt lat="45.3885" lon="4.59885">
        <ele>1347</ele>
        <time>1970-01-01T01:52:30.000Z</time>
      </trkpt>
      <trkpt lat="45.38848" lon="4.59876">
        <ele>1347</ele>
        <time>1970-01-01T01:52:31.000Z</time>
      </trkpt>
      <trkpt lat="45.38846" lon="4.59868">
        <ele>1347</ele>
        <time>1970-01-01T01:52:32.000Z</time>
      </trkpt>
      <trkpt lat="45.38845" lon="4.5986">
        <ele>1347</ele>
        <time>1970-01-01T01:52:33.000Z</time>
      </trkpt>
      <trkpt lat="45.38843" lon="4.59853">
        <ele>1347</ele>
        <time>1970-01-01T01:52:34.000Z</time>
      </trkpt>
      <trkpt lat="45.38842" lon="4.59848">
        <ele>1347</ele>
        <time>1970-01-01T01:52:35.000Z</time>
      </trkpt>
      <trkpt lat="45.38842" lon="4.5984">
        <ele>1347.1</ele>
        <time>1970-01-01T01:52:37.000Z</time>
      </trkpt>
      <trkpt lat="45.38842" lon="4.59836">
        <ele>1347.1</ele>
        <time>1970-01-01T01:52:38.000Z</time>
      </trkpt>
      <trkpt lat="45.38843" lon="4.59831">
        <ele>1347.2</ele>
        <time>1970-01-01T01:52:39.000Z</time>
      </trkpt>
      <trkpt lat="45.38843" lon="4.59826">
        <ele>1347.4</ele>
        <time>1970-01-01T01:52:40.000Z</time>
      </trkpt>
      <trkpt lat="45.38844" lon="4.5982">
        <ele>1347.6</ele>
        <time>1970-01-01T01:52:42.000Z</time>
      </trkpt>
      <trkpt lat="45.38844" lon="4.59816">
        <ele>1347.8</ele>
        <time>1970-01-01T01:52:43.000Z</time>
      </trkpt>
      <trkpt lat="45.38845" lon="4.59811">
        <ele>1348.1</ele>
        <time>1970-01-01T01:52:44.000Z</time>
      </trkpt>
      <trkpt lat="45.38846" lon="4.59806">
        <ele>1348.4</ele>
        <time>1970-01-01T01:52:45.000Z</time>
      </trkpt>
      <trkpt lat="45.38847" lon="4.59802">
        <ele>1348.7</ele>
        <time>1970-01-01T01:52:46.000Z</time>
      </trkpt>
      <trkpt lat="45.38847" lon="4.59798">
        <ele>1348.9</ele>
        <time>1970-01-01T01:52:47.000Z</time>
      </trkpt>
      <trkpt lat="45.38847" lon="4.59793">
        <ele>1349.2</ele>
        <time>1970-01-01T01:52:48.000Z</time>
      </trkpt>
      <trkpt lat="45.38848" lon="4.59789">
        <ele>1349.4</ele>
        <time>1970-01-01T01:52:49.000Z</time>
      </trkpt>
      <trkpt lat="45.38848" lon="4.59785">
        <ele>1349.7</ele>
        <time>1970-01-01T01:52:50.000Z</time>
      </trkpt>
      <trkpt lat="45.38848" lon="4.59777">
        <ele>1350.1</ele>
        <time>1970-01-01T01:52:52.000Z</time>
      </trkpt>
      <trkpt lat="45.38848" lon="4.5977">
        <ele>1350.5</ele>
        <time>1970-01-01T01:52:54.000Z</time>
      </trkpt>
      <trkpt lat="45.38849" lon="4.59763">
        <ele>1350.8</ele>
        <time>1970-01-01T01:52:56.000Z</time>
      </trkpt>
      <trkpt lat="45.38849" lon="4.59757">
        <ele>1351.1</ele>
        <time>1970-01-01T01:52:58.000Z</time>
      </trkpt>
      <trkpt lat="45.3885" lon="4.59753">
        <ele>1351.3</ele>
        <time>1970-01-01T01:52:59.000Z</time>
      </trkpt>
      <trkpt lat="45.3885" lon="4.59746">
        <ele>1351.6</ele>
        <time>1970-01-01T01:53:01.000Z</time>
      </trkpt>
      <trkpt lat="45.38849" lon="4.59739">
        <ele>1352</ele>
        <time>1970-01-01T01:53:03.000Z</time>
      </trkpt>
      <trkpt lat="45.3885" lon="4.59733">
        <ele>1352.1</ele>
        <time>1970-01-01T01:53:05.000Z</time>
      </trkpt>
      <trkpt lat="45.38851" lon="4.59726">
        <ele>1352.3</ele>
        <time>1970-01-01T01:53:07.000Z</time>
      </trkpt>
      <trkpt lat="45.38851" lon="4.59722">
        <ele>1352.4</ele>
        <time>1970-01-01T01:53:08.000Z</time>
      </trkpt>
      <trkpt lat="45.3885" lon="4.59715">
        <ele>1352.5</ele>
        <time>1970-01-01T01:53:10.000Z</time>
      </trkpt>
      <trkpt lat="45.38849" lon="4.59709">
        <ele>1352.7</ele>
        <time>1970-01-01T01:53:12.000Z</time>
      </trkpt>
      <trkpt lat="45.38847" lon="4.59704">
        <ele>1353.1</ele>
        <time>1970-01-01T01:53:14.000Z</time>
      </trkpt>
      <trkpt lat="45.38847" lon="4.59699">
        <ele>1353.3</ele>
        <time>1970-01-01T01:53:16.000Z</time>
      </trkpt>
      <trkpt lat="45.38847" lon="4.59692">
        <ele>1353.7</ele>
        <time>1970-01-01T01:53:18.000Z</time>
      </trkpt>
      <trkpt lat="45.38846" lon="4.59685">
        <ele>1354.2</ele>
        <time>1970-01-01T01:53:20.000Z</time>
      </trkpt>
      <trkpt lat="45.38845" lon="4.59679">
        <ele>1354.4</ele>
        <time>1970-01-01T01:53:22.000Z</time>
      </trkpt>
      <trkpt lat="45.38844" lon="4.59673">
        <ele>1354.5</ele>
        <time>1970-01-01T01:53:24.000Z</time>
      </trkpt>
      <trkpt lat="45.38844" lon="4.59668">
        <ele>1354.6</ele>
        <time>1970-01-01T01:53:25.000Z</time>
      </trkpt>
      <trkpt lat="45.38845" lon="4.59664">
        <ele>1354.8</ele>
        <time>1970-01-01T01:53:26.000Z</time>
      </trkpt>
      <trkpt lat="45.38845" lon="4.59659">
        <ele>1354.9</ele>
        <time>1970-01-01T01:53:27.000Z</time>
      </trkpt>
      <trkpt lat="45.38845" lon="4.59651">
        <ele>1355.1</ele>
        <time>1970-01-01T01:53:29.000Z</time>
      </trkpt>
      <trkpt lat="45.38845" lon="4.59647">
        <ele>1355.3</ele>
        <time>1970-01-01T01:53:30.000Z</time>
      </trkpt>
      <trkpt lat="45.38845" lon="4.59642">
        <ele>1355.5</ele>
        <time>1970-01-01T01:53:31.000Z</time>
      </trkpt>
      <trkpt lat="45.38845" lon="4.59636">
        <ele>1355.8</ele>
        <time>1970-01-01T01:53:33.000Z</time>
      </trkpt>
      <trkpt lat="45.38844" lon="4.59629">
        <ele>1356</ele>
        <time>1970-01-01T01:53:35.000Z</time>
      </trkpt>
      <trkpt lat="45.38844" lon="4.59624">
        <ele>1356.3</ele>
        <time>1970-01-01T01:53:36.000Z</time>
      </trkpt>
      <trkpt lat="45.38843" lon="4.59618">
        <ele>1356.5</ele>
        <time>1970-01-01T01:53:38.000Z</time>
      </trkpt>
      <trkpt lat="45.38843" lon="4.59614">
        <ele>1356.6</ele>
        <time>1970-01-01T01:53:39.000Z</time>
      </trkpt>
      <trkpt lat="45.38844" lon="4.59609">
        <ele>1356.8</ele>
        <time>1970-01-01T01:53:40.000Z</time>
      </trkpt>
      <trkpt lat="45.38843" lon="4.59604">
        <ele>1356.9</ele>
        <time>1970-01-01T01:53:42.000Z</time>
      </trkpt>
      <trkpt lat="45.38841" lon="4.59599">
        <ele>1357.2</ele>
        <time>1970-01-01T01:53:44.000Z</time>
      </trkpt>
      <trkpt lat="45.38838" lon="4.59593">
        <ele>1357.6</ele>
        <time>1970-01-01T01:53:46.000Z</time>
      </trkpt>
      <trkpt lat="45.38837" lon="4.59588">
        <ele>1357.8</ele>
        <time>1970-01-01T01:53:48.000Z</time>
      </trkpt>
      <trkpt lat="45.38837" lon="4.59581">
        <ele>1358.2</ele>
        <time>1970-01-01T01:53:50.000Z</time>
      </trkpt>
      <trkpt lat="45.38837" lon="4.59576">
        <ele>1358.4</ele>
        <time>1970-01-01T01:53:52.000Z</time>
      </trkpt>
      <trkpt lat="45.38836" lon="4.5957">
        <ele>1358.5</ele>
        <time>1970-01-01T01:53:54.000Z</time>
      </trkpt>
      <trkpt lat="45.38834" lon="4.59564">
        <ele>1358.7</ele>
        <time>1970-01-01T01:53:56.000Z</time>
      </trkpt>
      <trkpt lat="45.38833" lon="4.5956">
        <ele>1358.8</ele>
        <time>1970-01-01T01:53:58.000Z</time>
      </trkpt>
      <trkpt lat="45.38833" lon="4.59553">
        <ele>1359.1</ele>
        <time>1970-01-01T01:54:00.000Z</time>
      </trkpt>
      <trkpt lat="45.38832" lon="4.59547">
        <ele>1359.3</ele>
        <time>1970-01-01T01:54:02.000Z</time>
      </trkpt>
      <trkpt lat="45.38831" lon="4.5954">
        <ele>1359.6</ele>
        <time>1970-01-01T01:54:04.000Z</time>
      </trkpt>
      <trkpt lat="45.38831" lon="4.59532">
        <ele>1360</ele>
        <time>1970-01-01T01:54:06.000Z</time>
      </trkpt>
      <trkpt lat="45.38831" lon="4.59527">
        <ele>1360.4</ele>
        <time>1970-01-01T01:54:08.000Z</time>
      </trkpt>
      <trkpt lat="45.38832" lon="4.59521">
        <ele>1360.7</ele>
        <time>1970-01-01T01:54:10.000Z</time>
      </trkpt>
      <trkpt lat="45.38832" lon="4.59516">
        <ele>1361</ele>
        <time>1970-01-01T01:54:12.000Z</time>
      </trkpt>
      <trkpt lat="45.38832" lon="4.59509">
        <ele>1361.3</ele>
        <time>1970-01-01T01:54:14.000Z</time>
      </trkpt>
      <trkpt lat="45.38831" lon="4.59504">
        <ele>1361.5</ele>
        <time>1970-01-01T01:54:16.000Z</time>
      </trkpt>
      <trkpt lat="45.3883" lon="4.59496">
        <ele>1361.9</ele>
        <time>1970-01-01T01:54:18.000Z</time>
      </trkpt>
      <trkpt lat="45.3883" lon="4.59492">
        <ele>1362</ele>
        <time>1970-01-01T01:54:19.000Z</time>
      </trkpt>
      <trkpt lat="45.38829" lon="4.59485">
        <ele>1362.2</ele>
        <time>1970-01-01T01:54:21.000Z</time>
      </trkpt>
      <trkpt lat="45.38827" lon="4.5948">
        <ele>1362.4</ele>
        <time>1970-01-01T01:54:23.000Z</time>
      </trkpt>
      <trkpt lat="45.38826" lon="4.59473">
        <ele>1362.6</ele>
        <time>1970-01-01T01:54:25.000Z</time>
      </trkpt>
      <trkpt lat="45.38825" lon="4.59469">
        <ele>1362.8</ele>
        <time>1970-01-01T01:54:26.000Z</time>
      </trkpt>
      <trkpt lat="45.38823" lon="4.59465">
        <ele>1363</ele>
        <time>1970-01-01T01:54:27.000Z</time>
      </trkpt>
      <trkpt lat="45.38821" lon="4.59458">
        <ele>1363.3</ele>
        <time>1970-01-01T01:54:29.000Z</time>
      </trkpt>
      <trkpt lat="45.3882" lon="4.59454">
        <ele>1363.5</ele>
        <time>1970-01-01T01:54:30.000Z</time>
      </trkpt>
      <trkpt lat="45.38818" lon="4.59449">
        <ele>1363.7</ele>
        <time>1970-01-01T01:54:32.000Z</time>
      </trkpt>
      <trkpt lat="45.38815" lon="4.59444">
        <ele>1363.9</ele>
        <time>1970-01-01T01:54:34.000Z</time>
      </trkpt>
      <trkpt lat="45.38812" lon="4.59442">
        <ele>1364</ele>
        <time>1970-01-01T01:54:36.000Z</time>
      </trkpt>
      <trkpt lat="45.38809" lon="4.5944">
        <ele>1364.1</ele>
        <time>1970-01-01T01:54:38.000Z</time>
      </trkpt>
      <trkpt lat="45.38805" lon="4.59435">
        <ele>1364.3</ele>
        <time>1970-01-01T01:54:40.000Z</time>
      </trkpt>
      <trkpt lat="45.38802" lon="4.5943">
        <ele>1364.5</ele>
        <time>1970-01-01T01:54:42.000Z</time>
      </trkpt>
      <trkpt lat="45.388" lon="4.59424">
        <ele>1364.6</ele>
        <time>1970-01-01T01:54:44.000Z</time>
      </trkpt>
      <trkpt lat="45.38797" lon="4.59421">
        <ele>1364.8</ele>
        <time>1970-01-01T01:54:46.000Z</time>
      </trkpt>
      <trkpt lat="45.38793" lon="4.59417">
        <ele>1365</ele>
        <time>1970-01-01T01:54:48.000Z</time>
      </trkpt>
      <trkpt lat="45.38789" lon="4.59413">
        <ele>1365.3</ele>
        <time>1970-01-01T01:54:50.000Z</time>
      </trkpt>
      <trkpt lat="45.38787" lon="4.5941">
        <ele>1365.6</ele>
        <time>1970-01-01T01:54:52.000Z</time>
      </trkpt>
      <trkpt lat="45.38783" lon="4.59407">
        <ele>1366</ele>
        <time>1970-01-01T01:54:54.000Z</time>
      </trkpt>
      <trkpt lat="45.38778" lon="4.59404">
        <ele>1366.4</ele>
        <time>1970-01-01T01:54:56.000Z</time>
      </trkpt>
      <trkpt lat="45.38775" lon="4.59403">
        <ele>1366.5</ele>
        <time>1970-01-01T01:54:57.000Z</time>
      </trkpt>
      <trkpt lat="45.38772" lon="4.594">
        <ele>1366.7</ele>
        <time>1970-01-01T01:54:59.000Z</time>
      </trkpt>
      <trkpt lat="45.38769" lon="4.59399">
        <ele>1366.8</ele>
        <time>1970-01-01T01:55:00.000Z</time>
      </trkpt>
      <trkpt lat="45.38766" lon="4.59396">
        <ele>1367</ele>
        <time>1970-01-01T01:55:02.000Z</time>
      </trkpt>
      <trkpt lat="45.38763" lon="4.59394">
        <ele>1367.3</ele>
        <time>1970-01-01T01:55:04.000Z</time>
      </trkpt>
      <trkpt lat="45.38761" lon="4.59391">
        <ele>1367.7</ele>
        <time>1970-01-01T01:55:06.000Z</time>
      </trkpt>
      <trkpt lat="45.38756" lon="4.59388">
        <ele>1368.2</ele>
        <time>1970-01-01T01:55:08.000Z</time>
      </trkpt>
      <trkpt lat="45.38752" lon="4.59387">
        <ele>1368.5</ele>
        <time>1970-01-01T01:55:10.000Z</time>
      </trkpt>
      <trkpt lat="45.38748" lon="4.59385">
        <ele>1368.9</ele>
        <time>1970-01-01T01:55:12.000Z</time>
      </trkpt>
      <trkpt lat="45.38744" lon="4.59384">
        <ele>1369.4</ele>
        <time>1970-01-01T01:55:14.000Z</time>
      </trkpt>
      <trkpt lat="45.38741" lon="4.59383">
        <ele>1369.8</ele>
        <time>1970-01-01T01:55:15.000Z</time>
      </trkpt>
      <trkpt lat="45.38737" lon="4.59383">
        <ele>1370.2</ele>
        <time>1970-01-01T01:55:16.000Z</time>
      </trkpt>
      <trkpt lat="45.38734" lon="4.59382">
        <ele>1370.7</ele>
        <time>1970-01-01T01:55:17.000Z</time>
      </trkpt>
      <trkpt lat="45.38729" lon="4.59382">
        <ele>1371.3</ele>
        <time>1970-01-01T01:55:19.000Z</time>
      </trkpt>
      <trkpt lat="45.38723" lon="4.59383">
        <ele>1371.9</ele>
        <time>1970-01-01T01:55:21.000Z</time>
      </trkpt>
      <trkpt lat="45.38718" lon="4.59384">
        <ele>1372.3</ele>
        <time>1970-01-01T01:55:23.000Z</time>
      </trkpt>
      <trkpt lat="45.38715" lon="4.59384">
        <ele>1372.6</ele>
        <time>1970-01-01T01:55:24.000Z</time>
      </trkpt>
      <trkpt lat="45.3871" lon="4.59383">
        <ele>1373.2</ele>
        <time>1970-01-01T01:55:26.000Z</time>
      </trkpt>
      <trkpt lat="45.38704" lon="4.59382">
        <ele>1373.9</ele>
        <time>1970-01-01T01:55:28.000Z</time>
      </trkpt>
      <trkpt lat="45.38699" lon="4.59381">
        <ele>1374.1</ele>
        <time>1970-01-01T01:55:30.000Z</time>
      </trkpt>
      <trkpt lat="45.38694" lon="4.59379">
        <ele>1374.3</ele>
        <time>1970-01-01T01:55:32.000Z</time>
      </trkpt>
      <trkpt lat="45.38689" lon="4.59377">
        <ele>1374.5</ele>
        <time>1970-01-01T01:55:34.000Z</time>
      </trkpt>
      <trkpt lat="45.38686" lon="4.59375">
        <ele>1374.6</ele>
        <time>1970-01-01T01:55:35.000Z</time>
      </trkpt>
      <trkpt lat="45.38683" lon="4.59374">
        <ele>1374.6</ele>
        <time>1970-01-01T01:55:36.000Z</time>
      </trkpt>
      <trkpt lat="45.38681" lon="4.59372">
        <ele>1374.7</ele>
        <time>1970-01-01T01:55:37.000Z</time>
      </trkpt>
      <trkpt lat="45.38678" lon="4.59371">
        <ele>1374.7</ele>
        <time>1970-01-01T01:55:38.000Z</time>
      </trkpt>
      <trkpt lat="45.38675" lon="4.59369">
        <ele>1374.8</ele>
        <time>1970-01-01T01:55:39.000Z</time>
      </trkpt>
      <trkpt lat="45.38671" lon="4.59364">
        <ele>1374.9</ele>
        <time>1970-01-01T01:55:41.000Z</time>
      </trkpt>
      <trkpt lat="45.38668" lon="4.59361">
        <ele>1374.9</ele>
        <time>1970-01-01T01:55:42.000Z</time>
      </trkpt>
      <trkpt lat="45.38666" lon="4.59357">
        <ele>1374.9</ele>
        <time>1970-01-01T01:55:43.000Z</time>
      </trkpt>
      <trkpt lat="45.38663" lon="4.59351">
        <ele>1375</ele>
        <time>1970-01-01T01:55:45.000Z</time>
      </trkpt>
      <trkpt lat="45.38661" lon="4.59344">
        <ele>1375.6</ele>
        <time>1970-01-01T01:55:47.000Z</time>
      </trkpt>
      <trkpt lat="45.3866" lon="4.5934">
        <ele>1376.3</ele>
        <time>1970-01-01T01:55:48.000Z</time>
      </trkpt>
      <trkpt lat="45.3866" lon="4.59336">
        <ele>1376.8</ele>
        <time>1970-01-01T01:55:49.000Z</time>
      </trkpt>
      <trkpt lat="45.3866" lon="4.5933">
        <ele>1377.4</ele>
        <time>1970-01-01T01:55:51.000Z</time>
      </trkpt>
      <trkpt lat="45.3866" lon="4.59324">
        <ele>1378.1</ele>
        <time>1970-01-01T01:55:53.000Z</time>
      </trkpt>
      <trkpt lat="45.38661" lon="4.59318">
        <ele>1378.6</ele>
        <time>1970-01-01T01:55:55.000Z</time>
      </trkpt>
      <trkpt lat="45.38662" lon="4.59312">
        <ele>1379.1</ele>
        <time>1970-01-01T01:55:57.000Z</time>
      </trkpt>
      <trkpt lat="45.38664" lon="4.59306">
        <ele>1379.7</ele>
        <time>1970-01-01T01:55:59.000Z</time>
      </trkpt>
      <trkpt lat="45.38666" lon="4.59299">
        <ele>1380.3</ele>
        <time>1970-01-01T01:56:01.000Z</time>
      </trkpt>
      <trkpt lat="45.38667" lon="4.59295">
        <ele>1380.8</ele>
        <time>1970-01-01T01:56:03.000Z</time>
      </trkpt>
      <trkpt lat="45.38669" lon="4.59289">
        <ele>1381.4</ele>
        <time>1970-01-01T01:56:05.000Z</time>
      </trkpt>
      <trkpt lat="45.3867" lon="4.59283">
        <ele>1382</ele>
        <time>1970-01-01T01:56:07.000Z</time>
      </trkpt>
      <trkpt lat="45.38669" lon="4.59277">
        <ele>1382.4</ele>
        <time>1970-01-01T01:56:09.000Z</time>
      </trkpt>
      <trkpt lat="45.38669" lon="4.59272">
        <ele>1382.7</ele>
        <time>1970-01-01T01:56:11.000Z</time>
      </trkpt>
      <trkpt lat="45.3867" lon="4.59264">
        <ele>1383.1</ele>
        <time>1970-01-01T01:56:13.000Z</time>
      </trkpt>
      <trkpt lat="45.38668" lon="4.59258">
        <ele>1383.2</ele>
        <time>1970-01-01T01:56:15.000Z</time>
      </trkpt>
      <trkpt lat="45.38667" lon="4.59253">
        <ele>1383.4</ele>
        <time>1970-01-01T01:56:17.000Z</time>
      </trkpt>
      <trkpt lat="45.38664" lon="4.59248">
        <ele>1383.7</ele>
        <time>1970-01-01T01:56:19.000Z</time>
      </trkpt>
      <trkpt lat="45.38662" lon="4.59244">
        <ele>1384</ele>
        <time>1970-01-01T01:56:21.000Z</time>
      </trkpt>
      <trkpt lat="45.3866" lon="4.59237">
        <ele>1384.4</ele>
        <time>1970-01-01T01:56:23.000Z</time>
      </trkpt>
      <trkpt lat="45.38658" lon="4.59234">
        <ele>1384.6</ele>
        <time>1970-01-01T01:56:24.000Z</time>
      </trkpt>
      <trkpt lat="45.38656" lon="4.5923">
        <ele>1384.9</ele>
        <time>1970-01-01T01:56:25.000Z</time>
      </trkpt>
      <trkpt lat="45.38654" lon="4.59223">
        <ele>1385.2</ele>
        <time>1970-01-01T01:56:27.000Z</time>
      </trkpt>
      <trkpt lat="45.38651" lon="4.59218">
        <ele>1385.4</ele>
        <time>1970-01-01T01:56:29.000Z</time>
      </trkpt>
      <trkpt lat="45.38649" lon="4.59212">
        <ele>1385.5</ele>
        <time>1970-01-01T01:56:31.000Z</time>
      </trkpt>
      <trkpt lat="45.38645" lon="4.59206">
        <ele>1385.4</ele>
        <time>1970-01-01T01:56:33.000Z</time>
      </trkpt>
      <trkpt lat="45.38644" lon="4.59203">
        <ele>1385.3</ele>
        <time>1970-01-01T01:56:34.000Z</time>
      </trkpt>
      <trkpt lat="45.38641" lon="4.59197">
        <ele>1385.1</ele>
        <time>1970-01-01T01:56:36.000Z</time>
      </trkpt>
      <trkpt lat="45.38639" lon="4.59194">
        <ele>1384.9</ele>
        <time>1970-01-01T01:56:37.000Z</time>
      </trkpt>
      <trkpt lat="45.38635" lon="4.59189">
        <ele>1384.6</ele>
        <time>1970-01-01T01:56:39.000Z</time>
      </trkpt>
      <trkpt lat="45.38632" lon="4.59184">
        <ele>1384.3</ele>
        <time>1970-01-01T01:56:41.000Z</time>
      </trkpt>
      <trkpt lat="45.38628" lon="4.59177">
        <ele>1383.7</ele>
        <time>1970-01-01T01:56:43.000Z</time>
      </trkpt>
      <trkpt lat="45.38625" lon="4.5917">
        <ele>1383.2</ele>
        <time>1970-01-01T01:56:45.000Z</time>
      </trkpt>
      <trkpt lat="45.38623" lon="4.59167">
        <ele>1382.9</ele>
        <time>1970-01-01T01:56:46.000Z</time>
      </trkpt>
      <trkpt lat="45.3862" lon="4.59162">
        <ele>1382.6</ele>
        <time>1970-01-01T01:56:47.000Z</time>
      </trkpt>
      <trkpt lat="45.38618" lon="4.59158">
        <ele>1382.3</ele>
        <time>1970-01-01T01:56:48.000Z</time>
      </trkpt>
      <trkpt lat="45.38615" lon="4.59153">
        <ele>1382</ele>
        <time>1970-01-01T01:56:49.000Z</time>
      </trkpt>
      <trkpt lat="45.38613" lon="4.59148">
        <ele>1381.7</ele>
        <time>1970-01-01T01:56:50.000Z</time>
      </trkpt>
      <trkpt lat="45.3861" lon="4.59143">
        <ele>1381.5</ele>
        <time>1970-01-01T01:56:51.000Z</time>
      </trkpt>
      <trkpt lat="45.38608" lon="4.59138">
        <ele>1381.3</ele>
        <time>1970-01-01T01:56:52.000Z</time>
      </trkpt>
      <trkpt lat="45.38606" lon="4.59132">
        <ele>1381.4</ele>
        <time>1970-01-01T01:56:53.000Z</time>
      </trkpt>
      <trkpt lat="45.38603" lon="4.59127">
        <ele>1381.4</ele>
        <time>1970-01-01T01:56:54.000Z</time>
      </trkpt>
      <trkpt lat="45.38601" lon="4.59122">
        <ele>1381.5</ele>
        <time>1970-01-01T01:56:55.000Z</time>
      </trkpt>
      <trkpt lat="45.38599" lon="4.59116">
        <ele>1381.7</ele>
        <time>1970-01-01T01:56:56.000Z</time>
      </trkpt>
      <trkpt lat="45.38597" lon="4.5911">
        <ele>1381.9</ele>
        <time>1970-01-01T01:56:57.000Z</time>
      </trkpt>
      <trkpt lat="45.38596" lon="4.59105">
        <ele>1382.1</ele>
        <time>1970-01-01T01:56:58.000Z</time>
      </trkpt>
      <trkpt lat="45.38594" lon="4.59099">
        <ele>1382.2</ele>
        <time>1970-01-01T01:56:59.000Z</time>
      </trkpt>
      <trkpt lat="45.38593" lon="4.59094">
        <ele>1382.4</ele>
        <time>1970-01-01T01:57:00.000Z</time>
      </trkpt>
      <trkpt lat="45.38592" lon="4.59088">
        <ele>1382.4</ele>
        <time>1970-01-01T01:57:01.000Z</time>
      </trkpt>
      <trkpt lat="45.3859" lon="4.59082">
        <ele>1382.5</ele>
        <time>1970-01-01T01:57:02.000Z</time>
      </trkpt>
      <trkpt lat="45.38589" lon="4.59077">
        <ele>1382.4</ele>
        <time>1970-01-01T01:57:03.000Z</time>
      </trkpt>
      <trkpt lat="45.38587" lon="4.59071">
        <ele>1382.3</ele>
        <time>1970-01-01T01:57:04.000Z</time>
      </trkpt>
      <trkpt lat="45.38586" lon="4.59065">
        <ele>1382.2</ele>
        <time>1970-01-01T01:57:05.000Z</time>
      </trkpt>
      <trkpt lat="45.38585" lon="4.5906">
        <ele>1381.9</ele>
        <time>1970-01-01T01:57:06.000Z</time>
      </trkpt>
      <trkpt lat="45.38583" lon="4.59054">
        <ele>1381.6</ele>
        <time>1970-01-01T01:57:07.000Z</time>
      </trkpt>
      <trkpt lat="45.38582" lon="4.59048">
        <ele>1381.2</ele>
        <time>1970-01-01T01:57:08.000Z</time>
      </trkpt>
      <trkpt lat="45.3858" lon="4.59041">
        <ele>1380.8</ele>
        <time>1970-01-01T01:57:09.000Z</time>
      </trkpt>
      <trkpt lat="45.38579" lon="4.59035">
        <ele>1380.4</ele>
        <time>1970-01-01T01:57:10.000Z</time>
      </trkpt>
      <trkpt lat="45.38577" lon="4.59029">
        <ele>1379.8</ele>
        <time>1970-01-01T01:57:11.000Z</time>
      </trkpt>
      <trkpt lat="45.38576" lon="4.59023">
        <ele>1379.3</ele>
        <time>1970-01-01T01:57:12.000Z</time>
      </trkpt>
      <trkpt lat="45.38575" lon="4.59017">
        <ele>1378.9</ele>
        <time>1970-01-01T01:57:13.000Z</time>
      </trkpt>
      <trkpt lat="45.38574" lon="4.59011">
        <ele>1378.5</ele>
        <time>1970-01-01T01:57:14.000Z</time>
      </trkpt>
      <trkpt lat="45.38573" lon="4.59005">
        <ele>1377.6</ele>
        <time>1970-01-01T01:57:15.000Z</time>
      </trkpt>
      <trkpt lat="45.38572" lon="4.58998">
        <ele>1376.9</ele>
        <time>1970-01-01T01:57:16.000Z</time>
      </trkpt>
      <trkpt lat="45.3857" lon="4.58992">
        <ele>1376.2</ele>
        <time>1970-01-01T01:57:17.000Z</time>
      </trkpt>
      <trkpt lat="45.38569" lon="4.58986">
        <ele>1375.6</ele>
        <time>1970-01-01T01:57:18.000Z</time>
      </trkpt>
      <trkpt lat="45.38568" lon="4.5898">
        <ele>1374.8</ele>
        <time>1970-01-01T01:57:19.000Z</time>
      </trkpt>
      <trkpt lat="45.38566" lon="4.58974">
        <ele>1374.1</ele>
        <time>1970-01-01T01:57:20.000Z</time>
      </trkpt>
      <trkpt lat="45.38565" lon="4.58968">
        <ele>1373.6</ele>
        <time>1970-01-01T01:57:21.000Z</time>
      </trkpt>
      <trkpt lat="45.38563" lon="4.58962">
        <ele>1373</ele>
        <time>1970-01-01T01:57:22.000Z</time>
      </trkpt>
      <trkpt lat="45.38561" lon="4.58957">
        <ele>1372.5</ele>
        <time>1970-01-01T01:57:23.000Z</time>
      </trkpt>
      <trkpt lat="45.38559" lon="4.58951">
        <ele>1371.9</ele>
        <time>1970-01-01T01:57:24.000Z</time>
      </trkpt>
      <trkpt lat="45.38558" lon="4.58947">
        <ele>1371.5</ele>
        <time>1970-01-01T01:57:25.000Z</time>
      </trkpt>
      <trkpt lat="45.38556" lon="4.58941">
        <ele>1370.7</ele>
        <time>1970-01-01T01:57:26.000Z</time>
      </trkpt>
      <trkpt lat="45.38554" lon="4.58935">
        <ele>1370.2</ele>
        <time>1970-01-01T01:57:27.000Z</time>
      </trkpt>
      <trkpt lat="45.38551" lon="4.58931">
        <ele>1369.7</ele>
        <time>1970-01-01T01:57:28.000Z</time>
      </trkpt>
      <trkpt lat="45.38549" lon="4.58926">
        <ele>1369.2</ele>
        <time>1970-01-01T01:57:29.000Z</time>
      </trkpt>
      <trkpt lat="45.38547" lon="4.5892">
        <ele>1368.5</ele>
        <time>1970-01-01T01:57:30.000Z</time>
      </trkpt>
      <trkpt lat="45.38545" lon="4.58912">
        <ele>1368.2</ele>
        <time>1970-01-01T01:57:31.000Z</time>
      </trkpt>
      <trkpt lat="45.38542" lon="4.58904">
        <ele>1368</ele>
        <time>1970-01-01T01:57:32.000Z</time>
      </trkpt>
      <trkpt lat="45.3854" lon="4.58895">
        <ele>1367.7</ele>
        <time>1970-01-01T01:57:33.000Z</time>
      </trkpt>
      <trkpt lat="45.38538" lon="4.58886">
        <ele>1367.5</ele>
        <time>1970-01-01T01:57:34.000Z</time>
      </trkpt>
      <trkpt lat="45.38535" lon="4.58877">
        <ele>1367.3</ele>
        <time>1970-01-01T01:57:35.000Z</time>
      </trkpt>
      <trkpt lat="45.38532" lon="4.58867">
        <ele>1367.1</ele>
        <time>1970-01-01T01:57:36.000Z</time>
      </trkpt>
      <trkpt lat="45.38529" lon="4.58857">
        <ele>1367</ele>
        <time>1970-01-01T01:57:37.000Z</time>
      </trkpt>
      <trkpt lat="45.38526" lon="4.58846">
        <ele>1367</ele>
        <time>1970-01-01T01:57:38.000Z</time>
      </trkpt>
      <trkpt lat="45.38522" lon="4.58835">
        <ele>1367</ele>
        <time>1970-01-01T01:57:39.000Z</time>
      </trkpt>
      <trkpt lat="45.38518" lon="4.58825">
        <ele>1366.9</ele>
        <time>1970-01-01T01:57:40.000Z</time>
      </trkpt>
      <trkpt lat="45.38514" lon="4.58815">
        <ele>1366.8</ele>
        <time>1970-01-01T01:57:41.000Z</time>
      </trkpt>
      <trkpt lat="45.38511" lon="4.58805">
        <ele>1366.6</ele>
        <time>1970-01-01T01:57:42.000Z</time>
      </trkpt>
      <trkpt lat="45.3851" lon="4.58794">
        <ele>1365.9</ele>
        <time>1970-01-01T01:57:43.000Z</time>
      </trkpt>
      <trkpt lat="45.38507" lon="4.58784">
        <ele>1365.3</ele>
        <time>1970-01-01T01:57:44.000Z</time>
      </trkpt>
      <trkpt lat="45.38504" lon="4.58775">
        <ele>1364.5</ele>
        <time>1970-01-01T01:57:45.000Z</time>
      </trkpt>
      <trkpt lat="45.38502" lon="4.58765">
        <ele>1363.7</ele>
        <time>1970-01-01T01:57:46.000Z</time>
      </trkpt>
      <trkpt lat="45.38498" lon="4.58756">
        <ele>1363.2</ele>
        <time>1970-01-01T01:57:47.000Z</time>
      </trkpt>
      <trkpt lat="45.38493" lon="4.58748">
        <ele>1363.2</ele>
        <time>1970-01-01T01:57:48.000Z</time>
      </trkpt>
      <trkpt lat="45.38487" lon="4.5874">
        <ele>1364.2</ele>
        <time>1970-01-01T01:57:49.000Z</time>
      </trkpt>
      <trkpt lat="45.38482" lon="4.58734">
        <ele>1364.7</ele>
        <time>1970-01-01T01:57:50.000Z</time>
      </trkpt>
      <trkpt lat="45.38476" lon="4.58728">
        <ele>1364.8</ele>
        <time>1970-01-01T01:57:51.000Z</time>
      </trkpt>
      <trkpt lat="45.38469" lon="4.58722">
        <ele>1364.9</ele>
        <time>1970-01-01T01:57:52.000Z</time>
      </trkpt>
      <trkpt lat="45.38462" lon="4.58718">
        <ele>1364.9</ele>
        <time>1970-01-01T01:57:53.000Z</time>
      </trkpt>
      <trkpt lat="45.38456" lon="4.58712">
        <ele>1365</ele>
        <time>1970-01-01T01:57:54.000Z</time>
      </trkpt>
      <trkpt lat="45.3845" lon="4.58705">
        <ele>1365</ele>
        <time>1970-01-01T01:57:55.000Z</time>
      </trkpt>
      <trkpt lat="45.38447" lon="4.58694">
        <ele>1365.1</ele>
        <time>1970-01-01T01:57:56.000Z</time>
      </trkpt>
      <trkpt lat="45.3845" lon="4.58686">
        <ele>1365.4</ele>
        <time>1970-01-01T01:57:57.000Z</time>
      </trkpt>
      <trkpt lat="45.38453" lon="4.58679">
        <ele>1365.6</ele>
        <time>1970-01-01T01:57:58.000Z</time>
      </trkpt>
      <trkpt lat="45.38454" lon="4.58671">
        <ele>1365.9</ele>
        <time>1970-01-01T01:57:59.000Z</time>
      </trkpt>
      <trkpt lat="45.38454" lon="4.58664">
        <ele>1366.1</ele>
        <time>1970-01-01T01:58:00.000Z</time>
      </trkpt>
      <trkpt lat="45.38456" lon="4.58659">
        <ele>1366.2</ele>
        <time>1970-01-01T01:58:01.000Z</time>
      </trkpt>
      <trkpt lat="45.38458" lon="4.58653">
        <ele>1366.3</ele>
        <time>1970-01-01T01:58:02.000Z</time>
      </trkpt>
      <trkpt lat="45.3846" lon="4.58647">
        <ele>1366.4</ele>
        <time>1970-01-01T01:58:03.000Z</time>
      </trkpt>
      <trkpt lat="45.38459" lon="4.58641">
        <ele>1366.6</ele>
        <time>1970-01-01T01:58:04.000Z</time>
      </trkpt>
      <trkpt lat="45.38458" lon="4.58635">
        <ele>1366.8</ele>
        <time>1970-01-01T01:58:05.000Z</time>
      </trkpt>
      <trkpt lat="45.38457" lon="4.58629">
        <ele>1366.9</ele>
        <time>1970-01-01T01:58:06.000Z</time>
      </trkpt>
      <trkpt lat="45.38455" lon="4.58624">
        <ele>1367</ele>
        <time>1970-01-01T01:58:07.000Z</time>
      </trkpt>
      <trkpt lat="45.38455" lon="4.5862">
        <ele>1367.1</ele>
        <time>1970-01-01T01:58:08.000Z</time>
      </trkpt>
      <trkpt lat="45.38455" lon="4.58614">
        <ele>1367.3</ele>
        <time>1970-01-01T01:58:09.000Z</time>
      </trkpt>
      <trkpt lat="45.38454" lon="4.5861">
        <ele>1367.4</ele>
        <time>1970-01-01T01:58:10.000Z</time>
      </trkpt>
      <trkpt lat="45.38453" lon="4.58605">
        <ele>1367.4</ele>
        <time>1970-01-01T01:58:11.000Z</time>
      </trkpt>
      <trkpt lat="45.38452" lon="4.58598">
        <ele>1367.6</ele>
        <time>1970-01-01T01:58:12.000Z</time>
      </trkpt>
      <trkpt lat="45.3845" lon="4.58592">
        <ele>1367.7</ele>
        <time>1970-01-01T01:58:13.000Z</time>
      </trkpt>
      <trkpt lat="45.38447" lon="4.58588">
        <ele>1367.9</ele>
        <time>1970-01-01T01:58:14.000Z</time>
      </trkpt>
      <trkpt lat="45.38445" lon="4.58584">
        <ele>1368</ele>
        <time>1970-01-01T01:58:15.000Z</time>
      </trkpt>
      <trkpt lat="45.38443" lon="4.58579">
        <ele>1368.1</ele>
        <time>1970-01-01T01:58:16.000Z</time>
      </trkpt>
      <trkpt lat="45.38441" lon="4.58574">
        <ele>1368.3</ele>
        <time>1970-01-01T01:58:17.000Z</time>
      </trkpt>
      <trkpt lat="45.38439" lon="4.58568">
        <ele>1368.4</ele>
        <time>1970-01-01T01:58:18.000Z</time>
      </trkpt>
      <trkpt lat="45.38437" lon="4.58565">
        <ele>1368.5</ele>
        <time>1970-01-01T01:58:19.000Z</time>
      </trkpt>
      <trkpt lat="45.38437" lon="4.58561">
        <ele>1368.6</ele>
        <time>1970-01-01T01:58:20.000Z</time>
      </trkpt>
      <trkpt lat="45.38434" lon="4.58552">
        <ele>1368.8</ele>
        <time>1970-01-01T01:58:22.000Z</time>
      </trkpt>
      <trkpt lat="45.38433" lon="4.58546">
        <ele>1368.9</ele>
        <time>1970-01-01T01:58:23.000Z</time>
      </trkpt>
      <trkpt lat="45.38431" lon="4.58541">
        <ele>1369.1</ele>
        <time>1970-01-01T01:58:24.000Z</time>
      </trkpt>
      <trkpt lat="45.38429" lon="4.58536">
        <ele>1369.3</ele>
        <time>1970-01-01T01:58:25.000Z</time>
      </trkpt>
      <trkpt lat="45.38429" lon="4.58528">
        <ele>1369.5</ele>
        <time>1970-01-01T01:58:26.000Z</time>
      </trkpt>
      <trkpt lat="45.3843" lon="4.58522">
        <ele>1369.7</ele>
        <time>1970-01-01T01:58:27.000Z</time>
      </trkpt>
      <trkpt lat="45.38431" lon="4.58517">
        <ele>1369.8</ele>
        <time>1970-01-01T01:58:28.000Z</time>
      </trkpt>
      <trkpt lat="45.38431" lon="4.58512">
        <ele>1369.9</ele>
        <time>1970-01-01T01:58:29.000Z</time>
      </trkpt>
      <trkpt lat="45.38431" lon="4.58505">
        <ele>1370.2</ele>
        <time>1970-01-01T01:58:30.000Z</time>
      </trkpt>
      <trkpt lat="45.38429" lon="4.58499">
        <ele>1370.6</ele>
        <time>1970-01-01T01:58:31.000Z</time>
      </trkpt>
      <trkpt lat="45.38429" lon="4.58491">
        <ele>1371.4</ele>
        <time>1970-01-01T01:58:32.000Z</time>
      </trkpt>
      <trkpt lat="45.3843" lon="4.58485">
        <ele>1371.7</ele>
        <time>1970-01-01T01:58:33.000Z</time>
      </trkpt>
      <trkpt lat="45.3843" lon="4.58478">
        <ele>1372</ele>
        <time>1970-01-01T01:58:34.000Z</time>
      </trkpt>
      <trkpt lat="45.38432" lon="4.58471">
        <ele>1372.2</ele>
        <time>1970-01-01T01:58:35.000Z</time>
      </trkpt>
      <trkpt lat="45.38436" lon="4.58469">
        <ele>1372.5</ele>
        <time>1970-01-01T01:58:36.000Z</time>
      </trkpt>
      <trkpt lat="45.38438" lon="4.58463">
        <ele>1372.7</ele>
        <time>1970-01-01T01:58:37.000Z</time>
      </trkpt>
      <trkpt lat="45.38439" lon="4.58458">
        <ele>1372.9</ele>
        <time>1970-01-01T01:58:38.000Z</time>
      </trkpt>
      <trkpt lat="45.3844" lon="4.58452">
        <ele>1373.1</ele>
        <time>1970-01-01T01:58:39.000Z</time>
      </trkpt>
      <trkpt lat="45.38443" lon="4.58448">
        <ele>1373.3</ele>
        <time>1970-01-01T01:58:40.000Z</time>
      </trkpt>
      <trkpt lat="45.38444" lon="4.58443">
        <ele>1373.4</ele>
        <time>1970-01-01T01:58:41.000Z</time>
      </trkpt>
      <trkpt lat="45.38446" lon="4.5844">
        <ele>1373.5</ele>
        <time>1970-01-01T01:58:42.000Z</time>
      </trkpt>
      <trkpt lat="45.38447" lon="4.58436">
        <ele>1373.7</ele>
        <time>1970-01-01T01:58:43.000Z</time>
      </trkpt>
      <trkpt lat="45.38449" lon="4.58431">
        <ele>1373.8</ele>
        <time>1970-01-01T01:58:44.000Z</time>
      </trkpt>
      <trkpt lat="45.3845" lon="4.58426">
        <ele>1374</ele>
        <time>1970-01-01T01:58:45.000Z</time>
      </trkpt>
      <trkpt lat="45.3845" lon="4.5842">
        <ele>1374.2</ele>
        <time>1970-01-01T01:58:46.000Z</time>
      </trkpt>
      <trkpt lat="45.38451" lon="4.58414">
        <ele>1374.4</ele>
        <time>1970-01-01T01:58:47.000Z</time>
      </trkpt>
      <trkpt lat="45.38452" lon="4.58409">
        <ele>1374.6</ele>
        <time>1970-01-01T01:58:48.000Z</time>
      </trkpt>
      <trkpt lat="45.38455" lon="4.58406">
        <ele>1374.8</ele>
        <time>1970-01-01T01:58:49.000Z</time>
      </trkpt>
      <trkpt lat="45.38458" lon="4.58401">
        <ele>1375</ele>
        <time>1970-01-01T01:58:50.000Z</time>
      </trkpt>
      <trkpt lat="45.38462" lon="4.58396">
        <ele>1375.2</ele>
        <time>1970-01-01T01:58:51.000Z</time>
      </trkpt>
      <trkpt lat="45.38464" lon="4.58391">
        <ele>1375.3</ele>
        <time>1970-01-01T01:58:52.000Z</time>
      </trkpt>
      <trkpt lat="45.38466" lon="4.58387">
        <ele>1375.5</ele>
        <time>1970-01-01T01:58:53.000Z</time>
      </trkpt>
      <trkpt lat="45.38468" lon="4.58383">
        <ele>1375.6</ele>
        <time>1970-01-01T01:58:54.000Z</time>
      </trkpt>
      <trkpt lat="45.38472" lon="4.5838">
        <ele>1375.7</ele>
        <time>1970-01-01T01:58:55.000Z</time>
      </trkpt>
      <trkpt lat="45.38476" lon="4.58375">
        <ele>1376</ele>
        <time>1970-01-01T01:58:56.000Z</time>
      </trkpt>
      <trkpt lat="45.38478" lon="4.58371">
        <ele>1376.1</ele>
        <time>1970-01-01T01:58:57.000Z</time>
      </trkpt>
      <trkpt lat="45.38481" lon="4.58367">
        <ele>1376.3</ele>
        <time>1970-01-01T01:58:58.000Z</time>
      </trkpt>
      <trkpt lat="45.38484" lon="4.58361">
        <ele>1376.4</ele>
        <time>1970-01-01T01:58:59.000Z</time>
      </trkpt>
      <trkpt lat="45.38486" lon="4.58358">
        <ele>1376.5</ele>
        <time>1970-01-01T01:59:00.000Z</time>
      </trkpt>
      <trkpt lat="45.38487" lon="4.58354">
        <ele>1376.6</ele>
        <time>1970-01-01T01:59:01.000Z</time>
      </trkpt>
      <trkpt lat="45.38489" lon="4.5835">
        <ele>1376.7</ele>
        <time>1970-01-01T01:59:02.000Z</time>
      </trkpt>
      <trkpt lat="45.38492" lon="4.58346">
        <ele>1376.8</ele>
        <time>1970-01-01T01:59:03.000Z</time>
      </trkpt>
      <trkpt lat="45.38495" lon="4.58342">
        <ele>1377</ele>
        <time>1970-01-01T01:59:04.000Z</time>
      </trkpt>
      <trkpt lat="45.385" lon="4.58337">
        <ele>1377.1</ele>
        <time>1970-01-01T01:59:05.000Z</time>
      </trkpt>
      <trkpt lat="45.38505" lon="4.58332">
        <ele>1377.3</ele>
        <time>1970-01-01T01:59:06.000Z</time>
      </trkpt>
      <trkpt lat="45.38509" lon="4.58327">
        <ele>1377.6</ele>
        <time>1970-01-01T01:59:07.000Z</time>
      </trkpt>
      <trkpt lat="45.38512" lon="4.58322">
        <ele>1377.7</ele>
        <time>1970-01-01T01:59:08.000Z</time>
      </trkpt>
      <trkpt lat="45.38517" lon="4.58317">
        <ele>1378.1</ele>
        <time>1970-01-01T01:59:09.000Z</time>
      </trkpt>
      <trkpt lat="45.38521" lon="4.58315">
        <ele>1378.4</ele>
        <time>1970-01-01T01:59:10.000Z</time>
      </trkpt>
      <trkpt lat="45.38525" lon="4.58311">
        <ele>1378.8</ele>
        <time>1970-01-01T01:59:12.000Z</time>
      </trkpt>
      <trkpt lat="45.38531" lon="4.58307">
        <ele>1379.5</ele>
        <time>1970-01-01T01:59:13.000Z</time>
      </trkpt>
      <trkpt lat="45.38537" lon="4.58303">
        <ele>1380.1</ele>
        <time>1970-01-01T01:59:14.000Z</time>
      </trkpt>
      <trkpt lat="45.38544" lon="4.58298">
        <ele>1380.9</ele>
        <time>1970-01-01T01:59:15.000Z</time>
      </trkpt>
      <trkpt lat="45.38547" lon="4.58294">
        <ele>1381.4</ele>
        <time>1970-01-01T01:59:16.000Z</time>
      </trkpt>
      <trkpt lat="45.38551" lon="4.5829">
        <ele>1382</ele>
        <time>1970-01-01T01:59:17.000Z</time>
      </trkpt>
      <trkpt lat="45.38557" lon="4.58287">
        <ele>1382.5</ele>
        <time>1970-01-01T01:59:18.000Z</time>
      </trkpt>
      <trkpt lat="45.38563" lon="4.58283">
        <ele>1383.1</ele>
        <time>1970-01-01T01:59:19.000Z</time>
      </trkpt>
      <trkpt lat="45.38567" lon="4.5828">
        <ele>1383.5</ele>
        <time>1970-01-01T01:59:20.000Z</time>
      </trkpt>
      <trkpt lat="45.38571" lon="4.58277">
        <ele>1383.9</ele>
        <time>1970-01-01T01:59:21.000Z</time>
      </trkpt>
      <trkpt lat="45.38577" lon="4.58276">
        <ele>1384.4</ele>
        <time>1970-01-01T01:59:22.000Z</time>
      </trkpt>
      <trkpt lat="45.38581" lon="4.58273">
        <ele>1384.8</ele>
        <time>1970-01-01T01:59:23.000Z</time>
      </trkpt>
      <trkpt lat="45.38588" lon="4.5827">
        <ele>1384.6</ele>
        <time>1970-01-01T01:59:24.000Z</time>
      </trkpt>
      <trkpt lat="45.38592" lon="4.58269">
        <ele>1384.4</ele>
        <time>1970-01-01T01:59:25.000Z</time>
      </trkpt>
      <trkpt lat="45.38597" lon="4.58265">
        <ele>1384.1</ele>
        <time>1970-01-01T01:59:26.000Z</time>
      </trkpt>
      <trkpt lat="45.386" lon="4.58261">
        <ele>1383.9</ele>
        <time>1970-01-01T01:59:27.000Z</time>
      </trkpt>
      <trkpt lat="45.38603" lon="4.58258">
        <ele>1383.7</ele>
        <time>1970-01-01T01:59:28.000Z</time>
      </trkpt>
      <trkpt lat="45.38605" lon="4.58255">
        <ele>1383.5</ele>
        <time>1970-01-01T01:59:29.000Z</time>
      </trkpt>
      <trkpt lat="45.3861" lon="4.58249">
        <ele>1382.9</ele>
        <time>1970-01-01T01:59:31.000Z</time>
      </trkpt>
      <trkpt lat="45.38614" lon="4.58247">
        <ele>1382.5</ele>
        <time>1970-01-01T01:59:32.000Z</time>
      </trkpt>
      <trkpt lat="45.3862" lon="4.58244">
        <ele>1382.2</ele>
        <time>1970-01-01T01:59:33.000Z</time>
      </trkpt>
      <trkpt lat="45.38624" lon="4.58239">
        <ele>1381.9</ele>
        <time>1970-01-01T01:59:34.000Z</time>
      </trkpt>
      <trkpt lat="45.38626" lon="4.58236">
        <ele>1381.8</ele>
        <time>1970-01-01T01:59:35.000Z</time>
      </trkpt>
      <trkpt lat="45.38628" lon="4.58231">
        <ele>1381.6</ele>
        <time>1970-01-01T01:59:36.000Z</time>
      </trkpt>
      <trkpt lat="45.3863" lon="4.58228">
        <ele>1381.4</ele>
        <time>1970-01-01T01:59:37.000Z</time>
      </trkpt>
      <trkpt lat="45.38633" lon="4.58226">
        <ele>1381.2</ele>
        <time>1970-01-01T01:59:38.000Z</time>
      </trkpt>
      <trkpt lat="45.38636" lon="4.58224">
        <ele>1380.9</ele>
        <time>1970-01-01T01:59:39.000Z</time>
      </trkpt>
      <trkpt lat="45.38638" lon="4.58219">
        <ele>1380.5</ele>
        <time>1970-01-01T01:59:40.000Z</time>
      </trkpt>
      <trkpt lat="45.38643" lon="4.58216">
        <ele>1380.3</ele>
        <time>1970-01-01T01:59:41.000Z</time>
      </trkpt>
      <trkpt lat="45.3865" lon="4.58212">
        <ele>1379.9</ele>
        <time>1970-01-01T01:59:42.000Z</time>
      </trkpt>
      <trkpt lat="45.38655" lon="4.58207">
        <ele>1379.5</ele>
        <time>1970-01-01T01:59:43.000Z</time>
      </trkpt>
      <trkpt lat="45.38658" lon="4.58204">
        <ele>1379.3</ele>
        <time>1970-01-01T01:59:44.000Z</time>
      </trkpt>
      <trkpt lat="45.38662" lon="4.582">
        <ele>1378.8</ele>
        <time>1970-01-01T01:59:45.000Z</time>
      </trkpt>
      <trkpt lat="45.38668" lon="4.58195">
        <ele>1378.2</ele>
        <time>1970-01-01T01:59:46.000Z</time>
      </trkpt>
      <trkpt lat="45.38674" lon="4.58192">
        <ele>1377.5</ele>
        <time>1970-01-01T01:59:47.000Z</time>
      </trkpt>
      <trkpt lat="45.3868" lon="4.58189">
        <ele>1376.8</ele>
        <time>1970-01-01T01:59:48.000Z</time>
      </trkpt>
      <trkpt lat="45.38685" lon="4.58186">
        <ele>1376.1</ele>
        <time>1970-01-01T01:59:49.000Z</time>
      </trkpt>
      <trkpt lat="45.38689" lon="4.58183">
        <ele>1375.6</ele>
        <time>1970-01-01T01:59:50.000Z</time>
      </trkpt>
      <trkpt lat="45.38694" lon="4.5818">
        <ele>1374.9</ele>
        <time>1970-01-01T01:59:51.000Z</time>
      </trkpt>
      <trkpt lat="45.38699" lon="4.58177">
        <ele>1374.1</ele>
        <time>1970-01-01T01:59:52.000Z</time>
      </trkpt>
      <trkpt lat="45.38704" lon="4.58176">
        <ele>1373.2</ele>
        <time>1970-01-01T01:59:53.000Z</time>
      </trkpt>
      <trkpt lat="45.38709" lon="4.58174">
        <ele>1372.8</ele>
        <time>1970-01-01T01:59:54.000Z</time>
      </trkpt>
      <trkpt lat="45.38716" lon="4.58172">
        <ele>1372.5</ele>
        <time>1970-01-01T01:59:55.000Z</time>
      </trkpt>
      <trkpt lat="45.38722" lon="4.5817">
        <ele>1372.1</ele>
        <time>1970-01-01T01:59:56.000Z</time>
      </trkpt>
      <trkpt lat="45.38728" lon="4.58167">
        <ele>1371.7</ele>
        <time>1970-01-01T01:59:57.000Z</time>
      </trkpt>
      <trkpt lat="45.38733" lon="4.58166">
        <ele>1371.3</ele>
        <time>1970-01-01T01:59:58.000Z</time>
      </trkpt>
      <trkpt lat="45.38738" lon="4.58164">
        <ele>1371</ele>
        <time>1970-01-01T01:59:59.000Z</time>
      </trkpt>
      <trkpt lat="45.38743" lon="4.58162">
        <ele>1370.7</ele>
        <time>1970-01-01T02:00:00.000Z</time>
      </trkpt>
      <trkpt lat="45.3875" lon="4.58161">
        <ele>1370.3</ele>
        <time>1970-01-01T02:00:01.000Z</time>
      </trkpt>
      <trkpt lat="45.38756" lon="4.5816">
        <ele>1370.1</ele>
        <time>1970-01-01T02:00:02.000Z</time>
      </trkpt>
      <trkpt lat="45.38761" lon="4.58159">
        <ele>1369.9</ele>
        <time>1970-01-01T02:00:03.000Z</time>
      </trkpt>
      <trkpt lat="45.38767" lon="4.58158">
        <ele>1369.7</ele>
        <time>1970-01-01T02:00:04.000Z</time>
      </trkpt>
      <trkpt lat="45.38772" lon="4.58157">
        <ele>1369.6</ele>
        <time>1970-01-01T02:00:05.000Z</time>
      </trkpt>
      <trkpt lat="45.38777" lon="4.58156">
        <ele>1369.4</ele>
        <time>1970-01-01T02:00:06.000Z</time>
      </trkpt>
      <trkpt lat="45.38783" lon="4.58156">
        <ele>1369.4</ele>
        <time>1970-01-01T02:00:07.000Z</time>
      </trkpt>
      <trkpt lat="45.38788" lon="4.58155">
        <ele>1369.3</ele>
        <time>1970-01-01T02:00:08.000Z</time>
      </trkpt>
      <trkpt lat="45.38792" lon="4.58155">
        <ele>1369.3</ele>
        <time>1970-01-01T02:00:09.000Z</time>
      </trkpt>
      <trkpt lat="45.38796" lon="4.58155">
        <ele>1369.4</ele>
        <time>1970-01-01T02:00:10.000Z</time>
      </trkpt>
      <trkpt lat="45.388" lon="4.58154">
        <ele>1369.4</ele>
        <time>1970-01-01T02:00:11.000Z</time>
      </trkpt>
      <trkpt lat="45.38803" lon="4.58154">
        <ele>1369.4</ele>
        <time>1970-01-01T02:00:12.000Z</time>
      </trkpt>
      <trkpt lat="45.38806" lon="4.58155">
        <ele>1369.4</ele>
        <time>1970-01-01T02:00:13.000Z</time>
      </trkpt>
      <trkpt lat="45.3881" lon="4.58155">
        <ele>1369.5</ele>
        <time>1970-01-01T02:00:14.000Z</time>
      </trkpt>
      <trkpt lat="45.38814" lon="4.58155">
        <ele>1369.5</ele>
        <time>1970-01-01T02:00:15.000Z</time>
      </trkpt>
      <trkpt lat="45.38818" lon="4.58155">
        <ele>1369.5</ele>
        <time>1970-01-01T02:00:16.000Z</time>
      </trkpt>
      <trkpt lat="45.38821" lon="4.58156">
        <ele>1369.5</ele>
        <time>1970-01-01T02:00:17.000Z</time>
      </trkpt>
      <trkpt lat="45.38825" lon="4.58156">
        <ele>1369.5</ele>
        <time>1970-01-01T02:00:18.000Z</time>
      </trkpt>
      <trkpt lat="45.38828" lon="4.58157">
        <ele>1369.5</ele>
        <time>1970-01-01T02:00:19.000Z</time>
      </trkpt>
      <trkpt lat="45.38834" lon="4.58158">
        <ele>1369.4</ele>
        <time>1970-01-01T02:00:21.000Z</time>
      </trkpt>
      <trkpt lat="45.38836" lon="4.58157">
        <ele>1369.4</ele>
        <time>1970-01-01T02:00:22.000Z</time>
      </trkpt>
      <trkpt lat="45.38841" lon="4.58158">
        <ele>1369.4</ele>
        <time>1970-01-01T02:00:24.000Z</time>
      </trkpt>
      <trkpt lat="45.38844" lon="4.5816">
        <ele>1369.3</ele>
        <time>1970-01-01T02:00:25.000Z</time>
      </trkpt>
      <trkpt lat="45.38847" lon="4.58161">
        <ele>1369.3</ele>
        <time>1970-01-01T02:00:26.000Z</time>
      </trkpt>
      <trkpt lat="45.3885" lon="4.58162">
        <ele>1369.3</ele>
        <time>1970-01-01T02:00:27.000Z</time>
      </trkpt>
      <trkpt lat="45.38853" lon="4.58162">
        <ele>1369.2</ele>
        <time>1970-01-01T02:00:28.000Z</time>
      </trkpt>
      <trkpt lat="45.38856" lon="4.58163">
        <ele>1369.2</ele>
        <time>1970-01-01T02:00:29.000Z</time>
      </trkpt>
      <trkpt lat="45.3886" lon="4.58163">
        <ele>1369.1</ele>
        <time>1970-01-01T02:00:30.000Z</time>
      </trkpt>
      <trkpt lat="45.38864" lon="4.58164">
        <ele>1369</ele>
        <time>1970-01-01T02:00:31.000Z</time>
      </trkpt>
      <trkpt lat="45.38867" lon="4.58165">
        <ele>1368.9</ele>
        <time>1970-01-01T02:00:32.000Z</time>
      </trkpt>
      <trkpt lat="45.38871" lon="4.58166">
        <ele>1368.7</ele>
        <time>1970-01-01T02:00:33.000Z</time>
      </trkpt>
      <trkpt lat="45.38874" lon="4.58166">
        <ele>1368.5</ele>
        <time>1970-01-01T02:00:34.000Z</time>
      </trkpt>
      <trkpt lat="45.38878" lon="4.58167">
        <ele>1368.3</ele>
        <time>1970-01-01T02:00:35.000Z</time>
      </trkpt>
      <trkpt lat="45.38882" lon="4.58167">
        <ele>1368.1</ele>
        <time>1970-01-01T02:00:36.000Z</time>
      </trkpt>
      <trkpt lat="45.38886" lon="4.58167">
        <ele>1367.9</ele>
        <time>1970-01-01T02:00:37.000Z</time>
      </trkpt>
      <trkpt lat="45.38891" lon="4.58167">
        <ele>1367.6</ele>
        <time>1970-01-01T02:00:38.000Z</time>
      </trkpt>
      <trkpt lat="45.38896" lon="4.58168">
        <ele>1367.4</ele>
        <time>1970-01-01T02:00:39.000Z</time>
      </trkpt>
      <trkpt lat="45.389" lon="4.58169">
        <ele>1367.3</ele>
        <time>1970-01-01T02:00:40.000Z</time>
      </trkpt>
      <trkpt lat="45.38904" lon="4.58168">
        <ele>1367.1</ele>
        <time>1970-01-01T02:00:41.000Z</time>
      </trkpt>
      <trkpt lat="45.38909" lon="4.58168">
        <ele>1366.9</ele>
        <time>1970-01-01T02:00:42.000Z</time>
      </trkpt>
      <trkpt lat="45.38915" lon="4.58167">
        <ele>1366.7</ele>
        <time>1970-01-01T02:00:43.000Z</time>
      </trkpt>
      <trkpt lat="45.38919" lon="4.58165">
        <ele>1366.5</ele>
        <time>1970-01-01T02:00:44.000Z</time>
      </trkpt>
      <trkpt lat="45.38924" lon="4.58164">
        <ele>1366.3</ele>
        <time>1970-01-01T02:00:45.000Z</time>
      </trkpt>
      <trkpt lat="45.38929" lon="4.58162">
        <ele>1366</ele>
        <time>1970-01-01T02:00:46.000Z</time>
      </trkpt>
      <trkpt lat="45.38934" lon="4.5816">
        <ele>1365.8</ele>
        <time>1970-01-01T02:00:47.000Z</time>
      </trkpt>
      <trkpt lat="45.38938" lon="4.58158">
        <ele>1365.5</ele>
        <time>1970-01-01T02:00:48.000Z</time>
      </trkpt>
      <trkpt lat="45.38943" lon="4.58155">
        <ele>1365.3</ele>
        <time>1970-01-01T02:00:49.000Z</time>
      </trkpt>
      <trkpt lat="45.38948" lon="4.58153">
        <ele>1365</ele>
        <time>1970-01-01T02:00:50.000Z</time>
      </trkpt>
      <trkpt lat="45.38953" lon="4.58151">
        <ele>1364.7</ele>
        <time>1970-01-01T02:00:51.000Z</time>
      </trkpt>
      <trkpt lat="45.38958" lon="4.58149">
        <ele>1364.4</ele>
        <time>1970-01-01T02:00:52.000Z</time>
      </trkpt>
      <trkpt lat="45.38963" lon="4.58147">
        <ele>1364.2</ele>
        <time>1970-01-01T02:00:53.000Z</time>
      </trkpt>
      <trkpt lat="45.38968" lon="4.58146">
        <ele>1364</ele>
        <time>1970-01-01T02:00:54.000Z</time>
      </trkpt>
      <trkpt lat="45.38975" lon="4.58144">
        <ele>1363.7</ele>
        <time>1970-01-01T02:00:55.000Z</time>
      </trkpt>
      <trkpt lat="45.38981" lon="4.58143">
        <ele>1363.5</ele>
        <time>1970-01-01T02:00:56.000Z</time>
      </trkpt>
      <trkpt lat="45.38987" lon="4.58143">
        <ele>1363.1</ele>
        <time>1970-01-01T02:00:57.000Z</time>
      </trkpt>
      <trkpt lat="45.38993" lon="4.5814">
        <ele>1362.8</ele>
        <time>1970-01-01T02:00:58.000Z</time>
      </trkpt>
      <trkpt lat="45.38997" lon="4.58137">
        <ele>1362.4</ele>
        <time>1970-01-01T02:00:59.000Z</time>
      </trkpt>
      <trkpt lat="45.39003" lon="4.58133">
        <ele>1361.9</ele>
        <time>1970-01-01T02:01:00.000Z</time>
      </trkpt>
      <trkpt lat="45.39008" lon="4.58129">
        <ele>1361.4</ele>
        <time>1970-01-01T02:01:01.000Z</time>
      </trkpt>
      <trkpt lat="45.39013" lon="4.58126">
        <ele>1361</ele>
        <time>1970-01-01T02:01:02.000Z</time>
      </trkpt>
      <trkpt lat="45.39018" lon="4.58122">
        <ele>1360.6</ele>
        <time>1970-01-01T02:01:03.000Z</time>
      </trkpt>
      <trkpt lat="45.39023" lon="4.58118">
        <ele>1360.3</ele>
        <time>1970-01-01T02:01:04.000Z</time>
      </trkpt>
      <trkpt lat="45.39028" lon="4.58115">
        <ele>1360</ele>
        <time>1970-01-01T02:01:05.000Z</time>
      </trkpt>
      <trkpt lat="45.39034" lon="4.58111">
        <ele>1359.7</ele>
        <time>1970-01-01T02:01:06.000Z</time>
      </trkpt>
      <trkpt lat="45.39038" lon="4.58107">
        <ele>1359.4</ele>
        <time>1970-01-01T02:01:07.000Z</time>
      </trkpt>
      <trkpt lat="45.39043" lon="4.58103">
        <ele>1359</ele>
        <time>1970-01-01T02:01:08.000Z</time>
      </trkpt>
      <trkpt lat="45.39048" lon="4.58099">
        <ele>1358.6</ele>
        <time>1970-01-01T02:01:09.000Z</time>
      </trkpt>
      <trkpt lat="45.39053" lon="4.58095">
        <ele>1358.2</ele>
        <time>1970-01-01T02:01:10.000Z</time>
      </trkpt>
      <trkpt lat="45.39058" lon="4.58091">
        <ele>1357.7</ele>
        <time>1970-01-01T02:01:11.000Z</time>
      </trkpt>
      <trkpt lat="45.39062" lon="4.58087">
        <ele>1357.3</ele>
        <time>1970-01-01T02:01:12.000Z</time>
      </trkpt>
      <trkpt lat="45.39066" lon="4.58083">
        <ele>1356.9</ele>
        <time>1970-01-01T02:01:13.000Z</time>
      </trkpt>
      <trkpt lat="45.3907" lon="4.58079">
        <ele>1356.7</ele>
        <time>1970-01-01T02:01:14.000Z</time>
      </trkpt>
      <trkpt lat="45.39073" lon="4.58076">
        <ele>1356.4</ele>
        <time>1970-01-01T02:01:15.000Z</time>
      </trkpt>
      <trkpt lat="45.39075" lon="4.58073">
        <ele>1356.2</ele>
        <time>1970-01-01T02:01:16.000Z</time>
      </trkpt>
      <trkpt lat="45.39079" lon="4.5807">
        <ele>1355.9</ele>
        <time>1970-01-01T02:01:18.000Z</time>
      </trkpt>
      <trkpt lat="45.39082" lon="4.58068">
        <ele>1355.7</ele>
        <time>1970-01-01T02:01:42.000Z</time>
      </trkpt>
      <trkpt lat="45.39086" lon="4.58066">
        <ele>1355.4</ele>
        <time>1970-01-01T02:01:44.000Z</time>
      </trkpt>
      <trkpt lat="45.39088" lon="4.58063">
        <ele>1355.1</ele>
        <time>1970-01-01T02:01:45.000Z</time>
      </trkpt>
      <trkpt lat="45.39091" lon="4.5806">
        <ele>1354.9</ele>
        <time>1970-01-01T02:01:46.000Z</time>
      </trkpt>
      <trkpt lat="45.39094" lon="4.58057">
        <ele>1354.7</ele>
        <time>1970-01-01T02:01:47.000Z</time>
      </trkpt>
      <trkpt lat="45.39097" lon="4.58054">
        <ele>1354.5</ele>
        <time>1970-01-01T02:01:48.000Z</time>
      </trkpt>
      <trkpt lat="45.391" lon="4.58051">
        <ele>1354.3</ele>
        <time>1970-01-01T02:01:49.000Z</time>
      </trkpt>
      <trkpt lat="45.39103" lon="4.58048">
        <ele>1354.1</ele>
        <time>1970-01-01T02:01:50.000Z</time>
      </trkpt>
      <trkpt lat="45.39106" lon="4.58045">
        <ele>1353.9</ele>
        <time>1970-01-01T02:01:51.000Z</time>
      </trkpt>
      <trkpt lat="45.3911" lon="4.58042">
        <ele>1353.7</ele>
        <time>1970-01-01T02:01:52.000Z</time>
      </trkpt>
      <trkpt lat="45.39113" lon="4.58037">
        <ele>1353.4</ele>
        <time>1970-01-01T02:01:53.000Z</time>
      </trkpt>
      <trkpt lat="45.39117" lon="4.58033">
        <ele>1353.1</ele>
        <time>1970-01-01T02:01:54.000Z</time>
      </trkpt>
      <trkpt lat="45.39122" lon="4.58027">
        <ele>1352.8</ele>
        <time>1970-01-01T02:01:55.000Z</time>
      </trkpt>
      <trkpt lat="45.39127" lon="4.58021">
        <ele>1352.4</ele>
        <time>1970-01-01T02:01:56.000Z</time>
      </trkpt>
      <trkpt lat="45.39132" lon="4.58014">
        <ele>1351.8</ele>
        <time>1970-01-01T02:01:57.000Z</time>
      </trkpt>
      <trkpt lat="45.39138" lon="4.58008">
        <ele>1351.4</ele>
        <time>1970-01-01T02:01:58.000Z</time>
      </trkpt>
      <trkpt lat="45.39142" lon="4.58002">
        <ele>1350.9</ele>
        <time>1970-01-01T02:01:59.000Z</time>
      </trkpt>
      <trkpt lat="45.39146" lon="4.57993">
        <ele>1350.4</ele>
        <time>1970-01-01T02:02:00.000Z</time>
      </trkpt>
      <trkpt lat="45.3915" lon="4.57983">
        <ele>1350</ele>
        <time>1970-01-01T02:02:01.000Z</time>
      </trkpt>
      <trkpt lat="45.39154" lon="4.57972">
        <ele>1349.5</ele>
        <time>1970-01-01T02:02:02.000Z</time>
      </trkpt>
      <trkpt lat="45.39158" lon="4.5796">
        <ele>1348.9</ele>
        <time>1970-01-01T02:02:03.000Z</time>
      </trkpt>
      <trkpt lat="45.39162" lon="4.57949">
        <ele>1348.4</ele>
        <time>1970-01-01T02:02:04.000Z</time>
      </trkpt>
      <trkpt lat="45.39166" lon="4.57938">
        <ele>1347.6</ele>
        <time>1970-01-01T02:02:05.000Z</time>
      </trkpt>
      <trkpt lat="45.3917" lon="4.57926">
        <ele>1347</ele>
        <time>1970-01-01T02:02:06.000Z</time>
      </trkpt>
      <trkpt lat="45.39175" lon="4.57915">
        <ele>1346.5</ele>
        <time>1970-01-01T02:02:07.000Z</time>
      </trkpt>
      <trkpt lat="45.39181" lon="4.57905">
        <ele>1345.6</ele>
        <time>1970-01-01T02:02:08.000Z</time>
      </trkpt>
      <trkpt lat="45.39187" lon="4.57893">
        <ele>1344.9</ele>
        <time>1970-01-01T02:02:09.000Z</time>
      </trkpt>
      <trkpt lat="45.39192" lon="4.57882">
        <ele>1344.2</ele>
        <time>1970-01-01T02:02:10.000Z</time>
      </trkpt>
      <trkpt lat="45.39197" lon="4.5787">
        <ele>1343.3</ele>
        <time>1970-01-01T02:02:11.000Z</time>
      </trkpt>
      <trkpt lat="45.39201" lon="4.57858">
        <ele>1342.7</ele>
        <time>1970-01-01T02:02:12.000Z</time>
      </trkpt>
      <trkpt lat="45.39203" lon="4.57845">
        <ele>1342.1</ele>
        <time>1970-01-01T02:02:13.000Z</time>
      </trkpt>
      <trkpt lat="45.39203" lon="4.57833">
        <ele>1341.6</ele>
        <time>1970-01-01T02:02:14.000Z</time>
      </trkpt>
      <trkpt lat="45.39203" lon="4.5782">
        <ele>1341.1</ele>
        <time>1970-01-01T02:02:15.000Z</time>
      </trkpt>
      <trkpt lat="45.39204" lon="4.57808">
        <ele>1340.3</ele>
        <time>1970-01-01T02:02:16.000Z</time>
      </trkpt>
      <trkpt lat="45.39205" lon="4.57796">
        <ele>1339.4</ele>
        <time>1970-01-01T02:02:17.000Z</time>
      </trkpt>
      <trkpt lat="45.39205" lon="4.57784">
        <ele>1338.7</ele>
        <time>1970-01-01T02:02:18.000Z</time>
      </trkpt>
      <trkpt lat="45.39204" lon="4.57772">
        <ele>1338</ele>
        <time>1970-01-01T02:02:19.000Z</time>
      </trkpt>
      <trkpt lat="45.39203" lon="4.57761">
        <ele>1337.9</ele>
        <time>1970-01-01T02:02:20.000Z</time>
      </trkpt>
      <trkpt lat="45.39201" lon="4.57751">
        <ele>1337.8</ele>
        <time>1970-01-01T02:02:21.000Z</time>
      </trkpt>
      <trkpt lat="45.39198" lon="4.5774">
        <ele>1337.6</ele>
        <time>1970-01-01T02:02:22.000Z</time>
      </trkpt>
      <trkpt lat="45.39196" lon="4.5773">
        <ele>1337.5</ele>
        <time>1970-01-01T02:02:23.000Z</time>
      </trkpt>
      <trkpt lat="45.39194" lon="4.5772">
        <ele>1337.3</ele>
        <time>1970-01-01T02:02:24.000Z</time>
      </trkpt>
      <trkpt lat="45.39193" lon="4.57711">
        <ele>1337.1</ele>
        <time>1970-01-01T02:02:25.000Z</time>
      </trkpt>
      <trkpt lat="45.39191" lon="4.57702">
        <ele>1336.6</ele>
        <time>1970-01-01T02:02:26.000Z</time>
      </trkpt>
      <trkpt lat="45.39189" lon="4.57694">
        <ele>1336</ele>
        <time>1970-01-01T02:02:27.000Z</time>
      </trkpt>
      <trkpt lat="45.39187" lon="4.57685">
        <ele>1335.7</ele>
        <time>1970-01-01T02:02:28.000Z</time>
      </trkpt>
      <trkpt lat="45.39185" lon="4.57677">
        <ele>1335.6</ele>
        <time>1970-01-01T02:02:29.000Z</time>
      </trkpt>
      <trkpt lat="45.39184" lon="4.57668">
        <ele>1335.4</ele>
        <time>1970-01-01T02:02:30.000Z</time>
      </trkpt>
      <trkpt lat="45.39182" lon="4.57658">
        <ele>1335.2</ele>
        <time>1970-01-01T02:02:31.000Z</time>
      </trkpt>
      <trkpt lat="45.3918" lon="4.57649">
        <ele>1335.1</ele>
        <time>1970-01-01T02:02:32.000Z</time>
      </trkpt>
      <trkpt lat="45.39179" lon="4.57644">
        <ele>1335</ele>
        <time>1970-01-01T02:02:33.000Z</time>
      </trkpt>
      <trkpt lat="45.39178" lon="4.57638">
        <ele>1334.9</ele>
        <time>1970-01-01T02:03:00.000Z</time>
      </trkpt>
      <trkpt lat="45.39175" lon="4.57627">
        <ele>1334.6</ele>
        <time>1970-01-01T02:03:42.000Z</time>
      </trkpt>
      <trkpt lat="45.39172" lon="4.57615">
        <ele>1334.4</ele>
        <time>1970-01-01T02:03:45.000Z</time>
      </trkpt>
      <trkpt lat="45.39169" lon="4.57604">
        <ele>1333.9</ele>
        <time>1970-01-01T02:03:47.000Z</time>
      </trkpt>
      <trkpt lat="45.39166" lon="4.57597">
        <ele>1333.3</ele>
        <time>1970-01-01T02:03:51.000Z</time>
      </trkpt>
      <trkpt lat="45.39164" lon="4.57593">
        <ele>1332.9</ele>
        <time>1970-01-01T02:03:53.000Z</time>
      </trkpt>
      <trkpt lat="45.39161" lon="4.57586">
        <ele>1332.3</ele>
        <time>1970-01-01T02:03:55.000Z</time>
      </trkpt>
      <trkpt lat="45.39144" lon="4.57554">
        <ele>1330.9</ele>
        <time>1970-01-01T02:03:57.000Z</time>
      </trkpt>
      <trkpt lat="45.39125" lon="4.57562">
        <ele>1328.6</ele>
        <time>1970-01-01T02:03:58.000Z</time>
      </trkpt>
      <trkpt lat="45.39123" lon="4.57506">
        <ele>1323</ele>
        <time>1970-01-01T02:04:02.000Z</time>
      </trkpt>
      <trkpt lat="45.39122" lon="4.57495">
        <ele>1324.1</ele>
        <time>1970-01-01T02:04:03.000Z</time>
      </trkpt>
      <trkpt lat="45.3912" lon="4.57519">
        <ele>1324.5</ele>
        <time>1970-01-01T02:04:11.000Z</time>
      </trkpt>
      <trkpt lat="45.39121" lon="4.57532">
        <ele>1324.6</ele>
        <time>1970-01-01T02:04:12.000Z</time>
      </trkpt>
      <trkpt lat="45.39127" lon="4.57532">
        <ele>1324.1</ele>
        <time>1970-01-01T02:04:13.000Z</time>
      </trkpt>
      <trkpt lat="45.39127" lon="4.57537">
        <ele>1323</ele>
        <time>1970-01-01T02:04:19.000Z</time>
      </trkpt>
      <trkpt lat="45.39132" lon="4.57543">
        <ele>1324.2</ele>
        <time>1970-01-01T02:04:22.000Z</time>
      </trkpt>
      <trkpt lat="45.39132" lon="4.57556">
        <ele>1325.5</ele>
        <time>1970-01-01T02:04:23.000Z</time>
      </trkpt>
      <trkpt lat="45.39137" lon="4.57565">
        <ele>1327.2</ele>
        <time>1970-01-01T02:04:24.000Z</time>
      </trkpt>
      <trkpt lat="45.39146" lon="4.57578">
        <ele>1328.8</ele>
        <time>1970-01-01T02:04:25.000Z</time>
      </trkpt>
      <trkpt lat="45.39153" lon="4.57586">
        <ele>1330.3</ele>
        <time>1970-01-01T02:04:27.000Z</time>
      </trkpt>
      <trkpt lat="45.3916" lon="4.57593">
        <ele>1331.2</ele>
        <time>1970-01-01T02:04:28.000Z</time>
      </trkpt>
      <trkpt lat="45.39162" lon="4.57596">
        <ele>1331.5</ele>
        <time>1970-01-01T02:04:29.000Z</time>
      </trkpt>
      <trkpt lat="45.39163" lon="4.57602">
        <ele>1331.6</ele>
        <time>1970-01-01T02:04:30.000Z</time>
      </trkpt>
      <trkpt lat="45.39165" lon="4.57605">
        <ele>1331.8</ele>
        <time>1970-01-01T02:04:31.000Z</time>
      </trkpt>
      <trkpt lat="45.39166" lon="4.57612">
        <ele>1332</ele>
        <time>1970-01-01T02:04:33.000Z</time>
      </trkpt>
      <trkpt lat="45.39169" lon="4.57617">
        <ele>1332.2</ele>
        <time>1970-01-01T02:04:34.000Z</time>
      </trkpt>
      <trkpt lat="45.3917" lon="4.57625">
        <ele>1332.9</ele>
        <time>1970-01-01T02:04:36.000Z</time>
      </trkpt>
      <trkpt lat="45.3917" lon="4.57631">
        <ele>1333.4</ele>
        <time>1970-01-01T02:04:38.000Z</time>
      </trkpt>
      <trkpt lat="45.39169" lon="4.57637">
        <ele>1334</ele>
        <time>1970-01-01T02:04:40.000Z</time>
      </trkpt>
      <trkpt lat="45.39167" lon="4.57643">
        <ele>1334.3</ele>
        <time>1970-01-01T02:04:42.000Z</time>
      </trkpt>
      <trkpt lat="45.39166" lon="4.57649">
        <ele>1334.5</ele>
        <time>1970-01-01T02:04:44.000Z</time>
      </trkpt>
      <trkpt lat="45.39168" lon="4.57657">
        <ele>1334.7</ele>
        <time>1970-01-01T02:04:46.000Z</time>
      </trkpt>
      <trkpt lat="45.39169" lon="4.57663">
        <ele>1334.8</ele>
        <time>1970-01-01T02:04:47.000Z</time>
      </trkpt>
      <trkpt lat="45.39172" lon="4.57666">
        <ele>1334.9</ele>
        <time>1970-01-01T02:04:49.000Z</time>
      </trkpt>
      <trkpt lat="45.39174" lon="4.57663">
        <ele>1334.8</ele>
        <time>1970-01-01T02:04:53.000Z</time>
      </trkpt>
      <trkpt lat="45.39176" lon="4.57659">
        <ele>1334.7</ele>
        <time>1970-01-01T02:04:56.000Z</time>
      </trkpt>
      <trkpt lat="45.39178" lon="4.57657">
        <ele>1334.6</ele>
        <time>1970-01-01T02:04:59.000Z</time>
      </trkpt>
      <trkpt lat="45.39181" lon="4.57657">
        <ele>1334.5</ele>
        <time>1970-01-01T02:05:03.000Z</time>
      </trkpt>
      <trkpt lat="45.39181" lon="4.57653">
        <ele>1334.5</ele>
        <time>1970-01-01T02:05:09.000Z</time>
      </trkpt>
      <trkpt lat="45.39179" lon="4.57649">
        <ele>1334.4</ele>
        <time>1970-01-01T02:05:14.000Z</time>
      </trkpt>
      <trkpt lat="45.39178" lon="4.57643">
        <ele>1334.1</ele>
        <time>1970-01-01T02:05:16.000Z</time>
      </trkpt>
      <trkpt lat="45.39177" lon="4.57635">
        <ele>1333.5</ele>
        <time>1970-01-01T02:05:18.000Z</time>
      </trkpt>
      <trkpt lat="45.39175" lon="4.5763">
        <ele>1333</ele>
        <time>1970-01-01T02:05:20.000Z</time>
      </trkpt>
      <trkpt lat="45.39174" lon="4.57626">
        <ele>1332.6</ele>
        <time>1970-01-01T02:05:31.000Z</time>
      </trkpt>
      <trkpt lat="45.39173" lon="4.57621">
        <ele>1332.2</ele>
        <time>1970-01-01T02:05:33.000Z</time>
      </trkpt>
      <trkpt lat="45.3917" lon="4.57614">
        <ele>1332</ele>
        <time>1970-01-01T02:05:35.000Z</time>
      </trkpt>
      <trkpt lat="45.39169" lon="4.5761">
        <ele>1331.8</ele>
        <time>1970-01-01T02:05:36.000Z</time>
      </trkpt>
      <trkpt lat="45.39167" lon="4.57605">
        <ele>1331.7</ele>
        <time>1970-01-01T02:05:37.000Z</time>
      </trkpt>
      <trkpt lat="45.39165" lon="4.57601">
        <ele>1331.5</ele>
        <time>1970-01-01T02:05:38.000Z</time>
      </trkpt>
      <trkpt lat="45.39163" lon="4.57596">
        <ele>1331.3</ele>
        <time>1970-01-01T02:05:39.000Z</time>
      </trkpt>
      <trkpt lat="45.39162" lon="4.57591">
        <ele>1331.1</ele>
        <time>1970-01-01T02:05:40.000Z</time>
      </trkpt>
      <trkpt lat="45.3916" lon="4.57586">
        <ele>1330.7</ele>
        <time>1970-01-01T02:05:41.000Z</time>
      </trkpt>
      <trkpt lat="45.39158" lon="4.57581">
        <ele>1330.1</ele>
        <time>1970-01-01T02:05:42.000Z</time>
      </trkpt>
      <trkpt lat="45.39157" lon="4.57576">
        <ele>1329.4</ele>
        <time>1970-01-01T02:05:43.000Z</time>
      </trkpt>
      <trkpt lat="45.39156" lon="4.57571">
        <ele>1328.9</ele>
        <time>1970-01-01T02:05:44.000Z</time>
      </trkpt>
      <trkpt lat="45.39154" lon="4.57565">
        <ele>1328.5</ele>
        <time>1970-01-01T02:05:45.000Z</time>
      </trkpt>
      <trkpt lat="45.39153" lon="4.57559">
        <ele>1328.1</ele>
        <time>1970-01-01T02:05:46.000Z</time>
      </trkpt>
      <trkpt lat="45.3915" lon="4.57553">
        <ele>1327.3</ele>
        <time>1970-01-01T02:05:47.000Z</time>
      </trkpt>
      <trkpt lat="45.39148" lon="4.57548">
        <ele>1326.6</ele>
        <time>1970-01-01T02:05:48.000Z</time>
      </trkpt>
      <trkpt lat="45.39148" lon="4.57543">
        <ele>1325.9</ele>
        <time>1970-01-01T02:05:49.000Z</time>
      </trkpt>
      <trkpt lat="45.39149" lon="4.57539">
        <ele>1325.4</ele>
        <time>1970-01-01T02:05:50.000Z</time>
      </trkpt>
      <trkpt lat="45.39152" lon="4.57537">
        <ele>1321.3</ele>
        <time>1970-01-01T02:05:51.000Z</time>
      </trkpt>
      <trkpt lat="45.39155" lon="4.57535">
        <ele>1320.9</ele>
        <time>1970-01-01T02:05:52.000Z</time>
      </trkpt>
      <trkpt lat="45.39157" lon="4.57529">
        <ele>1320.3</ele>
        <time>1970-01-01T02:05:54.000Z</time>
      </trkpt>
      <trkpt lat="45.3916" lon="4.57527">
        <ele>1319.9</ele>
        <time>1970-01-01T02:05:56.000Z</time>
      </trkpt>
      <trkpt lat="45.39164" lon="4.57527">
        <ele>1319.3</ele>
        <time>1970-01-01T02:05:57.000Z</time>
      </trkpt>
      <trkpt lat="45.39168" lon="4.57526">
        <ele>1318.7</ele>
        <time>1970-01-01T02:05:58.000Z</time>
      </trkpt>
      <trkpt lat="45.39172" lon="4.57527">
        <ele>1318.1</ele>
        <time>1970-01-01T02:05:59.000Z</time>
      </trkpt>
      <trkpt lat="45.39177" lon="4.57528">
        <ele>1317.3</ele>
        <time>1970-01-01T02:06:00.000Z</time>
      </trkpt>
      <trkpt lat="45.39182" lon="4.57529">
        <ele>1316.6</ele>
        <time>1970-01-01T02:06:01.000Z</time>
      </trkpt>
      <trkpt lat="45.39187" lon="4.57528">
        <ele>1315.7</ele>
        <time>1970-01-01T02:06:02.000Z</time>
      </trkpt>
      <trkpt lat="45.39193" lon="4.57527">
        <ele>1314.8</ele>
        <time>1970-01-01T02:06:03.000Z</time>
      </trkpt>
      <trkpt lat="45.392" lon="4.57524">
        <ele>1314</ele>
        <time>1970-01-01T02:06:04.000Z</time>
      </trkpt>
      <trkpt lat="45.39206" lon="4.5752">
        <ele>1313.3</ele>
        <time>1970-01-01T02:06:05.000Z</time>
      </trkpt>
      <trkpt lat="45.39209" lon="4.57513">
        <ele>1312.6</ele>
        <time>1970-01-01T02:06:06.000Z</time>
      </trkpt>
      <trkpt lat="45.3921" lon="4.57506">
        <ele>1312.2</ele>
        <time>1970-01-01T02:06:07.000Z</time>
      </trkpt>
      <trkpt lat="45.39208" lon="4.57497">
        <ele>1311.7</ele>
        <time>1970-01-01T02:06:08.000Z</time>
      </trkpt>
      <trkpt lat="45.39206" lon="4.57487">
        <ele>1311.2</ele>
        <time>1970-01-01T02:06:09.000Z</time>
      </trkpt>
      <trkpt lat="45.39204" lon="4.57477">
        <ele>1310.7</ele>
        <time>1970-01-01T02:06:10.000Z</time>
      </trkpt>
      <trkpt lat="45.39202" lon="4.57467">
        <ele>1310.2</ele>
        <time>1970-01-01T02:06:11.000Z</time>
      </trkpt>
      <trkpt lat="45.39199" lon="4.57457">
        <ele>1309.7</ele>
        <time>1970-01-01T02:06:12.000Z</time>
      </trkpt>
      <trkpt lat="45.39196" lon="4.57446">
        <ele>1309.1</ele>
        <time>1970-01-01T02:06:13.000Z</time>
      </trkpt>
      <trkpt lat="45.39192" lon="4.57435">
        <ele>1308.6</ele>
        <time>1970-01-01T02:06:14.000Z</time>
      </trkpt>
      <trkpt lat="45.39187" lon="4.57426">
        <ele>1308</ele>
        <time>1970-01-01T02:06:15.000Z</time>
      </trkpt>
      <trkpt lat="45.39181" lon="4.57416">
        <ele>1307.5</ele>
        <time>1970-01-01T02:06:16.000Z</time>
      </trkpt>
      <trkpt lat="45.39175" lon="4.5741">
        <ele>1307</ele>
        <time>1970-01-01T02:06:17.000Z</time>
      </trkpt>
      <trkpt lat="45.39168" lon="4.57404">
        <ele>1306.5</ele>
        <time>1970-01-01T02:06:18.000Z</time>
      </trkpt>
      <trkpt lat="45.3916" lon="4.574">
        <ele>1305.8</ele>
        <time>1970-01-01T02:06:19.000Z</time>
      </trkpt>
      <trkpt lat="45.39152" lon="4.57397">
        <ele>1305.1</ele>
        <time>1970-01-01T02:06:20.000Z</time>
      </trkpt>
      <trkpt lat="45.39143" lon="4.57394">
        <ele>1304.4</ele>
        <time>1970-01-01T02:06:21.000Z</time>
      </trkpt>
      <trkpt lat="45.39135" lon="4.57392">
        <ele>1303.9</ele>
        <time>1970-01-01T02:06:22.000Z</time>
      </trkpt>
      <trkpt lat="45.39126" lon="4.5739">
        <ele>1303.3</ele>
        <time>1970-01-01T02:06:23.000Z</time>
      </trkpt>
      <trkpt lat="45.39118" lon="4.57388">
        <ele>1302.8</ele>
        <time>1970-01-01T02:06:24.000Z</time>
      </trkpt>
      <trkpt lat="45.39109" lon="4.57387">
        <ele>1302.2</ele>
        <time>1970-01-01T02:06:25.000Z</time>
      </trkpt>
      <trkpt lat="45.391" lon="4.57387">
        <ele>1301.9</ele>
        <time>1970-01-01T02:06:26.000Z</time>
      </trkpt>
      <trkpt lat="45.3909" lon="4.57388">
        <ele>1301.7</ele>
        <time>1970-01-01T02:06:27.000Z</time>
      </trkpt>
      <trkpt lat="45.39081" lon="4.57391">
        <ele>1301.5</ele>
        <time>1970-01-01T02:06:28.000Z</time>
      </trkpt>
      <trkpt lat="45.39072" lon="4.57395">
        <ele>1301.3</ele>
        <time>1970-01-01T02:06:29.000Z</time>
      </trkpt>
      <trkpt lat="45.39065" lon="4.57398">
        <ele>1301.2</ele>
        <time>1970-01-01T02:06:30.000Z</time>
      </trkpt>
      <trkpt lat="45.39059" lon="4.57401">
        <ele>1301</ele>
        <time>1970-01-01T02:06:31.000Z</time>
      </trkpt>
      <trkpt lat="45.39055" lon="4.57404">
        <ele>1300.9</ele>
        <time>1970-01-01T02:06:32.000Z</time>
      </trkpt>
      <trkpt lat="45.39051" lon="4.57405">
        <ele>1300.8</ele>
        <time>1970-01-01T02:06:33.000Z</time>
      </trkpt>
      <trkpt lat="45.39048" lon="4.57406">
        <ele>1300.7</ele>
        <time>1970-01-01T02:06:34.000Z</time>
      </trkpt>
      <trkpt lat="45.39041" lon="4.57403">
        <ele>1300.5</ele>
        <time>1970-01-01T02:06:36.000Z</time>
      </trkpt>
      <trkpt lat="45.39038" lon="4.574">
        <ele>1300.4</ele>
        <time>1970-01-01T02:06:37.000Z</time>
      </trkpt>
      <trkpt lat="45.39035" lon="4.57397">
        <ele>1300.3</ele>
        <time>1970-01-01T02:06:38.000Z</time>
      </trkpt>
      <trkpt lat="45.39033" lon="4.57394">
        <ele>1300.2</ele>
        <time>1970-01-01T02:06:39.000Z</time>
      </trkpt>
      <trkpt lat="45.39031" lon="4.5739">
        <ele>1300</ele>
        <time>1970-01-01T02:06:41.000Z</time>
      </trkpt>
      <trkpt lat="45.39035" lon="4.57384">
        <ele>1300</ele>
        <time>1970-01-01T02:07:08.000Z</time>
      </trkpt>
      <trkpt lat="45.39032" lon="4.57384">
        <ele>1300</ele>
        <time>1970-01-01T02:07:16.000Z</time>
      </trkpt>
      <trkpt lat="45.3903" lon="4.57387">
        <ele>1300</ele>
        <time>1970-01-01T02:07:19.000Z</time>
      </trkpt>
      <trkpt lat="45.39031" lon="4.57391">
        <ele>1300.2</ele>
        <time>1970-01-01T02:07:22.000Z</time>
      </trkpt>
      <trkpt lat="45.39034" lon="4.57394">
        <ele>1300.3</ele>
        <time>1970-01-01T02:07:25.000Z</time>
      </trkpt>
      <trkpt lat="45.39037" lon="4.57396">
        <ele>1300.4</ele>
        <time>1970-01-01T02:07:27.000Z</time>
      </trkpt>
      <trkpt lat="45.3904" lon="4.57399">
        <ele>1300.5</ele>
        <time>1970-01-01T02:07:29.000Z</time>
      </trkpt>
      <trkpt lat="45.39044" lon="4.574">
        <ele>1300.6</ele>
        <time>1970-01-01T02:07:31.000Z</time>
      </trkpt>
      <trkpt lat="45.39047" lon="4.57401">
        <ele>1300.7</ele>
        <time>1970-01-01T02:07:33.000Z</time>
      </trkpt>
      <trkpt lat="45.39052" lon="4.57401">
        <ele>1300.8</ele>
        <time>1970-01-01T02:07:35.000Z</time>
      </trkpt>
      <trkpt lat="45.39057" lon="4.57401">
        <ele>1300.9</ele>
        <time>1970-01-01T02:07:37.000Z</time>
      </trkpt>
      <trkpt lat="45.39062" lon="4.574">
        <ele>1301.1</ele>
        <time>1970-01-01T02:07:39.000Z</time>
      </trkpt>
      <trkpt lat="45.39067" lon="4.57398">
        <ele>1301.2</ele>
        <time>1970-01-01T02:07:41.000Z</time>
      </trkpt>
      <trkpt lat="45.3907" lon="4.57397">
        <ele>1301.3</ele>
        <time>1970-01-01T02:07:42.000Z</time>
      </trkpt>
      <trkpt lat="45.39076" lon="4.57394">
        <ele>1301.4</ele>
        <time>1970-01-01T02:07:44.000Z</time>
      </trkpt>
      <trkpt lat="45.39081" lon="4.57391">
        <ele>1301.5</ele>
        <time>1970-01-01T02:07:46.000Z</time>
      </trkpt>
      <trkpt lat="45.39086" lon="4.57389">
        <ele>1301.6</ele>
        <time>1970-01-01T02:07:48.000Z</time>
      </trkpt>
      <trkpt lat="45.39089" lon="4.57388">
        <ele>1301.6</ele>
        <time>1970-01-01T02:07:49.000Z</time>
      </trkpt>
      <trkpt lat="45.39092" lon="4.57386">
        <ele>1301.7</ele>
        <time>1970-01-01T02:07:50.000Z</time>
      </trkpt>
      <trkpt lat="45.39095" lon="4.57385">
        <ele>1301.7</ele>
        <time>1970-01-01T02:07:51.000Z</time>
      </trkpt>
      <trkpt lat="45.39098" lon="4.57382">
        <ele>1301.8</ele>
        <time>1970-01-01T02:07:52.000Z</time>
      </trkpt>
      <trkpt lat="45.39101" lon="4.57381">
        <ele>1301.9</ele>
        <time>1970-01-01T02:07:53.000Z</time>
      </trkpt>
      <trkpt lat="45.39105" lon="4.57378">
        <ele>1302</ele>
        <time>1970-01-01T02:07:55.000Z</time>
      </trkpt>
      <trkpt lat="45.39108" lon="4.57376">
        <ele>1301.9</ele>
        <time>1970-01-01T02:07:56.000Z</time>
      </trkpt>
      <trkpt lat="45.39112" lon="4.57375">
        <ele>1301.9</ele>
        <time>1970-01-01T02:07:57.000Z</time>
      </trkpt>
      <trkpt lat="45.39115" lon="4.57373">
        <ele>1301.9</ele>
        <time>1970-01-01T02:07:58.000Z</time>
      </trkpt>
      <trkpt lat="45.39118" lon="4.57371">
        <ele>1301.8</ele>
        <time>1970-01-01T02:07:59.000Z</time>
      </trkpt>
      <trkpt lat="45.39121" lon="4.57369">
        <ele>1301.8</ele>
        <time>1970-01-01T02:08:00.000Z</time>
      </trkpt>
      <trkpt lat="45.39124" lon="4.57367">
        <ele>1301.8</ele>
        <time>1970-01-01T02:08:01.000Z</time>
      </trkpt>
      <trkpt lat="45.39127" lon="4.57366">
        <ele>1301.7</ele>
        <time>1970-01-01T02:08:02.000Z</time>
      </trkpt>
      <trkpt lat="45.39129" lon="4.57363">
        <ele>1301.7</ele>
        <time>1970-01-01T02:08:03.000Z</time>
      </trkpt>
      <trkpt lat="45.39132" lon="4.57362">
        <ele>1301.7</ele>
        <time>1970-01-01T02:08:04.000Z</time>
      </trkpt>
      <trkpt lat="45.39138" lon="4.5736">
        <ele>1301.6</ele>
        <time>1970-01-01T02:08:06.000Z</time>
      </trkpt>
      <trkpt lat="45.39141" lon="4.5736">
        <ele>1301.6</ele>
        <time>1970-01-01T02:08:07.000Z</time>
      </trkpt>
      <trkpt lat="45.39145" lon="4.57358">
        <ele>1301.5</ele>
        <time>1970-01-01T02:08:08.000Z</time>
      </trkpt>
      <trkpt lat="45.39148" lon="4.57356">
        <ele>1301.5</ele>
        <time>1970-01-01T02:08:09.000Z</time>
      </trkpt>
      <trkpt lat="45.39152" lon="4.57355">
        <ele>1301.4</ele>
        <time>1970-01-01T02:08:10.000Z</time>
      </trkpt>
      <trkpt lat="45.39156" lon="4.57352">
        <ele>1301.4</ele>
        <time>1970-01-01T02:08:11.000Z</time>
      </trkpt>
      <trkpt lat="45.39159" lon="4.5735">
        <ele>1301.3</ele>
        <time>1970-01-01T02:08:12.000Z</time>
      </trkpt>
      <trkpt lat="45.39163" lon="4.57347">
        <ele>1301.3</ele>
        <time>1970-01-01T02:08:13.000Z</time>
      </trkpt>
      <trkpt lat="45.39167" lon="4.57345">
        <ele>1301.2</ele>
        <time>1970-01-01T02:08:14.000Z</time>
      </trkpt>
      <trkpt lat="45.39171" lon="4.57343">
        <ele>1301.2</ele>
        <time>1970-01-01T02:08:15.000Z</time>
      </trkpt>
      <trkpt lat="45.39175" lon="4.5734">
        <ele>1301.1</ele>
        <time>1970-01-01T02:08:16.000Z</time>
      </trkpt>
      <trkpt lat="45.39179" lon="4.57337">
        <ele>1301.1</ele>
        <time>1970-01-01T02:08:17.000Z</time>
      </trkpt>
      <trkpt lat="45.39183" lon="4.57334">
        <ele>1301</ele>
        <time>1970-01-01T02:08:18.000Z</time>
      </trkpt>
      <trkpt lat="45.39187" lon="4.5733">
        <ele>1300.9</ele>
        <time>1970-01-01T02:08:19.000Z</time>
      </trkpt>
      <trkpt lat="45.3919" lon="4.57328">
        <ele>1300.9</ele>
        <time>1970-01-01T02:08:20.000Z</time>
      </trkpt>
      <trkpt lat="45.39194" lon="4.57325">
        <ele>1300.8</ele>
        <time>1970-01-01T02:08:21.000Z</time>
      </trkpt>
      <trkpt lat="45.39199" lon="4.57322">
        <ele>1300.7</ele>
        <time>1970-01-01T02:08:22.000Z</time>
      </trkpt>
      <trkpt lat="45.39203" lon="4.5732">
        <ele>1300.7</ele>
        <time>1970-01-01T02:08:23.000Z</time>
      </trkpt>
      <trkpt lat="45.39207" lon="4.57317">
        <ele>1300.6</ele>
        <time>1970-01-01T02:08:24.000Z</time>
      </trkpt>
      <trkpt lat="45.39211" lon="4.57314">
        <ele>1300.5</ele>
        <time>1970-01-01T02:08:25.000Z</time>
      </trkpt>
      <trkpt lat="45.39215" lon="4.57312">
        <ele>1300.4</ele>
        <time>1970-01-01T02:08:26.000Z</time>
      </trkpt>
      <trkpt lat="45.39218" lon="4.57311">
        <ele>1300.4</ele>
        <time>1970-01-01T02:08:27.000Z</time>
      </trkpt>
      <trkpt lat="45.39222" lon="4.57309">
        <ele>1300.3</ele>
        <time>1970-01-01T02:08:28.000Z</time>
      </trkpt>
      <trkpt lat="45.39225" lon="4.57307">
        <ele>1300.2</ele>
        <time>1970-01-01T02:08:29.000Z</time>
      </trkpt>
      <trkpt lat="45.39229" lon="4.57305">
        <ele>1300.1</ele>
        <time>1970-01-01T02:08:30.000Z</time>
      </trkpt>
      <trkpt lat="45.39233" lon="4.57303">
        <ele>1300.1</ele>
        <time>1970-01-01T02:08:31.000Z</time>
      </trkpt>
      <trkpt lat="45.39237" lon="4.57301">
        <ele>1300</ele>
        <time>1970-01-01T02:08:32.000Z</time>
      </trkpt>
      <trkpt lat="45.3924" lon="4.57298">
        <ele>1299.9</ele>
        <time>1970-01-01T02:08:33.000Z</time>
      </trkpt>
      <trkpt lat="45.39245" lon="4.57296">
        <ele>1299.8</ele>
        <time>1970-01-01T02:08:34.000Z</time>
      </trkpt>
      <trkpt lat="45.39249" lon="4.57294">
        <ele>1299.7</ele>
        <time>1970-01-01T02:08:35.000Z</time>
      </trkpt>
      <trkpt lat="45.39254" lon="4.57291">
        <ele>1299.6</ele>
        <time>1970-01-01T02:08:36.000Z</time>
      </trkpt>
      <trkpt lat="45.39258" lon="4.57288">
        <ele>1299.5</ele>
        <time>1970-01-01T02:08:37.000Z</time>
      </trkpt>
      <trkpt lat="45.39262" lon="4.57287">
        <ele>1299.4</ele>
        <time>1970-01-01T02:08:38.000Z</time>
      </trkpt>
      <trkpt lat="45.39266" lon="4.57284">
        <ele>1299.3</ele>
        <time>1970-01-01T02:08:39.000Z</time>
      </trkpt>
      <trkpt lat="45.39271" lon="4.57281">
        <ele>1299.1</ele>
        <time>1970-01-01T02:08:40.000Z</time>
      </trkpt>
      <trkpt lat="45.39276" lon="4.57278">
        <ele>1299</ele>
        <time>1970-01-01T02:08:41.000Z</time>
      </trkpt>
      <trkpt lat="45.39281" lon="4.57275">
        <ele>1299</ele>
        <time>1970-01-01T02:08:42.000Z</time>
      </trkpt>
      <trkpt lat="45.39285" lon="4.57272">
        <ele>1299</ele>
        <time>1970-01-01T02:08:43.000Z</time>
      </trkpt>
      <trkpt lat="45.3929" lon="4.57269">
        <ele>1299</ele>
        <time>1970-01-01T02:08:44.000Z</time>
      </trkpt>
      <trkpt lat="45.39295" lon="4.57265">
        <ele>1299</ele>
        <time>1970-01-01T02:08:45.000Z</time>
      </trkpt>
      <trkpt lat="45.39299" lon="4.57263">
        <ele>1299</ele>
        <time>1970-01-01T02:08:46.000Z</time>
      </trkpt>
      <trkpt lat="45.39304" lon="4.5726">
        <ele>1299</ele>
        <time>1970-01-01T02:08:47.000Z</time>
      </trkpt>
      <trkpt lat="45.39309" lon="4.57257">
        <ele>1298.9</ele>
        <time>1970-01-01T02:08:48.000Z</time>
      </trkpt>
      <trkpt lat="45.39314" lon="4.57255">
        <ele>1298.9</ele>
        <time>1970-01-01T02:08:49.000Z</time>
      </trkpt>
      <trkpt lat="45.39318" lon="4.57252">
        <ele>1298.9</ele>
        <time>1970-01-01T02:08:50.000Z</time>
      </trkpt>
      <trkpt lat="45.39323" lon="4.57249">
        <ele>1298.9</ele>
        <time>1970-01-01T02:08:51.000Z</time>
      </trkpt>
      <trkpt lat="45.39328" lon="4.57246">
        <ele>1298.8</ele>
        <time>1970-01-01T02:08:52.000Z</time>
      </trkpt>
      <trkpt lat="45.39333" lon="4.57242">
        <ele>1298.8</ele>
        <time>1970-01-01T02:08:53.000Z</time>
      </trkpt>
      <trkpt lat="45.39337" lon="4.57239">
        <ele>1298.7</ele>
        <time>1970-01-01T02:08:54.000Z</time>
      </trkpt>
      <trkpt lat="45.39341" lon="4.57236">
        <ele>1298.6</ele>
        <time>1970-01-01T02:08:55.000Z</time>
      </trkpt>
      <trkpt lat="45.39345" lon="4.57233">
        <ele>1298.6</ele>
        <time>1970-01-01T02:08:56.000Z</time>
      </trkpt>
      <trkpt lat="45.39349" lon="4.5723">
        <ele>1298.5</ele>
        <time>1970-01-01T02:08:57.000Z</time>
      </trkpt>
      <trkpt lat="45.39353" lon="4.57227">
        <ele>1298.4</ele>
        <time>1970-01-01T02:08:58.000Z</time>
      </trkpt>
      <trkpt lat="45.39357" lon="4.57225">
        <ele>1298.3</ele>
        <time>1970-01-01T02:08:59.000Z</time>
      </trkpt>
      <trkpt lat="45.39361" lon="4.57224">
        <ele>1298.2</ele>
        <time>1970-01-01T02:09:00.000Z</time>
      </trkpt>
      <trkpt lat="45.39365" lon="4.57227">
        <ele>1298.1</ele>
        <time>1970-01-01T02:09:01.000Z</time>
      </trkpt>
      <trkpt lat="45.39368" lon="4.5723">
        <ele>1301.3</ele>
        <time>1970-01-01T02:09:02.000Z</time>
      </trkpt>
      <trkpt lat="45.3937" lon="4.57232">
        <ele>1304.3</ele>
        <time>1970-01-01T02:09:03.000Z</time>
      </trkpt>
      <trkpt lat="45.39373" lon="4.57234">
        <ele>1304.7</ele>
        <time>1970-01-01T02:09:04.000Z</time>
      </trkpt>
      <trkpt lat="45.39378" lon="4.57235">
        <ele>1305.3</ele>
        <time>1970-01-01T02:09:06.000Z</time>
      </trkpt>
      <trkpt lat="45.39381" lon="4.57234">
        <ele>1305.7</ele>
        <time>1970-01-01T02:09:07.000Z</time>
      </trkpt>
      <trkpt lat="45.39385" lon="4.57234">
        <ele>1306.1</ele>
        <time>1970-01-01T02:09:08.000Z</time>
      </trkpt>
      <trkpt lat="45.39389" lon="4.57233">
        <ele>1306.5</ele>
        <time>1970-01-01T02:09:09.000Z</time>
      </trkpt>
      <trkpt lat="45.39395" lon="4.57231">
        <ele>1306.6</ele>
        <time>1970-01-01T02:09:10.000Z</time>
      </trkpt>
      <trkpt lat="45.39401" lon="4.5723">
        <ele>1306.8</ele>
        <time>1970-01-01T02:09:11.000Z</time>
      </trkpt>
      <trkpt lat="45.39406" lon="4.57228">
        <ele>1307</ele>
        <time>1970-01-01T02:09:12.000Z</time>
      </trkpt>
      <trkpt lat="45.3941" lon="4.57225">
        <ele>1306.9</ele>
        <time>1970-01-01T02:09:13.000Z</time>
      </trkpt>
      <trkpt lat="45.39413" lon="4.57221">
        <ele>1306.9</ele>
        <time>1970-01-01T02:09:14.000Z</time>
      </trkpt>
      <trkpt lat="45.39418" lon="4.57221">
        <ele>1306.8</ele>
        <time>1970-01-01T02:09:15.000Z</time>
      </trkpt>
      <trkpt lat="45.39425" lon="4.57223">
        <ele>1306.6</ele>
        <time>1970-01-01T02:09:16.000Z</time>
      </trkpt>
      <trkpt lat="45.39432" lon="4.57223">
        <ele>1305.5</ele>
        <time>1970-01-01T02:09:17.000Z</time>
      </trkpt>
      <trkpt lat="45.39436" lon="4.57217">
        <ele>1304.5</ele>
        <time>1970-01-01T02:09:18.000Z</time>
      </trkpt>
      <trkpt lat="45.39439" lon="4.57213">
        <ele>1303.6</ele>
        <time>1970-01-01T02:09:19.000Z</time>
      </trkpt>
      <trkpt lat="45.39444" lon="4.57213">
        <ele>1302.8</ele>
        <time>1970-01-01T02:09:20.000Z</time>
      </trkpt>
      <trkpt lat="45.3945" lon="4.57209">
        <ele>1301.9</ele>
        <time>1970-01-01T02:09:21.000Z</time>
      </trkpt>
      <trkpt lat="45.39453" lon="4.57205">
        <ele>1300.9</ele>
        <time>1970-01-01T02:09:22.000Z</time>
      </trkpt>
      <trkpt lat="45.39456" lon="4.57201">
        <ele>1299.9</ele>
        <time>1970-01-01T02:09:23.000Z</time>
      </trkpt>
      <trkpt lat="45.39461" lon="4.572">
        <ele>1299.2</ele>
        <time>1970-01-01T02:09:24.000Z</time>
      </trkpt>
      <trkpt lat="45.39467" lon="4.57196">
        <ele>1298.1</ele>
        <time>1970-01-01T02:09:25.000Z</time>
      </trkpt>
      <trkpt lat="45.39471" lon="4.57192">
        <ele>1296.9</ele>
        <time>1970-01-01T02:09:26.000Z</time>
      </trkpt>
      <trkpt lat="45.39475" lon="4.5719">
        <ele>1295.9</ele>
        <time>1970-01-01T02:09:27.000Z</time>
      </trkpt>
      <trkpt lat="45.39478" lon="4.57189">
        <ele>1295.9</ele>
        <time>1970-01-01T02:09:28.000Z</time>
      </trkpt>
      <trkpt lat="45.3948" lon="4.57187">
        <ele>1295.9</ele>
        <time>1970-01-01T02:09:29.000Z</time>
      </trkpt>
      <trkpt lat="45.39482" lon="4.57181">
        <ele>1295.9</ele>
        <time>1970-01-01T02:09:32.000Z</time>
      </trkpt>
      <trkpt lat="45.39486" lon="4.57179">
        <ele>1295.9</ele>
        <time>1970-01-01T02:09:33.000Z</time>
      </trkpt>
      <trkpt lat="45.3949" lon="4.57177">
        <ele>1295.9</ele>
        <time>1970-01-01T02:09:34.000Z</time>
      </trkpt>
      <trkpt lat="45.39495" lon="4.57174">
        <ele>1295.8</ele>
        <time>1970-01-01T02:09:35.000Z</time>
      </trkpt>
      <trkpt lat="45.395" lon="4.57172">
        <ele>1295.8</ele>
        <time>1970-01-01T02:09:36.000Z</time>
      </trkpt>
      <trkpt lat="45.39504" lon="4.57168">
        <ele>1295.7</ele>
        <time>1970-01-01T02:09:37.000Z</time>
      </trkpt>
      <trkpt lat="45.39509" lon="4.57164">
        <ele>1295.6</ele>
        <time>1970-01-01T02:09:38.000Z</time>
      </trkpt>
      <trkpt lat="45.39514" lon="4.5716">
        <ele>1295.4</ele>
        <time>1970-01-01T02:09:39.000Z</time>
      </trkpt>
      <trkpt lat="45.39521" lon="4.57156">
        <ele>1295.2</ele>
        <time>1970-01-01T02:09:40.000Z</time>
      </trkpt>
      <trkpt lat="45.39527" lon="4.57156">
        <ele>1295</ele>
        <time>1970-01-01T02:09:41.000Z</time>
      </trkpt>
      <trkpt lat="45.39533" lon="4.57156">
        <ele>1295</ele>
        <time>1970-01-01T02:09:42.000Z</time>
      </trkpt>
      <trkpt lat="45.39538" lon="4.57157">
        <ele>1295</ele>
        <time>1970-01-01T02:09:43.000Z</time>
      </trkpt>
      <trkpt lat="45.39545" lon="4.57158">
        <ele>1294.9</ele>
        <time>1970-01-01T02:09:44.000Z</time>
      </trkpt>
      <trkpt lat="45.3955" lon="4.57157">
        <ele>1294.8</ele>
        <time>1970-01-01T02:09:45.000Z</time>
      </trkpt>
      <trkpt lat="45.39554" lon="4.57156">
        <ele>1294.8</ele>
        <time>1970-01-01T02:09:46.000Z</time>
      </trkpt>
      <trkpt lat="45.39562" lon="4.57158">
        <ele>1294.3</ele>
        <time>1970-01-01T02:09:47.000Z</time>
      </trkpt>
      <trkpt lat="45.39567" lon="4.5716">
        <ele>1293.6</ele>
        <time>1970-01-01T02:09:48.000Z</time>
      </trkpt>
      <trkpt lat="45.39572" lon="4.57163">
        <ele>1293.2</ele>
        <time>1970-01-01T02:09:49.000Z</time>
      </trkpt>
      <trkpt lat="45.39578" lon="4.57166">
        <ele>1292.8</ele>
        <time>1970-01-01T02:09:50.000Z</time>
      </trkpt>
      <trkpt lat="45.39584" lon="4.57166">
        <ele>1292</ele>
        <time>1970-01-01T02:09:51.000Z</time>
      </trkpt>
      <trkpt lat="45.3959" lon="4.57164">
        <ele>1291.4</ele>
        <time>1970-01-01T02:09:52.000Z</time>
      </trkpt>
      <trkpt lat="45.39595" lon="4.5716">
        <ele>1291</ele>
        <time>1970-01-01T02:09:53.000Z</time>
      </trkpt>
      <trkpt lat="45.39601" lon="4.57155">
        <ele>1290.7</ele>
        <time>1970-01-01T02:09:54.000Z</time>
      </trkpt>
      <trkpt lat="45.39606" lon="4.57151">
        <ele>1290.6</ele>
        <time>1970-01-01T02:09:55.000Z</time>
      </trkpt>
      <trkpt lat="45.39614" lon="4.57155">
        <ele>1290.5</ele>
        <time>1970-01-01T02:09:56.000Z</time>
      </trkpt>
      <trkpt lat="45.39621" lon="4.57157">
        <ele>1290.3</ele>
        <time>1970-01-01T02:09:57.000Z</time>
      </trkpt>
      <trkpt lat="45.39627" lon="4.57156">
        <ele>1290.2</ele>
        <time>1970-01-01T02:09:58.000Z</time>
      </trkpt>
      <trkpt lat="45.39636" lon="4.57156">
        <ele>1289.3</ele>
        <time>1970-01-01T02:09:59.000Z</time>
      </trkpt>
      <trkpt lat="45.39644" lon="4.57156">
        <ele>1288.7</ele>
        <time>1970-01-01T02:10:00.000Z</time>
      </trkpt>
      <trkpt lat="45.39651" lon="4.57154">
        <ele>1288.5</ele>
        <time>1970-01-01T02:10:01.000Z</time>
      </trkpt>
      <trkpt lat="45.39657" lon="4.57153">
        <ele>1288.4</ele>
        <time>1970-01-01T02:10:02.000Z</time>
      </trkpt>
      <trkpt lat="45.39664" lon="4.57156">
        <ele>1288.2</ele>
        <time>1970-01-01T02:10:03.000Z</time>
      </trkpt>
      <trkpt lat="45.3967" lon="4.5716">
        <ele>1288</ele>
        <time>1970-01-01T02:10:04.000Z</time>
      </trkpt>
      <trkpt lat="45.39677" lon="4.57163">
        <ele>1287.2</ele>
        <time>1970-01-01T02:10:05.000Z</time>
      </trkpt>
      <trkpt lat="45.39685" lon="4.57162">
        <ele>1286.5</ele>
        <time>1970-01-01T02:10:06.000Z</time>
      </trkpt>
      <trkpt lat="45.39695" lon="4.5716">
        <ele>1285.4</ele>
        <time>1970-01-01T02:10:07.000Z</time>
      </trkpt>
      <trkpt lat="45.39704" lon="4.5716">
        <ele>1284.5</ele>
        <time>1970-01-01T02:10:08.000Z</time>
      </trkpt>
      <trkpt lat="45.39715" lon="4.5716">
        <ele>1284.1</ele>
        <time>1970-01-01T02:10:09.000Z</time>
      </trkpt>
      <trkpt lat="45.39725" lon="4.57156">
        <ele>1283.7</ele>
        <time>1970-01-01T02:10:10.000Z</time>
      </trkpt>
      <trkpt lat="45.39735" lon="4.57151">
        <ele>1282.4</ele>
        <time>1970-01-01T02:10:11.000Z</time>
      </trkpt>
      <trkpt lat="45.39742" lon="4.57148">
        <ele>1281.6</ele>
        <time>1970-01-01T02:10:12.000Z</time>
      </trkpt>
      <trkpt lat="45.39748" lon="4.57148">
        <ele>1280.6</ele>
        <time>1970-01-01T02:10:13.000Z</time>
      </trkpt>
      <trkpt lat="45.39752" lon="4.57151">
        <ele>1280.1</ele>
        <time>1970-01-01T02:10:14.000Z</time>
      </trkpt>
      <trkpt lat="45.39754" lon="4.57147">
        <ele>1279.8</ele>
        <time>1970-01-01T02:10:15.000Z</time>
      </trkpt>
      <trkpt lat="45.39759" lon="4.57146">
        <ele>1279.3</ele>
        <time>1970-01-01T02:10:16.000Z</time>
      </trkpt>
      <trkpt lat="45.39764" lon="4.57149">
        <ele>1278.4</ele>
        <time>1970-01-01T02:10:17.000Z</time>
      </trkpt>
      <trkpt lat="45.3977" lon="4.57149">
        <ele>1278</ele>
        <time>1970-01-01T02:10:18.000Z</time>
      </trkpt>
      <trkpt lat="45.39776" lon="4.5715">
        <ele>1277.1</ele>
        <time>1970-01-01T02:10:19.000Z</time>
      </trkpt>
      <trkpt lat="45.39782" lon="4.57151">
        <ele>1276.3</ele>
        <time>1970-01-01T02:10:20.000Z</time>
      </trkpt>
      <trkpt lat="45.39788" lon="4.57152">
        <ele>1275.9</ele>
        <time>1970-01-01T02:10:21.000Z</time>
      </trkpt>
      <trkpt lat="45.39794" lon="4.57151">
        <ele>1274.9</ele>
        <time>1970-01-01T02:10:22.000Z</time>
      </trkpt>
      <trkpt lat="45.39799" lon="4.57148">
        <ele>1273.9</ele>
        <time>1970-01-01T02:10:23.000Z</time>
      </trkpt>
      <trkpt lat="45.39805" lon="4.57148">
        <ele>1272.7</ele>
        <time>1970-01-01T02:10:24.000Z</time>
      </trkpt>
      <trkpt lat="45.39812" lon="4.57148">
        <ele>1271.7</ele>
        <time>1970-01-01T02:10:25.000Z</time>
      </trkpt>
      <trkpt lat="45.3982" lon="4.57147">
        <ele>1270.8</ele>
        <time>1970-01-01T02:10:26.000Z</time>
      </trkpt>
      <trkpt lat="45.39828" lon="4.57149">
        <ele>1269.7</ele>
        <time>1970-01-01T02:10:27.000Z</time>
      </trkpt>
      <trkpt lat="45.39835" lon="4.57152">
        <ele>1269</ele>
        <time>1970-01-01T02:10:28.000Z</time>
      </trkpt>
      <trkpt lat="45.39841" lon="4.57148">
        <ele>1267.9</ele>
        <time>1970-01-01T02:10:29.000Z</time>
      </trkpt>
      <trkpt lat="45.39847" lon="4.57141">
        <ele>1267.2</ele>
        <time>1970-01-01T02:10:30.000Z</time>
      </trkpt>
      <trkpt lat="45.39851" lon="4.57136">
        <ele>1266.3</ele>
        <time>1970-01-01T02:10:31.000Z</time>
      </trkpt>
      <trkpt lat="45.39856" lon="4.57133">
        <ele>1265.6</ele>
        <time>1970-01-01T02:10:32.000Z</time>
      </trkpt>
      <trkpt lat="45.3986" lon="4.57132">
        <ele>1265.1</ele>
        <time>1970-01-01T02:10:33.000Z</time>
      </trkpt>
      <trkpt lat="45.39866" lon="4.57134">
        <ele>1264.1</ele>
        <time>1970-01-01T02:10:34.000Z</time>
      </trkpt>
      <trkpt lat="45.39871" lon="4.57134">
        <ele>1263.4</ele>
        <time>1970-01-01T02:10:35.000Z</time>
      </trkpt>
      <trkpt lat="45.39876" lon="4.57132">
        <ele>1262.5</ele>
        <time>1970-01-01T02:10:36.000Z</time>
      </trkpt>
      <trkpt lat="45.39881" lon="4.57135">
        <ele>1261.6</ele>
        <time>1970-01-01T02:10:37.000Z</time>
      </trkpt>
      <trkpt lat="45.39885" lon="4.57137">
        <ele>1261.2</ele>
        <time>1970-01-01T02:10:38.000Z</time>
      </trkpt>
      <trkpt lat="45.3989" lon="4.57134">
        <ele>1260.1</ele>
        <time>1970-01-01T02:10:39.000Z</time>
      </trkpt>
      <trkpt lat="45.39895" lon="4.57132">
        <ele>1259.6</ele>
        <time>1970-01-01T02:10:40.000Z</time>
      </trkpt>
      <trkpt lat="45.399" lon="4.57132">
        <ele>1259</ele>
        <time>1970-01-01T02:10:41.000Z</time>
      </trkpt>
      <trkpt lat="45.39907" lon="4.57131">
        <ele>1257.5</ele>
        <time>1970-01-01T02:10:42.000Z</time>
      </trkpt>
      <trkpt lat="45.39917" lon="4.5713">
        <ele>1256.2</ele>
        <time>1970-01-01T02:10:43.000Z</time>
      </trkpt>
      <trkpt lat="45.39927" lon="4.5713">
        <ele>1255</ele>
        <time>1970-01-01T02:10:44.000Z</time>
      </trkpt>
      <trkpt lat="45.39935" lon="4.57131">
        <ele>1253.6</ele>
        <time>1970-01-01T02:10:45.000Z</time>
      </trkpt>
      <trkpt lat="45.39943" lon="4.57132">
        <ele>1252.2</ele>
        <time>1970-01-01T02:10:46.000Z</time>
      </trkpt>
      <trkpt lat="45.39952" lon="4.57135">
        <ele>1251</ele>
        <time>1970-01-01T02:10:47.000Z</time>
      </trkpt>
      <trkpt lat="45.39959" lon="4.57137">
        <ele>1250.4</ele>
        <time>1970-01-01T02:10:48.000Z</time>
      </trkpt>
      <trkpt lat="45.39965" lon="4.57138">
        <ele>1249.1</ele>
        <time>1970-01-01T02:10:49.000Z</time>
      </trkpt>
      <trkpt lat="45.39971" lon="4.5714">
        <ele>1248.5</ele>
        <time>1970-01-01T02:10:50.000Z</time>
      </trkpt>
      <trkpt lat="45.39978" lon="4.57139">
        <ele>1247.9</ele>
        <time>1970-01-01T02:10:51.000Z</time>
      </trkpt>
      <trkpt lat="45.39982" lon="4.57135">
        <ele>1246.9</ele>
        <time>1970-01-01T02:10:52.000Z</time>
      </trkpt>
      <trkpt lat="45.39987" lon="4.57131">
        <ele>1246.5</ele>
        <time>1970-01-01T02:10:53.000Z</time>
      </trkpt>
      <trkpt lat="45.39991" lon="4.57132">
        <ele>1246</ele>
        <time>1970-01-01T02:10:54.000Z</time>
      </trkpt>
      <trkpt lat="45.39995" lon="4.57131">
        <ele>1244.9</ele>
        <time>1970-01-01T02:10:55.000Z</time>
      </trkpt>
      <trkpt lat="45.40002" lon="4.57133">
        <ele>1243.9</ele>
        <time>1970-01-01T02:10:56.000Z</time>
      </trkpt>
      <trkpt lat="45.40009" lon="4.57132">
        <ele>1242.7</ele>
        <time>1970-01-01T02:10:57.000Z</time>
      </trkpt>
      <trkpt lat="45.40017" lon="4.57129">
        <ele>1242.1</ele>
        <time>1970-01-01T02:10:58.000Z</time>
      </trkpt>
      <trkpt lat="45.40024" lon="4.57127">
        <ele>1241.4</ele>
        <time>1970-01-01T02:10:59.000Z</time>
      </trkpt>
      <trkpt lat="45.40033" lon="4.57125">
        <ele>1239.9</ele>
        <time>1970-01-01T02:11:00.000Z</time>
      </trkpt>
      <trkpt lat="45.40043" lon="4.57124">
        <ele>1238.4</ele>
        <time>1970-01-01T02:11:01.000Z</time>
      </trkpt>
      <trkpt lat="45.40053" lon="4.57125">
        <ele>1237.4</ele>
        <time>1970-01-01T02:11:02.000Z</time>
      </trkpt>
      <trkpt lat="45.40063" lon="4.57125">
        <ele>1235.5</ele>
        <time>1970-01-01T02:11:03.000Z</time>
      </trkpt>
      <trkpt lat="45.40071" lon="4.57124">
        <ele>1233.6</ele>
        <time>1970-01-01T02:11:04.000Z</time>
      </trkpt>
      <trkpt lat="45.40078" lon="4.57121">
        <ele>1232</ele>
        <time>1970-01-01T02:11:05.000Z</time>
      </trkpt>
      <trkpt lat="45.40085" lon="4.57119">
        <ele>1230.5</ele>
        <time>1970-01-01T02:11:06.000Z</time>
      </trkpt>
      <trkpt lat="45.40092" lon="4.57119">
        <ele>1229.7</ele>
        <time>1970-01-01T02:11:07.000Z</time>
      </trkpt>
      <trkpt lat="45.401" lon="4.57119">
        <ele>1229.1</ele>
        <time>1970-01-01T02:11:08.000Z</time>
      </trkpt>
      <trkpt lat="45.40108" lon="4.57118">
        <ele>1227.7</ele>
        <time>1970-01-01T02:11:09.000Z</time>
      </trkpt>
      <trkpt lat="45.40114" lon="4.57114">
        <ele>1227</ele>
        <time>1970-01-01T02:11:10.000Z</time>
      </trkpt>
      <trkpt lat="45.40118" lon="4.57111">
        <ele>1225.4</ele>
        <time>1970-01-01T02:11:11.000Z</time>
      </trkpt>
      <trkpt lat="45.4012" lon="4.57107">
        <ele>1224.7</ele>
        <time>1970-01-01T02:11:12.000Z</time>
      </trkpt>
      <trkpt lat="45.40122" lon="4.57103">
        <ele>1223.8</ele>
        <time>1970-01-01T02:11:13.000Z</time>
      </trkpt>
      <trkpt lat="45.40124" lon="4.57099">
        <ele>1223.5</ele>
        <time>1970-01-01T02:11:14.000Z</time>
      </trkpt>
      <trkpt lat="45.40127" lon="4.57095">
        <ele>1223.2</ele>
        <time>1970-01-01T02:11:15.000Z</time>
      </trkpt>
      <trkpt lat="45.4013" lon="4.57092">
        <ele>1222.9</ele>
        <time>1970-01-01T02:11:16.000Z</time>
      </trkpt>
      <trkpt lat="45.40134" lon="4.57091">
        <ele>1222.3</ele>
        <time>1970-01-01T02:11:17.000Z</time>
      </trkpt>
      <trkpt lat="45.40139" lon="4.57089">
        <ele>1221.8</ele>
        <time>1970-01-01T02:11:18.000Z</time>
      </trkpt>
      <trkpt lat="45.40146" lon="4.57087">
        <ele>1221.1</ele>
        <time>1970-01-01T02:11:19.000Z</time>
      </trkpt>
      <trkpt lat="45.40151" lon="4.57086">
        <ele>1219.6</ele>
        <time>1970-01-01T02:11:20.000Z</time>
      </trkpt>
      <trkpt lat="45.40155" lon="4.57086">
        <ele>1219.1</ele>
        <time>1970-01-01T02:11:21.000Z</time>
      </trkpt>
      <trkpt lat="45.40158" lon="4.57089">
        <ele>1218.8</ele>
        <time>1970-01-01T02:11:22.000Z</time>
      </trkpt>
      <trkpt lat="45.40163" lon="4.57089">
        <ele>1218</ele>
        <time>1970-01-01T02:11:23.000Z</time>
      </trkpt>
      <trkpt lat="45.40168" lon="4.5709">
        <ele>1216.1</ele>
        <time>1970-01-01T02:11:24.000Z</time>
      </trkpt>
      <trkpt lat="45.40174" lon="4.57091">
        <ele>1215</ele>
        <time>1970-01-01T02:11:25.000Z</time>
      </trkpt>
      <trkpt lat="45.4018" lon="4.57091">
        <ele>1213.6</ele>
        <time>1970-01-01T02:11:26.000Z</time>
      </trkpt>
      <trkpt lat="45.40185" lon="4.57092">
        <ele>1213.1</ele>
        <time>1970-01-01T02:11:27.000Z</time>
      </trkpt>
      <trkpt lat="45.40194" lon="4.57093">
        <ele>1213</ele>
        <time>1970-01-01T02:11:37.000Z</time>
      </trkpt>
      <trkpt lat="45.402" lon="4.5709">
        <ele>1213.7</ele>
        <time>1970-01-01T02:11:52.000Z</time>
      </trkpt>
      <trkpt lat="45.40203" lon="4.57085">
        <ele>1214.9</ele>
        <time>1970-01-01T02:12:12.000Z</time>
      </trkpt>
      <trkpt lat="45.402" lon="4.57084">
        <ele>1215.2</ele>
        <time>1970-01-01T02:12:30.000Z</time>
      </trkpt>
      <trkpt lat="45.40198" lon="4.57086">
        <ele>1215.6</ele>
        <time>1970-01-01T02:12:34.000Z</time>
      </trkpt>
      <trkpt lat="45.40194" lon="4.57087">
        <ele>1216.3</ele>
        <time>1970-01-01T02:12:37.000Z</time>
      </trkpt>
      <trkpt lat="45.40191" lon="4.57088">
        <ele>1217.6</ele>
        <time>1970-01-01T02:12:40.000Z</time>
      </trkpt>
      <trkpt lat="45.40187" lon="4.57089">
        <ele>1218.7</ele>
        <time>1970-01-01T02:12:45.000Z</time>
      </trkpt>
      <trkpt lat="45.40184" lon="4.57089">
        <ele>1219</ele>
        <time>1970-01-01T02:12:50.000Z</time>
      </trkpt>
      <trkpt lat="45.4018" lon="4.57089">
        <ele>1219.3</ele>
        <time>1970-01-01T02:12:53.000Z</time>
      </trkpt>
      <trkpt lat="45.40176" lon="4.5709">
        <ele>1219.8</ele>
        <time>1970-01-01T02:12:55.000Z</time>
      </trkpt>
      <trkpt lat="45.40174" lon="4.57093">
        <ele>1220.3</ele>
        <time>1970-01-01T02:12:57.000Z</time>
      </trkpt>
      <trkpt lat="45.40171" lon="4.57094">
        <ele>1221.2</ele>
        <time>1970-01-01T02:13:03.000Z</time>
      </trkpt>
      <trkpt lat="45.40168" lon="4.57094">
        <ele>1221.6</ele>
        <time>1970-01-01T02:13:10.000Z</time>
      </trkpt>
      <trkpt lat="45.40165" lon="4.57094">
        <ele>1221.8</ele>
        <time>1970-01-01T02:13:14.000Z</time>
      </trkpt>
      <trkpt lat="45.40163" lon="4.57096">
        <ele>1222</ele>
        <time>1970-01-01T02:13:16.000Z</time>
      </trkpt>
      <trkpt lat="45.4016" lon="4.57098">
        <ele>1222.3</ele>
        <time>1970-01-01T02:13:18.000Z</time>
      </trkpt>
      <trkpt lat="45.40158" lon="4.57099">
        <ele>1222.7</ele>
        <time>1970-01-01T02:13:20.000Z</time>
      </trkpt>
      <trkpt lat="45.40154" lon="4.571">
        <ele>1223.1</ele>
        <time>1970-01-01T02:13:23.000Z</time>
      </trkpt>
      <trkpt lat="45.40151" lon="4.57101">
        <ele>1223.3</ele>
        <time>1970-01-01T02:13:25.000Z</time>
      </trkpt>
      <trkpt lat="45.40148" lon="4.57101">
        <ele>1223.5</ele>
        <time>1970-01-01T02:13:27.000Z</time>
      </trkpt>
      <trkpt lat="45.40144" lon="4.57102">
        <ele>1223.7</ele>
        <time>1970-01-01T02:13:31.000Z</time>
      </trkpt>
      <trkpt lat="45.40141" lon="4.57103">
        <ele>1224.5</ele>
        <time>1970-01-01T02:13:35.000Z</time>
      </trkpt>
      <trkpt lat="45.40138" lon="4.57105">
        <ele>1225.2</ele>
        <time>1970-01-01T02:13:41.000Z</time>
      </trkpt>
      <trkpt lat="45.40135" lon="4.57107">
        <ele>1225.6</ele>
        <time>1970-01-01T02:13:47.000Z</time>
      </trkpt>
      <trkpt lat="45.40131" lon="4.57105">
        <ele>1227.1</ele>
        <time>1970-01-01T02:13:49.000Z</time>
      </trkpt>
      <trkpt lat="45.40126" lon="4.57106">
        <ele>1227.7</ele>
        <time>1970-01-01T02:13:51.000Z</time>
      </trkpt>
      <trkpt lat="45.40123" lon="4.57107">
        <ele>1228</ele>
        <time>1970-01-01T02:13:52.000Z</time>
      </trkpt>
      <trkpt lat="45.4012" lon="4.57105">
        <ele>1228.8</ele>
        <time>1970-01-01T02:13:54.000Z</time>
      </trkpt>
      <trkpt lat="45.40115" lon="4.57106">
        <ele>1229.3</ele>
        <time>1970-01-01T02:13:57.000Z</time>
      </trkpt>
      <trkpt lat="45.40112" lon="4.57109">
        <ele>1229.6</ele>
        <time>1970-01-01T02:13:58.000Z</time>
      </trkpt>
      <trkpt lat="45.4011" lon="4.57114">
        <ele>1229.9</ele>
        <time>1970-01-01T02:14:00.000Z</time>
      </trkpt>
      <trkpt lat="45.40107" lon="4.57117">
        <ele>1230.2</ele>
        <time>1970-01-01T02:14:01.000Z</time>
      </trkpt>
      <trkpt lat="45.40104" lon="4.57118">
        <ele>1230.6</ele>
        <time>1970-01-01T02:14:03.000Z</time>
      </trkpt>
      <trkpt lat="45.40101" lon="4.57117">
        <ele>1231.5</ele>
        <time>1970-01-01T02:14:07.000Z</time>
      </trkpt>
      <trkpt lat="45.40099" lon="4.5712">
        <ele>1231.8</ele>
        <time>1970-01-01T02:14:11.000Z</time>
      </trkpt>
      <trkpt lat="45.40096" lon="4.57119">
        <ele>1232.2</ele>
        <time>1970-01-01T02:14:16.000Z</time>
      </trkpt>
      <trkpt lat="45.40093" lon="4.57118">
        <ele>1232.8</ele>
        <time>1970-01-01T02:14:23.000Z</time>
      </trkpt>
      <trkpt lat="45.4009" lon="4.57119">
        <ele>1233.5</ele>
        <time>1970-01-01T02:14:29.000Z</time>
      </trkpt>
      <trkpt lat="45.40087" lon="4.5712">
        <ele>1234</ele>
        <time>1970-01-01T02:14:33.000Z</time>
      </trkpt>
      <trkpt lat="45.40084" lon="4.57119">
        <ele>1235</ele>
        <time>1970-01-01T02:14:34.000Z</time>
      </trkpt>
      <trkpt lat="45.4008" lon="4.57118">
        <ele>1235.6</ele>
        <time>1970-01-01T02:14:35.000Z</time>
      </trkpt>
      <trkpt lat="45.40075" lon="4.57119">
        <ele>1236.2</ele>
        <time>1970-01-01T02:14:37.000Z</time>
      </trkpt>
      <trkpt lat="45.4007" lon="4.5712">
        <ele>1237.4</ele>
        <time>1970-01-01T02:14:40.000Z</time>
      </trkpt>
      <trkpt lat="45.40067" lon="4.57125">
        <ele>1237.9</ele>
        <time>1970-01-01T02:14:42.000Z</time>
      </trkpt>
      <trkpt lat="45.40064" lon="4.57127">
        <ele>1238.1</ele>
        <time>1970-01-01T02:14:51.000Z</time>
      </trkpt>
      <trkpt lat="45.40061" lon="4.5713">
        <ele>1238.5</ele>
        <time>1970-01-01T02:14:54.000Z</time>
      </trkpt>
      <trkpt lat="45.40058" lon="4.57127">
        <ele>1239</ele>
        <time>1970-01-01T02:14:59.000Z</time>
      </trkpt>
      <trkpt lat="45.40055" lon="4.57127">
        <ele>1239.7</ele>
        <time>1970-01-01T02:15:01.000Z</time>
      </trkpt>
      <trkpt lat="45.40052" lon="4.57127">
        <ele>1239.9</ele>
        <time>1970-01-01T02:15:03.000Z</time>
      </trkpt>
      <trkpt lat="45.40048" lon="4.57128">
        <ele>1240.2</ele>
        <time>1970-01-01T02:15:04.000Z</time>
      </trkpt>
      <trkpt lat="45.40045" lon="4.57129">
        <ele>1240.4</ele>
        <time>1970-01-01T02:15:05.000Z</time>
      </trkpt>
      <trkpt lat="45.40041" lon="4.57126">
        <ele>1241.7</ele>
        <time>1970-01-01T02:15:06.000Z</time>
      </trkpt>
      <trkpt lat="45.40036" lon="4.57124">
        <ele>1242.1</ele>
        <time>1970-01-01T02:15:07.000Z</time>
      </trkpt>
      <trkpt lat="45.40033" lon="4.57123">
        <ele>1242.2</ele>
        <time>1970-01-01T02:15:08.000Z</time>
      </trkpt>
      <trkpt lat="45.40031" lon="4.57122">
        <ele>1242.4</ele>
        <time>1970-01-01T02:15:09.000Z</time>
      </trkpt>
      <trkpt lat="45.40027" lon="4.57124">
        <ele>1242.7</ele>
        <time>1970-01-01T02:15:10.000Z</time>
      </trkpt>
      <trkpt lat="45.40024" lon="4.57124">
        <ele>1242.9</ele>
        <time>1970-01-01T02:15:12.000Z</time>
      </trkpt>
      <trkpt lat="45.40021" lon="4.57125">
        <ele>1243.4</ele>
        <time>1970-01-01T02:15:15.000Z</time>
      </trkpt>
      <trkpt lat="45.40017" lon="4.57129">
        <ele>1244.3</ele>
        <time>1970-01-01T02:15:17.000Z</time>
      </trkpt>
      <trkpt lat="45.40014" lon="4.57132">
        <ele>1244.7</ele>
        <time>1970-01-01T02:15:20.000Z</time>
      </trkpt>
      <trkpt lat="45.4001" lon="4.57128">
        <ele>1245.9</ele>
        <time>1970-01-01T02:15:25.000Z</time>
      </trkpt>
      <trkpt lat="45.40008" lon="4.57125">
        <ele>1246.4</ele>
        <time>1970-01-01T02:15:26.000Z</time>
      </trkpt>
      <trkpt lat="45.40004" lon="4.57125">
        <ele>1246.7</ele>
        <time>1970-01-01T02:15:28.000Z</time>
      </trkpt>
      <trkpt lat="45.40001" lon="4.57125">
        <ele>1246.9</ele>
        <time>1970-01-01T02:15:30.000Z</time>
      </trkpt>
      <trkpt lat="45.39998" lon="4.57124">
        <ele>1247.5</ele>
        <time>1970-01-01T02:15:32.000Z</time>
      </trkpt>
      <trkpt lat="45.39995" lon="4.57122">
        <ele>1247.9</ele>
        <time>1970-01-01T02:15:34.000Z</time>
      </trkpt>
      <trkpt lat="45.39992" lon="4.57122">
        <ele>1248.2</ele>
        <time>1970-01-01T02:15:35.000Z</time>
      </trkpt>
      <trkpt lat="45.39989" lon="4.5712">
        <ele>1248.4</ele>
        <time>1970-01-01T02:15:37.000Z</time>
      </trkpt>
      <trkpt lat="45.39986" lon="4.57118">
        <ele>1248.7</ele>
        <time>1970-01-01T02:15:39.000Z</time>
      </trkpt>
      <trkpt lat="45.39981" lon="4.57117">
        <ele>1249.2</ele>
        <time>1970-01-01T02:15:42.000Z</time>
      </trkpt>
      <trkpt lat="45.39978" lon="4.57116">
        <ele>1249.8</ele>
        <time>1970-01-01T02:15:43.000Z</time>
      </trkpt>
      <trkpt lat="45.39975" lon="4.57115">
        <ele>1250.5</ele>
        <time>1970-01-01T02:15:46.000Z</time>
      </trkpt>
      <trkpt lat="45.3997" lon="4.57116">
        <ele>1250.8</ele>
        <time>1970-01-01T02:15:50.000Z</time>
      </trkpt>
      <trkpt lat="45.39967" lon="4.57117">
        <ele>1251.1</ele>
        <time>1970-01-01T02:15:52.000Z</time>
      </trkpt>
      <trkpt lat="45.39963" lon="4.57116">
        <ele>1251.5</ele>
        <time>1970-01-01T02:15:54.000Z</time>
      </trkpt>
      <trkpt lat="45.39959" lon="4.57114">
        <ele>1252.1</ele>
        <time>1970-01-01T02:15:55.000Z</time>
      </trkpt>
      <trkpt lat="45.39957" lon="4.57117">
        <ele>1252.7</ele>
        <time>1970-01-01T02:15:58.000Z</time>
      </trkpt>
      <trkpt lat="45.39953" lon="4.57118">
        <ele>1253.3</ele>
        <time>1970-01-01T02:16:00.000Z</time>
      </trkpt>
      <trkpt lat="45.39948" lon="4.57117">
        <ele>1254.2</ele>
        <time>1970-01-01T02:16:02.000Z</time>
      </trkpt>
      <trkpt lat="45.39943" lon="4.57116">
        <ele>1254.9</ele>
        <time>1970-01-01T02:16:03.000Z</time>
      </trkpt>
      <trkpt lat="45.39939" lon="4.57118">
        <ele>1255.2</ele>
        <time>1970-01-01T02:16:05.000Z</time>
      </trkpt>
      <trkpt lat="45.39937" lon="4.57119">
        <ele>1255.5</ele>
        <time>1970-01-01T02:16:07.000Z</time>
      </trkpt>
      <trkpt lat="45.39934" lon="4.57117">
        <ele>1255.8</ele>
        <time>1970-01-01T02:16:12.000Z</time>
      </trkpt>
      <trkpt lat="45.3993" lon="4.57117">
        <ele>1256.7</ele>
        <time>1970-01-01T02:16:15.000Z</time>
      </trkpt>
      <trkpt lat="45.39926" lon="4.57117">
        <ele>1257</ele>
        <time>1970-01-01T02:16:18.000Z</time>
      </trkpt>
      <trkpt lat="45.39922" lon="4.57119">
        <ele>1257.4</ele>
        <time>1970-01-01T02:16:20.000Z</time>
      </trkpt>
      <trkpt lat="45.39919" lon="4.57122">
        <ele>1258.1</ele>
        <time>1970-01-01T02:16:22.000Z</time>
      </trkpt>
      <trkpt lat="45.39917" lon="4.57128">
        <ele>1259</ele>
        <time>1970-01-01T02:16:24.000Z</time>
      </trkpt>
      <trkpt lat="45.39915" lon="4.57132">
        <ele>1259.4</ele>
        <time>1970-01-01T02:16:26.000Z</time>
      </trkpt>
      <trkpt lat="45.39912" lon="4.57135">
        <ele>1259.7</ele>
        <time>1970-01-01T02:16:30.000Z</time>
      </trkpt>
      <trkpt lat="45.39909" lon="4.57134">
        <ele>1260</ele>
        <time>1970-01-01T02:16:32.000Z</time>
      </trkpt>
      <trkpt lat="45.39907" lon="4.5713">
        <ele>1260.7</ele>
        <time>1970-01-01T02:16:36.000Z</time>
      </trkpt>
      <trkpt lat="45.39904" lon="4.57127">
        <ele>1261.3</ele>
        <time>1970-01-01T02:16:38.000Z</time>
      </trkpt>
      <trkpt lat="45.39901" lon="4.57127">
        <ele>1261.5</ele>
        <time>1970-01-01T02:16:40.000Z</time>
      </trkpt>
      <trkpt lat="45.39898" lon="4.57127">
        <ele>1261.7</ele>
        <time>1970-01-01T02:16:43.000Z</time>
      </trkpt>
      <trkpt lat="45.39894" lon="4.57124">
        <ele>1262.7</ele>
        <time>1970-01-01T02:16:47.000Z</time>
      </trkpt>
      <trkpt lat="45.3989" lon="4.57124">
        <ele>1263.4</ele>
        <time>1970-01-01T02:16:49.000Z</time>
      </trkpt>
      <trkpt lat="45.39886" lon="4.57125">
        <ele>1263.8</ele>
        <time>1970-01-01T02:16:51.000Z</time>
      </trkpt>
      <trkpt lat="45.39883" lon="4.57126">
        <ele>1264.4</ele>
        <time>1970-01-01T02:16:52.000Z</time>
      </trkpt>
      <trkpt lat="45.3988" lon="4.57125">
        <ele>1264.9</ele>
        <time>1970-01-01T02:16:54.000Z</time>
      </trkpt>
      <trkpt lat="45.39877" lon="4.57127">
        <ele>1265.2</ele>
        <time>1970-01-01T02:16:56.000Z</time>
      </trkpt>
      <trkpt lat="45.39874" lon="4.57125">
        <ele>1265.6</ele>
        <time>1970-01-01T02:17:01.000Z</time>
      </trkpt>
      <trkpt lat="45.3987" lon="4.57124">
        <ele>1265.9</ele>
        <time>1970-01-01T02:17:03.000Z</time>
      </trkpt>
      <trkpt lat="45.39868" lon="4.57123">
        <ele>1266.3</ele>
        <time>1970-01-01T02:17:07.000Z</time>
      </trkpt>
      <trkpt lat="45.39865" lon="4.57122">
        <ele>1266.8</ele>
        <time>1970-01-01T02:17:09.000Z</time>
      </trkpt>
      <trkpt lat="45.39862" lon="4.57123">
        <ele>1267.3</ele>
        <time>1970-01-01T02:18:11.000Z</time>
      </trkpt>
      <trkpt lat="45.39858" lon="4.57125">
        <ele>1267.6</ele>
        <time>1970-01-01T02:18:14.000Z</time>
      </trkpt>
      <trkpt lat="45.39857" lon="4.5713">
        <ele>1267.9</ele>
        <time>1970-01-01T02:18:16.000Z</time>
      </trkpt>
      <trkpt lat="45.39855" lon="4.57134">
        <ele>1268.3</ele>
        <time>1970-01-01T02:18:18.000Z</time>
      </trkpt>
      <trkpt lat="45.39851" lon="4.57138">
        <ele>1269.2</ele>
        <time>1970-01-01T02:18:20.000Z</time>
      </trkpt>
      <trkpt lat="45.39848" lon="4.57137">
        <ele>1269.5</ele>
        <time>1970-01-01T02:18:22.000Z</time>
      </trkpt>
      <trkpt lat="45.39844" lon="4.57136">
        <ele>1269.8</ele>
        <time>1970-01-01T02:18:26.000Z</time>
      </trkpt>
      <trkpt lat="45.39841" lon="4.57134">
        <ele>1270.1</ele>
        <time>1970-01-01T02:18:28.000Z</time>
      </trkpt>
      <trkpt lat="45.39838" lon="4.57134">
        <ele>1270.5</ele>
        <time>1970-01-01T02:18:31.000Z</time>
      </trkpt>
      <trkpt lat="45.39834" lon="4.57135">
        <ele>1271.2</ele>
        <time>1970-01-01T02:18:34.000Z</time>
      </trkpt>
      <trkpt lat="45.3983" lon="4.57136">
        <ele>1271.5</ele>
        <time>1970-01-01T02:18:36.000Z</time>
      </trkpt>
      <trkpt lat="45.39828" lon="4.57136">
        <ele>1271.7</ele>
        <time>1970-01-01T02:18:38.000Z</time>
      </trkpt>
      <trkpt lat="45.39825" lon="4.57134">
        <ele>1272.1</ele>
        <time>1970-01-01T02:18:42.000Z</time>
      </trkpt>
      <trkpt lat="45.3982" lon="4.57133">
        <ele>1272.8</ele>
        <time>1970-01-01T02:18:45.000Z</time>
      </trkpt>
      <trkpt lat="45.39816" lon="4.57132">
        <ele>1273.5</ele>
        <time>1970-01-01T02:18:50.000Z</time>
      </trkpt>
      <trkpt lat="45.39812" lon="4.57133">
        <ele>1274.1</ele>
        <time>1970-01-01T02:18:52.000Z</time>
      </trkpt>
      <trkpt lat="45.3981" lon="4.57136">
        <ele>1274.7</ele>
        <time>1970-01-01T02:18:54.000Z</time>
      </trkpt>
      <trkpt lat="45.39806" lon="4.57137">
        <ele>1275.5</ele>
        <time>1970-01-01T02:18:56.000Z</time>
      </trkpt>
      <trkpt lat="45.39803" lon="4.57137">
        <ele>1275.9</ele>
        <time>1970-01-01T02:18:59.000Z</time>
      </trkpt>
      <trkpt lat="45.39799" lon="4.57136">
        <ele>1276.1</ele>
        <time>1970-01-01T02:19:02.000Z</time>
      </trkpt>
      <trkpt lat="45.39795" lon="4.57137">
        <ele>1276.4</ele>
        <time>1970-01-01T02:19:04.000Z</time>
      </trkpt>
      <trkpt lat="45.39791" lon="4.57137">
        <ele>1276.8</ele>
        <time>1970-01-01T02:19:06.000Z</time>
      </trkpt>
      <trkpt lat="45.39788" lon="4.57136">
        <ele>1277.4</ele>
        <time>1970-01-01T02:19:08.000Z</time>
      </trkpt>
      <trkpt lat="45.39784" lon="4.57136">
        <ele>1277.9</ele>
        <time>1970-01-01T02:19:10.000Z</time>
      </trkpt>
      <trkpt lat="45.39781" lon="4.57137">
        <ele>1278.2</ele>
        <time>1970-01-01T02:19:13.000Z</time>
      </trkpt>
      <trkpt lat="45.39778" lon="4.57138">
        <ele>1278.4</ele>
        <time>1970-01-01T02:19:15.000Z</time>
      </trkpt>
      <trkpt lat="45.39775" lon="4.5714">
        <ele>1278.8</ele>
        <time>1970-01-01T02:19:18.000Z</time>
      </trkpt>
      <trkpt lat="45.39772" lon="4.5714">
        <ele>1279.3</ele>
        <time>1970-01-01T02:19:21.000Z</time>
      </trkpt>
      <trkpt lat="45.39769" lon="4.5714">
        <ele>1279.7</ele>
        <time>1970-01-01T02:19:23.000Z</time>
      </trkpt>
      <trkpt lat="45.39766" lon="4.57141">
        <ele>1279.9</ele>
        <time>1970-01-01T02:19:24.000Z</time>
      </trkpt>
      <trkpt lat="45.39762" lon="4.57142">
        <ele>1280.1</ele>
        <time>1970-01-01T02:19:26.000Z</time>
      </trkpt>
      <trkpt lat="45.39759" lon="4.57143">
        <ele>1280.5</ele>
        <time>1970-01-01T02:19:30.000Z</time>
      </trkpt>
      <trkpt lat="45.39756" lon="4.57145">
        <ele>1280.8</ele>
        <time>1970-01-01T02:19:32.000Z</time>
      </trkpt>
      <trkpt lat="45.39754" lon="4.57149">
        <ele>1281.4</ele>
        <time>1970-01-01T02:19:34.000Z</time>
      </trkpt>
      <trkpt lat="45.39752" lon="4.57151">
        <ele>1281.8</ele>
        <time>1970-01-01T02:19:38.000Z</time>
      </trkpt>
      <trkpt lat="45.39748" lon="4.57152">
        <ele>1282.2</ele>
        <time>1970-01-01T02:19:40.000Z</time>
      </trkpt>
      <trkpt lat="45.39746" lon="4.57153">
        <ele>1282.4</ele>
        <time>1970-01-01T02:19:43.000Z</time>
      </trkpt>
      <trkpt lat="45.39743" lon="4.57156">
        <ele>1282.6</ele>
        <time>1970-01-01T02:19:45.000Z</time>
      </trkpt>
      <trkpt lat="45.39741" lon="4.5716">
        <ele>1282.9</ele>
        <time>1970-01-01T02:19:48.000Z</time>
      </trkpt>
      <trkpt lat="45.39739" lon="4.57163">
        <ele>1283.7</ele>
        <time>1970-01-01T02:19:50.000Z</time>
      </trkpt>
      <trkpt lat="45.39735" lon="4.57165">
        <ele>1283.8</ele>
        <time>1970-01-01T02:19:53.000Z</time>
      </trkpt>
      <trkpt lat="45.39731" lon="4.57165">
        <ele>1284</ele>
        <time>1970-01-01T02:19:56.000Z</time>
      </trkpt>
      <trkpt lat="45.39728" lon="4.57165">
        <ele>1284</ele>
        <time>1970-01-01T02:19:57.000Z</time>
      </trkpt>
      <trkpt lat="45.39723" lon="4.57164">
        <ele>1284.2</ele>
        <time>1970-01-01T02:19:59.000Z</time>
      </trkpt>
      <trkpt lat="45.3972" lon="4.57164">
        <ele>1284.3</ele>
        <time>1970-01-01T02:20:01.000Z</time>
      </trkpt>
      <trkpt lat="45.39716" lon="4.57165">
        <ele>1284.4</ele>
        <time>1970-01-01T02:20:03.000Z</time>
      </trkpt>
      <trkpt lat="45.39713" lon="4.57166">
        <ele>1284.6</ele>
        <time>1970-01-01T02:20:06.000Z</time>
      </trkpt>
      <trkpt lat="45.39709" lon="4.57165">
        <ele>1284.8</ele>
        <time>1970-01-01T02:20:09.000Z</time>
      </trkpt>
      <trkpt lat="45.39705" lon="4.57164">
        <ele>1285.4</ele>
        <time>1970-01-01T02:20:13.000Z</time>
      </trkpt>
      <trkpt lat="45.39702" lon="4.57168">
        <ele>1286</ele>
        <time>1970-01-01T02:20:15.000Z</time>
      </trkpt>
      <trkpt lat="45.397" lon="4.57169">
        <ele>1286.2</ele>
        <time>1970-01-01T02:20:17.000Z</time>
      </trkpt>
      <trkpt lat="45.39696" lon="4.57168">
        <ele>1286.4</ele>
        <time>1970-01-01T02:20:20.000Z</time>
      </trkpt>
      <trkpt lat="45.39693" lon="4.57167">
        <ele>1286.7</ele>
        <time>1970-01-01T02:20:24.000Z</time>
      </trkpt>
      <trkpt lat="45.39689" lon="4.57164">
        <ele>1287</ele>
        <time>1970-01-01T02:20:26.000Z</time>
      </trkpt>
      <trkpt lat="45.39685" lon="4.57164">
        <ele>1287.5</ele>
        <time>1970-01-01T02:20:30.000Z</time>
      </trkpt>
      <trkpt lat="45.3968" lon="4.57165">
        <ele>1287.9</ele>
        <time>1970-01-01T02:20:31.000Z</time>
      </trkpt>
      <trkpt lat="45.39675" lon="4.57166">
        <ele>1288.1</ele>
        <time>1970-01-01T02:20:33.000Z</time>
      </trkpt>
      <trkpt lat="45.39671" lon="4.57164">
        <ele>1288.2</ele>
        <time>1970-01-01T02:20:35.000Z</time>
      </trkpt>
      <trkpt lat="45.39668" lon="4.57163">
        <ele>1288.3</ele>
        <time>1970-01-01T02:20:37.000Z</time>
      </trkpt>
      <trkpt lat="45.39664" lon="4.57162">
        <ele>1288.4</ele>
        <time>1970-01-01T02:20:41.000Z</time>
      </trkpt>
      <trkpt lat="45.3966" lon="4.57162">
        <ele>1288.5</ele>
        <time>1970-01-01T02:20:42.000Z</time>
      </trkpt>
      <trkpt lat="45.39656" lon="4.57162">
        <ele>1288.6</ele>
        <time>1970-01-01T02:20:44.000Z</time>
      </trkpt>
      <trkpt lat="45.39653" lon="4.5716">
        <ele>1288.7</ele>
        <time>1970-01-01T02:20:46.000Z</time>
      </trkpt>
      <trkpt lat="45.3965" lon="4.57158">
        <ele>1288.8</ele>
        <time>1970-01-01T02:20:47.000Z</time>
      </trkpt>
      <trkpt lat="45.39648" lon="4.57157">
        <ele>1288.9</ele>
        <time>1970-01-01T02:20:48.000Z</time>
      </trkpt>
      <trkpt lat="45.39644" lon="4.57155">
        <ele>1289.2</ele>
        <time>1970-01-01T02:20:50.000Z</time>
      </trkpt>
      <trkpt lat="45.39641" lon="4.57155">
        <ele>1289.6</ele>
        <time>1970-01-01T02:20:51.000Z</time>
      </trkpt>
      <trkpt lat="45.39638" lon="4.57154">
        <ele>1289.9</ele>
        <time>1970-01-01T02:20:54.000Z</time>
      </trkpt>
      <trkpt lat="45.39634" lon="4.57153">
        <ele>1290.2</ele>
        <time>1970-01-01T02:20:57.000Z</time>
      </trkpt>
      <trkpt lat="45.39632" lon="4.57152">
        <ele>1290.2</ele>
        <time>1970-01-01T02:20:59.000Z</time>
      </trkpt>
      <trkpt lat="45.39627" lon="4.57151">
        <ele>1290.3</ele>
        <time>1970-01-01T02:21:02.000Z</time>
      </trkpt>
      <trkpt lat="45.39623" lon="4.5715">
        <ele>1290.4</ele>
        <time>1970-01-01T02:21:04.000Z</time>
      </trkpt>
      <trkpt lat="45.39619" lon="4.57152">
        <ele>1290.5</ele>
        <time>1970-01-01T02:21:06.000Z</time>
      </trkpt>
      <trkpt lat="45.39614" lon="4.57153">
        <ele>1290.5</ele>
        <time>1970-01-01T02:21:08.000Z</time>
      </trkpt>
      <trkpt lat="45.39612" lon="4.57153">
        <ele>1290.6</ele>
        <time>1970-01-01T02:21:10.000Z</time>
      </trkpt>
      <trkpt lat="45.39607" lon="4.57152">
        <ele>1290.6</ele>
        <time>1970-01-01T02:21:12.000Z</time>
      </trkpt>
      <trkpt lat="45.39603" lon="4.57151">
        <ele>1290.8</ele>
        <time>1970-01-01T02:21:14.000Z</time>
      </trkpt>
      <trkpt lat="45.396" lon="4.57151">
        <ele>1290.9</ele>
        <time>1970-01-01T02:21:17.000Z</time>
      </trkpt>
      <trkpt lat="45.39595" lon="4.57151">
        <ele>1291.2</ele>
        <time>1970-01-01T02:21:19.000Z</time>
      </trkpt>
      <trkpt lat="45.39591" lon="4.57151">
        <ele>1291.5</ele>
        <time>1970-01-01T02:21:21.000Z</time>
      </trkpt>
      <trkpt lat="45.39587" lon="4.57151">
        <ele>1291.8</ele>
        <time>1970-01-01T02:21:23.000Z</time>
      </trkpt>
      <trkpt lat="45.39583" lon="4.5715">
        <ele>1292.2</ele>
        <time>1970-01-01T02:21:25.000Z</time>
      </trkpt>
      <trkpt lat="45.3958" lon="4.57149">
        <ele>1292.6</ele>
        <time>1970-01-01T02:21:28.000Z</time>
      </trkpt>
      <trkpt lat="45.39576" lon="4.57149">
        <ele>1292.9</ele>
        <time>1970-01-01T02:21:31.000Z</time>
      </trkpt>
      <trkpt lat="45.39572" lon="4.57146">
        <ele>1293.2</ele>
        <time>1970-01-01T02:21:33.000Z</time>
      </trkpt>
      <trkpt lat="45.39569" lon="4.57147">
        <ele>1293.4</ele>
        <time>1970-01-01T02:21:34.000Z</time>
      </trkpt>
      <trkpt lat="45.39565" lon="4.5715">
        <ele>1293.8</ele>
        <time>1970-01-01T02:21:36.000Z</time>
      </trkpt>
      <trkpt lat="45.3956" lon="4.5715">
        <ele>1294.4</ele>
        <time>1970-01-01T02:21:38.000Z</time>
      </trkpt>
      <trkpt lat="45.39557" lon="4.57151">
        <ele>1294.6</ele>
        <time>1970-01-01T02:21:39.000Z</time>
      </trkpt>
      <trkpt lat="45.39553" lon="4.57152">
        <ele>1294.8</ele>
        <time>1970-01-01T02:21:40.000Z</time>
      </trkpt>
      <trkpt lat="45.39548" lon="4.57155">
        <ele>1294.8</ele>
        <time>1970-01-01T02:21:42.000Z</time>
      </trkpt>
      <trkpt lat="45.39544" lon="4.57156">
        <ele>1294.9</ele>
        <time>1970-01-01T02:21:44.000Z</time>
      </trkpt>
      <trkpt lat="45.39541" lon="4.57155">
        <ele>1294.9</ele>
        <time>1970-01-01T02:21:46.000Z</time>
      </trkpt>
      <trkpt lat="45.39538" lon="4.57157">
        <ele>1294.9</ele>
        <time>1970-01-01T02:21:48.000Z</time>
      </trkpt>
      <trkpt lat="45.39536" lon="4.5716">
        <ele>1295</ele>
        <time>1970-01-01T02:21:49.000Z</time>
      </trkpt>
      <trkpt lat="45.39533" lon="4.57164">
        <ele>1295</ele>
        <time>1970-01-01T02:21:51.000Z</time>
      </trkpt>
      <trkpt lat="45.39535" lon="4.57161">
        <ele>1295</ele>
        <time>1970-01-01T02:21:55.000Z</time>
      </trkpt>
      <trkpt lat="45.39537" lon="4.57165">
        <ele>1295</ele>
        <time>1970-01-01T02:22:07.000Z</time>
      </trkpt>
      <trkpt lat="45.3954" lon="4.57167">
        <ele>1294.7</ele>
        <time>1970-01-01T02:22:14.000Z</time>
      </trkpt>
      <trkpt lat="45.39543" lon="4.57165">
        <ele>1294.3</ele>
        <time>1970-01-01T02:22:15.000Z</time>
      </trkpt>
      <trkpt lat="45.39546" lon="4.57164">
        <ele>1293.7</ele>
        <time>1970-01-01T02:22:18.000Z</time>
      </trkpt>
      <trkpt lat="45.39548" lon="4.57161">
        <ele>1293.4</ele>
        <time>1970-01-01T02:22:20.000Z</time>
      </trkpt>
      <trkpt lat="45.39547" lon="4.57158">
        <ele>1293.2</ele>
        <time>1970-01-01T02:22:22.000Z</time>
      </trkpt>
      <trkpt lat="45.39543" lon="4.57159">
        <ele>1293.8</ele>
        <time>1970-01-01T02:22:24.000Z</time>
      </trkpt>
      <trkpt lat="45.39542" lon="4.57164">
        <ele>1294</ele>
        <time>1970-01-01T02:22:25.000Z</time>
      </trkpt>
      <trkpt lat="45.39539" lon="4.57169">
        <ele>1294.9</ele>
        <time>1970-01-01T02:22:27.000Z</time>
      </trkpt>
      <trkpt lat="45.39539" lon="4.57173">
        <ele>1295.2</ele>
        <time>1970-01-01T02:22:39.000Z</time>
      </trkpt>
      <trkpt lat="45.39542" lon="4.57169">
        <ele>1294.5</ele>
        <time>1970-01-01T02:22:46.000Z</time>
      </trkpt>
      <trkpt lat="45.39547" lon="4.57166">
        <ele>1293.5</ele>
        <time>1970-01-01T02:22:49.000Z</time>
      </trkpt>
      <trkpt lat="45.39548" lon="4.5716">
        <ele>1293.3</ele>
        <time>1970-01-01T02:22:52.000Z</time>
      </trkpt>
      <trkpt lat="45.39546" lon="4.57157">
        <ele>1293.4</ele>
        <time>1970-01-01T02:22:54.000Z</time>
      </trkpt>
      <trkpt lat="45.39542" lon="4.57158">
        <ele>1293.7</ele>
        <time>1970-01-01T02:22:56.000Z</time>
      </trkpt>
      <trkpt lat="45.3954" lon="4.57162">
        <ele>1294.3</ele>
        <time>1970-01-01T02:22:57.000Z</time>
      </trkpt>
      <trkpt lat="45.39538" lon="4.57166">
        <ele>1294.5</ele>
        <time>1970-01-01T02:22:58.000Z</time>
      </trkpt>
      <trkpt lat="45.39537" lon="4.57169">
        <ele>1295.1</ele>
        <time>1970-01-01T02:22:59.000Z</time>
      </trkpt>
      <trkpt lat="45.39538" lon="4.57173">
        <ele>1294.8</ele>
        <time>1970-01-01T02:23:10.000Z</time>
      </trkpt>
      <trkpt lat="45.39542" lon="4.57171">
        <ele>1294.4</ele>
        <time>1970-01-01T02:23:24.000Z</time>
      </trkpt>
      <trkpt lat="45.39545" lon="4.5717">
        <ele>1294.1</ele>
        <time>1970-01-01T02:23:26.000Z</time>
      </trkpt>
      <trkpt lat="45.39543" lon="4.57171">
        <ele>1294.4</ele>
        <time>1970-01-01T02:23:30.000Z</time>
      </trkpt>
      <trkpt lat="45.39541" lon="4.57175">
        <ele>1294.7</ele>
        <time>1970-01-01T02:23:31.000Z</time>
      </trkpt>
      <trkpt lat="45.3954" lon="4.57179">
        <ele>1295.5</ele>
        <time>1970-01-01T02:23:32.000Z</time>
      </trkpt>
      <trkpt lat="45.39537" lon="4.5718">
        <ele>1295.8</ele>
        <time>1970-01-01T02:23:37.000Z</time>
      </trkpt>
      <trkpt lat="45.39534" lon="4.57176">
        <ele>1295.7</ele>
        <time>1970-01-01T02:24:02.000Z</time>
      </trkpt>
      <trkpt lat="45.39535" lon="4.57172">
        <ele>1295</ele>
        <time>1970-01-01T02:24:19.000Z</time>
      </trkpt>
      <trkpt lat="45.39534" lon="4.57166">
        <ele>1295</ele>
        <time>1970-01-01T02:24:21.000Z</time>
      </trkpt>
      <trkpt lat="45.3953" lon="4.57164">
        <ele>1295.1</ele>
        <time>1970-01-01T02:24:24.000Z</time>
      </trkpt>
      <trkpt lat="45.39526" lon="4.57164">
        <ele>1295.2</ele>
        <time>1970-01-01T02:24:27.000Z</time>
      </trkpt>
      <trkpt lat="45.39522" lon="4.57165">
        <ele>1295.3</ele>
        <time>1970-01-01T02:24:29.000Z</time>
      </trkpt>
      <trkpt lat="45.39518" lon="4.57166">
        <ele>1295.4</ele>
        <time>1970-01-01T02:24:31.000Z</time>
      </trkpt>
      <trkpt lat="45.39515" lon="4.57165">
        <ele>1295.5</ele>
        <time>1970-01-01T02:24:33.000Z</time>
      </trkpt>
      <trkpt lat="45.39512" lon="4.57164">
        <ele>1295.6</ele>
        <time>1970-01-01T02:24:34.000Z</time>
      </trkpt>
      <trkpt lat="45.39506" lon="4.57162">
        <ele>1295.7</ele>
        <time>1970-01-01T02:24:36.000Z</time>
      </trkpt>
      <trkpt lat="45.39501" lon="4.57162">
        <ele>1295.8</ele>
        <time>1970-01-01T02:24:38.000Z</time>
      </trkpt>
      <trkpt lat="45.39498" lon="4.57161">
        <ele>1295.8</ele>
        <time>1970-01-01T02:24:39.000Z</time>
      </trkpt>
      <trkpt lat="45.39495" lon="4.57162">
        <ele>1295.8</ele>
        <time>1970-01-01T02:24:41.000Z</time>
      </trkpt>
      <trkpt lat="45.39491" lon="4.57162">
        <ele>1295.9</ele>
        <time>1970-01-01T02:24:43.000Z</time>
      </trkpt>
      <trkpt lat="45.39487" lon="4.57164">
        <ele>1295.9</ele>
        <time>1970-01-01T02:24:45.000Z</time>
      </trkpt>
      <trkpt lat="45.39484" lon="4.57164">
        <ele>1295.9</ele>
        <time>1970-01-01T02:24:47.000Z</time>
      </trkpt>
      <trkpt lat="45.39481" lon="4.57165">
        <ele>1295.9</ele>
        <time>1970-01-01T02:24:50.000Z</time>
      </trkpt>
      <trkpt lat="45.39478" lon="4.57162">
        <ele>1295.9</ele>
        <time>1970-01-01T02:25:02.000Z</time>
      </trkpt>
      <trkpt lat="45.39479" lon="4.57166">
        <ele>1295.9</ele>
        <time>1970-01-01T02:25:16.000Z</time>
      </trkpt>
      <trkpt lat="45.3948" lon="4.5717">
        <ele>1295.9</ele>
        <time>1970-01-01T02:25:21.000Z</time>
      </trkpt>
      <trkpt lat="45.39478" lon="4.57174">
        <ele>1295.9</ele>
        <time>1970-01-01T02:25:50.000Z</time>
      </trkpt>
      <trkpt lat="45.39476" lon="4.57177">
        <ele>1295.9</ele>
        <time>1970-01-01T02:25:57.000Z</time>
      </trkpt>
      <trkpt lat="45.39473" lon="4.57175">
        <ele>1295.9</ele>
        <time>1970-01-01T02:26:42.000Z</time>
      </trkpt>
      <trkpt lat="45.39471" lon="4.57176">
        <ele>1295.9</ele>
        <time>1970-01-01T02:26:51.000Z</time>
      </trkpt>
      <trkpt lat="45.39469" lon="4.57172">
        <ele>1295.9</ele>
        <time>1970-01-01T02:27:06.000Z</time>
      </trkpt>
      <trkpt lat="45.39467" lon="4.57169">
        <ele>1295.9</ele>
        <time>1970-01-01T02:27:09.000Z</time>
      </trkpt>
      <trkpt lat="45.39464" lon="4.5717">
        <ele>1295.9</ele>
        <time>1970-01-01T02:27:23.000Z</time>
      </trkpt>
      <trkpt lat="45.39463" lon="4.57166">
        <ele>1295.9</ele>
        <time>1970-01-01T02:27:49.000Z</time>
      </trkpt>
      <trkpt lat="45.39465" lon="4.57169">
        <ele>1295.9</ele>
        <time>1970-01-01T02:27:56.000Z</time>
      </trkpt>
      <trkpt lat="45.39462" lon="4.57168">
        <ele>1295.9</ele>
        <time>1970-01-01T02:28:04.000Z</time>
      </trkpt>
      <trkpt lat="45.3946" lon="4.57165">
        <ele>1295.9</ele>
        <time>1970-01-01T02:28:15.000Z</time>
      </trkpt>
      <trkpt lat="45.39457" lon="4.57167">
        <ele>1295.9</ele>
        <time>1970-01-01T02:28:19.000Z</time>
      </trkpt>
      <trkpt lat="45.39453" lon="4.57171">
        <ele>1295.9</ele>
        <time>1970-01-01T02:28:22.000Z</time>
      </trkpt>
      <trkpt lat="45.39449" lon="4.57169">
        <ele>1295.9</ele>
        <time>1970-01-01T02:28:42.000Z</time>
      </trkpt>
      <trkpt lat="45.39446" lon="4.57169">
        <ele>1295.9</ele>
        <time>1970-01-01T02:28:44.000Z</time>
      </trkpt>
      <trkpt lat="45.39443" lon="4.57168">
        <ele>1295.9</ele>
        <time>1970-01-01T02:28:46.000Z</time>
      </trkpt>
      <trkpt lat="45.39439" lon="4.5717">
        <ele>1296</ele>
        <time>1970-01-01T02:28:48.000Z</time>
      </trkpt>
      <trkpt lat="45.39436" lon="4.57171">
        <ele>1296</ele>
        <time>1970-01-01T02:28:51.000Z</time>
      </trkpt>
      <trkpt lat="45.39433" lon="4.57172">
        <ele>1296</ele>
        <time>1970-01-01T02:28:53.000Z</time>
      </trkpt>
      <trkpt lat="45.3943" lon="4.57172">
        <ele>1296</ele>
        <time>1970-01-01T02:28:55.000Z</time>
      </trkpt>
      <trkpt lat="45.39427" lon="4.57173">
        <ele>1296</ele>
        <time>1970-01-01T02:28:57.000Z</time>
      </trkpt>
      <trkpt lat="45.39423" lon="4.57174">
        <ele>1296</ele>
        <time>1970-01-01T02:29:01.000Z</time>
      </trkpt>
      <trkpt lat="45.39419" lon="4.57176">
        <ele>1296</ele>
        <time>1970-01-01T02:29:04.000Z</time>
      </trkpt>
      <trkpt lat="45.39415" lon="4.57179">
        <ele>1296</ele>
        <time>1970-01-01T02:29:06.000Z</time>
      </trkpt>
      <trkpt lat="45.39412" lon="4.57181">
        <ele>1296</ele>
        <time>1970-01-01T02:29:07.000Z</time>
      </trkpt>
      <trkpt lat="45.39409" lon="4.57185">
        <ele>1296</ele>
        <time>1970-01-01T02:29:09.000Z</time>
      </trkpt>
      <trkpt lat="45.39406" lon="4.57188">
        <ele>1296.1</ele>
        <time>1970-01-01T02:29:11.000Z</time>
      </trkpt>
      <trkpt lat="45.39404" lon="4.57192">
        <ele>1296.3</ele>
        <time>1970-01-01T02:29:13.000Z</time>
      </trkpt>
      <trkpt lat="45.39401" lon="4.57197">
        <ele>1296.5</ele>
        <time>1970-01-01T02:29:15.000Z</time>
      </trkpt>
      <trkpt lat="45.394" lon="4.572">
        <ele>1296.5</ele>
        <time>1970-01-01T02:29:18.000Z</time>
      </trkpt>
      <trkpt lat="45.39401" lon="4.57205">
        <ele>1296.7</ele>
        <time>1970-01-01T02:29:27.000Z</time>
      </trkpt>
      <trkpt lat="45.39404" lon="4.57206">
        <ele>1299.2</ele>
        <time>1970-01-01T02:29:30.000Z</time>
      </trkpt>
      <trkpt lat="45.39407" lon="4.57207">
        <ele>1301.7</ele>
        <time>1970-01-01T02:29:32.000Z</time>
      </trkpt>
      <trkpt lat="45.39411" lon="4.57209">
        <ele>1304.5</ele>
        <time>1970-01-01T02:29:34.000Z</time>
      </trkpt>
      <trkpt lat="45.39413" lon="4.57211">
        <ele>1306.9</ele>
        <time>1970-01-01T02:29:37.000Z</time>
      </trkpt>
      <trkpt lat="45.39412" lon="4.57216">
        <ele>1306.9</ele>
        <time>1970-01-01T02:29:39.000Z</time>
      </trkpt>
      <trkpt lat="45.39412" lon="4.57224">
        <ele>1306.9</ele>
        <time>1970-01-01T02:29:41.000Z</time>
      </trkpt>
      <trkpt lat="45.39414" lon="4.57231">
        <ele>1306.9</ele>
        <time>1970-01-01T02:29:43.000Z</time>
      </trkpt>
      <trkpt lat="45.39413" lon="4.57236">
        <ele>1306.9</ele>
        <time>1970-01-01T02:29:44.000Z</time>
      </trkpt>
      <trkpt lat="45.39411" lon="4.5724">
        <ele>1306.8</ele>
        <time>1970-01-01T02:29:46.000Z</time>
      </trkpt>
      <trkpt lat="45.39412" lon="4.57248">
        <ele>1306.8</ele>
        <time>1970-01-01T02:29:48.000Z</time>
      </trkpt>
      <trkpt lat="45.39411" lon="4.57252">
        <ele>1306.8</ele>
        <time>1970-01-01T02:29:49.000Z</time>
      </trkpt>
      <trkpt lat="45.3941" lon="4.57258">
        <ele>1306.7</ele>
        <time>1970-01-01T02:29:51.000Z</time>
      </trkpt>
      <trkpt lat="45.39407" lon="4.57261">
        <ele>1307</ele>
        <time>1970-01-01T02:29:53.000Z</time>
      </trkpt>
      <trkpt lat="45.39405" lon="4.57264">
        <ele>1306.9</ele>
        <time>1970-01-01T02:29:57.000Z</time>
      </trkpt>
      <trkpt lat="45.39406" lon="4.57268">
        <ele>1306.9</ele>
        <time>1970-01-01T02:29:59.000Z</time>
      </trkpt>
      <trkpt lat="45.39405" lon="4.57275">
        <ele>1307.1</ele>
        <time>1970-01-01T02:30:01.000Z</time>
      </trkpt>
      <trkpt lat="45.39405" lon="4.57284">
        <ele>1307</ele>
        <time>1970-01-01T02:30:03.000Z</time>
      </trkpt>
      <trkpt lat="45.39403" lon="4.57292">
        <ele>1306.8</ele>
        <time>1970-01-01T02:30:05.000Z</time>
      </trkpt>
      <trkpt lat="45.39402" lon="4.57301">
        <ele>1306.9</ele>
        <time>1970-01-01T02:30:07.000Z</time>
      </trkpt>
      <trkpt lat="45.39402" lon="4.57306">
        <ele>1306.6</ele>
        <time>1970-01-01T02:30:08.000Z</time>
      </trkpt>
      <trkpt lat="45.39405" lon="4.57313">
        <ele>1306.1</ele>
        <time>1970-01-01T02:30:10.000Z</time>
      </trkpt>
      <trkpt lat="45.39409" lon="4.57319">
        <ele>1305.3</ele>
        <time>1970-01-01T02:30:12.000Z</time>
      </trkpt>
      <trkpt lat="45.39409" lon="4.57324">
        <ele>1305.1</ele>
        <time>1970-01-01T02:30:13.000Z</time>
      </trkpt>
      <trkpt lat="45.39409" lon="4.5733">
        <ele>1304.9</ele>
        <time>1970-01-01T02:30:14.000Z</time>
      </trkpt>
      <trkpt lat="45.39411" lon="4.57333">
        <ele>1304.8</ele>
        <time>1970-01-01T02:30:17.000Z</time>
      </trkpt>
      <trkpt lat="45.39411" lon="4.5734">
        <ele>1304.1</ele>
        <time>1970-01-01T02:30:19.000Z</time>
      </trkpt>
      <trkpt lat="45.39414" lon="4.57344">
        <ele>1303.8</ele>
        <time>1970-01-01T02:30:20.000Z</time>
      </trkpt>
      <trkpt lat="45.39416" lon="4.5735">
        <ele>1302.4</ele>
        <time>1970-01-01T02:30:21.000Z</time>
      </trkpt>
      <trkpt lat="45.39417" lon="4.57357">
        <ele>1301.4</ele>
        <time>1970-01-01T02:30:22.000Z</time>
      </trkpt>
      <trkpt lat="45.3942" lon="4.57365">
        <ele>1300.4</ele>
        <time>1970-01-01T02:30:23.000Z</time>
      </trkpt>
      <trkpt lat="45.3942" lon="4.57371">
        <ele>1299.1</ele>
        <time>1970-01-01T02:30:24.000Z</time>
      </trkpt>
      <trkpt lat="45.39422" lon="4.57374">
        <ele>1298.6</ele>
        <time>1970-01-01T02:30:26.000Z</time>
      </trkpt>
      <trkpt lat="45.39426" lon="4.57379">
        <ele>1296.5</ele>
        <time>1970-01-01T02:30:28.000Z</time>
      </trkpt>
      <trkpt lat="45.39428" lon="4.57384">
        <ele>1295.3</ele>
        <time>1970-01-01T02:30:29.000Z</time>
      </trkpt>
      <trkpt lat="45.39427" lon="4.57388">
        <ele>1294.7</ele>
        <time>1970-01-01T02:30:30.000Z</time>
      </trkpt>
      <trkpt lat="45.39428" lon="4.57394">
        <ele>1294.1</ele>
        <time>1970-01-01T02:30:31.000Z</time>
      </trkpt>
      <trkpt lat="45.39428" lon="4.57399">
        <ele>1293.4</ele>
        <time>1970-01-01T02:30:32.000Z</time>
      </trkpt>
      <trkpt lat="45.39428" lon="4.57405">
        <ele>1291.9</ele>
        <time>1970-01-01T02:30:33.000Z</time>
      </trkpt>
      <trkpt lat="45.3943" lon="4.57412">
        <ele>1290.9</ele>
        <time>1970-01-01T02:30:34.000Z</time>
      </trkpt>
      <trkpt lat="45.39429" lon="4.57419">
        <ele>1290.3</ele>
        <time>1970-01-01T02:30:35.000Z</time>
      </trkpt>
      <trkpt lat="45.39429" lon="4.57427">
        <ele>1289.3</ele>
        <time>1970-01-01T02:30:36.000Z</time>
      </trkpt>
      <trkpt lat="45.39431" lon="4.57437">
        <ele>1288</ele>
        <time>1970-01-01T02:30:37.000Z</time>
      </trkpt>
      <trkpt lat="45.3943" lon="4.57446">
        <ele>1287.4</ele>
        <time>1970-01-01T02:30:38.000Z</time>
      </trkpt>
      <trkpt lat="45.3943" lon="4.57456">
        <ele>1286.9</ele>
        <time>1970-01-01T02:30:39.000Z</time>
      </trkpt>
      <trkpt lat="45.39431" lon="4.57469">
        <ele>1285.9</ele>
        <time>1970-01-01T02:30:40.000Z</time>
      </trkpt>
      <trkpt lat="45.39432" lon="4.57477">
        <ele>1284.7</ele>
        <time>1970-01-01T02:30:41.000Z</time>
      </trkpt>
      <trkpt lat="45.39433" lon="4.57483">
        <ele>1283.8</ele>
        <time>1970-01-01T02:30:42.000Z</time>
      </trkpt>
      <trkpt lat="45.39432" lon="4.5749">
        <ele>1283.9</ele>
        <time>1970-01-01T02:30:43.000Z</time>
      </trkpt>
      <trkpt lat="45.39432" lon="4.57499">
        <ele>1282.2</ele>
        <time>1970-01-01T02:30:44.000Z</time>
      </trkpt>
      <trkpt lat="45.39433" lon="4.57509">
        <ele>1280.5</ele>
        <time>1970-01-01T02:30:45.000Z</time>
      </trkpt>
      <trkpt lat="45.39434" lon="4.57517">
        <ele>1279.8</ele>
        <time>1970-01-01T02:30:46.000Z</time>
      </trkpt>
      <trkpt lat="45.39435" lon="4.57524">
        <ele>1279.7</ele>
        <time>1970-01-01T02:30:47.000Z</time>
      </trkpt>
      <trkpt lat="45.39435" lon="4.57535">
        <ele>1279.8</ele>
        <time>1970-01-01T02:30:48.000Z</time>
      </trkpt>
      <trkpt lat="45.39436" lon="4.57544">
        <ele>1281</ele>
        <time>1970-01-01T02:30:49.000Z</time>
      </trkpt>
      <trkpt lat="45.39437" lon="4.57553">
        <ele>1282.6</ele>
        <time>1970-01-01T02:30:50.000Z</time>
      </trkpt>
      <trkpt lat="45.39438" lon="4.57562">
        <ele>1283.6</ele>
        <time>1970-01-01T02:30:51.000Z</time>
      </trkpt>
      <trkpt lat="45.3944" lon="4.57571">
        <ele>1284.2</ele>
        <time>1970-01-01T02:30:52.000Z</time>
      </trkpt>
      <trkpt lat="45.39441" lon="4.57577">
        <ele>1284.8</ele>
        <time>1970-01-01T02:30:53.000Z</time>
      </trkpt>
      <trkpt lat="45.39442" lon="4.57582">
        <ele>1285.5</ele>
        <time>1970-01-01T02:30:54.000Z</time>
      </trkpt>
      <trkpt lat="45.39443" lon="4.57587">
        <ele>1286</ele>
        <time>1970-01-01T02:30:55.000Z</time>
      </trkpt>
      <trkpt lat="45.39444" lon="4.57594">
        <ele>1286.8</ele>
        <time>1970-01-01T02:30:56.000Z</time>
      </trkpt>
      <trkpt lat="45.39447" lon="4.57601">
        <ele>1287.2</ele>
        <time>1970-01-01T02:30:57.000Z</time>
      </trkpt>
      <trkpt lat="45.39449" lon="4.57607">
        <ele>1287.6</ele>
        <time>1970-01-01T02:30:58.000Z</time>
      </trkpt>
      <trkpt lat="45.39449" lon="4.57611">
        <ele>1288</ele>
        <time>1970-01-01T02:30:59.000Z</time>
      </trkpt>
      <trkpt lat="45.39449" lon="4.57616">
        <ele>1288.7</ele>
        <time>1970-01-01T02:31:01.000Z</time>
      </trkpt>
      <trkpt lat="45.39451" lon="4.57623">
        <ele>1289.2</ele>
        <time>1970-01-01T02:31:03.000Z</time>
      </trkpt>
      <trkpt lat="45.39452" lon="4.57627">
        <ele>1289.5</ele>
        <time>1970-01-01T02:31:05.000Z</time>
      </trkpt>
      <trkpt lat="45.39453" lon="4.5763">
        <ele>1289.7</ele>
        <time>1970-01-01T02:31:06.000Z</time>
      </trkpt>
      <trkpt lat="45.39454" lon="4.57634">
        <ele>1289.9</ele>
        <time>1970-01-01T02:31:07.000Z</time>
      </trkpt>
      <trkpt lat="45.39456" lon="4.57638">
        <ele>1290.1</ele>
        <time>1970-01-01T02:31:08.000Z</time>
      </trkpt>
      <trkpt lat="45.39458" lon="4.57644">
        <ele>1290.3</ele>
        <time>1970-01-01T02:31:09.000Z</time>
      </trkpt>
      <trkpt lat="45.3946" lon="4.57649">
        <ele>1290.4</ele>
        <time>1970-01-01T02:31:10.000Z</time>
      </trkpt>
      <trkpt lat="45.39461" lon="4.57655">
        <ele>1290.2</ele>
        <time>1970-01-01T02:31:12.000Z</time>
      </trkpt>
      <trkpt lat="45.39462" lon="4.5766">
        <ele>1290.2</ele>
        <time>1970-01-01T02:31:13.000Z</time>
      </trkpt>
      <trkpt lat="45.39463" lon="4.57663">
        <ele>1289.9</ele>
        <time>1970-01-01T02:31:14.000Z</time>
      </trkpt>
      <trkpt lat="45.39465" lon="4.57669">
        <ele>1289.7</ele>
        <time>1970-01-01T02:31:15.000Z</time>
      </trkpt>
      <trkpt lat="45.39465" lon="4.57675">
        <ele>1289.3</ele>
        <time>1970-01-01T02:31:16.000Z</time>
      </trkpt>
      <trkpt lat="45.39465" lon="4.57679">
        <ele>1289</ele>
        <time>1970-01-01T02:31:17.000Z</time>
      </trkpt>
      <trkpt lat="45.39466" lon="4.57683">
        <ele>1288.9</ele>
        <time>1970-01-01T02:31:18.000Z</time>
      </trkpt>
      <trkpt lat="45.39465" lon="4.57688">
        <ele>1288.7</ele>
        <time>1970-01-01T02:31:19.000Z</time>
      </trkpt>
      <trkpt lat="45.39463" lon="4.57691">
        <ele>1288.6</ele>
        <time>1970-01-01T02:31:20.000Z</time>
      </trkpt>
      <trkpt lat="45.39462" lon="4.57695">
        <ele>1288.6</ele>
        <time>1970-01-01T02:31:21.000Z</time>
      </trkpt>
      <trkpt lat="45.3946" lon="4.57702">
        <ele>1288.7</ele>
        <time>1970-01-01T02:31:23.000Z</time>
      </trkpt>
      <trkpt lat="45.39459" lon="4.57707">
        <ele>1289</ele>
        <time>1970-01-01T02:31:25.000Z</time>
      </trkpt>
      <trkpt lat="45.39459" lon="4.57712">
        <ele>1289.5</ele>
        <time>1970-01-01T02:31:26.000Z</time>
      </trkpt>
      <trkpt lat="45.39459" lon="4.57719">
        <ele>1290.1</ele>
        <time>1970-01-01T02:31:28.000Z</time>
      </trkpt>
      <trkpt lat="45.39459" lon="4.57727">
        <ele>1291.2</ele>
        <time>1970-01-01T02:31:31.000Z</time>
      </trkpt>
      <trkpt lat="45.3946" lon="4.5773">
        <ele>1290.8</ele>
        <time>1970-01-01T02:31:34.000Z</time>
      </trkpt>
      <trkpt lat="45.3946" lon="4.57733">
        <ele>1291.2</ele>
        <time>1970-01-01T02:31:39.000Z</time>
      </trkpt>
      <trkpt lat="45.3946" lon="4.57736">
        <ele>1291.5</ele>
        <time>1970-01-01T02:31:45.000Z</time>
      </trkpt>
      <trkpt lat="45.39461" lon="4.5774">
        <ele>1291.8</ele>
        <time>1970-01-01T02:32:08.000Z</time>
      </trkpt>
      <trkpt lat="45.39461" lon="4.57743">
        <ele>1291.7</ele>
        <time>1970-01-01T02:32:14.000Z</time>
      </trkpt>
      <trkpt lat="45.39461" lon="4.57746">
        <ele>1291.9</ele>
        <time>1970-01-01T02:32:25.000Z</time>
      </trkpt>
      <trkpt lat="45.39462" lon="4.57749">
        <ele>1292.1</ele>
        <time>1970-01-01T02:32:49.000Z</time>
      </trkpt>
      <trkpt lat="45.39462" lon="4.57753">
        <ele>1292.2</ele>
        <time>1970-01-01T02:32:50.000Z</time>
      </trkpt>
      <trkpt lat="45.39466" lon="4.5775">
        <ele>1291.4</ele>
        <time>1970-01-01T02:32:51.000Z</time>
      </trkpt>
      <trkpt lat="45.3947" lon="4.57747">
        <ele>1290.8</ele>
        <time>1970-01-01T02:32:52.000Z</time>
      </trkpt>
      <trkpt lat="45.39476" lon="4.57747">
        <ele>1290.3</ele>
        <time>1970-01-01T02:32:53.000Z</time>
      </trkpt>
      <trkpt lat="45.39484" lon="4.57747">
        <ele>1288.9</ele>
        <time>1970-01-01T02:32:54.000Z</time>
      </trkpt>
      <trkpt lat="45.39489" lon="4.57745">
        <ele>1288.2</ele>
        <time>1970-01-01T02:32:55.000Z</time>
      </trkpt>
      <trkpt lat="45.39492" lon="4.57742">
        <ele>1287.5</ele>
        <time>1970-01-01T02:32:56.000Z</time>
      </trkpt>
      <trkpt lat="45.39495" lon="4.57737">
        <ele>1286.7</ele>
        <time>1970-01-01T02:32:57.000Z</time>
      </trkpt>
      <trkpt lat="45.39499" lon="4.57737">
        <ele>1285.6</ele>
        <time>1970-01-01T02:32:58.000Z</time>
      </trkpt>
      <trkpt lat="45.39504" lon="4.5774">
        <ele>1284.4</ele>
        <time>1970-01-01T02:32:59.000Z</time>
      </trkpt>
      <trkpt lat="45.39509" lon="4.57744">
        <ele>1283</ele>
        <time>1970-01-01T02:33:00.000Z</time>
      </trkpt>
      <trkpt lat="45.39514" lon="4.5775">
        <ele>1281.2</ele>
        <time>1970-01-01T02:33:01.000Z</time>
      </trkpt>
      <trkpt lat="45.3952" lon="4.57755">
        <ele>1279.7</ele>
        <time>1970-01-01T02:33:02.000Z</time>
      </trkpt>
      <trkpt lat="45.39528" lon="4.57759">
        <ele>1277.5</ele>
        <time>1970-01-01T02:33:03.000Z</time>
      </trkpt>
      <trkpt lat="45.39535" lon="4.57761">
        <ele>1274.4</ele>
        <time>1970-01-01T02:33:04.000Z</time>
      </trkpt>
      <trkpt lat="45.39542" lon="4.57763">
        <ele>1272.2</ele>
        <time>1970-01-01T02:33:05.000Z</time>
      </trkpt>
      <trkpt lat="45.39547" lon="4.57766">
        <ele>1270.8</ele>
        <time>1970-01-01T02:33:06.000Z</time>
      </trkpt>
      <trkpt lat="45.39551" lon="4.57768">
        <ele>1270.2</ele>
        <time>1970-01-01T02:33:07.000Z</time>
      </trkpt>
      <trkpt lat="45.39555" lon="4.57774">
        <ele>1269.4</ele>
        <time>1970-01-01T02:33:08.000Z</time>
      </trkpt>
      <trkpt lat="45.3956" lon="4.57781">
        <ele>1267.7</ele>
        <time>1970-01-01T02:33:09.000Z</time>
      </trkpt>
      <trkpt lat="45.39568" lon="4.57785">
        <ele>1266.6</ele>
        <time>1970-01-01T02:33:10.000Z</time>
      </trkpt>
      <trkpt lat="45.39575" lon="4.57787">
        <ele>1265.9</ele>
        <time>1970-01-01T02:33:11.000Z</time>
      </trkpt>
      <trkpt lat="45.39581" lon="4.57789">
        <ele>1265.3</ele>
        <time>1970-01-01T02:33:12.000Z</time>
      </trkpt>
      <trkpt lat="45.39586" lon="4.57795">
        <ele>1264.7</ele>
        <time>1970-01-01T02:33:13.000Z</time>
      </trkpt>
      <trkpt lat="45.39591" lon="4.57802">
        <ele>1263.8</ele>
        <time>1970-01-01T02:33:14.000Z</time>
      </trkpt>
      <trkpt lat="45.39597" lon="4.5781">
        <ele>1262.4</ele>
        <time>1970-01-01T02:33:15.000Z</time>
      </trkpt>
      <trkpt lat="45.39603" lon="4.57815">
        <ele>1261.2</ele>
        <time>1970-01-01T02:33:16.000Z</time>
      </trkpt>
      <trkpt lat="45.39609" lon="4.5782">
        <ele>1260.2</ele>
        <time>1970-01-01T02:33:17.000Z</time>
      </trkpt>
      <trkpt lat="45.39615" lon="4.57823">
        <ele>1259.5</ele>
        <time>1970-01-01T02:33:18.000Z</time>
      </trkpt>
      <trkpt lat="45.39622" lon="4.57829">
        <ele>1258.8</ele>
        <time>1970-01-01T02:33:19.000Z</time>
      </trkpt>
      <trkpt lat="45.39629" lon="4.57834">
        <ele>1257.9</ele>
        <time>1970-01-01T02:33:20.000Z</time>
      </trkpt>
      <trkpt lat="45.39638" lon="4.57839">
        <ele>1256.1</ele>
        <time>1970-01-01T02:33:21.000Z</time>
      </trkpt>
      <trkpt lat="45.39647" lon="4.57844">
        <ele>1254.7</ele>
        <time>1970-01-01T02:33:22.000Z</time>
      </trkpt>
      <trkpt lat="45.39657" lon="4.57849">
        <ele>1252.8</ele>
        <time>1970-01-01T02:33:23.000Z</time>
      </trkpt>
      <trkpt lat="45.39665" lon="4.57851">
        <ele>1251.1</ele>
        <time>1970-01-01T02:33:24.000Z</time>
      </trkpt>
      <trkpt lat="45.39673" lon="4.57853">
        <ele>1250.1</ele>
        <time>1970-01-01T02:33:25.000Z</time>
      </trkpt>
      <trkpt lat="45.39682" lon="4.57856">
        <ele>1248.8</ele>
        <time>1970-01-01T02:33:26.000Z</time>
      </trkpt>
      <trkpt lat="45.39691" lon="4.57858">
        <ele>1247.3</ele>
        <time>1970-01-01T02:33:27.000Z</time>
      </trkpt>
      <trkpt lat="45.39702" lon="4.5786">
        <ele>1245.1</ele>
        <time>1970-01-01T02:33:28.000Z</time>
      </trkpt>
      <trkpt lat="45.3971" lon="4.57862">
        <ele>1242.7</ele>
        <time>1970-01-01T02:33:29.000Z</time>
      </trkpt>
      <trkpt lat="45.39717" lon="4.57862">
        <ele>1240.2</ele>
        <time>1970-01-01T02:33:30.000Z</time>
      </trkpt>
      <trkpt lat="45.39722" lon="4.57866">
        <ele>1238.6</ele>
        <time>1970-01-01T02:33:32.000Z</time>
      </trkpt>
      <trkpt lat="45.39724" lon="4.57873">
        <ele>1237.4</ele>
        <time>1970-01-01T02:33:33.000Z</time>
      </trkpt>
      <trkpt lat="45.39726" lon="4.5788">
        <ele>1235.9</ele>
        <time>1970-01-01T02:33:34.000Z</time>
      </trkpt>
      <trkpt lat="45.39731" lon="4.5788">
        <ele>1234</ele>
        <time>1970-01-01T02:33:36.000Z</time>
      </trkpt>
      <trkpt lat="45.39737" lon="4.57879">
        <ele>1231.8</ele>
        <time>1970-01-01T02:33:37.000Z</time>
      </trkpt>
      <trkpt lat="45.39743" lon="4.57879">
        <ele>1230.1</ele>
        <time>1970-01-01T02:33:38.000Z</time>
      </trkpt>
      <trkpt lat="45.39747" lon="4.57879">
        <ele>1229.2</ele>
        <time>1970-01-01T02:33:39.000Z</time>
      </trkpt>
      <trkpt lat="45.39753" lon="4.57879">
        <ele>1228.1</ele>
        <time>1970-01-01T02:33:40.000Z</time>
      </trkpt>
      <trkpt lat="45.39758" lon="4.5788">
        <ele>1226.6</ele>
        <time>1970-01-01T02:33:41.000Z</time>
      </trkpt>
      <trkpt lat="45.39763" lon="4.5788">
        <ele>1225</ele>
        <time>1970-01-01T02:33:42.000Z</time>
      </trkpt>
      <trkpt lat="45.39767" lon="4.57879">
        <ele>1223.8</ele>
        <time>1970-01-01T02:33:43.000Z</time>
      </trkpt>
      <trkpt lat="45.39772" lon="4.57873">
        <ele>1222.6</ele>
        <time>1970-01-01T02:33:44.000Z</time>
      </trkpt>
      <trkpt lat="45.39777" lon="4.57871">
        <ele>1221.8</ele>
        <time>1970-01-01T02:33:45.000Z</time>
      </trkpt>
      <trkpt lat="45.39782" lon="4.57871">
        <ele>1220.7</ele>
        <time>1970-01-01T02:33:46.000Z</time>
      </trkpt>
      <trkpt lat="45.39788" lon="4.57872">
        <ele>1220</ele>
        <time>1970-01-01T02:33:47.000Z</time>
      </trkpt>
      <trkpt lat="45.39794" lon="4.57868">
        <ele>1219.1</ele>
        <time>1970-01-01T02:33:48.000Z</time>
      </trkpt>
      <trkpt lat="45.39798" lon="4.57866">
        <ele>1218.5</ele>
        <time>1970-01-01T02:33:49.000Z</time>
      </trkpt>
      <trkpt lat="45.39802" lon="4.57868">
        <ele>1217.8</ele>
        <time>1970-01-01T02:33:50.000Z</time>
      </trkpt>
      <trkpt lat="45.39808" lon="4.57873">
        <ele>1217.3</ele>
        <time>1970-01-01T02:33:51.000Z</time>
      </trkpt>
      <trkpt lat="45.39813" lon="4.57878">
        <ele>1216.6</ele>
        <time>1970-01-01T02:33:52.000Z</time>
      </trkpt>
      <trkpt lat="45.39818" lon="4.57879">
        <ele>1215.7</ele>
        <time>1970-01-01T02:33:53.000Z</time>
      </trkpt>
      <trkpt lat="45.39823" lon="4.57879">
        <ele>1214.8</ele>
        <time>1970-01-01T02:33:54.000Z</time>
      </trkpt>
      <trkpt lat="45.39833" lon="4.57878">
        <ele>1213.8</ele>
        <time>1970-01-01T02:33:55.000Z</time>
      </trkpt>
      <trkpt lat="45.39842" lon="4.57877">
        <ele>1211.7</ele>
        <time>1970-01-01T02:33:56.000Z</time>
      </trkpt>
      <trkpt lat="45.39852" lon="4.57879">
        <ele>1209.5</ele>
        <time>1970-01-01T02:33:57.000Z</time>
      </trkpt>
      <trkpt lat="45.39859" lon="4.57878">
        <ele>1208.4</ele>
        <time>1970-01-01T02:33:58.000Z</time>
      </trkpt>
      <trkpt lat="45.39863" lon="4.57878">
        <ele>1207.9</ele>
        <time>1970-01-01T02:33:59.000Z</time>
      </trkpt>
      <trkpt lat="45.39868" lon="4.57877">
        <ele>1207.4</ele>
        <time>1970-01-01T02:34:00.000Z</time>
      </trkpt>
      <trkpt lat="45.39874" lon="4.57876">
        <ele>1206.5</ele>
        <time>1970-01-01T02:34:01.000Z</time>
      </trkpt>
      <trkpt lat="45.39882" lon="4.57875">
        <ele>1205.3</ele>
        <time>1970-01-01T02:34:02.000Z</time>
      </trkpt>
      <trkpt lat="45.39891" lon="4.57872">
        <ele>1203.6</ele>
        <time>1970-01-01T02:34:03.000Z</time>
      </trkpt>
      <trkpt lat="45.39902" lon="4.57867">
        <ele>1200.3</ele>
        <time>1970-01-01T02:34:04.000Z</time>
      </trkpt>
      <trkpt lat="45.39913" lon="4.57864">
        <ele>1196.5</ele>
        <time>1970-01-01T02:34:05.000Z</time>
      </trkpt>
      <trkpt lat="45.39918" lon="4.57862">
        <ele>1194.6</ele>
        <time>1970-01-01T02:34:06.000Z</time>
      </trkpt>
      <trkpt lat="45.39922" lon="4.57861">
        <ele>1193.2</ele>
        <time>1970-01-01T02:34:07.000Z</time>
      </trkpt>
      <trkpt lat="45.39927" lon="4.57859">
        <ele>1191.4</ele>
        <time>1970-01-01T02:34:08.000Z</time>
      </trkpt>
      <trkpt lat="45.39933" lon="4.57853">
        <ele>1188.8</ele>
        <time>1970-01-01T02:34:09.000Z</time>
      </trkpt>
      <trkpt lat="45.3994" lon="4.57852">
        <ele>1187.1</ele>
        <time>1970-01-01T02:34:10.000Z</time>
      </trkpt>
      <trkpt lat="45.39948" lon="4.57853">
        <ele>1184.1</ele>
        <time>1970-01-01T02:34:11.000Z</time>
      </trkpt>
      <trkpt lat="45.39956" lon="4.57855">
        <ele>1182</ele>
        <time>1970-01-01T02:34:12.000Z</time>
      </trkpt>
      <trkpt lat="45.39965" lon="4.57854">
        <ele>1179.3</ele>
        <time>1970-01-01T02:34:13.000Z</time>
      </trkpt>
      <trkpt lat="45.39973" lon="4.57854">
        <ele>1177.6</ele>
        <time>1970-01-01T02:34:14.000Z</time>
      </trkpt>
      <trkpt lat="45.3998" lon="4.57852">
        <ele>1176.2</ele>
        <time>1970-01-01T02:34:15.000Z</time>
      </trkpt>
      <trkpt lat="45.39985" lon="4.57851">
        <ele>1175.2</ele>
        <time>1970-01-01T02:34:16.000Z</time>
      </trkpt>
      <trkpt lat="45.3999" lon="4.57849">
        <ele>1174.4</ele>
        <time>1970-01-01T02:34:17.000Z</time>
      </trkpt>
      <trkpt lat="45.39995" lon="4.57849">
        <ele>1173.5</ele>
        <time>1970-01-01T02:34:18.000Z</time>
      </trkpt>
      <trkpt lat="45.39999" lon="4.57849">
        <ele>1172.7</ele>
        <time>1970-01-01T02:34:19.000Z</time>
      </trkpt>
      <trkpt lat="45.40004" lon="4.57848">
        <ele>1172</ele>
        <time>1970-01-01T02:34:20.000Z</time>
      </trkpt>
      <trkpt lat="45.40011" lon="4.57847">
        <ele>1171</ele>
        <time>1970-01-01T02:34:21.000Z</time>
      </trkpt>
      <trkpt lat="45.40019" lon="4.57847">
        <ele>1168.8</ele>
        <time>1970-01-01T02:34:22.000Z</time>
      </trkpt>
      <trkpt lat="45.40028" lon="4.57845">
        <ele>1167.1</ele>
        <time>1970-01-01T02:34:23.000Z</time>
      </trkpt>
      <trkpt lat="45.40033" lon="4.57844">
        <ele>1166.1</ele>
        <time>1970-01-01T02:34:24.000Z</time>
      </trkpt>
      <trkpt lat="45.40037" lon="4.57845">
        <ele>1165.5</ele>
        <time>1970-01-01T02:34:25.000Z</time>
      </trkpt>
      <trkpt lat="45.40042" lon="4.57844">
        <ele>1164.5</ele>
        <time>1970-01-01T02:34:26.000Z</time>
      </trkpt>
      <trkpt lat="45.40049" lon="4.57844">
        <ele>1163.6</ele>
        <time>1970-01-01T02:34:27.000Z</time>
      </trkpt>
      <trkpt lat="45.40057" lon="4.57846">
        <ele>1162.6</ele>
        <time>1970-01-01T02:34:28.000Z</time>
      </trkpt>
      <trkpt lat="45.40064" lon="4.57848">
        <ele>1161.7</ele>
        <time>1970-01-01T02:34:29.000Z</time>
      </trkpt>
      <trkpt lat="45.4007" lon="4.5785">
        <ele>1160.8</ele>
        <time>1970-01-01T02:34:30.000Z</time>
      </trkpt>
      <trkpt lat="45.40077" lon="4.57853">
        <ele>1159.6</ele>
        <time>1970-01-01T02:34:31.000Z</time>
      </trkpt>
      <trkpt lat="45.40083" lon="4.57855">
        <ele>1158.6</ele>
        <time>1970-01-01T02:34:32.000Z</time>
      </trkpt>
      <trkpt lat="45.40091" lon="4.57852">
        <ele>1157.9</ele>
        <time>1970-01-01T02:34:33.000Z</time>
      </trkpt>
      <trkpt lat="45.40099" lon="4.5785">
        <ele>1157</ele>
        <time>1970-01-01T02:34:34.000Z</time>
      </trkpt>
      <trkpt lat="45.40109" lon="4.5785">
        <ele>1155.5</ele>
        <time>1970-01-01T02:34:35.000Z</time>
      </trkpt>
      <trkpt lat="45.40117" lon="4.57851">
        <ele>1153.4</ele>
        <time>1970-01-01T02:34:36.000Z</time>
      </trkpt>
      <trkpt lat="45.40126" lon="4.57855">
        <ele>1151</ele>
        <time>1970-01-01T02:34:37.000Z</time>
      </trkpt>
      <trkpt lat="45.40133" lon="4.5786">
        <ele>1149</ele>
        <time>1970-01-01T02:34:38.000Z</time>
      </trkpt>
      <trkpt lat="45.40141" lon="4.57863">
        <ele>1147.2</ele>
        <time>1970-01-01T02:34:39.000Z</time>
      </trkpt>
      <trkpt lat="45.4015" lon="4.57868">
        <ele>1145.1</ele>
        <time>1970-01-01T02:34:40.000Z</time>
      </trkpt>
      <trkpt lat="45.40157" lon="4.5787">
        <ele>1143.6</ele>
        <time>1970-01-01T02:34:41.000Z</time>
      </trkpt>
      <trkpt lat="45.40161" lon="4.57871">
        <ele>1142.9</ele>
        <time>1970-01-01T02:34:42.000Z</time>
      </trkpt>
      <trkpt lat="45.40164" lon="4.57873">
        <ele>1142.1</ele>
        <time>1970-01-01T02:34:43.000Z</time>
      </trkpt>
      <trkpt lat="45.40167" lon="4.57878">
        <ele>1141.3</ele>
        <time>1970-01-01T02:34:44.000Z</time>
      </trkpt>
      <trkpt lat="45.40171" lon="4.5788">
        <ele>1140.1</ele>
        <time>1970-01-01T02:34:45.000Z</time>
      </trkpt>
      <trkpt lat="45.40174" lon="4.5788">
        <ele>1139.4</ele>
        <time>1970-01-01T02:34:46.000Z</time>
      </trkpt>
      <trkpt lat="45.40177" lon="4.57879">
        <ele>1138.6</ele>
        <time>1970-01-01T02:34:47.000Z</time>
      </trkpt>
      <trkpt lat="45.40182" lon="4.57877">
        <ele>1137.7</ele>
        <time>1970-01-01T02:34:50.000Z</time>
      </trkpt>
      <trkpt lat="45.40185" lon="4.57874">
        <ele>1136.7</ele>
        <time>1970-01-01T02:34:51.000Z</time>
      </trkpt>
      <trkpt lat="45.40188" lon="4.57879">
        <ele>1135.7</ele>
        <time>1970-01-01T02:34:52.000Z</time>
      </trkpt>
      <trkpt lat="45.40193" lon="4.5788">
        <ele>1135.4</ele>
        <time>1970-01-01T02:34:53.000Z</time>
      </trkpt>
      <trkpt lat="45.40198" lon="4.57882">
        <ele>1135.1</ele>
        <time>1970-01-01T02:34:54.000Z</time>
      </trkpt>
      <trkpt lat="45.40203" lon="4.57882">
        <ele>1134.7</ele>
        <time>1970-01-01T02:34:55.000Z</time>
      </trkpt>
      <trkpt lat="45.40209" lon="4.57882">
        <ele>1134.3</ele>
        <time>1970-01-01T02:34:56.000Z</time>
      </trkpt>
      <trkpt lat="45.40214" lon="4.57884">
        <ele>1133.3</ele>
        <time>1970-01-01T02:34:57.000Z</time>
      </trkpt>
      <trkpt lat="45.40218" lon="4.57886">
        <ele>1132.4</ele>
        <time>1970-01-01T02:34:58.000Z</time>
      </trkpt>
      <trkpt lat="45.40224" lon="4.57888">
        <ele>1131.6</ele>
        <time>1970-01-01T02:34:59.000Z</time>
      </trkpt>
      <trkpt lat="45.40231" lon="4.57888">
        <ele>1129.9</ele>
        <time>1970-01-01T02:35:00.000Z</time>
      </trkpt>
      <trkpt lat="45.40235" lon="4.57889">
        <ele>1128</ele>
        <time>1970-01-01T02:35:01.000Z</time>
      </trkpt>
      <trkpt lat="45.40238" lon="4.5789">
        <ele>1127.4</ele>
        <time>1970-01-01T02:35:02.000Z</time>
      </trkpt>
      <trkpt lat="45.40242" lon="4.57894">
        <ele>1126.9</ele>
        <time>1970-01-01T02:35:04.000Z</time>
      </trkpt>
      <trkpt lat="45.40248" lon="4.57893">
        <ele>1124.9</ele>
        <time>1970-01-01T02:35:06.000Z</time>
      </trkpt>
      <trkpt lat="45.40251" lon="4.57893">
        <ele>1124.1</ele>
        <time>1970-01-01T02:35:07.000Z</time>
      </trkpt>
      <trkpt lat="45.40255" lon="4.57894">
        <ele>1123.1</ele>
        <time>1970-01-01T02:35:08.000Z</time>
      </trkpt>
      <trkpt lat="45.40259" lon="4.57897">
        <ele>1122.1</ele>
        <time>1970-01-01T02:35:09.000Z</time>
      </trkpt>
      <trkpt lat="45.40263" lon="4.57901">
        <ele>1121.5</ele>
        <time>1970-01-01T02:35:10.000Z</time>
      </trkpt>
      <trkpt lat="45.40268" lon="4.57905">
        <ele>1119.9</ele>
        <time>1970-01-01T02:35:11.000Z</time>
      </trkpt>
      <trkpt lat="45.40273" lon="4.57909">
        <ele>1118.3</ele>
        <time>1970-01-01T02:35:12.000Z</time>
      </trkpt>
      <trkpt lat="45.4028" lon="4.57912">
        <ele>1117</ele>
        <time>1970-01-01T02:35:13.000Z</time>
      </trkpt>
      <trkpt lat="45.40286" lon="4.57914">
        <ele>1115.3</ele>
        <time>1970-01-01T02:35:14.000Z</time>
      </trkpt>
      <trkpt lat="45.40291" lon="4.57916">
        <ele>1114.8</ele>
        <time>1970-01-01T02:35:15.000Z</time>
      </trkpt>
      <trkpt lat="45.40292" lon="4.57926">
        <ele>1114.9</ele>
        <time>1970-01-01T02:35:17.000Z</time>
      </trkpt>
      <trkpt lat="45.40294" lon="4.57932">
        <ele>1114.5</ele>
        <time>1970-01-01T02:35:18.000Z</time>
      </trkpt>
      <trkpt lat="45.40298" lon="4.57938">
        <ele>1114.3</ele>
        <time>1970-01-01T02:35:19.000Z</time>
      </trkpt>
      <trkpt lat="45.403" lon="4.57944">
        <ele>1114.4</ele>
        <time>1970-01-01T02:35:20.000Z</time>
      </trkpt>
      <trkpt lat="45.40301" lon="4.57952">
        <ele>1113.9</ele>
        <time>1970-01-01T02:35:21.000Z</time>
      </trkpt>
      <trkpt lat="45.40303" lon="4.5796">
        <ele>1114.1</ele>
        <time>1970-01-01T02:35:22.000Z</time>
      </trkpt>
      <trkpt lat="45.40305" lon="4.57969">
        <ele>1113.6</ele>
        <time>1970-01-01T02:35:23.000Z</time>
      </trkpt>
      <trkpt lat="45.40306" lon="4.57976">
        <ele>1113.4</ele>
        <time>1970-01-01T02:35:24.000Z</time>
      </trkpt>
      <trkpt lat="45.40305" lon="4.57981">
        <ele>1113.2</ele>
        <time>1970-01-01T02:35:25.000Z</time>
      </trkpt>
      <trkpt lat="45.40305" lon="4.57985">
        <ele>1113</ele>
        <time>1970-01-01T02:35:26.000Z</time>
      </trkpt>
      <trkpt lat="45.40304" lon="4.57989">
        <ele>1112.8</ele>
        <time>1970-01-01T02:35:28.000Z</time>
      </trkpt>
      <trkpt lat="45.40304" lon="4.57998">
        <ele>1112.7</ele>
        <time>1970-01-01T02:35:30.000Z</time>
      </trkpt>
      <trkpt lat="45.40303" lon="4.58006">
        <ele>1113</ele>
        <time>1970-01-01T02:35:31.000Z</time>
      </trkpt>
      <trkpt lat="45.40302" lon="4.58015">
        <ele>1113.1</ele>
        <time>1970-01-01T02:35:32.000Z</time>
      </trkpt>
      <trkpt lat="45.40303" lon="4.58025">
        <ele>1113.2</ele>
        <time>1970-01-01T02:35:33.000Z</time>
      </trkpt>
      <trkpt lat="45.40305" lon="4.58029">
        <ele>1113.1</ele>
        <time>1970-01-01T02:35:34.000Z</time>
      </trkpt>
      <trkpt lat="45.40308" lon="4.58033">
        <ele>1112.9</ele>
        <time>1970-01-01T02:35:35.000Z</time>
      </trkpt>
      <trkpt lat="45.40311" lon="4.58035">
        <ele>1112.7</ele>
        <time>1970-01-01T02:35:36.000Z</time>
      </trkpt>
      <trkpt lat="45.40314" lon="4.58039">
        <ele>1112.3</ele>
        <time>1970-01-01T02:35:37.000Z</time>
      </trkpt>
      <trkpt lat="45.40316" lon="4.58048">
        <ele>1111.5</ele>
        <time>1970-01-01T02:35:38.000Z</time>
      </trkpt>
      <trkpt lat="45.4032" lon="4.58058">
        <ele>1109.8</ele>
        <time>1970-01-01T02:35:39.000Z</time>
      </trkpt>
      <trkpt lat="45.40328" lon="4.58066">
        <ele>1107.1</ele>
        <time>1970-01-01T02:35:40.000Z</time>
      </trkpt>
      <trkpt lat="45.40332" lon="4.5807">
        <ele>1105.7</ele>
        <time>1970-01-01T02:35:41.000Z</time>
      </trkpt>
      <trkpt lat="45.40337" lon="4.58081">
        <ele>1102.6</ele>
        <time>1970-01-01T02:35:42.000Z</time>
      </trkpt>
      <trkpt lat="45.4034" lon="4.58091">
        <ele>1099.5</ele>
        <time>1970-01-01T02:35:43.000Z</time>
      </trkpt>
      <trkpt lat="45.40346" lon="4.58102">
        <ele>1093.8</ele>
        <time>1970-01-01T02:35:44.000Z</time>
      </trkpt>
      <trkpt lat="45.40351" lon="4.58112">
        <ele>1090.6</ele>
        <time>1970-01-01T02:35:45.000Z</time>
      </trkpt>
      <trkpt lat="45.40355" lon="4.58121">
        <ele>1087.3</ele>
        <time>1970-01-01T02:35:46.000Z</time>
      </trkpt>
      <trkpt lat="45.40357" lon="4.58125">
        <ele>1085.8</ele>
        <time>1970-01-01T02:35:47.000Z</time>
      </trkpt>
      <trkpt lat="45.40359" lon="4.58129">
        <ele>1083.9</ele>
        <time>1970-01-01T02:35:48.000Z</time>
      </trkpt>
      <trkpt lat="45.40361" lon="4.58135">
        <ele>1081.1</ele>
        <time>1970-01-01T02:35:49.000Z</time>
      </trkpt>
      <trkpt lat="45.40362" lon="4.5814">
        <ele>1080.1</ele>
        <time>1970-01-01T02:35:50.000Z</time>
      </trkpt>
      <trkpt lat="45.40358" lon="4.58148">
        <ele>1078.4</ele>
        <time>1970-01-01T02:35:53.000Z</time>
      </trkpt>
      <trkpt lat="45.40356" lon="4.58156">
        <ele>1078.2</ele>
        <time>1970-01-01T02:35:54.000Z</time>
      </trkpt>
      <trkpt lat="45.40354" lon="4.58161">
        <ele>1078</ele>
        <time>1970-01-01T02:35:55.000Z</time>
      </trkpt>
      <trkpt lat="45.40351" lon="4.58164">
        <ele>1077.9</ele>
        <time>1970-01-01T02:35:56.000Z</time>
      </trkpt>
      <trkpt lat="45.40349" lon="4.58168">
        <ele>1077.7</ele>
        <time>1970-01-01T02:35:58.000Z</time>
      </trkpt>
      <trkpt lat="45.40343" lon="4.58168">
        <ele>1077.4</ele>
        <time>1970-01-01T02:36:00.000Z</time>
      </trkpt>
      <trkpt lat="45.40339" lon="4.58168">
        <ele>1077.2</ele>
        <time>1970-01-01T02:36:01.000Z</time>
      </trkpt>
      <trkpt lat="45.40336" lon="4.58167">
        <ele>1077</ele>
        <time>1970-01-01T02:36:02.000Z</time>
      </trkpt>
      <trkpt lat="45.40332" lon="4.5817">
        <ele>1076.8</ele>
        <time>1970-01-01T02:36:03.000Z</time>
      </trkpt>
      <trkpt lat="45.40329" lon="4.58172">
        <ele>1076.6</ele>
        <time>1970-01-01T02:36:04.000Z</time>
      </trkpt>
      <trkpt lat="45.40326" lon="4.58171">
        <ele>1076.5</ele>
        <time>1970-01-01T02:36:05.000Z</time>
      </trkpt>
      <trkpt lat="45.40322" lon="4.58171">
        <ele>1076.3</ele>
        <time>1970-01-01T02:36:06.000Z</time>
      </trkpt>
      <trkpt lat="45.40326" lon="4.58175">
        <ele>1074.4</ele>
        <time>1970-01-01T02:36:10.000Z</time>
      </trkpt>
      <trkpt lat="45.40329" lon="4.58176">
        <ele>1072.9</ele>
        <time>1970-01-01T02:36:11.000Z</time>
      </trkpt>
      <trkpt lat="45.40333" lon="4.5818">
        <ele>1071.4</ele>
        <time>1970-01-01T02:36:12.000Z</time>
      </trkpt>
      <trkpt lat="45.40339" lon="4.58184">
        <ele>1070</ele>
        <time>1970-01-01T02:36:13.000Z</time>
      </trkpt>
      <trkpt lat="45.40343" lon="4.58188">
        <ele>1068.7</ele>
        <time>1970-01-01T02:36:14.000Z</time>
      </trkpt>
      <trkpt lat="45.40346" lon="4.58191">
        <ele>1067.9</ele>
        <time>1970-01-01T02:36:15.000Z</time>
      </trkpt>
      <trkpt lat="45.40352" lon="4.58194">
        <ele>1066.8</ele>
        <time>1970-01-01T02:36:17.000Z</time>
      </trkpt>
      <trkpt lat="45.40355" lon="4.58201">
        <ele>1065.9</ele>
        <time>1970-01-01T02:36:18.000Z</time>
      </trkpt>
      <trkpt lat="45.40357" lon="4.58208">
        <ele>1064.4</ele>
        <time>1970-01-01T02:36:19.000Z</time>
      </trkpt>
      <trkpt lat="45.40361" lon="4.58213">
        <ele>1062.2</ele>
        <time>1970-01-01T02:36:20.000Z</time>
      </trkpt>
      <trkpt lat="45.40365" lon="4.58217">
        <ele>1060.3</ele>
        <time>1970-01-01T02:36:21.000Z</time>
      </trkpt>
      <trkpt lat="45.4037" lon="4.58219">
        <ele>1058.4</ele>
        <time>1970-01-01T02:36:22.000Z</time>
      </trkpt>
      <trkpt lat="45.40379" lon="4.58225">
        <ele>1054.2</ele>
        <time>1970-01-01T02:36:23.000Z</time>
      </trkpt>
      <trkpt lat="45.40386" lon="4.58232">
        <ele>1051</ele>
        <time>1970-01-01T02:36:24.000Z</time>
      </trkpt>
      <trkpt lat="45.40393" lon="4.58237">
        <ele>1050.4</ele>
        <time>1970-01-01T02:36:25.000Z</time>
      </trkpt>
      <trkpt lat="45.404" lon="4.58239">
        <ele>1049.5</ele>
        <time>1970-01-01T02:36:26.000Z</time>
      </trkpt>
      <trkpt lat="45.40408" lon="4.58242">
        <ele>1047.8</ele>
        <time>1970-01-01T02:36:27.000Z</time>
      </trkpt>
      <trkpt lat="45.40417" lon="4.58245">
        <ele>1047.2</ele>
        <time>1970-01-01T02:36:28.000Z</time>
      </trkpt>
      <trkpt lat="45.40424" lon="4.58249">
        <ele>1046.3</ele>
        <time>1970-01-01T02:36:29.000Z</time>
      </trkpt>
      <trkpt lat="45.40428" lon="4.58253">
        <ele>1045.6</ele>
        <time>1970-01-01T02:36:30.000Z</time>
      </trkpt>
      <trkpt lat="45.40434" lon="4.58258">
        <ele>1045.1</ele>
        <time>1970-01-01T02:36:31.000Z</time>
      </trkpt>
      <trkpt lat="45.4044" lon="4.58262">
        <ele>1043.7</ele>
        <time>1970-01-01T02:36:32.000Z</time>
      </trkpt>
      <trkpt lat="45.40447" lon="4.58265">
        <ele>1042.7</ele>
        <time>1970-01-01T02:36:33.000Z</time>
      </trkpt>
      <trkpt lat="45.40453" lon="4.5827">
        <ele>1042.2</ele>
        <time>1970-01-01T02:36:34.000Z</time>
      </trkpt>
      <trkpt lat="45.40459" lon="4.58274">
        <ele>1041.7</ele>
        <time>1970-01-01T02:36:35.000Z</time>
      </trkpt>
      <trkpt lat="45.40464" lon="4.58279">
        <ele>1040.9</ele>
        <time>1970-01-01T02:36:36.000Z</time>
      </trkpt>
      <trkpt lat="45.40467" lon="4.5828">
        <ele>1040.2</ele>
        <time>1970-01-01T02:36:37.000Z</time>
      </trkpt>
      <trkpt lat="45.4047" lon="4.58288">
        <ele>1038.1</ele>
        <time>1970-01-01T02:36:39.000Z</time>
      </trkpt>
      <trkpt lat="45.40473" lon="4.58292">
        <ele>1036.3</ele>
        <time>1970-01-01T02:36:40.000Z</time>
      </trkpt>
      <trkpt lat="45.40478" lon="4.58293">
        <ele>1034.7</ele>
        <time>1970-01-01T02:36:41.000Z</time>
      </trkpt>
      <trkpt lat="45.40481" lon="4.58299">
        <ele>1031.9</ele>
        <time>1970-01-01T02:36:43.000Z</time>
      </trkpt>
      <trkpt lat="45.40482" lon="4.58305">
        <ele>1029.4</ele>
        <time>1970-01-01T02:36:44.000Z</time>
      </trkpt>
      <trkpt lat="45.40484" lon="4.58311">
        <ele>1027.1</ele>
        <time>1970-01-01T02:36:45.000Z</time>
      </trkpt>
      <trkpt lat="45.40485" lon="4.58316">
        <ele>1025.1</ele>
        <time>1970-01-01T02:36:46.000Z</time>
      </trkpt>
      <trkpt lat="45.40482" lon="4.58324">
        <ele>1021.6</ele>
        <time>1970-01-01T02:36:48.000Z</time>
      </trkpt>
      <trkpt lat="45.40481" lon="4.5833">
        <ele>1019.1</ele>
        <time>1970-01-01T02:36:49.000Z</time>
      </trkpt>
      <trkpt lat="45.40481" lon="4.58335">
        <ele>1016.8</ele>
        <time>1970-01-01T02:36:50.000Z</time>
      </trkpt>
      <trkpt lat="45.40481" lon="4.58339">
        <ele>1015.1</ele>
        <time>1970-01-01T02:36:51.000Z</time>
      </trkpt>
      <trkpt lat="45.40484" lon="4.58343">
        <ele>1012.6</ele>
        <time>1970-01-01T02:36:52.000Z</time>
      </trkpt>
      <trkpt lat="45.40486" lon="4.58344">
        <ele>1011.5</ele>
        <time>1970-01-01T02:36:53.000Z</time>
      </trkpt>
      <trkpt lat="45.4049" lon="4.58348">
        <ele>1010.2</ele>
        <time>1970-01-01T02:36:54.000Z</time>
      </trkpt>
      <trkpt lat="45.40495" lon="4.58352">
        <ele>1008.8</ele>
        <time>1970-01-01T02:36:55.000Z</time>
      </trkpt>
      <trkpt lat="45.405" lon="4.58358">
        <ele>1007.3</ele>
        <time>1970-01-01T02:36:56.000Z</time>
      </trkpt>
      <trkpt lat="45.40507" lon="4.58365">
        <ele>1005.6</ele>
        <time>1970-01-01T02:36:57.000Z</time>
      </trkpt>
      <trkpt lat="45.40513" lon="4.58371">
        <ele>1003.9</ele>
        <time>1970-01-01T02:36:58.000Z</time>
      </trkpt>
      <trkpt lat="45.40521" lon="4.58375">
        <ele>1001.9</ele>
        <time>1970-01-01T02:36:59.000Z</time>
      </trkpt>
      <trkpt lat="45.4053" lon="4.5838">
        <ele>999.5</ele>
        <time>1970-01-01T02:37:00.000Z</time>
      </trkpt>
      <trkpt lat="45.40537" lon="4.58383">
        <ele>998.4</ele>
        <time>1970-01-01T02:37:01.000Z</time>
      </trkpt>
      <trkpt lat="45.40543" lon="4.58384">
        <ele>997.8</ele>
        <time>1970-01-01T02:37:02.000Z</time>
      </trkpt>
      <trkpt lat="45.40548" lon="4.58385">
        <ele>996.8</ele>
        <time>1970-01-01T02:37:03.000Z</time>
      </trkpt>
      <trkpt lat="45.40555" lon="4.58384">
        <ele>995.8</ele>
        <time>1970-01-01T02:37:04.000Z</time>
      </trkpt>
      <trkpt lat="45.40562" lon="4.58384">
        <ele>995.5</ele>
        <time>1970-01-01T02:37:05.000Z</time>
      </trkpt>
      <trkpt lat="45.40569" lon="4.58384">
        <ele>994.9</ele>
        <time>1970-01-01T02:37:06.000Z</time>
      </trkpt>
      <trkpt lat="45.40575" lon="4.58381">
        <ele>995.3</ele>
        <time>1970-01-01T02:37:07.000Z</time>
      </trkpt>
      <trkpt lat="45.40581" lon="4.58378">
        <ele>995.1</ele>
        <time>1970-01-01T02:37:08.000Z</time>
      </trkpt>
      <trkpt lat="45.40585" lon="4.5838">
        <ele>994.9</ele>
        <time>1970-01-01T02:37:09.000Z</time>
      </trkpt>
      <trkpt lat="45.40589" lon="4.58381">
        <ele>994.9</ele>
        <time>1970-01-01T02:37:10.000Z</time>
      </trkpt>
      <trkpt lat="45.40592" lon="4.58381">
        <ele>994.9</ele>
        <time>1970-01-01T02:37:11.000Z</time>
      </trkpt>
      <trkpt lat="45.40596" lon="4.58377">
        <ele>994.5</ele>
        <time>1970-01-01T02:37:13.000Z</time>
      </trkpt>
      <trkpt lat="45.406" lon="4.58375">
        <ele>994</ele>
        <time>1970-01-01T02:37:15.000Z</time>
      </trkpt>
      <trkpt lat="45.40603" lon="4.58374">
        <ele>993.6</ele>
        <time>1970-01-01T02:37:16.000Z</time>
      </trkpt>
      <trkpt lat="45.40607" lon="4.58372">
        <ele>992.8</ele>
        <time>1970-01-01T02:37:17.000Z</time>
      </trkpt>
      <trkpt lat="45.40612" lon="4.58372">
        <ele>992</ele>
        <time>1970-01-01T02:37:18.000Z</time>
      </trkpt>
      <trkpt lat="45.40616" lon="4.58373">
        <ele>991</ele>
        <time>1970-01-01T02:37:19.000Z</time>
      </trkpt>
      <trkpt lat="45.40621" lon="4.58374">
        <ele>990</ele>
        <time>1970-01-01T02:37:20.000Z</time>
      </trkpt>
      <trkpt lat="45.40624" lon="4.58374">
        <ele>989.4</ele>
        <time>1970-01-01T02:37:21.000Z</time>
      </trkpt>
      <trkpt lat="45.40628" lon="4.58374">
        <ele>988.5</ele>
        <time>1970-01-01T02:37:22.000Z</time>
      </trkpt>
      <trkpt lat="45.40631" lon="4.58375">
        <ele>987.3</ele>
        <time>1970-01-01T02:37:23.000Z</time>
      </trkpt>
      <trkpt lat="45.40635" lon="4.58378">
        <ele>985.9</ele>
        <time>1970-01-01T02:37:25.000Z</time>
      </trkpt>
      <trkpt lat="45.4064" lon="4.58379">
        <ele>984.2</ele>
        <time>1970-01-01T02:37:27.000Z</time>
      </trkpt>
      <trkpt lat="45.40643" lon="4.58381">
        <ele>983.1</ele>
        <time>1970-01-01T02:37:28.000Z</time>
      </trkpt>
      <trkpt lat="45.40646" lon="4.58385">
        <ele>982.1</ele>
        <time>1970-01-01T02:37:29.000Z</time>
      </trkpt>
      <trkpt lat="45.40647" lon="4.5839">
        <ele>980.8</ele>
        <time>1970-01-01T02:37:30.000Z</time>
      </trkpt>
      <trkpt lat="45.40649" lon="4.58398">
        <ele>978.8</ele>
        <time>1970-01-01T02:37:31.000Z</time>
      </trkpt>
      <trkpt lat="45.40653" lon="4.58407">
        <ele>977</ele>
        <time>1970-01-01T02:37:32.000Z</time>
      </trkpt>
      <trkpt lat="45.40656" lon="4.58417">
        <ele>975.4</ele>
        <time>1970-01-01T02:37:33.000Z</time>
      </trkpt>
      <trkpt lat="45.40659" lon="4.58425">
        <ele>973.9</ele>
        <time>1970-01-01T02:37:34.000Z</time>
      </trkpt>
      <trkpt lat="45.40662" lon="4.5843">
        <ele>973.5</ele>
        <time>1970-01-01T02:37:35.000Z</time>
      </trkpt>
      <trkpt lat="45.40665" lon="4.58433">
        <ele>973.3</ele>
        <time>1970-01-01T02:37:36.000Z</time>
      </trkpt>
      <trkpt lat="45.40668" lon="4.58436">
        <ele>973.2</ele>
        <time>1970-01-01T02:37:37.000Z</time>
      </trkpt>
      <trkpt lat="45.40673" lon="4.58436">
        <ele>972.4</ele>
        <time>1970-01-01T02:37:38.000Z</time>
      </trkpt>
      <trkpt lat="45.40676" lon="4.58433">
        <ele>971.8</ele>
        <time>1970-01-01T02:37:39.000Z</time>
      </trkpt>
      <trkpt lat="45.40682" lon="4.58429">
        <ele>971.3</ele>
        <time>1970-01-01T02:37:40.000Z</time>
      </trkpt>
      <trkpt lat="45.40689" lon="4.58428">
        <ele>970</ele>
        <time>1970-01-01T02:37:41.000Z</time>
      </trkpt>
      <trkpt lat="45.40696" lon="4.58428">
        <ele>968.6</ele>
        <time>1970-01-01T02:37:42.000Z</time>
      </trkpt>
      <trkpt lat="45.407" lon="4.5843">
        <ele>967.5</ele>
        <time>1970-01-01T02:37:43.000Z</time>
      </trkpt>
      <trkpt lat="45.40704" lon="4.58432">
        <ele>966.2</ele>
        <time>1970-01-01T02:37:44.000Z</time>
      </trkpt>
      <trkpt lat="45.4071" lon="4.58437">
        <ele>964.8</ele>
        <time>1970-01-01T02:37:45.000Z</time>
      </trkpt>
      <trkpt lat="45.40716" lon="4.58442">
        <ele>962.8</ele>
        <time>1970-01-01T02:37:46.000Z</time>
      </trkpt>
      <trkpt lat="45.40722" lon="4.58447">
        <ele>960.6</ele>
        <time>1970-01-01T02:37:47.000Z</time>
      </trkpt>
      <trkpt lat="45.40728" lon="4.58451">
        <ele>959.4</ele>
        <time>1970-01-01T02:37:48.000Z</time>
      </trkpt>
      <trkpt lat="45.40734" lon="4.58457">
        <ele>957.3</ele>
        <time>1970-01-01T02:37:49.000Z</time>
      </trkpt>
      <trkpt lat="45.40738" lon="4.58462">
        <ele>955.7</ele>
        <time>1970-01-01T02:37:50.000Z</time>
      </trkpt>
      <trkpt lat="45.40741" lon="4.58464">
        <ele>954.5</ele>
        <time>1970-01-01T02:37:51.000Z</time>
      </trkpt>
      <trkpt lat="45.40744" lon="4.58463">
        <ele>953</ele>
        <time>1970-01-01T02:37:52.000Z</time>
      </trkpt>
      <trkpt lat="45.40752" lon="4.58466">
        <ele>950.1</ele>
        <time>1970-01-01T02:37:54.000Z</time>
      </trkpt>
      <trkpt lat="45.40756" lon="4.58468">
        <ele>948.8</ele>
        <time>1970-01-01T02:37:55.000Z</time>
      </trkpt>
      <trkpt lat="45.40759" lon="4.5847">
        <ele>947.9</ele>
        <time>1970-01-01T02:37:56.000Z</time>
      </trkpt>
      <trkpt lat="45.40768" lon="4.58469">
        <ele>945.3</ele>
        <time>1970-01-01T02:37:58.000Z</time>
      </trkpt>
      <trkpt lat="45.40776" lon="4.5847">
        <ele>942</ele>
        <time>1970-01-01T02:37:59.000Z</time>
      </trkpt>
      <trkpt lat="45.40781" lon="4.58473">
        <ele>940.1</ele>
        <time>1970-01-01T02:38:00.000Z</time>
      </trkpt>
      <trkpt lat="45.40787" lon="4.58477">
        <ele>937.5</ele>
        <time>1970-01-01T02:38:01.000Z</time>
      </trkpt>
      <trkpt lat="45.40792" lon="4.58477">
        <ele>935.5</ele>
        <time>1970-01-01T02:38:02.000Z</time>
      </trkpt>
      <trkpt lat="45.40796" lon="4.58474">
        <ele>933.9</ele>
        <time>1970-01-01T02:38:03.000Z</time>
      </trkpt>
      <trkpt lat="45.408" lon="4.58473">
        <ele>932.1</ele>
        <time>1970-01-01T02:38:04.000Z</time>
      </trkpt>
      <trkpt lat="45.40804" lon="4.58474">
        <ele>929.8</ele>
        <time>1970-01-01T02:38:05.000Z</time>
      </trkpt>
      <trkpt lat="45.40809" lon="4.5848">
        <ele>927.8</ele>
        <time>1970-01-01T02:38:06.000Z</time>
      </trkpt>
      <trkpt lat="45.40814" lon="4.58484">
        <ele>926.4</ele>
        <time>1970-01-01T02:38:07.000Z</time>
      </trkpt>
      <trkpt lat="45.4082" lon="4.58485">
        <ele>924.5</ele>
        <time>1970-01-01T02:38:08.000Z</time>
      </trkpt>
      <trkpt lat="45.40824" lon="4.58488">
        <ele>922.2</ele>
        <time>1970-01-01T02:38:09.000Z</time>
      </trkpt>
      <trkpt lat="45.40826" lon="4.58492">
        <ele>921</ele>
        <time>1970-01-01T02:38:10.000Z</time>
      </trkpt>
      <trkpt lat="45.4083" lon="4.58497">
        <ele>919.5</ele>
        <time>1970-01-01T02:38:12.000Z</time>
      </trkpt>
      <trkpt lat="45.40834" lon="4.585">
        <ele>918.5</ele>
        <time>1970-01-01T02:38:13.000Z</time>
      </trkpt>
      <trkpt lat="45.40837" lon="4.58503">
        <ele>917.5</ele>
        <time>1970-01-01T02:38:14.000Z</time>
      </trkpt>
      <trkpt lat="45.40838" lon="4.58505">
        <ele>916.5</ele>
        <time>1970-01-01T02:38:15.000Z</time>
      </trkpt>
      <trkpt lat="45.40841" lon="4.58508">
        <ele>915.2</ele>
        <time>1970-01-01T02:38:17.000Z</time>
      </trkpt>
      <trkpt lat="45.40843" lon="4.58511">
        <ele>914.2</ele>
        <time>1970-01-01T02:38:18.000Z</time>
      </trkpt>
      <trkpt lat="45.40848" lon="4.58513">
        <ele>912.9</ele>
        <time>1970-01-01T02:38:19.000Z</time>
      </trkpt>
      <trkpt lat="45.40853" lon="4.58514">
        <ele>911.5</ele>
        <time>1970-01-01T02:38:20.000Z</time>
      </trkpt>
      <trkpt lat="45.40858" lon="4.58512">
        <ele>909.9</ele>
        <time>1970-01-01T02:38:21.000Z</time>
      </trkpt>
      <trkpt lat="45.40862" lon="4.58511">
        <ele>908.8</ele>
        <time>1970-01-01T02:38:22.000Z</time>
      </trkpt>
      <trkpt lat="45.40869" lon="4.58515">
        <ele>906.8</ele>
        <time>1970-01-01T02:38:23.000Z</time>
      </trkpt>
      <trkpt lat="45.40872" lon="4.58518">
        <ele>905.2</ele>
        <time>1970-01-01T02:38:24.000Z</time>
      </trkpt>
      <trkpt lat="45.40877" lon="4.58521">
        <ele>903.5</ele>
        <time>1970-01-01T02:38:25.000Z</time>
      </trkpt>
      <trkpt lat="45.4088" lon="4.58527">
        <ele>901.9</ele>
        <time>1970-01-01T02:38:26.000Z</time>
      </trkpt>
      <trkpt lat="45.40884" lon="4.5853">
        <ele>900.5</ele>
        <time>1970-01-01T02:38:27.000Z</time>
      </trkpt>
      <trkpt lat="45.40888" lon="4.5853">
        <ele>899.5</ele>
        <time>1970-01-01T02:38:28.000Z</time>
      </trkpt>
      <trkpt lat="45.40893" lon="4.58527">
        <ele>898.2</ele>
        <time>1970-01-01T02:38:29.000Z</time>
      </trkpt>
      <trkpt lat="45.40898" lon="4.58527">
        <ele>896.7</ele>
        <time>1970-01-01T02:38:30.000Z</time>
      </trkpt>
      <trkpt lat="45.40905" lon="4.58524">
        <ele>893.2</ele>
        <time>1970-01-01T02:38:31.000Z</time>
      </trkpt>
      <trkpt lat="45.40913" lon="4.58525">
        <ele>889.7</ele>
        <time>1970-01-01T02:38:32.000Z</time>
      </trkpt>
      <trkpt lat="45.40918" lon="4.58528">
        <ele>887.6</ele>
        <time>1970-01-01T02:38:33.000Z</time>
      </trkpt>
      <trkpt lat="45.40922" lon="4.58526">
        <ele>885.9</ele>
        <time>1970-01-01T02:38:34.000Z</time>
      </trkpt>
      <trkpt lat="45.40926" lon="4.58522">
        <ele>883.8</ele>
        <time>1970-01-01T02:38:35.000Z</time>
      </trkpt>
      <trkpt lat="45.4093" lon="4.58521">
        <ele>881.6</ele>
        <time>1970-01-01T02:38:36.000Z</time>
      </trkpt>
      <trkpt lat="45.40934" lon="4.58523">
        <ele>879.9</ele>
        <time>1970-01-01T02:38:37.000Z</time>
      </trkpt>
      <trkpt lat="45.40937" lon="4.58525">
        <ele>878.3</ele>
        <time>1970-01-01T02:38:38.000Z</time>
      </trkpt>
      <trkpt lat="45.4094" lon="4.58527">
        <ele>876.5</ele>
        <time>1970-01-01T02:38:39.000Z</time>
      </trkpt>
      <trkpt lat="45.40943" lon="4.58527">
        <ele>874.7</ele>
        <time>1970-01-01T02:38:40.000Z</time>
      </trkpt>
      <trkpt lat="45.40946" lon="4.58528">
        <ele>874</ele>
        <time>1970-01-01T02:38:41.000Z</time>
      </trkpt>
      <trkpt lat="45.4095" lon="4.5853">
        <ele>872.8</ele>
        <time>1970-01-01T02:38:42.000Z</time>
      </trkpt>
      <trkpt lat="45.40954" lon="4.58531">
        <ele>871.4</ele>
        <time>1970-01-01T02:38:43.000Z</time>
      </trkpt>
      <trkpt lat="45.40959" lon="4.58531">
        <ele>869.3</ele>
        <time>1970-01-01T02:38:44.000Z</time>
      </trkpt>
      <trkpt lat="45.40965" lon="4.58528">
        <ele>866</ele>
        <time>1970-01-01T02:38:45.000Z</time>
      </trkpt>
      <trkpt lat="45.40969" lon="4.58527">
        <ele>863.9</ele>
        <time>1970-01-01T02:38:46.000Z</time>
      </trkpt>
      <trkpt lat="45.40977" lon="4.58529">
        <ele>860</ele>
        <time>1970-01-01T02:38:48.000Z</time>
      </trkpt>
      <trkpt lat="45.40981" lon="4.58532">
        <ele>857.7</ele>
        <time>1970-01-01T02:38:49.000Z</time>
      </trkpt>
      <trkpt lat="45.40986" lon="4.58534">
        <ele>855.4</ele>
        <time>1970-01-01T02:38:50.000Z</time>
      </trkpt>
      <trkpt lat="45.4099" lon="4.58534">
        <ele>852.5</ele>
        <time>1970-01-01T02:38:51.000Z</time>
      </trkpt>
      <trkpt lat="45.40993" lon="4.58536">
        <ele>850.6</ele>
        <time>1970-01-01T02:38:52.000Z</time>
      </trkpt>
      <trkpt lat="45.40996" lon="4.58538">
        <ele>848.9</ele>
        <time>1970-01-01T02:38:53.000Z</time>
      </trkpt>
      <trkpt lat="45.41" lon="4.58542">
        <ele>847.1</ele>
        <time>1970-01-01T02:38:54.000Z</time>
      </trkpt>
      <trkpt lat="45.41002" lon="4.58544">
        <ele>846</ele>
        <time>1970-01-01T02:38:55.000Z</time>
      </trkpt>
      <trkpt lat="45.41004" lon="4.58551">
        <ele>844.2</ele>
        <time>1970-01-01T02:38:56.000Z</time>
      </trkpt>
      <trkpt lat="45.41006" lon="4.58557">
        <ele>837.3</ele>
        <time>1970-01-01T02:38:57.000Z</time>
      </trkpt>
      <trkpt lat="45.4101" lon="4.58561">
        <ele>837</ele>
        <time>1970-01-01T02:38:58.000Z</time>
      </trkpt>
      <trkpt lat="45.41013" lon="4.58565">
        <ele>836.7</ele>
        <time>1970-01-01T02:38:59.000Z</time>
      </trkpt>
      <trkpt lat="45.41015" lon="4.58568">
        <ele>836.5</ele>
        <time>1970-01-01T02:39:00.000Z</time>
      </trkpt>
      <trkpt lat="45.41018" lon="4.58572">
        <ele>836.3</ele>
        <time>1970-01-01T02:39:01.000Z</time>
      </trkpt>
      <trkpt lat="45.41022" lon="4.58573">
        <ele>836.1</ele>
        <time>1970-01-01T02:39:02.000Z</time>
      </trkpt>
      <trkpt lat="45.41025" lon="4.58571">
        <ele>836.3</ele>
        <time>1970-01-01T02:39:03.000Z</time>
      </trkpt>
      <trkpt lat="45.41029" lon="4.5857">
        <ele>836.5</ele>
        <time>1970-01-01T02:39:04.000Z</time>
      </trkpt>
      <trkpt lat="45.41032" lon="4.58569">
        <ele>836.6</ele>
        <time>1970-01-01T02:39:05.000Z</time>
      </trkpt>
      <trkpt lat="45.41038" lon="4.58565">
        <ele>836.9</ele>
        <time>1970-01-01T02:39:06.000Z</time>
      </trkpt>
      <trkpt lat="45.41045" lon="4.58565">
        <ele>833.9</ele>
        <time>1970-01-01T02:39:07.000Z</time>
      </trkpt>
      <trkpt lat="45.4105" lon="4.58565">
        <ele>832</ele>
        <time>1970-01-01T02:39:08.000Z</time>
      </trkpt>
      <trkpt lat="45.41053" lon="4.58568">
        <ele>830</ele>
        <time>1970-01-01T02:39:09.000Z</time>
      </trkpt>
      <trkpt lat="45.41056" lon="4.58573">
        <ele>828.8</ele>
        <time>1970-01-01T02:39:10.000Z</time>
      </trkpt>
      <trkpt lat="45.41059" lon="4.58585">
        <ele>825.9</ele>
        <time>1970-01-01T02:39:12.000Z</time>
      </trkpt>
      <trkpt lat="45.41063" lon="4.58591">
        <ele>822.1</ele>
        <time>1970-01-01T02:39:14.000Z</time>
      </trkpt>
      <trkpt lat="45.41066" lon="4.58602">
        <ele>818.6</ele>
        <time>1970-01-01T02:39:16.000Z</time>
      </trkpt>
      <trkpt lat="45.41069" lon="4.58607">
        <ele>815.1</ele>
        <time>1970-01-01T02:39:17.000Z</time>
      </trkpt>
      <trkpt lat="45.41068" lon="4.58616">
        <ele>814</ele>
        <time>1970-01-01T02:39:18.000Z</time>
      </trkpt>
      <trkpt lat="45.41066" lon="4.58627">
        <ele>811.4</ele>
        <time>1970-01-01T02:39:19.000Z</time>
      </trkpt>
      <trkpt lat="45.41064" lon="4.58635">
        <ele>809.8</ele>
        <time>1970-01-01T02:39:20.000Z</time>
      </trkpt>
      <trkpt lat="45.41063" lon="4.58641">
        <ele>807.6</ele>
        <time>1970-01-01T02:39:21.000Z</time>
      </trkpt>
      <trkpt lat="45.41063" lon="4.58645">
        <ele>807.5</ele>
        <time>1970-01-01T02:39:22.000Z</time>
      </trkpt>
      <trkpt lat="45.41066" lon="4.58649">
        <ele>805.5</ele>
        <time>1970-01-01T02:39:23.000Z</time>
      </trkpt>
      <trkpt lat="45.4107" lon="4.5865">
        <ele>803.4</ele>
        <time>1970-01-01T02:39:24.000Z</time>
      </trkpt>
      <trkpt lat="45.41073" lon="4.58651">
        <ele>802.6</ele>
        <time>1970-01-01T02:39:25.000Z</time>
      </trkpt>
      <trkpt lat="45.41078" lon="4.5865">
        <ele>801.2</ele>
        <time>1970-01-01T02:39:26.000Z</time>
      </trkpt>
      <trkpt lat="45.41083" lon="4.58648">
        <ele>801.5</ele>
        <time>1970-01-01T02:39:27.000Z</time>
      </trkpt>
      <trkpt lat="45.41086" lon="4.58646">
        <ele>800.9</ele>
        <time>1970-01-01T02:39:28.000Z</time>
      </trkpt>
      <trkpt lat="45.4109" lon="4.58643">
        <ele>800</ele>
        <time>1970-01-01T02:39:29.000Z</time>
      </trkpt>
      <trkpt lat="45.41093" lon="4.58641">
        <ele>798.9</ele>
        <time>1970-01-01T02:39:30.000Z</time>
      </trkpt>
      <trkpt lat="45.41097" lon="4.5864">
        <ele>798.2</ele>
        <time>1970-01-01T02:39:31.000Z</time>
      </trkpt>
      <trkpt lat="45.41101" lon="4.58639">
        <ele>796.9</ele>
        <time>1970-01-01T02:39:32.000Z</time>
      </trkpt>
      <trkpt lat="45.41106" lon="4.58639">
        <ele>794.3</ele>
        <time>1970-01-01T02:39:33.000Z</time>
      </trkpt>
      <trkpt lat="45.41108" lon="4.58644">
        <ele>792.4</ele>
        <time>1970-01-01T02:39:34.000Z</time>
      </trkpt>
      <trkpt lat="45.4111" lon="4.5865">
        <ele>790.8</ele>
        <time>1970-01-01T02:39:35.000Z</time>
      </trkpt>
      <trkpt lat="45.41111" lon="4.58656">
        <ele>788.6</ele>
        <time>1970-01-01T02:39:36.000Z</time>
      </trkpt>
      <trkpt lat="45.41113" lon="4.58659">
        <ele>787.7</ele>
        <time>1970-01-01T02:39:38.000Z</time>
      </trkpt>
      <trkpt lat="45.41115" lon="4.58664">
        <ele>785.4</ele>
        <time>1970-01-01T02:39:40.000Z</time>
      </trkpt>
      <trkpt lat="45.41116" lon="4.58669">
        <ele>784.5</ele>
        <time>1970-01-01T02:39:41.000Z</time>
      </trkpt>
      <trkpt lat="45.4112" lon="4.58672">
        <ele>780.3</ele>
        <time>1970-01-01T02:39:43.000Z</time>
      </trkpt>
      <trkpt lat="45.41121" lon="4.58678">
        <ele>779.1</ele>
        <time>1970-01-01T02:39:44.000Z</time>
      </trkpt>
      <trkpt lat="45.41124" lon="4.58683">
        <ele>776.1</ele>
        <time>1970-01-01T02:39:45.000Z</time>
      </trkpt>
      <trkpt lat="45.41128" lon="4.58685">
        <ele>773</ele>
        <time>1970-01-01T02:39:46.000Z</time>
      </trkpt>
      <trkpt lat="45.41131" lon="4.58684">
        <ele>771.2</ele>
        <time>1970-01-01T02:39:47.000Z</time>
      </trkpt>
      <trkpt lat="45.41135" lon="4.58682">
        <ele>769.4</ele>
        <time>1970-01-01T02:39:48.000Z</time>
      </trkpt>
      <trkpt lat="45.41141" lon="4.58689">
        <ele>764.8</ele>
        <time>1970-01-01T02:39:50.000Z</time>
      </trkpt>
      <trkpt lat="45.41141" lon="4.58694">
        <ele>763.6</ele>
        <time>1970-01-01T02:39:51.000Z</time>
      </trkpt>
      <trkpt lat="45.41143" lon="4.58698">
        <ele>762.4</ele>
        <time>1970-01-01T02:39:52.000Z</time>
      </trkpt>
      <trkpt lat="45.41148" lon="4.587">
        <ele>760.2</ele>
        <time>1970-01-01T02:39:53.000Z</time>
      </trkpt>
      <trkpt lat="45.4115" lon="4.58705">
        <ele>757.4</ele>
        <time>1970-01-01T02:39:54.000Z</time>
      </trkpt>
      <trkpt lat="45.41153" lon="4.58705">
        <ele>757.5</ele>
        <time>1970-01-01T02:39:56.000Z</time>
      </trkpt>
      <trkpt lat="45.41157" lon="4.58704">
        <ele>757.8</ele>
        <time>1970-01-01T02:39:58.000Z</time>
      </trkpt>
      <trkpt lat="45.41161" lon="4.58706">
        <ele>758</ele>
        <time>1970-01-01T02:40:00.000Z</time>
      </trkpt>
      <trkpt lat="45.41165" lon="4.587">
        <ele>758.3</ele>
        <time>1970-01-01T02:40:02.000Z</time>
      </trkpt>
      <trkpt lat="45.41167" lon="4.58698">
        <ele>758.5</ele>
        <time>1970-01-01T02:40:04.000Z</time>
      </trkpt>
      <trkpt lat="45.41167" lon="4.58702">
        <ele>758.6</ele>
        <time>1970-01-01T02:40:08.000Z</time>
      </trkpt>
      <trkpt lat="45.4117" lon="4.58701">
        <ele>758.8</ele>
        <time>1970-01-01T02:40:14.000Z</time>
      </trkpt>
      <trkpt lat="45.41172" lon="4.58698">
        <ele>759</ele>
        <time>1970-01-01T02:40:19.000Z</time>
      </trkpt>
      <trkpt lat="45.41174" lon="4.58695">
        <ele>759.1</ele>
        <time>1970-01-01T02:40:21.000Z</time>
      </trkpt>
      <trkpt lat="45.41176" lon="4.58694">
        <ele>759.3</ele>
        <time>1970-01-01T02:40:23.000Z</time>
      </trkpt>
      <trkpt lat="45.41179" lon="4.58694">
        <ele>759.5</ele>
        <time>1970-01-01T02:40:25.000Z</time>
      </trkpt>
      <trkpt lat="45.41182" lon="4.58694">
        <ele>759.6</ele>
        <time>1970-01-01T02:40:31.000Z</time>
      </trkpt>
      <trkpt lat="45.41184" lon="4.58696">
        <ele>759.6</ele>
        <time>1970-01-01T02:40:33.000Z</time>
      </trkpt>
      <trkpt lat="45.41184" lon="4.587">
        <ele>759.3</ele>
        <time>1970-01-01T02:40:34.000Z</time>
      </trkpt>
      <trkpt lat="45.41183" lon="4.58706">
        <ele>758.9</ele>
        <time>1970-01-01T02:40:36.000Z</time>
      </trkpt>
      <trkpt lat="45.4118" lon="4.58711">
        <ele>758.5</ele>
        <time>1970-01-01T02:40:37.000Z</time>
      </trkpt>
      <trkpt lat="45.41178" lon="4.58715">
        <ele>758.1</ele>
        <time>1970-01-01T02:40:38.000Z</time>
      </trkpt>
      <trkpt lat="45.41179" lon="4.5872">
        <ele>757.8</ele>
        <time>1970-01-01T02:40:39.000Z</time>
      </trkpt>
      <trkpt lat="45.41178" lon="4.58725">
        <ele>757.4</ele>
        <time>1970-01-01T02:40:40.000Z</time>
      </trkpt>
      <trkpt lat="45.41176" lon="4.5873">
        <ele>757.1</ele>
        <time>1970-01-01T02:40:41.000Z</time>
      </trkpt>
      <trkpt lat="45.41175" lon="4.58736">
        <ele>756.6</ele>
        <time>1970-01-01T02:40:42.000Z</time>
      </trkpt>
      <trkpt lat="45.41173" lon="4.58744">
        <ele>756</ele>
        <time>1970-01-01T02:40:43.000Z</time>
      </trkpt>
      <trkpt lat="45.41172" lon="4.58751">
        <ele>755.5</ele>
        <time>1970-01-01T02:40:44.000Z</time>
      </trkpt>
      <trkpt lat="45.41169" lon="4.58756">
        <ele>755</ele>
        <time>1970-01-01T02:40:45.000Z</time>
      </trkpt>
      <trkpt lat="45.41166" lon="4.58762">
        <ele>754.5</ele>
        <time>1970-01-01T02:40:46.000Z</time>
      </trkpt>
      <trkpt lat="45.41164" lon="4.5877">
        <ele>753.9</ele>
        <time>1970-01-01T02:40:47.000Z</time>
      </trkpt>
      <trkpt lat="45.41162" lon="4.58777">
        <ele>753.4</ele>
        <time>1970-01-01T02:40:48.000Z</time>
      </trkpt>
      <trkpt lat="45.4116" lon="4.58786">
        <ele>751.1</ele>
        <time>1970-01-01T02:40:49.000Z</time>
      </trkpt>
      <trkpt lat="45.41159" lon="4.58797">
        <ele>748.2</ele>
        <time>1970-01-01T02:40:50.000Z</time>
      </trkpt>
      <trkpt lat="45.41156" lon="4.58809">
        <ele>745.7</ele>
        <time>1970-01-01T02:40:51.000Z</time>
      </trkpt>
      <trkpt lat="45.41151" lon="4.58819">
        <ele>743.2</ele>
        <time>1970-01-01T02:40:52.000Z</time>
      </trkpt>
      <trkpt lat="45.41146" lon="4.5883">
        <ele>741.3</ele>
        <time>1970-01-01T02:40:53.000Z</time>
      </trkpt>
      <trkpt lat="45.4114" lon="4.58841">
        <ele>741.2</ele>
        <time>1970-01-01T02:40:54.000Z</time>
      </trkpt>
      <trkpt lat="45.41134" lon="4.58852">
        <ele>741.2</ele>
        <time>1970-01-01T02:40:55.000Z</time>
      </trkpt>
      <trkpt lat="45.41128" lon="4.58865">
        <ele>741.1</ele>
        <time>1970-01-01T02:40:56.000Z</time>
      </trkpt>
      <trkpt lat="45.41124" lon="4.58877">
        <ele>741.1</ele>
        <time>1970-01-01T02:40:57.000Z</time>
      </trkpt>
      <trkpt lat="45.41122" lon="4.58886">
        <ele>741.1</ele>
        <time>1970-01-01T02:40:58.000Z</time>
      </trkpt>
      <trkpt lat="45.41121" lon="4.58894">
        <ele>741.1</ele>
        <time>1970-01-01T02:40:59.000Z</time>
      </trkpt>
      <trkpt lat="45.41118" lon="4.58898">
        <ele>741</ele>
        <time>1970-01-01T02:41:00.000Z</time>
      </trkpt>
      <trkpt lat="45.41116" lon="4.58901">
        <ele>741</ele>
        <time>1970-01-01T02:41:01.000Z</time>
      </trkpt>
      <trkpt lat="45.41115" lon="4.58906">
        <ele>741</ele>
        <time>1970-01-01T02:41:03.000Z</time>
      </trkpt>
      <trkpt lat="45.41112" lon="4.58911">
        <ele>741.2</ele>
        <time>1970-01-01T02:41:05.000Z</time>
      </trkpt>
      <trkpt lat="45.41108" lon="4.58916">
        <ele>741.9</ele>
        <time>1970-01-01T02:41:07.000Z</time>
      </trkpt>
      <trkpt lat="45.41105" lon="4.58919">
        <ele>742.4</ele>
        <time>1970-01-01T02:41:09.000Z</time>
      </trkpt>
      <trkpt lat="45.411" lon="4.58922">
        <ele>743.2</ele>
        <time>1970-01-01T02:41:11.000Z</time>
      </trkpt>
      <trkpt lat="45.41096" lon="4.58925">
        <ele>743.7</ele>
        <time>1970-01-01T02:41:13.000Z</time>
      </trkpt>
      <trkpt lat="45.41092" lon="4.58928">
        <ele>744.4</ele>
        <time>1970-01-01T02:41:15.000Z</time>
      </trkpt>
      <trkpt lat="45.41089" lon="4.58931">
        <ele>744.9</ele>
        <time>1970-01-01T02:41:17.000Z</time>
      </trkpt>
      <trkpt lat="45.41086" lon="4.58932">
        <ele>745.3</ele>
        <time>1970-01-01T02:41:18.000Z</time>
      </trkpt>
      <trkpt lat="45.41083" lon="4.58937">
        <ele>745.9</ele>
        <time>1970-01-01T02:41:20.000Z</time>
      </trkpt>
      <trkpt lat="45.4108" lon="4.5894">
        <ele>746.6</ele>
        <time>1970-01-01T02:41:22.000Z</time>
      </trkpt>
      <trkpt lat="45.41076" lon="4.58944">
        <ele>747.4</ele>
        <time>1970-01-01T02:41:24.000Z</time>
      </trkpt>
      <trkpt lat="45.41072" lon="4.58948">
        <ele>748.2</ele>
        <time>1970-01-01T02:41:26.000Z</time>
      </trkpt>
      <trkpt lat="45.41069" lon="4.58951">
        <ele>748.8</ele>
        <time>1970-01-01T02:41:28.000Z</time>
      </trkpt>
      <trkpt lat="45.41067" lon="4.58954">
        <ele>749.4</ele>
        <time>1970-01-01T02:41:30.000Z</time>
      </trkpt>
      <trkpt lat="45.41064" lon="4.58958">
        <ele>750</ele>
        <time>1970-01-01T02:41:32.000Z</time>
      </trkpt>
      <trkpt lat="45.41061" lon="4.58961">
        <ele>750.9</ele>
        <time>1970-01-01T02:41:34.000Z</time>
      </trkpt>
      <trkpt lat="45.41058" lon="4.58966">
        <ele>752.1</ele>
        <time>1970-01-01T02:41:36.000Z</time>
      </trkpt>
      <trkpt lat="45.41055" lon="4.58971">
        <ele>753.4</ele>
        <time>1970-01-01T02:41:38.000Z</time>
      </trkpt>
      <trkpt lat="45.41051" lon="4.58976">
        <ele>754.2</ele>
        <time>1970-01-01T02:41:40.000Z</time>
      </trkpt>
      <trkpt lat="45.41049" lon="4.58979">
        <ele>754.8</ele>
        <time>1970-01-01T02:41:42.000Z</time>
      </trkpt>
      <trkpt lat="45.41045" lon="4.58983">
        <ele>755.7</ele>
        <time>1970-01-01T02:41:44.000Z</time>
      </trkpt>
      <trkpt lat="45.41042" lon="4.58985">
        <ele>756.2</ele>
        <time>1970-01-01T02:41:45.000Z</time>
      </trkpt>
      <trkpt lat="45.41039" lon="4.58989">
        <ele>756.9</ele>
        <time>1970-01-01T02:41:47.000Z</time>
      </trkpt>
      <trkpt lat="45.41035" lon="4.58993">
        <ele>757.6</ele>
        <time>1970-01-01T02:41:49.000Z</time>
      </trkpt>
      <trkpt lat="45.41032" lon="4.58996">
        <ele>758.3</ele>
        <time>1970-01-01T02:41:51.000Z</time>
      </trkpt>
      <trkpt lat="45.41029" lon="4.58997">
        <ele>758.9</ele>
        <time>1970-01-01T02:41:53.000Z</time>
      </trkpt>
      <trkpt lat="45.41026" lon="4.59">
        <ele>759.6</ele>
        <time>1970-01-01T02:41:56.000Z</time>
      </trkpt>
      <trkpt lat="45.41024" lon="4.59004">
        <ele>760.2</ele>
        <time>1970-01-01T02:41:58.000Z</time>
      </trkpt>
      <trkpt lat="45.41021" lon="4.59006">
        <ele>760.8</ele>
        <time>1970-01-01T02:42:00.000Z</time>
      </trkpt>
      <trkpt lat="45.41018" lon="4.5901">
        <ele>761.6</ele>
        <time>1970-01-01T02:42:02.000Z</time>
      </trkpt>
      <trkpt lat="45.41016" lon="4.59012">
        <ele>762.1</ele>
        <time>1970-01-01T02:42:04.000Z</time>
      </trkpt>
      <trkpt lat="45.41011" lon="4.59015">
        <ele>763.1</ele>
        <time>1970-01-01T02:42:06.000Z</time>
      </trkpt>
      <trkpt lat="45.41008" lon="4.59019">
        <ele>763.8</ele>
        <time>1970-01-01T02:42:08.000Z</time>
      </trkpt>
      <trkpt lat="45.41005" lon="4.59021">
        <ele>764.6</ele>
        <time>1970-01-01T02:42:10.000Z</time>
      </trkpt>
      <trkpt lat="45.41002" lon="4.59023">
        <ele>765.3</ele>
        <time>1970-01-01T02:42:12.000Z</time>
      </trkpt>
      <trkpt lat="45.41" lon="4.59027">
        <ele>765.9</ele>
        <time>1970-01-01T02:42:14.000Z</time>
      </trkpt>
      <trkpt lat="45.40998" lon="4.5903">
        <ele>766.4</ele>
        <time>1970-01-01T02:42:16.000Z</time>
      </trkpt>
      <trkpt lat="45.40994" lon="4.59032">
        <ele>767.3</ele>
        <time>1970-01-01T02:42:18.000Z</time>
      </trkpt>
      <trkpt lat="45.40992" lon="4.59036">
        <ele>768.1</ele>
        <time>1970-01-01T02:42:20.000Z</time>
      </trkpt>
      <trkpt lat="45.4099" lon="4.59043">
        <ele>769.1</ele>
        <time>1970-01-01T02:42:22.000Z</time>
      </trkpt>
      <trkpt lat="45.40988" lon="4.59047">
        <ele>770</ele>
        <time>1970-01-01T02:42:24.000Z</time>
      </trkpt>
      <trkpt lat="45.40986" lon="4.59052">
        <ele>770.8</ele>
        <time>1970-01-01T02:42:26.000Z</time>
      </trkpt>
      <trkpt lat="45.40984" lon="4.59055">
        <ele>771.4</ele>
        <time>1970-01-01T02:42:28.000Z</time>
      </trkpt>
      <trkpt lat="45.40982" lon="4.59058">
        <ele>772.1</ele>
        <time>1970-01-01T02:42:30.000Z</time>
      </trkpt>
      <trkpt lat="45.4098" lon="4.59062">
        <ele>772.8</ele>
        <time>1970-01-01T02:42:32.000Z</time>
      </trkpt>
      <trkpt lat="45.40978" lon="4.59065">
        <ele>773.4</ele>
        <time>1970-01-01T02:42:34.000Z</time>
      </trkpt>
      <trkpt lat="45.40974" lon="4.59068">
        <ele>774.2</ele>
        <time>1970-01-01T02:42:36.000Z</time>
      </trkpt>
      <trkpt lat="45.4097" lon="4.59069">
        <ele>775</ele>
        <time>1970-01-01T02:42:38.000Z</time>
      </trkpt>
      <trkpt lat="45.40965" lon="4.59072">
        <ele>776.1</ele>
        <time>1970-01-01T02:42:40.000Z</time>
      </trkpt>
      <trkpt lat="45.40962" lon="4.59075">
        <ele>776.8</ele>
        <time>1970-01-01T02:42:42.000Z</time>
      </trkpt>
      <trkpt lat="45.40958" lon="4.5908">
        <ele>777.9</ele>
        <time>1970-01-01T02:42:44.000Z</time>
      </trkpt>
      <trkpt lat="45.40955" lon="4.59082">
        <ele>778.8</ele>
        <time>1970-01-01T02:42:46.000Z</time>
      </trkpt>
      <trkpt lat="45.4095" lon="4.59084">
        <ele>779.7</ele>
        <time>1970-01-01T02:42:48.000Z</time>
      </trkpt>
      <trkpt lat="45.40948" lon="4.59085">
        <ele>780.3</ele>
        <time>1970-01-01T02:42:49.000Z</time>
      </trkpt>
      <trkpt lat="45.40944" lon="4.59087">
        <ele>781.4</ele>
        <time>1970-01-01T02:42:51.000Z</time>
      </trkpt>
      <trkpt lat="45.4094" lon="4.59087">
        <ele>782.6</ele>
        <time>1970-01-01T02:42:53.000Z</time>
      </trkpt>
      <trkpt lat="45.40936" lon="4.59086">
        <ele>783.8</ele>
        <time>1970-01-01T02:42:55.000Z</time>
      </trkpt>
      <trkpt lat="45.40933" lon="4.59085">
        <ele>784.6</ele>
        <time>1970-01-01T02:42:57.000Z</time>
      </trkpt>
      <trkpt lat="45.4093" lon="4.59082">
        <ele>784.2</ele>
        <time>1970-01-01T02:42:59.000Z</time>
      </trkpt>
      <trkpt lat="45.40926" lon="4.5908">
        <ele>786.7</ele>
        <time>1970-01-01T02:43:01.000Z</time>
      </trkpt>
      <trkpt lat="45.40922" lon="4.59077">
        <ele>788.3</ele>
        <time>1970-01-01T02:43:03.000Z</time>
      </trkpt>
      <trkpt lat="45.40919" lon="4.59075">
        <ele>789.6</ele>
        <time>1970-01-01T02:43:05.000Z</time>
      </trkpt>
      <trkpt lat="45.40915" lon="4.59073">
        <ele>790.8</ele>
        <time>1970-01-01T02:43:08.000Z</time>
      </trkpt>
      <trkpt lat="45.40912" lon="4.59072">
        <ele>791.6</ele>
        <time>1970-01-01T02:43:09.000Z</time>
      </trkpt>
      <trkpt lat="45.40909" lon="4.59072">
        <ele>792.4</ele>
        <time>1970-01-01T02:43:11.000Z</time>
      </trkpt>
      <trkpt lat="45.40906" lon="4.59072">
        <ele>793</ele>
        <time>1970-01-01T02:43:13.000Z</time>
      </trkpt>
      <trkpt lat="45.40902" lon="4.59072">
        <ele>793.6</ele>
        <time>1970-01-01T02:43:15.000Z</time>
      </trkpt>
      <trkpt lat="45.40898" lon="4.59071">
        <ele>794.2</ele>
        <time>1970-01-01T02:43:17.000Z</time>
      </trkpt>
      <trkpt lat="45.40894" lon="4.59071">
        <ele>794.7</ele>
        <time>1970-01-01T02:43:19.000Z</time>
      </trkpt>
      <trkpt lat="45.40891" lon="4.59073">
        <ele>795</ele>
        <time>1970-01-01T02:43:21.000Z</time>
      </trkpt>
      <trkpt lat="45.40887" lon="4.59074">
        <ele>795</ele>
        <time>1970-01-01T02:43:24.000Z</time>
      </trkpt>
      <trkpt lat="45.40882" lon="4.59074">
        <ele>792.7</ele>
        <time>1970-01-01T02:43:26.000Z</time>
      </trkpt>
      <trkpt lat="45.40876" lon="4.59075">
        <ele>790.5</ele>
        <time>1970-01-01T02:43:28.000Z</time>
      </trkpt>
      <trkpt lat="45.40873" lon="4.59076">
        <ele>789.3</ele>
        <time>1970-01-01T02:43:31.000Z</time>
      </trkpt>
      <trkpt lat="45.40869" lon="4.59077">
        <ele>787.5</ele>
        <time>1970-01-01T02:43:33.000Z</time>
      </trkpt>
      <trkpt lat="45.40864" lon="4.59079">
        <ele>785.5</ele>
        <time>1970-01-01T02:43:35.000Z</time>
      </trkpt>
      <trkpt lat="45.40861" lon="4.59083">
        <ele>784.1</ele>
        <time>1970-01-01T02:43:37.000Z</time>
      </trkpt>
      <trkpt lat="45.40859" lon="4.59086">
        <ele>782.9</ele>
        <time>1970-01-01T02:43:39.000Z</time>
      </trkpt>
      <trkpt lat="45.40857" lon="4.5909">
        <ele>781.8</ele>
        <time>1970-01-01T02:43:41.000Z</time>
      </trkpt>
      <trkpt lat="45.40856" lon="4.59096">
        <ele>780.4</ele>
        <time>1970-01-01T02:43:43.000Z</time>
      </trkpt>
      <trkpt lat="45.40854" lon="4.591">
        <ele>779.1</ele>
        <time>1970-01-01T02:43:45.000Z</time>
      </trkpt>
      <trkpt lat="45.40853" lon="4.59105">
        <ele>766</ele>
        <time>1970-01-01T02:43:48.000Z</time>
      </trkpt>
      <trkpt lat="45.40853" lon="4.5911">
        <ele>766.4</ele>
        <time>1970-01-01T02:43:50.000Z</time>
      </trkpt>
      <trkpt lat="45.40854" lon="4.59114">
        <ele>766.6</ele>
        <time>1970-01-01T02:43:53.000Z</time>
      </trkpt>
      <trkpt lat="45.40856" lon="4.59118">
        <ele>766.8</ele>
        <time>1970-01-01T02:43:54.000Z</time>
      </trkpt>
      <trkpt lat="45.40857" lon="4.59122">
        <ele>766.9</ele>
        <time>1970-01-01T02:43:56.000Z</time>
      </trkpt>
      <trkpt lat="45.40859" lon="4.59127">
        <ele>767.1</ele>
        <time>1970-01-01T02:43:59.000Z</time>
      </trkpt>
      <trkpt lat="45.40862" lon="4.5913">
        <ele>767.2</ele>
        <time>1970-01-01T02:44:03.000Z</time>
      </trkpt>
      <trkpt lat="45.40865" lon="4.59131">
        <ele>767.4</ele>
        <time>1970-01-01T02:44:05.000Z</time>
      </trkpt>
      <trkpt lat="45.40868" lon="4.59131">
        <ele>767.5</ele>
        <time>1970-01-01T02:44:07.000Z</time>
      </trkpt>
      <trkpt lat="45.40871" lon="4.59133">
        <ele>767.7</ele>
        <time>1970-01-01T02:44:09.000Z</time>
      </trkpt>
      <trkpt lat="45.40874" lon="4.59132">
        <ele>767.8</ele>
        <time>1970-01-01T02:44:11.000Z</time>
      </trkpt>
      <trkpt lat="45.40878" lon="4.5913">
        <ele>768.2</ele>
        <time>1970-01-01T02:44:14.000Z</time>
      </trkpt>
      <trkpt lat="45.40882" lon="4.59131">
        <ele>768.5</ele>
        <time>1970-01-01T02:44:16.000Z</time>
      </trkpt>
      <trkpt lat="45.40884" lon="4.59132">
        <ele>768.6</ele>
        <time>1970-01-01T02:44:18.000Z</time>
      </trkpt>
      <trkpt lat="45.40887" lon="4.59129">
        <ele>768.7</ele>
        <time>1970-01-01T02:44:20.000Z</time>
      </trkpt>
      <trkpt lat="45.4089" lon="4.59132">
        <ele>768.9</ele>
        <time>1970-01-01T02:44:24.000Z</time>
      </trkpt>
      <trkpt lat="45.40893" lon="4.59134">
        <ele>769</ele>
        <time>1970-01-01T02:44:26.000Z</time>
      </trkpt>
      <trkpt lat="45.40897" lon="4.59136">
        <ele>769.2</ele>
        <time>1970-01-01T02:44:29.000Z</time>
      </trkpt>
      <trkpt lat="45.409" lon="4.59139">
        <ele>769.3</ele>
        <time>1970-01-01T02:44:31.000Z</time>
      </trkpt>
      <trkpt lat="45.40905" lon="4.5914">
        <ele>769.5</ele>
        <time>1970-01-01T02:44:33.000Z</time>
      </trkpt>
      <trkpt lat="45.40909" lon="4.59141">
        <ele>769.7</ele>
        <time>1970-01-01T02:44:35.000Z</time>
      </trkpt>
      <trkpt lat="45.40913" lon="4.5914">
        <ele>769.8</ele>
        <time>1970-01-01T02:44:38.000Z</time>
      </trkpt>
      <trkpt lat="45.40917" lon="4.59141">
        <ele>770</ele>
        <time>1970-01-01T02:44:40.000Z</time>
      </trkpt>
      <trkpt lat="45.4092" lon="4.59143">
        <ele>770.1</ele>
        <time>1970-01-01T02:44:42.000Z</time>
      </trkpt>
      <trkpt lat="45.40923" lon="4.59145">
        <ele>770.2</ele>
        <time>1970-01-01T02:44:44.000Z</time>
      </trkpt>
      <trkpt lat="45.40928" lon="4.59146">
        <ele>770.4</ele>
        <time>1970-01-01T02:44:46.000Z</time>
      </trkpt>
      <trkpt lat="45.40931" lon="4.59145">
        <ele>770.5</ele>
        <time>1970-01-01T02:44:47.000Z</time>
      </trkpt>
      <trkpt lat="45.40934" lon="4.59145">
        <ele>770.6</ele>
        <time>1970-01-01T02:44:48.000Z</time>
      </trkpt>
      <trkpt lat="45.40939" lon="4.59145">
        <ele>770.9</ele>
        <time>1970-01-01T02:44:49.000Z</time>
      </trkpt>
      <trkpt lat="45.40944" lon="4.59145">
        <ele>771</ele>
        <time>1970-01-01T02:44:50.000Z</time>
      </trkpt>
      <trkpt lat="45.40947" lon="4.59144">
        <ele>771.1</ele>
        <time>1970-01-01T02:44:51.000Z</time>
      </trkpt>
      <trkpt lat="45.4095" lon="4.59144">
        <ele>771.2</ele>
        <time>1970-01-01T02:44:52.000Z</time>
      </trkpt>
      <trkpt lat="45.40956" lon="4.59144">
        <ele>771.4</ele>
        <time>1970-01-01T02:44:54.000Z</time>
      </trkpt>
      <trkpt lat="45.40959" lon="4.59144">
        <ele>771.5</ele>
        <time>1970-01-01T02:44:55.000Z</time>
      </trkpt>
      <trkpt lat="45.40963" lon="4.59144">
        <ele>771.6</ele>
        <time>1970-01-01T02:44:57.000Z</time>
      </trkpt>
      <trkpt lat="45.40966" lon="4.59144">
        <ele>771.7</ele>
        <time>1970-01-01T02:44:59.000Z</time>
      </trkpt>
      <trkpt lat="45.40969" lon="4.59144">
        <ele>771.8</ele>
        <time>1970-01-01T02:45:01.000Z</time>
      </trkpt>
      <trkpt lat="45.40974" lon="4.59143">
        <ele>771.9</ele>
        <time>1970-01-01T02:45:03.000Z</time>
      </trkpt>
      <trkpt lat="45.40976" lon="4.5914">
        <ele>772</ele>
        <time>1970-01-01T02:45:04.000Z</time>
      </trkpt>
      <trkpt lat="45.40979" lon="4.59139">
        <ele>772</ele>
        <time>1970-01-01T02:45:06.000Z</time>
      </trkpt>
      <trkpt lat="45.40983" lon="4.59139">
        <ele>772.1</ele>
        <time>1970-01-01T02:45:08.000Z</time>
      </trkpt>
      <trkpt lat="45.40986" lon="4.59138">
        <ele>772.3</ele>
        <time>1970-01-01T02:45:11.000Z</time>
      </trkpt>
      <trkpt lat="45.40991" lon="4.59137">
        <ele>772.5</ele>
        <time>1970-01-01T02:45:14.000Z</time>
      </trkpt>
      <trkpt lat="45.40994" lon="4.59135">
        <ele>772.7</ele>
        <time>1970-01-01T02:45:15.000Z</time>
      </trkpt>
      <trkpt lat="45.40997" lon="4.59135">
        <ele>772.8</ele>
        <time>1970-01-01T02:45:16.000Z</time>
      </trkpt>
      <trkpt lat="45.40999" lon="4.59135">
        <ele>772.9</ele>
        <time>1970-01-01T02:45:17.000Z</time>
      </trkpt>
      <trkpt lat="45.41002" lon="4.59135">
        <ele>773</ele>
        <time>1970-01-01T02:45:18.000Z</time>
      </trkpt>
      <trkpt lat="45.41005" lon="4.59135">
        <ele>773.1</ele>
        <time>1970-01-01T02:45:19.000Z</time>
      </trkpt>
      <trkpt lat="45.41008" lon="4.59135">
        <ele>773.2</ele>
        <time>1970-01-01T02:45:20.000Z</time>
      </trkpt>
      <trkpt lat="45.41012" lon="4.59135">
        <ele>773.3</ele>
        <time>1970-01-01T02:45:21.000Z</time>
      </trkpt>
      <trkpt lat="45.41015" lon="4.59136">
        <ele>773.4</ele>
        <time>1970-01-01T02:45:22.000Z</time>
      </trkpt>
      <trkpt lat="45.41019" lon="4.59135">
        <ele>773.5</ele>
        <time>1970-01-01T02:45:23.000Z</time>
      </trkpt>
      <trkpt lat="45.41022" lon="4.59134">
        <ele>773.7</ele>
        <time>1970-01-01T02:45:25.000Z</time>
      </trkpt>
      <trkpt lat="45.41026" lon="4.59132">
        <ele>773.8</ele>
        <time>1970-01-01T02:45:27.000Z</time>
      </trkpt>
      <trkpt lat="45.41028" lon="4.59128">
        <ele>774</ele>
        <time>1970-01-01T02:45:29.000Z</time>
      </trkpt>
      <trkpt lat="45.41031" lon="4.59124">
        <ele>774.3</ele>
        <time>1970-01-01T02:45:31.000Z</time>
      </trkpt>
      <trkpt lat="45.41033" lon="4.5912">
        <ele>774.5</ele>
        <time>1970-01-01T02:45:33.000Z</time>
      </trkpt>
      <trkpt lat="45.41036" lon="4.59117">
        <ele>774.7</ele>
        <time>1970-01-01T02:45:35.000Z</time>
      </trkpt>
      <trkpt lat="45.41038" lon="4.59112">
        <ele>774.8</ele>
        <time>1970-01-01T02:45:37.000Z</time>
      </trkpt>
      <trkpt lat="45.41042" lon="4.59106">
        <ele>775</ele>
        <time>1970-01-01T02:45:39.000Z</time>
      </trkpt>
      <trkpt lat="45.41046" lon="4.59099">
        <ele>775.2</ele>
        <time>1970-01-01T02:45:41.000Z</time>
      </trkpt>
      <trkpt lat="45.41049" lon="4.59093">
        <ele>775.4</ele>
        <time>1970-01-01T02:45:42.000Z</time>
      </trkpt>
      <trkpt lat="45.41053" lon="4.59088">
        <ele>775.6</ele>
        <time>1970-01-01T02:45:44.000Z</time>
      </trkpt>
      <trkpt lat="45.41057" lon="4.59084">
        <ele>775.8</ele>
        <time>1970-01-01T02:45:46.000Z</time>
      </trkpt>
      <trkpt lat="45.4106" lon="4.5908">
        <ele>775.9</ele>
        <time>1970-01-01T02:45:48.000Z</time>
      </trkpt>
      <trkpt lat="45.41064" lon="4.59075">
        <ele>776.1</ele>
        <time>1970-01-01T02:45:50.000Z</time>
      </trkpt>
      <trkpt lat="45.41067" lon="4.5907">
        <ele>776.3</ele>
        <time>1970-01-01T02:45:52.000Z</time>
      </trkpt>
      <trkpt lat="45.4107" lon="4.59067">
        <ele>776.4</ele>
        <time>1970-01-01T02:45:53.000Z</time>
      </trkpt>
      <trkpt lat="45.41073" lon="4.59062">
        <ele>776.5</ele>
        <time>1970-01-01T02:45:55.000Z</time>
      </trkpt>
      <trkpt lat="45.41075" lon="4.5906">
        <ele>776.6</ele>
        <time>1970-01-01T02:45:56.000Z</time>
      </trkpt>
      <trkpt lat="45.41079" lon="4.59057">
        <ele>776.8</ele>
        <time>1970-01-01T02:45:58.000Z</time>
      </trkpt>
      <trkpt lat="45.41083" lon="4.59052">
        <ele>777</ele>
        <time>1970-01-01T02:46:00.000Z</time>
      </trkpt>
      <trkpt lat="45.41087" lon="4.59047">
        <ele>777.2</ele>
        <time>1970-01-01T02:46:02.000Z</time>
      </trkpt>
      <trkpt lat="45.41089" lon="4.59044">
        <ele>777.3</ele>
        <time>1970-01-01T02:46:03.000Z</time>
      </trkpt>
      <trkpt lat="45.41092" lon="4.5904">
        <ele>777.5</ele>
        <time>1970-01-01T02:46:05.000Z</time>
      </trkpt>
      <trkpt lat="45.41095" lon="4.59037">
        <ele>777.6</ele>
        <time>1970-01-01T02:46:07.000Z</time>
      </trkpt>
      <trkpt lat="45.41099" lon="4.59032">
        <ele>777.7</ele>
        <time>1970-01-01T02:46:09.000Z</time>
      </trkpt>
      <trkpt lat="45.41103" lon="4.59029">
        <ele>777.8</ele>
        <time>1970-01-01T02:46:11.000Z</time>
      </trkpt>
      <trkpt lat="45.41107" lon="4.59026">
        <ele>777.9</ele>
        <time>1970-01-01T02:46:13.000Z</time>
      </trkpt>
      <trkpt lat="45.4111" lon="4.59024">
        <ele>778</ele>
        <time>1970-01-01T02:46:15.000Z</time>
      </trkpt>
      <trkpt lat="45.41114" lon="4.59022">
        <ele>778.1</ele>
        <time>1970-01-01T02:46:17.000Z</time>
      </trkpt>
      <trkpt lat="45.41119" lon="4.59021">
        <ele>778.3</ele>
        <time>1970-01-01T02:46:19.000Z</time>
      </trkpt>
      <trkpt lat="45.41123" lon="4.59019">
        <ele>778.3</ele>
        <time>1970-01-01T02:46:21.000Z</time>
      </trkpt>
      <trkpt lat="45.41127" lon="4.59019">
        <ele>778.4</ele>
        <time>1970-01-01T02:46:23.000Z</time>
      </trkpt>
      <trkpt lat="45.41131" lon="4.59017">
        <ele>778.5</ele>
        <time>1970-01-01T02:46:25.000Z</time>
      </trkpt>
      <trkpt lat="45.41136" lon="4.59015">
        <ele>778.6</ele>
        <time>1970-01-01T02:46:27.000Z</time>
      </trkpt>
      <trkpt lat="45.4114" lon="4.59014">
        <ele>778.7</ele>
        <time>1970-01-01T02:46:29.000Z</time>
      </trkpt>
      <trkpt lat="45.41143" lon="4.59012">
        <ele>778.8</ele>
        <time>1970-01-01T02:46:31.000Z</time>
      </trkpt>
      <trkpt lat="45.41147" lon="4.59009">
        <ele>778.8</ele>
        <time>1970-01-01T02:46:33.000Z</time>
      </trkpt>
      <trkpt lat="45.41152" lon="4.59006">
        <ele>778.9</ele>
        <time>1970-01-01T02:46:35.000Z</time>
      </trkpt>
      <trkpt lat="45.41155" lon="4.59004">
        <ele>779</ele>
        <time>1970-01-01T02:46:36.000Z</time>
      </trkpt>
      <trkpt lat="45.41158" lon="4.59003">
        <ele>779.1</ele>
        <time>1970-01-01T02:46:37.000Z</time>
      </trkpt>
      <trkpt lat="45.41162" lon="4.59">
        <ele>779.2</ele>
        <time>1970-01-01T02:46:39.000Z</time>
      </trkpt>
      <trkpt lat="45.41165" lon="4.58995">
        <ele>779.3</ele>
        <time>1970-01-01T02:46:41.000Z</time>
      </trkpt>
      <trkpt lat="45.41168" lon="4.58992">
        <ele>779.4</ele>
        <time>1970-01-01T02:46:43.000Z</time>
      </trkpt>
      <trkpt lat="45.41172" lon="4.5899">
        <ele>779.5</ele>
        <time>1970-01-01T02:46:45.000Z</time>
      </trkpt>
      <trkpt lat="45.41176" lon="4.58988">
        <ele>779.6</ele>
        <time>1970-01-01T02:46:47.000Z</time>
      </trkpt>
      <trkpt lat="45.41181" lon="4.58985">
        <ele>779.7</ele>
        <time>1970-01-01T02:46:49.000Z</time>
      </trkpt>
      <trkpt lat="45.41184" lon="4.58982">
        <ele>779.7</ele>
        <time>1970-01-01T02:46:51.000Z</time>
      </trkpt>
      <trkpt lat="45.41186" lon="4.58982">
        <ele>779.8</ele>
        <time>1970-01-01T02:46:53.000Z</time>
      </trkpt>
      <trkpt lat="45.4119" lon="4.58977">
        <ele>779.9</ele>
        <time>1970-01-01T02:46:55.000Z</time>
      </trkpt>
      <trkpt lat="45.41195" lon="4.58975">
        <ele>779.9</ele>
        <time>1970-01-01T02:46:57.000Z</time>
      </trkpt>
      <trkpt lat="45.412" lon="4.58973">
        <ele>782.8</ele>
        <time>1970-01-01T02:46:59.000Z</time>
      </trkpt>
      <trkpt lat="45.41206" lon="4.58974">
        <ele>785.8</ele>
        <time>1970-01-01T02:47:02.000Z</time>
      </trkpt>
      <trkpt lat="45.41209" lon="4.58973">
        <ele>785.6</ele>
        <time>1970-01-01T02:47:04.000Z</time>
      </trkpt>
      <trkpt lat="45.41212" lon="4.58972">
        <ele>785.4</ele>
        <time>1970-01-01T02:47:05.000Z</time>
      </trkpt>
      <trkpt lat="45.41215" lon="4.58971">
        <ele>785.1</ele>
        <time>1970-01-01T02:47:06.000Z</time>
      </trkpt>
      <trkpt lat="45.41218" lon="4.5897">
        <ele>784.9</ele>
        <time>1970-01-01T02:47:07.000Z</time>
      </trkpt>
      <trkpt lat="45.41223" lon="4.58968">
        <ele>784.5</ele>
        <time>1970-01-01T02:47:09.000Z</time>
      </trkpt>
      <trkpt lat="45.41226" lon="4.58967">
        <ele>784.3</ele>
        <time>1970-01-01T02:47:10.000Z</time>
      </trkpt>
      <trkpt lat="45.41229" lon="4.58966">
        <ele>784.2</ele>
        <time>1970-01-01T02:47:11.000Z</time>
      </trkpt>
      <trkpt lat="45.41233" lon="4.58963">
        <ele>783.3</ele>
        <time>1970-01-01T02:47:12.000Z</time>
      </trkpt>
      <trkpt lat="45.41235" lon="4.58961">
        <ele>782.6</ele>
        <time>1970-01-01T02:47:13.000Z</time>
      </trkpt>
      <trkpt lat="45.41238" lon="4.58961">
        <ele>782.1</ele>
        <time>1970-01-01T02:47:14.000Z</time>
      </trkpt>
      <trkpt lat="45.41241" lon="4.58961">
        <ele>782</ele>
        <time>1970-01-01T02:47:15.000Z</time>
      </trkpt>
      <trkpt lat="45.41243" lon="4.58961">
        <ele>782</ele>
        <time>1970-01-01T02:47:16.000Z</time>
      </trkpt>
      <trkpt lat="45.41246" lon="4.58958">
        <ele>781.8</ele>
        <time>1970-01-01T02:47:17.000Z</time>
      </trkpt>
      <trkpt lat="45.41251" lon="4.58956">
        <ele>781.3</ele>
        <time>1970-01-01T02:47:19.000Z</time>
      </trkpt>
      <trkpt lat="45.41255" lon="4.58953">
        <ele>781</ele>
        <time>1970-01-01T02:47:21.000Z</time>
      </trkpt>
      <trkpt lat="45.41257" lon="4.5895">
        <ele>781</ele>
        <time>1970-01-01T02:47:22.000Z</time>
      </trkpt>
      <trkpt lat="45.4126" lon="4.58948">
        <ele>781.2</ele>
        <time>1970-01-01T02:47:23.000Z</time>
      </trkpt>
      <trkpt lat="45.41263" lon="4.58948">
        <ele>781.4</ele>
        <time>1970-01-01T02:47:24.000Z</time>
      </trkpt>
      <trkpt lat="45.41269" lon="4.58948">
        <ele>781.6</ele>
        <time>1970-01-01T02:47:26.000Z</time>
      </trkpt>
      <trkpt lat="45.41272" lon="4.58947">
        <ele>781.8</ele>
        <time>1970-01-01T02:47:28.000Z</time>
      </trkpt>
      <trkpt lat="45.41276" lon="4.58947">
        <ele>782.1</ele>
        <time>1970-01-01T02:47:30.000Z</time>
      </trkpt>
      <trkpt lat="45.41279" lon="4.58946">
        <ele>782.2</ele>
        <time>1970-01-01T02:47:32.000Z</time>
      </trkpt>
      <trkpt lat="45.41284" lon="4.58944">
        <ele>782.5</ele>
        <time>1970-01-01T02:47:34.000Z</time>
      </trkpt>
      <trkpt lat="45.41288" lon="4.58943">
        <ele>782.7</ele>
        <time>1970-01-01T02:47:36.000Z</time>
      </trkpt>
      <trkpt lat="45.41293" lon="4.58941">
        <ele>782.9</ele>
        <time>1970-01-01T02:47:38.000Z</time>
      </trkpt>
      <trkpt lat="45.41296" lon="4.5894">
        <ele>783.1</ele>
        <time>1970-01-01T02:47:40.000Z</time>
      </trkpt>
      <trkpt lat="45.413" lon="4.58938">
        <ele>783.3</ele>
        <time>1970-01-01T02:47:42.000Z</time>
      </trkpt>
      <trkpt lat="45.41304" lon="4.58934">
        <ele>783.5</ele>
        <time>1970-01-01T02:47:44.000Z</time>
      </trkpt>
      <trkpt lat="45.41308" lon="4.5893">
        <ele>783.7</ele>
        <time>1970-01-01T02:47:46.000Z</time>
      </trkpt>
      <trkpt lat="45.41311" lon="4.58929">
        <ele>783.8</ele>
        <time>1970-01-01T02:47:47.000Z</time>
      </trkpt>
      <trkpt lat="45.41314" lon="4.58928">
        <ele>783.9</ele>
        <time>1970-01-01T02:47:48.000Z</time>
      </trkpt>
      <trkpt lat="45.41317" lon="4.58924">
        <ele>784.1</ele>
        <time>1970-01-01T02:47:49.000Z</time>
      </trkpt>
      <trkpt lat="45.41322" lon="4.5892">
        <ele>784.3</ele>
        <time>1970-01-01T02:47:51.000Z</time>
      </trkpt>
      <trkpt lat="45.41325" lon="4.58919">
        <ele>784.5</ele>
        <time>1970-01-01T02:47:53.000Z</time>
      </trkpt>
      <trkpt lat="45.4133" lon="4.58917">
        <ele>784.6</ele>
        <time>1970-01-01T02:47:54.000Z</time>
      </trkpt>
      <trkpt lat="45.41335" lon="4.58913">
        <ele>784.9</ele>
        <time>1970-01-01T02:47:55.000Z</time>
      </trkpt>
      <trkpt lat="45.41338" lon="4.58911">
        <ele>785</ele>
        <time>1970-01-01T02:47:57.000Z</time>
      </trkpt>
      <trkpt lat="45.41343" lon="4.58908">
        <ele>785.2</ele>
        <time>1970-01-01T02:47:58.000Z</time>
      </trkpt>
      <trkpt lat="45.41347" lon="4.58909">
        <ele>785.4</ele>
        <time>1970-01-01T02:48:00.000Z</time>
      </trkpt>
      <trkpt lat="45.41352" lon="4.58909">
        <ele>785.5</ele>
        <time>1970-01-01T02:48:02.000Z</time>
      </trkpt>
      <trkpt lat="45.41355" lon="4.58909">
        <ele>785.7</ele>
        <time>1970-01-01T02:48:04.000Z</time>
      </trkpt>
      <trkpt lat="45.4136" lon="4.58909">
        <ele>785.9</ele>
        <time>1970-01-01T02:48:06.000Z</time>
      </trkpt>
      <trkpt lat="45.41364" lon="4.58909">
        <ele>786</ele>
        <time>1970-01-01T02:48:08.000Z</time>
      </trkpt>
      <trkpt lat="45.41369" lon="4.58907">
        <ele>786.2</ele>
        <time>1970-01-01T02:48:10.000Z</time>
      </trkpt>
      <trkpt lat="45.41372" lon="4.58905">
        <ele>786.5</ele>
        <time>1970-01-01T02:48:11.000Z</time>
      </trkpt>
      <trkpt lat="45.41377" lon="4.58905">
        <ele>786.7</ele>
        <time>1970-01-01T02:48:12.000Z</time>
      </trkpt>
      <trkpt lat="45.41382" lon="4.58906">
        <ele>787</ele>
        <time>1970-01-01T02:48:13.000Z</time>
      </trkpt>
      <trkpt lat="45.41387" lon="4.58905">
        <ele>787.2</ele>
        <time>1970-01-01T02:48:14.000Z</time>
      </trkpt>
      <trkpt lat="45.41391" lon="4.58906">
        <ele>787.5</ele>
        <time>1970-01-01T02:48:16.000Z</time>
      </trkpt>
      <trkpt lat="45.41394" lon="4.58906">
        <ele>787.6</ele>
        <time>1970-01-01T02:48:17.000Z</time>
      </trkpt>
      <trkpt lat="45.41397" lon="4.58906">
        <ele>787.8</ele>
        <time>1970-01-01T02:48:18.000Z</time>
      </trkpt>
      <trkpt lat="45.414" lon="4.58905">
        <ele>788</ele>
        <time>1970-01-01T02:48:19.000Z</time>
      </trkpt>
      <trkpt lat="45.41403" lon="4.58901">
        <ele>788.2</ele>
        <time>1970-01-01T02:48:20.000Z</time>
      </trkpt>
      <trkpt lat="45.41405" lon="4.58898">
        <ele>788.3</ele>
        <time>1970-01-01T02:48:21.000Z</time>
      </trkpt>
      <trkpt lat="45.41408" lon="4.58897">
        <ele>788.4</ele>
        <time>1970-01-01T02:48:22.000Z</time>
      </trkpt>
      <trkpt lat="45.41413" lon="4.58896">
        <ele>788.6</ele>
        <time>1970-01-01T02:48:24.000Z</time>
      </trkpt>
      <trkpt lat="45.41418" lon="4.58894">
        <ele>788.8</ele>
        <time>1970-01-01T02:48:27.000Z</time>
      </trkpt>
      <trkpt lat="45.41424" lon="4.58892">
        <ele>789</ele>
        <time>1970-01-01T02:48:29.000Z</time>
      </trkpt>
      <trkpt lat="45.41428" lon="4.58891">
        <ele>789.1</ele>
        <time>1970-01-01T02:48:31.000Z</time>
      </trkpt>
      <trkpt lat="45.41432" lon="4.58892">
        <ele>789.2</ele>
        <time>1970-01-01T02:48:33.000Z</time>
      </trkpt>
      <trkpt lat="45.41434" lon="4.5889">
        <ele>789.3</ele>
        <time>1970-01-01T02:48:35.000Z</time>
      </trkpt>
      <trkpt lat="45.41438" lon="4.5889">
        <ele>789.5</ele>
        <time>1970-01-01T02:48:37.000Z</time>
      </trkpt>
      <trkpt lat="45.41441" lon="4.58892">
        <ele>789.6</ele>
        <time>1970-01-01T02:48:38.000Z</time>
      </trkpt>
      <trkpt lat="45.41445" lon="4.58892">
        <ele>789.7</ele>
        <time>1970-01-01T02:48:40.000Z</time>
      </trkpt>
      <trkpt lat="45.4145" lon="4.58893">
        <ele>789.9</ele>
        <time>1970-01-01T02:48:42.000Z</time>
      </trkpt>
      <trkpt lat="45.41455" lon="4.58894">
        <ele>790.1</ele>
        <time>1970-01-01T02:48:44.000Z</time>
      </trkpt>
      <trkpt lat="45.41459" lon="4.58894">
        <ele>790.2</ele>
        <time>1970-01-01T02:48:45.000Z</time>
      </trkpt>
      <trkpt lat="45.41462" lon="4.58893">
        <ele>790.3</ele>
        <time>1970-01-01T02:48:46.000Z</time>
      </trkpt>
      <trkpt lat="45.41465" lon="4.58891">
        <ele>790.4</ele>
        <time>1970-01-01T02:48:47.000Z</time>
      </trkpt>
      <trkpt lat="45.41469" lon="4.58889">
        <ele>790.6</ele>
        <time>1970-01-01T02:48:49.000Z</time>
      </trkpt>
      <trkpt lat="45.41473" lon="4.58888">
        <ele>790.7</ele>
        <time>1970-01-01T02:48:51.000Z</time>
      </trkpt>
      <trkpt lat="45.41477" lon="4.58888">
        <ele>790.8</ele>
        <time>1970-01-01T02:48:53.000Z</time>
      </trkpt>
      <trkpt lat="45.4148" lon="4.58886">
        <ele>791</ele>
        <time>1970-01-01T02:48:56.000Z</time>
      </trkpt>
      <trkpt lat="45.41483" lon="4.58886">
        <ele>791.1</ele>
        <time>1970-01-01T02:48:58.000Z</time>
      </trkpt>
      <trkpt lat="45.41487" lon="4.58887">
        <ele>791.2</ele>
        <time>1970-01-01T02:49:01.000Z</time>
      </trkpt>
      <trkpt lat="45.41493" lon="4.58889">
        <ele>791.5</ele>
        <time>1970-01-01T02:49:03.000Z</time>
      </trkpt>
      <trkpt lat="45.41498" lon="4.58891">
        <ele>791.7</ele>
        <time>1970-01-01T02:49:04.000Z</time>
      </trkpt>
      <trkpt lat="45.41504" lon="4.58893">
        <ele>791.9</ele>
        <time>1970-01-01T02:49:05.000Z</time>
      </trkpt>
      <trkpt lat="45.41511" lon="4.58896">
        <ele>792.2</ele>
        <time>1970-01-01T02:49:06.000Z</time>
      </trkpt>
      <trkpt lat="45.41514" lon="4.58896">
        <ele>792.3</ele>
        <time>1970-01-01T02:49:07.000Z</time>
      </trkpt>
      <trkpt lat="45.41517" lon="4.58895">
        <ele>792.4</ele>
        <time>1970-01-01T02:49:08.000Z</time>
      </trkpt>
      <trkpt lat="45.41523" lon="4.58894">
        <ele>792.6</ele>
        <time>1970-01-01T02:49:10.000Z</time>
      </trkpt>
      <trkpt lat="45.41528" lon="4.58895">
        <ele>792.7</ele>
        <time>1970-01-01T02:49:11.000Z</time>
      </trkpt>
      <trkpt lat="45.41533" lon="4.58896">
        <ele>792.8</ele>
        <time>1970-01-01T02:49:12.000Z</time>
      </trkpt>
      <trkpt lat="45.4154" lon="4.58897">
        <ele>793</ele>
        <time>1970-01-01T02:49:13.000Z</time>
      </trkpt>
      <trkpt lat="45.41543" lon="4.58898">
        <ele>793.3</ele>
        <time>1970-01-01T02:49:14.000Z</time>
      </trkpt>
      <trkpt lat="45.41547" lon="4.58898">
        <ele>793.6</ele>
        <time>1970-01-01T02:49:15.000Z</time>
      </trkpt>
      <trkpt lat="45.41551" lon="4.58897">
        <ele>794</ele>
        <time>1970-01-01T02:49:16.000Z</time>
      </trkpt>
      <trkpt lat="45.41556" lon="4.58897">
        <ele>794.4</ele>
        <time>1970-01-01T02:49:18.000Z</time>
      </trkpt>
      <trkpt lat="45.4156" lon="4.58899">
        <ele>794.8</ele>
        <time>1970-01-01T02:49:20.000Z</time>
      </trkpt>
      <trkpt lat="45.41564" lon="4.589">
        <ele>795.2</ele>
        <time>1970-01-01T02:49:22.000Z</time>
      </trkpt>
      <trkpt lat="45.41568" lon="4.58898">
        <ele>795.5</ele>
        <time>1970-01-01T02:49:23.000Z</time>
      </trkpt>
      <trkpt lat="45.41571" lon="4.58897">
        <ele>795.8</ele>
        <time>1970-01-01T02:49:24.000Z</time>
      </trkpt>
      <trkpt lat="45.41574" lon="4.58898">
        <ele>796</ele>
        <time>1970-01-01T02:49:25.000Z</time>
      </trkpt>
      <trkpt lat="45.41577" lon="4.589">
        <ele>796.3</ele>
        <time>1970-01-01T02:49:26.000Z</time>
      </trkpt>
      <trkpt lat="45.41581" lon="4.58902">
        <ele>796.6</ele>
        <time>1970-01-01T02:49:27.000Z</time>
      </trkpt>
      <trkpt lat="45.41584" lon="4.58901">
        <ele>797</ele>
        <time>1970-01-01T02:49:28.000Z</time>
      </trkpt>
      <trkpt lat="45.41588" lon="4.58901">
        <ele>797.3</ele>
        <time>1970-01-01T02:49:29.000Z</time>
      </trkpt>
      <trkpt lat="45.41592" lon="4.58901">
        <ele>797.6</ele>
        <time>1970-01-01T02:49:30.000Z</time>
      </trkpt>
      <trkpt lat="45.41595" lon="4.58901">
        <ele>797.9</ele>
        <time>1970-01-01T02:49:31.000Z</time>
      </trkpt>
      <trkpt lat="45.41599" lon="4.589">
        <ele>798.2</ele>
        <time>1970-01-01T02:49:33.000Z</time>
      </trkpt>
      <trkpt lat="45.41602" lon="4.58901">
        <ele>798.6</ele>
        <time>1970-01-01T02:49:35.000Z</time>
      </trkpt>
      <trkpt lat="45.41605" lon="4.58902">
        <ele>798.8</ele>
        <time>1970-01-01T02:49:36.000Z</time>
      </trkpt>
      <trkpt lat="45.4161" lon="4.58904">
        <ele>799.3</ele>
        <time>1970-01-01T02:49:38.000Z</time>
      </trkpt>
      <trkpt lat="45.41613" lon="4.58906">
        <ele>799.5</ele>
        <time>1970-01-01T02:49:40.000Z</time>
      </trkpt>
      <trkpt lat="45.41616" lon="4.58906">
        <ele>799.8</ele>
        <time>1970-01-01T02:49:42.000Z</time>
      </trkpt>
      <trkpt lat="45.41619" lon="4.58906">
        <ele>800.1</ele>
        <time>1970-01-01T02:49:44.000Z</time>
      </trkpt>
      <trkpt lat="45.41624" lon="4.58905">
        <ele>800.4</ele>
        <time>1970-01-01T02:49:46.000Z</time>
      </trkpt>
      <trkpt lat="45.41629" lon="4.58904">
        <ele>800.7</ele>
        <time>1970-01-01T02:49:48.000Z</time>
      </trkpt>
      <trkpt lat="45.41632" lon="4.58904">
        <ele>800.9</ele>
        <time>1970-01-01T02:49:49.000Z</time>
      </trkpt>
      <trkpt lat="45.41636" lon="4.58904">
        <ele>801.1</ele>
        <time>1970-01-01T02:49:51.000Z</time>
      </trkpt>
      <trkpt lat="45.4164" lon="4.58903">
        <ele>801.4</ele>
        <time>1970-01-01T02:49:53.000Z</time>
      </trkpt>
      <trkpt lat="45.41643" lon="4.58903">
        <ele>801.6</ele>
        <time>1970-01-01T02:49:54.000Z</time>
      </trkpt>
      <trkpt lat="45.41648" lon="4.58901">
        <ele>801.9</ele>
        <time>1970-01-01T02:49:56.000Z</time>
      </trkpt>
      <trkpt lat="45.41653" lon="4.589">
        <ele>802.2</ele>
        <time>1970-01-01T02:49:57.000Z</time>
      </trkpt>
      <trkpt lat="45.41658" lon="4.58899">
        <ele>802.6</ele>
        <time>1970-01-01T02:49:58.000Z</time>
      </trkpt>
      <trkpt lat="45.41662" lon="4.58901">
        <ele>802.8</ele>
        <time>1970-01-01T02:50:00.000Z</time>
      </trkpt>
      <trkpt lat="45.41669" lon="4.58897">
        <ele>803.2</ele>
        <time>1970-01-01T02:50:02.000Z</time>
      </trkpt>
      <trkpt lat="45.41671" lon="4.58894">
        <ele>803.4</ele>
        <time>1970-01-01T02:50:03.000Z</time>
      </trkpt>
      <trkpt lat="45.41674" lon="4.58894">
        <ele>803.6</ele>
        <time>1970-01-01T02:50:04.000Z</time>
      </trkpt>
      <trkpt lat="45.41678" lon="4.58896">
        <ele>803.9</ele>
        <time>1970-01-01T02:50:05.000Z</time>
      </trkpt>
      <trkpt lat="45.41681" lon="4.58899">
        <ele>804.1</ele>
        <time>1970-01-01T02:50:06.000Z</time>
      </trkpt>
      <trkpt lat="45.41685" lon="4.58899">
        <ele>804.3</ele>
        <time>1970-01-01T02:50:07.000Z</time>
      </trkpt>
      <trkpt lat="45.4169" lon="4.589">
        <ele>804.7</ele>
        <time>1970-01-01T02:50:08.000Z</time>
      </trkpt>
      <trkpt lat="45.41695" lon="4.58902">
        <ele>805</ele>
        <time>1970-01-01T02:50:09.000Z</time>
      </trkpt>
      <trkpt lat="45.41698" lon="4.58903">
        <ele>805.2</ele>
        <time>1970-01-01T02:50:10.000Z</time>
      </trkpt>
      <trkpt lat="45.41702" lon="4.58905">
        <ele>805.4</ele>
        <time>1970-01-01T02:50:11.000Z</time>
      </trkpt>
      <trkpt lat="45.41706" lon="4.58908">
        <ele>805.7</ele>
        <time>1970-01-01T02:50:13.000Z</time>
      </trkpt>
      <trkpt lat="45.41709" lon="4.58909">
        <ele>806.1</ele>
        <time>1970-01-01T02:50:14.000Z</time>
      </trkpt>
      <trkpt lat="45.41712" lon="4.58911">
        <ele>806.5</ele>
        <time>1970-01-01T02:50:15.000Z</time>
      </trkpt>
      <trkpt lat="45.41717" lon="4.58915">
        <ele>807.1</ele>
        <time>1970-01-01T02:50:17.000Z</time>
      </trkpt>
      <trkpt lat="45.41719" lon="4.58917">
        <ele>807.5</ele>
        <time>1970-01-01T02:50:18.000Z</time>
      </trkpt>
      <trkpt lat="45.41723" lon="4.58919">
        <ele>808</ele>
        <time>1970-01-01T02:50:19.000Z</time>
      </trkpt>
      <trkpt lat="45.41726" lon="4.58923">
        <ele>808.5</ele>
        <time>1970-01-01T02:50:20.000Z</time>
      </trkpt>
      <trkpt lat="45.41728" lon="4.58925">
        <ele>808.8</ele>
        <time>1970-01-01T02:50:21.000Z</time>
      </trkpt>
      <trkpt lat="45.41731" lon="4.58927">
        <ele>809.2</ele>
        <time>1970-01-01T02:50:22.000Z</time>
      </trkpt>
      <trkpt lat="45.41734" lon="4.58928">
        <ele>809.6</ele>
        <time>1970-01-01T02:50:23.000Z</time>
      </trkpt>
      <trkpt lat="45.41737" lon="4.5893">
        <ele>810</ele>
        <time>1970-01-01T02:50:24.000Z</time>
      </trkpt>
      <trkpt lat="45.41741" lon="4.58934">
        <ele>810.7</ele>
        <time>1970-01-01T02:50:26.000Z</time>
      </trkpt>
      <trkpt lat="45.41744" lon="4.58936">
        <ele>811.1</ele>
        <time>1970-01-01T02:50:27.000Z</time>
      </trkpt>
      <trkpt lat="45.41747" lon="4.58939">
        <ele>811.5</ele>
        <time>1970-01-01T02:50:28.000Z</time>
      </trkpt>
      <trkpt lat="45.4175" lon="4.58941">
        <ele>812</ele>
        <time>1970-01-01T02:50:29.000Z</time>
      </trkpt>
      <trkpt lat="45.41754" lon="4.58945">
        <ele>812.8</ele>
        <time>1970-01-01T02:50:31.000Z</time>
      </trkpt>
      <trkpt lat="45.41758" lon="4.58947">
        <ele>813.5</ele>
        <time>1970-01-01T02:50:33.000Z</time>
      </trkpt>
      <trkpt lat="45.41761" lon="4.5895">
        <ele>814</ele>
        <time>1970-01-01T02:50:34.000Z</time>
      </trkpt>
      <trkpt lat="45.41763" lon="4.58952">
        <ele>814.2</ele>
        <time>1970-01-01T02:50:35.000Z</time>
      </trkpt>
      <trkpt lat="45.41766" lon="4.58954">
        <ele>814.4</ele>
        <time>1970-01-01T02:50:36.000Z</time>
      </trkpt>
      <trkpt lat="45.41769" lon="4.58956">
        <ele>814.7</ele>
        <time>1970-01-01T02:50:37.000Z</time>
      </trkpt>
      <trkpt lat="45.41772" lon="4.58957">
        <ele>814.9</ele>
        <time>1970-01-01T02:50:38.000Z</time>
      </trkpt>
      <trkpt lat="45.41777" lon="4.58961">
        <ele>815.3</ele>
        <time>1970-01-01T02:50:40.000Z</time>
      </trkpt>
      <trkpt lat="45.4178" lon="4.58963">
        <ele>815.5</ele>
        <time>1970-01-01T02:50:41.000Z</time>
      </trkpt>
      <trkpt lat="45.41782" lon="4.58965">
        <ele>815.8</ele>
        <time>1970-01-01T02:50:42.000Z</time>
      </trkpt>
      <trkpt lat="45.41785" lon="4.58966">
        <ele>816</ele>
        <time>1970-01-01T02:50:43.000Z</time>
      </trkpt>
      <trkpt lat="45.41788" lon="4.58969">
        <ele>816.2</ele>
        <time>1970-01-01T02:50:44.000Z</time>
      </trkpt>
      <trkpt lat="45.4179" lon="4.58972">
        <ele>816.5</ele>
        <time>1970-01-01T02:50:45.000Z</time>
      </trkpt>
      <trkpt lat="45.41792" lon="4.58974">
        <ele>816.7</ele>
        <time>1970-01-01T02:50:46.000Z</time>
      </trkpt>
      <trkpt lat="45.41795" lon="4.58977">
        <ele>816.9</ele>
        <time>1970-01-01T02:50:47.000Z</time>
      </trkpt>
      <trkpt lat="45.418" lon="4.58981">
        <ele>817.3</ele>
        <time>1970-01-01T02:50:49.000Z</time>
      </trkpt>
      <trkpt lat="45.41802" lon="4.58984">
        <ele>817.6</ele>
        <time>1970-01-01T02:50:50.000Z</time>
      </trkpt>
      <trkpt lat="45.41805" lon="4.58987">
        <ele>817.8</ele>
        <time>1970-01-01T02:50:51.000Z</time>
      </trkpt>
      <trkpt lat="45.41808" lon="4.58991">
        <ele>818.2</ele>
        <time>1970-01-01T02:50:53.000Z</time>
      </trkpt>
      <trkpt lat="45.41812" lon="4.58993">
        <ele>818.4</ele>
        <time>1970-01-01T02:50:55.000Z</time>
      </trkpt>
      <trkpt lat="45.41816" lon="4.58994">
        <ele>818.9</ele>
        <time>1970-01-01T02:50:57.000Z</time>
      </trkpt>
      <trkpt lat="45.41821" lon="4.58999">
        <ele>819.8</ele>
        <time>1970-01-01T02:50:59.000Z</time>
      </trkpt>
      <trkpt lat="45.41823" lon="4.59002">
        <ele>820.3</ele>
        <time>1970-01-01T02:51:00.000Z</time>
      </trkpt>
      <trkpt lat="45.41826" lon="4.59004">
        <ele>820.8</ele>
        <time>1970-01-01T02:51:01.000Z</time>
      </trkpt>
      <trkpt lat="45.41829" lon="4.59007">
        <ele>821.4</ele>
        <time>1970-01-01T02:51:02.000Z</time>
      </trkpt>
      <trkpt lat="45.41833" lon="4.59011">
        <ele>822.2</ele>
        <time>1970-01-01T02:51:04.000Z</time>
      </trkpt>
      <trkpt lat="45.41836" lon="4.59014">
        <ele>822.7</ele>
        <time>1970-01-01T02:51:05.000Z</time>
      </trkpt>
      <trkpt lat="45.41838" lon="4.59016">
        <ele>823.2</ele>
        <time>1970-01-01T02:51:06.000Z</time>
      </trkpt>
      <trkpt lat="45.41841" lon="4.59019">
        <ele>823.7</ele>
        <time>1970-01-01T02:51:07.000Z</time>
      </trkpt>
      <trkpt lat="45.41845" lon="4.59024">
        <ele>824.6</ele>
        <time>1970-01-01T02:51:09.000Z</time>
      </trkpt>
      <trkpt lat="45.41847" lon="4.59026">
        <ele>825.1</ele>
        <time>1970-01-01T02:51:10.000Z</time>
      </trkpt>
      <trkpt lat="45.4185" lon="4.59029">
        <ele>825.5</ele>
        <time>1970-01-01T02:51:11.000Z</time>
      </trkpt>
      <trkpt lat="45.41853" lon="4.59032">
        <ele>826.3</ele>
        <time>1970-01-01T02:51:13.000Z</time>
      </trkpt>
      <trkpt lat="45.41857" lon="4.59036">
        <ele>826.9</ele>
        <time>1970-01-01T02:51:15.000Z</time>
      </trkpt>
      <trkpt lat="45.41861" lon="4.59041">
        <ele>827.5</ele>
        <time>1970-01-01T02:51:17.000Z</time>
      </trkpt>
      <trkpt lat="45.41863" lon="4.59044">
        <ele>827.9</ele>
        <time>1970-01-01T02:51:18.000Z</time>
      </trkpt>
      <trkpt lat="45.41865" lon="4.59047">
        <ele>828.2</ele>
        <time>1970-01-01T02:51:19.000Z</time>
      </trkpt>
      <trkpt lat="45.41869" lon="4.59053">
        <ele>828.9</ele>
        <time>1970-01-01T02:51:21.000Z</time>
      </trkpt>
      <trkpt lat="45.41871" lon="4.59057">
        <ele>829.2</ele>
        <time>1970-01-01T02:51:22.000Z</time>
      </trkpt>
      <trkpt lat="45.41873" lon="4.59059">
        <ele>829.6</ele>
        <time>1970-01-01T02:51:23.000Z</time>
      </trkpt>
      <trkpt lat="45.41877" lon="4.59062">
        <ele>830</ele>
        <time>1970-01-01T02:51:24.000Z</time>
      </trkpt>
      <trkpt lat="45.41879" lon="4.59066">
        <ele>830.4</ele>
        <time>1970-01-01T02:51:25.000Z</time>
      </trkpt>
      <trkpt lat="45.4188" lon="4.59069">
        <ele>830.7</ele>
        <time>1970-01-01T02:51:26.000Z</time>
      </trkpt>
      <trkpt lat="45.41882" lon="4.59072">
        <ele>831</ele>
        <time>1970-01-01T02:51:28.000Z</time>
      </trkpt>
      <trkpt lat="45.41886" lon="4.59076">
        <ele>831.5</ele>
        <time>1970-01-01T02:51:30.000Z</time>
      </trkpt>
      <trkpt lat="45.4189" lon="4.59079">
        <ele>832.1</ele>
        <time>1970-01-01T02:51:32.000Z</time>
      </trkpt>
      <trkpt lat="45.41894" lon="4.59082">
        <ele>832.5</ele>
        <time>1970-01-01T02:51:34.000Z</time>
      </trkpt>
      <trkpt lat="45.41898" lon="4.59086">
        <ele>833</ele>
        <time>1970-01-01T02:51:36.000Z</time>
      </trkpt>
      <trkpt lat="45.419" lon="4.59089">
        <ele>833.2</ele>
        <time>1970-01-01T02:51:37.000Z</time>
      </trkpt>
      <trkpt lat="45.41902" lon="4.59092">
        <ele>833.4</ele>
        <time>1970-01-01T02:51:38.000Z</time>
      </trkpt>
      <trkpt lat="45.41904" lon="4.59094">
        <ele>833.6</ele>
        <time>1970-01-01T02:51:39.000Z</time>
      </trkpt>
      <trkpt lat="45.41906" lon="4.59098">
        <ele>833.8</ele>
        <time>1970-01-01T02:51:40.000Z</time>
      </trkpt>
      <trkpt lat="45.41908" lon="4.59102">
        <ele>834</ele>
        <time>1970-01-01T02:51:41.000Z</time>
      </trkpt>
      <trkpt lat="45.4191" lon="4.59104">
        <ele>834.2</ele>
        <time>1970-01-01T02:51:42.000Z</time>
      </trkpt>
      <trkpt lat="45.41914" lon="4.59107">
        <ele>834.4</ele>
        <time>1970-01-01T02:51:43.000Z</time>
      </trkpt>
      <trkpt lat="45.41916" lon="4.59109">
        <ele>834.6</ele>
        <time>1970-01-01T02:51:44.000Z</time>
      </trkpt>
      <trkpt lat="45.41921" lon="4.59112">
        <ele>835</ele>
        <time>1970-01-01T02:51:46.000Z</time>
      </trkpt>
      <trkpt lat="45.41923" lon="4.59114">
        <ele>835.1</ele>
        <time>1970-01-01T02:51:47.000Z</time>
      </trkpt>
      <trkpt lat="45.41927" lon="4.59117">
        <ele>835.4</ele>
        <time>1970-01-01T02:51:49.000Z</time>
      </trkpt>
      <trkpt lat="45.41929" lon="4.5912">
        <ele>835.6</ele>
        <time>1970-01-01T02:51:50.000Z</time>
      </trkpt>
      <trkpt lat="45.41932" lon="4.59123">
        <ele>835.9</ele>
        <time>1970-01-01T02:51:51.000Z</time>
      </trkpt>
      <trkpt lat="45.41935" lon="4.59128">
        <ele>836.2</ele>
        <time>1970-01-01T02:51:53.000Z</time>
      </trkpt>
      <trkpt lat="45.41939" lon="4.5913">
        <ele>836.5</ele>
        <time>1970-01-01T02:51:55.000Z</time>
      </trkpt>
      <trkpt lat="45.41941" lon="4.59133">
        <ele>836.7</ele>
        <time>1970-01-01T02:51:56.000Z</time>
      </trkpt>
      <trkpt lat="45.41945" lon="4.59136">
        <ele>837</ele>
        <time>1970-01-01T02:51:58.000Z</time>
      </trkpt>
      <trkpt lat="45.4195" lon="4.59137">
        <ele>837.3</ele>
        <time>1970-01-01T02:52:00.000Z</time>
      </trkpt>
      <trkpt lat="45.41952" lon="4.5914">
        <ele>837.8</ele>
        <time>1970-01-01T02:52:02.000Z</time>
      </trkpt>
      <trkpt lat="45.41956" lon="4.59146">
        <ele>838.6</ele>
        <time>1970-01-01T02:52:04.000Z</time>
      </trkpt>
      <trkpt lat="45.41957" lon="4.5915">
        <ele>839</ele>
        <time>1970-01-01T02:52:06.000Z</time>
      </trkpt>
      <trkpt lat="45.41961" lon="4.59156">
        <ele>839.7</ele>
        <time>1970-01-01T02:52:08.000Z</time>
      </trkpt>
      <trkpt lat="45.41964" lon="4.59161">
        <ele>840.1</ele>
        <time>1970-01-01T02:52:10.000Z</time>
      </trkpt>
      <trkpt lat="45.41965" lon="4.59165">
        <ele>840.4</ele>
        <time>1970-01-01T02:52:11.000Z</time>
      </trkpt>
      <trkpt lat="45.41967" lon="4.5917">
        <ele>840.8</ele>
        <time>1970-01-01T02:52:12.000Z</time>
      </trkpt>
      <trkpt lat="45.41969" lon="4.59175">
        <ele>841.2</ele>
        <time>1970-01-01T02:52:13.000Z</time>
      </trkpt>
      <trkpt lat="45.41971" lon="4.59178">
        <ele>841.5</ele>
        <time>1970-01-01T02:52:14.000Z</time>
      </trkpt>
      <trkpt lat="45.41972" lon="4.59182">
        <ele>841.7</ele>
        <time>1970-01-01T02:52:15.000Z</time>
      </trkpt>
      <trkpt lat="45.41972" lon="4.59186">
        <ele>842</ele>
        <time>1970-01-01T02:52:16.000Z</time>
      </trkpt>
      <trkpt lat="45.41974" lon="4.59192">
        <ele>842.5</ele>
        <time>1970-01-01T02:52:18.000Z</time>
      </trkpt>
      <trkpt lat="45.41975" lon="4.59199">
        <ele>842.9</ele>
        <time>1970-01-01T02:52:20.000Z</time>
      </trkpt>
      <trkpt lat="45.41975" lon="4.59203">
        <ele>843.2</ele>
        <time>1970-01-01T02:52:21.000Z</time>
      </trkpt>
      <trkpt lat="45.41976" lon="4.59209">
        <ele>843.5</ele>
        <time>1970-01-01T02:52:22.000Z</time>
      </trkpt>
      <trkpt lat="45.41977" lon="4.59215">
        <ele>843.9</ele>
        <time>1970-01-01T02:52:23.000Z</time>
      </trkpt>
      <trkpt lat="45.41978" lon="4.59221">
        <ele>844.2</ele>
        <time>1970-01-01T02:52:24.000Z</time>
      </trkpt>
      <trkpt lat="45.41979" lon="4.59226">
        <ele>844.6</ele>
        <time>1970-01-01T02:52:25.000Z</time>
      </trkpt>
      <trkpt lat="45.4198" lon="4.59231">
        <ele>844.9</ele>
        <time>1970-01-01T02:52:26.000Z</time>
      </trkpt>
      <trkpt lat="45.4198" lon="4.59237">
        <ele>845.2</ele>
        <time>1970-01-01T02:52:27.000Z</time>
      </trkpt>
      <trkpt lat="45.4198" lon="4.59242">
        <ele>845.6</ele>
        <time>1970-01-01T02:52:28.000Z</time>
      </trkpt>
      <trkpt lat="45.41979" lon="4.59247">
        <ele>846</ele>
        <time>1970-01-01T02:52:29.000Z</time>
      </trkpt>
      <trkpt lat="45.41979" lon="4.59252">
        <ele>846.3</ele>
        <time>1970-01-01T02:52:30.000Z</time>
      </trkpt>
      <trkpt lat="45.41978" lon="4.59259">
        <ele>846.8</ele>
        <time>1970-01-01T02:52:32.000Z</time>
      </trkpt>
      <trkpt lat="45.41977" lon="4.59264">
        <ele>847.2</ele>
        <time>1970-01-01T02:52:34.000Z</time>
      </trkpt>
      <trkpt lat="45.41975" lon="4.59269">
        <ele>847.6</ele>
        <time>1970-01-01T02:52:36.000Z</time>
      </trkpt>
      <trkpt lat="45.41975" lon="4.59274">
        <ele>847.9</ele>
        <time>1970-01-01T02:52:37.000Z</time>
      </trkpt>
      <trkpt lat="45.41974" lon="4.59279">
        <ele>848.4</ele>
        <time>1970-01-01T02:52:38.000Z</time>
      </trkpt>
      <trkpt lat="45.41974" lon="4.59284">
        <ele>848.9</ele>
        <time>1970-01-01T02:52:39.000Z</time>
      </trkpt>
      <trkpt lat="45.41974" lon="4.5929">
        <ele>849.4</ele>
        <time>1970-01-01T02:52:40.000Z</time>
      </trkpt>
      <trkpt lat="45.41974" lon="4.59295">
        <ele>849.9</ele>
        <time>1970-01-01T02:52:41.000Z</time>
      </trkpt>
      <trkpt lat="45.41974" lon="4.59299">
        <ele>850.1</ele>
        <time>1970-01-01T02:52:42.000Z</time>
      </trkpt>
      <trkpt lat="45.41974" lon="4.59303">
        <ele>850.4</ele>
        <time>1970-01-01T02:52:43.000Z</time>
      </trkpt>
      <trkpt lat="45.41974" lon="4.59308">
        <ele>850.7</ele>
        <time>1970-01-01T02:52:44.000Z</time>
      </trkpt>
      <trkpt lat="45.41974" lon="4.59312">
        <ele>851</ele>
        <time>1970-01-01T02:52:45.000Z</time>
      </trkpt>
      <trkpt lat="45.41974" lon="4.5932">
        <ele>851.4</ele>
        <time>1970-01-01T02:52:47.000Z</time>
      </trkpt>
      <trkpt lat="45.41974" lon="4.59325">
        <ele>851.7</ele>
        <time>1970-01-01T02:52:48.000Z</time>
      </trkpt>
      <trkpt lat="45.41973" lon="4.5933">
        <ele>852</ele>
        <time>1970-01-01T02:52:49.000Z</time>
      </trkpt>
      <trkpt lat="45.41973" lon="4.59334">
        <ele>852.3</ele>
        <time>1970-01-01T02:52:50.000Z</time>
      </trkpt>
      <trkpt lat="45.41973" lon="4.59339">
        <ele>852.5</ele>
        <time>1970-01-01T02:52:51.000Z</time>
      </trkpt>
      <trkpt lat="45.41974" lon="4.59343">
        <ele>852.8</ele>
        <time>1970-01-01T02:52:52.000Z</time>
      </trkpt>
      <trkpt lat="45.41974" lon="4.59348">
        <ele>853.1</ele>
        <time>1970-01-01T02:52:53.000Z</time>
      </trkpt>
      <trkpt lat="45.41974" lon="4.59355">
        <ele>853.7</ele>
        <time>1970-01-01T02:52:55.000Z</time>
      </trkpt>
      <trkpt lat="45.41973" lon="4.5936">
        <ele>854</ele>
        <time>1970-01-01T02:52:56.000Z</time>
      </trkpt>
      <trkpt lat="45.41973" lon="4.59364">
        <ele>854.3</ele>
        <time>1970-01-01T02:52:57.000Z</time>
      </trkpt>
      <trkpt lat="45.41972" lon="4.59369">
        <ele>854.7</ele>
        <time>1970-01-01T02:52:58.000Z</time>
      </trkpt>
      <trkpt lat="45.41971" lon="4.59374">
        <ele>855.1</ele>
        <time>1970-01-01T02:52:59.000Z</time>
      </trkpt>
      <trkpt lat="45.4197" lon="4.59379">
        <ele>855.4</ele>
        <time>1970-01-01T02:53:00.000Z</time>
      </trkpt>
      <trkpt lat="45.4197" lon="4.59383">
        <ele>855.7</ele>
        <time>1970-01-01T02:53:01.000Z</time>
      </trkpt>
      <trkpt lat="45.4197" lon="4.59388">
        <ele>856.1</ele>
        <time>1970-01-01T02:53:02.000Z</time>
      </trkpt>
      <trkpt lat="45.4197" lon="4.59392">
        <ele>856.4</ele>
        <time>1970-01-01T02:53:03.000Z</time>
      </trkpt>
      <trkpt lat="45.41968" lon="4.594">
        <ele>857.2</ele>
        <time>1970-01-01T02:53:05.000Z</time>
      </trkpt>
      <trkpt lat="45.41967" lon="4.59404">
        <ele>857.7</ele>
        <time>1970-01-01T02:53:06.000Z</time>
      </trkpt>
      <trkpt lat="45.41966" lon="4.5941">
        <ele>858.5</ele>
        <time>1970-01-01T02:53:08.000Z</time>
      </trkpt>
      <trkpt lat="45.41965" lon="4.59416">
        <ele>859.2</ele>
        <time>1970-01-01T02:53:10.000Z</time>
      </trkpt>
      <trkpt lat="45.41963" lon="4.59422">
        <ele>860.1</ele>
        <time>1970-01-01T02:53:12.000Z</time>
      </trkpt>
      <trkpt lat="45.41961" lon="4.59429">
        <ele>861.1</ele>
        <time>1970-01-01T02:53:14.000Z</time>
      </trkpt>
      <trkpt lat="45.4196" lon="4.59435">
        <ele>862.1</ele>
        <time>1970-01-01T02:53:16.000Z</time>
      </trkpt>
      <trkpt lat="45.41959" lon="4.59442">
        <ele>863</ele>
        <time>1970-01-01T02:53:18.000Z</time>
      </trkpt>
      <trkpt lat="45.41959" lon="4.59448">
        <ele>863</ele>
        <time>1970-01-01T02:53:20.000Z</time>
      </trkpt>
      <trkpt lat="45.41961" lon="4.59453">
        <ele>863</ele>
        <time>1970-01-01T02:53:22.000Z</time>
      </trkpt>
      <trkpt lat="45.41964" lon="4.59457">
        <ele>863</ele>
        <time>1970-01-01T02:53:24.000Z</time>
      </trkpt>
      <trkpt lat="45.41966" lon="4.5946">
        <ele>863</ele>
        <time>1970-01-01T02:53:25.000Z</time>
      </trkpt>
      <trkpt lat="45.41971" lon="4.59464">
        <ele>863.2</ele>
        <time>1970-01-01T02:53:27.000Z</time>
      </trkpt>
      <trkpt lat="45.41974" lon="4.59465">
        <ele>863.2</ele>
        <time>1970-01-01T02:53:28.000Z</time>
      </trkpt>
      <trkpt lat="45.41978" lon="4.59467">
        <ele>863.3</ele>
        <time>1970-01-01T02:53:30.000Z</time>
      </trkpt>
      <trkpt lat="45.41983" lon="4.59467">
        <ele>863.4</ele>
        <time>1970-01-01T02:53:32.000Z</time>
      </trkpt>
      <trkpt lat="45.41986" lon="4.59467">
        <ele>863.5</ele>
        <time>1970-01-01T02:53:33.000Z</time>
      </trkpt>
      <trkpt lat="45.41991" lon="4.59468">
        <ele>863.6</ele>
        <time>1970-01-01T02:53:35.000Z</time>
      </trkpt>
      <trkpt lat="45.41996" lon="4.59469">
        <ele>863.7</ele>
        <time>1970-01-01T02:53:37.000Z</time>
      </trkpt>
      <trkpt lat="45.42" lon="4.59469">
        <ele>863.8</ele>
        <time>1970-01-01T02:53:39.000Z</time>
      </trkpt>
      <trkpt lat="45.42006" lon="4.59469">
        <ele>863.9</ele>
        <time>1970-01-01T02:53:41.000Z</time>
      </trkpt>
      <trkpt lat="45.42009" lon="4.59469">
        <ele>864</ele>
        <time>1970-01-01T02:53:42.000Z</time>
      </trkpt>
      <trkpt lat="45.42013" lon="4.59469">
        <ele>864.1</ele>
        <time>1970-01-01T02:53:44.000Z</time>
      </trkpt>
      <trkpt lat="45.42019" lon="4.5947">
        <ele>864.3</ele>
        <time>1970-01-01T02:53:46.000Z</time>
      </trkpt>
      <trkpt lat="45.42022" lon="4.59469">
        <ele>864.3</ele>
        <time>1970-01-01T02:53:47.000Z</time>
      </trkpt>
      <trkpt lat="45.42026" lon="4.59469">
        <ele>864.5</ele>
        <time>1970-01-01T02:53:48.000Z</time>
      </trkpt>
      <trkpt lat="45.42031" lon="4.59468">
        <ele>864.6</ele>
        <time>1970-01-01T02:53:50.000Z</time>
      </trkpt>
      <trkpt lat="45.42034" lon="4.59468">
        <ele>864.7</ele>
        <time>1970-01-01T02:53:51.000Z</time>
      </trkpt>
      <trkpt lat="45.42038" lon="4.59468">
        <ele>864.8</ele>
        <time>1970-01-01T02:53:52.000Z</time>
      </trkpt>
      <trkpt lat="45.42043" lon="4.59468">
        <ele>864.9</ele>
        <time>1970-01-01T02:53:54.000Z</time>
      </trkpt>
      <trkpt lat="45.42046" lon="4.59468">
        <ele>865</ele>
        <time>1970-01-01T02:53:55.000Z</time>
      </trkpt>
      <trkpt lat="45.42049" lon="4.59468">
        <ele>865.1</ele>
        <time>1970-01-01T02:53:56.000Z</time>
      </trkpt>
      <trkpt lat="45.42052" lon="4.59467">
        <ele>865.2</ele>
        <time>1970-01-01T02:53:57.000Z</time>
      </trkpt>
      <trkpt lat="45.42055" lon="4.59466">
        <ele>865.3</ele>
        <time>1970-01-01T02:53:58.000Z</time>
      </trkpt>
      <trkpt lat="45.42059" lon="4.59467">
        <ele>865.4</ele>
        <time>1970-01-01T02:54:00.000Z</time>
      </trkpt>
      <trkpt lat="45.42066" lon="4.59466">
        <ele>865.6</ele>
        <time>1970-01-01T02:54:02.000Z</time>
      </trkpt>
      <trkpt lat="45.42068" lon="4.59466">
        <ele>865.7</ele>
        <time>1970-01-01T02:54:03.000Z</time>
      </trkpt>
      <trkpt lat="45.42071" lon="4.59466">
        <ele>865.8</ele>
        <time>1970-01-01T02:54:04.000Z</time>
      </trkpt>
      <trkpt lat="45.42076" lon="4.59465">
        <ele>866</ele>
        <time>1970-01-01T02:54:06.000Z</time>
      </trkpt>
      <trkpt lat="45.42079" lon="4.59465">
        <ele>866.1</ele>
        <time>1970-01-01T02:54:07.000Z</time>
      </trkpt>
      <trkpt lat="45.42084" lon="4.59465">
        <ele>866.2</ele>
        <time>1970-01-01T02:54:09.000Z</time>
      </trkpt>
      <trkpt lat="45.42089" lon="4.59465">
        <ele>866.4</ele>
        <time>1970-01-01T02:54:11.000Z</time>
      </trkpt>
      <trkpt lat="45.42094" lon="4.59466">
        <ele>866.5</ele>
        <time>1970-01-01T02:54:13.000Z</time>
      </trkpt>
      <trkpt lat="45.42098" lon="4.59467">
        <ele>866.6</ele>
        <time>1970-01-01T02:54:15.000Z</time>
      </trkpt>
      <trkpt lat="45.42101" lon="4.59467">
        <ele>866.7</ele>
        <time>1970-01-01T02:54:16.000Z</time>
      </trkpt>
      <trkpt lat="45.42107" lon="4.59469">
        <ele>866.9</ele>
        <time>1970-01-01T02:54:18.000Z</time>
      </trkpt>
      <trkpt lat="45.4211" lon="4.59471">
        <ele>867</ele>
        <time>1970-01-01T02:54:19.000Z</time>
      </trkpt>
      <trkpt lat="45.42113" lon="4.59472">
        <ele>867.1</ele>
        <time>1970-01-01T02:54:20.000Z</time>
      </trkpt>
      <trkpt lat="45.42117" lon="4.59474">
        <ele>867.2</ele>
        <time>1970-01-01T02:54:22.000Z</time>
      </trkpt>
      <trkpt lat="45.4212" lon="4.59476">
        <ele>867.3</ele>
        <time>1970-01-01T02:54:23.000Z</time>
      </trkpt>
      <trkpt lat="45.42123" lon="4.59478">
        <ele>867.4</ele>
        <time>1970-01-01T02:54:24.000Z</time>
      </trkpt>
      <trkpt lat="45.42126" lon="4.5948">
        <ele>867.4</ele>
        <time>1970-01-01T02:54:25.000Z</time>
      </trkpt>
      <trkpt lat="45.4213" lon="4.59483">
        <ele>867.6</ele>
        <time>1970-01-01T02:54:27.000Z</time>
      </trkpt>
      <trkpt lat="45.42135" lon="4.59486">
        <ele>867.7</ele>
        <time>1970-01-01T02:54:29.000Z</time>
      </trkpt>
      <trkpt lat="45.4214" lon="4.5949">
        <ele>867.8</ele>
        <time>1970-01-01T02:54:31.000Z</time>
      </trkpt>
      <trkpt lat="45.42145" lon="4.59493">
        <ele>868</ele>
        <time>1970-01-01T02:54:33.000Z</time>
      </trkpt>
      <trkpt lat="45.4215" lon="4.59497">
        <ele>868.1</ele>
        <time>1970-01-01T02:54:35.000Z</time>
      </trkpt>
      <trkpt lat="45.42152" lon="4.59498">
        <ele>868.2</ele>
        <time>1970-01-01T02:54:36.000Z</time>
      </trkpt>
      <trkpt lat="45.42157" lon="4.59502">
        <ele>868.3</ele>
        <time>1970-01-01T02:54:38.000Z</time>
      </trkpt>
      <trkpt lat="45.42159" lon="4.59504">
        <ele>868.3</ele>
        <time>1970-01-01T02:54:39.000Z</time>
      </trkpt>
      <trkpt lat="45.42162" lon="4.59505">
        <ele>868.4</ele>
        <time>1970-01-01T02:54:40.000Z</time>
      </trkpt>
      <trkpt lat="45.42167" lon="4.59508">
        <ele>868.5</ele>
        <time>1970-01-01T02:54:42.000Z</time>
      </trkpt>
      <trkpt lat="45.42169" lon="4.5951">
        <ele>868.5</ele>
        <time>1970-01-01T02:54:43.000Z</time>
      </trkpt>
      <trkpt lat="45.42174" lon="4.59513">
        <ele>868.6</ele>
        <time>1970-01-01T02:54:45.000Z</time>
      </trkpt>
      <trkpt lat="45.42176" lon="4.59515">
        <ele>868.7</ele>
        <time>1970-01-01T02:54:46.000Z</time>
      </trkpt>
      <trkpt lat="45.42179" lon="4.59518">
        <ele>868.8</ele>
        <time>1970-01-01T02:54:47.000Z</time>
      </trkpt>
      <trkpt lat="45.42182" lon="4.59521">
        <ele>868.8</ele>
        <time>1970-01-01T02:54:48.000Z</time>
      </trkpt>
      <trkpt lat="45.42184" lon="4.59523">
        <ele>868.9</ele>
        <time>1970-01-01T02:54:49.000Z</time>
      </trkpt>
      <trkpt lat="45.42188" lon="4.59528">
        <ele>869</ele>
        <time>1970-01-01T02:54:51.000Z</time>
      </trkpt>
      <trkpt lat="45.42192" lon="4.59532">
        <ele>869</ele>
        <time>1970-01-01T02:54:53.000Z</time>
      </trkpt>
      <trkpt lat="45.42196" lon="4.59537">
        <ele>869.1</ele>
        <time>1970-01-01T02:54:55.000Z</time>
      </trkpt>
      <trkpt lat="45.42198" lon="4.5954">
        <ele>869.1</ele>
        <time>1970-01-01T02:54:56.000Z</time>
      </trkpt>
      <trkpt lat="45.42201" lon="4.59543">
        <ele>869.2</ele>
        <time>1970-01-01T02:54:57.000Z</time>
      </trkpt>
      <trkpt lat="45.42203" lon="4.59546">
        <ele>869.2</ele>
        <time>1970-01-01T02:54:58.000Z</time>
      </trkpt>
      <trkpt lat="45.42205" lon="4.5955">
        <ele>869.3</ele>
        <time>1970-01-01T02:54:59.000Z</time>
      </trkpt>
      <trkpt lat="45.42209" lon="4.59555">
        <ele>869.3</ele>
        <time>1970-01-01T02:55:01.000Z</time>
      </trkpt>
      <trkpt lat="45.4221" lon="4.59558">
        <ele>869.4</ele>
        <time>1970-01-01T02:55:02.000Z</time>
      </trkpt>
      <trkpt lat="45.42215" lon="4.59563">
        <ele>869.4</ele>
        <time>1970-01-01T02:55:04.000Z</time>
      </trkpt>
      <trkpt lat="45.42218" lon="4.59567">
        <ele>869.5</ele>
        <time>1970-01-01T02:55:06.000Z</time>
      </trkpt>
      <trkpt lat="45.42222" lon="4.5957">
        <ele>869.6</ele>
        <time>1970-01-01T02:55:08.000Z</time>
      </trkpt>
      <trkpt lat="45.42226" lon="4.59573">
        <ele>869.6</ele>
        <time>1970-01-01T02:55:10.000Z</time>
      </trkpt>
      <trkpt lat="45.4223" lon="4.59577">
        <ele>869.7</ele>
        <time>1970-01-01T02:55:12.000Z</time>
      </trkpt>
      <trkpt lat="45.42234" lon="4.59582">
        <ele>869.9</ele>
        <time>1970-01-01T02:55:14.000Z</time>
      </trkpt>
      <trkpt lat="45.42237" lon="4.59584">
        <ele>869.9</ele>
        <time>1970-01-01T02:55:15.000Z</time>
      </trkpt>
      <trkpt lat="45.4224" lon="4.59589">
        <ele>870</ele>
        <time>1970-01-01T02:55:17.000Z</time>
      </trkpt>
      <trkpt lat="45.42242" lon="4.59592">
        <ele>870.1</ele>
        <time>1970-01-01T02:55:18.000Z</time>
      </trkpt>
      <trkpt lat="45.42244" lon="4.59594">
        <ele>870.1</ele>
        <time>1970-01-01T02:55:19.000Z</time>
      </trkpt>
      <trkpt lat="45.42248" lon="4.59599">
        <ele>870.2</ele>
        <time>1970-01-01T02:55:21.000Z</time>
      </trkpt>
      <trkpt lat="45.42252" lon="4.59603">
        <ele>870.3</ele>
        <time>1970-01-01T02:55:23.000Z</time>
      </trkpt>
      <trkpt lat="45.42256" lon="4.59607">
        <ele>870.4</ele>
        <time>1970-01-01T02:55:25.000Z</time>
      </trkpt>
      <trkpt lat="45.42259" lon="4.59612">
        <ele>870.5</ele>
        <time>1970-01-01T02:55:27.000Z</time>
      </trkpt>
      <trkpt lat="45.42261" lon="4.59615">
        <ele>870.6</ele>
        <time>1970-01-01T02:55:28.000Z</time>
      </trkpt>
      <trkpt lat="45.42264" lon="4.59618">
        <ele>870.6</ele>
        <time>1970-01-01T02:55:30.000Z</time>
      </trkpt>
      <trkpt lat="45.42268" lon="4.59624">
        <ele>870.8</ele>
        <time>1970-01-01T02:55:32.000Z</time>
      </trkpt>
      <trkpt lat="45.42271" lon="4.59629">
        <ele>870.9</ele>
        <time>1970-01-01T02:55:34.000Z</time>
      </trkpt>
      <trkpt lat="45.42274" lon="4.59633">
        <ele>871</ele>
        <time>1970-01-01T02:55:35.000Z</time>
      </trkpt>
      <trkpt lat="45.42275" lon="4.59637">
        <ele>871.1</ele>
        <time>1970-01-01T02:55:36.000Z</time>
      </trkpt>
      <trkpt lat="45.42277" lon="4.5964">
        <ele>871.2</ele>
        <time>1970-01-01T02:55:37.000Z</time>
      </trkpt>
      <trkpt lat="45.42279" lon="4.59644">
        <ele>871.2</ele>
        <time>1970-01-01T02:55:38.000Z</time>
      </trkpt>
      <trkpt lat="45.42281" lon="4.59648">
        <ele>871.3</ele>
        <time>1970-01-01T02:55:39.000Z</time>
      </trkpt>
      <trkpt lat="45.42283" lon="4.59652">
        <ele>871.4</ele>
        <time>1970-01-01T02:55:40.000Z</time>
      </trkpt>
      <trkpt lat="45.42284" lon="4.59656">
        <ele>871.5</ele>
        <time>1970-01-01T02:55:41.000Z</time>
      </trkpt>
      <trkpt lat="45.42286" lon="4.59659">
        <ele>871.6</ele>
        <time>1970-01-01T02:55:42.000Z</time>
      </trkpt>
      <trkpt lat="45.42288" lon="4.59663">
        <ele>871.7</ele>
        <time>1970-01-01T02:55:43.000Z</time>
      </trkpt>
      <trkpt lat="45.42291" lon="4.59669">
        <ele>871.8</ele>
        <time>1970-01-01T02:55:45.000Z</time>
      </trkpt>
      <trkpt lat="45.42292" lon="4.59673">
        <ele>871.9</ele>
        <time>1970-01-01T02:55:46.000Z</time>
      </trkpt>
      <trkpt lat="45.42294" lon="4.59679">
        <ele>872.1</ele>
        <time>1970-01-01T02:55:48.000Z</time>
      </trkpt>
      <trkpt lat="45.42297" lon="4.59686">
        <ele>872.2</ele>
        <time>1970-01-01T02:55:50.000Z</time>
      </trkpt>
      <trkpt lat="45.42298" lon="4.5969">
        <ele>872.3</ele>
        <time>1970-01-01T02:55:51.000Z</time>
      </trkpt>
      <trkpt lat="45.423" lon="4.59693">
        <ele>872.4</ele>
        <time>1970-01-01T02:55:52.000Z</time>
      </trkpt>
      <trkpt lat="45.42301" lon="4.59697">
        <ele>872.5</ele>
        <time>1970-01-01T02:55:53.000Z</time>
      </trkpt>
      <trkpt lat="45.42304" lon="4.59703">
        <ele>872.7</ele>
        <time>1970-01-01T02:55:55.000Z</time>
      </trkpt>
      <trkpt lat="45.42307" lon="4.59711">
        <ele>872.8</ele>
        <time>1970-01-01T02:55:57.000Z</time>
      </trkpt>
      <trkpt lat="45.42308" lon="4.59715">
        <ele>873</ele>
        <time>1970-01-01T02:55:58.000Z</time>
      </trkpt>
      <trkpt lat="45.42309" lon="4.59719">
        <ele>873</ele>
        <time>1970-01-01T02:55:59.000Z</time>
      </trkpt>
      <trkpt lat="45.42309" lon="4.59723">
        <ele>873.1</ele>
        <time>1970-01-01T02:56:00.000Z</time>
      </trkpt>
      <trkpt lat="45.42311" lon="4.59727">
        <ele>873.2</ele>
        <time>1970-01-01T02:56:01.000Z</time>
      </trkpt>
      <trkpt lat="45.42312" lon="4.5973">
        <ele>873.3</ele>
        <time>1970-01-01T02:56:02.000Z</time>
      </trkpt>
      <trkpt lat="45.42315" lon="4.59738">
        <ele>873.5</ele>
        <time>1970-01-01T02:56:04.000Z</time>
      </trkpt>
      <trkpt lat="45.42317" lon="4.59744">
        <ele>873.7</ele>
        <time>1970-01-01T02:56:06.000Z</time>
      </trkpt>
      <trkpt lat="45.42318" lon="4.59747">
        <ele>873.8</ele>
        <time>1970-01-01T02:56:07.000Z</time>
      </trkpt>
      <trkpt lat="45.42319" lon="4.59751">
        <ele>873.8</ele>
        <time>1970-01-01T02:56:08.000Z</time>
      </trkpt>
      <trkpt lat="45.4232" lon="4.59755">
        <ele>873.9</ele>
        <time>1970-01-01T02:56:09.000Z</time>
      </trkpt>
      <trkpt lat="45.42321" lon="4.59759">
        <ele>874</ele>
        <time>1970-01-01T02:56:10.000Z</time>
      </trkpt>
      <trkpt lat="45.42322" lon="4.59763">
        <ele>874.1</ele>
        <time>1970-01-01T02:56:11.000Z</time>
      </trkpt>
      <trkpt lat="45.42324" lon="4.59766">
        <ele>874.2</ele>
        <time>1970-01-01T02:56:12.000Z</time>
      </trkpt>
      <trkpt lat="45.42324" lon="4.5977">
        <ele>874.3</ele>
        <time>1970-01-01T02:56:13.000Z</time>
      </trkpt>
      <trkpt lat="45.42325" lon="4.59774">
        <ele>874.4</ele>
        <time>1970-01-01T02:56:14.000Z</time>
      </trkpt>
      <trkpt lat="45.42328" lon="4.5978">
        <ele>874.6</ele>
        <time>1970-01-01T02:56:16.000Z</time>
      </trkpt>
      <trkpt lat="45.42329" lon="4.59784">
        <ele>874.7</ele>
        <time>1970-01-01T02:56:17.000Z</time>
      </trkpt>
      <trkpt lat="45.4233" lon="4.59787">
        <ele>874.7</ele>
        <time>1970-01-01T02:56:18.000Z</time>
      </trkpt>
      <trkpt lat="45.42333" lon="4.59794">
        <ele>874.9</ele>
        <time>1970-01-01T02:56:20.000Z</time>
      </trkpt>
      <trkpt lat="45.42336" lon="4.59802">
        <ele>875.1</ele>
        <time>1970-01-01T02:56:22.000Z</time>
      </trkpt>
      <trkpt lat="45.42337" lon="4.59806">
        <ele>875.2</ele>
        <time>1970-01-01T02:56:23.000Z</time>
      </trkpt>
      <trkpt lat="45.42339" lon="4.59812">
        <ele>875.4</ele>
        <time>1970-01-01T02:56:25.000Z</time>
      </trkpt>
      <trkpt lat="45.42339" lon="4.59817">
        <ele>875.5</ele>
        <time>1970-01-01T02:56:26.000Z</time>
      </trkpt>
      <trkpt lat="45.42341" lon="4.59821">
        <ele>875.6</ele>
        <time>1970-01-01T02:56:27.000Z</time>
      </trkpt>
      <trkpt lat="45.42343" lon="4.59825">
        <ele>875.7</ele>
        <time>1970-01-01T02:56:28.000Z</time>
      </trkpt>
      <trkpt lat="45.42344" lon="4.5983">
        <ele>875.8</ele>
        <time>1970-01-01T02:56:30.000Z</time>
      </trkpt>
      <trkpt lat="45.42346" lon="4.59836">
        <ele>875.9</ele>
        <time>1970-01-01T02:56:32.000Z</time>
      </trkpt>
      <trkpt lat="45.42349" lon="4.59843">
        <ele>876.2</ele>
        <time>1970-01-01T02:56:34.000Z</time>
      </trkpt>
      <trkpt lat="45.42351" lon="4.59849">
        <ele>876.3</ele>
        <time>1970-01-01T02:56:36.000Z</time>
      </trkpt>
      <trkpt lat="45.42353" lon="4.59855">
        <ele>876.5</ele>
        <time>1970-01-01T02:56:38.000Z</time>
      </trkpt>
      <trkpt lat="45.42356" lon="4.59862">
        <ele>876.7</ele>
        <time>1970-01-01T02:56:40.000Z</time>
      </trkpt>
      <trkpt lat="45.42358" lon="4.59869">
        <ele>876.9</ele>
        <time>1970-01-01T02:56:42.000Z</time>
      </trkpt>
      <trkpt lat="45.4236" lon="4.59876">
        <ele>877.1</ele>
        <time>1970-01-01T02:56:44.000Z</time>
      </trkpt>
      <trkpt lat="45.42362" lon="4.59882">
        <ele>877.3</ele>
        <time>1970-01-01T02:56:46.000Z</time>
      </trkpt>
      <trkpt lat="45.42364" lon="4.59886">
        <ele>877.4</ele>
        <time>1970-01-01T02:56:47.000Z</time>
      </trkpt>
      <trkpt lat="45.42365" lon="4.5989">
        <ele>877.5</ele>
        <time>1970-01-01T02:56:48.000Z</time>
      </trkpt>
      <trkpt lat="45.42366" lon="4.59894">
        <ele>877.6</ele>
        <time>1970-01-01T02:56:49.000Z</time>
      </trkpt>
      <trkpt lat="45.42368" lon="4.59901">
        <ele>877.8</ele>
        <time>1970-01-01T02:56:51.000Z</time>
      </trkpt>
      <trkpt lat="45.42369" lon="4.59905">
        <ele>877.9</ele>
        <time>1970-01-01T02:56:52.000Z</time>
      </trkpt>
      <trkpt lat="45.42369" lon="4.59909">
        <ele>878</ele>
        <time>1970-01-01T02:56:53.000Z</time>
      </trkpt>
      <trkpt lat="45.42371" lon="4.59916">
        <ele>878.1</ele>
        <time>1970-01-01T02:56:55.000Z</time>
      </trkpt>
      <trkpt lat="45.42372" lon="4.5992">
        <ele>878.2</ele>
        <time>1970-01-01T02:56:56.000Z</time>
      </trkpt>
      <trkpt lat="45.42374" lon="4.59928">
        <ele>878.4</ele>
        <time>1970-01-01T02:56:58.000Z</time>
      </trkpt>
      <trkpt lat="45.42374" lon="4.59932">
        <ele>878.5</ele>
        <time>1970-01-01T02:56:59.000Z</time>
      </trkpt>
      <trkpt lat="45.42375" lon="4.59936">
        <ele>878.6</ele>
        <time>1970-01-01T02:57:00.000Z</time>
      </trkpt>
      <trkpt lat="45.42377" lon="4.5994">
        <ele>878.7</ele>
        <time>1970-01-01T02:57:01.000Z</time>
      </trkpt>
      <trkpt lat="45.42378" lon="4.59946">
        <ele>878.9</ele>
        <time>1970-01-01T02:57:03.000Z</time>
      </trkpt>
      <trkpt lat="45.42379" lon="4.5995">
        <ele>879</ele>
        <time>1970-01-01T02:57:04.000Z</time>
      </trkpt>
      <trkpt lat="45.4238" lon="4.59957">
        <ele>879.1</ele>
        <time>1970-01-01T02:57:06.000Z</time>
      </trkpt>
      <trkpt lat="45.42381" lon="4.59962">
        <ele>879.2</ele>
        <time>1970-01-01T02:57:07.000Z</time>
      </trkpt>
      <trkpt lat="45.42382" lon="4.59966">
        <ele>879.3</ele>
        <time>1970-01-01T02:57:08.000Z</time>
      </trkpt>
      <trkpt lat="45.42384" lon="4.5997">
        <ele>879.4</ele>
        <time>1970-01-01T02:57:09.000Z</time>
      </trkpt>
      <trkpt lat="45.42385" lon="4.59973">
        <ele>879.4</ele>
        <time>1970-01-01T02:57:10.000Z</time>
      </trkpt>
      <trkpt lat="45.42386" lon="4.59977">
        <ele>879.5</ele>
        <time>1970-01-01T02:57:11.000Z</time>
      </trkpt>
      <trkpt lat="45.42387" lon="4.59981">
        <ele>879.6</ele>
        <time>1970-01-01T02:57:12.000Z</time>
      </trkpt>
      <trkpt lat="45.42387" lon="4.59985">
        <ele>879.7</ele>
        <time>1970-01-01T02:57:13.000Z</time>
      </trkpt>
      <trkpt lat="45.42387" lon="4.59989">
        <ele>879.8</ele>
        <time>1970-01-01T02:57:14.000Z</time>
      </trkpt>
      <trkpt lat="45.42389" lon="4.59993">
        <ele>879.9</ele>
        <time>1970-01-01T02:57:15.000Z</time>
      </trkpt>
      <trkpt lat="45.42391" lon="4.59997">
        <ele>880</ele>
        <time>1970-01-01T02:57:16.000Z</time>
      </trkpt>
      <trkpt lat="45.42392" lon="4.60001">
        <ele>880</ele>
        <time>1970-01-01T02:57:17.000Z</time>
      </trkpt>
      <trkpt lat="45.42393" lon="4.60005">
        <ele>880.1</ele>
        <time>1970-01-01T02:57:18.000Z</time>
      </trkpt>
      <trkpt lat="45.42395" lon="4.60011">
        <ele>880.3</ele>
        <time>1970-01-01T02:57:20.000Z</time>
      </trkpt>
      <trkpt lat="45.42397" lon="4.60018">
        <ele>880.4</ele>
        <time>1970-01-01T02:57:22.000Z</time>
      </trkpt>
      <trkpt lat="45.42397" lon="4.60023">
        <ele>880.5</ele>
        <time>1970-01-01T02:57:23.000Z</time>
      </trkpt>
      <trkpt lat="45.42399" lon="4.60029">
        <ele>880.6</ele>
        <time>1970-01-01T02:57:25.000Z</time>
      </trkpt>
      <trkpt lat="45.42401" lon="4.60034">
        <ele>880.8</ele>
        <time>1970-01-01T02:57:27.000Z</time>
      </trkpt>
      <trkpt lat="45.42401" lon="4.60038">
        <ele>880.8</ele>
        <time>1970-01-01T02:57:28.000Z</time>
      </trkpt>
      <trkpt lat="45.42404" lon="4.60045">
        <ele>881</ele>
        <time>1970-01-01T02:57:30.000Z</time>
      </trkpt>
      <trkpt lat="45.42405" lon="4.60052">
        <ele>881.1</ele>
        <time>1970-01-01T02:57:32.000Z</time>
      </trkpt>
      <trkpt lat="45.42405" lon="4.60057">
        <ele>881.2</ele>
        <time>1970-01-01T02:57:33.000Z</time>
      </trkpt>
      <trkpt lat="45.42406" lon="4.60064">
        <ele>881.4</ele>
        <time>1970-01-01T02:57:35.000Z</time>
      </trkpt>
      <trkpt lat="45.42406" lon="4.60068">
        <ele>881.5</ele>
        <time>1970-01-01T02:57:36.000Z</time>
      </trkpt>
      <trkpt lat="45.42407" lon="4.60073">
        <ele>881.6</ele>
        <time>1970-01-01T02:57:37.000Z</time>
      </trkpt>
      <trkpt lat="45.42408" lon="4.60077">
        <ele>881.7</ele>
        <time>1970-01-01T02:57:38.000Z</time>
      </trkpt>
      <trkpt lat="45.42407" lon="4.60082">
        <ele>881.9</ele>
        <time>1970-01-01T02:57:39.000Z</time>
      </trkpt>
      <trkpt lat="45.42409" lon="4.60089">
        <ele>882.1</ele>
        <time>1970-01-01T02:57:41.000Z</time>
      </trkpt>
      <trkpt lat="45.42409" lon="4.60094">
        <ele>882.2</ele>
        <time>1970-01-01T02:57:42.000Z</time>
      </trkpt>
      <trkpt lat="45.4241" lon="4.60098">
        <ele>882.3</ele>
        <time>1970-01-01T02:57:43.000Z</time>
      </trkpt>
      <trkpt lat="45.42413" lon="4.60104">
        <ele>882.4</ele>
        <time>1970-01-01T02:57:45.000Z</time>
      </trkpt>
      <trkpt lat="45.42414" lon="4.60111">
        <ele>882.6</ele>
        <time>1970-01-01T02:57:47.000Z</time>
      </trkpt>
      <trkpt lat="45.42416" lon="4.60118">
        <ele>882.7</ele>
        <time>1970-01-01T02:57:49.000Z</time>
      </trkpt>
      <trkpt lat="45.42417" lon="4.60123">
        <ele>882.8</ele>
        <time>1970-01-01T02:57:51.000Z</time>
      </trkpt>
      <trkpt lat="45.4242" lon="4.60129">
        <ele>883</ele>
        <time>1970-01-01T02:57:53.000Z</time>
      </trkpt>
      <trkpt lat="45.42422" lon="4.60134">
        <ele>883.1</ele>
        <time>1970-01-01T02:57:55.000Z</time>
      </trkpt>
      <trkpt lat="45.42423" lon="4.6014">
        <ele>883.2</ele>
        <time>1970-01-01T02:57:57.000Z</time>
      </trkpt>
      <trkpt lat="45.42425" lon="4.60147">
        <ele>883.3</ele>
        <time>1970-01-01T02:57:59.000Z</time>
      </trkpt>
      <trkpt lat="45.42426" lon="4.60152">
        <ele>883.4</ele>
        <time>1970-01-01T02:58:01.000Z</time>
      </trkpt>
      <trkpt lat="45.42428" lon="4.60157">
        <ele>883.5</ele>
        <time>1970-01-01T02:58:03.000Z</time>
      </trkpt>
      <trkpt lat="45.42429" lon="4.60162">
        <ele>883.6</ele>
        <time>1970-01-01T02:58:05.000Z</time>
      </trkpt>
      <trkpt lat="45.4243" lon="4.60168">
        <ele>883.8</ele>
        <time>1970-01-01T02:58:07.000Z</time>
      </trkpt>
      <trkpt lat="45.42431" lon="4.60175">
        <ele>883.9</ele>
        <time>1970-01-01T02:58:09.000Z</time>
      </trkpt>
      <trkpt lat="45.42431" lon="4.60179">
        <ele>884</ele>
        <time>1970-01-01T02:58:10.000Z</time>
      </trkpt>
      <trkpt lat="45.42432" lon="4.60184">
        <ele>884.1</ele>
        <time>1970-01-01T02:58:12.000Z</time>
      </trkpt>
      <trkpt lat="45.42433" lon="4.60188">
        <ele>884.2</ele>
        <time>1970-01-01T02:58:13.000Z</time>
      </trkpt>
      <trkpt lat="45.42434" lon="4.60194">
        <ele>884.4</ele>
        <time>1970-01-01T02:58:15.000Z</time>
      </trkpt>
      <trkpt lat="45.42436" lon="4.60201">
        <ele>884.5</ele>
        <time>1970-01-01T02:58:17.000Z</time>
      </trkpt>
      <trkpt lat="45.42436" lon="4.60205">
        <ele>884.6</ele>
        <time>1970-01-01T02:58:18.000Z</time>
      </trkpt>
      <trkpt lat="45.42437" lon="4.60209">
        <ele>884.7</ele>
        <time>1970-01-01T02:58:19.000Z</time>
      </trkpt>
      <trkpt lat="45.42438" lon="4.60213">
        <ele>884.8</ele>
        <time>1970-01-01T02:58:20.000Z</time>
      </trkpt>
      <trkpt lat="45.42439" lon="4.60217">
        <ele>884.9</ele>
        <time>1970-01-01T02:58:21.000Z</time>
      </trkpt>
      <trkpt lat="45.42441" lon="4.60221">
        <ele>885</ele>
        <time>1970-01-01T02:58:22.000Z</time>
      </trkpt>
      <trkpt lat="45.42443" lon="4.60228">
        <ele>885</ele>
        <time>1970-01-01T02:58:24.000Z</time>
      </trkpt>
      <trkpt lat="45.42444" lon="4.60234">
        <ele>885</ele>
        <time>1970-01-01T02:58:26.000Z</time>
      </trkpt>
      <trkpt lat="45.42445" lon="4.60241">
        <ele>885</ele>
        <time>1970-01-01T02:58:29.000Z</time>
      </trkpt>
      <trkpt lat="45.42445" lon="4.60245">
        <ele>885.1</ele>
        <time>1970-01-01T02:58:30.000Z</time>
      </trkpt>
      <trkpt lat="45.42446" lon="4.60253">
        <ele>885.4</ele>
        <time>1970-01-01T02:58:32.000Z</time>
      </trkpt>
      <trkpt lat="45.42448" lon="4.60258">
        <ele>885.6</ele>
        <time>1970-01-01T02:58:34.000Z</time>
      </trkpt>
      <trkpt lat="45.42449" lon="4.60264">
        <ele>885.9</ele>
        <time>1970-01-01T02:58:36.000Z</time>
      </trkpt>
      <trkpt lat="45.42448" lon="4.60268">
        <ele>886</ele>
        <time>1970-01-01T02:58:37.000Z</time>
      </trkpt>
      <trkpt lat="45.42448" lon="4.60274">
        <ele>886.2</ele>
        <time>1970-01-01T02:58:38.000Z</time>
      </trkpt>
      <trkpt lat="45.42449" lon="4.60279">
        <ele>886.4</ele>
        <time>1970-01-01T02:58:39.000Z</time>
      </trkpt>
      <trkpt lat="45.42449" lon="4.60282">
        <ele>886.5</ele>
        <time>1970-01-01T02:58:40.000Z</time>
      </trkpt>
      <trkpt lat="45.42449" lon="4.60289">
        <ele>886.8</ele>
        <time>1970-01-01T02:58:42.000Z</time>
      </trkpt>
      <trkpt lat="45.42449" lon="4.60294">
        <ele>887</ele>
        <time>1970-01-01T02:58:43.000Z</time>
      </trkpt>
      <trkpt lat="45.4245" lon="4.60298">
        <ele>887.1</ele>
        <time>1970-01-01T02:58:44.000Z</time>
      </trkpt>
      <trkpt lat="45.42448" lon="4.60307">
        <ele>887.5</ele>
        <time>1970-01-01T02:58:46.000Z</time>
      </trkpt>
      <trkpt lat="45.42448" lon="4.60312">
        <ele>887.6</ele>
        <time>1970-01-01T02:58:47.000Z</time>
      </trkpt>
      <trkpt lat="45.42448" lon="4.60318">
        <ele>887.9</ele>
        <time>1970-01-01T02:58:49.000Z</time>
      </trkpt>
      <trkpt lat="45.42447" lon="4.60324">
        <ele>888.1</ele>
        <time>1970-01-01T02:58:51.000Z</time>
      </trkpt>
      <trkpt lat="45.42446" lon="4.60328">
        <ele>888.4</ele>
        <time>1970-01-01T02:58:52.000Z</time>
      </trkpt>
      <trkpt lat="45.42446" lon="4.60333">
        <ele>888.6</ele>
        <time>1970-01-01T02:58:53.000Z</time>
      </trkpt>
      <trkpt lat="45.42445" lon="4.60338">
        <ele>888.9</ele>
        <time>1970-01-01T02:58:54.000Z</time>
      </trkpt>
      <trkpt lat="45.42446" lon="4.60346">
        <ele>889.2</ele>
        <time>1970-01-01T02:58:56.000Z</time>
      </trkpt>
      <trkpt lat="45.42445" lon="4.60351">
        <ele>889.4</ele>
        <time>1970-01-01T02:58:57.000Z</time>
      </trkpt>
      <trkpt lat="45.42445" lon="4.60356">
        <ele>889.6</ele>
        <time>1970-01-01T02:58:58.000Z</time>
      </trkpt>
      <trkpt lat="45.42445" lon="4.60361">
        <ele>889.8</ele>
        <time>1970-01-01T02:58:59.000Z</time>
      </trkpt>
      <trkpt lat="45.42444" lon="4.60366">
        <ele>889.9</ele>
        <time>1970-01-01T02:59:00.000Z</time>
      </trkpt>
      <trkpt lat="45.42444" lon="4.60372">
        <ele>890.1</ele>
        <time>1970-01-01T02:59:02.000Z</time>
      </trkpt>
      <trkpt lat="45.42444" lon="4.60376">
        <ele>890.3</ele>
        <time>1970-01-01T02:59:03.000Z</time>
      </trkpt>
      <trkpt lat="45.42443" lon="4.60381">
        <ele>890.5</ele>
        <time>1970-01-01T02:59:04.000Z</time>
      </trkpt>
      <trkpt lat="45.42443" lon="4.60387">
        <ele>890.7</ele>
        <time>1970-01-01T02:59:06.000Z</time>
      </trkpt>
      <trkpt lat="45.42444" lon="4.60393">
        <ele>890.9</ele>
        <time>1970-01-01T02:59:08.000Z</time>
      </trkpt>
      <trkpt lat="45.42444" lon="4.604">
        <ele>891.2</ele>
        <time>1970-01-01T02:59:10.000Z</time>
      </trkpt>
      <trkpt lat="45.42445" lon="4.60407">
        <ele>891.8</ele>
        <time>1970-01-01T02:59:12.000Z</time>
      </trkpt>
      <trkpt lat="45.42445" lon="4.60411">
        <ele>892</ele>
        <time>1970-01-01T02:59:13.000Z</time>
      </trkpt>
      <trkpt lat="45.42445" lon="4.60416">
        <ele>892.2</ele>
        <time>1970-01-01T02:59:14.000Z</time>
      </trkpt>
      <trkpt lat="45.42446" lon="4.60423">
        <ele>892.5</ele>
        <time>1970-01-01T02:59:16.000Z</time>
      </trkpt>
      <trkpt lat="45.42448" lon="4.60428">
        <ele>892.7</ele>
        <time>1970-01-01T02:59:18.000Z</time>
      </trkpt>
      <trkpt lat="45.42448" lon="4.60433">
        <ele>892.9</ele>
        <time>1970-01-01T02:59:19.000Z</time>
      </trkpt>
      <trkpt lat="45.42448" lon="4.60437">
        <ele>893</ele>
        <time>1970-01-01T02:59:20.000Z</time>
      </trkpt>
      <trkpt lat="45.42448" lon="4.60441">
        <ele>893.2</ele>
        <time>1970-01-01T02:59:21.000Z</time>
      </trkpt>
      <trkpt lat="45.42448" lon="4.60447">
        <ele>893.5</ele>
        <time>1970-01-01T02:59:23.000Z</time>
      </trkpt>
      <trkpt lat="45.42449" lon="4.60454">
        <ele>893.7</ele>
        <time>1970-01-01T02:59:25.000Z</time>
      </trkpt>
      <trkpt lat="45.42451" lon="4.60459">
        <ele>893.9</ele>
        <time>1970-01-01T02:59:27.000Z</time>
      </trkpt>
      <trkpt lat="45.4245" lon="4.60466">
        <ele>894.2</ele>
        <time>1970-01-01T02:59:29.000Z</time>
      </trkpt>
      <trkpt lat="45.4245" lon="4.60471">
        <ele>894.4</ele>
        <time>1970-01-01T02:59:30.000Z</time>
      </trkpt>
      <trkpt lat="45.42451" lon="4.60477">
        <ele>894.6</ele>
        <time>1970-01-01T02:59:31.000Z</time>
      </trkpt>
      <trkpt lat="45.42451" lon="4.60482">
        <ele>894.8</ele>
        <time>1970-01-01T02:59:32.000Z</time>
      </trkpt>
      <trkpt lat="45.42451" lon="4.60486">
        <ele>894.9</ele>
        <time>1970-01-01T02:59:33.000Z</time>
      </trkpt>
      <trkpt lat="45.42452" lon="4.60491">
        <ele>895.1</ele>
        <time>1970-01-01T02:59:34.000Z</time>
      </trkpt>
      <trkpt lat="45.42452" lon="4.60495">
        <ele>895.3</ele>
        <time>1970-01-01T02:59:35.000Z</time>
      </trkpt>
      <trkpt lat="45.42453" lon="4.605">
        <ele>895.4</ele>
        <time>1970-01-01T02:59:36.000Z</time>
      </trkpt>
      <trkpt lat="45.42453" lon="4.60505">
        <ele>895.6</ele>
        <time>1970-01-01T02:59:37.000Z</time>
      </trkpt>
      <trkpt lat="45.42453" lon="4.60509">
        <ele>895.8</ele>
        <time>1970-01-01T02:59:38.000Z</time>
      </trkpt>
      <trkpt lat="45.42453" lon="4.60516">
        <ele>896</ele>
        <time>1970-01-01T02:59:40.000Z</time>
      </trkpt>
      <trkpt lat="45.42453" lon="4.60525">
        <ele>896.3</ele>
        <time>1970-01-01T02:59:42.000Z</time>
      </trkpt>
      <trkpt lat="45.42454" lon="4.60531">
        <ele>896.5</ele>
        <time>1970-01-01T02:59:43.000Z</time>
      </trkpt>
      <trkpt lat="45.42454" lon="4.6054">
        <ele>896.8</ele>
        <time>1970-01-01T02:59:45.000Z</time>
      </trkpt>
      <trkpt lat="45.42454" lon="4.60544">
        <ele>897</ele>
        <time>1970-01-01T02:59:47.000Z</time>
      </trkpt>
      <trkpt lat="45.42453" lon="4.60549">
        <ele>897.2</ele>
        <time>1970-01-01T02:59:49.000Z</time>
      </trkpt>
      <trkpt lat="45.42455" lon="4.60556">
        <ele>897.4</ele>
        <time>1970-01-01T02:59:51.000Z</time>
      </trkpt>
      <trkpt lat="45.42455" lon="4.60562">
        <ele>897.8</ele>
        <time>1970-01-01T02:59:52.000Z</time>
      </trkpt>
      <trkpt lat="45.42455" lon="4.60566">
        <ele>898.1</ele>
        <time>1970-01-01T02:59:53.000Z</time>
      </trkpt>
      <trkpt lat="45.42456" lon="4.60571">
        <ele>898.3</ele>
        <time>1970-01-01T02:59:54.000Z</time>
      </trkpt>
      <trkpt lat="45.42456" lon="4.60577">
        <ele>898.5</ele>
        <time>1970-01-01T02:59:55.000Z</time>
      </trkpt>
      <trkpt lat="45.42456" lon="4.60582">
        <ele>898.7</ele>
        <time>1970-01-01T02:59:56.000Z</time>
      </trkpt>
      <trkpt lat="45.42456" lon="4.60589">
        <ele>898.9</ele>
        <time>1970-01-01T02:59:57.000Z</time>
      </trkpt>
      <trkpt lat="45.42456" lon="4.60594">
        <ele>899.1</ele>
        <time>1970-01-01T02:59:58.000Z</time>
      </trkpt>
      <trkpt lat="45.42456" lon="4.60599">
        <ele>899.2</ele>
        <time>1970-01-01T02:59:59.000Z</time>
      </trkpt>
      <trkpt lat="45.42456" lon="4.60604">
        <ele>899.4</ele>
        <time>1970-01-01T03:00:00.000Z</time>
      </trkpt>
      <trkpt lat="45.42458" lon="4.60609">
        <ele>899.6</ele>
        <time>1970-01-01T03:00:01.000Z</time>
      </trkpt>
      <trkpt lat="45.42458" lon="4.60614">
        <ele>899.7</ele>
        <time>1970-01-01T03:00:02.000Z</time>
      </trkpt>
      <trkpt lat="45.42458" lon="4.60621">
        <ele>900.2</ele>
        <time>1970-01-01T03:00:03.000Z</time>
      </trkpt>
      <trkpt lat="45.42457" lon="4.60626">
        <ele>900.5</ele>
        <time>1970-01-01T03:00:04.000Z</time>
      </trkpt>
      <trkpt lat="45.42457" lon="4.60634">
        <ele>900.9</ele>
        <time>1970-01-01T03:00:05.000Z</time>
      </trkpt>
      <trkpt lat="45.42456" lon="4.60638">
        <ele>901.2</ele>
        <time>1970-01-01T03:00:06.000Z</time>
      </trkpt>
      <trkpt lat="45.42456" lon="4.60645">
        <ele>901.6</ele>
        <time>1970-01-01T03:00:07.000Z</time>
      </trkpt>
      <trkpt lat="45.42454" lon="4.60649">
        <ele>901.9</ele>
        <time>1970-01-01T03:00:08.000Z</time>
      </trkpt>
      <trkpt lat="45.42452" lon="4.60652">
        <ele>902.1</ele>
        <time>1970-01-01T03:00:09.000Z</time>
      </trkpt>
      <trkpt lat="45.4245" lon="4.60657">
        <ele>902.3</ele>
        <time>1970-01-01T03:00:10.000Z</time>
      </trkpt>
      <trkpt lat="45.42448" lon="4.60663">
        <ele>902.5</ele>
        <time>1970-01-01T03:00:11.000Z</time>
      </trkpt>
      <trkpt lat="45.42446" lon="4.60667">
        <ele>902.7</ele>
        <time>1970-01-01T03:00:12.000Z</time>
      </trkpt>
      <trkpt lat="45.42445" lon="4.60673">
        <ele>902.9</ele>
        <time>1970-01-01T03:00:13.000Z</time>
      </trkpt>
      <trkpt lat="45.42445" lon="4.60683">
        <ele>903.3</ele>
        <time>1970-01-01T03:00:15.000Z</time>
      </trkpt>
      <trkpt lat="45.42445" lon="4.60688">
        <ele>903.4</ele>
        <time>1970-01-01T03:00:16.000Z</time>
      </trkpt>
      <trkpt lat="45.42443" lon="4.60692">
        <ele>903.6</ele>
        <time>1970-01-01T03:00:17.000Z</time>
      </trkpt>
      <trkpt lat="45.42442" lon="4.60696">
        <ele>903.8</ele>
        <time>1970-01-01T03:00:18.000Z</time>
      </trkpt>
      <trkpt lat="45.42441" lon="4.60702">
        <ele>904</ele>
        <time>1970-01-01T03:00:19.000Z</time>
      </trkpt>
      <trkpt lat="45.4244" lon="4.60706">
        <ele>904.2</ele>
        <time>1970-01-01T03:00:20.000Z</time>
      </trkpt>
      <trkpt lat="45.42438" lon="4.6071">
        <ele>904.4</ele>
        <time>1970-01-01T03:00:21.000Z</time>
      </trkpt>
      <trkpt lat="45.42436" lon="4.60714">
        <ele>904.6</ele>
        <time>1970-01-01T03:00:22.000Z</time>
      </trkpt>
      <trkpt lat="45.42435" lon="4.60719">
        <ele>904.9</ele>
        <time>1970-01-01T03:00:23.000Z</time>
      </trkpt>
      <trkpt lat="45.42433" lon="4.60725">
        <ele>905.1</ele>
        <time>1970-01-01T03:00:25.000Z</time>
      </trkpt>
      <trkpt lat="45.42431" lon="4.60729">
        <ele>905.3</ele>
        <time>1970-01-01T03:00:27.000Z</time>
      </trkpt>
      <trkpt lat="45.42428" lon="4.60731">
        <ele>905.5</ele>
        <time>1970-01-01T03:00:28.000Z</time>
      </trkpt>
      <trkpt lat="45.42424" lon="4.60735">
        <ele>905.8</ele>
        <time>1970-01-01T03:00:30.000Z</time>
      </trkpt>
      <trkpt lat="45.42423" lon="4.60738">
        <ele>905.9</ele>
        <time>1970-01-01T03:00:31.000Z</time>
      </trkpt>
      <trkpt lat="45.42418" lon="4.60741">
        <ele>906.2</ele>
        <time>1970-01-01T03:00:33.000Z</time>
      </trkpt>
      <trkpt lat="45.42414" lon="4.60745">
        <ele>906.5</ele>
        <time>1970-01-01T03:00:35.000Z</time>
      </trkpt>
      <trkpt lat="45.42411" lon="4.60748">
        <ele>906.6</ele>
        <time>1970-01-01T03:00:36.000Z</time>
      </trkpt>
      <trkpt lat="45.42409" lon="4.60751">
        <ele>906.8</ele>
        <time>1970-01-01T03:00:37.000Z</time>
      </trkpt>
      <trkpt lat="45.42406" lon="4.60753">
        <ele>907</ele>
        <time>1970-01-01T03:00:38.000Z</time>
      </trkpt>
      <trkpt lat="45.42402" lon="4.60757">
        <ele>907.2</ele>
        <time>1970-01-01T03:00:40.000Z</time>
      </trkpt>
      <trkpt lat="45.42395" lon="4.60762">
        <ele>907.6</ele>
        <time>1970-01-01T03:00:42.000Z</time>
      </trkpt>
      <trkpt lat="45.4239" lon="4.60764">
        <ele>907.9</ele>
        <time>1970-01-01T03:00:43.000Z</time>
      </trkpt>
      <trkpt lat="45.42387" lon="4.60765">
        <ele>908</ele>
        <time>1970-01-01T03:00:44.000Z</time>
      </trkpt>
      <trkpt lat="45.42382" lon="4.60768">
        <ele>908.3</ele>
        <time>1970-01-01T03:00:46.000Z</time>
      </trkpt>
      <trkpt lat="45.42378" lon="4.60771">
        <ele>908.5</ele>
        <time>1970-01-01T03:00:48.000Z</time>
      </trkpt>
      <trkpt lat="45.42375" lon="4.6077">
        <ele>908.7</ele>
        <time>1970-01-01T03:00:49.000Z</time>
      </trkpt>
      <trkpt lat="45.42373" lon="4.60772">
        <ele>908.8</ele>
        <time>1970-01-01T03:00:50.000Z</time>
      </trkpt>
      <trkpt lat="45.42371" lon="4.60776">
        <ele>909</ele>
        <time>1970-01-01T03:00:51.000Z</time>
      </trkpt>
      <trkpt lat="45.42368" lon="4.60779">
        <ele>909.2</ele>
        <time>1970-01-01T03:00:53.000Z</time>
      </trkpt>
      <trkpt lat="45.42365" lon="4.60781">
        <ele>909.3</ele>
        <time>1970-01-01T03:00:54.000Z</time>
      </trkpt>
      <trkpt lat="45.42362" lon="4.60784">
        <ele>909.5</ele>
        <time>1970-01-01T03:00:55.000Z</time>
      </trkpt>
      <trkpt lat="45.42359" lon="4.60787">
        <ele>909.7</ele>
        <time>1970-01-01T03:00:56.000Z</time>
      </trkpt>
      <trkpt lat="45.42354" lon="4.60791">
        <ele>910</ele>
        <time>1970-01-01T03:00:57.000Z</time>
      </trkpt>
      <trkpt lat="45.42349" lon="4.60795">
        <ele>910.3</ele>
        <time>1970-01-01T03:00:59.000Z</time>
      </trkpt>
      <trkpt lat="45.42346" lon="4.60798">
        <ele>910.5</ele>
        <time>1970-01-01T03:01:00.000Z</time>
      </trkpt>
      <trkpt lat="45.42344" lon="4.60801">
        <ele>910.7</ele>
        <time>1970-01-01T03:01:01.000Z</time>
      </trkpt>
      <trkpt lat="45.42342" lon="4.60802">
        <ele>910.8</ele>
        <time>1970-01-01T03:01:02.000Z</time>
      </trkpt>
      <trkpt lat="45.42338" lon="4.60805">
        <ele>911</ele>
        <time>1970-01-01T03:01:03.000Z</time>
      </trkpt>
      <trkpt lat="45.42334" lon="4.60809">
        <ele>911.3</ele>
        <time>1970-01-01T03:01:05.000Z</time>
      </trkpt>
      <trkpt lat="45.42329" lon="4.60813">
        <ele>911.6</ele>
        <time>1970-01-01T03:01:07.000Z</time>
      </trkpt>
      <trkpt lat="45.42327" lon="4.60815">
        <ele>911.7</ele>
        <time>1970-01-01T03:01:08.000Z</time>
      </trkpt>
      <trkpt lat="45.42325" lon="4.60816">
        <ele>911.9</ele>
        <time>1970-01-01T03:01:09.000Z</time>
      </trkpt>
      <trkpt lat="45.42321" lon="4.60819">
        <ele>912.1</ele>
        <time>1970-01-01T03:01:11.000Z</time>
      </trkpt>
      <trkpt lat="45.42318" lon="4.60822">
        <ele>912.3</ele>
        <time>1970-01-01T03:01:13.000Z</time>
      </trkpt>
      <trkpt lat="45.42314" lon="4.60825">
        <ele>912.5</ele>
        <time>1970-01-01T03:01:15.000Z</time>
      </trkpt>
      <trkpt lat="45.4231" lon="4.60826">
        <ele>912.7</ele>
        <time>1970-01-01T03:01:17.000Z</time>
      </trkpt>
      <trkpt lat="45.42305" lon="4.60827">
        <ele>913</ele>
        <time>1970-01-01T03:01:19.000Z</time>
      </trkpt>
      <trkpt lat="45.42302" lon="4.60831">
        <ele>913.2</ele>
        <time>1970-01-01T03:01:20.000Z</time>
      </trkpt>
      <trkpt lat="45.423" lon="4.60834">
        <ele>913.3</ele>
        <time>1970-01-01T03:01:21.000Z</time>
      </trkpt>
      <trkpt lat="45.42295" lon="4.60841">
        <ele>913.7</ele>
        <time>1970-01-01T03:01:22.000Z</time>
      </trkpt>
      <trkpt lat="45.42293" lon="4.60846">
        <ele>913.9</ele>
        <time>1970-01-01T03:01:23.000Z</time>
      </trkpt>
      <trkpt lat="45.4229" lon="4.60851">
        <ele>914.3</ele>
        <time>1970-01-01T03:01:24.000Z</time>
      </trkpt>
      <trkpt lat="45.42288" lon="4.60854">
        <ele>914.6</ele>
        <time>1970-01-01T03:01:25.000Z</time>
      </trkpt>
      <trkpt lat="45.42285" lon="4.60858">
        <ele>915</ele>
        <time>1970-01-01T03:01:26.000Z</time>
      </trkpt>
      <trkpt lat="45.42283" lon="4.60862">
        <ele>915.3</ele>
        <time>1970-01-01T03:01:27.000Z</time>
      </trkpt>
      <trkpt lat="45.42279" lon="4.60866">
        <ele>915.7</ele>
        <time>1970-01-01T03:01:28.000Z</time>
      </trkpt>
      <trkpt lat="45.42277" lon="4.6087">
        <ele>916</ele>
        <time>1970-01-01T03:01:29.000Z</time>
      </trkpt>
      <trkpt lat="45.42274" lon="4.60875">
        <ele>916.3</ele>
        <time>1970-01-01T03:01:30.000Z</time>
      </trkpt>
      <trkpt lat="45.42272" lon="4.60878">
        <ele>916.5</ele>
        <time>1970-01-01T03:01:31.000Z</time>
      </trkpt>
      <trkpt lat="45.42269" lon="4.60882">
        <ele>916.8</ele>
        <time>1970-01-01T03:01:32.000Z</time>
      </trkpt>
      <trkpt lat="45.42268" lon="4.60888">
        <ele>917.1</ele>
        <time>1970-01-01T03:01:33.000Z</time>
      </trkpt>
      <trkpt lat="45.42267" lon="4.60893">
        <ele>917.4</ele>
        <time>1970-01-01T03:01:34.000Z</time>
      </trkpt>
      <trkpt lat="45.42264" lon="4.60902">
        <ele>917.8</ele>
        <time>1970-01-01T03:01:36.000Z</time>
      </trkpt>
      <trkpt lat="45.42263" lon="4.60906">
        <ele>918</ele>
        <time>1970-01-01T03:01:37.000Z</time>
      </trkpt>
      <trkpt lat="45.42261" lon="4.60912">
        <ele>918.3</ele>
        <time>1970-01-01T03:01:39.000Z</time>
      </trkpt>
      <trkpt lat="45.42258" lon="4.60915">
        <ele>918.5</ele>
        <time>1970-01-01T03:01:41.000Z</time>
      </trkpt>
      <trkpt lat="45.42255" lon="4.60918">
        <ele>918.7</ele>
        <time>1970-01-01T03:01:43.000Z</time>
      </trkpt>
      <trkpt lat="45.42251" lon="4.60923">
        <ele>919</ele>
        <time>1970-01-01T03:01:45.000Z</time>
      </trkpt>
      <trkpt lat="45.42249" lon="4.60926">
        <ele>919.2</ele>
        <time>1970-01-01T03:01:46.000Z</time>
      </trkpt>
      <trkpt lat="45.42247" lon="4.60931">
        <ele>919.5</ele>
        <time>1970-01-01T03:01:47.000Z</time>
      </trkpt>
      <trkpt lat="45.42245" lon="4.60934">
        <ele>919.8</ele>
        <time>1970-01-01T03:01:48.000Z</time>
      </trkpt>
      <trkpt lat="45.42243" lon="4.60938">
        <ele>920</ele>
        <time>1970-01-01T03:01:49.000Z</time>
      </trkpt>
      <trkpt lat="45.42242" lon="4.60944">
        <ele>920.2</ele>
        <time>1970-01-01T03:01:50.000Z</time>
      </trkpt>
      <trkpt lat="45.42243" lon="4.60949">
        <ele>920.5</ele>
        <time>1970-01-01T03:01:51.000Z</time>
      </trkpt>
      <trkpt lat="45.42243" lon="4.60953">
        <ele>920.7</ele>
        <time>1970-01-01T03:01:52.000Z</time>
      </trkpt>
      <trkpt lat="45.42244" lon="4.6096">
        <ele>921.3</ele>
        <time>1970-01-01T03:01:54.000Z</time>
      </trkpt>
      <trkpt lat="45.42247" lon="4.60964">
        <ele>921.8</ele>
        <time>1970-01-01T03:01:56.000Z</time>
      </trkpt>
      <trkpt lat="45.42251" lon="4.6097">
        <ele>922.3</ele>
        <time>1970-01-01T03:01:58.000Z</time>
      </trkpt>
      <trkpt lat="45.42252" lon="4.60973">
        <ele>922.7</ele>
        <time>1970-01-01T03:01:59.000Z</time>
      </trkpt>
      <trkpt lat="45.42255" lon="4.6098">
        <ele>923</ele>
        <time>1970-01-01T03:02:01.000Z</time>
      </trkpt>
      <trkpt lat="45.42259" lon="4.60984">
        <ele>923.2</ele>
        <time>1970-01-01T03:02:02.000Z</time>
      </trkpt>
      <trkpt lat="45.42261" lon="4.60988">
        <ele>923.4</ele>
        <time>1970-01-01T03:02:03.000Z</time>
      </trkpt>
      <trkpt lat="45.42264" lon="4.60991">
        <ele>923.5</ele>
        <time>1970-01-01T03:02:04.000Z</time>
      </trkpt>
      <trkpt lat="45.42266" lon="4.60994">
        <ele>923.7</ele>
        <time>1970-01-01T03:02:05.000Z</time>
      </trkpt>
      <trkpt lat="45.4227" lon="4.60997">
        <ele>923.9</ele>
        <time>1970-01-01T03:02:06.000Z</time>
      </trkpt>
      <trkpt lat="45.42272" lon="4.61002">
        <ele>924.2</ele>
        <time>1970-01-01T03:02:07.000Z</time>
      </trkpt>
      <trkpt lat="45.42274" lon="4.61006">
        <ele>924.4</ele>
        <time>1970-01-01T03:02:08.000Z</time>
      </trkpt>
      <trkpt lat="45.42276" lon="4.61012">
        <ele>924.8</ele>
        <time>1970-01-01T03:02:09.000Z</time>
      </trkpt>
      <trkpt lat="45.42278" lon="4.61017">
        <ele>925</ele>
        <time>1970-01-01T03:02:10.000Z</time>
      </trkpt>
      <trkpt lat="45.4228" lon="4.61024">
        <ele>925.2</ele>
        <time>1970-01-01T03:02:12.000Z</time>
      </trkpt>
      <trkpt lat="45.42282" lon="4.61028">
        <ele>925.4</ele>
        <time>1970-01-01T03:02:13.000Z</time>
      </trkpt>
      <trkpt lat="45.42285" lon="4.61032">
        <ele>925.5</ele>
        <time>1970-01-01T03:02:15.000Z</time>
      </trkpt>
      <trkpt lat="45.42287" lon="4.61035">
        <ele>925.7</ele>
        <time>1970-01-01T03:02:16.000Z</time>
      </trkpt>
      <trkpt lat="45.42291" lon="4.6104">
        <ele>925.9</ele>
        <time>1970-01-01T03:02:18.000Z</time>
      </trkpt>
      <trkpt lat="45.42293" lon="4.61044">
        <ele>926.1</ele>
        <time>1970-01-01T03:02:20.000Z</time>
      </trkpt>
      <trkpt lat="45.42296" lon="4.61049">
        <ele>926.3</ele>
        <time>1970-01-01T03:02:22.000Z</time>
      </trkpt>
      <trkpt lat="45.42298" lon="4.61053">
        <ele>926.5</ele>
        <time>1970-01-01T03:02:23.000Z</time>
      </trkpt>
      <trkpt lat="45.42301" lon="4.61059">
        <ele>926.7</ele>
        <time>1970-01-01T03:02:25.000Z</time>
      </trkpt>
      <trkpt lat="45.42303" lon="4.61064">
        <ele>927</ele>
        <time>1970-01-01T03:02:27.000Z</time>
      </trkpt>
      <trkpt lat="45.42306" lon="4.6107">
        <ele>927.2</ele>
        <time>1970-01-01T03:02:29.000Z</time>
      </trkpt>
      <trkpt lat="45.42306" lon="4.61074">
        <ele>927.4</ele>
        <time>1970-01-01T03:02:30.000Z</time>
      </trkpt>
      <trkpt lat="45.42308" lon="4.61078">
        <ele>927.5</ele>
        <time>1970-01-01T03:02:31.000Z</time>
      </trkpt>
      <trkpt lat="45.42311" lon="4.61084">
        <ele>927.9</ele>
        <time>1970-01-01T03:02:33.000Z</time>
      </trkpt>
      <trkpt lat="45.42316" lon="4.61092">
        <ele>928.5</ele>
        <time>1970-01-01T03:02:35.000Z</time>
      </trkpt>
      <trkpt lat="45.42318" lon="4.61098">
        <ele>928.8</ele>
        <time>1970-01-01T03:02:37.000Z</time>
      </trkpt>
      <trkpt lat="45.42321" lon="4.61102">
        <ele>929</ele>
        <time>1970-01-01T03:02:39.000Z</time>
      </trkpt>
      <trkpt lat="45.42322" lon="4.61106">
        <ele>929.1</ele>
        <time>1970-01-01T03:02:40.000Z</time>
      </trkpt>
      <trkpt lat="45.42324" lon="4.61109">
        <ele>929.3</ele>
        <time>1970-01-01T03:02:41.000Z</time>
      </trkpt>
      <trkpt lat="45.42327" lon="4.61113">
        <ele>929.5</ele>
        <time>1970-01-01T03:02:42.000Z</time>
      </trkpt>
      <trkpt lat="45.42329" lon="4.61116">
        <ele>929.6</ele>
        <time>1970-01-01T03:02:43.000Z</time>
      </trkpt>
      <trkpt lat="45.42331" lon="4.6112">
        <ele>929.8</ele>
        <time>1970-01-01T03:02:44.000Z</time>
      </trkpt>
      <trkpt lat="45.42333" lon="4.61124">
        <ele>929.9</ele>
        <time>1970-01-01T03:02:45.000Z</time>
      </trkpt>
      <trkpt lat="45.42335" lon="4.61127">
        <ele>930.1</ele>
        <time>1970-01-01T03:02:46.000Z</time>
      </trkpt>
      <trkpt lat="45.42338" lon="4.61134">
        <ele>930.4</ele>
        <time>1970-01-01T03:02:48.000Z</time>
      </trkpt>
      <trkpt lat="45.42341" lon="4.6114">
        <ele>930.8</ele>
        <time>1970-01-01T03:02:50.000Z</time>
      </trkpt>
      <trkpt lat="45.42343" lon="4.61144">
        <ele>931.1</ele>
        <time>1970-01-01T03:02:51.000Z</time>
      </trkpt>
      <trkpt lat="45.42345" lon="4.61147">
        <ele>931.3</ele>
        <time>1970-01-01T03:02:52.000Z</time>
      </trkpt>
      <trkpt lat="45.42347" lon="4.6115">
        <ele>931.5</ele>
        <time>1970-01-01T03:02:53.000Z</time>
      </trkpt>
      <trkpt lat="45.42349" lon="4.61155">
        <ele>931.7</ele>
        <time>1970-01-01T03:02:54.000Z</time>
      </trkpt>
      <trkpt lat="45.4235" lon="4.6116">
        <ele>931.9</ele>
        <time>1970-01-01T03:02:55.000Z</time>
      </trkpt>
      <trkpt lat="45.42354" lon="4.61165">
        <ele>932.2</ele>
        <time>1970-01-01T03:02:57.000Z</time>
      </trkpt>
      <trkpt lat="45.42356" lon="4.61169">
        <ele>932.4</ele>
        <time>1970-01-01T03:02:58.000Z</time>
      </trkpt>
      <trkpt lat="45.42357" lon="4.61173">
        <ele>932.5</ele>
        <time>1970-01-01T03:02:59.000Z</time>
      </trkpt>
      <trkpt lat="45.42359" lon="4.61178">
        <ele>932.8</ele>
        <time>1970-01-01T03:03:00.000Z</time>
      </trkpt>
      <trkpt lat="45.4236" lon="4.61182">
        <ele>932.9</ele>
        <time>1970-01-01T03:03:01.000Z</time>
      </trkpt>
      <trkpt lat="45.42362" lon="4.61184">
        <ele>933.1</ele>
        <time>1970-01-01T03:03:02.000Z</time>
      </trkpt>
      <trkpt lat="45.42365" lon="4.61191">
        <ele>933.4</ele>
        <time>1970-01-01T03:03:04.000Z</time>
      </trkpt>
      <trkpt lat="45.42367" lon="4.61195">
        <ele>933.7</ele>
        <time>1970-01-01T03:03:05.000Z</time>
      </trkpt>
      <trkpt lat="45.42368" lon="4.61199">
        <ele>933.9</ele>
        <time>1970-01-01T03:03:06.000Z</time>
      </trkpt>
      <trkpt lat="45.42369" lon="4.61203">
        <ele>934.2</ele>
        <time>1970-01-01T03:03:07.000Z</time>
      </trkpt>
      <trkpt lat="45.42372" lon="4.61208">
        <ele>934.6</ele>
        <time>1970-01-01T03:03:09.000Z</time>
      </trkpt>
      <trkpt lat="45.42376" lon="4.61213">
        <ele>934.9</ele>
        <time>1970-01-01T03:03:11.000Z</time>
      </trkpt>
      <trkpt lat="45.42381" lon="4.61221">
        <ele>935.2</ele>
        <time>1970-01-01T03:03:13.000Z</time>
      </trkpt>
      <trkpt lat="45.42383" lon="4.61225">
        <ele>935.4</ele>
        <time>1970-01-01T03:03:14.000Z</time>
      </trkpt>
      <trkpt lat="45.42384" lon="4.61229">
        <ele>935.6</ele>
        <time>1970-01-01T03:03:15.000Z</time>
      </trkpt>
      <trkpt lat="45.42386" lon="4.61233">
        <ele>935.8</ele>
        <time>1970-01-01T03:03:16.000Z</time>
      </trkpt>
      <trkpt lat="45.42387" lon="4.61237">
        <ele>935.9</ele>
        <time>1970-01-01T03:03:17.000Z</time>
      </trkpt>
      <trkpt lat="45.42389" lon="4.6124">
        <ele>936.1</ele>
        <time>1970-01-01T03:03:18.000Z</time>
      </trkpt>
      <trkpt lat="45.4239" lon="4.61244">
        <ele>936.2</ele>
        <time>1970-01-01T03:03:19.000Z</time>
      </trkpt>
      <trkpt lat="45.42392" lon="4.61247">
        <ele>936.3</ele>
        <time>1970-01-01T03:03:20.000Z</time>
      </trkpt>
      <trkpt lat="45.42393" lon="4.61251">
        <ele>936.5</ele>
        <time>1970-01-01T03:03:21.000Z</time>
      </trkpt>
      <trkpt lat="45.42395" lon="4.61256">
        <ele>936.7</ele>
        <time>1970-01-01T03:03:22.000Z</time>
      </trkpt>
      <trkpt lat="45.42399" lon="4.61264">
        <ele>937.4</ele>
        <time>1970-01-01T03:03:24.000Z</time>
      </trkpt>
      <trkpt lat="45.42401" lon="4.61268">
        <ele>937.7</ele>
        <time>1970-01-01T03:03:25.000Z</time>
      </trkpt>
      <trkpt lat="45.42402" lon="4.61272">
        <ele>937.9</ele>
        <time>1970-01-01T03:03:26.000Z</time>
      </trkpt>
      <trkpt lat="45.42404" lon="4.61276">
        <ele>938.1</ele>
        <time>1970-01-01T03:03:27.000Z</time>
      </trkpt>
      <trkpt lat="45.42407" lon="4.6128">
        <ele>938.2</ele>
        <time>1970-01-01T03:03:28.000Z</time>
      </trkpt>
      <trkpt lat="45.42409" lon="4.61285">
        <ele>938.4</ele>
        <time>1970-01-01T03:03:29.000Z</time>
      </trkpt>
      <trkpt lat="45.42411" lon="4.6129">
        <ele>938.6</ele>
        <time>1970-01-01T03:03:30.000Z</time>
      </trkpt>
      <trkpt lat="45.42413" lon="4.61295">
        <ele>938.8</ele>
        <time>1970-01-01T03:03:31.000Z</time>
      </trkpt>
      <trkpt lat="45.42415" lon="4.613">
        <ele>939</ele>
        <time>1970-01-01T03:03:32.000Z</time>
      </trkpt>
      <trkpt lat="45.42418" lon="4.61306">
        <ele>939.3</ele>
        <time>1970-01-01T03:03:34.000Z</time>
      </trkpt>
      <trkpt lat="45.42418" lon="4.6131">
        <ele>939.4</ele>
        <time>1970-01-01T03:03:35.000Z</time>
      </trkpt>
      <trkpt lat="45.42419" lon="4.61315">
        <ele>939.6</ele>
        <time>1970-01-01T03:03:36.000Z</time>
      </trkpt>
      <trkpt lat="45.4242" lon="4.6132">
        <ele>939.7</ele>
        <time>1970-01-01T03:03:37.000Z</time>
      </trkpt>
      <trkpt lat="45.42421" lon="4.61325">
        <ele>939.9</ele>
        <time>1970-01-01T03:03:39.000Z</time>
      </trkpt>
      <trkpt lat="45.42423" lon="4.61332">
        <ele>940.2</ele>
        <time>1970-01-01T03:03:41.000Z</time>
      </trkpt>
      <trkpt lat="45.42425" lon="4.61339">
        <ele>940.5</ele>
        <time>1970-01-01T03:03:42.000Z</time>
      </trkpt>
      <trkpt lat="45.42427" lon="4.61344">
        <ele>940.7</ele>
        <time>1970-01-01T03:03:43.000Z</time>
      </trkpt>
      <trkpt lat="45.42429" lon="4.61348">
        <ele>940.9</ele>
        <time>1970-01-01T03:03:45.000Z</time>
      </trkpt>
      <trkpt lat="45.42432" lon="4.61353">
        <ele>941.1</ele>
        <time>1970-01-01T03:03:46.000Z</time>
      </trkpt>
      <trkpt lat="45.42433" lon="4.61359">
        <ele>941.3</ele>
        <time>1970-01-01T03:03:47.000Z</time>
      </trkpt>
      <trkpt lat="45.42434" lon="4.61365">
        <ele>941.5</ele>
        <time>1970-01-01T03:03:49.000Z</time>
      </trkpt>
      <trkpt lat="45.42438" lon="4.6137">
        <ele>941.8</ele>
        <time>1970-01-01T03:03:51.000Z</time>
      </trkpt>
      <trkpt lat="45.42439" lon="4.61374">
        <ele>942</ele>
        <time>1970-01-01T03:03:52.000Z</time>
      </trkpt>
      <trkpt lat="45.42441" lon="4.61381">
        <ele>942.2</ele>
        <time>1970-01-01T03:03:54.000Z</time>
      </trkpt>
      <trkpt lat="45.42442" lon="4.61387">
        <ele>942.4</ele>
        <time>1970-01-01T03:03:55.000Z</time>
      </trkpt>
      <trkpt lat="45.42443" lon="4.61393">
        <ele>942.6</ele>
        <time>1970-01-01T03:03:57.000Z</time>
      </trkpt>
      <trkpt lat="45.42445" lon="4.614">
        <ele>942.9</ele>
        <time>1970-01-01T03:03:59.000Z</time>
      </trkpt>
      <trkpt lat="45.42445" lon="4.61404">
        <ele>943.1</ele>
        <time>1970-01-01T03:04:00.000Z</time>
      </trkpt>
      <trkpt lat="45.42446" lon="4.61411">
        <ele>943.3</ele>
        <time>1970-01-01T03:04:02.000Z</time>
      </trkpt>
      <trkpt lat="45.42448" lon="4.61418">
        <ele>943.6</ele>
        <time>1970-01-01T03:04:04.000Z</time>
      </trkpt>
      <trkpt lat="45.4245" lon="4.61423">
        <ele>943.8</ele>
        <time>1970-01-01T03:04:06.000Z</time>
      </trkpt>
      <trkpt lat="45.42452" lon="4.61431">
        <ele>944.1</ele>
        <time>1970-01-01T03:04:08.000Z</time>
      </trkpt>
      <trkpt lat="45.42453" lon="4.61435">
        <ele>944.4</ele>
        <time>1970-01-01T03:04:09.000Z</time>
      </trkpt>
      <trkpt lat="45.42453" lon="4.61439">
        <ele>944.8</ele>
        <time>1970-01-01T03:04:10.000Z</time>
      </trkpt>
      <trkpt lat="45.42454" lon="4.61444">
        <ele>945.1</ele>
        <time>1970-01-01T03:04:11.000Z</time>
      </trkpt>
      <trkpt lat="45.42455" lon="4.61451">
        <ele>945.4</ele>
        <time>1970-01-01T03:04:13.000Z</time>
      </trkpt>
      <trkpt lat="45.42457" lon="4.61458">
        <ele>945.7</ele>
        <time>1970-01-01T03:04:15.000Z</time>
      </trkpt>
      <trkpt lat="45.42458" lon="4.61462">
        <ele>945.9</ele>
        <time>1970-01-01T03:04:16.000Z</time>
      </trkpt>
      <trkpt lat="45.42457" lon="4.61467">
        <ele>946</ele>
        <time>1970-01-01T03:04:17.000Z</time>
      </trkpt>
      <trkpt lat="45.42457" lon="4.61472">
        <ele>946.2</ele>
        <time>1970-01-01T03:04:18.000Z</time>
      </trkpt>
      <trkpt lat="45.42457" lon="4.61478">
        <ele>946.5</ele>
        <time>1970-01-01T03:04:20.000Z</time>
      </trkpt>
      <trkpt lat="45.42456" lon="4.61483">
        <ele>946.7</ele>
        <time>1970-01-01T03:04:22.000Z</time>
      </trkpt>
      <trkpt lat="45.42456" lon="4.61488">
        <ele>946.9</ele>
        <time>1970-01-01T03:04:24.000Z</time>
      </trkpt>
      <trkpt lat="45.42458" lon="4.61492">
        <ele>947</ele>
        <time>1970-01-01T03:04:25.000Z</time>
      </trkpt>
      <trkpt lat="45.42458" lon="4.61498">
        <ele>947.2</ele>
        <time>1970-01-01T03:04:26.000Z</time>
      </trkpt>
      <trkpt lat="45.4246" lon="4.61502">
        <ele>947.5</ele>
        <time>1970-01-01T03:04:27.000Z</time>
      </trkpt>
      <trkpt lat="45.42461" lon="4.61507">
        <ele>947.8</ele>
        <time>1970-01-01T03:04:28.000Z</time>
      </trkpt>
      <trkpt lat="45.42463" lon="4.61518">
        <ele>948.3</ele>
        <time>1970-01-01T03:04:30.000Z</time>
      </trkpt>
      <trkpt lat="45.42463" lon="4.61523">
        <ele>948.6</ele>
        <time>1970-01-01T03:04:31.000Z</time>
      </trkpt>
      <trkpt lat="45.42463" lon="4.61529">
        <ele>948.9</ele>
        <time>1970-01-01T03:04:32.000Z</time>
      </trkpt>
      <trkpt lat="45.42464" lon="4.61534">
        <ele>949.1</ele>
        <time>1970-01-01T03:04:33.000Z</time>
      </trkpt>
      <trkpt lat="45.42463" lon="4.61539">
        <ele>949.3</ele>
        <time>1970-01-01T03:04:34.000Z</time>
      </trkpt>
      <trkpt lat="45.42464" lon="4.61543">
        <ele>949.5</ele>
        <time>1970-01-01T03:04:35.000Z</time>
      </trkpt>
      <trkpt lat="45.42465" lon="4.61552">
        <ele>949.8</ele>
        <time>1970-01-01T03:04:37.000Z</time>
      </trkpt>
      <trkpt lat="45.42467" lon="4.61558">
        <ele>950.1</ele>
        <time>1970-01-01T03:04:39.000Z</time>
      </trkpt>
      <trkpt lat="45.42467" lon="4.61564">
        <ele>950.3</ele>
        <time>1970-01-01T03:04:41.000Z</time>
      </trkpt>
      <trkpt lat="45.42469" lon="4.61568">
        <ele>950.5</ele>
        <time>1970-01-01T03:04:42.000Z</time>
      </trkpt>
      <trkpt lat="45.4247" lon="4.61574">
        <ele>950.7</ele>
        <time>1970-01-01T03:04:43.000Z</time>
      </trkpt>
      <trkpt lat="45.42471" lon="4.61578">
        <ele>950.9</ele>
        <time>1970-01-01T03:04:44.000Z</time>
      </trkpt>
      <trkpt lat="45.42472" lon="4.61583">
        <ele>951.1</ele>
        <time>1970-01-01T03:04:45.000Z</time>
      </trkpt>
      <trkpt lat="45.42474" lon="4.61587">
        <ele>951.3</ele>
        <time>1970-01-01T03:04:46.000Z</time>
      </trkpt>
      <trkpt lat="45.42475" lon="4.61592">
        <ele>951.6</ele>
        <time>1970-01-01T03:04:47.000Z</time>
      </trkpt>
      <trkpt lat="45.42477" lon="4.61596">
        <ele>951.8</ele>
        <time>1970-01-01T03:04:48.000Z</time>
      </trkpt>
      <trkpt lat="45.4248" lon="4.61603">
        <ele>952.2</ele>
        <time>1970-01-01T03:04:50.000Z</time>
      </trkpt>
      <trkpt lat="45.42481" lon="4.61607">
        <ele>952.5</ele>
        <time>1970-01-01T03:04:51.000Z</time>
      </trkpt>
      <trkpt lat="45.42483" lon="4.61611">
        <ele>952.7</ele>
        <time>1970-01-01T03:04:52.000Z</time>
      </trkpt>
      <trkpt lat="45.42484" lon="4.61615">
        <ele>953</ele>
        <time>1970-01-01T03:04:53.000Z</time>
      </trkpt>
      <trkpt lat="45.42485" lon="4.6162">
        <ele>952.8</ele>
        <time>1970-01-01T03:04:54.000Z</time>
      </trkpt>
      <trkpt lat="45.42487" lon="4.61624">
        <ele>952.6</ele>
        <time>1970-01-01T03:04:55.000Z</time>
      </trkpt>
      <trkpt lat="45.42489" lon="4.61628">
        <ele>952.4</ele>
        <time>1970-01-01T03:04:56.000Z</time>
      </trkpt>
      <trkpt lat="45.42491" lon="4.61637">
        <ele>952.1</ele>
        <time>1970-01-01T03:04:58.000Z</time>
      </trkpt>
      <trkpt lat="45.42492" lon="4.61642">
        <ele>951.8</ele>
        <time>1970-01-01T03:04:59.000Z</time>
      </trkpt>
      <trkpt lat="45.42493" lon="4.61648">
        <ele>951.6</ele>
        <time>1970-01-01T03:05:01.000Z</time>
      </trkpt>
      <trkpt lat="45.42494" lon="4.61653">
        <ele>951.4</ele>
        <time>1970-01-01T03:05:02.000Z</time>
      </trkpt>
      <trkpt lat="45.42496" lon="4.61657">
        <ele>951.2</ele>
        <time>1970-01-01T03:05:03.000Z</time>
      </trkpt>
      <trkpt lat="45.42496" lon="4.61661">
        <ele>951.1</ele>
        <time>1970-01-01T03:05:04.000Z</time>
      </trkpt>
      <trkpt lat="45.42497" lon="4.61668">
        <ele>950.7</ele>
        <time>1970-01-01T03:05:06.000Z</time>
      </trkpt>
      <trkpt lat="45.42499" lon="4.61676">
        <ele>950.4</ele>
        <time>1970-01-01T03:05:08.000Z</time>
      </trkpt>
      <trkpt lat="45.425" lon="4.61683">
        <ele>950.1</ele>
        <time>1970-01-01T03:05:10.000Z</time>
      </trkpt>
      <trkpt lat="45.42501" lon="4.61687">
        <ele>950</ele>
        <time>1970-01-01T03:05:11.000Z</time>
      </trkpt>
      <trkpt lat="45.42501" lon="4.61691">
        <ele>949.8</ele>
        <time>1970-01-01T03:05:12.000Z</time>
      </trkpt>
      <trkpt lat="45.42502" lon="4.61696">
        <ele>949.4</ele>
        <time>1970-01-01T03:05:13.000Z</time>
      </trkpt>
      <trkpt lat="45.42503" lon="4.61703">
        <ele>948.5</ele>
        <time>1970-01-01T03:05:15.000Z</time>
      </trkpt>
      <trkpt lat="45.42503" lon="4.61709">
        <ele>947.5</ele>
        <time>1970-01-01T03:05:17.000Z</time>
      </trkpt>
      <trkpt lat="45.42503" lon="4.61713">
        <ele>947</ele>
        <time>1970-01-01T03:05:18.000Z</time>
      </trkpt>
      <trkpt lat="45.42503" lon="4.61721">
        <ele>945.9</ele>
        <time>1970-01-01T03:05:20.000Z</time>
      </trkpt>
      <trkpt lat="45.42502" lon="4.61726">
        <ele>945.3</ele>
        <time>1970-01-01T03:05:21.000Z</time>
      </trkpt>
      <trkpt lat="45.42499" lon="4.61731">
        <ele>945</ele>
        <time>1970-01-01T03:05:23.000Z</time>
      </trkpt>
      <trkpt lat="45.42496" lon="4.61734">
        <ele>946</ele>
        <time>1970-01-01T03:05:27.000Z</time>
      </trkpt>
      <trkpt lat="45.42495" lon="4.61737">
        <ele>946.3</ele>
        <time>1970-01-01T03:05:53.000Z</time>
      </trkpt>
      <trkpt lat="45.42494" lon="4.61741">
        <ele>946.6</ele>
        <time>1970-01-01T03:05:57.000Z</time>
      </trkpt>
      <trkpt lat="45.42493" lon="4.61745">
        <ele>946.9</ele>
        <time>1970-01-01T03:06:05.000Z</time>
      </trkpt>
      <trkpt lat="45.42489" lon="4.61748">
        <ele>947.4</ele>
        <time>1970-01-01T03:06:07.000Z</time>
      </trkpt>
      <trkpt lat="45.42486" lon="4.61748">
        <ele>947.8</ele>
        <time>1970-01-01T03:06:08.000Z</time>
      </trkpt>
      <trkpt lat="45.42481" lon="4.61749">
        <ele>948.5</ele>
        <time>1970-01-01T03:06:10.000Z</time>
      </trkpt>
      <trkpt lat="45.42476" lon="4.61751">
        <ele>949.2</ele>
        <time>1970-01-01T03:06:12.000Z</time>
      </trkpt>
      <trkpt lat="45.42473" lon="4.61752">
        <ele>949.5</ele>
        <time>1970-01-01T03:06:13.000Z</time>
      </trkpt>
      <trkpt lat="45.42468" lon="4.61753">
        <ele>950</ele>
        <time>1970-01-01T03:06:15.000Z</time>
      </trkpt>
      <trkpt lat="45.42462" lon="4.61754">
        <ele>950.5</ele>
        <time>1970-01-01T03:06:17.000Z</time>
      </trkpt>
      <trkpt lat="45.42459" lon="4.61755">
        <ele>950.8</ele>
        <time>1970-01-01T03:06:18.000Z</time>
      </trkpt>
      <trkpt lat="45.42456" lon="4.61756">
        <ele>951</ele>
        <time>1970-01-01T03:06:19.000Z</time>
      </trkpt>
      <trkpt lat="45.42451" lon="4.61759">
        <ele>951.5</ele>
        <time>1970-01-01T03:06:21.000Z</time>
      </trkpt>
      <trkpt lat="45.42449" lon="4.6176">
        <ele>951.7</ele>
        <time>1970-01-01T03:06:22.000Z</time>
      </trkpt>
      <trkpt lat="45.42446" lon="4.61761">
        <ele>952</ele>
        <time>1970-01-01T03:06:23.000Z</time>
      </trkpt>
      <trkpt lat="45.42443" lon="4.61761">
        <ele>952.3</ele>
        <time>1970-01-01T03:06:24.000Z</time>
      </trkpt>
      <trkpt lat="45.42439" lon="4.61762">
        <ele>952.6</ele>
        <time>1970-01-01T03:06:26.000Z</time>
      </trkpt>
      <trkpt lat="45.42435" lon="4.61763">
        <ele>953</ele>
        <time>1970-01-01T03:06:28.000Z</time>
      </trkpt>
      <trkpt lat="45.42432" lon="4.61764">
        <ele>953.2</ele>
        <time>1970-01-01T03:06:29.000Z</time>
      </trkpt>
      <trkpt lat="45.42428" lon="4.61767">
        <ele>953.5</ele>
        <time>1970-01-01T03:06:31.000Z</time>
      </trkpt>
      <trkpt lat="45.42424" lon="4.6177">
        <ele>953.8</ele>
        <time>1970-01-01T03:06:33.000Z</time>
      </trkpt>
      <trkpt lat="45.4242" lon="4.61774">
        <ele>954.2</ele>
        <time>1970-01-01T03:06:35.000Z</time>
      </trkpt>
      <trkpt lat="45.42418" lon="4.61777">
        <ele>954.4</ele>
        <time>1970-01-01T03:06:36.000Z</time>
      </trkpt>
      <trkpt lat="45.42415" lon="4.6178">
        <ele>954.7</ele>
        <time>1970-01-01T03:06:37.000Z</time>
      </trkpt>
      <trkpt lat="45.42411" lon="4.61783">
        <ele>955</ele>
        <time>1970-01-01T03:06:39.000Z</time>
      </trkpt>
      <trkpt lat="45.42406" lon="4.61786">
        <ele>955.4</ele>
        <time>1970-01-01T03:06:41.000Z</time>
      </trkpt>
      <trkpt lat="45.42402" lon="4.61792">
        <ele>955.8</ele>
        <time>1970-01-01T03:06:43.000Z</time>
      </trkpt>
      <trkpt lat="45.424" lon="4.61794">
        <ele>956</ele>
        <time>1970-01-01T03:06:44.000Z</time>
      </trkpt>
      <trkpt lat="45.42396" lon="4.61797">
        <ele>956.3</ele>
        <time>1970-01-01T03:06:46.000Z</time>
      </trkpt>
      <trkpt lat="45.4239" lon="4.618">
        <ele>956.7</ele>
        <time>1970-01-01T03:06:48.000Z</time>
      </trkpt>
      <trkpt lat="45.42385" lon="4.61802">
        <ele>957.1</ele>
        <time>1970-01-01T03:06:50.000Z</time>
      </trkpt>
      <trkpt lat="45.42381" lon="4.61804">
        <ele>957.5</ele>
        <time>1970-01-01T03:06:52.000Z</time>
      </trkpt>
      <trkpt lat="45.42378" lon="4.61804">
        <ele>957.7</ele>
        <time>1970-01-01T03:06:53.000Z</time>
      </trkpt>
      <trkpt lat="45.42375" lon="4.61805">
        <ele>957.9</ele>
        <time>1970-01-01T03:06:54.000Z</time>
      </trkpt>
      <trkpt lat="45.4237" lon="4.61807">
        <ele>958.3</ele>
        <time>1970-01-01T03:06:56.000Z</time>
      </trkpt>
      <trkpt lat="45.42366" lon="4.61806">
        <ele>958.7</ele>
        <time>1970-01-01T03:06:58.000Z</time>
      </trkpt>
      <trkpt lat="45.42363" lon="4.61807">
        <ele>959.1</ele>
        <time>1970-01-01T03:07:00.000Z</time>
      </trkpt>
      <trkpt lat="45.42359" lon="4.61808">
        <ele>959.5</ele>
        <time>1970-01-01T03:07:01.000Z</time>
      </trkpt>
      <trkpt lat="45.42355" lon="4.61809">
        <ele>959.9</ele>
        <time>1970-01-01T03:07:02.000Z</time>
      </trkpt>
      <trkpt lat="45.42351" lon="4.61811">
        <ele>960.3</ele>
        <time>1970-01-01T03:07:03.000Z</time>
      </trkpt>
      <trkpt lat="45.42348" lon="4.61813">
        <ele>960.6</ele>
        <time>1970-01-01T03:07:04.000Z</time>
      </trkpt>
      <trkpt lat="45.42343" lon="4.61815">
        <ele>961.2</ele>
        <time>1970-01-01T03:07:06.000Z</time>
      </trkpt>
      <trkpt lat="45.42339" lon="4.61816">
        <ele>961.7</ele>
        <time>1970-01-01T03:07:08.000Z</time>
      </trkpt>
      <trkpt lat="45.42335" lon="4.61818">
        <ele>962.2</ele>
        <time>1970-01-01T03:07:09.000Z</time>
      </trkpt>
      <trkpt lat="45.42331" lon="4.61819">
        <ele>962.7</ele>
        <time>1970-01-01T03:07:11.000Z</time>
      </trkpt>
      <trkpt lat="45.42327" lon="4.61819">
        <ele>963.3</ele>
        <time>1970-01-01T03:07:13.000Z</time>
      </trkpt>
      <trkpt lat="45.42322" lon="4.61821">
        <ele>963.9</ele>
        <time>1970-01-01T03:07:15.000Z</time>
      </trkpt>
      <trkpt lat="45.42318" lon="4.61823">
        <ele>964.4</ele>
        <time>1970-01-01T03:07:16.000Z</time>
      </trkpt>
      <trkpt lat="45.42313" lon="4.61826">
        <ele>965</ele>
        <time>1970-01-01T03:07:18.000Z</time>
      </trkpt>
      <trkpt lat="45.42308" lon="4.61827">
        <ele>965.5</ele>
        <time>1970-01-01T03:07:20.000Z</time>
      </trkpt>
      <trkpt lat="45.42304" lon="4.61828">
        <ele>965.9</ele>
        <time>1970-01-01T03:07:22.000Z</time>
      </trkpt>
      <trkpt lat="45.423" lon="4.61829">
        <ele>966.2</ele>
        <time>1970-01-01T03:07:24.000Z</time>
      </trkpt>
      <trkpt lat="45.42297" lon="4.6183">
        <ele>966.5</ele>
        <time>1970-01-01T03:07:25.000Z</time>
      </trkpt>
      <trkpt lat="45.42292" lon="4.61833">
        <ele>967</ele>
        <time>1970-01-01T03:07:27.000Z</time>
      </trkpt>
      <trkpt lat="45.42289" lon="4.61835">
        <ele>967.3</ele>
        <time>1970-01-01T03:07:28.000Z</time>
      </trkpt>
      <trkpt lat="45.42286" lon="4.61836">
        <ele>967.6</ele>
        <time>1970-01-01T03:07:29.000Z</time>
      </trkpt>
      <trkpt lat="45.42283" lon="4.61836">
        <ele>967.8</ele>
        <time>1970-01-01T03:07:30.000Z</time>
      </trkpt>
      <trkpt lat="45.4228" lon="4.61839">
        <ele>968</ele>
        <time>1970-01-01T03:07:32.000Z</time>
      </trkpt>
      <trkpt lat="45.42276" lon="4.61842">
        <ele>968.3</ele>
        <time>1970-01-01T03:07:34.000Z</time>
      </trkpt>
      <trkpt lat="45.42271" lon="4.61845">
        <ele>968.7</ele>
        <time>1970-01-01T03:07:36.000Z</time>
      </trkpt>
      <trkpt lat="45.42267" lon="4.61848">
        <ele>969</ele>
        <time>1970-01-01T03:07:38.000Z</time>
      </trkpt>
      <trkpt lat="45.42262" lon="4.61851">
        <ele>969.3</ele>
        <time>1970-01-01T03:07:40.000Z</time>
      </trkpt>
      <trkpt lat="45.42259" lon="4.61852">
        <ele>969.5</ele>
        <time>1970-01-01T03:07:41.000Z</time>
      </trkpt>
      <trkpt lat="45.42256" lon="4.61853">
        <ele>969.7</ele>
        <time>1970-01-01T03:07:42.000Z</time>
      </trkpt>
      <trkpt lat="45.42253" lon="4.61854">
        <ele>969.9</ele>
        <time>1970-01-01T03:07:43.000Z</time>
      </trkpt>
      <trkpt lat="45.42249" lon="4.61857">
        <ele>970.2</ele>
        <time>1970-01-01T03:07:45.000Z</time>
      </trkpt>
      <trkpt lat="45.42246" lon="4.61859">
        <ele>970.4</ele>
        <time>1970-01-01T03:07:46.000Z</time>
      </trkpt>
      <trkpt lat="45.42242" lon="4.61863">
        <ele>970.8</ele>
        <time>1970-01-01T03:07:48.000Z</time>
      </trkpt>
      <trkpt lat="45.42237" lon="4.61868">
        <ele>971.1</ele>
        <time>1970-01-01T03:07:50.000Z</time>
      </trkpt>
      <trkpt lat="45.42232" lon="4.61871">
        <ele>971.5</ele>
        <time>1970-01-01T03:07:52.000Z</time>
      </trkpt>
      <trkpt lat="45.42229" lon="4.61872">
        <ele>971.7</ele>
        <time>1970-01-01T03:07:53.000Z</time>
      </trkpt>
      <trkpt lat="45.42226" lon="4.61874">
        <ele>971.9</ele>
        <time>1970-01-01T03:07:54.000Z</time>
      </trkpt>
      <trkpt lat="45.42222" lon="4.61877">
        <ele>972.4</ele>
        <time>1970-01-01T03:07:56.000Z</time>
      </trkpt>
      <trkpt lat="45.42218" lon="4.61879">
        <ele>972.7</ele>
        <time>1970-01-01T03:07:58.000Z</time>
      </trkpt>
      <trkpt lat="45.42214" lon="4.61882">
        <ele>973.2</ele>
        <time>1970-01-01T03:08:00.000Z</time>
      </trkpt>
      <trkpt lat="45.42209" lon="4.61886">
        <ele>973.7</ele>
        <time>1970-01-01T03:08:02.000Z</time>
      </trkpt>
      <trkpt lat="45.42206" lon="4.6189">
        <ele>974.1</ele>
        <time>1970-01-01T03:08:04.000Z</time>
      </trkpt>
      <trkpt lat="45.42202" lon="4.61894">
        <ele>974.5</ele>
        <time>1970-01-01T03:08:06.000Z</time>
      </trkpt>
      <trkpt lat="45.42197" lon="4.61897">
        <ele>975</ele>
        <time>1970-01-01T03:08:08.000Z</time>
      </trkpt>
      <trkpt lat="45.42193" lon="4.61901">
        <ele>975.4</ele>
        <time>1970-01-01T03:08:10.000Z</time>
      </trkpt>
      <trkpt lat="45.42189" lon="4.61905">
        <ele>975.7</ele>
        <time>1970-01-01T03:08:12.000Z</time>
      </trkpt>
      <trkpt lat="45.42185" lon="4.61909">
        <ele>976.1</ele>
        <time>1970-01-01T03:08:14.000Z</time>
      </trkpt>
      <trkpt lat="45.42182" lon="4.61911">
        <ele>976.3</ele>
        <time>1970-01-01T03:08:16.000Z</time>
      </trkpt>
      <trkpt lat="45.4218" lon="4.61914">
        <ele>976.5</ele>
        <time>1970-01-01T03:08:17.000Z</time>
      </trkpt>
      <trkpt lat="45.42178" lon="4.61916">
        <ele>976.7</ele>
        <time>1970-01-01T03:08:18.000Z</time>
      </trkpt>
      <trkpt lat="45.42173" lon="4.61921">
        <ele>977.1</ele>
        <time>1970-01-01T03:08:20.000Z</time>
      </trkpt>
      <trkpt lat="45.4217" lon="4.61922">
        <ele>977.3</ele>
        <time>1970-01-01T03:08:21.000Z</time>
      </trkpt>
      <trkpt lat="45.42168" lon="4.61923">
        <ele>977.5</ele>
        <time>1970-01-01T03:08:22.000Z</time>
      </trkpt>
      <trkpt lat="45.42165" lon="4.61925">
        <ele>977.8</ele>
        <time>1970-01-01T03:08:23.000Z</time>
      </trkpt>
      <trkpt lat="45.42161" lon="4.61929">
        <ele>978.1</ele>
        <time>1970-01-01T03:08:25.000Z</time>
      </trkpt>
      <trkpt lat="45.42159" lon="4.61931">
        <ele>978.3</ele>
        <time>1970-01-01T03:08:26.000Z</time>
      </trkpt>
      <trkpt lat="45.42156" lon="4.61933">
        <ele>978.5</ele>
        <time>1970-01-01T03:08:27.000Z</time>
      </trkpt>
      <trkpt lat="45.42153" lon="4.61936">
        <ele>978.8</ele>
        <time>1970-01-01T03:08:28.000Z</time>
      </trkpt>
      <trkpt lat="45.42151" lon="4.61938">
        <ele>979</ele>
        <time>1970-01-01T03:08:29.000Z</time>
      </trkpt>
      <trkpt lat="45.42148" lon="4.6194">
        <ele>979.2</ele>
        <time>1970-01-01T03:08:30.000Z</time>
      </trkpt>
      <trkpt lat="45.42145" lon="4.61942">
        <ele>979.5</ele>
        <time>1970-01-01T03:08:31.000Z</time>
      </trkpt>
      <trkpt lat="45.42141" lon="4.61945">
        <ele>979.8</ele>
        <time>1970-01-01T03:08:33.000Z</time>
      </trkpt>
      <trkpt lat="45.42137" lon="4.61948">
        <ele>980.1</ele>
        <time>1970-01-01T03:08:35.000Z</time>
      </trkpt>
      <trkpt lat="45.42135" lon="4.6195">
        <ele>980.3</ele>
        <time>1970-01-01T03:08:36.000Z</time>
      </trkpt>
      <trkpt lat="45.4213" lon="4.61953">
        <ele>980.7</ele>
        <time>1970-01-01T03:08:38.000Z</time>
      </trkpt>
      <trkpt lat="45.42126" lon="4.61955">
        <ele>981.1</ele>
        <time>1970-01-01T03:08:40.000Z</time>
      </trkpt>
      <trkpt lat="45.42122" lon="4.61956">
        <ele>981.3</ele>
        <time>1970-01-01T03:08:42.000Z</time>
      </trkpt>
      <trkpt lat="45.42119" lon="4.61957">
        <ele>981.6</ele>
        <time>1970-01-01T03:08:44.000Z</time>
      </trkpt>
      <trkpt lat="45.42114" lon="4.61959">
        <ele>982</ele>
        <time>1970-01-01T03:08:46.000Z</time>
      </trkpt>
      <trkpt lat="45.4211" lon="4.61961">
        <ele>982.3</ele>
        <time>1970-01-01T03:08:48.000Z</time>
      </trkpt>
      <trkpt lat="45.42106" lon="4.61963">
        <ele>982.6</ele>
        <time>1970-01-01T03:08:50.000Z</time>
      </trkpt>
      <trkpt lat="45.42102" lon="4.61965">
        <ele>982.9</ele>
        <time>1970-01-01T03:08:52.000Z</time>
      </trkpt>
      <trkpt lat="45.421" lon="4.61967">
        <ele>983.1</ele>
        <time>1970-01-01T03:08:53.000Z</time>
      </trkpt>
      <trkpt lat="45.42096" lon="4.61971">
        <ele>983.5</ele>
        <time>1970-01-01T03:08:55.000Z</time>
      </trkpt>
      <trkpt lat="45.42092" lon="4.61972">
        <ele>983.8</ele>
        <time>1970-01-01T03:08:57.000Z</time>
      </trkpt>
      <trkpt lat="45.42087" lon="4.61973">
        <ele>984.1</ele>
        <time>1970-01-01T03:08:59.000Z</time>
      </trkpt>
      <trkpt lat="45.42083" lon="4.61975">
        <ele>984.5</ele>
        <time>1970-01-01T03:09:01.000Z</time>
      </trkpt>
      <trkpt lat="45.4208" lon="4.61977">
        <ele>984.7</ele>
        <time>1970-01-01T03:09:02.000Z</time>
      </trkpt>
      <trkpt lat="45.42077" lon="4.61978">
        <ele>985</ele>
        <time>1970-01-01T03:09:03.000Z</time>
      </trkpt>
      <trkpt lat="45.42072" lon="4.61981">
        <ele>985.4</ele>
        <time>1970-01-01T03:09:05.000Z</time>
      </trkpt>
      <trkpt lat="45.42068" lon="4.61982">
        <ele>985.7</ele>
        <time>1970-01-01T03:09:07.000Z</time>
      </trkpt>
      <trkpt lat="45.42063" lon="4.61984">
        <ele>986</ele>
        <time>1970-01-01T03:09:09.000Z</time>
      </trkpt>
      <trkpt lat="45.42057" lon="4.61987">
        <ele>986.4</ele>
        <time>1970-01-01T03:09:11.000Z</time>
      </trkpt>
      <trkpt lat="45.42053" lon="4.61989">
        <ele>986.7</ele>
        <time>1970-01-01T03:09:13.000Z</time>
      </trkpt>
      <trkpt lat="45.42048" lon="4.61991">
        <ele>987.1</ele>
        <time>1970-01-01T03:09:15.000Z</time>
      </trkpt>
      <trkpt lat="45.42044" lon="4.61994">
        <ele>987.4</ele>
        <time>1970-01-01T03:09:17.000Z</time>
      </trkpt>
      <trkpt lat="45.42039" lon="4.61996">
        <ele>987.7</ele>
        <time>1970-01-01T03:09:19.000Z</time>
      </trkpt>
      <trkpt lat="45.42036" lon="4.61996">
        <ele>987.9</ele>
        <time>1970-01-01T03:09:20.000Z</time>
      </trkpt>
      <trkpt lat="45.42032" lon="4.61998">
        <ele>988.2</ele>
        <time>1970-01-01T03:09:22.000Z</time>
      </trkpt>
      <trkpt lat="45.42028" lon="4.62001">
        <ele>988.6</ele>
        <time>1970-01-01T03:09:24.000Z</time>
      </trkpt>
      <trkpt lat="45.42025" lon="4.62003">
        <ele>988.7</ele>
        <time>1970-01-01T03:09:25.000Z</time>
      </trkpt>
      <trkpt lat="45.42022" lon="4.62004">
        <ele>989</ele>
        <time>1970-01-01T03:09:27.000Z</time>
      </trkpt>
      <trkpt lat="45.42017" lon="4.62007">
        <ele>989.4</ele>
        <time>1970-01-01T03:09:29.000Z</time>
      </trkpt>
      <trkpt lat="45.42014" lon="4.62009">
        <ele>989.6</ele>
        <time>1970-01-01T03:09:30.000Z</time>
      </trkpt>
      <trkpt lat="45.42011" lon="4.6201">
        <ele>989.8</ele>
        <time>1970-01-01T03:09:31.000Z</time>
      </trkpt>
      <trkpt lat="45.42006" lon="4.62013">
        <ele>990.2</ele>
        <time>1970-01-01T03:09:33.000Z</time>
      </trkpt>
      <trkpt lat="45.42001" lon="4.62016">
        <ele>990.5</ele>
        <time>1970-01-01T03:09:35.000Z</time>
      </trkpt>
      <trkpt lat="45.41997" lon="4.62017">
        <ele>990.8</ele>
        <time>1970-01-01T03:09:37.000Z</time>
      </trkpt>
      <trkpt lat="45.41994" lon="4.6202">
        <ele>991.1</ele>
        <time>1970-01-01T03:09:38.000Z</time>
      </trkpt>
      <trkpt lat="45.41988" lon="4.62023">
        <ele>991.4</ele>
        <time>1970-01-01T03:09:40.000Z</time>
      </trkpt>
      <trkpt lat="45.41984" lon="4.62025">
        <ele>991.7</ele>
        <time>1970-01-01T03:09:42.000Z</time>
      </trkpt>
      <trkpt lat="45.4198" lon="4.62027">
        <ele>992</ele>
        <time>1970-01-01T03:09:44.000Z</time>
      </trkpt>
      <trkpt lat="45.41977" lon="4.6203">
        <ele>992.3</ele>
        <time>1970-01-01T03:09:46.000Z</time>
      </trkpt>
      <trkpt lat="45.41974" lon="4.62031">
        <ele>992.6</ele>
        <time>1970-01-01T03:09:48.000Z</time>
      </trkpt>
      <trkpt lat="45.41969" lon="4.62033">
        <ele>993</ele>
        <time>1970-01-01T03:09:50.000Z</time>
      </trkpt>
      <trkpt lat="45.41964" lon="4.62035">
        <ele>993.5</ele>
        <time>1970-01-01T03:09:52.000Z</time>
      </trkpt>
      <trkpt lat="45.4196" lon="4.62037">
        <ele>993.9</ele>
        <time>1970-01-01T03:09:54.000Z</time>
      </trkpt>
      <trkpt lat="45.41956" lon="4.62037">
        <ele>994.2</ele>
        <time>1970-01-01T03:09:56.000Z</time>
      </trkpt>
      <trkpt lat="45.41951" lon="4.62039">
        <ele>994.7</ele>
        <time>1970-01-01T03:09:58.000Z</time>
      </trkpt>
      <trkpt lat="45.41948" lon="4.62039">
        <ele>995</ele>
        <time>1970-01-01T03:10:00.000Z</time>
      </trkpt>
      <trkpt lat="45.41943" lon="4.62039">
        <ele>995.4</ele>
        <time>1970-01-01T03:10:02.000Z</time>
      </trkpt>
      <trkpt lat="45.41939" lon="4.62042">
        <ele>995.8</ele>
        <time>1970-01-01T03:10:04.000Z</time>
      </trkpt>
      <trkpt lat="45.41936" lon="4.62043">
        <ele>996.1</ele>
        <time>1970-01-01T03:10:05.000Z</time>
      </trkpt>
      <trkpt lat="45.41933" lon="4.62043">
        <ele>996.4</ele>
        <time>1970-01-01T03:10:06.000Z</time>
      </trkpt>
      <trkpt lat="45.4193" lon="4.62043">
        <ele>996.8</ele>
        <time>1970-01-01T03:10:07.000Z</time>
      </trkpt>
      <trkpt lat="45.41926" lon="4.62043">
        <ele>997.3</ele>
        <time>1970-01-01T03:10:09.000Z</time>
      </trkpt>
      <trkpt lat="45.41923" lon="4.62043">
        <ele>997.7</ele>
        <time>1970-01-01T03:10:11.000Z</time>
      </trkpt>
      <trkpt lat="45.4192" lon="4.62042">
        <ele>998</ele>
        <time>1970-01-01T03:10:12.000Z</time>
      </trkpt>
      <trkpt lat="45.41916" lon="4.62041">
        <ele>998.5</ele>
        <time>1970-01-01T03:10:14.000Z</time>
      </trkpt>
      <trkpt lat="45.41912" lon="4.62041">
        <ele>998.8</ele>
        <time>1970-01-01T03:10:17.000Z</time>
      </trkpt>
      <trkpt lat="45.41909" lon="4.62041">
        <ele>999</ele>
        <time>1970-01-01T03:10:18.000Z</time>
      </trkpt>
      <trkpt lat="45.41906" lon="4.62042">
        <ele>999.2</ele>
        <time>1970-01-01T03:10:19.000Z</time>
      </trkpt>
      <trkpt lat="45.41903" lon="4.62042">
        <ele>999.4</ele>
        <time>1970-01-01T03:10:20.000Z</time>
      </trkpt>
      <trkpt lat="45.419" lon="4.62042">
        <ele>999.6</ele>
        <time>1970-01-01T03:10:21.000Z</time>
      </trkpt>
      <trkpt lat="45.41896" lon="4.62043">
        <ele>999.8</ele>
        <time>1970-01-01T03:10:22.000Z</time>
      </trkpt>
      <trkpt lat="45.41893" lon="4.62043">
        <ele>1000.1</ele>
        <time>1970-01-01T03:10:24.000Z</time>
      </trkpt>
      <trkpt lat="45.41889" lon="4.62043">
        <ele>1000.4</ele>
        <time>1970-01-01T03:10:26.000Z</time>
      </trkpt>
      <trkpt lat="45.41886" lon="4.62041">
        <ele>1000.6</ele>
        <time>1970-01-01T03:10:27.000Z</time>
      </trkpt>
      <trkpt lat="45.41884" lon="4.6204">
        <ele>1000.7</ele>
        <time>1970-01-01T03:10:28.000Z</time>
      </trkpt>
      <trkpt lat="45.4188" lon="4.62039">
        <ele>1001</ele>
        <time>1970-01-01T03:10:30.000Z</time>
      </trkpt>
      <trkpt lat="45.41876" lon="4.6204">
        <ele>1001.3</ele>
        <time>1970-01-01T03:10:32.000Z</time>
      </trkpt>
      <trkpt lat="45.41872" lon="4.62036">
        <ele>1001.6</ele>
        <time>1970-01-01T03:10:34.000Z</time>
      </trkpt>
      <trkpt lat="45.41869" lon="4.62035">
        <ele>1002</ele>
        <time>1970-01-01T03:10:36.000Z</time>
      </trkpt>
      <trkpt lat="45.41864" lon="4.62033">
        <ele>1002.6</ele>
        <time>1970-01-01T03:10:38.000Z</time>
      </trkpt>
      <trkpt lat="45.41861" lon="4.62033">
        <ele>1002.9</ele>
        <time>1970-01-01T03:10:39.000Z</time>
      </trkpt>
      <trkpt lat="45.41856" lon="4.62034">
        <ele>1003.4</ele>
        <time>1970-01-01T03:10:41.000Z</time>
      </trkpt>
      <trkpt lat="45.41853" lon="4.62033">
        <ele>1003.6</ele>
        <time>1970-01-01T03:10:42.000Z</time>
      </trkpt>
      <trkpt lat="45.4185" lon="4.62033">
        <ele>1003.8</ele>
        <time>1970-01-01T03:10:43.000Z</time>
      </trkpt>
      <trkpt lat="45.41846" lon="4.62033">
        <ele>1004.1</ele>
        <time>1970-01-01T03:10:45.000Z</time>
      </trkpt>
      <trkpt lat="45.41844" lon="4.62029">
        <ele>1004.4</ele>
        <time>1970-01-01T03:10:46.000Z</time>
      </trkpt>
      <trkpt lat="45.4184" lon="4.62029">
        <ele>1004.7</ele>
        <time>1970-01-01T03:10:48.000Z</time>
      </trkpt>
      <trkpt lat="45.41835" lon="4.62029">
        <ele>1005.1</ele>
        <time>1970-01-01T03:10:50.000Z</time>
      </trkpt>
      <trkpt lat="45.41832" lon="4.62029">
        <ele>1005.3</ele>
        <time>1970-01-01T03:10:51.000Z</time>
      </trkpt>
      <trkpt lat="45.41828" lon="4.62029">
        <ele>1005.6</ele>
        <time>1970-01-01T03:10:52.000Z</time>
      </trkpt>
      <trkpt lat="45.41825" lon="4.62029">
        <ele>1005.8</ele>
        <time>1970-01-01T03:10:53.000Z</time>
      </trkpt>
      <trkpt lat="45.41822" lon="4.62027">
        <ele>1006</ele>
        <time>1970-01-01T03:10:54.000Z</time>
      </trkpt>
      <trkpt lat="45.41819" lon="4.62026">
        <ele>1006.2</ele>
        <time>1970-01-01T03:10:55.000Z</time>
      </trkpt>
      <trkpt lat="45.41815" lon="4.62025">
        <ele>1006.6</ele>
        <time>1970-01-01T03:10:57.000Z</time>
      </trkpt>
      <trkpt lat="45.41809" lon="4.62024">
        <ele>1006.9</ele>
        <time>1970-01-01T03:10:59.000Z</time>
      </trkpt>
      <trkpt lat="45.41807" lon="4.62023">
        <ele>1007.1</ele>
        <time>1970-01-01T03:11:00.000Z</time>
      </trkpt>
      <trkpt lat="45.41804" lon="4.62022">
        <ele>1007.3</ele>
        <time>1970-01-01T03:11:01.000Z</time>
      </trkpt>
      <trkpt lat="45.418" lon="4.62021">
        <ele>1007.6</ele>
        <time>1970-01-01T03:11:04.000Z</time>
      </trkpt>
      <trkpt lat="45.41795" lon="4.62019">
        <ele>1008</ele>
        <time>1970-01-01T03:11:06.000Z</time>
      </trkpt>
      <trkpt lat="45.4179" lon="4.62018">
        <ele>1008.3</ele>
        <time>1970-01-01T03:11:08.000Z</time>
      </trkpt>
      <trkpt lat="45.41787" lon="4.62018">
        <ele>1008.6</ele>
        <time>1970-01-01T03:11:10.000Z</time>
      </trkpt>
      <trkpt lat="45.41783" lon="4.62017">
        <ele>1008.8</ele>
        <time>1970-01-01T03:11:12.000Z</time>
      </trkpt>
      <trkpt lat="45.41778" lon="4.62016">
        <ele>1009.3</ele>
        <time>1970-01-01T03:11:14.000Z</time>
      </trkpt>
      <trkpt lat="45.41774" lon="4.62016">
        <ele>1009.7</ele>
        <time>1970-01-01T03:11:16.000Z</time>
      </trkpt>
      <trkpt lat="45.41771" lon="4.62016">
        <ele>1009.9</ele>
        <time>1970-01-01T03:11:18.000Z</time>
      </trkpt>
      <trkpt lat="45.41767" lon="4.62014">
        <ele>1010.3</ele>
        <time>1970-01-01T03:11:21.000Z</time>
      </trkpt>
      <trkpt lat="45.41763" lon="4.62013">
        <ele>1010.7</ele>
        <time>1970-01-01T03:11:23.000Z</time>
      </trkpt>
      <trkpt lat="45.41757" lon="4.62012">
        <ele>1011.2</ele>
        <time>1970-01-01T03:11:25.000Z</time>
      </trkpt>
      <trkpt lat="45.41755" lon="4.62012">
        <ele>1011.5</ele>
        <time>1970-01-01T03:11:26.000Z</time>
      </trkpt>
      <trkpt lat="45.41752" lon="4.62012">
        <ele>1011.7</ele>
        <time>1970-01-01T03:11:27.000Z</time>
      </trkpt>
      <trkpt lat="45.41748" lon="4.62013">
        <ele>1012</ele>
        <time>1970-01-01T03:11:28.000Z</time>
      </trkpt>
      <trkpt lat="45.41743" lon="4.62014">
        <ele>1012.4</ele>
        <time>1970-01-01T03:11:30.000Z</time>
      </trkpt>
      <trkpt lat="45.41739" lon="4.62013">
        <ele>1012.7</ele>
        <time>1970-01-01T03:11:32.000Z</time>
      </trkpt>
      <trkpt lat="45.41736" lon="4.62015">
        <ele>1012.9</ele>
        <time>1970-01-01T03:11:34.000Z</time>
      </trkpt>
      <trkpt lat="45.41733" lon="4.62016">
        <ele>1013.1</ele>
        <time>1970-01-01T03:11:35.000Z</time>
      </trkpt>
      <trkpt lat="45.41729" lon="4.62016">
        <ele>1013.4</ele>
        <time>1970-01-01T03:11:37.000Z</time>
      </trkpt>
      <trkpt lat="45.41726" lon="4.62017">
        <ele>1013.6</ele>
        <time>1970-01-01T03:11:38.000Z</time>
      </trkpt>
      <trkpt lat="45.41723" lon="4.62019">
        <ele>1013.9</ele>
        <time>1970-01-01T03:11:39.000Z</time>
      </trkpt>
      <trkpt lat="45.41719" lon="4.62019">
        <ele>1014.1</ele>
        <time>1970-01-01T03:11:41.000Z</time>
      </trkpt>
      <trkpt lat="45.41715" lon="4.62019">
        <ele>1014.5</ele>
        <time>1970-01-01T03:11:44.000Z</time>
      </trkpt>
      <trkpt lat="45.41711" lon="4.62017">
        <ele>1014.7</ele>
        <time>1970-01-01T03:11:46.000Z</time>
      </trkpt>
      <trkpt lat="45.41706" lon="4.62016">
        <ele>1015.1</ele>
        <time>1970-01-01T03:11:48.000Z</time>
      </trkpt>
      <trkpt lat="45.41704" lon="4.62017">
        <ele>1015.3</ele>
        <time>1970-01-01T03:11:49.000Z</time>
      </trkpt>
      <trkpt lat="45.417" lon="4.62017">
        <ele>1015.5</ele>
        <time>1970-01-01T03:11:50.000Z</time>
      </trkpt>
      <trkpt lat="45.41698" lon="4.62016">
        <ele>1015.7</ele>
        <time>1970-01-01T03:11:51.000Z</time>
      </trkpt>
      <trkpt lat="45.41695" lon="4.62015">
        <ele>1015.9</ele>
        <time>1970-01-01T03:11:52.000Z</time>
      </trkpt>
      <trkpt lat="45.4169" lon="4.62016">
        <ele>1016.4</ele>
        <time>1970-01-01T03:11:54.000Z</time>
      </trkpt>
      <trkpt lat="45.41688" lon="4.62017">
        <ele>1016.9</ele>
        <time>1970-01-01T03:11:55.000Z</time>
      </trkpt>
      <trkpt lat="45.41684" lon="4.62018">
        <ele>1017.4</ele>
        <time>1970-01-01T03:11:56.000Z</time>
      </trkpt>
      <trkpt lat="45.41681" lon="4.62018">
        <ele>1017.9</ele>
        <time>1970-01-01T03:11:57.000Z</time>
      </trkpt>
      <trkpt lat="45.41676" lon="4.62019">
        <ele>1018.3</ele>
        <time>1970-01-01T03:11:59.000Z</time>
      </trkpt>
      <trkpt lat="45.41673" lon="4.62019">
        <ele>1018.5</ele>
        <time>1970-01-01T03:12:01.000Z</time>
      </trkpt>
      <trkpt lat="45.41668" lon="4.62019">
        <ele>1018.9</ele>
        <time>1970-01-01T03:12:03.000Z</time>
      </trkpt>
      <trkpt lat="45.41664" lon="4.62022">
        <ele>1019.2</ele>
        <time>1970-01-01T03:12:05.000Z</time>
      </trkpt>
      <trkpt lat="45.4166" lon="4.62022">
        <ele>1019.5</ele>
        <time>1970-01-01T03:12:07.000Z</time>
      </trkpt>
      <trkpt lat="45.41656" lon="4.62022">
        <ele>1019.8</ele>
        <time>1970-01-01T03:12:11.000Z</time>
      </trkpt>
      <trkpt lat="45.41653" lon="4.62022">
        <ele>1020.1</ele>
        <time>1970-01-01T03:12:13.000Z</time>
      </trkpt>
      <trkpt lat="45.41649" lon="4.62024">
        <ele>1020.4</ele>
        <time>1970-01-01T03:12:15.000Z</time>
      </trkpt>
      <trkpt lat="45.41646" lon="4.62024">
        <ele>1020.6</ele>
        <time>1970-01-01T03:12:18.000Z</time>
      </trkpt>
      <trkpt lat="45.41642" lon="4.62025">
        <ele>1020.9</ele>
        <time>1970-01-01T03:12:20.000Z</time>
      </trkpt>
      <trkpt lat="45.41638" lon="4.62027">
        <ele>1021.2</ele>
        <time>1970-01-01T03:12:22.000Z</time>
      </trkpt>
      <trkpt lat="45.41635" lon="4.62029">
        <ele>1021.6</ele>
        <time>1970-01-01T03:12:23.000Z</time>
      </trkpt>
      <trkpt lat="45.4163" lon="4.62034">
        <ele>1022.3</ele>
        <time>1970-01-01T03:12:25.000Z</time>
      </trkpt>
      <trkpt lat="45.41628" lon="4.62038">
        <ele>1022.8</ele>
        <time>1970-01-01T03:12:26.000Z</time>
      </trkpt>
      <trkpt lat="45.41625" lon="4.6204">
        <ele>1023.1</ele>
        <time>1970-01-01T03:12:27.000Z</time>
      </trkpt>
      <trkpt lat="45.41622" lon="4.62042">
        <ele>1023.6</ele>
        <time>1970-01-01T03:12:29.000Z</time>
      </trkpt>
      <trkpt lat="45.41618" lon="4.62044">
        <ele>1024.2</ele>
        <time>1970-01-01T03:12:31.000Z</time>
      </trkpt>
      <trkpt lat="45.41614" lon="4.62046">
        <ele>1024.8</ele>
        <time>1970-01-01T03:12:33.000Z</time>
      </trkpt>
      <trkpt lat="45.41611" lon="4.62047">
        <ele>1025.2</ele>
        <time>1970-01-01T03:12:34.000Z</time>
      </trkpt>
      <trkpt lat="45.41607" lon="4.6205">
        <ele>1025.5</ele>
        <time>1970-01-01T03:12:36.000Z</time>
      </trkpt>
      <trkpt lat="45.41605" lon="4.62053">
        <ele>1025.7</ele>
        <time>1970-01-01T03:12:37.000Z</time>
      </trkpt>
      <trkpt lat="45.41602" lon="4.62056">
        <ele>1026</ele>
        <time>1970-01-01T03:12:38.000Z</time>
      </trkpt>
      <trkpt lat="45.41599" lon="4.62059">
        <ele>1026.3</ele>
        <time>1970-01-01T03:12:40.000Z</time>
      </trkpt>
      <trkpt lat="45.41594" lon="4.62061">
        <ele>1026.6</ele>
        <time>1970-01-01T03:12:42.000Z</time>
      </trkpt>
      <trkpt lat="45.4159" lon="4.62063">
        <ele>1027</ele>
        <time>1970-01-01T03:12:44.000Z</time>
      </trkpt>
      <trkpt lat="45.41585" lon="4.62066">
        <ele>1027.4</ele>
        <time>1970-01-01T03:12:46.000Z</time>
      </trkpt>
      <trkpt lat="45.41582" lon="4.62067">
        <ele>1027.6</ele>
        <time>1970-01-01T03:12:47.000Z</time>
      </trkpt>
      <trkpt lat="45.41577" lon="4.62068">
        <ele>1027.9</ele>
        <time>1970-01-01T03:12:48.000Z</time>
      </trkpt>
      <trkpt lat="45.41573" lon="4.62072">
        <ele>1028.3</ele>
        <time>1970-01-01T03:12:50.000Z</time>
      </trkpt>
      <trkpt lat="45.41571" lon="4.62075">
        <ele>1028.5</ele>
        <time>1970-01-01T03:12:51.000Z</time>
      </trkpt>
      <trkpt lat="45.41568" lon="4.62078">
        <ele>1028.7</ele>
        <time>1970-01-01T03:12:53.000Z</time>
      </trkpt>
      <trkpt lat="45.41565" lon="4.62081">
        <ele>1029</ele>
        <time>1970-01-01T03:12:54.000Z</time>
      </trkpt>
      <trkpt lat="45.41562" lon="4.62083">
        <ele>1029.3</ele>
        <time>1970-01-01T03:12:55.000Z</time>
      </trkpt>
      <trkpt lat="45.41559" lon="4.62084">
        <ele>1029.4</ele>
        <time>1970-01-01T03:12:56.000Z</time>
      </trkpt>
      <trkpt lat="45.41556" lon="4.62088">
        <ele>1029.7</ele>
        <time>1970-01-01T03:12:58.000Z</time>
      </trkpt>
      <trkpt lat="45.4155" lon="4.62091">
        <ele>1030.1</ele>
        <time>1970-01-01T03:13:00.000Z</time>
      </trkpt>
      <trkpt lat="45.41547" lon="4.62094">
        <ele>1030.3</ele>
        <time>1970-01-01T03:13:01.000Z</time>
      </trkpt>
      <trkpt lat="45.41545" lon="4.62096">
        <ele>1030.5</ele>
        <time>1970-01-01T03:13:03.000Z</time>
      </trkpt>
      <trkpt lat="45.41542" lon="4.621">
        <ele>1030.7</ele>
        <time>1970-01-01T03:13:05.000Z</time>
      </trkpt>
      <trkpt lat="45.41538" lon="4.62102">
        <ele>1031</ele>
        <time>1970-01-01T03:13:06.000Z</time>
      </trkpt>
      <trkpt lat="45.41535" lon="4.62105">
        <ele>1031.2</ele>
        <time>1970-01-01T03:13:07.000Z</time>
      </trkpt>
      <trkpt lat="45.41532" lon="4.6211">
        <ele>1031.5</ele>
        <time>1970-01-01T03:13:09.000Z</time>
      </trkpt>
      <trkpt lat="45.4153" lon="4.62112">
        <ele>1031.7</ele>
        <time>1970-01-01T03:13:10.000Z</time>
      </trkpt>
      <trkpt lat="45.41524" lon="4.62116">
        <ele>1032.1</ele>
        <time>1970-01-01T03:13:12.000Z</time>
      </trkpt>
      <trkpt lat="45.41522" lon="4.62119">
        <ele>1032.3</ele>
        <time>1970-01-01T03:13:13.000Z</time>
      </trkpt>
      <trkpt lat="45.41519" lon="4.62121">
        <ele>1032.5</ele>
        <time>1970-01-01T03:13:14.000Z</time>
      </trkpt>
      <trkpt lat="45.41517" lon="4.62125">
        <ele>1032.7</ele>
        <time>1970-01-01T03:13:15.000Z</time>
      </trkpt>
      <trkpt lat="45.41512" lon="4.62128">
        <ele>1033</ele>
        <time>1970-01-01T03:13:17.000Z</time>
      </trkpt>
      <trkpt lat="45.4151" lon="4.62131">
        <ele>1033.2</ele>
        <time>1970-01-01T03:13:18.000Z</time>
      </trkpt>
      <trkpt lat="45.41504" lon="4.62134">
        <ele>1033.6</ele>
        <time>1970-01-01T03:13:20.000Z</time>
      </trkpt>
      <trkpt lat="45.41501" lon="4.62135">
        <ele>1033.8</ele>
        <time>1970-01-01T03:13:21.000Z</time>
      </trkpt>
      <trkpt lat="45.41496" lon="4.62138">
        <ele>1034.2</ele>
        <time>1970-01-01T03:13:23.000Z</time>
      </trkpt>
      <trkpt lat="45.41494" lon="4.6214">
        <ele>1034.5</ele>
        <time>1970-01-01T03:13:24.000Z</time>
      </trkpt>
      <trkpt lat="45.41491" lon="4.62142">
        <ele>1034.9</ele>
        <time>1970-01-01T03:13:26.000Z</time>
      </trkpt>
      <trkpt lat="45.41486" lon="4.62144">
        <ele>1035.3</ele>
        <time>1970-01-01T03:13:28.000Z</time>
      </trkpt>
      <trkpt lat="45.41484" lon="4.62147">
        <ele>1035.7</ele>
        <time>1970-01-01T03:13:29.000Z</time>
      </trkpt>
      <trkpt lat="45.41481" lon="4.6215">
        <ele>1036</ele>
        <time>1970-01-01T03:13:30.000Z</time>
      </trkpt>
      <trkpt lat="45.41477" lon="4.62152">
        <ele>1036.4</ele>
        <time>1970-01-01T03:13:32.000Z</time>
      </trkpt>
      <trkpt lat="45.41473" lon="4.62155">
        <ele>1036.9</ele>
        <time>1970-01-01T03:13:34.000Z</time>
      </trkpt>
      <trkpt lat="45.4147" lon="4.62156">
        <ele>1037.1</ele>
        <time>1970-01-01T03:13:35.000Z</time>
      </trkpt>
      <trkpt lat="45.41465" lon="4.62159">
        <ele>1037.4</ele>
        <time>1970-01-01T03:13:37.000Z</time>
      </trkpt>
      <trkpt lat="45.41462" lon="4.62162">
        <ele>1037.6</ele>
        <time>1970-01-01T03:13:39.000Z</time>
      </trkpt>
      <trkpt lat="45.41458" lon="4.62165">
        <ele>1037.8</ele>
        <time>1970-01-01T03:13:41.000Z</time>
      </trkpt>
      <trkpt lat="45.41454" lon="4.62168">
        <ele>1038.2</ele>
        <time>1970-01-01T03:13:43.000Z</time>
      </trkpt>
      <trkpt lat="45.41451" lon="4.6217">
        <ele>1038.3</ele>
        <time>1970-01-01T03:13:44.000Z</time>
      </trkpt>
      <trkpt lat="45.41448" lon="4.62172">
        <ele>1038.6</ele>
        <time>1970-01-01T03:13:45.000Z</time>
      </trkpt>
      <trkpt lat="45.41445" lon="4.62174">
        <ele>1038.7</ele>
        <time>1970-01-01T03:13:46.000Z</time>
      </trkpt>
      <trkpt lat="45.41442" lon="4.62177">
        <ele>1039</ele>
        <time>1970-01-01T03:13:48.000Z</time>
      </trkpt>
      <trkpt lat="45.41439" lon="4.62179">
        <ele>1039.2</ele>
        <time>1970-01-01T03:13:49.000Z</time>
      </trkpt>
      <trkpt lat="45.41436" lon="4.62181">
        <ele>1039.4</ele>
        <time>1970-01-01T03:13:50.000Z</time>
      </trkpt>
      <trkpt lat="45.41434" lon="4.62183">
        <ele>1039.5</ele>
        <time>1970-01-01T03:13:51.000Z</time>
      </trkpt>
      <trkpt lat="45.41431" lon="4.62184">
        <ele>1039.7</ele>
        <time>1970-01-01T03:13:52.000Z</time>
      </trkpt>
      <trkpt lat="45.41428" lon="4.62186">
        <ele>1039.9</ele>
        <time>1970-01-01T03:13:53.000Z</time>
      </trkpt>
      <trkpt lat="45.41426" lon="4.6219">
        <ele>1040.1</ele>
        <time>1970-01-01T03:13:54.000Z</time>
      </trkpt>
      <trkpt lat="45.41423" lon="4.62192">
        <ele>1040.3</ele>
        <time>1970-01-01T03:13:55.000Z</time>
      </trkpt>
      <trkpt lat="45.41418" lon="4.62196">
        <ele>1040.6</ele>
        <time>1970-01-01T03:13:57.000Z</time>
      </trkpt>
      <trkpt lat="45.41414" lon="4.62201">
        <ele>1041</ele>
        <time>1970-01-01T03:13:59.000Z</time>
      </trkpt>
      <trkpt lat="45.4141" lon="4.62204">
        <ele>1041.2</ele>
        <time>1970-01-01T03:14:01.000Z</time>
      </trkpt>
      <trkpt lat="45.41407" lon="4.62208">
        <ele>1041.5</ele>
        <time>1970-01-01T03:14:03.000Z</time>
      </trkpt>
      <trkpt lat="45.41403" lon="4.62212">
        <ele>1041.8</ele>
        <time>1970-01-01T03:14:05.000Z</time>
      </trkpt>
      <trkpt lat="45.41401" lon="4.62215">
        <ele>1042</ele>
        <time>1970-01-01T03:14:06.000Z</time>
      </trkpt>
      <trkpt lat="45.41398" lon="4.62218">
        <ele>1042.2</ele>
        <time>1970-01-01T03:14:07.000Z</time>
      </trkpt>
      <trkpt lat="45.41394" lon="4.62222">
        <ele>1042.7</ele>
        <time>1970-01-01T03:14:09.000Z</time>
      </trkpt>
      <trkpt lat="45.41391" lon="4.62225">
        <ele>1042.9</ele>
        <time>1970-01-01T03:14:10.000Z</time>
      </trkpt>
      <trkpt lat="45.41389" lon="4.62229">
        <ele>1043.2</ele>
        <time>1970-01-01T03:14:11.000Z</time>
      </trkpt>
      <trkpt lat="45.41385" lon="4.62233">
        <ele>1043.6</ele>
        <time>1970-01-01T03:14:13.000Z</time>
      </trkpt>
      <trkpt lat="45.41383" lon="4.62237">
        <ele>1043.9</ele>
        <time>1970-01-01T03:14:15.000Z</time>
      </trkpt>
      <trkpt lat="45.41379" lon="4.62241">
        <ele>1044.2</ele>
        <time>1970-01-01T03:14:17.000Z</time>
      </trkpt>
      <trkpt lat="45.41377" lon="4.62243">
        <ele>1044.4</ele>
        <time>1970-01-01T03:14:18.000Z</time>
      </trkpt>
      <trkpt lat="45.41372" lon="4.62247">
        <ele>1044.9</ele>
        <time>1970-01-01T03:14:20.000Z</time>
      </trkpt>
      <trkpt lat="45.41368" lon="4.6225">
        <ele>1045.3</ele>
        <time>1970-01-01T03:14:22.000Z</time>
      </trkpt>
      <trkpt lat="45.41363" lon="4.62254">
        <ele>1045.7</ele>
        <time>1970-01-01T03:14:24.000Z</time>
      </trkpt>
      <trkpt lat="45.4136" lon="4.62258">
        <ele>1046.1</ele>
        <time>1970-01-01T03:14:25.000Z</time>
      </trkpt>
      <trkpt lat="45.41358" lon="4.62261">
        <ele>1046.3</ele>
        <time>1970-01-01T03:14:26.000Z</time>
      </trkpt>
      <trkpt lat="45.41354" lon="4.62267">
        <ele>1046.7</ele>
        <time>1970-01-01T03:14:28.000Z</time>
      </trkpt>
      <trkpt lat="45.41352" lon="4.62273">
        <ele>1047</ele>
        <time>1970-01-01T03:14:30.000Z</time>
      </trkpt>
      <trkpt lat="45.41349" lon="4.62275">
        <ele>1047.2</ele>
        <time>1970-01-01T03:14:32.000Z</time>
      </trkpt>
      <trkpt lat="45.41346" lon="4.6228">
        <ele>1047.5</ele>
        <time>1970-01-01T03:14:34.000Z</time>
      </trkpt>
      <trkpt lat="45.41341" lon="4.62285">
        <ele>1047.9</ele>
        <time>1970-01-01T03:14:36.000Z</time>
      </trkpt>
      <trkpt lat="45.41338" lon="4.6229">
        <ele>1048.2</ele>
        <time>1970-01-01T03:14:38.000Z</time>
      </trkpt>
      <trkpt lat="45.41335" lon="4.62294">
        <ele>1048.5</ele>
        <time>1970-01-01T03:14:40.000Z</time>
      </trkpt>
      <trkpt lat="45.41332" lon="4.62298">
        <ele>1048.8</ele>
        <time>1970-01-01T03:14:42.000Z</time>
      </trkpt>
      <trkpt lat="45.41327" lon="4.62307">
        <ele>1049.4</ele>
        <time>1970-01-01T03:14:44.000Z</time>
      </trkpt>
      <trkpt lat="45.41324" lon="4.6231">
        <ele>1049.6</ele>
        <time>1970-01-01T03:14:45.000Z</time>
      </trkpt>
      <trkpt lat="45.41321" lon="4.62315">
        <ele>1049.9</ele>
        <time>1970-01-01T03:14:46.000Z</time>
      </trkpt>
      <trkpt lat="45.41319" lon="4.62318">
        <ele>1050.1</ele>
        <time>1970-01-01T03:14:47.000Z</time>
      </trkpt>
      <trkpt lat="45.41317" lon="4.62321">
        <ele>1050.3</ele>
        <time>1970-01-01T03:14:48.000Z</time>
      </trkpt>
      <trkpt lat="45.41315" lon="4.62324">
        <ele>1050.5</ele>
        <time>1970-01-01T03:14:49.000Z</time>
      </trkpt>
      <trkpt lat="45.41311" lon="4.62328">
        <ele>1050.9</ele>
        <time>1970-01-01T03:14:51.000Z</time>
      </trkpt>
      <trkpt lat="45.41308" lon="4.62334">
        <ele>1051.3</ele>
        <time>1970-01-01T03:14:53.000Z</time>
      </trkpt>
      <trkpt lat="45.41305" lon="4.6234">
        <ele>1052.1</ele>
        <time>1970-01-01T03:14:55.000Z</time>
      </trkpt>
      <trkpt lat="45.41302" lon="4.62344">
        <ele>1052.8</ele>
        <time>1970-01-01T03:14:57.000Z</time>
      </trkpt>
      <trkpt lat="45.41298" lon="4.62348">
        <ele>1053.2</ele>
        <time>1970-01-01T03:14:59.000Z</time>
      </trkpt>
      <trkpt lat="45.41294" lon="4.62351">
        <ele>1053.6</ele>
        <time>1970-01-01T03:15:01.000Z</time>
      </trkpt>
      <trkpt lat="45.4129" lon="4.62353">
        <ele>1053.9</ele>
        <time>1970-01-01T03:15:03.000Z</time>
      </trkpt>
      <trkpt lat="45.41286" lon="4.62355">
        <ele>1054.3</ele>
        <time>1970-01-01T03:15:05.000Z</time>
      </trkpt>
      <trkpt lat="45.41283" lon="4.62356">
        <ele>1054.5</ele>
        <time>1970-01-01T03:15:06.000Z</time>
      </trkpt>
      <trkpt lat="45.41279" lon="4.62355">
        <ele>1055.9</ele>
        <time>1970-01-01T03:15:08.000Z</time>
      </trkpt>
      <trkpt lat="45.41276" lon="4.62353">
        <ele>1056.5</ele>
        <time>1970-01-01T03:15:09.000Z</time>
      </trkpt>
      <trkpt lat="45.41272" lon="4.62351">
        <ele>1057.3</ele>
        <time>1970-01-01T03:15:11.000Z</time>
      </trkpt>
      <trkpt lat="45.41269" lon="4.62346">
        <ele>1058.2</ele>
        <time>1970-01-01T03:15:13.000Z</time>
      </trkpt>
      <trkpt lat="45.41265" lon="4.62342">
        <ele>1059.1</ele>
        <time>1970-01-01T03:15:15.000Z</time>
      </trkpt>
      <trkpt lat="45.41262" lon="4.62338">
        <ele>1060</ele>
        <time>1970-01-01T03:15:17.000Z</time>
      </trkpt>
      <trkpt lat="45.41259" lon="4.62334">
        <ele>1061</ele>
        <time>1970-01-01T03:15:19.000Z</time>
      </trkpt>
      <trkpt lat="45.41256" lon="4.6233">
        <ele>1062</ele>
        <time>1970-01-01T03:15:21.000Z</time>
      </trkpt>
      <trkpt lat="45.41253" lon="4.62324">
        <ele>1063.1</ele>
        <time>1970-01-01T03:15:23.000Z</time>
      </trkpt>
      <trkpt lat="45.4125" lon="4.6232">
        <ele>1064.1</ele>
        <time>1970-01-01T03:15:25.000Z</time>
      </trkpt>
      <trkpt lat="45.41248" lon="4.62316">
        <ele>1064.8</ele>
        <time>1970-01-01T03:15:27.000Z</time>
      </trkpt>
      <trkpt lat="45.41245" lon="4.62312">
        <ele>1065.7</ele>
        <time>1970-01-01T03:15:29.000Z</time>
      </trkpt>
      <trkpt lat="45.41241" lon="4.62308">
        <ele>1066.2</ele>
        <time>1970-01-01T03:15:31.000Z</time>
      </trkpt>
      <trkpt lat="45.41238" lon="4.62304">
        <ele>1066.6</ele>
        <time>1970-01-01T03:15:33.000Z</time>
      </trkpt>
      <trkpt lat="45.41235" lon="4.62299">
        <ele>1067.1</ele>
        <time>1970-01-01T03:15:35.000Z</time>
      </trkpt>
      <trkpt lat="45.41232" lon="4.62294">
        <ele>1067.5</ele>
        <time>1970-01-01T03:15:37.000Z</time>
      </trkpt>
      <trkpt lat="45.41229" lon="4.62288">
        <ele>1068</ele>
        <time>1970-01-01T03:15:39.000Z</time>
      </trkpt>
      <trkpt lat="45.41226" lon="4.62284">
        <ele>1068.5</ele>
        <time>1970-01-01T03:15:41.000Z</time>
      </trkpt>
      <trkpt lat="45.41223" lon="4.6228">
        <ele>1068.9</ele>
        <time>1970-01-01T03:15:43.000Z</time>
      </trkpt>
      <trkpt lat="45.4122" lon="4.62277">
        <ele>1069.3</ele>
        <time>1970-01-01T03:15:45.000Z</time>
      </trkpt>
      <trkpt lat="45.41217" lon="4.62273">
        <ele>1069.7</ele>
        <time>1970-01-01T03:15:47.000Z</time>
      </trkpt>
      <trkpt lat="45.41215" lon="4.62268">
        <ele>1070</ele>
        <time>1970-01-01T03:15:49.000Z</time>
      </trkpt>
      <trkpt lat="45.41213" lon="4.62264">
        <ele>1070.4</ele>
        <time>1970-01-01T03:15:51.000Z</time>
      </trkpt>
      <trkpt lat="45.41211" lon="4.62258">
        <ele>1070.8</ele>
        <time>1970-01-01T03:15:53.000Z</time>
      </trkpt>
      <trkpt lat="45.41208" lon="4.62254">
        <ele>1071.3</ele>
        <time>1970-01-01T03:15:55.000Z</time>
      </trkpt>
      <trkpt lat="45.41206" lon="4.62249">
        <ele>1071.7</ele>
        <time>1970-01-01T03:15:57.000Z</time>
      </trkpt>
      <trkpt lat="45.41203" lon="4.62246">
        <ele>1072</ele>
        <time>1970-01-01T03:15:59.000Z</time>
      </trkpt>
      <trkpt lat="45.412" lon="4.62242">
        <ele>1072.3</ele>
        <time>1970-01-01T03:16:01.000Z</time>
      </trkpt>
      <trkpt lat="45.41197" lon="4.62238">
        <ele>1072.7</ele>
        <time>1970-01-01T03:16:03.000Z</time>
      </trkpt>
      <trkpt lat="45.41195" lon="4.62233">
        <ele>1073</ele>
        <time>1970-01-01T03:16:05.000Z</time>
      </trkpt>
      <trkpt lat="45.41193" lon="4.62229">
        <ele>1073.3</ele>
        <time>1970-01-01T03:16:07.000Z</time>
      </trkpt>
      <trkpt lat="45.4119" lon="4.62226">
        <ele>1073.6</ele>
        <time>1970-01-01T03:16:09.000Z</time>
      </trkpt>
      <trkpt lat="45.41187" lon="4.62222">
        <ele>1073.9</ele>
        <time>1970-01-01T03:16:11.000Z</time>
      </trkpt>
      <trkpt lat="45.41185" lon="4.62217">
        <ele>1074.3</ele>
        <time>1970-01-01T03:16:13.000Z</time>
      </trkpt>
      <trkpt lat="45.41182" lon="4.62215">
        <ele>1074.6</ele>
        <time>1970-01-01T03:16:15.000Z</time>
      </trkpt>
      <trkpt lat="45.4118" lon="4.6221">
        <ele>1074.9</ele>
        <time>1970-01-01T03:16:17.000Z</time>
      </trkpt>
      <trkpt lat="45.41177" lon="4.62207">
        <ele>1075.2</ele>
        <time>1970-01-01T03:16:19.000Z</time>
      </trkpt>
      <trkpt lat="45.41175" lon="4.62204">
        <ele>1075.5</ele>
        <time>1970-01-01T03:16:21.000Z</time>
      </trkpt>
      <trkpt lat="45.41172" lon="4.62199">
        <ele>1075.8</ele>
        <time>1970-01-01T03:16:24.000Z</time>
      </trkpt>
      <trkpt lat="45.41169" lon="4.62196">
        <ele>1076.2</ele>
        <time>1970-01-01T03:16:26.000Z</time>
      </trkpt>
      <trkpt lat="45.41166" lon="4.62191">
        <ele>1076.5</ele>
        <time>1970-01-01T03:16:28.000Z</time>
      </trkpt>
      <trkpt lat="45.41164" lon="4.62187">
        <ele>1076.8</ele>
        <time>1970-01-01T03:16:30.000Z</time>
      </trkpt>
      <trkpt lat="45.41162" lon="4.62182">
        <ele>1077.2</ele>
        <time>1970-01-01T03:16:33.000Z</time>
      </trkpt>
      <trkpt lat="45.4116" lon="4.62178">
        <ele>1077.5</ele>
        <time>1970-01-01T03:16:35.000Z</time>
      </trkpt>
      <trkpt lat="45.41157" lon="4.62177">
        <ele>1077.7</ele>
        <time>1970-01-01T03:16:37.000Z</time>
      </trkpt>
      <trkpt lat="45.41155" lon="4.62173">
        <ele>1078</ele>
        <time>1970-01-01T03:16:39.000Z</time>
      </trkpt>
      <trkpt lat="45.41153" lon="4.62169">
        <ele>1078.3</ele>
        <time>1970-01-01T03:16:41.000Z</time>
      </trkpt>
      <trkpt lat="45.41151" lon="4.62166">
        <ele>1078.5</ele>
        <time>1970-01-01T03:16:43.000Z</time>
      </trkpt>
      <trkpt lat="45.41148" lon="4.6216">
        <ele>1078.9</ele>
        <time>1970-01-01T03:16:45.000Z</time>
      </trkpt>
      <trkpt lat="45.41145" lon="4.62156">
        <ele>1079.3</ele>
        <time>1970-01-01T03:16:47.000Z</time>
      </trkpt>
      <trkpt lat="45.41142" lon="4.62152">
        <ele>1080.1</ele>
        <time>1970-01-01T03:16:49.000Z</time>
      </trkpt>
      <trkpt lat="45.41139" lon="4.62149">
        <ele>1080.7</ele>
        <time>1970-01-01T03:16:51.000Z</time>
      </trkpt>
      <trkpt lat="45.41135" lon="4.62146">
        <ele>1081.5</ele>
        <time>1970-01-01T03:16:53.000Z</time>
      </trkpt>
      <trkpt lat="45.41131" lon="4.62143">
        <ele>1082.3</ele>
        <time>1970-01-01T03:16:55.000Z</time>
      </trkpt>
      <trkpt lat="45.41128" lon="4.62139">
        <ele>1082.9</ele>
        <time>1970-01-01T03:16:57.000Z</time>
      </trkpt>
      <trkpt lat="45.41125" lon="4.62137">
        <ele>1083.5</ele>
        <time>1970-01-01T03:16:59.000Z</time>
      </trkpt>
      <trkpt lat="45.41123" lon="4.62134">
        <ele>1084</ele>
        <time>1970-01-01T03:17:01.000Z</time>
      </trkpt>
      <trkpt lat="45.41119" lon="4.6213">
        <ele>1084.8</ele>
        <time>1970-01-01T03:17:04.000Z</time>
      </trkpt>
      <trkpt lat="45.41112" lon="4.62127">
        <ele>1085.9</ele>
        <time>1970-01-01T03:17:07.000Z</time>
      </trkpt>
      <trkpt lat="45.41108" lon="4.62126">
        <ele>1086.5</ele>
        <time>1970-01-01T03:17:09.000Z</time>
      </trkpt>
      <trkpt lat="45.41105" lon="4.62121">
        <ele>1087.1</ele>
        <time>1970-01-01T03:17:11.000Z</time>
      </trkpt>
      <trkpt lat="45.41102" lon="4.62118">
        <ele>1087.6</ele>
        <time>1970-01-01T03:17:13.000Z</time>
      </trkpt>
      <trkpt lat="45.41099" lon="4.62116">
        <ele>1088</ele>
        <time>1970-01-01T03:17:15.000Z</time>
      </trkpt>
      <trkpt lat="45.41096" lon="4.62114">
        <ele>1088.4</ele>
        <time>1970-01-01T03:17:17.000Z</time>
      </trkpt>
      <trkpt lat="45.41094" lon="4.62111">
        <ele>1088.7</ele>
        <time>1970-01-01T03:17:18.000Z</time>
      </trkpt>
      <trkpt lat="45.41091" lon="4.62109">
        <ele>1089.1</ele>
        <time>1970-01-01T03:17:20.000Z</time>
      </trkpt>
      <trkpt lat="45.41088" lon="4.62107">
        <ele>1089.5</ele>
        <time>1970-01-01T03:17:22.000Z</time>
      </trkpt>
      <trkpt lat="45.41085" lon="4.62104">
        <ele>1089.9</ele>
        <time>1970-01-01T03:17:24.000Z</time>
      </trkpt>
      <trkpt lat="45.41082" lon="4.62101">
        <ele>1090.4</ele>
        <time>1970-01-01T03:17:26.000Z</time>
      </trkpt>
      <trkpt lat="45.4108" lon="4.62097">
        <ele>1090.8</ele>
        <time>1970-01-01T03:17:28.000Z</time>
      </trkpt>
      <trkpt lat="45.41076" lon="4.62095">
        <ele>1091.2</ele>
        <time>1970-01-01T03:17:30.000Z</time>
      </trkpt>
      <trkpt lat="45.41074" lon="4.62091">
        <ele>1091.5</ele>
        <time>1970-01-01T03:17:32.000Z</time>
      </trkpt>
      <trkpt lat="45.41072" lon="4.62089">
        <ele>1091.8</ele>
        <time>1970-01-01T03:17:33.000Z</time>
      </trkpt>
      <trkpt lat="45.41068" lon="4.62086">
        <ele>1092.1</ele>
        <time>1970-01-01T03:17:35.000Z</time>
      </trkpt>
      <trkpt lat="45.41065" lon="4.62084">
        <ele>1092.3</ele>
        <time>1970-01-01T03:17:37.000Z</time>
      </trkpt>
      <trkpt lat="45.41062" lon="4.62079">
        <ele>1092.8</ele>
        <time>1970-01-01T03:17:39.000Z</time>
      </trkpt>
      <trkpt lat="45.41057" lon="4.62075">
        <ele>1093.2</ele>
        <time>1970-01-01T03:17:41.000Z</time>
      </trkpt>
      <trkpt lat="45.41054" lon="4.62072">
        <ele>1093.5</ele>
        <time>1970-01-01T03:17:43.000Z</time>
      </trkpt>
      <trkpt lat="45.41051" lon="4.62069">
        <ele>1093.9</ele>
        <time>1970-01-01T03:17:45.000Z</time>
      </trkpt>
      <trkpt lat="45.41048" lon="4.62066">
        <ele>1094.1</ele>
        <time>1970-01-01T03:17:47.000Z</time>
      </trkpt>
      <trkpt lat="45.41046" lon="4.62062">
        <ele>1094.4</ele>
        <time>1970-01-01T03:17:49.000Z</time>
      </trkpt>
      <trkpt lat="45.41043" lon="4.62059">
        <ele>1094.7</ele>
        <time>1970-01-01T03:17:51.000Z</time>
      </trkpt>
      <trkpt lat="45.41039" lon="4.62056">
        <ele>1095.1</ele>
        <time>1970-01-01T03:17:53.000Z</time>
      </trkpt>
      <trkpt lat="45.41037" lon="4.62053">
        <ele>1095.3</ele>
        <time>1970-01-01T03:17:54.000Z</time>
      </trkpt>
      <trkpt lat="45.41035" lon="4.62049">
        <ele>1095.7</ele>
        <time>1970-01-01T03:17:56.000Z</time>
      </trkpt>
      <trkpt lat="45.41031" lon="4.62043">
        <ele>1096.1</ele>
        <time>1970-01-01T03:17:58.000Z</time>
      </trkpt>
      <trkpt lat="45.41027" lon="4.6204">
        <ele>1096.5</ele>
        <time>1970-01-01T03:18:00.000Z</time>
      </trkpt>
      <trkpt lat="45.41024" lon="4.62035">
        <ele>1096.9</ele>
        <time>1970-01-01T03:18:02.000Z</time>
      </trkpt>
      <trkpt lat="45.41021" lon="4.62031">
        <ele>1097.2</ele>
        <time>1970-01-01T03:18:04.000Z</time>
      </trkpt>
      <trkpt lat="45.41017" lon="4.62026">
        <ele>1097.6</ele>
        <time>1970-01-01T03:18:06.000Z</time>
      </trkpt>
      <trkpt lat="45.41014" lon="4.62022">
        <ele>1098</ele>
        <time>1970-01-01T03:18:08.000Z</time>
      </trkpt>
      <trkpt lat="45.41011" lon="4.62019">
        <ele>1098.3</ele>
        <time>1970-01-01T03:18:10.000Z</time>
      </trkpt>
      <trkpt lat="45.41007" lon="4.62015">
        <ele>1098.7</ele>
        <time>1970-01-01T03:18:12.000Z</time>
      </trkpt>
      <trkpt lat="45.41004" lon="4.62012">
        <ele>1099.1</ele>
        <time>1970-01-01T03:18:14.000Z</time>
      </trkpt>
      <trkpt lat="45.41" lon="4.62009">
        <ele>1099.4</ele>
        <time>1970-01-01T03:18:16.000Z</time>
      </trkpt>
      <trkpt lat="45.40997" lon="4.62006">
        <ele>1099.7</ele>
        <time>1970-01-01T03:18:18.000Z</time>
      </trkpt>
      <trkpt lat="45.40993" lon="4.62002">
        <ele>1100.1</ele>
        <time>1970-01-01T03:18:20.000Z</time>
      </trkpt>
      <trkpt lat="45.4099" lon="4.61999">
        <ele>1100.4</ele>
        <time>1970-01-01T03:18:21.000Z</time>
      </trkpt>
      <trkpt lat="45.40988" lon="4.61996">
        <ele>1100.7</ele>
        <time>1970-01-01T03:18:22.000Z</time>
      </trkpt>
      <trkpt lat="45.40985" lon="4.61992">
        <ele>1101</ele>
        <time>1970-01-01T03:18:24.000Z</time>
      </trkpt>
      <trkpt lat="45.40982" lon="4.61987">
        <ele>1101.4</ele>
        <time>1970-01-01T03:18:26.000Z</time>
      </trkpt>
      <trkpt lat="45.40978" lon="4.61984">
        <ele>1101.8</ele>
        <time>1970-01-01T03:18:28.000Z</time>
      </trkpt>
      <trkpt lat="45.40976" lon="4.61981">
        <ele>1102</ele>
        <time>1970-01-01T03:18:29.000Z</time>
      </trkpt>
      <trkpt lat="45.40972" lon="4.61977">
        <ele>1102.4</ele>
        <time>1970-01-01T03:18:31.000Z</time>
      </trkpt>
      <trkpt lat="45.40968" lon="4.61974">
        <ele>1102.8</ele>
        <time>1970-01-01T03:18:33.000Z</time>
      </trkpt>
      <trkpt lat="45.40964" lon="4.61971">
        <ele>1103.2</ele>
        <time>1970-01-01T03:18:35.000Z</time>
      </trkpt>
      <trkpt lat="45.4096" lon="4.61967">
        <ele>1103.6</ele>
        <time>1970-01-01T03:18:37.000Z</time>
      </trkpt>
      <trkpt lat="45.40957" lon="4.61965">
        <ele>1103.9</ele>
        <time>1970-01-01T03:18:38.000Z</time>
      </trkpt>
      <trkpt lat="45.40953" lon="4.61962">
        <ele>1104.2</ele>
        <time>1970-01-01T03:18:40.000Z</time>
      </trkpt>
      <trkpt lat="45.4095" lon="4.61959">
        <ele>1104.5</ele>
        <time>1970-01-01T03:18:42.000Z</time>
      </trkpt>
      <trkpt lat="45.40948" lon="4.61957">
        <ele>1104.7</ele>
        <time>1970-01-01T03:18:44.000Z</time>
      </trkpt>
      <trkpt lat="45.40945" lon="4.61953">
        <ele>1105.2</ele>
        <time>1970-01-01T03:18:46.000Z</time>
      </trkpt>
      <trkpt lat="45.40943" lon="4.6195">
        <ele>1105.5</ele>
        <time>1970-01-01T03:18:48.000Z</time>
      </trkpt>
      <trkpt lat="45.4094" lon="4.61949">
        <ele>1105.8</ele>
        <time>1970-01-01T03:18:50.000Z</time>
      </trkpt>
      <trkpt lat="45.40937" lon="4.61946">
        <ele>1106.1</ele>
        <time>1970-01-01T03:18:53.000Z</time>
      </trkpt>
      <trkpt lat="45.40933" lon="4.61946">
        <ele>1106.5</ele>
        <time>1970-01-01T03:18:55.000Z</time>
      </trkpt>
      <trkpt lat="45.40929" lon="4.61943">
        <ele>1106.9</ele>
        <time>1970-01-01T03:18:57.000Z</time>
      </trkpt>
      <trkpt lat="45.40924" lon="4.61939">
        <ele>1107.6</ele>
        <time>1970-01-01T03:19:00.000Z</time>
      </trkpt>
      <trkpt lat="45.40922" lon="4.61936">
        <ele>1107.8</ele>
        <time>1970-01-01T03:19:01.000Z</time>
      </trkpt>
      <trkpt lat="45.40919" lon="4.61934">
        <ele>1108.1</ele>
        <time>1970-01-01T03:19:02.000Z</time>
      </trkpt>
      <trkpt lat="45.40916" lon="4.6193">
        <ele>1108.5</ele>
        <time>1970-01-01T03:19:04.000Z</time>
      </trkpt>
      <trkpt lat="45.40913" lon="4.61926">
        <ele>1108.9</ele>
        <time>1970-01-01T03:19:06.000Z</time>
      </trkpt>
      <trkpt lat="45.4091" lon="4.61922">
        <ele>1109.5</ele>
        <time>1970-01-01T03:19:08.000Z</time>
      </trkpt>
      <trkpt lat="45.40906" lon="4.61919">
        <ele>1109.9</ele>
        <time>1970-01-01T03:19:10.000Z</time>
      </trkpt>
      <trkpt lat="45.40903" lon="4.61917">
        <ele>1110.2</ele>
        <time>1970-01-01T03:19:12.000Z</time>
      </trkpt>
      <trkpt lat="45.409" lon="4.61915">
        <ele>1110.5</ele>
        <time>1970-01-01T03:19:14.000Z</time>
      </trkpt>
      <trkpt lat="45.40896" lon="4.61911">
        <ele>1111</ele>
        <time>1970-01-01T03:19:16.000Z</time>
      </trkpt>
      <trkpt lat="45.40893" lon="4.6191">
        <ele>1111.3</ele>
        <time>1970-01-01T03:19:18.000Z</time>
      </trkpt>
      <trkpt lat="45.4089" lon="4.61908">
        <ele>1111.5</ele>
        <time>1970-01-01T03:19:20.000Z</time>
      </trkpt>
      <trkpt lat="45.40886" lon="4.61905">
        <ele>1112</ele>
        <time>1970-01-01T03:19:22.000Z</time>
      </trkpt>
      <trkpt lat="45.40884" lon="4.61904">
        <ele>1112.3</ele>
        <time>1970-01-01T03:19:23.000Z</time>
      </trkpt>
      <trkpt lat="45.4088" lon="4.61901">
        <ele>1112.6</ele>
        <time>1970-01-01T03:19:25.000Z</time>
      </trkpt>
      <trkpt lat="45.40875" lon="4.619">
        <ele>1113.1</ele>
        <time>1970-01-01T03:19:27.000Z</time>
      </trkpt>
      <trkpt lat="45.40872" lon="4.61898">
        <ele>1113.4</ele>
        <time>1970-01-01T03:19:29.000Z</time>
      </trkpt>
      <trkpt lat="45.40869" lon="4.61895">
        <ele>1113.8</ele>
        <time>1970-01-01T03:19:31.000Z</time>
      </trkpt>
      <trkpt lat="45.40866" lon="4.61892">
        <ele>1114.1</ele>
        <time>1970-01-01T03:19:33.000Z</time>
      </trkpt>
      <trkpt lat="45.40864" lon="4.61889">
        <ele>1114.4</ele>
        <time>1970-01-01T03:19:35.000Z</time>
      </trkpt>
      <trkpt lat="45.40861" lon="4.61887">
        <ele>1114.7</ele>
        <time>1970-01-01T03:19:37.000Z</time>
      </trkpt>
      <trkpt lat="45.40859" lon="4.61884">
        <ele>1115</ele>
        <time>1970-01-01T03:19:38.000Z</time>
      </trkpt>
      <trkpt lat="45.40855" lon="4.61882">
        <ele>1115.3</ele>
        <time>1970-01-01T03:19:40.000Z</time>
      </trkpt>
      <trkpt lat="45.40852" lon="4.61879">
        <ele>1115.7</ele>
        <time>1970-01-01T03:19:42.000Z</time>
      </trkpt>
      <trkpt lat="45.4085" lon="4.61877">
        <ele>1115.9</ele>
        <time>1970-01-01T03:19:43.000Z</time>
      </trkpt>
      <trkpt lat="45.40847" lon="4.61875">
        <ele>1116.2</ele>
        <time>1970-01-01T03:19:45.000Z</time>
      </trkpt>
      <trkpt lat="45.40845" lon="4.61874">
        <ele>1116.5</ele>
        <time>1970-01-01T03:19:47.000Z</time>
      </trkpt>
      <trkpt lat="45.4084" lon="4.61873">
        <ele>1116.9</ele>
        <time>1970-01-01T03:19:50.000Z</time>
      </trkpt>
      <trkpt lat="45.40836" lon="4.61871">
        <ele>1117.2</ele>
        <time>1970-01-01T03:19:54.000Z</time>
      </trkpt>
      <trkpt lat="45.40834" lon="4.6187">
        <ele>1117.5</ele>
        <time>1970-01-01T03:19:55.000Z</time>
      </trkpt>
      <trkpt lat="45.40829" lon="4.61866">
        <ele>1117.9</ele>
        <time>1970-01-01T03:19:57.000Z</time>
      </trkpt>
      <trkpt lat="45.40827" lon="4.61864">
        <ele>1118.2</ele>
        <time>1970-01-01T03:19:59.000Z</time>
      </trkpt>
      <trkpt lat="45.40822" lon="4.61862">
        <ele>1118.6</ele>
        <time>1970-01-01T03:20:01.000Z</time>
      </trkpt>
      <trkpt lat="45.40818" lon="4.61859">
        <ele>1119</ele>
        <time>1970-01-01T03:20:03.000Z</time>
      </trkpt>
      <trkpt lat="45.40815" lon="4.61856">
        <ele>1119.3</ele>
        <time>1970-01-01T03:20:05.000Z</time>
      </trkpt>
      <trkpt lat="45.4081" lon="4.61852">
        <ele>1119.8</ele>
        <time>1970-01-01T03:20:07.000Z</time>
      </trkpt>
      <trkpt lat="45.40807" lon="4.61849">
        <ele>1120.1</ele>
        <time>1970-01-01T03:20:08.000Z</time>
      </trkpt>
      <trkpt lat="45.40805" lon="4.61846">
        <ele>1120.4</ele>
        <time>1970-01-01T03:20:09.000Z</time>
      </trkpt>
      <trkpt lat="45.40801" lon="4.61841">
        <ele>1120.8</ele>
        <time>1970-01-01T03:20:11.000Z</time>
      </trkpt>
      <trkpt lat="45.40796" lon="4.6184">
        <ele>1121.2</ele>
        <time>1970-01-01T03:20:13.000Z</time>
      </trkpt>
      <trkpt lat="45.40793" lon="4.6184">
        <ele>1121.5</ele>
        <time>1970-01-01T03:20:15.000Z</time>
      </trkpt>
      <trkpt lat="45.4079" lon="4.61839">
        <ele>1121.8</ele>
        <time>1970-01-01T03:20:16.000Z</time>
      </trkpt>
      <trkpt lat="45.40786" lon="4.61835">
        <ele>1122.2</ele>
        <time>1970-01-01T03:20:18.000Z</time>
      </trkpt>
      <trkpt lat="45.40783" lon="4.61832">
        <ele>1122.5</ele>
        <time>1970-01-01T03:20:20.000Z</time>
      </trkpt>
      <trkpt lat="45.4078" lon="4.61831">
        <ele>1122.8</ele>
        <time>1970-01-01T03:20:22.000Z</time>
      </trkpt>
      <trkpt lat="45.40776" lon="4.61831">
        <ele>1123.1</ele>
        <time>1970-01-01T03:20:24.000Z</time>
      </trkpt>
      <trkpt lat="45.40772" lon="4.6183">
        <ele>1123.5</ele>
        <time>1970-01-01T03:20:26.000Z</time>
      </trkpt>
      <trkpt lat="45.40767" lon="4.6183">
        <ele>1123.9</ele>
        <time>1970-01-01T03:20:28.000Z</time>
      </trkpt>
      <trkpt lat="45.40764" lon="4.61828">
        <ele>1124.3</ele>
        <time>1970-01-01T03:20:30.000Z</time>
      </trkpt>
      <trkpt lat="45.40759" lon="4.61823">
        <ele>1124.8</ele>
        <time>1970-01-01T03:20:32.000Z</time>
      </trkpt>
      <trkpt lat="45.40756" lon="4.61823">
        <ele>1125.1</ele>
        <time>1970-01-01T03:20:34.000Z</time>
      </trkpt>
      <trkpt lat="45.40753" lon="4.61823">
        <ele>1125.5</ele>
        <time>1970-01-01T03:20:37.000Z</time>
      </trkpt>
      <trkpt lat="45.4075" lon="4.61821">
        <ele>1125.8</ele>
        <time>1970-01-01T03:20:38.000Z</time>
      </trkpt>
      <trkpt lat="45.40747" lon="4.6182">
        <ele>1126.2</ele>
        <time>1970-01-01T03:20:40.000Z</time>
      </trkpt>
      <trkpt lat="45.40742" lon="4.61821">
        <ele>1126.7</ele>
        <time>1970-01-01T03:20:42.000Z</time>
      </trkpt>
      <trkpt lat="45.40737" lon="4.61822">
        <ele>1127.2</ele>
        <time>1970-01-01T03:20:44.000Z</time>
      </trkpt>
      <trkpt lat="45.40733" lon="4.61821">
        <ele>1127.6</ele>
        <time>1970-01-01T03:20:45.000Z</time>
      </trkpt>
      <trkpt lat="45.40728" lon="4.61824">
        <ele>1128.1</ele>
        <time>1970-01-01T03:20:47.000Z</time>
      </trkpt>
      <trkpt lat="45.40723" lon="4.61826">
        <ele>1128.7</ele>
        <time>1970-01-01T03:20:49.000Z</time>
      </trkpt>
      <trkpt lat="45.40716" lon="4.61828">
        <ele>1143.7</ele>
        <time>1970-01-01T03:20:50.000Z</time>
      </trkpt>
      <trkpt lat="45.40709" lon="4.61826">
        <ele>1159</ele>
        <time>1970-01-01T03:20:52.000Z</time>
      </trkpt>
      <trkpt lat="45.40706" lon="4.61826">
        <ele>1158.4</ele>
        <time>1970-01-01T03:20:53.000Z</time>
      </trkpt>
      <trkpt lat="45.40703" lon="4.61823">
        <ele>1157.5</ele>
        <time>1970-01-01T03:20:54.000Z</time>
      </trkpt>
      <trkpt lat="45.40699" lon="4.6182">
        <ele>1156.6</ele>
        <time>1970-01-01T03:20:55.000Z</time>
      </trkpt>
      <trkpt lat="45.40695" lon="4.61817">
        <ele>1156.2</ele>
        <time>1970-01-01T03:20:57.000Z</time>
      </trkpt>
      <trkpt lat="45.40691" lon="4.61816">
        <ele>1155.8</ele>
        <time>1970-01-01T03:20:59.000Z</time>
      </trkpt>
      <trkpt lat="45.40687" lon="4.61816">
        <ele>1155.4</ele>
        <time>1970-01-01T03:21:01.000Z</time>
      </trkpt>
      <trkpt lat="45.40683" lon="4.61817">
        <ele>1154.9</ele>
        <time>1970-01-01T03:21:03.000Z</time>
      </trkpt>
      <trkpt lat="45.40678" lon="4.61817">
        <ele>1154.2</ele>
        <time>1970-01-01T03:21:05.000Z</time>
      </trkpt>
      <trkpt lat="45.40674" lon="4.6182">
        <ele>1153.5</ele>
        <time>1970-01-01T03:21:07.000Z</time>
      </trkpt>
      <trkpt lat="45.4067" lon="4.61823">
        <ele>1152.6</ele>
        <time>1970-01-01T03:21:10.000Z</time>
      </trkpt>
      <trkpt lat="45.40674" lon="4.61825">
        <ele>1153.3</ele>
        <time>1970-01-01T03:21:15.000Z</time>
      </trkpt>
      <trkpt lat="45.40677" lon="4.61824">
        <ele>1153.8</ele>
        <time>1970-01-01T03:21:17.000Z</time>
      </trkpt>
      <trkpt lat="45.40679" lon="4.61823">
        <ele>1154.4</ele>
        <time>1970-01-01T03:21:19.000Z</time>
      </trkpt>
      <trkpt lat="45.40683" lon="4.61822">
        <ele>1155.1</ele>
        <time>1970-01-01T03:21:21.000Z</time>
      </trkpt>
      <trkpt lat="45.40687" lon="4.61823">
        <ele>1155.6</ele>
        <time>1970-01-01T03:21:24.000Z</time>
      </trkpt>
      <trkpt lat="45.4069" lon="4.61823">
        <ele>1156</ele>
        <time>1970-01-01T03:21:26.000Z</time>
      </trkpt>
      <trkpt lat="45.40693" lon="4.61822">
        <ele>1156.4</ele>
        <time>1970-01-01T03:21:29.000Z</time>
      </trkpt>
      <trkpt lat="45.40697" lon="4.6182">
        <ele>1157.2</ele>
        <time>1970-01-01T03:21:31.000Z</time>
      </trkpt>
      <trkpt lat="45.407" lon="4.61817">
        <ele>1158.2</ele>
        <time>1970-01-01T03:21:33.000Z</time>
      </trkpt>
      <trkpt lat="45.40703" lon="4.61815">
        <ele>1159</ele>
        <time>1970-01-01T03:21:35.000Z</time>
      </trkpt>
      <trkpt lat="45.40707" lon="4.61813">
        <ele>1159</ele>
        <time>1970-01-01T03:21:37.000Z</time>
      </trkpt>
      <trkpt lat="45.40711" lon="4.6181">
        <ele>1159.1</ele>
        <time>1970-01-01T03:21:39.000Z</time>
      </trkpt>
      <trkpt lat="45.40714" lon="4.61809">
        <ele>1159.1</ele>
        <time>1970-01-01T03:21:41.000Z</time>
      </trkpt>
      <trkpt lat="45.40718" lon="4.61809">
        <ele>1159.1</ele>
        <time>1970-01-01T03:21:43.000Z</time>
      </trkpt>
      <trkpt lat="45.40721" lon="4.61807">
        <ele>1159.1</ele>
        <time>1970-01-01T03:21:45.000Z</time>
      </trkpt>
      <trkpt lat="45.40724" lon="4.61805">
        <ele>1159.2</ele>
        <time>1970-01-01T03:21:47.000Z</time>
      </trkpt>
      <trkpt lat="45.40727" lon="4.61805">
        <ele>1159.2</ele>
        <time>1970-01-01T03:21:49.000Z</time>
      </trkpt>
      <trkpt lat="45.40729" lon="4.618">
        <ele>1159.2</ele>
        <time>1970-01-01T03:21:52.000Z</time>
      </trkpt>
      <trkpt lat="45.40733" lon="4.61798">
        <ele>1159.2</ele>
        <time>1970-01-01T03:21:54.000Z</time>
      </trkpt>
      <trkpt lat="45.40737" lon="4.61797">
        <ele>1159.2</ele>
        <time>1970-01-01T03:21:55.000Z</time>
      </trkpt>
      <trkpt lat="45.4074" lon="4.61796">
        <ele>1159.3</ele>
        <time>1970-01-01T03:21:57.000Z</time>
      </trkpt>
      <trkpt lat="45.40743" lon="4.61796">
        <ele>1159.3</ele>
        <time>1970-01-01T03:21:59.000Z</time>
      </trkpt>
      <trkpt lat="45.40748" lon="4.61796">
        <ele>1159.3</ele>
        <time>1970-01-01T03:22:01.000Z</time>
      </trkpt>
      <trkpt lat="45.40752" lon="4.61796">
        <ele>1159.4</ele>
        <time>1970-01-01T03:22:03.000Z</time>
      </trkpt>
      <trkpt lat="45.40757" lon="4.61795">
        <ele>1159.4</ele>
        <time>1970-01-01T03:22:05.000Z</time>
      </trkpt>
      <trkpt lat="45.40761" lon="4.61796">
        <ele>1159.5</ele>
        <time>1970-01-01T03:22:07.000Z</time>
      </trkpt>
      <trkpt lat="45.40764" lon="4.61797">
        <ele>1159.5</ele>
        <time>1970-01-01T03:22:09.000Z</time>
      </trkpt>
      <trkpt lat="45.40767" lon="4.61799">
        <ele>1159.6</ele>
        <time>1970-01-01T03:22:11.000Z</time>
      </trkpt>
      <trkpt lat="45.40771" lon="4.61801">
        <ele>1159.7</ele>
        <time>1970-01-01T03:22:13.000Z</time>
      </trkpt>
      <trkpt lat="45.40775" lon="4.61802">
        <ele>1159.7</ele>
        <time>1970-01-01T03:22:15.000Z</time>
      </trkpt>
      <trkpt lat="45.40779" lon="4.61801">
        <ele>1159.8</ele>
        <time>1970-01-01T03:22:17.000Z</time>
      </trkpt>
      <trkpt lat="45.40782" lon="4.61803">
        <ele>1159.9</ele>
        <time>1970-01-01T03:22:19.000Z</time>
      </trkpt>
      <trkpt lat="45.40786" lon="4.61804">
        <ele>1160</ele>
        <time>1970-01-01T03:22:21.000Z</time>
      </trkpt>
      <trkpt lat="45.4079" lon="4.61806">
        <ele>1160.1</ele>
        <time>1970-01-01T03:22:23.000Z</time>
      </trkpt>
      <trkpt lat="45.40794" lon="4.61806">
        <ele>1160.2</ele>
        <time>1970-01-01T03:22:25.000Z</time>
      </trkpt>
      <trkpt lat="45.40797" lon="4.61807">
        <ele>1160.3</ele>
        <time>1970-01-01T03:22:27.000Z</time>
      </trkpt>
      <trkpt lat="45.408" lon="4.61809">
        <ele>1160.4</ele>
        <time>1970-01-01T03:22:29.000Z</time>
      </trkpt>
      <trkpt lat="45.40804" lon="4.6181">
        <ele>1160.5</ele>
        <time>1970-01-01T03:22:31.000Z</time>
      </trkpt>
      <trkpt lat="45.40809" lon="4.61808">
        <ele>1160.6</ele>
        <time>1970-01-01T03:22:33.000Z</time>
      </trkpt>
      <trkpt lat="45.40813" lon="4.61809">
        <ele>1160.7</ele>
        <time>1970-01-01T03:22:35.000Z</time>
      </trkpt>
      <trkpt lat="45.40817" lon="4.61809">
        <ele>1160.8</ele>
        <time>1970-01-01T03:22:37.000Z</time>
      </trkpt>
      <trkpt lat="45.40821" lon="4.61808">
        <ele>1160.9</ele>
        <time>1970-01-01T03:22:39.000Z</time>
      </trkpt>
      <trkpt lat="45.40824" lon="4.61807">
        <ele>1161</ele>
        <time>1970-01-01T03:22:41.000Z</time>
      </trkpt>
      <trkpt lat="45.40828" lon="4.61808">
        <ele>1161.1</ele>
        <time>1970-01-01T03:22:44.000Z</time>
      </trkpt>
      <trkpt lat="45.40833" lon="4.61807">
        <ele>1161.2</ele>
        <time>1970-01-01T03:22:47.000Z</time>
      </trkpt>
      <trkpt lat="45.40836" lon="4.61806">
        <ele>1161.3</ele>
        <time>1970-01-01T03:22:49.000Z</time>
      </trkpt>
      <trkpt lat="45.4084" lon="4.61804">
        <ele>1161.4</ele>
        <time>1970-01-01T03:22:51.000Z</time>
      </trkpt>
      <trkpt lat="45.40844" lon="4.61804">
        <ele>1161.5</ele>
        <time>1970-01-01T03:22:53.000Z</time>
      </trkpt>
      <trkpt lat="45.40848" lon="4.61803">
        <ele>1161.7</ele>
        <time>1970-01-01T03:22:55.000Z</time>
      </trkpt>
      <trkpt lat="45.40852" lon="4.61804">
        <ele>1161.8</ele>
        <time>1970-01-01T03:22:57.000Z</time>
      </trkpt>
      <trkpt lat="45.40856" lon="4.61806">
        <ele>1161.9</ele>
        <time>1970-01-01T03:22:59.000Z</time>
      </trkpt>
      <trkpt lat="45.4086" lon="4.61807">
        <ele>1162</ele>
        <time>1970-01-01T03:23:01.000Z</time>
      </trkpt>
      <trkpt lat="45.40863" lon="4.61809">
        <ele>1162.1</ele>
        <time>1970-01-01T03:23:03.000Z</time>
      </trkpt>
      <trkpt lat="45.40868" lon="4.61808">
        <ele>1162.2</ele>
        <time>1970-01-01T03:23:05.000Z</time>
      </trkpt>
      <trkpt lat="45.40872" lon="4.61807">
        <ele>1162.3</ele>
        <time>1970-01-01T03:23:07.000Z</time>
      </trkpt>
      <trkpt lat="45.40876" lon="4.61806">
        <ele>1162.5</ele>
        <time>1970-01-01T03:23:09.000Z</time>
      </trkpt>
      <trkpt lat="45.40881" lon="4.61806">
        <ele>1162.6</ele>
        <time>1970-01-01T03:23:11.000Z</time>
      </trkpt>
      <trkpt lat="45.40885" lon="4.61807">
        <ele>1162.7</ele>
        <time>1970-01-01T03:23:13.000Z</time>
      </trkpt>
      <trkpt lat="45.40889" lon="4.61805">
        <ele>1162.8</ele>
        <time>1970-01-01T03:23:15.000Z</time>
      </trkpt>
      <trkpt lat="45.40893" lon="4.61805">
        <ele>1163</ele>
        <time>1970-01-01T03:23:17.000Z</time>
      </trkpt>
      <trkpt lat="45.40897" lon="4.61804">
        <ele>1163.1</ele>
        <time>1970-01-01T03:23:19.000Z</time>
      </trkpt>
      <trkpt lat="45.40901" lon="4.61803">
        <ele>1163.2</ele>
        <time>1970-01-01T03:23:22.000Z</time>
      </trkpt>
      <trkpt lat="45.40905" lon="4.61804">
        <ele>1163.3</ele>
        <time>1970-01-01T03:23:24.000Z</time>
      </trkpt>
      <trkpt lat="45.40909" lon="4.61805">
        <ele>1163.4</ele>
        <time>1970-01-01T03:23:26.000Z</time>
      </trkpt>
      <trkpt lat="45.40913" lon="4.61805">
        <ele>1163.5</ele>
        <time>1970-01-01T03:23:28.000Z</time>
      </trkpt>
      <trkpt lat="45.40916" lon="4.61805">
        <ele>1163.6</ele>
        <time>1970-01-01T03:23:30.000Z</time>
      </trkpt>
      <trkpt lat="45.40919" lon="4.61806">
        <ele>1163.7</ele>
        <time>1970-01-01T03:23:32.000Z</time>
      </trkpt>
      <trkpt lat="45.40922" lon="4.61807">
        <ele>1163.7</ele>
        <time>1970-01-01T03:23:34.000Z</time>
      </trkpt>
      <trkpt lat="45.40926" lon="4.61807">
        <ele>1163.8</ele>
        <time>1970-01-01T03:23:36.000Z</time>
      </trkpt>
      <trkpt lat="45.4093" lon="4.61807">
        <ele>1163.9</ele>
        <time>1970-01-01T03:23:38.000Z</time>
      </trkpt>
      <trkpt lat="45.40935" lon="4.61807">
        <ele>1164</ele>
        <time>1970-01-01T03:23:40.000Z</time>
      </trkpt>
      <trkpt lat="45.40939" lon="4.61807">
        <ele>1164.1</ele>
        <time>1970-01-01T03:23:42.000Z</time>
      </trkpt>
      <trkpt lat="45.40942" lon="4.61809">
        <ele>1164.2</ele>
        <time>1970-01-01T03:23:44.000Z</time>
      </trkpt>
      <trkpt lat="45.40945" lon="4.61809">
        <ele>1164.2</ele>
        <time>1970-01-01T03:23:46.000Z</time>
      </trkpt>
      <trkpt lat="45.40948" lon="4.61812">
        <ele>1164.3</ele>
        <time>1970-01-01T03:23:48.000Z</time>
      </trkpt>
      <trkpt lat="45.40953" lon="4.61814">
        <ele>1164.4</ele>
        <time>1970-01-01T03:23:50.000Z</time>
      </trkpt>
      <trkpt lat="45.40957" lon="4.61817">
        <ele>1164.4</ele>
        <time>1970-01-01T03:23:52.000Z</time>
      </trkpt>
      <trkpt lat="45.4096" lon="4.61819">
        <ele>1164.5</ele>
        <time>1970-01-01T03:23:54.000Z</time>
      </trkpt>
      <trkpt lat="45.40965" lon="4.6182">
        <ele>1164.5</ele>
        <time>1970-01-01T03:23:56.000Z</time>
      </trkpt>
      <trkpt lat="45.40969" lon="4.61821">
        <ele>1164.6</ele>
        <time>1970-01-01T03:23:58.000Z</time>
      </trkpt>
      <trkpt lat="45.40973" lon="4.61822">
        <ele>1164.7</ele>
        <time>1970-01-01T03:24:00.000Z</time>
      </trkpt>
      <trkpt lat="45.40978" lon="4.61823">
        <ele>1164.7</ele>
        <time>1970-01-01T03:24:02.000Z</time>
      </trkpt>
      <trkpt lat="45.40982" lon="4.61824">
        <ele>1164.8</ele>
        <time>1970-01-01T03:24:04.000Z</time>
      </trkpt>
      <trkpt lat="45.40985" lon="4.61827">
        <ele>1164.8</ele>
        <time>1970-01-01T03:24:06.000Z</time>
      </trkpt>
      <trkpt lat="45.40988" lon="4.61828">
        <ele>1164.9</ele>
        <time>1970-01-01T03:24:08.000Z</time>
      </trkpt>
      <trkpt lat="45.40992" lon="4.6183">
        <ele>1165</ele>
        <time>1970-01-01T03:24:11.000Z</time>
      </trkpt>
      <trkpt lat="45.40995" lon="4.6183">
        <ele>1165</ele>
        <time>1970-01-01T03:24:13.000Z</time>
      </trkpt>
      <trkpt lat="45.40999" lon="4.61835">
        <ele>1165.1</ele>
        <time>1970-01-01T03:24:15.000Z</time>
      </trkpt>
      <trkpt lat="45.41002" lon="4.61836">
        <ele>1165.2</ele>
        <time>1970-01-01T03:24:16.000Z</time>
      </trkpt>
      <trkpt lat="45.41005" lon="4.61836">
        <ele>1165.2</ele>
        <time>1970-01-01T03:24:17.000Z</time>
      </trkpt>
      <trkpt lat="45.41009" lon="4.61837">
        <ele>1165.3</ele>
        <time>1970-01-01T03:24:19.000Z</time>
      </trkpt>
      <trkpt lat="45.41015" lon="4.61838">
        <ele>1165.5</ele>
        <time>1970-01-01T03:24:21.000Z</time>
      </trkpt>
      <trkpt lat="45.41019" lon="4.61838">
        <ele>1165.6</ele>
        <time>1970-01-01T03:24:23.000Z</time>
      </trkpt>
      <trkpt lat="45.41023" lon="4.61841">
        <ele>1165.7</ele>
        <time>1970-01-01T03:24:25.000Z</time>
      </trkpt>
      <trkpt lat="45.41028" lon="4.61843">
        <ele>1165.8</ele>
        <time>1970-01-01T03:24:27.000Z</time>
      </trkpt>
      <trkpt lat="45.41033" lon="4.61843">
        <ele>1166</ele>
        <time>1970-01-01T03:24:29.000Z</time>
      </trkpt>
      <trkpt lat="45.41037" lon="4.61842">
        <ele>1166.1</ele>
        <time>1970-01-01T03:24:31.000Z</time>
      </trkpt>
      <trkpt lat="45.41039" lon="4.61843">
        <ele>1166.2</ele>
        <time>1970-01-01T03:24:32.000Z</time>
      </trkpt>
      <trkpt lat="45.41044" lon="4.61843">
        <ele>1166.4</ele>
        <time>1970-01-01T03:24:34.000Z</time>
      </trkpt>
      <trkpt lat="45.41048" lon="4.61842">
        <ele>1166.5</ele>
        <time>1970-01-01T03:24:36.000Z</time>
      </trkpt>
      <trkpt lat="45.4105" lon="4.61841">
        <ele>1166.6</ele>
        <time>1970-01-01T03:24:37.000Z</time>
      </trkpt>
      <trkpt lat="45.41054" lon="4.61839">
        <ele>1166.7</ele>
        <time>1970-01-01T03:24:39.000Z</time>
      </trkpt>
      <trkpt lat="45.41059" lon="4.61839">
        <ele>1166.9</ele>
        <time>1970-01-01T03:24:41.000Z</time>
      </trkpt>
      <trkpt lat="45.41064" lon="4.61838">
        <ele>1167</ele>
        <time>1970-01-01T03:24:43.000Z</time>
      </trkpt>
      <trkpt lat="45.41068" lon="4.61839">
        <ele>1167.1</ele>
        <time>1970-01-01T03:24:45.000Z</time>
      </trkpt>
      <trkpt lat="45.41072" lon="4.6184">
        <ele>1167.3</ele>
        <time>1970-01-01T03:24:47.000Z</time>
      </trkpt>
      <trkpt lat="45.41076" lon="4.61841">
        <ele>1167.4</ele>
        <time>1970-01-01T03:24:49.000Z</time>
      </trkpt>
      <trkpt lat="45.4108" lon="4.61842">
        <ele>1167.5</ele>
        <time>1970-01-01T03:24:51.000Z</time>
      </trkpt>
      <trkpt lat="45.41084" lon="4.61842">
        <ele>1167.6</ele>
        <time>1970-01-01T03:24:53.000Z</time>
      </trkpt>
      <trkpt lat="45.41088" lon="4.61842">
        <ele>1167.7</ele>
        <time>1970-01-01T03:24:55.000Z</time>
      </trkpt>
      <trkpt lat="45.41092" lon="4.61842">
        <ele>1167.8</ele>
        <time>1970-01-01T03:24:57.000Z</time>
      </trkpt>
      <trkpt lat="45.41096" lon="4.61841">
        <ele>1167.9</ele>
        <time>1970-01-01T03:24:59.000Z</time>
      </trkpt>
      <trkpt lat="45.41101" lon="4.61839">
        <ele>1168</ele>
        <time>1970-01-01T03:25:01.000Z</time>
      </trkpt>
      <trkpt lat="45.41105" lon="4.61838">
        <ele>1168.1</ele>
        <time>1970-01-01T03:25:03.000Z</time>
      </trkpt>
      <trkpt lat="45.41109" lon="4.61837">
        <ele>1168.2</ele>
        <time>1970-01-01T03:25:05.000Z</time>
      </trkpt>
      <trkpt lat="45.41112" lon="4.61838">
        <ele>1168.2</ele>
        <time>1970-01-01T03:25:06.000Z</time>
      </trkpt>
      <trkpt lat="45.41116" lon="4.6184">
        <ele>1168.3</ele>
        <time>1970-01-01T03:25:08.000Z</time>
      </trkpt>
      <trkpt lat="45.41119" lon="4.61841">
        <ele>1168.4</ele>
        <time>1970-01-01T03:25:10.000Z</time>
      </trkpt>
      <trkpt lat="45.41123" lon="4.61841">
        <ele>1168.4</ele>
        <time>1970-01-01T03:25:12.000Z</time>
      </trkpt>
      <trkpt lat="45.41127" lon="4.61841">
        <ele>1168.5</ele>
        <time>1970-01-01T03:25:14.000Z</time>
      </trkpt>
      <trkpt lat="45.41129" lon="4.61841">
        <ele>1168.6</ele>
        <time>1970-01-01T03:25:16.000Z</time>
      </trkpt>
      <trkpt lat="45.41134" lon="4.61844">
        <ele>1168.6</ele>
        <time>1970-01-01T03:25:18.000Z</time>
      </trkpt>
      <trkpt lat="45.41136" lon="4.61845">
        <ele>1168.7</ele>
        <time>1970-01-01T03:25:20.000Z</time>
      </trkpt>
      <trkpt lat="45.4114" lon="4.61846">
        <ele>1168.7</ele>
        <time>1970-01-01T03:25:22.000Z</time>
      </trkpt>
      <trkpt lat="45.41145" lon="4.61848">
        <ele>1168.8</ele>
        <time>1970-01-01T03:25:24.000Z</time>
      </trkpt>
      <trkpt lat="45.41149" lon="4.6185">
        <ele>1168.8</ele>
        <time>1970-01-01T03:25:26.000Z</time>
      </trkpt>
      <trkpt lat="45.41152" lon="4.6185">
        <ele>1168.8</ele>
        <time>1970-01-01T03:25:27.000Z</time>
      </trkpt>
      <trkpt lat="45.41156" lon="4.61852">
        <ele>1168.9</ele>
        <time>1970-01-01T03:25:29.000Z</time>
      </trkpt>
      <trkpt lat="45.4116" lon="4.61853">
        <ele>1168.9</ele>
        <time>1970-01-01T03:25:31.000Z</time>
      </trkpt>
      <trkpt lat="45.41164" lon="4.61854">
        <ele>1168.9</ele>
        <time>1970-01-01T03:25:33.000Z</time>
      </trkpt>
      <trkpt lat="45.41168" lon="4.61854">
        <ele>1168.8</ele>
        <time>1970-01-01T03:25:35.000Z</time>
      </trkpt>
      <trkpt lat="45.41173" lon="4.61855">
        <ele>1168.8</ele>
        <time>1970-01-01T03:25:37.000Z</time>
      </trkpt>
      <trkpt lat="45.41176" lon="4.61855">
        <ele>1168.8</ele>
        <time>1970-01-01T03:25:39.000Z</time>
      </trkpt>
      <trkpt lat="45.4118" lon="4.61856">
        <ele>1168.7</ele>
        <time>1970-01-01T03:25:41.000Z</time>
      </trkpt>
      <trkpt lat="45.41184" lon="4.61855">
        <ele>1168.6</ele>
        <time>1970-01-01T03:25:43.000Z</time>
      </trkpt>
      <trkpt lat="45.41188" lon="4.61856">
        <ele>1168.5</ele>
        <time>1970-01-01T03:25:45.000Z</time>
      </trkpt>
      <trkpt lat="45.41192" lon="4.61854">
        <ele>1168.4</ele>
        <time>1970-01-01T03:25:47.000Z</time>
      </trkpt>
      <trkpt lat="45.41196" lon="4.61851">
        <ele>1168.3</ele>
        <time>1970-01-01T03:25:49.000Z</time>
      </trkpt>
      <trkpt lat="45.41198" lon="4.61848">
        <ele>1168.2</ele>
        <time>1970-01-01T03:25:54.000Z</time>
      </trkpt>
      <trkpt lat="45.412" lon="4.61844">
        <ele>1168.1</ele>
        <time>1970-01-01T03:25:58.000Z</time>
      </trkpt>
      <trkpt lat="45.41203" lon="4.61842">
        <ele>1168</ele>
        <time>1970-01-01T03:26:02.000Z</time>
      </trkpt>
      <trkpt lat="45.41206" lon="4.6184">
        <ele>1168.3</ele>
        <time>1970-01-01T03:26:05.000Z</time>
      </trkpt>
      <trkpt lat="45.41209" lon="4.61843">
        <ele>1168.6</ele>
        <time>1970-01-01T03:26:15.000Z</time>
      </trkpt>
      <trkpt lat="45.41211" lon="4.61839">
        <ele>1168.9</ele>
        <time>1970-01-01T03:26:17.000Z</time>
      </trkpt>
      <trkpt lat="45.41214" lon="4.61836">
        <ele>1169.4</ele>
        <time>1970-01-01T03:26:19.000Z</time>
      </trkpt>
      <trkpt lat="45.41219" lon="4.61834">
        <ele>1170.1</ele>
        <time>1970-01-01T03:26:21.000Z</time>
      </trkpt>
      <trkpt lat="45.41222" lon="4.61834">
        <ele>1170.4</ele>
        <time>1970-01-01T03:26:22.000Z</time>
      </trkpt>
      <trkpt lat="45.41227" lon="4.61833">
        <ele>1170.7</ele>
        <time>1970-01-01T03:26:24.000Z</time>
      </trkpt>
      <trkpt lat="45.4123" lon="4.61832">
        <ele>1170.9</ele>
        <time>1970-01-01T03:26:25.000Z</time>
      </trkpt>
      <trkpt lat="45.41232" lon="4.61831">
        <ele>1170.9</ele>
        <time>1970-01-01T03:26:26.000Z</time>
      </trkpt>
      <trkpt lat="45.41236" lon="4.61827">
        <ele>1171.1</ele>
        <time>1970-01-01T03:26:28.000Z</time>
      </trkpt>
      <trkpt lat="45.41239" lon="4.61826">
        <ele>1171.3</ele>
        <time>1970-01-01T03:26:29.000Z</time>
      </trkpt>
      <trkpt lat="45.41242" lon="4.61827">
        <ele>1171.7</ele>
        <time>1970-01-01T03:26:30.000Z</time>
      </trkpt>
      <trkpt lat="45.41247" lon="4.61827">
        <ele>1172.4</ele>
        <time>1970-01-01T03:26:32.000Z</time>
      </trkpt>
      <trkpt lat="45.41249" lon="4.61826">
        <ele>1172.7</ele>
        <time>1970-01-01T03:26:33.000Z</time>
      </trkpt>
      <trkpt lat="45.41252" lon="4.61825">
        <ele>1172.9</ele>
        <time>1970-01-01T03:26:34.000Z</time>
      </trkpt>
      <trkpt lat="45.41256" lon="4.61824">
        <ele>1173.1</ele>
        <time>1970-01-01T03:26:36.000Z</time>
      </trkpt>
      <trkpt lat="45.4126" lon="4.61821">
        <ele>1173.3</ele>
        <time>1970-01-01T03:26:38.000Z</time>
      </trkpt>
      <trkpt lat="45.41264" lon="4.61818">
        <ele>1173.9</ele>
        <time>1970-01-01T03:26:40.000Z</time>
      </trkpt>
      <trkpt lat="45.41268" lon="4.61816">
        <ele>1174.3</ele>
        <time>1970-01-01T03:26:42.000Z</time>
      </trkpt>
      <trkpt lat="45.41273" lon="4.61812">
        <ele>1174.9</ele>
        <time>1970-01-01T03:26:44.000Z</time>
      </trkpt>
      <trkpt lat="45.41275" lon="4.61808">
        <ele>1175</ele>
        <time>1970-01-01T03:26:45.000Z</time>
      </trkpt>
      <trkpt lat="45.41277" lon="4.61805">
        <ele>1175.2</ele>
        <time>1970-01-01T03:26:46.000Z</time>
      </trkpt>
      <trkpt lat="45.41281" lon="4.61803">
        <ele>1175.5</ele>
        <time>1970-01-01T03:26:48.000Z</time>
      </trkpt>
      <trkpt lat="45.41285" lon="4.61799">
        <ele>1176.1</ele>
        <time>1970-01-01T03:26:50.000Z</time>
      </trkpt>
      <trkpt lat="45.41288" lon="4.61797">
        <ele>1176.6</ele>
        <time>1970-01-01T03:26:51.000Z</time>
      </trkpt>
      <trkpt lat="45.4129" lon="4.61794">
        <ele>1177</ele>
        <time>1970-01-01T03:26:52.000Z</time>
      </trkpt>
      <trkpt lat="45.41293" lon="4.6179">
        <ele>1177.5</ele>
        <time>1970-01-01T03:26:54.000Z</time>
      </trkpt>
      <trkpt lat="45.41297" lon="4.61785">
        <ele>1178.2</ele>
        <time>1970-01-01T03:26:56.000Z</time>
      </trkpt>
      <trkpt lat="45.41301" lon="4.61781">
        <ele>1178.7</ele>
        <time>1970-01-01T03:26:58.000Z</time>
      </trkpt>
      <trkpt lat="45.41304" lon="4.61778">
        <ele>1179.2</ele>
        <time>1970-01-01T03:27:00.000Z</time>
      </trkpt>
      <trkpt lat="45.41308" lon="4.61775">
        <ele>1179.4</ele>
        <time>1970-01-01T03:27:03.000Z</time>
      </trkpt>
      <trkpt lat="45.4131" lon="4.61772">
        <ele>1179.5</ele>
        <time>1970-01-01T03:27:05.000Z</time>
      </trkpt>
      <trkpt lat="45.41314" lon="4.61768">
        <ele>1179.8</ele>
        <time>1970-01-01T03:27:08.000Z</time>
      </trkpt>
      <trkpt lat="45.41318" lon="4.61766">
        <ele>1180.2</ele>
        <time>1970-01-01T03:27:10.000Z</time>
      </trkpt>
      <trkpt lat="45.41321" lon="4.61763">
        <ele>1180.8</ele>
        <time>1970-01-01T03:27:12.000Z</time>
      </trkpt>
      <trkpt lat="45.41324" lon="4.6176">
        <ele>1181.2</ele>
        <time>1970-01-01T03:27:14.000Z</time>
      </trkpt>
      <trkpt lat="45.41329" lon="4.61757">
        <ele>1181.5</ele>
        <time>1970-01-01T03:27:16.000Z</time>
      </trkpt>
      <trkpt lat="45.41332" lon="4.61753">
        <ele>1181.7</ele>
        <time>1970-01-01T03:27:18.000Z</time>
      </trkpt>
      <trkpt lat="45.41337" lon="4.61751">
        <ele>1182</ele>
        <time>1970-01-01T03:27:20.000Z</time>
      </trkpt>
      <trkpt lat="45.41342" lon="4.61749">
        <ele>1182.7</ele>
        <time>1970-01-01T03:27:22.000Z</time>
      </trkpt>
      <trkpt lat="45.41345" lon="4.61746">
        <ele>1183.3</ele>
        <time>1970-01-01T03:27:24.000Z</time>
      </trkpt>
      <trkpt lat="45.41349" lon="4.61744">
        <ele>1183.7</ele>
        <time>1970-01-01T03:27:26.000Z</time>
      </trkpt>
      <trkpt lat="45.41352" lon="4.61741">
        <ele>1183.9</ele>
        <time>1970-01-01T03:27:28.000Z</time>
      </trkpt>
      <trkpt lat="45.41355" lon="4.61739">
        <ele>1183.9</ele>
        <time>1970-01-01T03:27:30.000Z</time>
      </trkpt>
      <trkpt lat="45.41358" lon="4.61736">
        <ele>1184</ele>
        <time>1970-01-01T03:27:32.000Z</time>
      </trkpt>
      <trkpt lat="45.41361" lon="4.61736">
        <ele>1184.2</ele>
        <time>1970-01-01T03:27:33.000Z</time>
      </trkpt>
      <trkpt lat="45.41366" lon="4.61732">
        <ele>1184.6</ele>
        <time>1970-01-01T03:27:35.000Z</time>
      </trkpt>
      <trkpt lat="45.41369" lon="4.6173">
        <ele>1184.9</ele>
        <time>1970-01-01T03:27:37.000Z</time>
      </trkpt>
      <trkpt lat="45.41372" lon="4.61727">
        <ele>1185.4</ele>
        <time>1970-01-01T03:27:39.000Z</time>
      </trkpt>
      <trkpt lat="45.41374" lon="4.61725">
        <ele>1185.6</ele>
        <time>1970-01-01T03:27:40.000Z</time>
      </trkpt>
      <trkpt lat="45.41378" lon="4.6172">
        <ele>1185.9</ele>
        <time>1970-01-01T03:27:42.000Z</time>
      </trkpt>
      <trkpt lat="45.41383" lon="4.61715">
        <ele>1186.1</ele>
        <time>1970-01-01T03:27:44.000Z</time>
      </trkpt>
      <trkpt lat="45.41385" lon="4.61714">
        <ele>1186.2</ele>
        <time>1970-01-01T03:27:45.000Z</time>
      </trkpt>
      <trkpt lat="45.41388" lon="4.6171">
        <ele>1186.5</ele>
        <time>1970-01-01T03:27:47.000Z</time>
      </trkpt>
      <trkpt lat="45.41391" lon="4.61709">
        <ele>1186.9</ele>
        <time>1970-01-01T03:27:48.000Z</time>
      </trkpt>
      <trkpt lat="45.41394" lon="4.61707">
        <ele>1187.3</ele>
        <time>1970-01-01T03:27:49.000Z</time>
      </trkpt>
      <trkpt lat="45.41397" lon="4.61706">
        <ele>1187.7</ele>
        <time>1970-01-01T03:27:50.000Z</time>
      </trkpt>
      <trkpt lat="45.41399" lon="4.61703">
        <ele>1188</ele>
        <time>1970-01-01T03:27:51.000Z</time>
      </trkpt>
      <trkpt lat="45.41402" lon="4.61701">
        <ele>1188.2</ele>
        <time>1970-01-01T03:27:52.000Z</time>
      </trkpt>
      <trkpt lat="45.41404" lon="4.61698">
        <ele>1188.3</ele>
        <time>1970-01-01T03:27:53.000Z</time>
      </trkpt>
      <trkpt lat="45.41407" lon="4.61697">
        <ele>1188.4</ele>
        <time>1970-01-01T03:27:54.000Z</time>
      </trkpt>
      <trkpt lat="45.4141" lon="4.61696">
        <ele>1188.4</ele>
        <time>1970-01-01T03:27:55.000Z</time>
      </trkpt>
      <trkpt lat="45.41414" lon="4.61694">
        <ele>1188.6</ele>
        <time>1970-01-01T03:27:57.000Z</time>
      </trkpt>
      <trkpt lat="45.41419" lon="4.61693">
        <ele>1188.9</ele>
        <time>1970-01-01T03:27:59.000Z</time>
      </trkpt>
      <trkpt lat="45.41422" lon="4.61693">
        <ele>1189.2</ele>
        <time>1970-01-01T03:28:01.000Z</time>
      </trkpt>
      <trkpt lat="45.41427" lon="4.61692">
        <ele>1189.9</ele>
        <time>1970-01-01T03:28:03.000Z</time>
      </trkpt>
      <trkpt lat="45.41433" lon="4.6169">
        <ele>1190.3</ele>
        <time>1970-01-01T03:28:05.000Z</time>
      </trkpt>
      <trkpt lat="45.41436" lon="4.61689">
        <ele>1190.4</ele>
        <time>1970-01-01T03:28:06.000Z</time>
      </trkpt>
      <trkpt lat="45.4144" lon="4.6169">
        <ele>1190.5</ele>
        <time>1970-01-01T03:28:08.000Z</time>
      </trkpt>
      <trkpt lat="45.41443" lon="4.6169">
        <ele>1190.6</ele>
        <time>1970-01-01T03:28:09.000Z</time>
      </trkpt>
      <trkpt lat="45.41447" lon="4.61688">
        <ele>1190.9</ele>
        <time>1970-01-01T03:28:11.000Z</time>
      </trkpt>
      <trkpt lat="45.41452" lon="4.61687">
        <ele>1191.4</ele>
        <time>1970-01-01T03:28:13.000Z</time>
      </trkpt>
      <trkpt lat="45.41457" lon="4.61685">
        <ele>1192</ele>
        <time>1970-01-01T03:28:15.000Z</time>
      </trkpt>
      <trkpt lat="45.41462" lon="4.61684">
        <ele>1192.3</ele>
        <time>1970-01-01T03:28:17.000Z</time>
      </trkpt>
      <trkpt lat="45.41464" lon="4.61684">
        <ele>1192.5</ele>
        <time>1970-01-01T03:28:18.000Z</time>
      </trkpt>
      <trkpt lat="45.41467" lon="4.61684">
        <ele>1192.5</ele>
        <time>1970-01-01T03:28:19.000Z</time>
      </trkpt>
      <trkpt lat="45.41472" lon="4.61684">
        <ele>1192.6</ele>
        <time>1970-01-01T03:28:21.000Z</time>
      </trkpt>
      <trkpt lat="45.41477" lon="4.61682">
        <ele>1192.8</ele>
        <time>1970-01-01T03:28:23.000Z</time>
      </trkpt>
      <trkpt lat="45.41481" lon="4.61681">
        <ele>1193.1</ele>
        <time>1970-01-01T03:28:25.000Z</time>
      </trkpt>
      <trkpt lat="45.41486" lon="4.61681">
        <ele>1193.8</ele>
        <time>1970-01-01T03:28:27.000Z</time>
      </trkpt>
      <trkpt lat="45.4149" lon="4.61679">
        <ele>1194.4</ele>
        <time>1970-01-01T03:28:29.000Z</time>
      </trkpt>
      <trkpt lat="45.41496" lon="4.61676">
        <ele>1194.8</ele>
        <time>1970-01-01T03:28:31.000Z</time>
      </trkpt>
      <trkpt lat="45.41498" lon="4.61674">
        <ele>1194.9</ele>
        <time>1970-01-01T03:28:32.000Z</time>
      </trkpt>
      <trkpt lat="45.41502" lon="4.61674">
        <ele>1195.1</ele>
        <time>1970-01-01T03:28:34.000Z</time>
      </trkpt>
      <trkpt lat="45.41507" lon="4.61671">
        <ele>1195.5</ele>
        <time>1970-01-01T03:28:36.000Z</time>
      </trkpt>
      <trkpt lat="45.41509" lon="4.61669">
        <ele>1196.1</ele>
        <time>1970-01-01T03:28:37.000Z</time>
      </trkpt>
      <trkpt lat="45.41514" lon="4.61665">
        <ele>1196.7</ele>
        <time>1970-01-01T03:28:39.000Z</time>
      </trkpt>
      <trkpt lat="45.41517" lon="4.61661">
        <ele>1197</ele>
        <time>1970-01-01T03:28:41.000Z</time>
      </trkpt>
      <trkpt lat="45.41521" lon="4.6166">
        <ele>1197.1</ele>
        <time>1970-01-01T03:28:43.000Z</time>
      </trkpt>
      <trkpt lat="45.41524" lon="4.61657">
        <ele>1197.4</ele>
        <time>1970-01-01T03:28:45.000Z</time>
      </trkpt>
      <trkpt lat="45.41528" lon="4.61655">
        <ele>1197.8</ele>
        <time>1970-01-01T03:28:47.000Z</time>
      </trkpt>
      <trkpt lat="45.41532" lon="4.61651">
        <ele>1198.4</ele>
        <time>1970-01-01T03:28:49.000Z</time>
      </trkpt>
      <trkpt lat="45.41534" lon="4.61649">
        <ele>1198.7</ele>
        <time>1970-01-01T03:28:50.000Z</time>
      </trkpt>
      <trkpt lat="45.41538" lon="4.61647">
        <ele>1198.9</ele>
        <time>1970-01-01T03:28:52.000Z</time>
      </trkpt>
      <trkpt lat="45.41541" lon="4.61646">
        <ele>1199.1</ele>
        <time>1970-01-01T03:28:54.000Z</time>
      </trkpt>
      <trkpt lat="45.41545" lon="4.61643">
        <ele>1199.2</ele>
        <time>1970-01-01T03:28:57.000Z</time>
      </trkpt>
      <trkpt lat="45.41548" lon="4.6164">
        <ele>1199.3</ele>
        <time>1970-01-01T03:28:59.000Z</time>
      </trkpt>
      <trkpt lat="45.41552" lon="4.61638">
        <ele>1199.6</ele>
        <time>1970-01-01T03:29:01.000Z</time>
      </trkpt>
      <trkpt lat="45.41556" lon="4.61634">
        <ele>1200.1</ele>
        <time>1970-01-01T03:29:03.000Z</time>
      </trkpt>
      <trkpt lat="45.41559" lon="4.61633">
        <ele>1200.5</ele>
        <time>1970-01-01T03:29:04.000Z</time>
      </trkpt>
      <trkpt lat="45.41562" lon="4.6163">
        <ele>1200.8</ele>
        <time>1970-01-01T03:29:05.000Z</time>
      </trkpt>
      <trkpt lat="45.41564" lon="4.61627">
        <ele>1201.1</ele>
        <time>1970-01-01T03:29:06.000Z</time>
      </trkpt>
      <trkpt lat="45.41568" lon="4.61624">
        <ele>1201.3</ele>
        <time>1970-01-01T03:29:08.000Z</time>
      </trkpt>
      <trkpt lat="45.41571" lon="4.61623">
        <ele>1201.4</ele>
        <time>1970-01-01T03:29:09.000Z</time>
      </trkpt>
      <trkpt lat="45.41574" lon="4.61621">
        <ele>1201.5</ele>
        <time>1970-01-01T03:29:10.000Z</time>
      </trkpt>
      <trkpt lat="45.41577" lon="4.61619">
        <ele>1201.5</ele>
        <time>1970-01-01T03:29:11.000Z</time>
      </trkpt>
      <trkpt lat="45.41579" lon="4.61617">
        <ele>1201.5</ele>
        <time>1970-01-01T03:29:12.000Z</time>
      </trkpt>
      <trkpt lat="45.41581" lon="4.61613">
        <ele>1201.5</ele>
        <time>1970-01-01T03:29:13.000Z</time>
      </trkpt>
      <trkpt lat="45.41583" lon="4.6161">
        <ele>1201.5</ele>
        <time>1970-01-01T03:29:14.000Z</time>
      </trkpt>
      <trkpt lat="45.41586" lon="4.61605">
        <ele>1201.7</ele>
        <time>1970-01-01T03:29:16.000Z</time>
      </trkpt>
      <trkpt lat="45.41588" lon="4.61602">
        <ele>1201.8</ele>
        <time>1970-01-01T03:29:17.000Z</time>
      </trkpt>
      <trkpt lat="45.41591" lon="4.61598">
        <ele>1202.1</ele>
        <time>1970-01-01T03:29:18.000Z</time>
      </trkpt>
      <trkpt lat="45.41592" lon="4.61595">
        <ele>1202.3</ele>
        <time>1970-01-01T03:29:19.000Z</time>
      </trkpt>
      <trkpt lat="45.41594" lon="4.61591">
        <ele>1202.7</ele>
        <time>1970-01-01T03:29:20.000Z</time>
      </trkpt>
      <trkpt lat="45.41596" lon="4.61588">
        <ele>1203</ele>
        <time>1970-01-01T03:29:21.000Z</time>
      </trkpt>
      <trkpt lat="45.41597" lon="4.61585">
        <ele>1203.2</ele>
        <time>1970-01-01T03:29:22.000Z</time>
      </trkpt>
      <trkpt lat="45.41601" lon="4.6158">
        <ele>1203.4</ele>
        <time>1970-01-01T03:29:24.000Z</time>
      </trkpt>
      <trkpt lat="45.41602" lon="4.61576">
        <ele>1203.5</ele>
        <time>1970-01-01T03:29:25.000Z</time>
      </trkpt>
      <trkpt lat="45.41605" lon="4.6157">
        <ele>1203.6</ele>
        <time>1970-01-01T03:29:27.000Z</time>
      </trkpt>
      <trkpt lat="45.41608" lon="4.61566">
        <ele>1203.6</ele>
        <time>1970-01-01T03:29:28.000Z</time>
      </trkpt>
      <trkpt lat="45.41611" lon="4.61564">
        <ele>1203.7</ele>
        <time>1970-01-01T03:29:29.000Z</time>
      </trkpt>
      <trkpt lat="45.41613" lon="4.6156">
        <ele>1203.8</ele>
        <time>1970-01-01T03:29:31.000Z</time>
      </trkpt>
      <trkpt lat="45.41616" lon="4.61557">
        <ele>1204.1</ele>
        <time>1970-01-01T03:29:33.000Z</time>
      </trkpt>
      <trkpt lat="45.41619" lon="4.61551">
        <ele>1204.8</ele>
        <time>1970-01-01T03:29:35.000Z</time>
      </trkpt>
      <trkpt lat="45.41622" lon="4.61548">
        <ele>1205.3</ele>
        <time>1970-01-01T03:29:37.000Z</time>
      </trkpt>
      <trkpt lat="45.41622" lon="4.61543">
        <ele>1205.6</ele>
        <time>1970-01-01T03:29:39.000Z</time>
      </trkpt>
      <trkpt lat="45.41619" lon="4.61543">
        <ele>1205.6</ele>
        <time>1970-01-01T03:29:49.000Z</time>
      </trkpt>
      <trkpt lat="45.41615" lon="4.61545">
        <ele>1205.2</ele>
        <time>1970-01-01T03:29:51.000Z</time>
      </trkpt>
      <trkpt lat="45.41611" lon="4.61547">
        <ele>1204.6</ele>
        <time>1970-01-01T03:29:53.000Z</time>
      </trkpt>
      <trkpt lat="45.41607" lon="4.61549">
        <ele>1204.1</ele>
        <time>1970-01-01T03:29:55.000Z</time>
      </trkpt>
      <trkpt lat="45.41604" lon="4.61553">
        <ele>1203.8</ele>
        <time>1970-01-01T03:29:58.000Z</time>
      </trkpt>
      <trkpt lat="45.41601" lon="4.6155">
        <ele>1204.4</ele>
        <time>1970-01-01T03:30:01.000Z</time>
      </trkpt>
      <trkpt lat="45.41598" lon="4.61552">
        <ele>1205.2</ele>
        <time>1970-01-01T03:30:02.000Z</time>
      </trkpt>
      <trkpt lat="45.41596" lon="4.61554">
        <ele>1205.7</ele>
        <time>1970-01-01T03:30:03.000Z</time>
      </trkpt>
      <trkpt lat="45.41594" lon="4.61557">
        <ele>1206</ele>
        <time>1970-01-01T03:30:04.000Z</time>
      </trkpt>
      <trkpt lat="45.4159" lon="4.61559">
        <ele>1207.1</ele>
        <time>1970-01-01T03:30:06.000Z</time>
      </trkpt>
      <trkpt lat="45.41587" lon="4.61562">
        <ele>1207.8</ele>
        <time>1970-01-01T03:30:10.000Z</time>
      </trkpt>
      <trkpt lat="45.41584" lon="4.61563">
        <ele>1208.2</ele>
        <time>1970-01-01T03:30:12.000Z</time>
      </trkpt>
      <trkpt lat="45.41581" lon="4.61565">
        <ele>1208.9</ele>
        <time>1970-01-01T03:30:13.000Z</time>
      </trkpt>
      <trkpt lat="45.41577" lon="4.61566">
        <ele>1210</ele>
        <time>1970-01-01T03:30:16.000Z</time>
      </trkpt>
      <trkpt lat="45.41572" lon="4.61569">
        <ele>1210.5</ele>
        <time>1970-01-01T03:30:18.000Z</time>
      </trkpt>
      <trkpt lat="45.41569" lon="4.61569">
        <ele>1211</ele>
        <time>1970-01-01T03:30:20.000Z</time>
      </trkpt>
      <trkpt lat="45.41565" lon="4.61571">
        <ele>1211.8</ele>
        <time>1970-01-01T03:30:23.000Z</time>
      </trkpt>
      <trkpt lat="45.41563" lon="4.61574">
        <ele>1212.2</ele>
        <time>1970-01-01T03:30:24.000Z</time>
      </trkpt>
      <trkpt lat="45.41561" lon="4.61576">
        <ele>1212.4</ele>
        <time>1970-01-01T03:30:26.000Z</time>
      </trkpt>
      <trkpt lat="45.4156" lon="4.61581">
        <ele>1212.5</ele>
        <time>1970-01-01T03:30:29.000Z</time>
      </trkpt>
      <trkpt lat="45.41563" lon="4.61582">
        <ele>1212.4</ele>
        <time>1970-01-01T03:30:35.000Z</time>
      </trkpt>
      <trkpt lat="45.41565" lon="4.61577">
        <ele>1212.4</ele>
        <time>1970-01-01T03:30:39.000Z</time>
      </trkpt>
      <trkpt lat="45.41568" lon="4.61574">
        <ele>1212.3</ele>
        <time>1970-01-01T03:30:43.000Z</time>
      </trkpt>
      <trkpt lat="45.41568" lon="4.6157">
        <ele>1212.1</ele>
        <time>1970-01-01T03:30:46.000Z</time>
      </trkpt>
      <trkpt lat="45.4157" lon="4.61567">
        <ele>1212</ele>
        <time>1970-01-01T03:30:49.000Z</time>
      </trkpt>
      <trkpt lat="45.41573" lon="4.61562">
        <ele>1211.5</ele>
        <time>1970-01-01T03:30:52.000Z</time>
      </trkpt>
      <trkpt lat="45.41575" lon="4.61559">
        <ele>1211.2</ele>
        <time>1970-01-01T03:30:54.000Z</time>
      </trkpt>
      <trkpt lat="45.41578" lon="4.61555">
        <ele>1210.7</ele>
        <time>1970-01-01T03:30:58.000Z</time>
      </trkpt>
      <trkpt lat="45.41578" lon="4.6155">
        <ele>1212.9</ele>
        <time>1970-01-01T03:31:01.000Z</time>
      </trkpt>
      <trkpt lat="45.41575" lon="4.61546">
        <ele>1215.5</ele>
        <time>1970-01-01T03:31:03.000Z</time>
      </trkpt>
      <trkpt lat="45.41571" lon="4.61543">
        <ele>1218.2</ele>
        <time>1970-01-01T03:31:05.000Z</time>
      </trkpt>
      <trkpt lat="45.41567" lon="4.61541">
        <ele>1221</ele>
        <time>1970-01-01T03:31:08.000Z</time>
      </trkpt>
      <trkpt lat="45.41564" lon="4.61542">
        <ele>1221.5</ele>
        <time>1970-01-01T03:31:13.000Z</time>
      </trkpt>
      <trkpt lat="45.4156" lon="4.61543">
        <ele>1222.4</ele>
        <time>1970-01-01T03:31:16.000Z</time>
      </trkpt>
      <trkpt lat="45.41556" lon="4.61543">
        <ele>1223.1</ele>
        <time>1970-01-01T03:31:19.000Z</time>
      </trkpt>
      <trkpt lat="45.41552" lon="4.61544">
        <ele>1223.8</ele>
        <time>1970-01-01T03:31:21.000Z</time>
      </trkpt>
      <trkpt lat="45.41549" lon="4.61544">
        <ele>1224.3</ele>
        <time>1970-01-01T03:31:23.000Z</time>
      </trkpt>
      <trkpt lat="45.41545" lon="4.61545">
        <ele>1225.4</ele>
        <time>1970-01-01T03:31:26.000Z</time>
      </trkpt>
      <trkpt lat="45.41543" lon="4.61543">
        <ele>1226.2</ele>
        <time>1970-01-01T03:31:30.000Z</time>
      </trkpt>
      <trkpt lat="45.41539" lon="4.6154">
        <ele>1227</ele>
        <time>1970-01-01T03:31:34.000Z</time>
      </trkpt>
      <trkpt lat="45.41537" lon="4.61542">
        <ele>1227.5</ele>
        <time>1970-01-01T03:31:39.000Z</time>
      </trkpt>
      <trkpt lat="45.41534" lon="4.61542">
        <ele>1227.9</ele>
        <time>1970-01-01T03:31:42.000Z</time>
      </trkpt>
      <trkpt lat="45.4153" lon="4.61543">
        <ele>1228.4</ele>
        <time>1970-01-01T03:31:45.000Z</time>
      </trkpt>
      <trkpt lat="45.41527" lon="4.61544">
        <ele>1229</ele>
        <time>1970-01-01T03:31:48.000Z</time>
      </trkpt>
      <trkpt lat="45.41524" lon="4.61546">
        <ele>1229.5</ele>
        <time>1970-01-01T03:31:51.000Z</time>
      </trkpt>
      <trkpt lat="45.4152" lon="4.61548">
        <ele>1230.3</ele>
        <time>1970-01-01T03:31:54.000Z</time>
      </trkpt>
      <trkpt lat="45.41517" lon="4.6155">
        <ele>1231.1</ele>
        <time>1970-01-01T03:31:56.000Z</time>
      </trkpt>
      <trkpt lat="45.41514" lon="4.61551">
        <ele>1231.8</ele>
        <time>1970-01-01T03:31:58.000Z</time>
      </trkpt>
      <trkpt lat="45.41511" lon="4.61552">
        <ele>1232.1</ele>
        <time>1970-01-01T03:31:59.000Z</time>
      </trkpt>
      <trkpt lat="45.41506" lon="4.61554">
        <ele>1232.8</ele>
        <time>1970-01-01T03:32:01.000Z</time>
      </trkpt>
      <trkpt lat="45.41502" lon="4.61554">
        <ele>1233.5</ele>
        <time>1970-01-01T03:32:03.000Z</time>
      </trkpt>
      <trkpt lat="45.41499" lon="4.61554">
        <ele>1234</ele>
        <time>1970-01-01T03:32:05.000Z</time>
      </trkpt>
      <trkpt lat="45.41496" lon="4.61555">
        <ele>1234.4</ele>
        <time>1970-01-01T03:32:08.000Z</time>
      </trkpt>
      <trkpt lat="45.41493" lon="4.61557">
        <ele>1234.8</ele>
        <time>1970-01-01T03:32:10.000Z</time>
      </trkpt>
      <trkpt lat="45.4149" lon="4.61557">
        <ele>1235.6</ele>
        <time>1970-01-01T03:32:15.000Z</time>
      </trkpt>
      <trkpt lat="45.41487" lon="4.61557">
        <ele>1236.4</ele>
        <time>1970-01-01T03:32:21.000Z</time>
      </trkpt>
      <trkpt lat="45.41484" lon="4.61556">
        <ele>1237.1</ele>
        <time>1970-01-01T03:32:23.000Z</time>
      </trkpt>
      <trkpt lat="45.41479" lon="4.61557">
        <ele>1238.3</ele>
        <time>1970-01-01T03:32:25.000Z</time>
      </trkpt>
      <trkpt lat="45.41476" lon="4.61559">
        <ele>1238.6</ele>
        <time>1970-01-01T03:32:28.000Z</time>
      </trkpt>
      <trkpt lat="45.41473" lon="4.61559">
        <ele>1238.8</ele>
        <time>1970-01-01T03:32:31.000Z</time>
      </trkpt>
      <trkpt lat="45.41471" lon="4.61565">
        <ele>1250.3</ele>
        <time>1970-01-01T03:32:33.000Z</time>
      </trkpt>
      <trkpt lat="45.41474" lon="4.61562">
        <ele>1251.3</ele>
        <time>1970-01-01T03:32:39.000Z</time>
      </trkpt>
      <trkpt lat="45.41476" lon="4.6156">
        <ele>1252.2</ele>
        <time>1970-01-01T03:32:41.000Z</time>
      </trkpt>
      <trkpt lat="45.41479" lon="4.61556">
        <ele>1253.6</ele>
        <time>1970-01-01T03:32:44.000Z</time>
      </trkpt>
      <trkpt lat="45.41482" lon="4.61553">
        <ele>1255.1</ele>
        <time>1970-01-01T03:32:47.000Z</time>
      </trkpt>
      <trkpt lat="45.41485" lon="4.61551">
        <ele>1256.5</ele>
        <time>1970-01-01T03:32:49.000Z</time>
      </trkpt>
      <trkpt lat="45.41487" lon="4.61547">
        <ele>1257.7</ele>
        <time>1970-01-01T03:32:51.000Z</time>
      </trkpt>
      <trkpt lat="45.41491" lon="4.61545">
        <ele>1259.3</ele>
        <time>1970-01-01T03:32:53.000Z</time>
      </trkpt>
      <trkpt lat="45.41495" lon="4.6154">
        <ele>1259.2</ele>
        <time>1970-01-01T03:32:55.000Z</time>
      </trkpt>
      <trkpt lat="45.41498" lon="4.61538">
        <ele>1258.4</ele>
        <time>1970-01-01T03:32:56.000Z</time>
      </trkpt>
      <trkpt lat="45.41501" lon="4.61534">
        <ele>1257.2</ele>
        <time>1970-01-01T03:32:58.000Z</time>
      </trkpt>
      <trkpt lat="45.41505" lon="4.6153">
        <ele>1255.8</ele>
        <time>1970-01-01T03:33:00.000Z</time>
      </trkpt>
      <trkpt lat="45.41509" lon="4.61525">
        <ele>1254</ele>
        <time>1970-01-01T03:33:02.000Z</time>
      </trkpt>
      <trkpt lat="45.41513" lon="4.6152">
        <ele>1252.6</ele>
        <time>1970-01-01T03:33:04.000Z</time>
      </trkpt>
      <trkpt lat="45.41515" lon="4.61517">
        <ele>1251.8</ele>
        <time>1970-01-01T03:33:05.000Z</time>
      </trkpt>
      <trkpt lat="45.41518" lon="4.61515">
        <ele>1250.9</ele>
        <time>1970-01-01T03:33:06.000Z</time>
      </trkpt>
      <trkpt lat="45.4152" lon="4.61513">
        <ele>1250.2</ele>
        <time>1970-01-01T03:33:07.000Z</time>
      </trkpt>
      <trkpt lat="45.41523" lon="4.6151">
        <ele>1249.6</ele>
        <time>1970-01-01T03:33:08.000Z</time>
      </trkpt>
      <trkpt lat="45.41526" lon="4.61505">
        <ele>1248.7</ele>
        <time>1970-01-01T03:33:10.000Z</time>
      </trkpt>
      <trkpt lat="45.41529" lon="4.615">
        <ele>1247.8</ele>
        <time>1970-01-01T03:33:12.000Z</time>
      </trkpt>
      <trkpt lat="45.41531" lon="4.61495">
        <ele>1247.1</ele>
        <time>1970-01-01T03:33:14.000Z</time>
      </trkpt>
      <trkpt lat="45.41532" lon="4.61491">
        <ele>1246.5</ele>
        <time>1970-01-01T03:33:16.000Z</time>
      </trkpt>
      <trkpt lat="45.41534" lon="4.61488">
        <ele>1246</ele>
        <time>1970-01-01T03:33:18.000Z</time>
      </trkpt>
      <trkpt lat="45.41531" lon="4.61484">
        <ele>1245.3</ele>
        <time>1970-01-01T03:33:22.000Z</time>
      </trkpt>
      <trkpt lat="45.41531" lon="4.61479">
        <ele>1244.9</ele>
        <time>1970-01-01T03:33:30.000Z</time>
      </trkpt>
      <trkpt lat="45.41531" lon="4.61475">
        <ele>1244.5</ele>
        <time>1970-01-01T03:34:00.000Z</time>
      </trkpt>
      <trkpt lat="45.41533" lon="4.61471">
        <ele>1244.1</ele>
        <time>1970-01-01T03:34:21.000Z</time>
      </trkpt>
      <trkpt lat="45.41535" lon="4.61468">
        <ele>1243.5</ele>
        <time>1970-01-01T03:34:22.000Z</time>
      </trkpt>
      <trkpt lat="45.41538" lon="4.61463">
        <ele>1242.7</ele>
        <time>1970-01-01T03:34:24.000Z</time>
      </trkpt>
      <trkpt lat="45.4154" lon="4.61457">
        <ele>1241.9</ele>
        <time>1970-01-01T03:34:26.000Z</time>
      </trkpt>
      <trkpt lat="45.41542" lon="4.61451">
        <ele>1241.3</ele>
        <time>1970-01-01T03:34:27.000Z</time>
      </trkpt>
      <trkpt lat="45.41544" lon="4.61444">
        <ele>1240.6</ele>
        <time>1970-01-01T03:34:28.000Z</time>
      </trkpt>
      <trkpt lat="45.41545" lon="4.61437">
        <ele>1240</ele>
        <time>1970-01-01T03:34:29.000Z</time>
      </trkpt>
      <trkpt lat="45.41546" lon="4.61426">
        <ele>1239.5</ele>
        <time>1970-01-01T03:34:30.000Z</time>
      </trkpt>
      <trkpt lat="45.41545" lon="4.61416">
        <ele>1238.9</ele>
        <time>1970-01-01T03:34:31.000Z</time>
      </trkpt>
      <trkpt lat="45.41542" lon="4.61405">
        <ele>1238.2</ele>
        <time>1970-01-01T03:34:32.000Z</time>
      </trkpt>
      <trkpt lat="45.4154" lon="4.61394">
        <ele>1237.7</ele>
        <time>1970-01-01T03:34:33.000Z</time>
      </trkpt>
      <trkpt lat="45.41537" lon="4.61384">
        <ele>1237</ele>
        <time>1970-01-01T03:34:34.000Z</time>
      </trkpt>
      <trkpt lat="45.41535" lon="4.61373">
        <ele>1236.5</ele>
        <time>1970-01-01T03:34:35.000Z</time>
      </trkpt>
      <trkpt lat="45.41533" lon="4.61361">
        <ele>1235.8</ele>
        <time>1970-01-01T03:34:36.000Z</time>
      </trkpt>
      <trkpt lat="45.41531" lon="4.6135">
        <ele>1235.2</ele>
        <time>1970-01-01T03:34:37.000Z</time>
      </trkpt>
      <trkpt lat="45.41527" lon="4.61339">
        <ele>1234.7</ele>
        <time>1970-01-01T03:34:38.000Z</time>
      </trkpt>
      <trkpt lat="45.41524" lon="4.61327">
        <ele>1234.1</ele>
        <time>1970-01-01T03:34:39.000Z</time>
      </trkpt>
      <trkpt lat="45.41521" lon="4.61315">
        <ele>1233.5</ele>
        <time>1970-01-01T03:34:40.000Z</time>
      </trkpt>
      <trkpt lat="45.41518" lon="4.61303">
        <ele>1232.9</ele>
        <time>1970-01-01T03:34:41.000Z</time>
      </trkpt>
      <trkpt lat="45.41514" lon="4.61291">
        <ele>1232.2</ele>
        <time>1970-01-01T03:34:42.000Z</time>
      </trkpt>
      <trkpt lat="45.41512" lon="4.61279">
        <ele>1231.4</ele>
        <time>1970-01-01T03:34:43.000Z</time>
      </trkpt>
      <trkpt lat="45.41509" lon="4.61266">
        <ele>1230.9</ele>
        <time>1970-01-01T03:34:44.000Z</time>
      </trkpt>
      <trkpt lat="45.41506" lon="4.61254">
        <ele>1230.4</ele>
        <time>1970-01-01T03:34:45.000Z</time>
      </trkpt>
      <trkpt lat="45.41503" lon="4.61242">
        <ele>1229.9</ele>
        <time>1970-01-01T03:34:46.000Z</time>
      </trkpt>
      <trkpt lat="45.41501" lon="4.6123">
        <ele>1229.3</ele>
        <time>1970-01-01T03:34:47.000Z</time>
      </trkpt>
      <trkpt lat="45.41498" lon="4.61218">
        <ele>1228.6</ele>
        <time>1970-01-01T03:34:48.000Z</time>
      </trkpt>
      <trkpt lat="45.41495" lon="4.61207">
        <ele>1227.9</ele>
        <time>1970-01-01T03:34:49.000Z</time>
      </trkpt>
      <trkpt lat="45.4149" lon="4.61196">
        <ele>1227.3</ele>
        <time>1970-01-01T03:34:50.000Z</time>
      </trkpt>
      <trkpt lat="45.41486" lon="4.61185">
        <ele>1226.7</ele>
        <time>1970-01-01T03:34:51.000Z</time>
      </trkpt>
      <trkpt lat="45.41482" lon="4.61173">
        <ele>1225.9</ele>
        <time>1970-01-01T03:34:52.000Z</time>
      </trkpt>
      <trkpt lat="45.41478" lon="4.61161">
        <ele>1225.1</ele>
        <time>1970-01-01T03:34:53.000Z</time>
      </trkpt>
      <trkpt lat="45.41473" lon="4.6115">
        <ele>1224.3</ele>
        <time>1970-01-01T03:34:54.000Z</time>
      </trkpt>
      <trkpt lat="45.41468" lon="4.61139">
        <ele>1223.7</ele>
        <time>1970-01-01T03:34:55.000Z</time>
      </trkpt>
      <trkpt lat="45.41461" lon="4.6113">
        <ele>1223.1</ele>
        <time>1970-01-01T03:34:56.000Z</time>
      </trkpt>
      <trkpt lat="45.41455" lon="4.61121">
        <ele>1222.5</ele>
        <time>1970-01-01T03:34:57.000Z</time>
      </trkpt>
      <trkpt lat="45.41448" lon="4.61111">
        <ele>1221.6</ele>
        <time>1970-01-01T03:34:58.000Z</time>
      </trkpt>
      <trkpt lat="45.4144" lon="4.61102">
        <ele>1220.5</ele>
        <time>1970-01-01T03:34:59.000Z</time>
      </trkpt>
      <trkpt lat="45.41433" lon="4.61092">
        <ele>1219.6</ele>
        <time>1970-01-01T03:35:00.000Z</time>
      </trkpt>
      <trkpt lat="45.41426" lon="4.61082">
        <ele>1218.8</ele>
        <time>1970-01-01T03:35:01.000Z</time>
      </trkpt>
      <trkpt lat="45.41419" lon="4.61072">
        <ele>1218.3</ele>
        <time>1970-01-01T03:35:02.000Z</time>
      </trkpt>
      <trkpt lat="45.41411" lon="4.61062">
        <ele>1217.6</ele>
        <time>1970-01-01T03:35:03.000Z</time>
      </trkpt>
      <trkpt lat="45.41404" lon="4.61053">
        <ele>1216.7</ele>
        <time>1970-01-01T03:35:04.000Z</time>
      </trkpt>
      <trkpt lat="45.41396" lon="4.61045">
        <ele>1215.8</ele>
        <time>1970-01-01T03:35:05.000Z</time>
      </trkpt>
      <trkpt lat="45.41388" lon="4.61037">
        <ele>1214.9</ele>
        <time>1970-01-01T03:35:06.000Z</time>
      </trkpt>
      <trkpt lat="45.41381" lon="4.61028">
        <ele>1213.9</ele>
        <time>1970-01-01T03:35:07.000Z</time>
      </trkpt>
      <trkpt lat="45.41373" lon="4.61017">
        <ele>1212.8</ele>
        <time>1970-01-01T03:35:08.000Z</time>
      </trkpt>
      <trkpt lat="45.41367" lon="4.61007">
        <ele>1211.8</ele>
        <time>1970-01-01T03:35:09.000Z</time>
      </trkpt>
      <trkpt lat="45.41359" lon="4.61">
        <ele>1210.9</ele>
        <time>1970-01-01T03:35:10.000Z</time>
      </trkpt>
      <trkpt lat="45.41351" lon="4.6099">
        <ele>1209.9</ele>
        <time>1970-01-01T03:35:11.000Z</time>
      </trkpt>
      <trkpt lat="45.41343" lon="4.60981">
        <ele>1209.5</ele>
        <time>1970-01-01T03:35:12.000Z</time>
      </trkpt>
      <trkpt lat="45.41334" lon="4.60975">
        <ele>1209.1</ele>
        <time>1970-01-01T03:35:13.000Z</time>
      </trkpt>
      <trkpt lat="45.41327" lon="4.60967">
        <ele>1208.6</ele>
        <time>1970-01-01T03:35:14.000Z</time>
      </trkpt>
      <trkpt lat="45.4132" lon="4.60958">
        <ele>1208</ele>
        <time>1970-01-01T03:35:15.000Z</time>
      </trkpt>
      <trkpt lat="45.41312" lon="4.60948">
        <ele>1207.2</ele>
        <time>1970-01-01T03:35:16.000Z</time>
      </trkpt>
      <trkpt lat="45.41305" lon="4.60937">
        <ele>1206.2</ele>
        <time>1970-01-01T03:35:17.000Z</time>
      </trkpt>
      <trkpt lat="45.41297" lon="4.60926">
        <ele>1205.1</ele>
        <time>1970-01-01T03:35:18.000Z</time>
      </trkpt>
      <trkpt lat="45.41289" lon="4.60917">
        <ele>1204.1</ele>
        <time>1970-01-01T03:35:19.000Z</time>
      </trkpt>
      <trkpt lat="45.41281" lon="4.60907">
        <ele>1202.9</ele>
        <time>1970-01-01T03:35:20.000Z</time>
      </trkpt>
      <trkpt lat="45.41274" lon="4.60897">
        <ele>1201.8</ele>
        <time>1970-01-01T03:35:21.000Z</time>
      </trkpt>
      <trkpt lat="45.41267" lon="4.60888">
        <ele>1201.1</ele>
        <time>1970-01-01T03:35:22.000Z</time>
      </trkpt>
      <trkpt lat="45.41261" lon="4.60877">
        <ele>1200.3</ele>
        <time>1970-01-01T03:35:23.000Z</time>
      </trkpt>
      <trkpt lat="45.41255" lon="4.60866">
        <ele>1199.3</ele>
        <time>1970-01-01T03:35:24.000Z</time>
      </trkpt>
      <trkpt lat="45.41248" lon="4.60855">
        <ele>1197.9</ele>
        <time>1970-01-01T03:35:25.000Z</time>
      </trkpt>
      <trkpt lat="45.4124" lon="4.60845">
        <ele>1196.3</ele>
        <time>1970-01-01T03:35:26.000Z</time>
      </trkpt>
      <trkpt lat="45.41232" lon="4.60836">
        <ele>1194.8</ele>
        <time>1970-01-01T03:35:27.000Z</time>
      </trkpt>
      <trkpt lat="45.41224" lon="4.60826">
        <ele>1193.4</ele>
        <time>1970-01-01T03:35:28.000Z</time>
      </trkpt>
      <trkpt lat="45.41216" lon="4.60817">
        <ele>1192</ele>
        <time>1970-01-01T03:35:29.000Z</time>
      </trkpt>
      <trkpt lat="45.41209" lon="4.60807">
        <ele>1190.7</ele>
        <time>1970-01-01T03:35:30.000Z</time>
      </trkpt>
      <trkpt lat="45.41202" lon="4.60798">
        <ele>1189.5</ele>
        <time>1970-01-01T03:35:31.000Z</time>
      </trkpt>
      <trkpt lat="45.41197" lon="4.60788">
        <ele>1188.1</ele>
        <time>1970-01-01T03:35:32.000Z</time>
      </trkpt>
      <trkpt lat="45.4119" lon="4.60778">
        <ele>1186.2</ele>
        <time>1970-01-01T03:35:33.000Z</time>
      </trkpt>
      <trkpt lat="45.41184" lon="4.6077">
        <ele>1183.9</ele>
        <time>1970-01-01T03:35:34.000Z</time>
      </trkpt>
      <trkpt lat="45.41179" lon="4.60766">
        <ele>1182.5</ele>
        <time>1970-01-01T03:35:35.000Z</time>
      </trkpt>
      <trkpt lat="45.41177" lon="4.60764">
        <ele>1181.7</ele>
        <time>1970-01-01T03:35:36.000Z</time>
      </trkpt>
      <trkpt lat="45.41177" lon="4.60759">
        <ele>1181</ele>
        <time>1970-01-01T03:35:37.000Z</time>
      </trkpt>
      <trkpt lat="45.41178" lon="4.60753">
        <ele>1179.7</ele>
        <time>1970-01-01T03:35:38.000Z</time>
      </trkpt>
      <trkpt lat="45.41181" lon="4.60745">
        <ele>1176.1</ele>
        <time>1970-01-01T03:35:39.000Z</time>
      </trkpt>
      <trkpt lat="45.41182" lon="4.60737">
        <ele>1175.8</ele>
        <time>1970-01-01T03:35:40.000Z</time>
      </trkpt>
      <trkpt lat="45.4118" lon="4.60729">
        <ele>1175.6</ele>
        <time>1970-01-01T03:35:41.000Z</time>
      </trkpt>
      <trkpt lat="45.41178" lon="4.60722">
        <ele>1173.4</ele>
        <time>1970-01-01T03:35:42.000Z</time>
      </trkpt>
      <trkpt lat="45.41176" lon="4.60715">
        <ele>1171.7</ele>
        <time>1970-01-01T03:35:43.000Z</time>
      </trkpt>
      <trkpt lat="45.41178" lon="4.60711">
        <ele>1171.7</ele>
        <time>1970-01-01T03:35:44.000Z</time>
      </trkpt>
      <trkpt lat="45.41181" lon="4.60708">
        <ele>1171.7</ele>
        <time>1970-01-01T03:35:45.000Z</time>
      </trkpt>
      <trkpt lat="45.41182" lon="4.60704">
        <ele>1170.8</ele>
        <time>1970-01-01T03:35:46.000Z</time>
      </trkpt>
      <trkpt lat="45.41182" lon="4.60698">
        <ele>1169.9</ele>
        <time>1970-01-01T03:35:47.000Z</time>
      </trkpt>
      <trkpt lat="45.41183" lon="4.60691">
        <ele>1169.1</ele>
        <time>1970-01-01T03:35:48.000Z</time>
      </trkpt>
      <trkpt lat="45.41184" lon="4.60687">
        <ele>1168.1</ele>
        <time>1970-01-01T03:35:49.000Z</time>
      </trkpt>
      <trkpt lat="45.41187" lon="4.60679">
        <ele>1167.6</ele>
        <time>1970-01-01T03:35:51.000Z</time>
      </trkpt>
      <trkpt lat="45.41187" lon="4.60674">
        <ele>1165.6</ele>
        <time>1970-01-01T03:35:52.000Z</time>
      </trkpt>
      <trkpt lat="45.41186" lon="4.60667">
        <ele>1164.5</ele>
        <time>1970-01-01T03:35:53.000Z</time>
      </trkpt>
      <trkpt lat="45.41187" lon="4.6066">
        <ele>1162.8</ele>
        <time>1970-01-01T03:35:55.000Z</time>
      </trkpt>
      <trkpt lat="45.41187" lon="4.60652">
        <ele>1161.1</ele>
        <time>1970-01-01T03:35:57.000Z</time>
      </trkpt>
      <trkpt lat="45.41188" lon="4.60648">
        <ele>1160.1</ele>
        <time>1970-01-01T03:35:58.000Z</time>
      </trkpt>
      <trkpt lat="45.41189" lon="4.60644">
        <ele>1159.3</ele>
        <time>1970-01-01T03:35:59.000Z</time>
      </trkpt>
      <trkpt lat="45.41191" lon="4.60637">
        <ele>1159.1</ele>
        <time>1970-01-01T03:36:00.000Z</time>
      </trkpt>
      <trkpt lat="45.41191" lon="4.6063">
        <ele>1158</ele>
        <time>1970-01-01T03:36:01.000Z</time>
      </trkpt>
      <trkpt lat="45.41192" lon="4.60625">
        <ele>1157.2</ele>
        <time>1970-01-01T03:36:02.000Z</time>
      </trkpt>
      <trkpt lat="45.41193" lon="4.6062">
        <ele>1156.9</ele>
        <time>1970-01-01T03:36:03.000Z</time>
      </trkpt>
      <trkpt lat="45.41193" lon="4.60615">
        <ele>1156.1</ele>
        <time>1970-01-01T03:36:04.000Z</time>
      </trkpt>
      <trkpt lat="45.41193" lon="4.6061">
        <ele>1154.8</ele>
        <time>1970-01-01T03:36:05.000Z</time>
      </trkpt>
      <trkpt lat="45.41193" lon="4.60604">
        <ele>1153.8</ele>
        <time>1970-01-01T03:36:06.000Z</time>
      </trkpt>
      <trkpt lat="45.4119" lon="4.60602">
        <ele>1152.9</ele>
        <time>1970-01-01T03:36:08.000Z</time>
      </trkpt>
      <trkpt lat="45.41191" lon="4.60594">
        <ele>1150.9</ele>
        <time>1970-01-01T03:36:11.000Z</time>
      </trkpt>
      <trkpt lat="45.41193" lon="4.60587">
        <ele>1149.4</ele>
        <time>1970-01-01T03:36:12.000Z</time>
      </trkpt>
      <trkpt lat="45.41196" lon="4.60579">
        <ele>1148.1</ele>
        <time>1970-01-01T03:36:13.000Z</time>
      </trkpt>
      <trkpt lat="45.41198" lon="4.60569">
        <ele>1146.6</ele>
        <time>1970-01-01T03:36:14.000Z</time>
      </trkpt>
      <trkpt lat="45.412" lon="4.60558">
        <ele>1144.1</ele>
        <time>1970-01-01T03:36:15.000Z</time>
      </trkpt>
      <trkpt lat="45.41201" lon="4.60543">
        <ele>1142.4</ele>
        <time>1970-01-01T03:36:16.000Z</time>
      </trkpt>
      <trkpt lat="45.412" lon="4.60531">
        <ele>1140.8</ele>
        <time>1970-01-01T03:36:17.000Z</time>
      </trkpt>
      <trkpt lat="45.41201" lon="4.60521">
        <ele>1140.1</ele>
        <time>1970-01-01T03:36:18.000Z</time>
      </trkpt>
      <trkpt lat="45.41203" lon="4.60518">
        <ele>1139.1</ele>
        <time>1970-01-01T03:36:20.000Z</time>
      </trkpt>
      <trkpt lat="45.41208" lon="4.60509">
        <ele>1138.3</ele>
        <time>1970-01-01T03:36:22.000Z</time>
      </trkpt>
      <trkpt lat="45.41208" lon="4.60502">
        <ele>1136.8</ele>
        <time>1970-01-01T03:36:23.000Z</time>
      </trkpt>
      <trkpt lat="45.41206" lon="4.60498">
        <ele>1135.6</ele>
        <time>1970-01-01T03:36:24.000Z</time>
      </trkpt>
      <trkpt lat="45.41204" lon="4.60496">
        <ele>1135.3</ele>
        <time>1970-01-01T03:36:25.000Z</time>
      </trkpt>
      <trkpt lat="45.412" lon="4.60495">
        <ele>1133.9</ele>
        <time>1970-01-01T03:36:26.000Z</time>
      </trkpt>
      <trkpt lat="45.41198" lon="4.6049">
        <ele>1132.6</ele>
        <time>1970-01-01T03:36:27.000Z</time>
      </trkpt>
      <trkpt lat="45.41198" lon="4.60483">
        <ele>1131.2</ele>
        <time>1970-01-01T03:36:28.000Z</time>
      </trkpt>
      <trkpt lat="45.41196" lon="4.60475">
        <ele>1129.9</ele>
        <time>1970-01-01T03:36:29.000Z</time>
      </trkpt>
      <trkpt lat="45.41191" lon="4.6047">
        <ele>1128</ele>
        <time>1970-01-01T03:36:30.000Z</time>
      </trkpt>
      <trkpt lat="45.41188" lon="4.60464">
        <ele>1126.1</ele>
        <time>1970-01-01T03:36:31.000Z</time>
      </trkpt>
      <trkpt lat="45.41189" lon="4.60458">
        <ele>1125.7</ele>
        <time>1970-01-01T03:36:32.000Z</time>
      </trkpt>
      <trkpt lat="45.41192" lon="4.60452">
        <ele>1124.8</ele>
        <time>1970-01-01T03:36:33.000Z</time>
      </trkpt>
      <trkpt lat="45.41193" lon="4.60438">
        <ele>1122.6</ele>
        <time>1970-01-01T03:36:34.000Z</time>
      </trkpt>
      <trkpt lat="45.41192" lon="4.60428">
        <ele>1120.8</ele>
        <time>1970-01-01T03:36:35.000Z</time>
      </trkpt>
      <trkpt lat="45.41188" lon="4.60422">
        <ele>1119.6</ele>
        <time>1970-01-01T03:36:36.000Z</time>
      </trkpt>
      <trkpt lat="45.41184" lon="4.6042">
        <ele>1118.2</ele>
        <time>1970-01-01T03:36:37.000Z</time>
      </trkpt>
      <trkpt lat="45.41182" lon="4.60414">
        <ele>1116.7</ele>
        <time>1970-01-01T03:36:38.000Z</time>
      </trkpt>
      <trkpt lat="45.41182" lon="4.60408">
        <ele>1115.1</ele>
        <time>1970-01-01T03:36:39.000Z</time>
      </trkpt>
      <trkpt lat="45.41181" lon="4.60402">
        <ele>1114</ele>
        <time>1970-01-01T03:36:40.000Z</time>
      </trkpt>
      <trkpt lat="45.4118" lon="4.60398">
        <ele>1112.3</ele>
        <time>1970-01-01T03:36:41.000Z</time>
      </trkpt>
      <trkpt lat="45.41178" lon="4.60394">
        <ele>1111.3</ele>
        <time>1970-01-01T03:36:42.000Z</time>
      </trkpt>
      <trkpt lat="45.41177" lon="4.60388">
        <ele>1109.8</ele>
        <time>1970-01-01T03:36:43.000Z</time>
      </trkpt>
      <trkpt lat="45.41176" lon="4.60382">
        <ele>1108</ele>
        <time>1970-01-01T03:36:44.000Z</time>
      </trkpt>
      <trkpt lat="45.41176" lon="4.60377">
        <ele>1106.8</ele>
        <time>1970-01-01T03:36:45.000Z</time>
      </trkpt>
      <trkpt lat="45.41175" lon="4.60373">
        <ele>1105.7</ele>
        <time>1970-01-01T03:36:46.000Z</time>
      </trkpt>
      <trkpt lat="45.41172" lon="4.60366">
        <ele>1103.9</ele>
        <time>1970-01-01T03:36:48.000Z</time>
      </trkpt>
      <trkpt lat="45.41173" lon="4.60362">
        <ele>1102.8</ele>
        <time>1970-01-01T03:36:49.000Z</time>
      </trkpt>
      <trkpt lat="45.41173" lon="4.60355">
        <ele>1101.3</ele>
        <time>1970-01-01T03:36:50.000Z</time>
      </trkpt>
      <trkpt lat="45.41171" lon="4.60348">
        <ele>1099.8</ele>
        <time>1970-01-01T03:36:51.000Z</time>
      </trkpt>
      <trkpt lat="45.41168" lon="4.60341">
        <ele>1098.5</ele>
        <time>1970-01-01T03:36:52.000Z</time>
      </trkpt>
      <trkpt lat="45.41168" lon="4.60334">
        <ele>1097.5</ele>
        <time>1970-01-01T03:36:53.000Z</time>
      </trkpt>
      <trkpt lat="45.4117" lon="4.60324">
        <ele>1096.5</ele>
        <time>1970-01-01T03:36:54.000Z</time>
      </trkpt>
      <trkpt lat="45.41169" lon="4.60317">
        <ele>1095.5</ele>
        <time>1970-01-01T03:36:55.000Z</time>
      </trkpt>
      <trkpt lat="45.41165" lon="4.60313">
        <ele>1094.3</ele>
        <time>1970-01-01T03:36:56.000Z</time>
      </trkpt>
      <trkpt lat="45.41161" lon="4.6031">
        <ele>1092.5</ele>
        <time>1970-01-01T03:36:57.000Z</time>
      </trkpt>
      <trkpt lat="45.41159" lon="4.60304">
        <ele>1091.7</ele>
        <time>1970-01-01T03:36:58.000Z</time>
      </trkpt>
      <trkpt lat="45.41159" lon="4.60295">
        <ele>1091</ele>
        <time>1970-01-01T03:36:59.000Z</time>
      </trkpt>
      <trkpt lat="45.4116" lon="4.60286">
        <ele>1090.3</ele>
        <time>1970-01-01T03:37:00.000Z</time>
      </trkpt>
      <trkpt lat="45.41162" lon="4.60276">
        <ele>1090.7</ele>
        <time>1970-01-01T03:37:01.000Z</time>
      </trkpt>
      <trkpt lat="45.41161" lon="4.60266">
        <ele>1089.3</ele>
        <time>1970-01-01T03:37:02.000Z</time>
      </trkpt>
      <trkpt lat="45.41158" lon="4.60258">
        <ele>1087.3</ele>
        <time>1970-01-01T03:37:03.000Z</time>
      </trkpt>
      <trkpt lat="45.41155" lon="4.60251">
        <ele>1085.3</ele>
        <time>1970-01-01T03:37:04.000Z</time>
      </trkpt>
      <trkpt lat="45.41154" lon="4.60243">
        <ele>1083.8</ele>
        <time>1970-01-01T03:37:05.000Z</time>
      </trkpt>
      <trkpt lat="45.41153" lon="4.60236">
        <ele>1081.9</ele>
        <time>1970-01-01T03:37:06.000Z</time>
      </trkpt>
      <trkpt lat="45.41151" lon="4.60231">
        <ele>1079.3</ele>
        <time>1970-01-01T03:37:07.000Z</time>
      </trkpt>
      <trkpt lat="45.4115" lon="4.60227">
        <ele>1078.2</ele>
        <time>1970-01-01T03:37:08.000Z</time>
      </trkpt>
      <trkpt lat="45.41149" lon="4.60221">
        <ele>1075.9</ele>
        <time>1970-01-01T03:37:09.000Z</time>
      </trkpt>
      <trkpt lat="45.41149" lon="4.60211">
        <ele>1074.3</ele>
        <time>1970-01-01T03:37:10.000Z</time>
      </trkpt>
      <trkpt lat="45.4115" lon="4.60204">
        <ele>1072.7</ele>
        <time>1970-01-01T03:37:11.000Z</time>
      </trkpt>
      <trkpt lat="45.4115" lon="4.60193">
        <ele>1070.6</ele>
        <time>1970-01-01T03:37:12.000Z</time>
      </trkpt>
      <trkpt lat="45.41151" lon="4.60179">
        <ele>1069.5</ele>
        <time>1970-01-01T03:37:13.000Z</time>
      </trkpt>
      <trkpt lat="45.41153" lon="4.60167">
        <ele>1068.1</ele>
        <time>1970-01-01T03:37:14.000Z</time>
      </trkpt>
      <trkpt lat="45.41152" lon="4.60155">
        <ele>1064.2</ele>
        <time>1970-01-01T03:37:15.000Z</time>
      </trkpt>
      <trkpt lat="45.41148" lon="4.60146">
        <ele>1061.2</ele>
        <time>1970-01-01T03:37:16.000Z</time>
      </trkpt>
      <trkpt lat="45.41147" lon="4.6014">
        <ele>1060.4</ele>
        <time>1970-01-01T03:37:17.000Z</time>
      </trkpt>
      <trkpt lat="45.41146" lon="4.60131">
        <ele>1058.3</ele>
        <time>1970-01-01T03:37:18.000Z</time>
      </trkpt>
      <trkpt lat="45.41145" lon="4.60121">
        <ele>1056.9</ele>
        <time>1970-01-01T03:37:19.000Z</time>
      </trkpt>
      <trkpt lat="45.41146" lon="4.60112">
        <ele>1055.9</ele>
        <time>1970-01-01T03:37:20.000Z</time>
      </trkpt>
      <trkpt lat="45.41146" lon="4.60106">
        <ele>1055.1</ele>
        <time>1970-01-01T03:37:21.000Z</time>
      </trkpt>
      <trkpt lat="45.41144" lon="4.60102">
        <ele>1054.2</ele>
        <time>1970-01-01T03:37:22.000Z</time>
      </trkpt>
      <trkpt lat="45.41142" lon="4.60094">
        <ele>1051.8</ele>
        <time>1970-01-01T03:37:23.000Z</time>
      </trkpt>
      <trkpt lat="45.41141" lon="4.60087">
        <ele>1051.9</ele>
        <time>1970-01-01T03:37:24.000Z</time>
      </trkpt>
      <trkpt lat="45.41139" lon="4.60079">
        <ele>1052.1</ele>
        <time>1970-01-01T03:37:25.000Z</time>
      </trkpt>
      <trkpt lat="45.41138" lon="4.60074">
        <ele>1052.3</ele>
        <time>1970-01-01T03:37:26.000Z</time>
      </trkpt>
      <trkpt lat="45.41136" lon="4.60069">
        <ele>1052.4</ele>
        <time>1970-01-01T03:37:27.000Z</time>
      </trkpt>
      <trkpt lat="45.41133" lon="4.60064">
        <ele>1052.5</ele>
        <time>1970-01-01T03:37:28.000Z</time>
      </trkpt>
      <trkpt lat="45.4113" lon="4.60064">
        <ele>1051.8</ele>
        <time>1970-01-01T03:37:31.000Z</time>
      </trkpt>
      <trkpt lat="45.41126" lon="4.60061">
        <ele>1050.2</ele>
        <time>1970-01-01T03:37:33.000Z</time>
      </trkpt>
      <trkpt lat="45.41123" lon="4.60059">
        <ele>1049.4</ele>
        <time>1970-01-01T03:37:34.000Z</time>
      </trkpt>
      <trkpt lat="45.41119" lon="4.60058">
        <ele>1047.7</ele>
        <time>1970-01-01T03:37:35.000Z</time>
      </trkpt>
      <trkpt lat="45.41115" lon="4.60057">
        <ele>1046.9</ele>
        <time>1970-01-01T03:37:36.000Z</time>
      </trkpt>
      <trkpt lat="45.41111" lon="4.60056">
        <ele>1045.5</ele>
        <time>1970-01-01T03:37:37.000Z</time>
      </trkpt>
      <trkpt lat="45.41108" lon="4.60053">
        <ele>1044.9</ele>
        <time>1970-01-01T03:37:38.000Z</time>
      </trkpt>
      <trkpt lat="45.41103" lon="4.6005">
        <ele>1042.5</ele>
        <time>1970-01-01T03:37:40.000Z</time>
      </trkpt>
      <trkpt lat="45.41101" lon="4.60046">
        <ele>1040.8</ele>
        <time>1970-01-01T03:37:41.000Z</time>
      </trkpt>
      <trkpt lat="45.411" lon="4.60039">
        <ele>1038.8</ele>
        <time>1970-01-01T03:37:42.000Z</time>
      </trkpt>
      <trkpt lat="45.411" lon="4.60034">
        <ele>1037.8</ele>
        <time>1970-01-01T03:37:43.000Z</time>
      </trkpt>
      <trkpt lat="45.411" lon="4.6003">
        <ele>1036.8</ele>
        <time>1970-01-01T03:37:44.000Z</time>
      </trkpt>
      <trkpt lat="45.41098" lon="4.60026">
        <ele>1034.7</ele>
        <time>1970-01-01T03:37:45.000Z</time>
      </trkpt>
      <trkpt lat="45.41094" lon="4.60019">
        <ele>1032.3</ele>
        <time>1970-01-01T03:37:47.000Z</time>
      </trkpt>
      <trkpt lat="45.41092" lon="4.60014">
        <ele>1029.9</ele>
        <time>1970-01-01T03:37:48.000Z</time>
      </trkpt>
      <trkpt lat="45.4109" lon="4.60009">
        <ele>1027.4</ele>
        <time>1970-01-01T03:37:49.000Z</time>
      </trkpt>
      <trkpt lat="45.41089" lon="4.6">
        <ele>1024.3</ele>
        <time>1970-01-01T03:37:50.000Z</time>
      </trkpt>
      <trkpt lat="45.41089" lon="4.59992">
        <ele>1022.5</ele>
        <time>1970-01-01T03:37:51.000Z</time>
      </trkpt>
      <trkpt lat="45.41089" lon="4.59988">
        <ele>1021.7</ele>
        <time>1970-01-01T03:37:52.000Z</time>
      </trkpt>
      <trkpt lat="45.41087" lon="4.59984">
        <ele>1021.8</ele>
        <time>1970-01-01T03:37:53.000Z</time>
      </trkpt>
      <trkpt lat="45.41084" lon="4.59983">
        <ele>1020</ele>
        <time>1970-01-01T03:37:54.000Z</time>
      </trkpt>
      <trkpt lat="45.41081" lon="4.59979">
        <ele>1018.3</ele>
        <time>1970-01-01T03:37:55.000Z</time>
      </trkpt>
      <trkpt lat="45.4108" lon="4.59974">
        <ele>1016.5</ele>
        <time>1970-01-01T03:37:57.000Z</time>
      </trkpt>
      <trkpt lat="45.41077" lon="4.59969">
        <ele>1015.9</ele>
        <time>1970-01-01T03:37:58.000Z</time>
      </trkpt>
      <trkpt lat="45.41073" lon="4.59965">
        <ele>1012.8</ele>
        <time>1970-01-01T03:37:59.000Z</time>
      </trkpt>
      <trkpt lat="45.41071" lon="4.59964">
        <ele>1011.6</ele>
        <time>1970-01-01T03:38:00.000Z</time>
      </trkpt>
      <trkpt lat="45.41067" lon="4.59961">
        <ele>1009.7</ele>
        <time>1970-01-01T03:38:01.000Z</time>
      </trkpt>
      <trkpt lat="45.41064" lon="4.59955">
        <ele>1007.9</ele>
        <time>1970-01-01T03:38:02.000Z</time>
      </trkpt>
      <trkpt lat="45.41061" lon="4.5995">
        <ele>1006.3</ele>
        <time>1970-01-01T03:38:03.000Z</time>
      </trkpt>
      <trkpt lat="45.41058" lon="4.59947">
        <ele>1004.9</ele>
        <time>1970-01-01T03:38:04.000Z</time>
      </trkpt>
      <trkpt lat="45.41053" lon="4.59949">
        <ele>1003.4</ele>
        <time>1970-01-01T03:38:06.000Z</time>
      </trkpt>
      <trkpt lat="45.41052" lon="4.59945">
        <ele>1003.5</ele>
        <time>1970-01-01T03:38:07.000Z</time>
      </trkpt>
      <trkpt lat="45.41052" lon="4.59939">
        <ele>1002.6</ele>
        <time>1970-01-01T03:38:08.000Z</time>
      </trkpt>
      <trkpt lat="45.41049" lon="4.59932">
        <ele>1000.4</ele>
        <time>1970-01-01T03:38:09.000Z</time>
      </trkpt>
      <trkpt lat="45.41046" lon="4.59922">
        <ele>998.7</ele>
        <time>1970-01-01T03:38:10.000Z</time>
      </trkpt>
      <trkpt lat="45.41045" lon="4.59913">
        <ele>998.4</ele>
        <time>1970-01-01T03:38:11.000Z</time>
      </trkpt>
      <trkpt lat="45.41046" lon="4.59904">
        <ele>998.4</ele>
        <time>1970-01-01T03:38:12.000Z</time>
      </trkpt>
      <trkpt lat="45.41046" lon="4.59898">
        <ele>998.4</ele>
        <time>1970-01-01T03:38:13.000Z</time>
      </trkpt>
      <trkpt lat="45.41045" lon="4.59892">
        <ele>998.1</ele>
        <time>1970-01-01T03:38:14.000Z</time>
      </trkpt>
      <trkpt lat="45.41043" lon="4.59888">
        <ele>996.9</ele>
        <time>1970-01-01T03:38:15.000Z</time>
      </trkpt>
      <trkpt lat="45.4104" lon="4.59883">
        <ele>995.4</ele>
        <time>1970-01-01T03:38:16.000Z</time>
      </trkpt>
      <trkpt lat="45.41038" lon="4.59877">
        <ele>994.7</ele>
        <time>1970-01-01T03:38:17.000Z</time>
      </trkpt>
      <trkpt lat="45.41036" lon="4.59871">
        <ele>991.6</ele>
        <time>1970-01-01T03:38:18.000Z</time>
      </trkpt>
      <trkpt lat="45.41033" lon="4.59867">
        <ele>989.4</ele>
        <time>1970-01-01T03:38:19.000Z</time>
      </trkpt>
      <trkpt lat="45.4103" lon="4.59864">
        <ele>988.4</ele>
        <time>1970-01-01T03:38:20.000Z</time>
      </trkpt>
      <trkpt lat="45.41028" lon="4.59866">
        <ele>987.5</ele>
        <time>1970-01-01T03:38:21.000Z</time>
      </trkpt>
      <trkpt lat="45.41024" lon="4.59866">
        <ele>986.6</ele>
        <time>1970-01-01T03:38:22.000Z</time>
      </trkpt>
      <trkpt lat="45.4102" lon="4.59865">
        <ele>984.3</ele>
        <time>1970-01-01T03:38:23.000Z</time>
      </trkpt>
      <trkpt lat="45.41017" lon="4.59861">
        <ele>982.1</ele>
        <time>1970-01-01T03:38:24.000Z</time>
      </trkpt>
      <trkpt lat="45.41016" lon="4.59854">
        <ele>979.8</ele>
        <time>1970-01-01T03:38:25.000Z</time>
      </trkpt>
      <trkpt lat="45.41016" lon="4.59848">
        <ele>978.6</ele>
        <time>1970-01-01T03:38:26.000Z</time>
      </trkpt>
      <trkpt lat="45.41017" lon="4.59843">
        <ele>978.6</ele>
        <time>1970-01-01T03:38:27.000Z</time>
      </trkpt>
      <trkpt lat="45.41016" lon="4.59836">
        <ele>975.3</ele>
        <time>1970-01-01T03:38:28.000Z</time>
      </trkpt>
      <trkpt lat="45.41015" lon="4.5983">
        <ele>974.7</ele>
        <time>1970-01-01T03:38:29.000Z</time>
      </trkpt>
      <trkpt lat="45.41013" lon="4.59824">
        <ele>972.7</ele>
        <time>1970-01-01T03:38:30.000Z</time>
      </trkpt>
      <trkpt lat="45.4101" lon="4.59816">
        <ele>971.2</ele>
        <time>1970-01-01T03:38:31.000Z</time>
      </trkpt>
      <trkpt lat="45.41009" lon="4.59811">
        <ele>971.2</ele>
        <time>1970-01-01T03:38:32.000Z</time>
      </trkpt>
      <trkpt lat="45.41008" lon="4.59806">
        <ele>971.2</ele>
        <time>1970-01-01T03:38:33.000Z</time>
      </trkpt>
      <trkpt lat="45.41008" lon="4.598">
        <ele>970.1</ele>
        <time>1970-01-01T03:38:34.000Z</time>
      </trkpt>
      <trkpt lat="45.41006" lon="4.59796">
        <ele>969.9</ele>
        <time>1970-01-01T03:38:35.000Z</time>
      </trkpt>
      <trkpt lat="45.41003" lon="4.59793">
        <ele>968.5</ele>
        <time>1970-01-01T03:38:36.000Z</time>
      </trkpt>
      <trkpt lat="45.41" lon="4.59789">
        <ele>967.1</ele>
        <time>1970-01-01T03:38:37.000Z</time>
      </trkpt>
      <trkpt lat="45.40998" lon="4.59785">
        <ele>965.6</ele>
        <time>1970-01-01T03:38:38.000Z</time>
      </trkpt>
      <trkpt lat="45.40997" lon="4.59779">
        <ele>965.3</ele>
        <time>1970-01-01T03:38:39.000Z</time>
      </trkpt>
      <trkpt lat="45.40996" lon="4.59773">
        <ele>963.6</ele>
        <time>1970-01-01T03:38:40.000Z</time>
      </trkpt>
      <trkpt lat="45.40995" lon="4.59764">
        <ele>962.9</ele>
        <time>1970-01-01T03:38:41.000Z</time>
      </trkpt>
      <trkpt lat="45.40994" lon="4.59754">
        <ele>962.2</ele>
        <time>1970-01-01T03:38:42.000Z</time>
      </trkpt>
      <trkpt lat="45.40994" lon="4.59744">
        <ele>961.4</ele>
        <time>1970-01-01T03:38:43.000Z</time>
      </trkpt>
      <trkpt lat="45.40993" lon="4.59733">
        <ele>959.8</ele>
        <time>1970-01-01T03:38:44.000Z</time>
      </trkpt>
      <trkpt lat="45.40993" lon="4.59726">
        <ele>958.1</ele>
        <time>1970-01-01T03:38:45.000Z</time>
      </trkpt>
      <trkpt lat="45.40992" lon="4.59721">
        <ele>957.9</ele>
        <time>1970-01-01T03:38:46.000Z</time>
      </trkpt>
      <trkpt lat="45.40991" lon="4.59716">
        <ele>957.7</ele>
        <time>1970-01-01T03:38:47.000Z</time>
      </trkpt>
      <trkpt lat="45.40987" lon="4.59711">
        <ele>955.7</ele>
        <time>1970-01-01T03:38:48.000Z</time>
      </trkpt>
      <trkpt lat="45.40984" lon="4.59708">
        <ele>955.4</ele>
        <time>1970-01-01T03:38:49.000Z</time>
      </trkpt>
      <trkpt lat="45.40982" lon="4.59705">
        <ele>954.6</ele>
        <time>1970-01-01T03:38:50.000Z</time>
      </trkpt>
      <trkpt lat="45.4098" lon="4.597">
        <ele>953</ele>
        <time>1970-01-01T03:38:52.000Z</time>
      </trkpt>
      <trkpt lat="45.40979" lon="4.59695">
        <ele>952.8</ele>
        <time>1970-01-01T03:38:54.000Z</time>
      </trkpt>
      <trkpt lat="45.40976" lon="4.5969">
        <ele>951.9</ele>
        <time>1970-01-01T03:38:56.000Z</time>
      </trkpt>
      <trkpt lat="45.40973" lon="4.59688">
        <ele>951.2</ele>
        <time>1970-01-01T03:38:58.000Z</time>
      </trkpt>
      <trkpt lat="45.40971" lon="4.59683">
        <ele>950.1</ele>
        <time>1970-01-01T03:38:59.000Z</time>
      </trkpt>
      <trkpt lat="45.4097" lon="4.59679">
        <ele>949.9</ele>
        <time>1970-01-01T03:39:01.000Z</time>
      </trkpt>
      <trkpt lat="45.40967" lon="4.59679">
        <ele>949.2</ele>
        <time>1970-01-01T03:39:03.000Z</time>
      </trkpt>
      <trkpt lat="45.40965" lon="4.59675">
        <ele>948.4</ele>
        <time>1970-01-01T03:39:05.000Z</time>
      </trkpt>
      <trkpt lat="45.40965" lon="4.59669">
        <ele>947.9</ele>
        <time>1970-01-01T03:39:07.000Z</time>
      </trkpt>
      <trkpt lat="45.40964" lon="4.59663">
        <ele>947.7</ele>
        <time>1970-01-01T03:39:09.000Z</time>
      </trkpt>
      <trkpt lat="45.40963" lon="4.59656">
        <ele>946.5</ele>
        <time>1970-01-01T03:39:11.000Z</time>
      </trkpt>
      <trkpt lat="45.40963" lon="4.5965">
        <ele>945.8</ele>
        <time>1970-01-01T03:39:13.000Z</time>
      </trkpt>
      <trkpt lat="45.40963" lon="4.59645">
        <ele>943.1</ele>
        <time>1970-01-01T03:39:14.000Z</time>
      </trkpt>
      <trkpt lat="45.40961" lon="4.59639">
        <ele>942.5</ele>
        <time>1970-01-01T03:39:15.000Z</time>
      </trkpt>
      <trkpt lat="45.40959" lon="4.59636">
        <ele>940.8</ele>
        <time>1970-01-01T03:39:16.000Z</time>
      </trkpt>
      <trkpt lat="45.40956" lon="4.59635">
        <ele>939.8</ele>
        <time>1970-01-01T03:39:17.000Z</time>
      </trkpt>
      <trkpt lat="45.40953" lon="4.59637">
        <ele>939.2</ele>
        <time>1970-01-01T03:39:18.000Z</time>
      </trkpt>
      <trkpt lat="45.40949" lon="4.59642">
        <ele>938.6</ele>
        <time>1970-01-01T03:39:19.000Z</time>
      </trkpt>
      <trkpt lat="45.40947" lon="4.59646">
        <ele>938</ele>
        <time>1970-01-01T03:39:21.000Z</time>
      </trkpt>
      <trkpt lat="45.40943" lon="4.59649">
        <ele>936.9</ele>
        <time>1970-01-01T03:39:23.000Z</time>
      </trkpt>
      <trkpt lat="45.4094" lon="4.59654">
        <ele>937.2</ele>
        <time>1970-01-01T03:39:26.000Z</time>
      </trkpt>
      <trkpt lat="45.40936" lon="4.59653">
        <ele>935.1</ele>
        <time>1970-01-01T03:39:31.000Z</time>
      </trkpt>
      <trkpt lat="45.40932" lon="4.59651">
        <ele>932.2</ele>
        <time>1970-01-01T03:39:32.000Z</time>
      </trkpt>
      <trkpt lat="45.40929" lon="4.59648">
        <ele>930.4</ele>
        <time>1970-01-01T03:39:33.000Z</time>
      </trkpt>
      <trkpt lat="45.40927" lon="4.59643">
        <ele>930.2</ele>
        <time>1970-01-01T03:39:34.000Z</time>
      </trkpt>
      <trkpt lat="45.40924" lon="4.59635">
        <ele>928.8</ele>
        <time>1970-01-01T03:39:35.000Z</time>
      </trkpt>
      <trkpt lat="45.4092" lon="4.59629">
        <ele>926.4</ele>
        <time>1970-01-01T03:39:36.000Z</time>
      </trkpt>
      <trkpt lat="45.40919" lon="4.59623">
        <ele>926.3</ele>
        <time>1970-01-01T03:39:37.000Z</time>
      </trkpt>
      <trkpt lat="45.40918" lon="4.59616">
        <ele>926.2</ele>
        <time>1970-01-01T03:39:38.000Z</time>
      </trkpt>
      <trkpt lat="45.40918" lon="4.59608">
        <ele>925.6</ele>
        <time>1970-01-01T03:39:39.000Z</time>
      </trkpt>
      <trkpt lat="45.40917" lon="4.59599">
        <ele>923.5</ele>
        <time>1970-01-01T03:39:40.000Z</time>
      </trkpt>
      <trkpt lat="45.40916" lon="4.59587">
        <ele>921.6</ele>
        <time>1970-01-01T03:39:41.000Z</time>
      </trkpt>
      <trkpt lat="45.40917" lon="4.59578">
        <ele>920.5</ele>
        <time>1970-01-01T03:39:42.000Z</time>
      </trkpt>
      <trkpt lat="45.4092" lon="4.59568">
        <ele>920.3</ele>
        <time>1970-01-01T03:39:43.000Z</time>
      </trkpt>
      <trkpt lat="45.40922" lon="4.59558">
        <ele>920.1</ele>
        <time>1970-01-01T03:39:44.000Z</time>
      </trkpt>
      <trkpt lat="45.40921" lon="4.59549">
        <ele>919.2</ele>
        <time>1970-01-01T03:39:45.000Z</time>
      </trkpt>
      <trkpt lat="45.40917" lon="4.59544">
        <ele>918.4</ele>
        <time>1970-01-01T03:39:46.000Z</time>
      </trkpt>
      <trkpt lat="45.40912" lon="4.59542">
        <ele>917.4</ele>
        <time>1970-01-01T03:39:47.000Z</time>
      </trkpt>
      <trkpt lat="45.40909" lon="4.59541">
        <ele>916.5</ele>
        <time>1970-01-01T03:39:48.000Z</time>
      </trkpt>
      <trkpt lat="45.40906" lon="4.59542">
        <ele>915.8</ele>
        <time>1970-01-01T03:39:49.000Z</time>
      </trkpt>
      <trkpt lat="45.40903" lon="4.59543">
        <ele>914.6</ele>
        <time>1970-01-01T03:39:50.000Z</time>
      </trkpt>
      <trkpt lat="45.40901" lon="4.59537">
        <ele>912.1</ele>
        <time>1970-01-01T03:39:52.000Z</time>
      </trkpt>
      <trkpt lat="45.40899" lon="4.59534">
        <ele>910.5</ele>
        <time>1970-01-01T03:39:53.000Z</time>
      </trkpt>
      <trkpt lat="45.40896" lon="4.5953">
        <ele>908.1</ele>
        <time>1970-01-01T03:39:55.000Z</time>
      </trkpt>
      <trkpt lat="45.40894" lon="4.59527">
        <ele>907.6</ele>
        <time>1970-01-01T03:39:56.000Z</time>
      </trkpt>
      <trkpt lat="45.4089" lon="4.59528">
        <ele>904.2</ele>
        <time>1970-01-01T03:39:57.000Z</time>
      </trkpt>
      <trkpt lat="45.40886" lon="4.5953">
        <ele>903.4</ele>
        <time>1970-01-01T03:39:58.000Z</time>
      </trkpt>
      <trkpt lat="45.40882" lon="4.59532">
        <ele>901.7</ele>
        <time>1970-01-01T03:39:59.000Z</time>
      </trkpt>
      <trkpt lat="45.40879" lon="4.59535">
        <ele>900.9</ele>
        <time>1970-01-01T03:40:00.000Z</time>
      </trkpt>
      <trkpt lat="45.40875" lon="4.59536">
        <ele>897.1</ele>
        <time>1970-01-01T03:40:01.000Z</time>
      </trkpt>
      <trkpt lat="45.4087" lon="4.59532">
        <ele>894.4</ele>
        <time>1970-01-01T03:40:03.000Z</time>
      </trkpt>
      <trkpt lat="45.40867" lon="4.5953">
        <ele>892.6</ele>
        <time>1970-01-01T03:40:04.000Z</time>
      </trkpt>
      <trkpt lat="45.40863" lon="4.59533">
        <ele>890.1</ele>
        <time>1970-01-01T03:40:06.000Z</time>
      </trkpt>
      <trkpt lat="45.4086" lon="4.59533">
        <ele>887.7</ele>
        <time>1970-01-01T03:40:07.000Z</time>
      </trkpt>
      <trkpt lat="45.40856" lon="4.59532">
        <ele>886.1</ele>
        <time>1970-01-01T03:40:08.000Z</time>
      </trkpt>
      <trkpt lat="45.40853" lon="4.5953">
        <ele>884.4</ele>
        <time>1970-01-01T03:40:09.000Z</time>
      </trkpt>
      <trkpt lat="45.4085" lon="4.5953">
        <ele>882.5</ele>
        <time>1970-01-01T03:40:10.000Z</time>
      </trkpt>
      <trkpt lat="45.40847" lon="4.59534">
        <ele>881.3</ele>
        <time>1970-01-01T03:40:11.000Z</time>
      </trkpt>
      <trkpt lat="45.40846" lon="4.59539">
        <ele>882.3</ele>
        <time>1970-01-01T03:40:12.000Z</time>
      </trkpt>
      <trkpt lat="45.40844" lon="4.59544">
        <ele>881.1</ele>
        <time>1970-01-01T03:40:13.000Z</time>
      </trkpt>
      <trkpt lat="45.40842" lon="4.59546">
        <ele>879.9</ele>
        <time>1970-01-01T03:40:16.000Z</time>
      </trkpt>
      <trkpt lat="45.4084" lon="4.5954">
        <ele>878.7</ele>
        <time>1970-01-01T03:40:18.000Z</time>
      </trkpt>
      <trkpt lat="45.40835" lon="4.59537">
        <ele>874.7</ele>
        <time>1970-01-01T03:40:20.000Z</time>
      </trkpt>
      <trkpt lat="45.40832" lon="4.59538">
        <ele>874</ele>
        <time>1970-01-01T03:40:21.000Z</time>
      </trkpt>
      <trkpt lat="45.40829" lon="4.59542">
        <ele>872.5</ele>
        <time>1970-01-01T03:40:22.000Z</time>
      </trkpt>
      <trkpt lat="45.40825" lon="4.59545">
        <ele>871.6</ele>
        <time>1970-01-01T03:40:23.000Z</time>
      </trkpt>
      <trkpt lat="45.40821" lon="4.59547">
        <ele>868.6</ele>
        <time>1970-01-01T03:40:24.000Z</time>
      </trkpt>
      <trkpt lat="45.40818" lon="4.59548">
        <ele>866.8</ele>
        <time>1970-01-01T03:40:25.000Z</time>
      </trkpt>
      <trkpt lat="45.40816" lon="4.59545">
        <ele>866.4</ele>
        <time>1970-01-01T03:40:28.000Z</time>
      </trkpt>
      <trkpt lat="45.40815" lon="4.5954">
        <ele>864.1</ele>
        <time>1970-01-01T03:40:29.000Z</time>
      </trkpt>
      <trkpt lat="45.40814" lon="4.59536">
        <ele>863.5</ele>
        <time>1970-01-01T03:40:30.000Z</time>
      </trkpt>
      <trkpt lat="45.40809" lon="4.59538">
        <ele>861.2</ele>
        <time>1970-01-01T03:40:32.000Z</time>
      </trkpt>
      <trkpt lat="45.40806" lon="4.5954">
        <ele>860</ele>
        <time>1970-01-01T03:40:34.000Z</time>
      </trkpt>
      <trkpt lat="45.40803" lon="4.59537">
        <ele>857.9</ele>
        <time>1970-01-01T03:40:36.000Z</time>
      </trkpt>
      <trkpt lat="45.40801" lon="4.59533">
        <ele>857.3</ele>
        <time>1970-01-01T03:40:37.000Z</time>
      </trkpt>
      <trkpt lat="45.40797" lon="4.59531">
        <ele>855.8</ele>
        <time>1970-01-01T03:40:39.000Z</time>
      </trkpt>
      <trkpt lat="45.40794" lon="4.59533">
        <ele>852.4</ele>
        <time>1970-01-01T03:40:40.000Z</time>
      </trkpt>
      <trkpt lat="45.40791" lon="4.59533">
        <ele>852.5</ele>
        <time>1970-01-01T03:40:42.000Z</time>
      </trkpt>
      <trkpt lat="45.4079" lon="4.59528">
        <ele>849.9</ele>
        <time>1970-01-01T03:40:43.000Z</time>
      </trkpt>
      <trkpt lat="45.40787" lon="4.59525">
        <ele>848.2</ele>
        <time>1970-01-01T03:40:44.000Z</time>
      </trkpt>
      <trkpt lat="45.40781" lon="4.59524">
        <ele>844</ele>
        <time>1970-01-01T03:40:46.000Z</time>
      </trkpt>
      <trkpt lat="45.40776" lon="4.59524">
        <ele>840.9</ele>
        <time>1970-01-01T03:40:47.000Z</time>
      </trkpt>
      <trkpt lat="45.40771" lon="4.59527">
        <ele>839.8</ele>
        <time>1970-01-01T03:40:48.000Z</time>
      </trkpt>
      <trkpt lat="45.40769" lon="4.5953">
        <ele>838.4</ele>
        <time>1970-01-01T03:40:49.000Z</time>
      </trkpt>
      <trkpt lat="45.40764" lon="4.59533">
        <ele>836.8</ele>
        <time>1970-01-01T03:40:51.000Z</time>
      </trkpt>
      <trkpt lat="45.40762" lon="4.59534">
        <ele>834.6</ele>
        <time>1970-01-01T03:40:52.000Z</time>
      </trkpt>
      <trkpt lat="45.40758" lon="4.59533">
        <ele>830.1</ele>
        <time>1970-01-01T03:40:53.000Z</time>
      </trkpt>
      <trkpt lat="45.40751" lon="4.59532">
        <ele>826.8</ele>
        <time>1970-01-01T03:40:55.000Z</time>
      </trkpt>
      <trkpt lat="45.40746" lon="4.59535">
        <ele>825.6</ele>
        <time>1970-01-01T03:40:56.000Z</time>
      </trkpt>
      <trkpt lat="45.40743" lon="4.59536">
        <ele>822.6</ele>
        <time>1970-01-01T03:40:57.000Z</time>
      </trkpt>
      <trkpt lat="45.40738" lon="4.59537">
        <ele>821.2</ele>
        <time>1970-01-01T03:40:59.000Z</time>
      </trkpt>
      <trkpt lat="45.40738" lon="4.59545">
        <ele>821.7</ele>
        <time>1970-01-01T03:41:00.000Z</time>
      </trkpt>
      <trkpt lat="45.40737" lon="4.5955">
        <ele>820.7</ele>
        <time>1970-01-01T03:41:01.000Z</time>
      </trkpt>
      <trkpt lat="45.40734" lon="4.59553">
        <ele>819.8</ele>
        <time>1970-01-01T03:41:04.000Z</time>
      </trkpt>
      <trkpt lat="45.40731" lon="4.59555">
        <ele>820.2</ele>
        <time>1970-01-01T03:41:05.000Z</time>
      </trkpt>
      <trkpt lat="45.40727" lon="4.59556">
        <ele>818.1</ele>
        <time>1970-01-01T03:41:06.000Z</time>
      </trkpt>
      <trkpt lat="45.40724" lon="4.5956">
        <ele>817.6</ele>
        <time>1970-01-01T03:41:07.000Z</time>
      </trkpt>
      <trkpt lat="45.40721" lon="4.59565">
        <ele>817.1</ele>
        <time>1970-01-01T03:41:08.000Z</time>
      </trkpt>
      <trkpt lat="45.40718" lon="4.5957">
        <ele>816.5</ele>
        <time>1970-01-01T03:41:09.000Z</time>
      </trkpt>
      <trkpt lat="45.40713" lon="4.59576">
        <ele>815.7</ele>
        <time>1970-01-01T03:41:10.000Z</time>
      </trkpt>
      <trkpt lat="45.40707" lon="4.59579">
        <ele>813.7</ele>
        <time>1970-01-01T03:41:11.000Z</time>
      </trkpt>
      <trkpt lat="45.40702" lon="4.59582">
        <ele>812.2</ele>
        <time>1970-01-01T03:41:12.000Z</time>
      </trkpt>
      <trkpt lat="45.40698" lon="4.59579">
        <ele>811</ele>
        <time>1970-01-01T03:41:13.000Z</time>
      </trkpt>
      <trkpt lat="45.40693" lon="4.59572">
        <ele>809.2</ele>
        <time>1970-01-01T03:41:14.000Z</time>
      </trkpt>
      <trkpt lat="45.40689" lon="4.59563">
        <ele>807.6</ele>
        <time>1970-01-01T03:41:15.000Z</time>
      </trkpt>
      <trkpt lat="45.40686" lon="4.59554">
        <ele>806.2</ele>
        <time>1970-01-01T03:41:16.000Z</time>
      </trkpt>
      <trkpt lat="45.40682" lon="4.59546">
        <ele>804.8</ele>
        <time>1970-01-01T03:41:17.000Z</time>
      </trkpt>
      <trkpt lat="45.4068" lon="4.59534">
        <ele>803.1</ele>
        <time>1970-01-01T03:41:18.000Z</time>
      </trkpt>
      <trkpt lat="45.40676" lon="4.59518">
        <ele>803</ele>
        <time>1970-01-01T03:41:19.000Z</time>
      </trkpt>
      <trkpt lat="45.40674" lon="4.59499">
        <ele>803.1</ele>
        <time>1970-01-01T03:41:20.000Z</time>
      </trkpt>
      <trkpt lat="45.40673" lon="4.5948">
        <ele>802</ele>
        <time>1970-01-01T03:41:21.000Z</time>
      </trkpt>
      <trkpt lat="45.40674" lon="4.5946">
        <ele>801.5</ele>
        <time>1970-01-01T03:41:22.000Z</time>
      </trkpt>
      <trkpt lat="45.40675" lon="4.59442">
        <ele>801.5</ele>
        <time>1970-01-01T03:41:23.000Z</time>
      </trkpt>
      <trkpt lat="45.40679" lon="4.59423">
        <ele>799.8</ele>
        <time>1970-01-01T03:41:24.000Z</time>
      </trkpt>
      <trkpt lat="45.40681" lon="4.59405">
        <ele>796.1</ele>
        <time>1970-01-01T03:41:25.000Z</time>
      </trkpt>
      <trkpt lat="45.40685" lon="4.59387">
        <ele>793.4</ele>
        <time>1970-01-01T03:41:26.000Z</time>
      </trkpt>
      <trkpt lat="45.40689" lon="4.59371">
        <ele>790.8</ele>
        <time>1970-01-01T03:41:27.000Z</time>
      </trkpt>
      <trkpt lat="45.40693" lon="4.59355">
        <ele>789.4</ele>
        <time>1970-01-01T03:41:28.000Z</time>
      </trkpt>
      <trkpt lat="45.40698" lon="4.59339">
        <ele>787.6</ele>
        <time>1970-01-01T03:41:29.000Z</time>
      </trkpt>
      <trkpt lat="45.40703" lon="4.59325">
        <ele>786.2</ele>
        <time>1970-01-01T03:41:30.000Z</time>
      </trkpt>
      <trkpt lat="45.40709" lon="4.59312">
        <ele>785</ele>
        <time>1970-01-01T03:41:31.000Z</time>
      </trkpt>
      <trkpt lat="45.40715" lon="4.59299">
        <ele>783.7</ele>
        <time>1970-01-01T03:41:32.000Z</time>
      </trkpt>
      <trkpt lat="45.40719" lon="4.59285">
        <ele>782.3</ele>
        <time>1970-01-01T03:41:33.000Z</time>
      </trkpt>
      <trkpt lat="45.40725" lon="4.59273">
        <ele>780.6</ele>
        <time>1970-01-01T03:41:34.000Z</time>
      </trkpt>
      <trkpt lat="45.4073" lon="4.59264">
        <ele>779.3</ele>
        <time>1970-01-01T03:41:35.000Z</time>
      </trkpt>
      <trkpt lat="45.40736" lon="4.59258">
        <ele>778.3</ele>
        <time>1970-01-01T03:41:36.000Z</time>
      </trkpt>
      <trkpt lat="45.40744" lon="4.59254">
        <ele>777.3</ele>
        <time>1970-01-01T03:41:37.000Z</time>
      </trkpt>
      <trkpt lat="45.40751" lon="4.59248">
        <ele>776.3</ele>
        <time>1970-01-01T03:41:38.000Z</time>
      </trkpt>
      <trkpt lat="45.40759" lon="4.5924">
        <ele>775.4</ele>
        <time>1970-01-01T03:41:39.000Z</time>
      </trkpt>
      <trkpt lat="45.40766" lon="4.59231">
        <ele>774.6</ele>
        <time>1970-01-01T03:41:40.000Z</time>
      </trkpt>
      <trkpt lat="45.40774" lon="4.59221">
        <ele>773.8</ele>
        <time>1970-01-01T03:41:41.000Z</time>
      </trkpt>
      <trkpt lat="45.4078" lon="4.59211">
        <ele>773.2</ele>
        <time>1970-01-01T03:41:42.000Z</time>
      </trkpt>
      <trkpt lat="45.40785" lon="4.59197">
        <ele>772.6</ele>
        <time>1970-01-01T03:41:43.000Z</time>
      </trkpt>
      <trkpt lat="45.40791" lon="4.59184">
        <ele>771.7</ele>
        <time>1970-01-01T03:41:44.000Z</time>
      </trkpt>
      <trkpt lat="45.40797" lon="4.59173">
        <ele>770.7</ele>
        <time>1970-01-01T03:41:45.000Z</time>
      </trkpt>
      <trkpt lat="45.40805" lon="4.59163">
        <ele>769.5</ele>
        <time>1970-01-01T03:41:46.000Z</time>
      </trkpt>
      <trkpt lat="45.40813" lon="4.59154">
        <ele>768.6</ele>
        <time>1970-01-01T03:41:47.000Z</time>
      </trkpt>
      <trkpt lat="45.40819" lon="4.59143">
        <ele>767.8</ele>
        <time>1970-01-01T03:41:48.000Z</time>
      </trkpt>
      <trkpt lat="45.40823" lon="4.5913">
        <ele>767.2</ele>
        <time>1970-01-01T03:41:49.000Z</time>
      </trkpt>
      <trkpt lat="45.40824" lon="4.59116">
        <ele>766.6</ele>
        <time>1970-01-01T03:41:50.000Z</time>
      </trkpt>
      <trkpt lat="45.40827" lon="4.59105">
        <ele>766</ele>
        <time>1970-01-01T03:41:51.000Z</time>
      </trkpt>
      <trkpt lat="45.40831" lon="4.59096">
        <ele>769.2</ele>
        <time>1970-01-01T03:41:52.000Z</time>
      </trkpt>
      <trkpt lat="45.40838" lon="4.5909">
        <ele>772.7</ele>
        <time>1970-01-01T03:41:53.000Z</time>
      </trkpt>
      <trkpt lat="45.40845" lon="4.59084">
        <ele>776.2</ele>
        <time>1970-01-01T03:41:54.000Z</time>
      </trkpt>
      <trkpt lat="45.40854" lon="4.59079">
        <ele>780.3</ele>
        <time>1970-01-01T03:41:55.000Z</time>
      </trkpt>
      <trkpt lat="45.40864" lon="4.5908">
        <ele>784.6</ele>
        <time>1970-01-01T03:41:56.000Z</time>
      </trkpt>
      <trkpt lat="45.40874" lon="4.5908">
        <ele>789.2</ele>
        <time>1970-01-01T03:41:57.000Z</time>
      </trkpt>
      <trkpt lat="45.40884" lon="4.59084">
        <ele>794.4</ele>
        <time>1970-01-01T03:41:58.000Z</time>
      </trkpt>
      <trkpt lat="45.40894" lon="4.59088">
        <ele>793.2</ele>
        <time>1970-01-01T03:41:59.000Z</time>
      </trkpt>
      <trkpt lat="45.40905" lon="4.59091">
        <ele>791.4</ele>
        <time>1970-01-01T03:42:00.000Z</time>
      </trkpt>
      <trkpt lat="45.40915" lon="4.59096">
        <ele>789.5</ele>
        <time>1970-01-01T03:42:01.000Z</time>
      </trkpt>
      <trkpt lat="45.40925" lon="4.591">
        <ele>787.7</ele>
        <time>1970-01-01T03:42:02.000Z</time>
      </trkpt>
      <trkpt lat="45.40935" lon="4.59098">
        <ele>785</ele>
        <time>1970-01-01T03:42:03.000Z</time>
      </trkpt>
      <trkpt lat="45.40945" lon="4.59092">
        <ele>781.9</ele>
        <time>1970-01-01T03:42:04.000Z</time>
      </trkpt>
      <trkpt lat="45.40953" lon="4.59084">
        <ele>779.3</ele>
        <time>1970-01-01T03:42:05.000Z</time>
      </trkpt>
      <trkpt lat="45.40961" lon="4.59073">
        <ele>777</ele>
        <time>1970-01-01T03:42:06.000Z</time>
      </trkpt>
      <trkpt lat="45.40968" lon="4.59061">
        <ele>774.7</ele>
        <time>1970-01-01T03:42:07.000Z</time>
      </trkpt>
      <trkpt lat="45.40976" lon="4.59048">
        <ele>772.4</ele>
        <time>1970-01-01T03:42:08.000Z</time>
      </trkpt>
      <trkpt lat="45.40985" lon="4.59037">
        <ele>769.7</ele>
        <time>1970-01-01T03:42:09.000Z</time>
      </trkpt>
      <trkpt lat="45.40994" lon="4.59026">
        <ele>767.1</ele>
        <time>1970-01-01T03:42:10.000Z</time>
      </trkpt>
      <trkpt lat="45.41003" lon="4.59015">
        <ele>764.8</ele>
        <time>1970-01-01T03:42:11.000Z</time>
      </trkpt>
      <trkpt lat="45.41013" lon="4.59004">
        <ele>762.2</ele>
        <time>1970-01-01T03:42:12.000Z</time>
      </trkpt>
      <trkpt lat="45.41024" lon="4.58992">
        <ele>759.7</ele>
        <time>1970-01-01T03:42:13.000Z</time>
      </trkpt>
      <trkpt lat="45.41034" lon="4.5898">
        <ele>757.2</ele>
        <time>1970-01-01T03:42:14.000Z</time>
      </trkpt>
      <trkpt lat="45.41043" lon="4.58968">
        <ele>755</ele>
        <time>1970-01-01T03:42:15.000Z</time>
      </trkpt>
      <trkpt lat="45.41054" lon="4.58955">
        <ele>752.2</ele>
        <time>1970-01-01T03:42:16.000Z</time>
      </trkpt>
      <trkpt lat="45.41064" lon="4.58942">
        <ele>749.1</ele>
        <time>1970-01-01T03:42:17.000Z</time>
      </trkpt>
      <trkpt lat="45.41074" lon="4.58929">
        <ele>746.7</ele>
        <time>1970-01-01T03:42:18.000Z</time>
      </trkpt>
      <trkpt lat="45.41085" lon="4.58917">
        <ele>744.6</ele>
        <time>1970-01-01T03:42:19.000Z</time>
      </trkpt>
      <trkpt lat="45.41095" lon="4.58905">
        <ele>742.8</ele>
        <time>1970-01-01T03:42:20.000Z</time>
      </trkpt>
      <trkpt lat="45.41105" lon="4.58894">
        <ele>741</ele>
        <time>1970-01-01T03:42:21.000Z</time>
      </trkpt>
      <trkpt lat="45.41116" lon="4.58883">
        <ele>741.1</ele>
        <time>1970-01-01T03:42:22.000Z</time>
      </trkpt>
      <trkpt lat="45.41127" lon="4.58874">
        <ele>741.1</ele>
        <time>1970-01-01T03:42:23.000Z</time>
      </trkpt>
      <trkpt lat="45.41138" lon="4.58864">
        <ele>741.2</ele>
        <time>1970-01-01T03:42:24.000Z</time>
      </trkpt>
      <trkpt lat="45.41148" lon="4.58855">
        <ele>741.2</ele>
        <time>1970-01-01T03:42:25.000Z</time>
      </trkpt>
      <trkpt lat="45.41158" lon="4.58846">
        <ele>741.4</ele>
        <time>1970-01-01T03:42:26.000Z</time>
      </trkpt>
      <trkpt lat="45.41165" lon="4.58833">
        <ele>741.5</ele>
        <time>1970-01-01T03:42:27.000Z</time>
      </trkpt>
      <trkpt lat="45.41172" lon="4.58819">
        <ele>741.7</ele>
        <time>1970-01-01T03:42:28.000Z</time>
      </trkpt>
      <trkpt lat="45.4118" lon="4.58808">
        <ele>741.8</ele>
        <time>1970-01-01T03:42:29.000Z</time>
      </trkpt>
      <trkpt lat="45.41187" lon="4.58796">
        <ele>742</ele>
        <time>1970-01-01T03:42:30.000Z</time>
      </trkpt>
      <trkpt lat="45.41193" lon="4.58783">
        <ele>742.1</ele>
        <time>1970-01-01T03:42:31.000Z</time>
      </trkpt>
      <trkpt lat="45.41201" lon="4.58773">
        <ele>742.3</ele>
        <time>1970-01-01T03:42:32.000Z</time>
      </trkpt>
      <trkpt lat="45.41209" lon="4.58764">
        <ele>742.4</ele>
        <time>1970-01-01T03:42:33.000Z</time>
      </trkpt>
      <trkpt lat="45.41217" lon="4.58756">
        <ele>742.6</ele>
        <time>1970-01-01T03:42:34.000Z</time>
      </trkpt>
      <trkpt lat="45.41224" lon="4.58749">
        <ele>742.9</ele>
        <time>1970-01-01T03:42:35.000Z</time>
      </trkpt>
      <trkpt lat="45.41233" lon="4.58746">
        <ele>743.2</ele>
        <time>1970-01-01T03:42:36.000Z</time>
      </trkpt>
      <trkpt lat="45.41241" lon="4.58743">
        <ele>743.4</ele>
        <time>1970-01-01T03:42:37.000Z</time>
      </trkpt>
      <trkpt lat="45.41248" lon="4.58738">
        <ele>743.7</ele>
        <time>1970-01-01T03:42:38.000Z</time>
      </trkpt>
      <trkpt lat="45.41256" lon="4.58735">
        <ele>744</ele>
        <time>1970-01-01T03:42:39.000Z</time>
      </trkpt>
      <trkpt lat="45.41264" lon="4.58731">
        <ele>744.3</ele>
        <time>1970-01-01T03:42:40.000Z</time>
      </trkpt>
      <trkpt lat="45.41273" lon="4.58728">
        <ele>744.6</ele>
        <time>1970-01-01T03:42:41.000Z</time>
      </trkpt>
      <trkpt lat="45.41282" lon="4.58727">
        <ele>744.9</ele>
        <time>1970-01-01T03:42:42.000Z</time>
      </trkpt>
      <trkpt lat="45.4129" lon="4.58728">
        <ele>745.2</ele>
        <time>1970-01-01T03:42:43.000Z</time>
      </trkpt>
      <trkpt lat="45.41299" lon="4.58728">
        <ele>745.4</ele>
        <time>1970-01-01T03:42:44.000Z</time>
      </trkpt>
      <trkpt lat="45.41306" lon="4.58725">
        <ele>745.7</ele>
        <time>1970-01-01T03:42:45.000Z</time>
      </trkpt>
      <trkpt lat="45.41313" lon="4.58721">
        <ele>745.9</ele>
        <time>1970-01-01T03:42:46.000Z</time>
      </trkpt>
      <trkpt lat="45.4132" lon="4.58718">
        <ele>746.2</ele>
        <time>1970-01-01T03:42:47.000Z</time>
      </trkpt>
      <trkpt lat="45.41327" lon="4.58715">
        <ele>746.4</ele>
        <time>1970-01-01T03:42:48.000Z</time>
      </trkpt>
      <trkpt lat="45.41334" lon="4.58714">
        <ele>746.7</ele>
        <time>1970-01-01T03:42:49.000Z</time>
      </trkpt>
      <trkpt lat="45.41341" lon="4.58711">
        <ele>746.9</ele>
        <time>1970-01-01T03:42:50.000Z</time>
      </trkpt>
      <trkpt lat="45.41347" lon="4.58707">
        <ele>747.2</ele>
        <time>1970-01-01T03:42:51.000Z</time>
      </trkpt>
      <trkpt lat="45.41353" lon="4.58703">
        <ele>747.4</ele>
        <time>1970-01-01T03:42:52.000Z</time>
      </trkpt>
      <trkpt lat="45.41359" lon="4.58701">
        <ele>747.6</ele>
        <time>1970-01-01T03:42:53.000Z</time>
      </trkpt>
      <trkpt lat="45.41365" lon="4.587">
        <ele>747.8</ele>
        <time>1970-01-01T03:42:54.000Z</time>
      </trkpt>
      <trkpt lat="45.41373" lon="4.587">
        <ele>748.1</ele>
        <time>1970-01-01T03:42:55.000Z</time>
      </trkpt>
      <trkpt lat="45.4138" lon="4.58699">
        <ele>748.3</ele>
        <time>1970-01-01T03:42:56.000Z</time>
      </trkpt>
      <trkpt lat="45.41385" lon="4.58699">
        <ele>748.6</ele>
        <time>1970-01-01T03:42:57.000Z</time>
      </trkpt>
      <trkpt lat="45.41391" lon="4.58699">
        <ele>748.8</ele>
        <time>1970-01-01T03:42:58.000Z</time>
      </trkpt>
      <trkpt lat="45.41396" lon="4.587">
        <ele>749.1</ele>
        <time>1970-01-01T03:42:59.000Z</time>
      </trkpt>
      <trkpt lat="45.41402" lon="4.587">
        <ele>749.4</ele>
        <time>1970-01-01T03:43:00.000Z</time>
      </trkpt>
      <trkpt lat="45.41408" lon="4.58699">
        <ele>749.7</ele>
        <time>1970-01-01T03:43:01.000Z</time>
      </trkpt>
      <trkpt lat="45.41413" lon="4.587">
        <ele>749.9</ele>
        <time>1970-01-01T03:43:02.000Z</time>
      </trkpt>
      <trkpt lat="45.41418" lon="4.58701">
        <ele>750.1</ele>
        <time>1970-01-01T03:43:03.000Z</time>
      </trkpt>
      <trkpt lat="45.41423" lon="4.58703">
        <ele>750.4</ele>
        <time>1970-01-01T03:43:04.000Z</time>
      </trkpt>
      <trkpt lat="45.41429" lon="4.58701">
        <ele>750.6</ele>
        <time>1970-01-01T03:43:05.000Z</time>
      </trkpt>
      <trkpt lat="45.41434" lon="4.58701">
        <ele>750.8</ele>
        <time>1970-01-01T03:43:06.000Z</time>
      </trkpt>
      <trkpt lat="45.41438" lon="4.587">
        <ele>751</ele>
        <time>1970-01-01T03:43:07.000Z</time>
      </trkpt>
      <trkpt lat="45.41443" lon="4.587">
        <ele>751.2</ele>
        <time>1970-01-01T03:43:08.000Z</time>
      </trkpt>
      <trkpt lat="45.41448" lon="4.587">
        <ele>751.5</ele>
        <time>1970-01-01T03:43:09.000Z</time>
      </trkpt>
      <trkpt lat="45.41453" lon="4.587">
        <ele>751.6</ele>
        <time>1970-01-01T03:43:10.000Z</time>
      </trkpt>
      <trkpt lat="45.41457" lon="4.58699">
        <ele>751.8</ele>
        <time>1970-01-01T03:43:11.000Z</time>
      </trkpt>
      <trkpt lat="45.41461" lon="4.58698">
        <ele>751.9</ele>
        <time>1970-01-01T03:43:12.000Z</time>
      </trkpt>
      <trkpt lat="45.41464" lon="4.58698">
        <ele>752.1</ele>
        <time>1970-01-01T03:43:13.000Z</time>
      </trkpt>
      <trkpt lat="45.41467" lon="4.58698">
        <ele>752.2</ele>
        <time>1970-01-01T03:43:14.000Z</time>
      </trkpt>
      <trkpt lat="45.41471" lon="4.58698">
        <ele>752.3</ele>
        <time>1970-01-01T03:43:15.000Z</time>
      </trkpt>
      <trkpt lat="45.41474" lon="4.58696">
        <ele>752.4</ele>
        <time>1970-01-01T03:43:16.000Z</time>
      </trkpt>
      <trkpt lat="45.41477" lon="4.58695">
        <ele>752.6</ele>
        <time>1970-01-01T03:43:17.000Z</time>
      </trkpt>
      <trkpt lat="45.41481" lon="4.58693">
        <ele>752.7</ele>
        <time>1970-01-01T03:43:18.000Z</time>
      </trkpt>
      <trkpt lat="45.41484" lon="4.58692">
        <ele>752.8</ele>
        <time>1970-01-01T03:43:19.000Z</time>
      </trkpt>
      <trkpt lat="45.41488" lon="4.58691">
        <ele>753</ele>
        <time>1970-01-01T03:43:21.000Z</time>
      </trkpt>
      <trkpt lat="45.41494" lon="4.58688">
        <ele>753.2</ele>
        <time>1970-01-01T03:43:23.000Z</time>
      </trkpt>
      <trkpt lat="45.41496" lon="4.58685">
        <ele>753.3</ele>
        <time>1970-01-01T03:43:24.000Z</time>
      </trkpt>
      <trkpt lat="45.415" lon="4.58684">
        <ele>753.4</ele>
        <time>1970-01-01T03:43:25.000Z</time>
      </trkpt>
      <trkpt lat="45.41505" lon="4.58681">
        <ele>753.7</ele>
        <time>1970-01-01T03:43:27.000Z</time>
      </trkpt>
      <trkpt lat="45.41508" lon="4.58682">
        <ele>753.8</ele>
        <time>1970-01-01T03:43:28.000Z</time>
      </trkpt>
      <trkpt lat="45.41512" lon="4.58682">
        <ele>753.9</ele>
        <time>1970-01-01T03:43:29.000Z</time>
      </trkpt>
      <trkpt lat="45.41515" lon="4.58682">
        <ele>754.1</ele>
        <time>1970-01-01T03:43:30.000Z</time>
      </trkpt>
      <trkpt lat="45.41519" lon="4.58683">
        <ele>754.3</ele>
        <time>1970-01-01T03:43:31.000Z</time>
      </trkpt>
      <trkpt lat="45.41523" lon="4.58683">
        <ele>754.5</ele>
        <time>1970-01-01T03:43:32.000Z</time>
      </trkpt>
      <trkpt lat="45.41527" lon="4.58681">
        <ele>754.6</ele>
        <time>1970-01-01T03:43:33.000Z</time>
      </trkpt>
      <trkpt lat="45.4153" lon="4.58679">
        <ele>754.8</ele>
        <time>1970-01-01T03:43:34.000Z</time>
      </trkpt>
      <trkpt lat="45.41534" lon="4.58679">
        <ele>755</ele>
        <time>1970-01-01T03:43:35.000Z</time>
      </trkpt>
      <trkpt lat="45.41539" lon="4.58678">
        <ele>755.1</ele>
        <time>1970-01-01T03:43:36.000Z</time>
      </trkpt>
      <trkpt lat="45.41543" lon="4.58677">
        <ele>755.2</ele>
        <time>1970-01-01T03:43:37.000Z</time>
      </trkpt>
      <trkpt lat="45.4155" lon="4.58676">
        <ele>755.4</ele>
        <time>1970-01-01T03:43:39.000Z</time>
      </trkpt>
      <trkpt lat="45.41557" lon="4.58675">
        <ele>755.6</ele>
        <time>1970-01-01T03:43:40.000Z</time>
      </trkpt>
      <trkpt lat="45.41565" lon="4.58673">
        <ele>755.9</ele>
        <time>1970-01-01T03:43:41.000Z</time>
      </trkpt>
      <trkpt lat="45.41572" lon="4.58671">
        <ele>756.1</ele>
        <time>1970-01-01T03:43:42.000Z</time>
      </trkpt>
      <trkpt lat="45.41576" lon="4.58671">
        <ele>756.2</ele>
        <time>1970-01-01T03:43:43.000Z</time>
      </trkpt>
      <trkpt lat="45.41581" lon="4.5867">
        <ele>756.3</ele>
        <time>1970-01-01T03:43:44.000Z</time>
      </trkpt>
      <trkpt lat="45.41587" lon="4.58672">
        <ele>756.4</ele>
        <time>1970-01-01T03:43:45.000Z</time>
      </trkpt>
      <trkpt lat="45.41591" lon="4.58674">
        <ele>756.5</ele>
        <time>1970-01-01T03:43:46.000Z</time>
      </trkpt>
      <trkpt lat="45.41595" lon="4.58674">
        <ele>756.6</ele>
        <time>1970-01-01T03:43:47.000Z</time>
      </trkpt>
      <trkpt lat="45.41599" lon="4.58674">
        <ele>756.6</ele>
        <time>1970-01-01T03:43:48.000Z</time>
      </trkpt>
      <trkpt lat="45.41603" lon="4.58674">
        <ele>756.7</ele>
        <time>1970-01-01T03:43:49.000Z</time>
      </trkpt>
      <trkpt lat="45.41607" lon="4.58676">
        <ele>756.8</ele>
        <time>1970-01-01T03:43:50.000Z</time>
      </trkpt>
      <trkpt lat="45.41611" lon="4.58678">
        <ele>756.9</ele>
        <time>1970-01-01T03:43:51.000Z</time>
      </trkpt>
      <trkpt lat="45.41615" lon="4.58678">
        <ele>756.9</ele>
        <time>1970-01-01T03:43:52.000Z</time>
      </trkpt>
      <trkpt lat="45.41619" lon="4.58678">
        <ele>757</ele>
        <time>1970-01-01T03:43:53.000Z</time>
      </trkpt>
      <trkpt lat="45.41623" lon="4.58678">
        <ele>757.1</ele>
        <time>1970-01-01T03:43:54.000Z</time>
      </trkpt>
      <trkpt lat="45.41627" lon="4.58678">
        <ele>757.1</ele>
        <time>1970-01-01T03:43:55.000Z</time>
      </trkpt>
      <trkpt lat="45.41631" lon="4.58679">
        <ele>757.2</ele>
        <time>1970-01-01T03:43:56.000Z</time>
      </trkpt>
      <trkpt lat="45.41635" lon="4.58679">
        <ele>757.2</ele>
        <time>1970-01-01T03:43:57.000Z</time>
      </trkpt>
      <trkpt lat="45.41639" lon="4.58678">
        <ele>757.2</ele>
        <time>1970-01-01T03:43:58.000Z</time>
      </trkpt>
      <trkpt lat="45.41643" lon="4.58679">
        <ele>757.3</ele>
        <time>1970-01-01T03:43:59.000Z</time>
      </trkpt>
      <trkpt lat="45.41647" lon="4.58677">
        <ele>757.2</ele>
        <time>1970-01-01T03:44:00.000Z</time>
      </trkpt>
      <trkpt lat="45.41651" lon="4.58676">
        <ele>757.1</ele>
        <time>1970-01-01T03:44:01.000Z</time>
      </trkpt>
      <trkpt lat="45.41655" lon="4.58674">
        <ele>757.1</ele>
        <time>1970-01-01T03:44:02.000Z</time>
      </trkpt>
      <trkpt lat="45.41658" lon="4.58673">
        <ele>757</ele>
        <time>1970-01-01T03:44:03.000Z</time>
      </trkpt>
      <trkpt lat="45.41662" lon="4.58672">
        <ele>756.9</ele>
        <time>1970-01-01T03:44:04.000Z</time>
      </trkpt>
      <trkpt lat="45.41667" lon="4.58671">
        <ele>756.7</ele>
        <time>1970-01-01T03:44:05.000Z</time>
      </trkpt>
      <trkpt lat="45.4167" lon="4.58669">
        <ele>756.6</ele>
        <time>1970-01-01T03:44:06.000Z</time>
      </trkpt>
      <trkpt lat="45.41674" lon="4.58668">
        <ele>756.5</ele>
        <time>1970-01-01T03:44:07.000Z</time>
      </trkpt>
      <trkpt lat="45.41678" lon="4.58667">
        <ele>756.4</ele>
        <time>1970-01-01T03:44:08.000Z</time>
      </trkpt>
      <trkpt lat="45.41682" lon="4.58666">
        <ele>756.3</ele>
        <time>1970-01-01T03:44:09.000Z</time>
      </trkpt>
      <trkpt lat="45.41685" lon="4.58665">
        <ele>756.3</ele>
        <time>1970-01-01T03:44:10.000Z</time>
      </trkpt>
      <trkpt lat="45.41688" lon="4.58664">
        <ele>756.2</ele>
        <time>1970-01-01T03:44:11.000Z</time>
      </trkpt>
      <trkpt lat="45.41692" lon="4.58662">
        <ele>756.1</ele>
        <time>1970-01-01T03:44:12.000Z</time>
      </trkpt>
      <trkpt lat="45.41695" lon="4.58661">
        <ele>756</ele>
        <time>1970-01-01T03:44:13.000Z</time>
      </trkpt>
      <trkpt lat="45.41699" lon="4.5866">
        <ele>755.9</ele>
        <time>1970-01-01T03:44:14.000Z</time>
      </trkpt>
      <trkpt lat="45.41702" lon="4.58658">
        <ele>755.8</ele>
        <time>1970-01-01T03:44:15.000Z</time>
      </trkpt>
      <trkpt lat="45.41707" lon="4.58657">
        <ele>755.5</ele>
        <time>1970-01-01T03:44:16.000Z</time>
      </trkpt>
      <trkpt lat="45.41712" lon="4.58656">
        <ele>755.3</ele>
        <time>1970-01-01T03:44:17.000Z</time>
      </trkpt>
      <trkpt lat="45.41718" lon="4.58654">
        <ele>755</ele>
        <time>1970-01-01T03:44:18.000Z</time>
      </trkpt>
      <trkpt lat="45.41723" lon="4.58654">
        <ele>754.7</ele>
        <time>1970-01-01T03:44:19.000Z</time>
      </trkpt>
      <trkpt lat="45.41729" lon="4.58653">
        <ele>754.4</ele>
        <time>1970-01-01T03:44:20.000Z</time>
      </trkpt>
      <trkpt lat="45.41735" lon="4.58652">
        <ele>754.1</ele>
        <time>1970-01-01T03:44:21.000Z</time>
      </trkpt>
      <trkpt lat="45.41741" lon="4.58652">
        <ele>753.8</ele>
        <time>1970-01-01T03:44:22.000Z</time>
      </trkpt>
      <trkpt lat="45.41746" lon="4.58649">
        <ele>753.5</ele>
        <time>1970-01-01T03:44:23.000Z</time>
      </trkpt>
      <trkpt lat="45.41753" lon="4.58646">
        <ele>753.2</ele>
        <time>1970-01-01T03:44:24.000Z</time>
      </trkpt>
      <trkpt lat="45.41759" lon="4.58644">
        <ele>752.8</ele>
        <time>1970-01-01T03:44:25.000Z</time>
      </trkpt>
      <trkpt lat="45.41766" lon="4.58643">
        <ele>752.4</ele>
        <time>1970-01-01T03:44:26.000Z</time>
      </trkpt>
      <trkpt lat="45.41773" lon="4.58641">
        <ele>751.9</ele>
        <time>1970-01-01T03:44:27.000Z</time>
      </trkpt>
      <trkpt lat="45.4178" lon="4.58639">
        <ele>751.5</ele>
        <time>1970-01-01T03:44:28.000Z</time>
      </trkpt>
      <trkpt lat="45.41787" lon="4.58637">
        <ele>751.1</ele>
        <time>1970-01-01T03:44:29.000Z</time>
      </trkpt>
      <trkpt lat="45.41793" lon="4.58636">
        <ele>750.7</ele>
        <time>1970-01-01T03:44:30.000Z</time>
      </trkpt>
      <trkpt lat="45.41799" lon="4.58636">
        <ele>750.4</ele>
        <time>1970-01-01T03:44:31.000Z</time>
      </trkpt>
      <trkpt lat="45.41805" lon="4.58636">
        <ele>750</ele>
        <time>1970-01-01T03:44:32.000Z</time>
      </trkpt>
      <trkpt lat="45.41812" lon="4.58635">
        <ele>749.6</ele>
        <time>1970-01-01T03:44:33.000Z</time>
      </trkpt>
      <trkpt lat="45.41819" lon="4.58634">
        <ele>749.2</ele>
        <time>1970-01-01T03:44:34.000Z</time>
      </trkpt>
      <trkpt lat="45.41828" lon="4.58633">
        <ele>748.7</ele>
        <time>1970-01-01T03:44:35.000Z</time>
      </trkpt>
      <trkpt lat="45.41835" lon="4.58634">
        <ele>748.2</ele>
        <time>1970-01-01T03:44:36.000Z</time>
      </trkpt>
      <trkpt lat="45.41842" lon="4.58634">
        <ele>747.7</ele>
        <time>1970-01-01T03:44:37.000Z</time>
      </trkpt>
      <trkpt lat="45.41849" lon="4.58635">
        <ele>747.2</ele>
        <time>1970-01-01T03:44:38.000Z</time>
      </trkpt>
      <trkpt lat="45.41856" lon="4.58635">
        <ele>746.8</ele>
        <time>1970-01-01T03:44:39.000Z</time>
      </trkpt>
      <trkpt lat="45.41863" lon="4.58636">
        <ele>746.3</ele>
        <time>1970-01-01T03:44:40.000Z</time>
      </trkpt>
      <trkpt lat="45.41871" lon="4.58636">
        <ele>745.7</ele>
        <time>1970-01-01T03:44:41.000Z</time>
      </trkpt>
      <trkpt lat="45.41879" lon="4.58637">
        <ele>745.2</ele>
        <time>1970-01-01T03:44:42.000Z</time>
      </trkpt>
      <trkpt lat="45.41888" lon="4.58638">
        <ele>744.6</ele>
        <time>1970-01-01T03:44:43.000Z</time>
      </trkpt>
      <trkpt lat="45.41897" lon="4.58639">
        <ele>744.1</ele>
        <time>1970-01-01T03:44:44.000Z</time>
      </trkpt>
      <trkpt lat="45.41905" lon="4.58641">
        <ele>743.6</ele>
        <time>1970-01-01T03:44:45.000Z</time>
      </trkpt>
      <trkpt lat="45.41914" lon="4.58643">
        <ele>743</ele>
        <time>1970-01-01T03:44:46.000Z</time>
      </trkpt>
      <trkpt lat="45.41923" lon="4.58646">
        <ele>742.5</ele>
        <time>1970-01-01T03:44:47.000Z</time>
      </trkpt>
      <trkpt lat="45.41932" lon="4.58649">
        <ele>742</ele>
        <time>1970-01-01T03:44:48.000Z</time>
      </trkpt>
      <trkpt lat="45.41941" lon="4.58653">
        <ele>741.4</ele>
        <time>1970-01-01T03:44:49.000Z</time>
      </trkpt>
      <trkpt lat="45.41949" lon="4.58657">
        <ele>740.8</ele>
        <time>1970-01-01T03:44:50.000Z</time>
      </trkpt>
      <trkpt lat="45.41957" lon="4.5866">
        <ele>740.3</ele>
        <time>1970-01-01T03:44:51.000Z</time>
      </trkpt>
      <trkpt lat="45.41965" lon="4.58665">
        <ele>739.7</ele>
        <time>1970-01-01T03:44:52.000Z</time>
      </trkpt>
      <trkpt lat="45.41973" lon="4.58671">
        <ele>739.1</ele>
        <time>1970-01-01T03:44:53.000Z</time>
      </trkpt>
      <trkpt lat="45.41982" lon="4.58676">
        <ele>738.5</ele>
        <time>1970-01-01T03:44:54.000Z</time>
      </trkpt>
      <trkpt lat="45.41991" lon="4.58681">
        <ele>737.9</ele>
        <time>1970-01-01T03:44:55.000Z</time>
      </trkpt>
      <trkpt lat="45.42" lon="4.58686">
        <ele>737.3</ele>
        <time>1970-01-01T03:44:56.000Z</time>
      </trkpt>
      <trkpt lat="45.42008" lon="4.58691">
        <ele>736.8</ele>
        <time>1970-01-01T03:44:57.000Z</time>
      </trkpt>
      <trkpt lat="45.42016" lon="4.58697">
        <ele>736.3</ele>
        <time>1970-01-01T03:44:58.000Z</time>
      </trkpt>
      <trkpt lat="45.42023" lon="4.58704">
        <ele>735.8</ele>
        <time>1970-01-01T03:44:59.000Z</time>
      </trkpt>
      <trkpt lat="45.42031" lon="4.5871">
        <ele>735.3</ele>
        <time>1970-01-01T03:45:00.000Z</time>
      </trkpt>
      <trkpt lat="45.42039" lon="4.58716">
        <ele>734.9</ele>
        <time>1970-01-01T03:45:01.000Z</time>
      </trkpt>
      <trkpt lat="45.42047" lon="4.58722">
        <ele>734.4</ele>
        <time>1970-01-01T03:45:02.000Z</time>
      </trkpt>
      <trkpt lat="45.42056" lon="4.58727">
        <ele>733.8</ele>
        <time>1970-01-01T03:45:03.000Z</time>
      </trkpt>
      <trkpt lat="45.42063" lon="4.58733">
        <ele>733.2</ele>
        <time>1970-01-01T03:45:04.000Z</time>
      </trkpt>
      <trkpt lat="45.42072" lon="4.5874">
        <ele>732.5</ele>
        <time>1970-01-01T03:45:05.000Z</time>
      </trkpt>
      <trkpt lat="45.4208" lon="4.58746">
        <ele>731.9</ele>
        <time>1970-01-01T03:45:06.000Z</time>
      </trkpt>
      <trkpt lat="45.4209" lon="4.58753">
        <ele>731.2</ele>
        <time>1970-01-01T03:45:07.000Z</time>
      </trkpt>
      <trkpt lat="45.42099" lon="4.58759">
        <ele>730.6</ele>
        <time>1970-01-01T03:45:08.000Z</time>
      </trkpt>
      <trkpt lat="45.42108" lon="4.58764">
        <ele>730</ele>
        <time>1970-01-01T03:45:09.000Z</time>
      </trkpt>
      <trkpt lat="45.42117" lon="4.58769">
        <ele>729.1</ele>
        <time>1970-01-01T03:45:10.000Z</time>
      </trkpt>
      <trkpt lat="45.42126" lon="4.58775">
        <ele>728.3</ele>
        <time>1970-01-01T03:45:11.000Z</time>
      </trkpt>
      <trkpt lat="45.42134" lon="4.58781">
        <ele>727.8</ele>
        <time>1970-01-01T03:45:12.000Z</time>
      </trkpt>
      <trkpt lat="45.42142" lon="4.58787">
        <ele>727.2</ele>
        <time>1970-01-01T03:45:13.000Z</time>
      </trkpt>
      <trkpt lat="45.42149" lon="4.58793">
        <ele>726.7</ele>
        <time>1970-01-01T03:45:14.000Z</time>
      </trkpt>
      <trkpt lat="45.42156" lon="4.58798">
        <ele>726.3</ele>
        <time>1970-01-01T03:45:15.000Z</time>
      </trkpt>
      <trkpt lat="45.42161" lon="4.58802">
        <ele>725.9</ele>
        <time>1970-01-01T03:45:16.000Z</time>
      </trkpt>
      <trkpt lat="45.42165" lon="4.58806">
        <ele>725.6</ele>
        <time>1970-01-01T03:45:17.000Z</time>
      </trkpt>
      <trkpt lat="45.42168" lon="4.58808">
        <ele>725.4</ele>
        <time>1970-01-01T03:45:18.000Z</time>
      </trkpt>
      <trkpt lat="45.4217" lon="4.58809">
        <ele>725.2</ele>
        <time>1970-01-01T03:45:19.000Z</time>
      </trkpt>
      <trkpt lat="45.42173" lon="4.58806">
        <ele>725.2</ele>
        <time>1970-01-01T03:45:21.000Z</time>
      </trkpt>
      <trkpt lat="45.4217" lon="4.58801">
        <ele>725.4</ele>
        <time>1970-01-01T03:45:23.000Z</time>
      </trkpt>
      <trkpt lat="45.42165" lon="4.58795">
        <ele>725.8</ele>
        <time>1970-01-01T03:45:25.000Z</time>
      </trkpt>
      <trkpt lat="45.42163" lon="4.58789">
        <ele>726</ele>
        <time>1970-01-01T03:45:26.000Z</time>
      </trkpt>
      <trkpt lat="45.42161" lon="4.58783">
        <ele>726.3</ele>
        <time>1970-01-01T03:45:27.000Z</time>
      </trkpt>
      <trkpt lat="45.42158" lon="4.58777">
        <ele>726.6</ele>
        <time>1970-01-01T03:45:28.000Z</time>
      </trkpt>
      <trkpt lat="45.42156" lon="4.58771">
        <ele>726.8</ele>
        <time>1970-01-01T03:45:29.000Z</time>
      </trkpt>
      <trkpt lat="45.42154" lon="4.58765">
        <ele>727.1</ele>
        <time>1970-01-01T03:45:30.000Z</time>
      </trkpt>
      <trkpt lat="45.4215" lon="4.58759">
        <ele>727.3</ele>
        <time>1970-01-01T03:45:31.000Z</time>
      </trkpt>
      <trkpt lat="45.42147" lon="4.58754">
        <ele>727.6</ele>
        <time>1970-01-01T03:45:32.000Z</time>
      </trkpt>
      <trkpt lat="45.42145" lon="4.58751">
        <ele>727.8</ele>
        <time>1970-01-01T03:45:33.000Z</time>
      </trkpt>
      <trkpt lat="45.42143" lon="4.58746">
        <ele>728</ele>
        <time>1970-01-01T03:45:36.000Z</time>
      </trkpt>
      <trkpt lat="45.42144" lon="4.58742">
        <ele>724.7</ele>
        <time>1970-01-01T03:45:38.000Z</time>
      </trkpt>
      <trkpt lat="45.42149" lon="4.58739">
        <ele>721.3</ele>
        <time>1970-01-01T03:45:40.000Z</time>
      </trkpt>
      <trkpt lat="45.42152" lon="4.58737">
        <ele>719.2</ele>
        <time>1970-01-01T03:45:41.000Z</time>
      </trkpt>
      <trkpt lat="45.42154" lon="4.58735">
        <ele>717</ele>
        <time>1970-01-01T03:45:42.000Z</time>
      </trkpt>
      <trkpt lat="45.42159" lon="4.58734">
        <ele>712.3</ele>
        <time>1970-01-01T03:45:44.000Z</time>
      </trkpt>
      <trkpt lat="45.42163" lon="4.58735">
        <ele>710.3</ele>
        <time>1970-01-01T03:45:45.000Z</time>
      </trkpt>
      <trkpt lat="45.42166" lon="4.58736">
        <ele>709.5</ele>
        <time>1970-01-01T03:45:46.000Z</time>
      </trkpt>
      <trkpt lat="45.42171" lon="4.5874">
        <ele>707.6</ele>
        <time>1970-01-01T03:45:47.000Z</time>
      </trkpt>
      <trkpt lat="45.42178" lon="4.58744">
        <ele>705.7</ele>
        <time>1970-01-01T03:45:48.000Z</time>
      </trkpt>
      <trkpt lat="45.42186" lon="4.58749">
        <ele>703</ele>
        <time>1970-01-01T03:45:49.000Z</time>
      </trkpt>
      <trkpt lat="45.42193" lon="4.58753">
        <ele>701.6</ele>
        <time>1970-01-01T03:45:50.000Z</time>
      </trkpt>
      <trkpt lat="45.422" lon="4.58756">
        <ele>699.3</ele>
        <time>1970-01-01T03:45:51.000Z</time>
      </trkpt>
      <trkpt lat="45.4221" lon="4.5876">
        <ele>696.5</ele>
        <time>1970-01-01T03:45:52.000Z</time>
      </trkpt>
      <trkpt lat="45.42221" lon="4.58763">
        <ele>693.4</ele>
        <time>1970-01-01T03:45:53.000Z</time>
      </trkpt>
      <trkpt lat="45.42233" lon="4.58766">
        <ele>690.7</ele>
        <time>1970-01-01T03:45:54.000Z</time>
      </trkpt>
      <trkpt lat="45.42244" lon="4.58768">
        <ele>686.4</ele>
        <time>1970-01-01T03:45:55.000Z</time>
      </trkpt>
      <trkpt lat="45.42253" lon="4.58771">
        <ele>684.8</ele>
        <time>1970-01-01T03:45:56.000Z</time>
      </trkpt>
      <trkpt lat="45.42261" lon="4.58771">
        <ele>682.8</ele>
        <time>1970-01-01T03:45:57.000Z</time>
      </trkpt>
      <trkpt lat="45.42268" lon="4.58768">
        <ele>678.9</ele>
        <time>1970-01-01T03:45:58.000Z</time>
      </trkpt>
      <trkpt lat="45.42276" lon="4.58771">
        <ele>678.4</ele>
        <time>1970-01-01T03:45:59.000Z</time>
      </trkpt>
      <trkpt lat="45.42286" lon="4.58772">
        <ele>676.7</ele>
        <time>1970-01-01T03:46:00.000Z</time>
      </trkpt>
      <trkpt lat="45.42295" lon="4.58772">
        <ele>674.6</ele>
        <time>1970-01-01T03:46:01.000Z</time>
      </trkpt>
      <trkpt lat="45.42304" lon="4.58772">
        <ele>672.7</ele>
        <time>1970-01-01T03:46:02.000Z</time>
      </trkpt>
      <trkpt lat="45.42311" lon="4.58776">
        <ele>672.5</ele>
        <time>1970-01-01T03:46:03.000Z</time>
      </trkpt>
      <trkpt lat="45.42319" lon="4.5878">
        <ele>670.9</ele>
        <time>1970-01-01T03:46:04.000Z</time>
      </trkpt>
      <trkpt lat="45.42328" lon="4.58782">
        <ele>667.5</ele>
        <time>1970-01-01T03:46:05.000Z</time>
      </trkpt>
      <trkpt lat="45.42334" lon="4.58782">
        <ele>665.1</ele>
        <time>1970-01-01T03:46:06.000Z</time>
      </trkpt>
      <trkpt lat="45.42337" lon="4.58784">
        <ele>664.4</ele>
        <time>1970-01-01T03:46:07.000Z</time>
      </trkpt>
      <trkpt lat="45.42338" lon="4.58788">
        <ele>664.7</ele>
        <time>1970-01-01T03:46:08.000Z</time>
      </trkpt>
      <trkpt lat="45.42341" lon="4.58794">
        <ele>663.9</ele>
        <time>1970-01-01T03:46:09.000Z</time>
      </trkpt>
      <trkpt lat="45.42345" lon="4.588">
        <ele>663.7</ele>
        <time>1970-01-01T03:46:10.000Z</time>
      </trkpt>
      <trkpt lat="45.42353" lon="4.58805">
        <ele>660.2</ele>
        <time>1970-01-01T03:46:11.000Z</time>
      </trkpt>
      <trkpt lat="45.42359" lon="4.58812">
        <ele>658.1</ele>
        <time>1970-01-01T03:46:12.000Z</time>
      </trkpt>
      <trkpt lat="45.42365" lon="4.5882">
        <ele>656.9</ele>
        <time>1970-01-01T03:46:13.000Z</time>
      </trkpt>
      <trkpt lat="45.4237" lon="4.58827">
        <ele>655.8</ele>
        <time>1970-01-01T03:46:14.000Z</time>
      </trkpt>
      <trkpt lat="45.42376" lon="4.58829">
        <ele>653.5</ele>
        <time>1970-01-01T03:46:15.000Z</time>
      </trkpt>
      <trkpt lat="45.42384" lon="4.58828">
        <ele>651.4</ele>
        <time>1970-01-01T03:46:16.000Z</time>
      </trkpt>
      <trkpt lat="45.4239" lon="4.58829">
        <ele>649.5</ele>
        <time>1970-01-01T03:46:17.000Z</time>
      </trkpt>
      <trkpt lat="45.42394" lon="4.58829">
        <ele>647.7</ele>
        <time>1970-01-01T03:46:18.000Z</time>
      </trkpt>
      <trkpt lat="45.42398" lon="4.58826">
        <ele>646.6</ele>
        <time>1970-01-01T03:46:19.000Z</time>
      </trkpt>
      <trkpt lat="45.42404" lon="4.58825">
        <ele>643.9</ele>
        <time>1970-01-01T03:46:20.000Z</time>
      </trkpt>
      <trkpt lat="45.4241" lon="4.58823">
        <ele>642.7</ele>
        <time>1970-01-01T03:46:21.000Z</time>
      </trkpt>
      <trkpt lat="45.42416" lon="4.5882">
        <ele>641</ele>
        <time>1970-01-01T03:46:22.000Z</time>
      </trkpt>
      <trkpt lat="45.42421" lon="4.58816">
        <ele>639.5</ele>
        <time>1970-01-01T03:46:23.000Z</time>
      </trkpt>
      <trkpt lat="45.42427" lon="4.58813">
        <ele>639.2</ele>
        <time>1970-01-01T03:46:24.000Z</time>
      </trkpt>
      <trkpt lat="45.42432" lon="4.58811">
        <ele>637.8</ele>
        <time>1970-01-01T03:46:25.000Z</time>
      </trkpt>
      <trkpt lat="45.42438" lon="4.58808">
        <ele>637.6</ele>
        <time>1970-01-01T03:46:26.000Z</time>
      </trkpt>
      <trkpt lat="45.42445" lon="4.58805">
        <ele>636</ele>
        <time>1970-01-01T03:46:27.000Z</time>
      </trkpt>
      <trkpt lat="45.42454" lon="4.58803">
        <ele>633.9</ele>
        <time>1970-01-01T03:46:28.000Z</time>
      </trkpt>
      <trkpt lat="45.42463" lon="4.588">
        <ele>632.8</ele>
        <time>1970-01-01T03:46:29.000Z</time>
      </trkpt>
      <trkpt lat="45.42471" lon="4.58798">
        <ele>630.2</ele>
        <time>1970-01-01T03:46:30.000Z</time>
      </trkpt>
      <trkpt lat="45.42479" lon="4.58795">
        <ele>629</ele>
        <time>1970-01-01T03:46:31.000Z</time>
      </trkpt>
      <trkpt lat="45.42486" lon="4.58793">
        <ele>626.9</ele>
        <time>1970-01-01T03:46:32.000Z</time>
      </trkpt>
      <trkpt lat="45.42493" lon="4.58792">
        <ele>626.1</ele>
        <time>1970-01-01T03:46:33.000Z</time>
      </trkpt>
      <trkpt lat="45.425" lon="4.58793">
        <ele>625.2</ele>
        <time>1970-01-01T03:46:34.000Z</time>
      </trkpt>
      <trkpt lat="45.42506" lon="4.58794">
        <ele>624.5</ele>
        <time>1970-01-01T03:46:35.000Z</time>
      </trkpt>
      <trkpt lat="45.42512" lon="4.58793">
        <ele>623.7</ele>
        <time>1970-01-01T03:46:36.000Z</time>
      </trkpt>
      <trkpt lat="45.42516" lon="4.58792">
        <ele>623</ele>
        <time>1970-01-01T03:46:37.000Z</time>
      </trkpt>
      <trkpt lat="45.4252" lon="4.58792">
        <ele>622.5</ele>
        <time>1970-01-01T03:46:39.000Z</time>
      </trkpt>
      <trkpt lat="45.42525" lon="4.58794">
        <ele>621.8</ele>
        <time>1970-01-01T03:46:41.000Z</time>
      </trkpt>
      <trkpt lat="45.42527" lon="4.58794">
        <ele>621.3</ele>
        <time>1970-01-01T03:46:42.000Z</time>
      </trkpt>
      <trkpt lat="45.4253" lon="4.58795">
        <ele>620.9</ele>
        <time>1970-01-01T03:46:43.000Z</time>
      </trkpt>
      <trkpt lat="45.42535" lon="4.58794">
        <ele>620.1</ele>
        <time>1970-01-01T03:46:44.000Z</time>
      </trkpt>
      <trkpt lat="45.42543" lon="4.58792">
        <ele>619.9</ele>
        <time>1970-01-01T03:46:45.000Z</time>
      </trkpt>
      <trkpt lat="45.42549" lon="4.58793">
        <ele>619.8</ele>
        <time>1970-01-01T03:46:46.000Z</time>
      </trkpt>
      <trkpt lat="45.42555" lon="4.58794">
        <ele>619.7</ele>
        <time>1970-01-01T03:46:47.000Z</time>
      </trkpt>
      <trkpt lat="45.42561" lon="4.58795">
        <ele>619.7</ele>
        <time>1970-01-01T03:46:48.000Z</time>
      </trkpt>
      <trkpt lat="45.42566" lon="4.58795">
        <ele>619.7</ele>
        <time>1970-01-01T03:46:49.000Z</time>
      </trkpt>
      <trkpt lat="45.42573" lon="4.58795">
        <ele>620.7</ele>
        <time>1970-01-01T03:46:50.000Z</time>
      </trkpt>
      <trkpt lat="45.4258" lon="4.58794">
        <ele>621.3</ele>
        <time>1970-01-01T03:46:51.000Z</time>
      </trkpt>
      <trkpt lat="45.42587" lon="4.58793">
        <ele>621.1</ele>
        <time>1970-01-01T03:46:52.000Z</time>
      </trkpt>
      <trkpt lat="45.42592" lon="4.58792">
        <ele>620.4</ele>
        <time>1970-01-01T03:46:53.000Z</time>
      </trkpt>
      <trkpt lat="45.42596" lon="4.58788">
        <ele>619.8</ele>
        <time>1970-01-01T03:46:54.000Z</time>
      </trkpt>
      <trkpt lat="45.426" lon="4.58783">
        <ele>619</ele>
        <time>1970-01-01T03:46:55.000Z</time>
      </trkpt>
      <trkpt lat="45.42606" lon="4.58783">
        <ele>618.2</ele>
        <time>1970-01-01T03:46:56.000Z</time>
      </trkpt>
      <trkpt lat="45.42612" lon="4.58786">
        <ele>617.3</ele>
        <time>1970-01-01T03:46:57.000Z</time>
      </trkpt>
      <trkpt lat="45.4262" lon="4.58788">
        <ele>617</ele>
        <time>1970-01-01T03:46:58.000Z</time>
      </trkpt>
      <trkpt lat="45.42625" lon="4.5879">
        <ele>617</ele>
        <time>1970-01-01T03:46:59.000Z</time>
      </trkpt>
      <trkpt lat="45.4263" lon="4.58792">
        <ele>618</ele>
        <time>1970-01-01T03:47:00.000Z</time>
      </trkpt>
      <trkpt lat="45.42636" lon="4.58794">
        <ele>617.3</ele>
        <time>1970-01-01T03:47:01.000Z</time>
      </trkpt>
      <trkpt lat="45.42642" lon="4.588">
        <ele>620.6</ele>
        <time>1970-01-01T03:47:02.000Z</time>
      </trkpt>
      <trkpt lat="45.42648" lon="4.58805">
        <ele>622</ele>
        <time>1970-01-01T03:47:03.000Z</time>
      </trkpt>
      <trkpt lat="45.42653" lon="4.5881">
        <ele>623.3</ele>
        <time>1970-01-01T03:47:04.000Z</time>
      </trkpt>
      <trkpt lat="45.42658" lon="4.58817">
        <ele>627</ele>
        <time>1970-01-01T03:47:05.000Z</time>
      </trkpt>
      <trkpt lat="45.42664" lon="4.58822">
        <ele>628</ele>
        <time>1970-01-01T03:47:06.000Z</time>
      </trkpt>
      <trkpt lat="45.42671" lon="4.58823">
        <ele>626.2</ele>
        <time>1970-01-01T03:47:07.000Z</time>
      </trkpt>
      <trkpt lat="45.42678" lon="4.58825">
        <ele>624.9</ele>
        <time>1970-01-01T03:47:08.000Z</time>
      </trkpt>
      <trkpt lat="45.42685" lon="4.58829">
        <ele>625.5</ele>
        <time>1970-01-01T03:47:09.000Z</time>
      </trkpt>
      <trkpt lat="45.42693" lon="4.58834">
        <ele>626.9</ele>
        <time>1970-01-01T03:47:10.000Z</time>
      </trkpt>
      <trkpt lat="45.42699" lon="4.58835">
        <ele>626</ele>
        <time>1970-01-01T03:47:11.000Z</time>
      </trkpt>
      <trkpt lat="45.42704" lon="4.58833">
        <ele>623.9</ele>
        <time>1970-01-01T03:47:12.000Z</time>
      </trkpt>
      <trkpt lat="45.42708" lon="4.58828">
        <ele>622.6</ele>
        <time>1970-01-01T03:47:13.000Z</time>
      </trkpt>
      <trkpt lat="45.42711" lon="4.58823">
        <ele>621.4</ele>
        <time>1970-01-01T03:47:14.000Z</time>
      </trkpt>
      <trkpt lat="45.42712" lon="4.58817">
        <ele>620.7</ele>
        <time>1970-01-01T03:47:15.000Z</time>
      </trkpt>
      <trkpt lat="45.4271" lon="4.58812">
        <ele>618.8</ele>
        <time>1970-01-01T03:47:16.000Z</time>
      </trkpt>
      <trkpt lat="45.42703" lon="4.58808">
        <ele>620.1</ele>
        <time>1970-01-01T03:47:17.000Z</time>
      </trkpt>
      <trkpt lat="45.42697" lon="4.58802">
        <ele>619.1</ele>
        <time>1970-01-01T03:47:18.000Z</time>
      </trkpt>
      <trkpt lat="45.42693" lon="4.58796">
        <ele>619</ele>
        <time>1970-01-01T03:47:19.000Z</time>
      </trkpt>
      <trkpt lat="45.42688" lon="4.58791">
        <ele>617.9</ele>
        <time>1970-01-01T03:47:20.000Z</time>
      </trkpt>
      <trkpt lat="45.42686" lon="4.58786">
        <ele>617.2</ele>
        <time>1970-01-01T03:47:21.000Z</time>
      </trkpt>
      <trkpt lat="45.42688" lon="4.5878">
        <ele>616.5</ele>
        <time>1970-01-01T03:47:23.000Z</time>
      </trkpt>
      <trkpt lat="45.42692" lon="4.5878">
        <ele>617.1</ele>
        <time>1970-01-01T03:47:24.000Z</time>
      </trkpt>
      <trkpt lat="45.42697" lon="4.58782">
        <ele>617.6</ele>
        <time>1970-01-01T03:47:25.000Z</time>
      </trkpt>
      <trkpt lat="45.42702" lon="4.58778">
        <ele>617.1</ele>
        <time>1970-01-01T03:47:26.000Z</time>
      </trkpt>
      <trkpt lat="45.42704" lon="4.58771">
        <ele>616.7</ele>
        <time>1970-01-01T03:47:27.000Z</time>
      </trkpt>
      <trkpt lat="45.42702" lon="4.58766">
        <ele>616.3</ele>
        <time>1970-01-01T03:47:28.000Z</time>
      </trkpt>
      <trkpt lat="45.42699" lon="4.58761">
        <ele>615.9</ele>
        <time>1970-01-01T03:47:30.000Z</time>
      </trkpt>
      <trkpt lat="45.427" lon="4.58752">
        <ele>615.3</ele>
        <time>1970-01-01T03:47:32.000Z</time>
      </trkpt>
      <trkpt lat="45.42702" lon="4.58747">
        <ele>614.9</ele>
        <time>1970-01-01T03:47:33.000Z</time>
      </trkpt>
      <trkpt lat="45.42703" lon="4.58742">
        <ele>614.7</ele>
        <time>1970-01-01T03:47:34.000Z</time>
      </trkpt>
      <trkpt lat="45.427" lon="4.58736">
        <ele>614.3</ele>
        <time>1970-01-01T03:47:35.000Z</time>
      </trkpt>
      <trkpt lat="45.42699" lon="4.58728">
        <ele>614</ele>
        <time>1970-01-01T03:47:36.000Z</time>
      </trkpt>
      <trkpt lat="45.427" lon="4.5872">
        <ele>613.6</ele>
        <time>1970-01-01T03:47:37.000Z</time>
      </trkpt>
      <trkpt lat="45.427" lon="4.5871">
        <ele>613.1</ele>
        <time>1970-01-01T03:47:38.000Z</time>
      </trkpt>
      <trkpt lat="45.42699" lon="4.58699">
        <ele>612.6</ele>
        <time>1970-01-01T03:47:39.000Z</time>
      </trkpt>
      <trkpt lat="45.42699" lon="4.58688">
        <ele>612</ele>
        <time>1970-01-01T03:47:40.000Z</time>
      </trkpt>
      <trkpt lat="45.42701" lon="4.58674">
        <ele>611.4</ele>
        <time>1970-01-01T03:47:41.000Z</time>
      </trkpt>
      <trkpt lat="45.42705" lon="4.58659">
        <ele>610.5</ele>
        <time>1970-01-01T03:47:42.000Z</time>
      </trkpt>
      <trkpt lat="45.42711" lon="4.58647">
        <ele>609.8</ele>
        <time>1970-01-01T03:47:43.000Z</time>
      </trkpt>
      <trkpt lat="45.42716" lon="4.58636">
        <ele>609.1</ele>
        <time>1970-01-01T03:47:44.000Z</time>
      </trkpt>
      <trkpt lat="45.42717" lon="4.58625">
        <ele>608.5</ele>
        <time>1970-01-01T03:47:45.000Z</time>
      </trkpt>
      <trkpt lat="45.42718" lon="4.58615">
        <ele>608.1</ele>
        <time>1970-01-01T03:47:46.000Z</time>
      </trkpt>
      <trkpt lat="45.42717" lon="4.58609">
        <ele>607.9</ele>
        <time>1970-01-01T03:47:47.000Z</time>
      </trkpt>
      <trkpt lat="45.42713" lon="4.58602">
        <ele>607.5</ele>
        <time>1970-01-01T03:47:57.000Z</time>
      </trkpt>
      <trkpt lat="45.42717" lon="4.58597">
        <ele>607.1</ele>
        <time>1970-01-01T03:48:43.000Z</time>
      </trkpt>
      <trkpt lat="45.42719" lon="4.58592">
        <ele>609.1</ele>
        <time>1970-01-01T03:49:11.000Z</time>
      </trkpt>
      <trkpt lat="45.4272" lon="4.58588">
        <ele>611.6</ele>
        <time>1970-01-01T03:49:13.000Z</time>
      </trkpt>
      <trkpt lat="45.42721" lon="4.58582">
        <ele>615.1</ele>
        <time>1970-01-01T03:49:15.000Z</time>
      </trkpt>
      <trkpt lat="45.42722" lon="4.58575">
        <ele>619.6</ele>
        <time>1970-01-01T03:49:17.000Z</time>
      </trkpt>
      <trkpt lat="45.42723" lon="4.5857">
        <ele>622.6</ele>
        <time>1970-01-01T03:49:18.000Z</time>
      </trkpt>
      <trkpt lat="45.42724" lon="4.58565">
        <ele>624.9</ele>
        <time>1970-01-01T03:49:19.000Z</time>
      </trkpt>
      <trkpt lat="45.42727" lon="4.5856">
        <ele>624.3</ele>
        <time>1970-01-01T03:49:20.000Z</time>
      </trkpt>
      <trkpt lat="45.4273" lon="4.58555">
        <ele>623.5</ele>
        <time>1970-01-01T03:49:21.000Z</time>
      </trkpt>
      <trkpt lat="45.42735" lon="4.5855">
        <ele>622.7</ele>
        <time>1970-01-01T03:49:22.000Z</time>
      </trkpt>
      <trkpt lat="45.42739" lon="4.58545">
        <ele>622</ele>
        <time>1970-01-01T03:49:23.000Z</time>
      </trkpt>
      <trkpt lat="45.42744" lon="4.5854">
        <ele>621.2</ele>
        <time>1970-01-01T03:49:24.000Z</time>
      </trkpt>
      <trkpt lat="45.42748" lon="4.58535">
        <ele>620.4</ele>
        <time>1970-01-01T03:49:25.000Z</time>
      </trkpt>
      <trkpt lat="45.42752" lon="4.58528">
        <ele>619.6</ele>
        <time>1970-01-01T03:49:26.000Z</time>
      </trkpt>
      <trkpt lat="45.42756" lon="4.58521">
        <ele>618.7</ele>
        <time>1970-01-01T03:49:27.000Z</time>
      </trkpt>
      <trkpt lat="45.4276" lon="4.58514">
        <ele>617.6</ele>
        <time>1970-01-01T03:49:28.000Z</time>
      </trkpt>
      <trkpt lat="45.42765" lon="4.58508">
        <ele>616.5</ele>
        <time>1970-01-01T03:49:29.000Z</time>
      </trkpt>
      <trkpt lat="45.42769" lon="4.58501">
        <ele>615.4</ele>
        <time>1970-01-01T03:49:30.000Z</time>
      </trkpt>
      <trkpt lat="45.42774" lon="4.58492">
        <ele>614.1</ele>
        <time>1970-01-01T03:49:31.000Z</time>
      </trkpt>
      <trkpt lat="45.42784" lon="4.58473">
        <ele>610.6</ele>
        <time>1970-01-01T03:49:33.000Z</time>
      </trkpt>
      <trkpt lat="45.42785" lon="4.58462">
        <ele>605.7</ele>
        <time>1970-01-01T03:49:34.000Z</time>
      </trkpt>
      <trkpt lat="45.42786" lon="4.5845">
        <ele>602</ele>
        <time>1970-01-01T03:49:35.000Z</time>
      </trkpt>
      <trkpt lat="45.42786" lon="4.58439">
        <ele>600.1</ele>
        <time>1970-01-01T03:49:36.000Z</time>
      </trkpt>
      <trkpt lat="45.42785" lon="4.5843">
        <ele>598.9</ele>
        <time>1970-01-01T03:49:37.000Z</time>
      </trkpt>
      <trkpt lat="45.42784" lon="4.58421">
        <ele>597.7</ele>
        <time>1970-01-01T03:49:38.000Z</time>
      </trkpt>
      <trkpt lat="45.42784" lon="4.58413">
        <ele>597</ele>
        <time>1970-01-01T03:49:39.000Z</time>
      </trkpt>
      <trkpt lat="45.42783" lon="4.58404">
        <ele>596.2</ele>
        <time>1970-01-01T03:49:40.000Z</time>
      </trkpt>
      <trkpt lat="45.42783" lon="4.58396">
        <ele>595.4</ele>
        <time>1970-01-01T03:49:41.000Z</time>
      </trkpt>
      <trkpt lat="45.42783" lon="4.58389">
        <ele>595</ele>
        <time>1970-01-01T03:49:42.000Z</time>
      </trkpt>
      <trkpt lat="45.42783" lon="4.58381">
        <ele>595</ele>
        <time>1970-01-01T03:49:43.000Z</time>
      </trkpt>
      <trkpt lat="45.42784" lon="4.58374">
        <ele>595</ele>
        <time>1970-01-01T03:49:44.000Z</time>
      </trkpt>
      <trkpt lat="45.42784" lon="4.58367">
        <ele>595</ele>
        <time>1970-01-01T03:49:45.000Z</time>
      </trkpt>
      <trkpt lat="45.42783" lon="4.58359">
        <ele>595</ele>
        <time>1970-01-01T03:49:46.000Z</time>
      </trkpt>
      <trkpt lat="45.42783" lon="4.58352">
        <ele>595</ele>
        <time>1970-01-01T03:49:47.000Z</time>
      </trkpt>
      <trkpt lat="45.42782" lon="4.58344">
        <ele>595</ele>
        <time>1970-01-01T03:49:48.000Z</time>
      </trkpt>
      <trkpt lat="45.42781" lon="4.58336">
        <ele>594.8</ele>
        <time>1970-01-01T03:49:49.000Z</time>
      </trkpt>
      <trkpt lat="45.42781" lon="4.58327">
        <ele>594.2</ele>
        <time>1970-01-01T03:49:50.000Z</time>
      </trkpt>
      <trkpt lat="45.42782" lon="4.58317">
        <ele>593.6</ele>
        <time>1970-01-01T03:49:51.000Z</time>
      </trkpt>
      <trkpt lat="45.42784" lon="4.58308">
        <ele>593</ele>
        <time>1970-01-01T03:49:52.000Z</time>
      </trkpt>
      <trkpt lat="45.42786" lon="4.583">
        <ele>592.5</ele>
        <time>1970-01-01T03:49:53.000Z</time>
      </trkpt>
      <trkpt lat="45.42789" lon="4.58291">
        <ele>591.9</ele>
        <time>1970-01-01T03:49:54.000Z</time>
      </trkpt>
      <trkpt lat="45.42793" lon="4.58283">
        <ele>591.3</ele>
        <time>1970-01-01T03:49:55.000Z</time>
      </trkpt>
      <trkpt lat="45.42798" lon="4.58274">
        <ele>590.7</ele>
        <time>1970-01-01T03:49:56.000Z</time>
      </trkpt>
      <trkpt lat="45.42803" lon="4.58265">
        <ele>590</ele>
        <time>1970-01-01T03:49:57.000Z</time>
      </trkpt>
      <trkpt lat="45.42809" lon="4.58256">
        <ele>589.3</ele>
        <time>1970-01-01T03:49:58.000Z</time>
      </trkpt>
      <trkpt lat="45.42815" lon="4.58246">
        <ele>588.6</ele>
        <time>1970-01-01T03:49:59.000Z</time>
      </trkpt>
      <trkpt lat="45.42821" lon="4.58237">
        <ele>587.8</ele>
        <time>1970-01-01T03:50:00.000Z</time>
      </trkpt>
      <trkpt lat="45.42827" lon="4.58227">
        <ele>587.1</ele>
        <time>1970-01-01T03:50:01.000Z</time>
      </trkpt>
      <trkpt lat="45.42833" lon="4.58217">
        <ele>586.3</ele>
        <time>1970-01-01T03:50:02.000Z</time>
      </trkpt>
      <trkpt lat="45.42839" lon="4.58206">
        <ele>585.6</ele>
        <time>1970-01-01T03:50:03.000Z</time>
      </trkpt>
      <trkpt lat="45.42844" lon="4.58195">
        <ele>584.8</ele>
        <time>1970-01-01T03:50:04.000Z</time>
      </trkpt>
      <trkpt lat="45.4285" lon="4.58185">
        <ele>584.1</ele>
        <time>1970-01-01T03:50:05.000Z</time>
      </trkpt>
      <trkpt lat="45.42856" lon="4.58174">
        <ele>583.4</ele>
        <time>1970-01-01T03:50:06.000Z</time>
      </trkpt>
      <trkpt lat="45.42863" lon="4.58162">
        <ele>582.7</ele>
        <time>1970-01-01T03:50:07.000Z</time>
      </trkpt>
      <trkpt lat="45.4287" lon="4.58151">
        <ele>582.1</ele>
        <time>1970-01-01T03:50:08.000Z</time>
      </trkpt>
      <trkpt lat="45.42877" lon="4.58139">
        <ele>581.4</ele>
        <time>1970-01-01T03:50:09.000Z</time>
      </trkpt>
      <trkpt lat="45.42884" lon="4.58127">
        <ele>581</ele>
        <time>1970-01-01T03:50:10.000Z</time>
      </trkpt>
      <trkpt lat="45.42889" lon="4.58114">
        <ele>580.6</ele>
        <time>1970-01-01T03:50:11.000Z</time>
      </trkpt>
      <trkpt lat="45.42896" lon="4.58102">
        <ele>580.2</ele>
        <time>1970-01-01T03:50:12.000Z</time>
      </trkpt>
      <trkpt lat="45.42904" lon="4.58091">
        <ele>579.8</ele>
        <time>1970-01-01T03:50:13.000Z</time>
      </trkpt>
      <trkpt lat="45.4291" lon="4.58078">
        <ele>579.4</ele>
        <time>1970-01-01T03:50:14.000Z</time>
      </trkpt>
      <trkpt lat="45.42915" lon="4.58065">
        <ele>579.2</ele>
        <time>1970-01-01T03:50:15.000Z</time>
      </trkpt>
      <trkpt lat="45.42921" lon="4.58053">
        <ele>578.9</ele>
        <time>1970-01-01T03:50:16.000Z</time>
      </trkpt>
      <trkpt lat="45.42925" lon="4.58041">
        <ele>578.6</ele>
        <time>1970-01-01T03:50:17.000Z</time>
      </trkpt>
      <trkpt lat="45.4293" lon="4.58028">
        <ele>578.3</ele>
        <time>1970-01-01T03:50:18.000Z</time>
      </trkpt>
      <trkpt lat="45.42934" lon="4.58017">
        <ele>578.1</ele>
        <time>1970-01-01T03:50:19.000Z</time>
      </trkpt>
      <trkpt lat="45.42939" lon="4.58005">
        <ele>577.9</ele>
        <time>1970-01-01T03:50:20.000Z</time>
      </trkpt>
      <trkpt lat="45.42943" lon="4.57994">
        <ele>577.6</ele>
        <time>1970-01-01T03:50:21.000Z</time>
      </trkpt>
      <trkpt lat="45.42948" lon="4.57983">
        <ele>577.4</ele>
        <time>1970-01-01T03:50:22.000Z</time>
      </trkpt>
      <trkpt lat="45.42953" lon="4.57973">
        <ele>577.1</ele>
        <time>1970-01-01T03:50:23.000Z</time>
      </trkpt>
      <trkpt lat="45.42959" lon="4.57963">
        <ele>576.8</ele>
        <time>1970-01-01T03:50:24.000Z</time>
      </trkpt>
      <trkpt lat="45.42964" lon="4.57953">
        <ele>576.5</ele>
        <time>1970-01-01T03:50:25.000Z</time>
      </trkpt>
      <trkpt lat="45.4297" lon="4.57944">
        <ele>576.1</ele>
        <time>1970-01-01T03:50:26.000Z</time>
      </trkpt>
      <trkpt lat="45.42977" lon="4.57935">
        <ele>575.7</ele>
        <time>1970-01-01T03:50:27.000Z</time>
      </trkpt>
      <trkpt lat="45.42983" lon="4.57926">
        <ele>575.3</ele>
        <time>1970-01-01T03:50:28.000Z</time>
      </trkpt>
      <trkpt lat="45.42989" lon="4.57918">
        <ele>574.8</ele>
        <time>1970-01-01T03:50:29.000Z</time>
      </trkpt>
      <trkpt lat="45.42995" lon="4.57909">
        <ele>574.3</ele>
        <time>1970-01-01T03:50:30.000Z</time>
      </trkpt>
      <trkpt lat="45.43001" lon="4.579">
        <ele>573.7</ele>
        <time>1970-01-01T03:50:31.000Z</time>
      </trkpt>
      <trkpt lat="45.43008" lon="4.57891">
        <ele>573.1</ele>
        <time>1970-01-01T03:50:32.000Z</time>
      </trkpt>
      <trkpt lat="45.43014" lon="4.57882">
        <ele>572.5</ele>
        <time>1970-01-01T03:50:33.000Z</time>
      </trkpt>
      <trkpt lat="45.43021" lon="4.57873">
        <ele>571.9</ele>
        <time>1970-01-01T03:50:34.000Z</time>
      </trkpt>
      <trkpt lat="45.43027" lon="4.57864">
        <ele>571.3</ele>
        <time>1970-01-01T03:50:35.000Z</time>
      </trkpt>
      <trkpt lat="45.43034" lon="4.57854">
        <ele>570.7</ele>
        <time>1970-01-01T03:50:36.000Z</time>
      </trkpt>
      <trkpt lat="45.43041" lon="4.57844">
        <ele>570.1</ele>
        <time>1970-01-01T03:50:37.000Z</time>
      </trkpt>
      <trkpt lat="45.43048" lon="4.57834">
        <ele>569.4</ele>
        <time>1970-01-01T03:50:38.000Z</time>
      </trkpt>
      <trkpt lat="45.43056" lon="4.57826">
        <ele>568.7</ele>
        <time>1970-01-01T03:50:39.000Z</time>
      </trkpt>
      <trkpt lat="45.43064" lon="4.57819">
        <ele>568.1</ele>
        <time>1970-01-01T03:50:40.000Z</time>
      </trkpt>
      <trkpt lat="45.43072" lon="4.57812">
        <ele>567.4</ele>
        <time>1970-01-01T03:50:41.000Z</time>
      </trkpt>
      <trkpt lat="45.43081" lon="4.57804">
        <ele>566.3</ele>
        <time>1970-01-01T03:50:42.000Z</time>
      </trkpt>
      <trkpt lat="45.43089" lon="4.57795">
        <ele>565.5</ele>
        <time>1970-01-01T03:50:43.000Z</time>
      </trkpt>
      <trkpt lat="45.43097" lon="4.57786">
        <ele>564.8</ele>
        <time>1970-01-01T03:50:44.000Z</time>
      </trkpt>
      <trkpt lat="45.43106" lon="4.57777">
        <ele>564.1</ele>
        <time>1970-01-01T03:50:45.000Z</time>
      </trkpt>
      <trkpt lat="45.43114" lon="4.57767">
        <ele>563.4</ele>
        <time>1970-01-01T03:50:46.000Z</time>
      </trkpt>
      <trkpt lat="45.43121" lon="4.57757">
        <ele>562.6</ele>
        <time>1970-01-01T03:50:47.000Z</time>
      </trkpt>
      <trkpt lat="45.43127" lon="4.57745">
        <ele>562</ele>
        <time>1970-01-01T03:50:48.000Z</time>
      </trkpt>
      <trkpt lat="45.43133" lon="4.57733">
        <ele>562</ele>
        <time>1970-01-01T03:50:49.000Z</time>
      </trkpt>
      <trkpt lat="45.43139" lon="4.57722">
        <ele>562</ele>
        <time>1970-01-01T03:50:50.000Z</time>
      </trkpt>
      <trkpt lat="45.43146" lon="4.57711">
        <ele>562</ele>
        <time>1970-01-01T03:50:51.000Z</time>
      </trkpt>
      <trkpt lat="45.43154" lon="4.57702">
        <ele>562</ele>
        <time>1970-01-01T03:50:52.000Z</time>
      </trkpt>
      <trkpt lat="45.43162" lon="4.57694">
        <ele>561.7</ele>
        <time>1970-01-01T03:50:53.000Z</time>
      </trkpt>
      <trkpt lat="45.4317" lon="4.57687">
        <ele>560.6</ele>
        <time>1970-01-01T03:50:54.000Z</time>
      </trkpt>
      <trkpt lat="45.43179" lon="4.5768">
        <ele>559.4</ele>
        <time>1970-01-01T03:50:55.000Z</time>
      </trkpt>
      <trkpt lat="45.43189" lon="4.57674">
        <ele>558.3</ele>
        <time>1970-01-01T03:50:56.000Z</time>
      </trkpt>
      <trkpt lat="45.43197" lon="4.57666">
        <ele>557.1</ele>
        <time>1970-01-01T03:50:57.000Z</time>
      </trkpt>
      <trkpt lat="45.43206" lon="4.57659">
        <ele>555.9</ele>
        <time>1970-01-01T03:50:58.000Z</time>
      </trkpt>
      <trkpt lat="45.43214" lon="4.57651">
        <ele>554.7</ele>
        <time>1970-01-01T03:50:59.000Z</time>
      </trkpt>
      <trkpt lat="45.43222" lon="4.57641">
        <ele>553.5</ele>
        <time>1970-01-01T03:51:00.000Z</time>
      </trkpt>
      <trkpt lat="45.4323" lon="4.57631">
        <ele>552.3</ele>
        <time>1970-01-01T03:51:01.000Z</time>
      </trkpt>
      <trkpt lat="45.43238" lon="4.57621">
        <ele>551</ele>
        <time>1970-01-01T03:51:02.000Z</time>
      </trkpt>
      <trkpt lat="45.43246" lon="4.57611">
        <ele>549.8</ele>
        <time>1970-01-01T03:51:03.000Z</time>
      </trkpt>
      <trkpt lat="45.43255" lon="4.57601">
        <ele>548.5</ele>
        <time>1970-01-01T03:51:04.000Z</time>
      </trkpt>
      <trkpt lat="45.43263" lon="4.57591">
        <ele>547.2</ele>
        <time>1970-01-01T03:51:05.000Z</time>
      </trkpt>
      <trkpt lat="45.4327" lon="4.5758">
        <ele>545.9</ele>
        <time>1970-01-01T03:51:06.000Z</time>
      </trkpt>
      <trkpt lat="45.43278" lon="4.57571">
        <ele>544.6</ele>
        <time>1970-01-01T03:51:07.000Z</time>
      </trkpt>
      <trkpt lat="45.43287" lon="4.57564">
        <ele>543.4</ele>
        <time>1970-01-01T03:51:08.000Z</time>
      </trkpt>
      <trkpt lat="45.43296" lon="4.5756">
        <ele>541.6</ele>
        <time>1970-01-01T03:51:09.000Z</time>
      </trkpt>
      <trkpt lat="45.43307" lon="4.57557">
        <ele>539.8</ele>
        <time>1970-01-01T03:51:10.000Z</time>
      </trkpt>
      <trkpt lat="45.43318" lon="4.57558">
        <ele>538.4</ele>
        <time>1970-01-01T03:51:11.000Z</time>
      </trkpt>
      <trkpt lat="45.43328" lon="4.57562">
        <ele>537.2</ele>
        <time>1970-01-01T03:51:12.000Z</time>
      </trkpt>
      <trkpt lat="45.43339" lon="4.57569">
        <ele>535.8</ele>
        <time>1970-01-01T03:51:13.000Z</time>
      </trkpt>
      <trkpt lat="45.43348" lon="4.5758">
        <ele>534.2</ele>
        <time>1970-01-01T03:51:14.000Z</time>
      </trkpt>
      <trkpt lat="45.43356" lon="4.57592">
        <ele>533.4</ele>
        <time>1970-01-01T03:51:15.000Z</time>
      </trkpt>
      <trkpt lat="45.43362" lon="4.57604">
        <ele>532.6</ele>
        <time>1970-01-01T03:51:16.000Z</time>
      </trkpt>
      <trkpt lat="45.4337" lon="4.57616">
        <ele>531.8</ele>
        <time>1970-01-01T03:51:17.000Z</time>
      </trkpt>
      <trkpt lat="45.43376" lon="4.57627">
        <ele>530.7</ele>
        <time>1970-01-01T03:51:18.000Z</time>
      </trkpt>
      <trkpt lat="45.43383" lon="4.57638">
        <ele>529.8</ele>
        <time>1970-01-01T03:51:19.000Z</time>
      </trkpt>
      <trkpt lat="45.4339" lon="4.57649">
        <ele>529.1</ele>
        <time>1970-01-01T03:51:20.000Z</time>
      </trkpt>
      <trkpt lat="45.43398" lon="4.57656">
        <ele>528.5</ele>
        <time>1970-01-01T03:51:21.000Z</time>
      </trkpt>
      <trkpt lat="45.43408" lon="4.57659">
        <ele>527.9</ele>
        <time>1970-01-01T03:51:22.000Z</time>
      </trkpt>
      <trkpt lat="45.43419" lon="4.57658">
        <ele>527.3</ele>
        <time>1970-01-01T03:51:23.000Z</time>
      </trkpt>
      <trkpt lat="45.43429" lon="4.57657">
        <ele>526.9</ele>
        <time>1970-01-01T03:51:24.000Z</time>
      </trkpt>
      <trkpt lat="45.43439" lon="4.57654">
        <ele>526.8</ele>
        <time>1970-01-01T03:51:25.000Z</time>
      </trkpt>
      <trkpt lat="45.43449" lon="4.5765">
        <ele>526.6</ele>
        <time>1970-01-01T03:51:26.000Z</time>
      </trkpt>
      <trkpt lat="45.43459" lon="4.57647">
        <ele>526.4</ele>
        <time>1970-01-01T03:51:27.000Z</time>
      </trkpt>
      <trkpt lat="45.43469" lon="4.57642">
        <ele>525.9</ele>
        <time>1970-01-01T03:51:28.000Z</time>
      </trkpt>
      <trkpt lat="45.43479" lon="4.57635">
        <ele>525.3</ele>
        <time>1970-01-01T03:51:29.000Z</time>
      </trkpt>
      <trkpt lat="45.43488" lon="4.57626">
        <ele>525</ele>
        <time>1970-01-01T03:51:30.000Z</time>
      </trkpt>
      <trkpt lat="45.43496" lon="4.57616">
        <ele>524.9</ele>
        <time>1970-01-01T03:51:31.000Z</time>
      </trkpt>
      <trkpt lat="45.43504" lon="4.57605">
        <ele>524.7</ele>
        <time>1970-01-01T03:51:32.000Z</time>
      </trkpt>
      <trkpt lat="45.43512" lon="4.57593">
        <ele>524.5</ele>
        <time>1970-01-01T03:51:33.000Z</time>
      </trkpt>
      <trkpt lat="45.43519" lon="4.57581">
        <ele>524.2</ele>
        <time>1970-01-01T03:51:34.000Z</time>
      </trkpt>
      <trkpt lat="45.43527" lon="4.5757">
        <ele>523.6</ele>
        <time>1970-01-01T03:51:35.000Z</time>
      </trkpt>
      <trkpt lat="45.43535" lon="4.57558">
        <ele>523.2</ele>
        <time>1970-01-01T03:51:36.000Z</time>
      </trkpt>
      <trkpt lat="45.43543" lon="4.57548">
        <ele>523</ele>
        <time>1970-01-01T03:51:37.000Z</time>
      </trkpt>
      <trkpt lat="45.4355" lon="4.57537">
        <ele>522.8</ele>
        <time>1970-01-01T03:51:38.000Z</time>
      </trkpt>
      <trkpt lat="45.43558" lon="4.57527">
        <ele>522.6</ele>
        <time>1970-01-01T03:51:39.000Z</time>
      </trkpt>
      <trkpt lat="45.43566" lon="4.57516">
        <ele>522</ele>
        <time>1970-01-01T03:51:40.000Z</time>
      </trkpt>
      <trkpt lat="45.43574" lon="4.57505">
        <ele>521.3</ele>
        <time>1970-01-01T03:51:41.000Z</time>
      </trkpt>
      <trkpt lat="45.43582" lon="4.57496">
        <ele>520.6</ele>
        <time>1970-01-01T03:51:42.000Z</time>
      </trkpt>
      <trkpt lat="45.4359" lon="4.57487">
        <ele>520.2</ele>
        <time>1970-01-01T03:51:43.000Z</time>
      </trkpt>
      <trkpt lat="45.43599" lon="4.57479">
        <ele>519.6</ele>
        <time>1970-01-01T03:51:44.000Z</time>
      </trkpt>
      <trkpt lat="45.43608" lon="4.57473">
        <ele>518.9</ele>
        <time>1970-01-01T03:51:45.000Z</time>
      </trkpt>
      <trkpt lat="45.43617" lon="4.57465">
        <ele>518.5</ele>
        <time>1970-01-01T03:51:46.000Z</time>
      </trkpt>
      <trkpt lat="45.43626" lon="4.57457">
        <ele>518.4</ele>
        <time>1970-01-01T03:51:47.000Z</time>
      </trkpt>
      <trkpt lat="45.43634" lon="4.57449">
        <ele>518.3</ele>
        <time>1970-01-01T03:51:48.000Z</time>
      </trkpt>
      <trkpt lat="45.43643" lon="4.57442">
        <ele>518.3</ele>
        <time>1970-01-01T03:51:49.000Z</time>
      </trkpt>
      <trkpt lat="45.43652" lon="4.57436">
        <ele>518.2</ele>
        <time>1970-01-01T03:51:50.000Z</time>
      </trkpt>
      <trkpt lat="45.43662" lon="4.57433">
        <ele>518.2</ele>
        <time>1970-01-01T03:51:51.000Z</time>
      </trkpt>
      <trkpt lat="45.4367" lon="4.57427">
        <ele>518.2</ele>
        <time>1970-01-01T03:51:52.000Z</time>
      </trkpt>
      <trkpt lat="45.43679" lon="4.57422">
        <ele>518.2</ele>
        <time>1970-01-01T03:51:53.000Z</time>
      </trkpt>
      <trkpt lat="45.43688" lon="4.57417">
        <ele>518.2</ele>
        <time>1970-01-01T03:51:54.000Z</time>
      </trkpt>
      <trkpt lat="45.43697" lon="4.57412">
        <ele>518.3</ele>
        <time>1970-01-01T03:51:55.000Z</time>
      </trkpt>
      <trkpt lat="45.43706" lon="4.57409">
        <ele>518.3</ele>
        <time>1970-01-01T03:51:56.000Z</time>
      </trkpt>
      <trkpt lat="45.43716" lon="4.57407">
        <ele>518.3</ele>
        <time>1970-01-01T03:51:57.000Z</time>
      </trkpt>
      <trkpt lat="45.43725" lon="4.57406">
        <ele>518.3</ele>
        <time>1970-01-01T03:51:58.000Z</time>
      </trkpt>
      <trkpt lat="45.43734" lon="4.57406">
        <ele>518.3</ele>
        <time>1970-01-01T03:51:59.000Z</time>
      </trkpt>
      <trkpt lat="45.43743" lon="4.57406">
        <ele>518.3</ele>
        <time>1970-01-01T03:52:00.000Z</time>
      </trkpt>
      <trkpt lat="45.43752" lon="4.57407">
        <ele>518.3</ele>
        <time>1970-01-01T03:52:01.000Z</time>
      </trkpt>
      <trkpt lat="45.43762" lon="4.57407">
        <ele>518.3</ele>
        <time>1970-01-01T03:52:02.000Z</time>
      </trkpt>
      <trkpt lat="45.43771" lon="4.57408">
        <ele>518.3</ele>
        <time>1970-01-01T03:52:03.000Z</time>
      </trkpt>
      <trkpt lat="45.4378" lon="4.57411">
        <ele>518.3</ele>
        <time>1970-01-01T03:52:04.000Z</time>
      </trkpt>
      <trkpt lat="45.43788" lon="4.57414">
        <ele>518.3</ele>
        <time>1970-01-01T03:52:05.000Z</time>
      </trkpt>
      <trkpt lat="45.43796" lon="4.5742">
        <ele>518.3</ele>
        <time>1970-01-01T03:52:06.000Z</time>
      </trkpt>
      <trkpt lat="45.43804" lon="4.57425">
        <ele>518.3</ele>
        <time>1970-01-01T03:52:07.000Z</time>
      </trkpt>
      <trkpt lat="45.43812" lon="4.5743">
        <ele>518.3</ele>
        <time>1970-01-01T03:52:08.000Z</time>
      </trkpt>
      <trkpt lat="45.43819" lon="4.57436">
        <ele>518.3</ele>
        <time>1970-01-01T03:52:09.000Z</time>
      </trkpt>
      <trkpt lat="45.43827" lon="4.57442">
        <ele>518.3</ele>
        <time>1970-01-01T03:52:10.000Z</time>
      </trkpt>
      <trkpt lat="45.43835" lon="4.57447">
        <ele>518.4</ele>
        <time>1970-01-01T03:52:11.000Z</time>
      </trkpt>
      <trkpt lat="45.43843" lon="4.57452">
        <ele>518.4</ele>
        <time>1970-01-01T03:52:12.000Z</time>
      </trkpt>
      <trkpt lat="45.43851" lon="4.57457">
        <ele>518.4</ele>
        <time>1970-01-01T03:52:13.000Z</time>
      </trkpt>
      <trkpt lat="45.4386" lon="4.57461">
        <ele>518.5</ele>
        <time>1970-01-01T03:52:14.000Z</time>
      </trkpt>
      <trkpt lat="45.43868" lon="4.57466">
        <ele>518.5</ele>
        <time>1970-01-01T03:52:15.000Z</time>
      </trkpt>
      <trkpt lat="45.43876" lon="4.5747">
        <ele>518.6</ele>
        <time>1970-01-01T03:52:16.000Z</time>
      </trkpt>
      <trkpt lat="45.43884" lon="4.57475">
        <ele>518.6</ele>
        <time>1970-01-01T03:52:17.000Z</time>
      </trkpt>
      <trkpt lat="45.43892" lon="4.5748">
        <ele>518.8</ele>
        <time>1970-01-01T03:52:18.000Z</time>
      </trkpt>
      <trkpt lat="45.43899" lon="4.57485">
        <ele>519.2</ele>
        <time>1970-01-01T03:52:19.000Z</time>
      </trkpt>
      <trkpt lat="45.43907" lon="4.57489">
        <ele>519.6</ele>
        <time>1970-01-01T03:52:20.000Z</time>
      </trkpt>
      <trkpt lat="45.43915" lon="4.57494">
        <ele>519.9</ele>
        <time>1970-01-01T03:52:21.000Z</time>
      </trkpt>
      <trkpt lat="45.43922" lon="4.57499">
        <ele>520.1</ele>
        <time>1970-01-01T03:52:22.000Z</time>
      </trkpt>
      <trkpt lat="45.43929" lon="4.57504">
        <ele>520.3</ele>
        <time>1970-01-01T03:52:23.000Z</time>
      </trkpt>
      <trkpt lat="45.43935" lon="4.57509">
        <ele>520.4</ele>
        <time>1970-01-01T03:52:24.000Z</time>
      </trkpt>
      <trkpt lat="45.43941" lon="4.57513">
        <ele>520.4</ele>
        <time>1970-01-01T03:52:25.000Z</time>
      </trkpt>
      <trkpt lat="45.43947" lon="4.57517">
        <ele>520.5</ele>
        <time>1970-01-01T03:52:26.000Z</time>
      </trkpt>
      <trkpt lat="45.43953" lon="4.57521">
        <ele>520.5</ele>
        <time>1970-01-01T03:52:27.000Z</time>
      </trkpt>
      <trkpt lat="45.43959" lon="4.57525">
        <ele>520.6</ele>
        <time>1970-01-01T03:52:28.000Z</time>
      </trkpt>
      <trkpt lat="45.43965" lon="4.57528">
        <ele>520.6</ele>
        <time>1970-01-01T03:52:29.000Z</time>
      </trkpt>
      <trkpt lat="45.43971" lon="4.57532">
        <ele>520.7</ele>
        <time>1970-01-01T03:52:30.000Z</time>
      </trkpt>
      <trkpt lat="45.43976" lon="4.57536">
        <ele>520.7</ele>
        <time>1970-01-01T03:52:31.000Z</time>
      </trkpt>
      <trkpt lat="45.43981" lon="4.57539">
        <ele>520.7</ele>
        <time>1970-01-01T03:52:32.000Z</time>
      </trkpt>
      <trkpt lat="45.43987" lon="4.57543">
        <ele>520.7</ele>
        <time>1970-01-01T03:52:33.000Z</time>
      </trkpt>
      <trkpt lat="45.43991" lon="4.57548">
        <ele>520.7</ele>
        <time>1970-01-01T03:52:34.000Z</time>
      </trkpt>
      <trkpt lat="45.43995" lon="4.57553">
        <ele>520.7</ele>
        <time>1970-01-01T03:52:35.000Z</time>
      </trkpt>
      <trkpt lat="45.43999" lon="4.57559">
        <ele>520.7</ele>
        <time>1970-01-01T03:52:36.000Z</time>
      </trkpt>
      <trkpt lat="45.44004" lon="4.57564">
        <ele>520.8</ele>
        <time>1970-01-01T03:52:37.000Z</time>
      </trkpt>
      <trkpt lat="45.44008" lon="4.57569">
        <ele>520.8</ele>
        <time>1970-01-01T03:52:38.000Z</time>
      </trkpt>
      <trkpt lat="45.44012" lon="4.57574">
        <ele>520.8</ele>
        <time>1970-01-01T03:52:39.000Z</time>
      </trkpt>
      <trkpt lat="45.44015" lon="4.57578">
        <ele>520.8</ele>
        <time>1970-01-01T03:52:40.000Z</time>
      </trkpt>
      <trkpt lat="45.44019" lon="4.57583">
        <ele>520.8</ele>
        <time>1970-01-01T03:52:41.000Z</time>
      </trkpt>
      <trkpt lat="45.44023" lon="4.57587">
        <ele>520.8</ele>
        <time>1970-01-01T03:52:42.000Z</time>
      </trkpt>
      <trkpt lat="45.44027" lon="4.57592">
        <ele>520.8</ele>
        <time>1970-01-01T03:52:43.000Z</time>
      </trkpt>
      <trkpt lat="45.44031" lon="4.57596">
        <ele>520.8</ele>
        <time>1970-01-01T03:52:44.000Z</time>
      </trkpt>
      <trkpt lat="45.44035" lon="4.57601">
        <ele>520.8</ele>
        <time>1970-01-01T03:52:45.000Z</time>
      </trkpt>
      <trkpt lat="45.44039" lon="4.57605">
        <ele>520.8</ele>
        <time>1970-01-01T03:52:46.000Z</time>
      </trkpt>
      <trkpt lat="45.44043" lon="4.5761">
        <ele>520.8</ele>
        <time>1970-01-01T03:52:47.000Z</time>
      </trkpt>
      <trkpt lat="45.44047" lon="4.57616">
        <ele>520.8</ele>
        <time>1970-01-01T03:52:48.000Z</time>
      </trkpt>
      <trkpt lat="45.44051" lon="4.57623">
        <ele>520.8</ele>
        <time>1970-01-01T03:52:49.000Z</time>
      </trkpt>
      <trkpt lat="45.44056" lon="4.5763">
        <ele>520.8</ele>
        <time>1970-01-01T03:52:50.000Z</time>
      </trkpt>
      <trkpt lat="45.44061" lon="4.57636">
        <ele>520.8</ele>
        <time>1970-01-01T03:52:51.000Z</time>
      </trkpt>
      <trkpt lat="45.44066" lon="4.57644">
        <ele>520.8</ele>
        <time>1970-01-01T03:52:52.000Z</time>
      </trkpt>
      <trkpt lat="45.44071" lon="4.57652">
        <ele>520.8</ele>
        <time>1970-01-01T03:52:53.000Z</time>
      </trkpt>
      <trkpt lat="45.44076" lon="4.5766">
        <ele>520.8</ele>
        <time>1970-01-01T03:52:54.000Z</time>
      </trkpt>
      <trkpt lat="45.44082" lon="4.57668">
        <ele>520.8</ele>
        <time>1970-01-01T03:52:55.000Z</time>
      </trkpt>
      <trkpt lat="45.44087" lon="4.57676">
        <ele>520.9</ele>
        <time>1970-01-01T03:52:56.000Z</time>
      </trkpt>
      <trkpt lat="45.44093" lon="4.57685">
        <ele>520.9</ele>
        <time>1970-01-01T03:52:57.000Z</time>
      </trkpt>
      <trkpt lat="45.44098" lon="4.57693">
        <ele>520.9</ele>
        <time>1970-01-01T03:52:58.000Z</time>
      </trkpt>
      <trkpt lat="45.44102" lon="4.57703">
        <ele>520.9</ele>
        <time>1970-01-01T03:52:59.000Z</time>
      </trkpt>
      <trkpt lat="45.44105" lon="4.57714">
        <ele>520.9</ele>
        <time>1970-01-01T03:53:00.000Z</time>
      </trkpt>
      <trkpt lat="45.44108" lon="4.57724">
        <ele>520.9</ele>
        <time>1970-01-01T03:53:01.000Z</time>
      </trkpt>
      <trkpt lat="45.44112" lon="4.57734">
        <ele>521</ele>
        <time>1970-01-01T03:53:02.000Z</time>
      </trkpt>
      <trkpt lat="45.44114" lon="4.57744">
        <ele>521</ele>
        <time>1970-01-01T03:53:03.000Z</time>
      </trkpt>
      <trkpt lat="45.44115" lon="4.57754">
        <ele>521</ele>
        <time>1970-01-01T03:53:04.000Z</time>
      </trkpt>
      <trkpt lat="45.44116" lon="4.57765">
        <ele>521.1</ele>
        <time>1970-01-01T03:53:05.000Z</time>
      </trkpt>
      <trkpt lat="45.44117" lon="4.57774">
        <ele>521.1</ele>
        <time>1970-01-01T03:53:06.000Z</time>
      </trkpt>
      <trkpt lat="45.44118" lon="4.57784">
        <ele>521.2</ele>
        <time>1970-01-01T03:53:07.000Z</time>
      </trkpt>
      <trkpt lat="45.44118" lon="4.57795">
        <ele>521.3</ele>
        <time>1970-01-01T03:53:08.000Z</time>
      </trkpt>
      <trkpt lat="45.44118" lon="4.57805">
        <ele>521.4</ele>
        <time>1970-01-01T03:53:09.000Z</time>
      </trkpt>
      <trkpt lat="45.44119" lon="4.57815">
        <ele>521.7</ele>
        <time>1970-01-01T03:53:10.000Z</time>
      </trkpt>
      <trkpt lat="45.4412" lon="4.57826">
        <ele>522</ele>
        <time>1970-01-01T03:53:11.000Z</time>
      </trkpt>
      <trkpt lat="45.44121" lon="4.57836">
        <ele>522.3</ele>
        <time>1970-01-01T03:53:12.000Z</time>
      </trkpt>
      <trkpt lat="45.44123" lon="4.57845">
        <ele>522.5</ele>
        <time>1970-01-01T03:53:13.000Z</time>
      </trkpt>
      <trkpt lat="45.44125" lon="4.57855">
        <ele>522.6</ele>
        <time>1970-01-01T03:53:14.000Z</time>
      </trkpt>
      <trkpt lat="45.44127" lon="4.57865">
        <ele>522.7</ele>
        <time>1970-01-01T03:53:15.000Z</time>
      </trkpt>
      <trkpt lat="45.4413" lon="4.57874">
        <ele>522.8</ele>
        <time>1970-01-01T03:53:16.000Z</time>
      </trkpt>
      <trkpt lat="45.44133" lon="4.57883">
        <ele>522.9</ele>
        <time>1970-01-01T03:53:17.000Z</time>
      </trkpt>
      <trkpt lat="45.44137" lon="4.57892">
        <ele>522.9</ele>
        <time>1970-01-01T03:53:18.000Z</time>
      </trkpt>
      <trkpt lat="45.4414" lon="4.579">
        <ele>523</ele>
        <time>1970-01-01T03:53:19.000Z</time>
      </trkpt>
      <trkpt lat="45.44144" lon="4.57908">
        <ele>523</ele>
        <time>1970-01-01T03:53:20.000Z</time>
      </trkpt>
      <trkpt lat="45.44148" lon="4.57916">
        <ele>523</ele>
        <time>1970-01-01T03:53:21.000Z</time>
      </trkpt>
      <trkpt lat="45.44152" lon="4.57925">
        <ele>523</ele>
        <time>1970-01-01T03:53:22.000Z</time>
      </trkpt>
      <trkpt lat="45.44155" lon="4.57933">
        <ele>523.1</ele>
        <time>1970-01-01T03:53:23.000Z</time>
      </trkpt>
      <trkpt lat="45.44159" lon="4.57942">
        <ele>523.1</ele>
        <time>1970-01-01T03:53:24.000Z</time>
      </trkpt>
      <trkpt lat="45.44162" lon="4.5795">
        <ele>523.1</ele>
        <time>1970-01-01T03:53:25.000Z</time>
      </trkpt>
      <trkpt lat="45.44166" lon="4.57958">
        <ele>523.1</ele>
        <time>1970-01-01T03:53:26.000Z</time>
      </trkpt>
      <trkpt lat="45.4417" lon="4.57966">
        <ele>523.1</ele>
        <time>1970-01-01T03:53:27.000Z</time>
      </trkpt>
      <trkpt lat="45.44174" lon="4.57974">
        <ele>523.1</ele>
        <time>1970-01-01T03:53:28.000Z</time>
      </trkpt>
      <trkpt lat="45.44178" lon="4.57981">
        <ele>523.1</ele>
        <time>1970-01-01T03:53:29.000Z</time>
      </trkpt>
      <trkpt lat="45.44182" lon="4.57989">
        <ele>523.1</ele>
        <time>1970-01-01T03:53:30.000Z</time>
      </trkpt>
      <trkpt lat="45.44186" lon="4.57996">
        <ele>523.1</ele>
        <time>1970-01-01T03:53:31.000Z</time>
      </trkpt>
      <trkpt lat="45.44191" lon="4.58003">
        <ele>523.1</ele>
        <time>1970-01-01T03:53:32.000Z</time>
      </trkpt>
      <trkpt lat="45.44194" lon="4.58011">
        <ele>523</ele>
        <time>1970-01-01T03:53:33.000Z</time>
      </trkpt>
      <trkpt lat="45.44198" lon="4.58018">
        <ele>523</ele>
        <time>1970-01-01T03:53:34.000Z</time>
      </trkpt>
      <trkpt lat="45.44203" lon="4.58025">
        <ele>522.9</ele>
        <time>1970-01-01T03:53:35.000Z</time>
      </trkpt>
      <trkpt lat="45.44206" lon="4.58033">
        <ele>522.9</ele>
        <time>1970-01-01T03:53:36.000Z</time>
      </trkpt>
      <trkpt lat="45.4421" lon="4.5804">
        <ele>522.8</ele>
        <time>1970-01-01T03:53:37.000Z</time>
      </trkpt>
      <trkpt lat="45.44214" lon="4.58046">
        <ele>522.5</ele>
        <time>1970-01-01T03:53:38.000Z</time>
      </trkpt>
      <trkpt lat="45.44218" lon="4.58051">
        <ele>522.1</ele>
        <time>1970-01-01T03:53:39.000Z</time>
      </trkpt>
      <trkpt lat="45.44223" lon="4.58057">
        <ele>522</ele>
        <time>1970-01-01T03:53:40.000Z</time>
      </trkpt>
      <trkpt lat="45.44227" lon="4.58063">
        <ele>521.9</ele>
        <time>1970-01-01T03:53:41.000Z</time>
      </trkpt>
      <trkpt lat="45.44231" lon="4.58068">
        <ele>521.4</ele>
        <time>1970-01-01T03:53:42.000Z</time>
      </trkpt>
      <trkpt lat="45.44237" lon="4.58072">
        <ele>520.9</ele>
        <time>1970-01-01T03:53:43.000Z</time>
      </trkpt>
      <trkpt lat="45.44243" lon="4.58076">
        <ele>520.3</ele>
        <time>1970-01-01T03:53:44.000Z</time>
      </trkpt>
      <trkpt lat="45.44248" lon="4.58082">
        <ele>519.7</ele>
        <time>1970-01-01T03:53:45.000Z</time>
      </trkpt>
      <trkpt lat="45.44254" lon="4.58087">
        <ele>519.2</ele>
        <time>1970-01-01T03:53:46.000Z</time>
      </trkpt>
      <trkpt lat="45.4426" lon="4.58092">
        <ele>518.6</ele>
        <time>1970-01-01T03:53:47.000Z</time>
      </trkpt>
      <trkpt lat="45.44266" lon="4.58098">
        <ele>518</ele>
        <time>1970-01-01T03:53:48.000Z</time>
      </trkpt>
      <trkpt lat="45.44273" lon="4.58104">
        <ele>517.4</ele>
        <time>1970-01-01T03:53:49.000Z</time>
      </trkpt>
      <trkpt lat="45.4428" lon="4.5811">
        <ele>516.6</ele>
        <time>1970-01-01T03:53:50.000Z</time>
      </trkpt>
      <trkpt lat="45.44286" lon="4.58116">
        <ele>515.7</ele>
        <time>1970-01-01T03:53:51.000Z</time>
      </trkpt>
      <trkpt lat="45.44293" lon="4.58123">
        <ele>514.9</ele>
        <time>1970-01-01T03:53:52.000Z</time>
      </trkpt>
      <trkpt lat="45.443" lon="4.58129">
        <ele>514</ele>
        <time>1970-01-01T03:53:53.000Z</time>
      </trkpt>
      <trkpt lat="45.44307" lon="4.58135">
        <ele>513.2</ele>
        <time>1970-01-01T03:53:54.000Z</time>
      </trkpt>
      <trkpt lat="45.44315" lon="4.58143">
        <ele>512.3</ele>
        <time>1970-01-01T03:53:55.000Z</time>
      </trkpt>
      <trkpt lat="45.44322" lon="4.58151">
        <ele>511.4</ele>
        <time>1970-01-01T03:53:56.000Z</time>
      </trkpt>
      <trkpt lat="45.4433" lon="4.58158">
        <ele>510.6</ele>
        <time>1970-01-01T03:53:57.000Z</time>
      </trkpt>
      <trkpt lat="45.44337" lon="4.58165">
        <ele>509.7</ele>
        <time>1970-01-01T03:53:58.000Z</time>
      </trkpt>
      <trkpt lat="45.44344" lon="4.58172">
        <ele>509</ele>
        <time>1970-01-01T03:53:59.000Z</time>
      </trkpt>
      <trkpt lat="45.44351" lon="4.58178">
        <ele>508.2</ele>
        <time>1970-01-01T03:54:00.000Z</time>
      </trkpt>
      <trkpt lat="45.44358" lon="4.58186">
        <ele>507.5</ele>
        <time>1970-01-01T03:54:01.000Z</time>
      </trkpt>
      <trkpt lat="45.44366" lon="4.58194">
        <ele>506.7</ele>
        <time>1970-01-01T03:54:02.000Z</time>
      </trkpt>
      <trkpt lat="45.44373" lon="4.582">
        <ele>506</ele>
        <time>1970-01-01T03:54:03.000Z</time>
      </trkpt>
      <trkpt lat="45.44382" lon="4.58204">
        <ele>505.2</ele>
        <time>1970-01-01T03:54:04.000Z</time>
      </trkpt>
      <trkpt lat="45.44391" lon="4.58205">
        <ele>504.4</ele>
        <time>1970-01-01T03:54:05.000Z</time>
      </trkpt>
      <trkpt lat="45.444" lon="4.58202">
        <ele>503.6</ele>
        <time>1970-01-01T03:54:06.000Z</time>
      </trkpt>
      <trkpt lat="45.44409" lon="4.58197">
        <ele>502.7</ele>
        <time>1970-01-01T03:54:07.000Z</time>
      </trkpt>
      <trkpt lat="45.44416" lon="4.58189">
        <ele>501.9</ele>
        <time>1970-01-01T03:54:08.000Z</time>
      </trkpt>
      <trkpt lat="45.44423" lon="4.58178">
        <ele>501</ele>
        <time>1970-01-01T03:54:09.000Z</time>
      </trkpt>
      <trkpt lat="45.44427" lon="4.58166">
        <ele>500.1</ele>
        <time>1970-01-01T03:54:10.000Z</time>
      </trkpt>
      <trkpt lat="45.4443" lon="4.58154">
        <ele>499.3</ele>
        <time>1970-01-01T03:54:11.000Z</time>
      </trkpt>
      <trkpt lat="45.44433" lon="4.58145">
        <ele>498.2</ele>
        <time>1970-01-01T03:54:12.000Z</time>
      </trkpt>
      <trkpt lat="45.44437" lon="4.5814">
        <ele>498.4</ele>
        <time>1970-01-01T03:54:13.000Z</time>
      </trkpt>
      <trkpt lat="45.44442" lon="4.58137">
        <ele>498.4</ele>
        <time>1970-01-01T03:54:14.000Z</time>
      </trkpt>
      <trkpt lat="45.44449" lon="4.58139">
        <ele>498.5</ele>
        <time>1970-01-01T03:54:15.000Z</time>
      </trkpt>
      <trkpt lat="45.44459" lon="4.5814">
        <ele>498.6</ele>
        <time>1970-01-01T03:54:16.000Z</time>
      </trkpt>
      <trkpt lat="45.44467" lon="4.58142">
        <ele>498.6</ele>
        <time>1970-01-01T03:54:17.000Z</time>
      </trkpt>
      <trkpt lat="45.44475" lon="4.58144">
        <ele>498.4</ele>
        <time>1970-01-01T03:54:18.000Z</time>
      </trkpt>
      <trkpt lat="45.44483" lon="4.58146">
        <ele>498.2</ele>
        <time>1970-01-01T03:54:19.000Z</time>
      </trkpt>
      <trkpt lat="45.44492" lon="4.58148">
        <ele>497.9</ele>
        <time>1970-01-01T03:54:20.000Z</time>
      </trkpt>
      <trkpt lat="45.44501" lon="4.58153">
        <ele>497.7</ele>
        <time>1970-01-01T03:54:21.000Z</time>
      </trkpt>
      <trkpt lat="45.44509" lon="4.5816">
        <ele>497.4</ele>
        <time>1970-01-01T03:54:22.000Z</time>
      </trkpt>
      <trkpt lat="45.44517" lon="4.58166">
        <ele>496.8</ele>
        <time>1970-01-01T03:54:23.000Z</time>
      </trkpt>
      <trkpt lat="45.44526" lon="4.58173">
        <ele>496.2</ele>
        <time>1970-01-01T03:54:24.000Z</time>
      </trkpt>
      <trkpt lat="45.44535" lon="4.58182">
        <ele>495.6</ele>
        <time>1970-01-01T03:54:25.000Z</time>
      </trkpt>
      <trkpt lat="45.44543" lon="4.58192">
        <ele>495</ele>
        <time>1970-01-01T03:54:26.000Z</time>
      </trkpt>
      <trkpt lat="45.4455" lon="4.58202">
        <ele>494.3</ele>
        <time>1970-01-01T03:54:27.000Z</time>
      </trkpt>
      <trkpt lat="45.44557" lon="4.58214">
        <ele>493.6</ele>
        <time>1970-01-01T03:54:28.000Z</time>
      </trkpt>
      <trkpt lat="45.44563" lon="4.5823">
        <ele>492.8</ele>
        <time>1970-01-01T03:54:29.000Z</time>
      </trkpt>
      <trkpt lat="45.44568" lon="4.58247">
        <ele>492</ele>
        <time>1970-01-01T03:54:30.000Z</time>
      </trkpt>
      <trkpt lat="45.44575" lon="4.58262">
        <ele>482.9</ele>
        <time>1970-01-01T03:54:31.000Z</time>
      </trkpt>
      <trkpt lat="45.44581" lon="4.58277">
        <ele>474.7</ele>
        <time>1970-01-01T03:54:32.000Z</time>
      </trkpt>
      <trkpt lat="45.44586" lon="4.58288">
        <ele>474.1</ele>
        <time>1970-01-01T03:54:33.000Z</time>
      </trkpt>
      <trkpt lat="45.4459" lon="4.58299">
        <ele>473.4</ele>
        <time>1970-01-01T03:54:34.000Z</time>
      </trkpt>
      <trkpt lat="45.44597" lon="4.5831">
        <ele>472.7</ele>
        <time>1970-01-01T03:54:35.000Z</time>
      </trkpt>
      <trkpt lat="45.44604" lon="4.5832">
        <ele>471.9</ele>
        <time>1970-01-01T03:54:36.000Z</time>
      </trkpt>
      <trkpt lat="45.44612" lon="4.5833">
        <ele>471.1</ele>
        <time>1970-01-01T03:54:37.000Z</time>
      </trkpt>
      <trkpt lat="45.44619" lon="4.58337">
        <ele>470.4</ele>
        <time>1970-01-01T03:54:38.000Z</time>
      </trkpt>
      <trkpt lat="45.44628" lon="4.58343">
        <ele>469.7</ele>
        <time>1970-01-01T03:54:39.000Z</time>
      </trkpt>
      <trkpt lat="45.44638" lon="4.58346">
        <ele>468.9</ele>
        <time>1970-01-01T03:54:40.000Z</time>
      </trkpt>
      <trkpt lat="45.44649" lon="4.5835">
        <ele>468</ele>
        <time>1970-01-01T03:54:41.000Z</time>
      </trkpt>
      <trkpt lat="45.4466" lon="4.58353">
        <ele>467</ele>
        <time>1970-01-01T03:54:42.000Z</time>
      </trkpt>
      <trkpt lat="45.44671" lon="4.58355">
        <ele>466.2</ele>
        <time>1970-01-01T03:54:43.000Z</time>
      </trkpt>
      <trkpt lat="45.44681" lon="4.58358">
        <ele>466</ele>
        <time>1970-01-01T03:54:44.000Z</time>
      </trkpt>
      <trkpt lat="45.44693" lon="4.5836">
        <ele>465.5</ele>
        <time>1970-01-01T03:54:45.000Z</time>
      </trkpt>
      <trkpt lat="45.44703" lon="4.58362">
        <ele>465.1</ele>
        <time>1970-01-01T03:54:46.000Z</time>
      </trkpt>
      <trkpt lat="45.44712" lon="4.58364">
        <ele>465.2</ele>
        <time>1970-01-01T03:54:47.000Z</time>
      </trkpt>
      <trkpt lat="45.44717" lon="4.58364">
        <ele>466</ele>
        <time>1970-01-01T03:54:48.000Z</time>
      </trkpt>
      <trkpt lat="45.44722" lon="4.58366">
        <ele>466</ele>
        <time>1970-01-01T03:54:50.000Z</time>
      </trkpt>
      <trkpt lat="45.44726" lon="4.58367">
        <ele>465.4</ele>
        <time>1970-01-01T03:54:51.000Z</time>
      </trkpt>
      <trkpt lat="45.4473" lon="4.58367">
        <ele>464.9</ele>
        <time>1970-01-01T03:54:52.000Z</time>
      </trkpt>
      <trkpt lat="45.44737" lon="4.58367">
        <ele>464.8</ele>
        <time>1970-01-01T03:54:55.000Z</time>
      </trkpt>
      <trkpt lat="45.44741" lon="4.58367">
        <ele>464.7</ele>
        <time>1970-01-01T03:54:56.000Z</time>
      </trkpt>
      <trkpt lat="45.44746" lon="4.58367">
        <ele>464.7</ele>
        <time>1970-01-01T03:54:57.000Z</time>
      </trkpt>
      <trkpt lat="45.44751" lon="4.58368">
        <ele>464.6</ele>
        <time>1970-01-01T03:54:58.000Z</time>
      </trkpt>
      <trkpt lat="45.44755" lon="4.58371">
        <ele>464.6</ele>
        <time>1970-01-01T03:54:59.000Z</time>
      </trkpt>
      <trkpt lat="45.44759" lon="4.58372">
        <ele>464.5</ele>
        <time>1970-01-01T03:55:00.000Z</time>
      </trkpt>
      <trkpt lat="45.44763" lon="4.58372">
        <ele>464.5</ele>
        <time>1970-01-01T03:55:03.000Z</time>
      </trkpt>
      <trkpt lat="45.44766" lon="4.58372">
        <ele>464.4</ele>
        <time>1970-01-01T03:55:04.000Z</time>
      </trkpt>
      <trkpt lat="45.4477" lon="4.58373">
        <ele>464.4</ele>
        <time>1970-01-01T03:55:05.000Z</time>
      </trkpt>
      <trkpt lat="45.44774" lon="4.58376">
        <ele>464.3</ele>
        <time>1970-01-01T03:55:06.000Z</time>
      </trkpt>
      <trkpt lat="45.44778" lon="4.58379">
        <ele>464.3</ele>
        <time>1970-01-01T03:55:07.000Z</time>
      </trkpt>
      <trkpt lat="45.44783" lon="4.58382">
        <ele>464.2</ele>
        <time>1970-01-01T03:55:08.000Z</time>
      </trkpt>
      <trkpt lat="45.44788" lon="4.58383">
        <ele>464.2</ele>
        <time>1970-01-01T03:55:09.000Z</time>
      </trkpt>
      <trkpt lat="45.44792" lon="4.58384">
        <ele>464.1</ele>
        <time>1970-01-01T03:55:10.000Z</time>
      </trkpt>
      <trkpt lat="45.44797" lon="4.58386">
        <ele>464.1</ele>
        <time>1970-01-01T03:55:11.000Z</time>
      </trkpt>
      <trkpt lat="45.44801" lon="4.58389">
        <ele>464</ele>
        <time>1970-01-01T03:55:12.000Z</time>
      </trkpt>
      <trkpt lat="45.44805" lon="4.58392">
        <ele>464</ele>
        <time>1970-01-01T03:55:13.000Z</time>
      </trkpt>
      <trkpt lat="45.44808" lon="4.58394">
        <ele>463.9</ele>
        <time>1970-01-01T03:55:14.000Z</time>
      </trkpt>
      <trkpt lat="45.44812" lon="4.58396">
        <ele>463.9</ele>
        <time>1970-01-01T03:55:15.000Z</time>
      </trkpt>
      <trkpt lat="45.44815" lon="4.58399">
        <ele>463.8</ele>
        <time>1970-01-01T03:55:16.000Z</time>
      </trkpt>
      <trkpt lat="45.44818" lon="4.58402">
        <ele>463.8</ele>
        <time>1970-01-01T03:55:17.000Z</time>
      </trkpt>
      <trkpt lat="45.44821" lon="4.58404">
        <ele>463.8</ele>
        <time>1970-01-01T03:55:18.000Z</time>
      </trkpt>
      <trkpt lat="45.44825" lon="4.58406">
        <ele>463.7</ele>
        <time>1970-01-01T03:55:19.000Z</time>
      </trkpt>
      <trkpt lat="45.44828" lon="4.58406">
        <ele>463.7</ele>
        <time>1970-01-01T03:55:20.000Z</time>
      </trkpt>
      <trkpt lat="45.44831" lon="4.58408">
        <ele>463.6</ele>
        <time>1970-01-01T03:55:21.000Z</time>
      </trkpt>
      <trkpt lat="45.44834" lon="4.5841">
        <ele>463.6</ele>
        <time>1970-01-01T03:55:22.000Z</time>
      </trkpt>
      <trkpt lat="45.44837" lon="4.58412">
        <ele>463.6</ele>
        <time>1970-01-01T03:55:23.000Z</time>
      </trkpt>
      <trkpt lat="45.4484" lon="4.58413">
        <ele>463.5</ele>
        <time>1970-01-01T03:55:24.000Z</time>
      </trkpt>
      <trkpt lat="45.44843" lon="4.58414">
        <ele>463.5</ele>
        <time>1970-01-01T03:55:25.000Z</time>
      </trkpt>
      <trkpt lat="45.44846" lon="4.58414">
        <ele>463.5</ele>
        <time>1970-01-01T03:55:26.000Z</time>
      </trkpt>
      <trkpt lat="45.4485" lon="4.58415">
        <ele>463.4</ele>
        <time>1970-01-01T03:55:28.000Z</time>
      </trkpt>
      <trkpt lat="45.44853" lon="4.58415">
        <ele>463.4</ele>
        <time>1970-01-01T03:55:32.000Z</time>
      </trkpt>
    </trkseg>
  </trk>
</gpx>